
Distance (Route):
Temperature : 16.9°C
Humidity : 86.7%
Pressure : 1003.8hPa| Receiver | Frames | First received | Last received |
|---|---|---|---|
| DM0DOS-11 | 1392 | 2026-08-30 23:36:44 | 2026-08-31 03:18:35 |
| DL1XH-west | 1237 | 2026-08-30 23:54:46 | 2026-08-31 03:13:08 |
| BIOWL1-15 | 1147 | 2026-08-30 23:38:50 | 2026-08-31 03:13:17 |
| GOEST3-10 | 708 | 2026-08-30 23:54:31 | 2026-08-31 03:18:15 |
| DF5WG-10 | 575 | 2026-08-31 00:11:53 | 2026-08-31 03:17:49 |
| DL1XH-15 | 574 | 2026-08-31 00:17:59 | 2026-08-31 02:43:42 |
| AA1-15 | 408 | 2026-08-31 00:28:14 | 2026-08-31 01:57:50 |
| DJ2DS-15 | 324 | 2026-08-30 23:45:12 | 2026-08-31 05:55:17 |
| DO2JMG | 298 | 2026-08-31 00:18:02 | 2026-08-31 02:32:34 |
| DL3AQ-11 | 143 | 2026-08-31 00:22:52 | 2026-08-31 02:17:22 |
| DO9LL-15 | 142 | 2026-08-30 23:38:23 | 2026-08-31 03:04:11 |
| HTAHTA | 103 | 2026-08-30 23:39:05 | 2026-08-31 03:18:00 |
| BIOWL9-15 | 97 | 2026-08-30 23:41:06 | 2026-08-31 03:03:25 |
| DL4BBY-15 | 95 | 2026-08-31 00:00:57 | 2026-08-31 03:06:11 |
| DB0UT-7 | 89 | 2026-08-30 23:48:35 | 2026-08-31 02:33:23 |
| WEDDY | 86 | 2026-08-30 23:37:44 | 2026-08-31 02:53:20 |
| DH3RM | 84 | 2026-08-31 00:04:29 | 2026-08-31 02:14:15 |
| DO1YAY-16 | 70 | 2026-08-30 23:53:39 | 2026-08-31 02:06:43 |
| KNMI2-11 | 52 | 2026-08-30 23:28:34 | 2026-08-31 00:13:35 |
| SONCRA | 49 | 2026-08-31 00:25:26 | 2026-08-31 02:21:58 |
| DO3DL | 49 | 2026-08-31 01:11:31 | 2026-08-31 02:11:04 |
| DC4HF-4 | 48 | 2026-08-31 00:12:06 | 2026-08-31 02:27:54 |
| BIOWL7-15 | 42 | 2026-08-30 23:49:36 | 2026-08-31 03:08:16 |
| MET0W-2 | 40 | 2026-08-31 00:44:44 | 2026-08-31 02:29:22 |
| DC6BW-12 | 35 | 2026-08-31 00:59:34 | 2026-08-31 02:57:34 |
| DL1LOL-11 | 29 | 2026-08-30 23:58:02 | 2026-08-31 03:05:54 |
| DL1ZP-14 | 28 | 2026-08-31 00:25:49 | 2026-08-31 01:48:45 |
| DJ2KF-10 | 26 | 2026-08-31 00:31:03 | 2026-08-31 01:10:04 |
| DD1CC8 | 25 | 2026-08-31 00:28:12 | 2026-08-31 01:23:34 |
| DO9FK | 19 | 2026-08-31 02:38:47 | 2026-08-31 03:15:18 |
| DD1CC3-15 | 17 | 2026-08-31 01:20:17 | 2026-08-31 02:17:31 |
| DD1CC2-15 | 17 | 2026-08-31 01:27:36 | 2026-08-31 02:27:16 |
| SONDE2-11 | 16 | 2026-08-31 01:06:22 | 2026-08-31 01:35:21 |
| EDDB2-12 | 14 | 2026-08-31 01:08:37 | 2026-08-31 01:32:56 |
| DK5PH-5 | 10 | 2026-08-31 00:51:05 | 2026-08-31 01:24:38 |
| DL8DAS-14 | 6 | 2026-08-31 00:40:36 | 2026-08-31 01:27:40 |
| DB0ND-19 | 4 | 2026-08-30 23:59:08 | 2026-08-31 00:04:18 |
| HSKMA3-T | 4 | 2026-08-31 01:18:46 | 2026-08-31 01:25:11 |
| DD1CC1-15 | 3 | 2026-08-31 00:00:03 | 2026-08-31 01:22:47 |
| DB0NH | 2 | 2026-08-31 00:28:13 | 2026-08-31 01:51:24 |
| DO2KSM | 2 | 2026-08-31 02:04:45 | 2026-08-31 02:05:49 |
| WL7-15 | 1 | 2026-08-31 00:00:24 | 2026-08-31 00:00:24 |
| WPPR-10 | 1 | 2026-08-31 00:32:44 | 2026-08-31 00:32:44 |
| BUE01 | 1 | 2026-08-31 00:47:59 | 2026-08-31 00:47:59 |
| DL1CLM-18 | 1 | 2026-08-31 01:11:41 | 2026-08-31 01:11:41 |
| DL8DAS-15 | 1 | 2026-08-31 01:26:46 | 2026-08-31 01:26:46 |
| SMARD9-10 | 1 | 2026-08-31 01:43:33 | 2026-08-31 01:43:33 |
| SMARD9-15 | 1 | 2026-08-31 02:29:39 | 2026-08-31 02:29:39 |
| Receiver | Date | Latitude | Longitude | Direction | Speed | Altitude | Climb | Temperature | Humidity | Pressure | Voltage | Killtimer | Uptime | BKT | XDATA |
|---|---|---|---|---|---|---|---|---|---|---|---|---|---|---|---|
| DJ2DS-15 | 2026-08-31 05:55:17 | 53.43265 | 7.10880 | 210° | 0km/h | 54m | 0.0m/s | 16.9°C | 86.7% | 1003.8hPa | 2.8V | 00:00:00 | 00:00:00 | 00:00:00 | |
| DJ2DS-15 | 2026-08-31 05:54:41 | 53.43266 | 7.10878 | 275° | 0km/h | 57m | -0.0m/s | 16.8°C | 88.1% | 1003.6hPa | 2.8V | 00:00:00 | 00:00:00 | 00:00:00 | |
| DJ2DS-15 | 2026-08-31 05:54:05 | 53.43266 | 7.10879 | 113° | 0km/h | 59m | -0.1m/s | 16.9°C | 86.0% | 1003.7hPa | 2.8V | 00:00:00 | 00:00:00 | 00:00:00 | |
| DJ2DS-15 | 2026-08-31 05:53:29 | 53.43266 | 7.10879 | 79° | 0km/h | 57m | -0.0m/s | 16.9°C | 86.2% | 1003.6hPa | 2.8V | 00:00:00 | 00:00:00 | 00:00:00 | |
| DJ2DS-15 | 2026-08-31 05:52:53 | 53.43266 | 7.10878 | 138° | 0km/h | 57m | -0.1m/s | 17.1°C | 85.9% | 1003.7hPa | 2.8V | 00:00:00 | 00:00:00 | 00:00:00 | |
| DJ2DS-15 | 2026-08-31 05:52:17 | 53.43267 | 7.10878 | 180° | 0km/h | 56m | -0.0m/s | 17.0°C | 85.6% | 1003.7hPa | 2.8V | 00:00:00 | 00:00:00 | 00:00:00 | |
| DJ2DS-15 | 2026-08-31 05:51:41 | 53.43266 | 7.10879 | 285° | 0km/h | 56m | -0.0m/s | 17.0°C | 86.8% | 1003.8hPa | 2.8V | 00:00:00 | 00:00:00 | 00:00:00 | |
| DJ2DS-15 | 2026-08-31 05:51:05 | 53.43266 | 7.10877 | 296° | 0km/h | 59m | -0.0m/s | 17.0°C | 87.5% | 1003.6hPa | 2.8V | 00:00:00 | 00:00:00 | 00:00:00 | |
| DJ2DS-15 | 2026-08-31 05:50:29 | 53.43266 | 7.10877 | 84° | 0km/h | 59m | -0.0m/s | 16.8°C | 86.9% | 1003.5hPa | 2.8V | 00:00:00 | 00:00:00 | 00:00:00 | |
| DJ2DS-15 | 2026-08-31 05:49:53 | 53.43265 | 7.10877 | 357° | 0km/h | 58m | 0.1m/s | 16.8°C | 87.6% | 1003.8hPa | 2.8V | 00:00:00 | 00:00:00 | 00:00:00 | |
| DJ2DS-15 | 2026-08-31 05:49:17 | 53.43266 | 7.10877 | 71° | 0km/h | 59m | 0.1m/s | 16.7°C | 87.0% | 1003.7hPa | 2.8V | 00:00:00 | 00:00:00 | 00:00:00 | |
| DJ2DS-15 | 2026-08-31 05:48:41 | 53.43267 | 7.10878 | 220° | 0km/h | 59m | 0.0m/s | 17.0°C | 84.7% | 1003.6hPa | 2.8V | 00:00:00 | 00:00:00 | 00:00:00 | |
| DJ2DS-15 | 2026-08-31 05:48:05 | 53.43266 | 7.10878 | 210° | 0km/h | 57m | 0.1m/s | 16.8°C | 87.4% | 1003.7hPa | 2.8V | 00:00:00 | 00:00:00 | 00:00:00 | |
| DJ2DS-15 | 2026-08-31 05:47:29 | 53.43266 | 7.10879 | 138° | 0km/h | 57m | -0.0m/s | 17.0°C | 86.4% | 1003.6hPa | 2.8V | 00:00:00 | 00:00:00 | 00:00:00 | |
| DJ2DS-15 | 2026-08-31 05:46:53 | 53.43267 | 7.10880 | 29° | 0km/h | 59m | 0.1m/s | 16.7°C | 87.1% | 1003.8hPa | 2.8V | 00:00:00 | 00:00:00 | 00:00:00 | |
| DJ2DS-15 | 2026-08-31 05:46:17 | 53.43266 | 7.10879 | 274° | 0km/h | 59m | 0.0m/s | 16.8°C | 87.5% | 1003.7hPa | 2.8V | 00:00:00 | 00:00:00 | 00:00:00 | |
| DJ2DS-15 | 2026-08-31 05:45:41 | 53.43266 | 7.10880 | 197° | 0km/h | 59m | 0.0m/s | 16.8°C | 86.6% | 1003.8hPa | 2.8V | 00:00:00 | 00:00:00 | 00:00:00 | |
| DJ2DS-15 | 2026-08-31 05:45:05 | 53.43267 | 7.10880 | 315° | 0km/h | 60m | -0.0m/s | 16.6°C | 88.6% | 1003.6hPa | 2.8V | 00:00:00 | 00:00:00 | 00:00:00 | |
| DJ2DS-15 | 2026-08-31 05:44:29 | 53.43267 | 7.10880 | 192° | 0km/h | 59m | -0.1m/s | 16.6°C | 88.0% | 1003.8hPa | 2.8V | 00:00:00 | 00:00:00 | 00:00:00 | |
| DJ2DS-15 | 2026-08-31 05:43:52 | 53.43267 | 7.10880 | 64° | 0km/h | 59m | -0.1m/s | 16.5°C | 88.7% | 1003.7hPa | 2.8V | 00:00:00 | 00:00:00 | 00:00:00 | |
| DJ2DS-15 | 2026-08-31 05:43:17 | 53.43267 | 7.10880 | 39° | 0km/h | 57m | 0.1m/s | 16.6°C | 87.4% | 1003.7hPa | 2.8V | 00:00:00 | 00:00:00 | 00:00:00 | |
| DJ2DS-15 | 2026-08-31 05:42:40 | 53.43266 | 7.10880 | 296° | 0km/h | 57m | 0.1m/s | 16.6°C | 88.2% | 1003.7hPa | 2.8V | 00:00:00 | 00:00:00 | 00:00:00 | |
| DJ2DS-15 | 2026-08-31 05:42:04 | 53.43266 | 7.10878 | 25° | 0km/h | 57m | -0.0m/s | 16.5°C | 88.6% | 1003.6hPa | 2.8V | 00:00:00 | 00:00:00 | 00:00:00 | |
| DJ2DS-15 | 2026-08-31 05:41:28 | 53.43266 | 7.10879 | 51° | 0km/h | 55m | -0.0m/s | 16.5°C | 88.5% | 1003.8hPa | 2.8V | 00:00:00 | 00:00:00 | 00:00:00 | |
| DJ2DS-15 | 2026-08-31 05:40:52 | 53.43267 | 7.10880 | 49° | 0km/h | 55m | 0.0m/s | 16.5°C | 89.1% | 1003.6hPa | 2.8V | 00:00:00 | 00:00:00 | 00:00:00 | |
| DJ2DS-15 | 2026-08-31 05:40:16 | 53.43266 | 7.10880 | 0° | 0km/h | 57m | 0.0m/s | 16.5°C | 88.2% | 1003.8hPa | 2.8V | 00:00:00 | 00:00:00 | 00:00:00 | |
| DJ2DS-15 | 2026-08-31 05:39:40 | 53.43266 | 7.10880 | 260° | 0km/h | 58m | -0.0m/s | 16.5°C | 88.3% | 1003.7hPa | 2.8V | 00:00:00 | 00:00:00 | 00:00:00 | |
| DJ2DS-15 | 2026-08-31 05:39:04 | 53.43266 | 7.10880 | 204° | 0km/h | 59m | -0.0m/s | 16.5°C | 88.7% | 1003.7hPa | 2.8V | 00:00:00 | 00:00:00 | 00:00:00 | |
| DJ2DS-15 | 2026-08-31 05:38:28 | 53.43266 | 7.10880 | 246° | 0km/h | 55m | 0.0m/s | 16.5°C | 88.2% | 1003.7hPa | 2.8V | 00:00:00 | 00:00:00 | 00:00:00 | |
| DJ2DS-15 | 2026-08-31 05:37:52 | 53.43265 | 7.10881 | 154° | 0km/h | 53m | 0.0m/s | 16.5°C | 89.0% | 1003.8hPa | 2.8V | 00:00:00 | 00:00:00 | 00:00:00 | |
| DJ2DS-15 | 2026-08-31 05:37:16 | 53.43266 | 7.10880 | 20° | 0km/h | 55m | -0.0m/s | 16.5°C | 88.3% | 1003.7hPa | 2.8V | 00:00:00 | 00:00:00 | 00:00:00 | |
| DJ2DS-15 | 2026-08-31 05:36:40 | 53.43266 | 7.10880 | 78° | 0km/h | 57m | 0.1m/s | 16.6°C | 87.4% | 1003.6hPa | 2.8V | 00:00:00 | 00:00:00 | 00:00:00 | |
| DJ2DS-15 | 2026-08-31 05:36:04 | 53.43266 | 7.10881 | 210° | 0km/h | 55m | 0.1m/s | 16.5°C | 88.3% | 1003.7hPa | 2.8V | 00:00:00 | 00:00:00 | 00:00:00 | |
| DJ2DS-15 | 2026-08-31 05:35:28 | 53.43267 | 7.10880 | 206° | 0km/h | 55m | 0.0m/s | 16.5°C | 87.6% | 1003.8hPa | 2.8V | 00:00:00 | 00:00:00 | 00:00:00 | |
| DJ2DS-15 | 2026-08-31 05:34:52 | 53.43267 | 7.10881 | 293° | 0km/h | 56m | 0.0m/s | 16.5°C | 87.8% | 1003.6hPa | 2.8V | 00:00:00 | 00:00:00 | 00:00:00 | |
| DJ2DS-15 | 2026-08-31 05:34:16 | 53.43268 | 7.10882 | 124° | 0km/h | 55m | 0.0m/s | 16.6°C | 87.2% | 1003.6hPa | 2.8V | 00:00:00 | 00:00:00 | 00:00:00 | |
| DJ2DS-15 | 2026-08-31 05:33:40 | 53.43267 | 7.10881 | 128° | 0km/h | 56m | -0.0m/s | 16.5°C | 87.7% | 1003.5hPa | 2.8V | 00:00:00 | 00:00:00 | 00:00:00 | |
| DJ2DS-15 | 2026-08-31 05:33:04 | 53.43267 | 7.10880 | 31° | 0km/h | 56m | -0.0m/s | 16.5°C | 88.3% | 1003.5hPa | 2.8V | 00:00:00 | 00:00:00 | 00:00:00 | |
| DJ2DS-15 | 2026-08-31 05:31:51 | 53.43266 | 7.10880 | 197° | 0km/h | 57m | -0.0m/s | 16.6°C | 86.8% | 1003.6hPa | 2.8V | 00:00:00 | 00:00:00 | 00:00:00 | |
| DJ2DS-15 | 2026-08-31 05:31:15 | 53.43266 | 7.10880 | 176° | 0km/h | 56m | 0.1m/s | 16.5°C | 87.6% | 1003.6hPa | 2.8V | 00:00:00 | 00:00:00 | 00:00:00 | |
| DJ2DS-15 | 2026-08-31 05:30:39 | 53.43266 | 7.10878 | 205° | 0km/h | 56m | 0.0m/s | 16.7°C | 86.7% | 1003.5hPa | 2.8V | 00:00:00 | 00:00:00 | 00:00:00 | |
| DJ2DS-15 | 2026-08-31 05:30:03 | 53.43266 | 7.10878 | 248° | 0km/h | 57m | 0.0m/s | 16.6°C | 87.0% | 1003.5hPa | 2.8V | 00:00:00 | 00:00:00 | 00:00:00 | |
| DJ2DS-15 | 2026-08-31 05:29:27 | 53.43266 | 7.10878 | 206° | 0km/h | 58m | -0.0m/s | 16.6°C | 86.9% | 1003.7hPa | 2.8V | 00:00:00 | 00:00:00 | 00:00:00 | |
| DJ2DS-15 | 2026-08-31 05:28:51 | 53.43266 | 7.10877 | 138° | 0km/h | 56m | 0.1m/s | 16.6°C | 85.9% | 1003.5hPa | 2.8V | 00:00:00 | 00:00:00 | 00:00:00 | |
| DJ2DS-15 | 2026-08-31 05:28:15 | 53.43266 | 7.10877 | 255° | 0km/h | 58m | 0.1m/s | 16.5°C | 87.9% | 1003.5hPa | 2.8V | 00:00:00 | 00:00:00 | 00:00:00 | |
| DJ2DS-15 | 2026-08-31 05:27:39 | 53.43266 | 7.10877 | 4° | 0km/h | 57m | 0.0m/s | 16.5°C | 88.4% | 1003.4hPa | 2.8V | 00:00:00 | 00:00:00 | 00:00:00 | |
| DJ2DS-15 | 2026-08-31 05:27:03 | 53.43267 | 7.10880 | 149° | 0km/h | 57m | -0.0m/s | 16.5°C | 87.2% | 1003.5hPa | 2.8V | 00:00:00 | 00:00:00 | 00:00:00 | |
| DJ2DS-15 | 2026-08-31 05:26:27 | 53.43266 | 7.10878 | 173° | 0km/h | 58m | 0.0m/s | 16.6°C | 86.4% | 1003.5hPa | 2.8V | 00:00:00 | 00:00:00 | 00:00:00 | |
| DJ2DS-15 | 2026-08-31 05:25:51 | 53.43266 | 7.10878 | 49° | 0km/h | 56m | -0.0m/s | 16.6°C | 87.4% | 1003.6hPa | 2.8V | 00:00:00 | 00:00:00 | 00:00:00 | |
| DJ2DS-15 | 2026-08-31 05:25:15 | 53.43266 | 7.10878 | 314° | 0km/h | 55m | 0.1m/s | 16.6°C | 88.5% | 1003.8hPa | 2.8V | 00:00:00 | 00:00:00 | 00:00:00 | |
| DJ2DS-15 | 2026-08-31 05:24:39 | 53.43266 | 7.10879 | 210° | 0km/h | 55m | 0.0m/s | 16.6°C | 87.0% | 1003.5hPa | 2.8V | 00:00:00 | 00:00:00 | 00:00:00 | |
| DJ2DS-15 | 2026-08-31 05:24:03 | 53.43266 | 7.10879 | 243° | 0km/h | 56m | -0.0m/s | 16.7°C | 87.1% | 1003.6hPa | 2.8V | 00:00:00 | 00:00:00 | 00:00:00 | |
| DJ2DS-15 | 2026-08-31 05:23:27 | 53.43266 | 7.10879 | 296° | 0km/h | 58m | 0.0m/s | 16.7°C | 87.1% | 1003.8hPa | 2.8V | 00:00:00 | 00:00:00 | 00:00:00 | |
| DJ2DS-15 | 2026-08-31 05:22:51 | 53.43267 | 7.10879 | 87° | 0km/h | 58m | -0.0m/s | 16.7°C | 85.3% | 1003.6hPa | 2.8V | 00:00:00 | 00:00:00 | 00:00:00 | |
| DJ2DS-15 | 2026-08-31 05:22:15 | 53.43267 | 7.10879 | 206° | 0km/h | 56m | -0.0m/s | 16.5°C | 87.9% | 1003.6hPa | 2.8V | 00:00:00 | 00:00:00 | 00:00:00 | |
| DJ2DS-15 | 2026-08-31 05:21:39 | 53.43267 | 7.10880 | 151° | 0km/h | 56m | 0.1m/s | 16.5°C | 87.3% | 1003.6hPa | 2.8V | 00:00:00 | 00:00:00 | 00:00:00 | |
| DJ2DS-15 | 2026-08-31 05:21:02 | 53.43267 | 7.10880 | 117° | 0km/h | 57m | 0.0m/s | 16.5°C | 87.6% | 1003.6hPa | 2.8V | 00:00:00 | 00:00:00 | 00:00:00 | |
| DJ2DS-15 | 2026-08-31 05:20:26 | 53.43266 | 7.10880 | 90° | 0km/h | 56m | -0.1m/s | 16.5°C | 87.3% | 1003.7hPa | 2.8V | 00:00:00 | 00:00:00 | 00:00:00 | |
| DJ2DS-15 | 2026-08-31 05:19:50 | 53.43267 | 7.10880 | 210° | 0km/h | 55m | 0.1m/s | 16.5°C | 87.6% | 1003.8hPa | 2.8V | 00:00:00 | 00:00:00 | 00:00:00 | |
| DJ2DS-15 | 2026-08-31 05:19:14 | 53.43267 | 7.10880 | 322° | 0km/h | 56m | 0.0m/s | 16.5°C | 86.6% | 1003.7hPa | 2.8V | 00:00:00 | 00:00:00 | 00:00:00 | |
| DJ2DS-15 | 2026-08-31 05:18:38 | 53.43266 | 7.10880 | 8° | 0km/h | 56m | -0.0m/s | 16.2°C | 89.4% | 1003.7hPa | 2.8V | 00:00:00 | 00:00:00 | 00:00:00 | |
| DJ2DS-15 | 2026-08-31 05:18:02 | 53.43266 | 7.10879 | 49° | 0km/h | 57m | 0.0m/s | 16.3°C | 88.9% | 1003.8hPa | 2.8V | 00:00:00 | 00:00:00 | 00:00:00 | |
| DJ2DS-15 | 2026-08-31 05:17:26 | 53.43267 | 7.10878 | 66° | 0km/h | 56m | 0.1m/s | 16.2°C | 89.0% | 1003.7hPa | 2.8V | 00:00:00 | 00:00:00 | 00:00:00 | |
| DJ2DS-15 | 2026-08-31 05:16:50 | 53.43267 | 7.10879 | 298° | 0km/h | 56m | -0.0m/s | 16.1°C | 89.6% | 1003.7hPa | 2.8V | 00:00:00 | 00:00:00 | 00:00:00 | |
| DJ2DS-15 | 2026-08-31 05:16:14 | 53.43266 | 7.10879 | 116° | 0km/h | 55m | 0.0m/s | 16.4°C | 88.2% | 1003.7hPa | 2.8V | 00:00:00 | 00:00:00 | 00:00:00 | |
| DJ2DS-15 | 2026-08-31 05:15:38 | 53.43266 | 7.10880 | 243° | 0km/h | 55m | 0.0m/s | 16.2°C | 89.3% | 1003.8hPa | 2.8V | 00:00:00 | 00:00:00 | 00:00:00 | |
| DJ2DS-15 | 2026-08-31 05:15:02 | 53.43267 | 7.10880 | 329° | 0km/h | 57m | 0.1m/s | 16.3°C | 88.1% | 1003.7hPa | 2.8V | 00:00:00 | 00:00:00 | 00:00:00 | |
| DJ2DS-15 | 2026-08-31 05:14:26 | 53.43267 | 7.10880 | 233° | 0km/h | 58m | -0.0m/s | 16.3°C | 87.8% | 1003.9hPa | 2.8V | 00:00:00 | 00:00:00 | 00:00:00 | |
| DJ2DS-15 | 2026-08-31 05:13:50 | 53.43266 | 7.10880 | 149° | 0km/h | 57m | -0.0m/s | 16.1°C | 89.8% | 1003.8hPa | 2.8V | 00:00:00 | 00:00:00 | 00:00:00 | |
| DJ2DS-15 | 2026-08-31 05:13:14 | 53.43267 | 7.10880 | 3° | 0km/h | 56m | 0.0m/s | 16.3°C | 87.4% | 1003.8hPa | 2.8V | 00:00:00 | 00:00:00 | 00:00:00 | |
| DJ2DS-15 | 2026-08-31 05:12:38 | 53.43266 | 7.10879 | 12° | 0km/h | 55m | 0.0m/s | 16.3°C | 87.6% | 1003.8hPa | 2.8V | 00:00:00 | 00:00:00 | 00:00:00 | |
| DJ2DS-15 | 2026-08-31 05:12:02 | 53.43266 | 7.10880 | 167° | 0km/h | 55m | 0.1m/s | 16.1°C | 89.2% | 1003.9hPa | 2.8V | 00:00:00 | 00:00:00 | 00:00:00 | |
| DJ2DS-15 | 2026-08-31 05:11:26 | 53.43267 | 7.10879 | 199° | 0km/h | 56m | 0.0m/s | 16.2°C | 88.6% | 1003.8hPa | 2.8V | 00:00:00 | 00:00:00 | 00:00:00 | |
| DJ2DS-15 | 2026-08-31 05:10:50 | 53.43267 | 7.10879 | 218° | 0km/h | 55m | 0.0m/s | 16.1°C | 89.4% | 1003.7hPa | 2.8V | 00:00:00 | 00:00:00 | 00:00:00 | |
| DJ2DS-15 | 2026-08-31 05:10:14 | 53.43267 | 7.10879 | 235° | 0km/h | 55m | 0.1m/s | 16.1°C | 88.4% | 1003.9hPa | 2.8V | 00:00:00 | 00:00:00 | 00:00:00 | |
| DJ2DS-15 | 2026-08-31 05:09:37 | 53.43266 | 7.10881 | 69° | 0km/h | 54m | -0.0m/s | 16.0°C | 90.4% | 1003.8hPa | 2.8V | 00:00:00 | 00:00:00 | 00:00:00 | |
| DJ2DS-15 | 2026-08-31 05:09:01 | 53.43266 | 7.10880 | 202° | 0km/h | 54m | -0.0m/s | 16.1°C | 89.9% | 1003.6hPa | 2.8V | 00:00:00 | 00:00:00 | 00:00:00 | |
| DJ2DS-15 | 2026-08-31 05:08:25 | 53.43266 | 7.10880 | 63° | 0km/h | 55m | -0.0m/s | 16.2°C | 88.3% | 1003.8hPa | 2.8V | 00:00:00 | 00:00:00 | 00:00:00 | |
| DJ2DS-15 | 2026-08-31 05:07:49 | 53.43266 | 7.10880 | 258° | 0km/h | 56m | 0.0m/s | 16.0°C | 90.2% | 1003.7hPa | 2.8V | 00:00:00 | 00:00:00 | 00:00:00 | |
| DJ2DS-15 | 2026-08-31 05:06:37 | 53.43267 | 7.10880 | 237° | 0km/h | 56m | 0.0m/s | 16.0°C | 90.1% | 1003.8hPa | 2.8V | 00:00:00 | 00:00:00 | 00:00:00 | |
| DJ2DS-15 | 2026-08-31 05:06:01 | 53.43266 | 7.10879 | 179° | 0km/h | 55m | -0.0m/s | 16.2°C | 88.7% | 1003.8hPa | 2.8V | 00:00:00 | 00:00:00 | 00:00:00 | |
| DJ2DS-15 | 2026-08-31 05:05:25 | 53.43266 | 7.10879 | 51° | 0km/h | 56m | -0.0m/s | 16.2°C | 88.4% | 1003.9hPa | 2.8V | 00:00:00 | 00:00:00 | 00:00:00 | |
| DJ2DS-15 | 2026-08-31 05:04:49 | 53.43266 | 7.10879 | 178° | 0km/h | 56m | 0.1m/s | 16.1°C | 89.4% | 1003.9hPa | 2.8V | 00:00:00 | 00:00:00 | 00:00:00 | |
| DJ2DS-15 | 2026-08-31 05:04:13 | 53.43267 | 7.10881 | 62° | 0km/h | 55m | 0.0m/s | 16.0°C | 90.5% | 1003.9hPa | 2.8V | 00:00:00 | 00:00:00 | 00:00:00 | |
| DJ2DS-15 | 2026-08-31 05:03:37 | 53.43266 | 7.10880 | 93° | 0km/h | 56m | 0.1m/s | 16.1°C | 89.2% | 1003.9hPa | 2.8V | 00:00:00 | 00:00:00 | 00:00:00 | |
| DJ2DS-15 | 2026-08-31 05:03:01 | 53.43266 | 7.10879 | 287° | 0km/h | 55m | 0.0m/s | 16.1°C | 88.9% | 1003.9hPa | 2.8V | 00:00:00 | 00:00:00 | 00:00:00 | |
| DJ2DS-15 | 2026-08-31 05:02:25 | 53.43266 | 7.10879 | 237° | 0km/h | 55m | 0.0m/s | 16.0°C | 90.8% | 1003.7hPa | 2.8V | 00:00:00 | 00:00:00 | 00:00:00 | |
| DJ2DS-15 | 2026-08-31 05:01:49 | 53.43266 | 7.10880 | 216° | 0km/h | 57m | 0.0m/s | 16.2°C | 88.2% | 1003.8hPa | 2.8V | 00:00:00 | 00:00:00 | 00:00:00 | |
| DJ2DS-15 | 2026-08-31 05:01:13 | 53.43267 | 7.10880 | 294° | 0km/h | 56m | -0.1m/s | 15.9°C | 92.0% | 1003.8hPa | 2.8V | 00:00:00 | 00:00:00 | 00:00:00 | |
| DJ2DS-15 | 2026-08-31 05:00:37 | 53.43267 | 7.10879 | 32° | 0km/h | 55m | 0.1m/s | 16.1°C | 89.2% | 1003.9hPa | 2.8V | 00:00:00 | 00:00:00 | 00:00:00 | |
| DJ2DS-15 | 2026-08-31 04:59:25 | 53.43267 | 7.10880 | 255° | 0km/h | 56m | -0.1m/s | 16.1°C | 89.3% | 1003.8hPa | 2.8V | 00:00:00 | 00:00:00 | 00:00:00 | |
| DJ2DS-15 | 2026-08-31 04:58:49 | 53.43267 | 7.10880 | 354° | 0km/h | 55m | -0.0m/s | 16.0°C | 90.2% | 1003.8hPa | 2.8V | 00:00:00 | 00:00:00 | 00:00:00 | |
| DJ2DS-15 | 2026-08-31 04:58:12 | 53.43266 | 7.10880 | 234° | 0km/h | 57m | 0.0m/s | 15.9°C | 91.8% | 1003.8hPa | 2.8V | 00:00:00 | 00:00:00 | 00:00:00 | |
| DJ2DS-15 | 2026-08-31 04:57:36 | 53.43267 | 7.10880 | 303° | 0km/h | 58m | 0.1m/s | 16.1°C | 90.0% | 1003.8hPa | 2.8V | 00:00:00 | 00:00:00 | 00:00:00 | |
| DJ2DS-15 | 2026-08-31 04:57:00 | 53.43266 | 7.10881 | 239° | 0km/h | 55m | 0.1m/s | 16.0°C | 90.4% | 1003.9hPa | 2.8V | 00:00:00 | 00:00:00 | 00:00:00 | |
| DJ2DS-15 | 2026-08-31 04:56:24 | 53.43266 | 7.10879 | 185° | 0km/h | 57m | -0.0m/s | 15.9°C | 92.9% | 1003.8hPa | 2.8V | 00:00:00 | 00:00:00 | 00:00:00 | |
| DJ2DS-15 | 2026-08-31 04:55:48 | 53.43267 | 7.10880 | 92° | 0km/h | 57m | 0.1m/s | 15.8°C | 92.7% | 1003.7hPa | 2.8V | 00:00:00 | 00:00:00 | 00:00:00 | |
| DJ2DS-15 | 2026-08-31 04:55:12 | 53.43267 | 7.10880 | 270° | 0km/h | 56m | -0.0m/s | 16.0°C | 90.4% | 1003.7hPa | 2.8V | 00:00:00 | 00:00:00 | 00:00:00 | |
| DJ2DS-15 | 2026-08-31 04:54:36 | 53.43266 | 7.10879 | 307° | 0km/h | 56m | 0.1m/s | 16.1°C | 90.1% | 1003.9hPa | 2.8V | 00:00:00 | 00:00:00 | 00:00:00 | |
| DJ2DS-15 | 2026-08-31 04:54:00 | 53.43267 | 7.10880 | 277° | 0km/h | 56m | -0.1m/s | 15.9°C | 91.9% | 1003.8hPa | 2.8V | 00:00:00 | 00:00:00 | 00:00:00 | |
| DJ2DS-15 | 2026-08-31 04:53:24 | 53.43267 | 7.10880 | 68° | 0km/h | 55m | 0.1m/s | 15.8°C | 92.3% | 1003.9hPa | 2.8V | 00:00:00 | 00:00:00 | 00:00:00 | |
| DJ2DS-15 | 2026-08-31 04:52:48 | 53.43267 | 7.10879 | 159° | 0km/h | 55m | -0.1m/s | 16.1°C | 90.5% | 1003.8hPa | 2.8V | 00:00:00 | 00:00:00 | 00:00:00 | |
| DJ2DS-15 | 2026-08-31 04:52:12 | 53.43267 | 7.10878 | 175° | 0km/h | 55m | 0.1m/s | 16.0°C | 91.6% | 1003.8hPa | 2.8V | 00:00:00 | 00:00:00 | 00:00:00 | |
| DJ2DS-15 | 2026-08-31 04:51:36 | 53.43266 | 7.10879 | 293° | 0km/h | 55m | 0.0m/s | 16.0°C | 90.2% | 1003.7hPa | 2.8V | 00:00:00 | 00:00:00 | 00:00:00 | |
| DJ2DS-15 | 2026-08-31 04:51:00 | 53.43266 | 7.10880 | 226° | 0km/h | 54m | 0.0m/s | 16.1°C | 89.9% | 1003.7hPa | 2.8V | 00:00:00 | 00:00:00 | 00:00:00 | |
| DJ2DS-15 | 2026-08-31 04:50:24 | 53.43265 | 7.10879 | 63° | 0km/h | 55m | 0.0m/s | 16.1°C | 89.7% | 1003.9hPa | 2.8V | 00:00:00 | 00:00:00 | 00:00:00 | |
| DJ2DS-15 | 2026-08-31 04:49:48 | 53.43266 | 7.10879 | 141° | 0km/h | 54m | 0.1m/s | 16.2°C | 89.2% | 1003.7hPa | 2.8V | 00:00:00 | 00:00:00 | 00:00:00 | |
| DJ2DS-15 | 2026-08-31 04:49:12 | 53.43266 | 7.10880 | 225° | 0km/h | 56m | -0.1m/s | 16.1°C | 90.2% | 1003.8hPa | 2.8V | 00:00:00 | 00:00:00 | 00:00:00 | |
| DJ2DS-15 | 2026-08-31 04:48:36 | 53.43267 | 7.10880 | 195° | 0km/h | 57m | -0.1m/s | 15.9°C | 92.4% | 1003.8hPa | 2.8V | 00:00:00 | 00:00:00 | 00:00:00 | |
| DJ2DS-15 | 2026-08-31 04:48:01 | 53.43267 | 7.10879 | 241° | 0km/h | 57m | -0.0m/s | 15.8°C | 92.4% | 1003.9hPa | 2.8V | 00:00:00 | 00:00:00 | 00:00:00 | |
| DJ2DS-15 | 2026-08-31 04:47:24 | 53.43267 | 7.10878 | 275° | 0km/h | 56m | -0.0m/s | 15.6°C | 94.6% | 1003.6hPa | 2.8V | 00:00:00 | 00:00:00 | 00:00:00 | |
| DJ2DS-15 | 2026-08-31 04:46:48 | 53.43266 | 7.10880 | 102° | 0km/h | 55m | -0.0m/s | 15.7°C | 94.1% | 1003.8hPa | 2.8V | 00:00:00 | 00:00:00 | 00:00:00 | |
| DJ2DS-15 | 2026-08-31 04:46:11 | 53.43267 | 7.10881 | 191° | 0km/h | 55m | -0.0m/s | 15.9°C | 92.5% | 1003.8hPa | 2.8V | 00:00:00 | 00:00:00 | 00:00:00 | |
| DJ2DS-15 | 2026-08-31 04:45:35 | 53.43266 | 7.10879 | 61° | 0km/h | 55m | 0.0m/s | 16.0°C | 92.2% | 1003.6hPa | 2.8V | 00:00:00 | 00:00:00 | 00:00:00 | |
| DJ2DS-15 | 2026-08-31 04:44:59 | 53.43266 | 7.10879 | 102° | 0km/h | 55m | 0.0m/s | 15.8°C | 92.8% | 1003.9hPa | 2.8V | 00:00:00 | 00:00:00 | 00:00:00 | |
| DJ2DS-15 | 2026-08-31 04:44:23 | 53.43265 | 7.10879 | 122° | 0km/h | 54m | -0.0m/s | 15.9°C | 92.8% | 1003.7hPa | 2.8V | 00:00:00 | 00:00:00 | 00:00:00 | |
| DJ2DS-15 | 2026-08-31 04:43:47 | 53.43265 | 7.10879 | 24° | 0km/h | 55m | -0.1m/s | 15.8°C | 93.6% | 1003.7hPa | 2.8V | 00:00:00 | 00:00:00 | 00:00:00 | |
| DJ2DS-15 | 2026-08-31 04:43:11 | 53.43265 | 7.10879 | 186° | 0km/h | 55m | 0.0m/s | 15.9°C | 93.0% | 1003.7hPa | 2.8V | 00:00:00 | 00:00:00 | 00:00:00 | |
| DJ2DS-15 | 2026-08-31 04:42:35 | 53.43266 | 7.10880 | 122° | 0km/h | 54m | 0.0m/s | 16.1°C | 90.5% | 1003.6hPa | 2.8V | 00:00:00 | 00:00:00 | 00:00:00 | |
| DJ2DS-15 | 2026-08-31 04:41:59 | 53.43266 | 7.10879 | 225° | 0km/h | 55m | -0.1m/s | 16.1°C | 90.6% | 1003.7hPa | 2.8V | 00:00:00 | 00:00:00 | 00:00:00 | |
| DJ2DS-15 | 2026-08-31 04:41:23 | 53.43266 | 7.10879 | 8° | 0km/h | 56m | -0.0m/s | 15.7°C | 94.3% | 1003.7hPa | 2.8V | 00:00:00 | 00:00:00 | 00:00:00 | |
| DJ2DS-15 | 2026-08-31 04:40:47 | 53.43266 | 7.10878 | 352° | 0km/h | 56m | -0.0m/s | 15.8°C | 93.5% | 1003.5hPa | 2.8V | 00:00:00 | 00:00:00 | 00:00:00 | |
| DJ2DS-15 | 2026-08-31 04:40:11 | 53.43265 | 7.10876 | 20° | 0km/h | 54m | 0.0m/s | 15.9°C | 92.8% | 1003.5hPa | 2.8V | 00:00:00 | 00:00:00 | 00:00:00 | |
| DJ2DS-15 | 2026-08-31 04:39:35 | 53.43267 | 7.10879 | 78° | 0km/h | 55m | 0.0m/s | 15.8°C | 93.1% | 1003.6hPa | 2.8V | 00:00:00 | 00:00:00 | 00:00:00 | |
| DJ2DS-15 | 2026-08-31 04:38:59 | 53.43268 | 7.10880 | 117° | 0km/h | 55m | 0.0m/s | 15.6°C | 95.2% | 1003.5hPa | 2.8V | 00:00:00 | 00:00:00 | 00:00:00 | |
| DJ2DS-15 | 2026-08-31 04:38:23 | 53.43267 | 7.10879 | 288° | 0km/h | 54m | 0.0m/s | 15.9°C | 93.3% | 1003.6hPa | 2.8V | 00:00:00 | 00:00:00 | 00:00:00 | |
| DJ2DS-15 | 2026-08-31 04:37:47 | 53.43267 | 7.10880 | 108° | 0km/h | 55m | -0.1m/s | 15.7°C | 94.3% | 1003.8hPa | 2.8V | 00:00:00 | 00:00:00 | 00:00:00 | |
| DJ2DS-15 | 2026-08-31 04:37:11 | 53.43267 | 7.10880 | 140° | 0km/h | 55m | -0.1m/s | 15.8°C | 93.9% | 1003.7hPa | 2.8V | 00:00:00 | 00:00:00 | 00:00:00 | |
| DJ2DS-15 | 2026-08-31 04:36:35 | 53.43266 | 7.10879 | 19° | 0km/h | 55m | 0.0m/s | 15.9°C | 92.5% | 1003.7hPa | 2.8V | 00:00:00 | 00:00:00 | 00:00:00 | |
| DJ2DS-15 | 2026-08-31 04:35:59 | 53.43268 | 7.10882 | 319° | 0km/h | 59m | 0.1m/s | 15.9°C | 93.0% | 1003.6hPa | 2.8V | 00:00:00 | 00:00:00 | 00:00:00 | |
| DJ2DS-15 | 2026-08-31 04:35:23 | 53.43267 | 7.10879 | 185° | 0km/h | 58m | 0.0m/s | 15.9°C | 93.7% | 1003.8hPa | 2.8V | 00:00:00 | 00:00:00 | 00:00:00 | |
| DJ2DS-15 | 2026-08-31 04:34:46 | 53.43268 | 7.10882 | 337° | 0km/h | 58m | 0.1m/s | 15.7°C | 94.7% | 1003.6hPa | 2.8V | 00:00:00 | 00:00:00 | 00:00:00 | |
| DJ2DS-15 | 2026-08-31 04:34:10 | 53.43268 | 7.10882 | 221° | 0km/h | 56m | -0.0m/s | 15.8°C | 94.1% | 1003.7hPa | 2.8V | 00:00:00 | 00:00:00 | 00:00:00 | |
| DJ2DS-15 | 2026-08-31 04:33:34 | 53.43266 | 7.10880 | 233° | 0km/h | 56m | -0.1m/s | 15.9°C | 93.9% | 1003.7hPa | 2.8V | 00:00:00 | 00:00:00 | 00:00:00 | |
| DJ2DS-15 | 2026-08-31 04:32:58 | 53.43265 | 7.10878 | 56° | 0km/h | 53m | -0.0m/s | 15.8°C | 94.1% | 1003.6hPa | 2.8V | 00:00:00 | 00:00:00 | 00:00:00 | |
| DJ2DS-15 | 2026-08-31 04:32:22 | 53.43266 | 7.10877 | 210° | 0km/h | 55m | -0.1m/s | 15.8°C | 94.7% | 1003.6hPa | 2.8V | 00:00:00 | 00:00:00 | 00:00:00 | |
| DJ2DS-15 | 2026-08-31 04:31:46 | 53.43267 | 7.10879 | 190° | 0km/h | 54m | 0.0m/s | 15.8°C | 95.0% | 1003.6hPa | 2.8V | 00:00:00 | 00:00:00 | 00:00:00 | |
| DJ2DS-15 | 2026-08-31 04:31:10 | 53.43266 | 7.10877 | 221° | 0km/h | 52m | -0.0m/s | 15.9°C | 94.7% | 1003.5hPa | 2.8V | 00:00:00 | 00:00:00 | 00:00:00 | |
| DJ2DS-15 | 2026-08-31 04:30:34 | 53.43266 | 7.10878 | 334° | 0km/h | 54m | -0.0m/s | 16.1°C | 92.4% | 1003.5hPa | 2.8V | 00:00:00 | 00:00:00 | 00:00:00 | |
| DJ2DS-15 | 2026-08-31 04:29:58 | 53.43267 | 7.10879 | 199° | 0km/h | 58m | 0.0m/s | 15.8°C | 95.2% | 1003.6hPa | 2.8V | 00:00:00 | 00:00:00 | 00:00:00 | |
| DJ2DS-15 | 2026-08-31 04:29:22 | 53.43267 | 7.10879 | 43° | 0km/h | 56m | -0.1m/s | 16.0°C | 93.0% | 1003.6hPa | 2.8V | 00:00:00 | 00:00:00 | 00:00:00 | |
| DJ2DS-15 | 2026-08-31 04:28:46 | 53.43266 | 7.10879 | 344° | 0km/h | 56m | -0.0m/s | 16.1°C | 92.2% | 1003.7hPa | 2.8V | 00:00:00 | 00:00:00 | 00:00:00 | |
| DJ2DS-15 | 2026-08-31 04:28:10 | 53.43269 | 7.10882 | 299° | 0km/h | 57m | -0.0m/s | 16.0°C | 94.1% | 1003.6hPa | 2.8V | 00:00:00 | 00:00:00 | 00:00:00 | |
| DJ2DS-15 | 2026-08-31 04:27:34 | 53.43266 | 7.10880 | 272° | 0km/h | 54m | -0.0m/s | 16.1°C | 93.1% | 1003.7hPa | 2.8V | 00:00:00 | 00:00:00 | 00:00:00 | |
| DJ2DS-15 | 2026-08-31 04:26:58 | 53.43267 | 7.10880 | 204° | 0km/h | 57m | -0.0m/s | 16.1°C | 92.6% | 1003.7hPa | 2.8V | 00:00:00 | 00:00:00 | 00:00:00 | |
| DJ2DS-15 | 2026-08-31 04:26:22 | 53.43267 | 7.10880 | 256° | 0km/h | 55m | -0.1m/s | 15.8°C | 94.9% | 1003.6hPa | 2.8V | 00:00:00 | 00:00:00 | 00:00:00 | |
| DJ2DS-15 | 2026-08-31 04:25:46 | 53.43268 | 7.10880 | 111° | 0km/h | 56m | -0.0m/s | 16.0°C | 93.4% | 1003.6hPa | 2.8V | 00:00:00 | 00:00:00 | 00:00:00 | |
| DJ2DS-15 | 2026-08-31 04:25:10 | 53.43267 | 7.10881 | 181° | 0km/h | 56m | 0.0m/s | 16.0°C | 93.1% | 1003.7hPa | 2.8V | 00:00:00 | 00:00:00 | 00:00:00 | |
| DJ2DS-15 | 2026-08-31 04:24:34 | 53.43269 | 7.10882 | 132° | 0km/h | 57m | -0.1m/s | 16.3°C | 91.4% | 1003.7hPa | 2.8V | 00:00:00 | 00:00:00 | 00:00:00 | |
| DJ2DS-15 | 2026-08-31 04:23:58 | 53.43268 | 7.10880 | 259° | 0km/h | 58m | 0.1m/s | 16.0°C | 94.0% | 1003.7hPa | 2.8V | 00:00:00 | 00:00:00 | 00:00:00 | |
| DJ2DS-15 | 2026-08-31 04:23:21 | 53.43267 | 7.10880 | 300° | 0km/h | 56m | -0.0m/s | 16.2°C | 92.2% | 1003.6hPa | 2.8V | 00:00:00 | 00:00:00 | 00:00:00 | |
| DJ2DS-15 | 2026-08-31 04:22:46 | 53.43267 | 7.10881 | 66° | 0km/h | 56m | -0.0m/s | 15.9°C | 95.1% | 1003.6hPa | 2.8V | 00:00:00 | 00:00:00 | 00:00:00 | |
| DJ2DS-15 | 2026-08-31 04:22:09 | 53.43267 | 7.10880 | 178° | 0km/h | 54m | 0.1m/s | 16.1°C | 92.4% | 1003.8hPa | 2.8V | 00:00:00 | 00:00:00 | 00:00:00 | |
| DJ2DS-15 | 2026-08-31 04:21:33 | 53.43269 | 7.10880 | 76° | 0km/h | 58m | -0.0m/s | 16.1°C | 92.9% | 1003.7hPa | 2.8V | 00:00:00 | 00:00:00 | 00:00:00 | |
| DJ2DS-15 | 2026-08-31 04:20:57 | 53.43267 | 7.10879 | 240° | 0km/h | 55m | -0.0m/s | 16.1°C | 93.0% | 1003.8hPa | 2.8V | 00:00:00 | 00:00:00 | 00:00:00 | |
| DJ2DS-15 | 2026-08-31 04:20:21 | 53.43268 | 7.10880 | 272° | 0km/h | 56m | -0.1m/s | 16.0°C | 93.7% | 1003.7hPa | 2.8V | 00:00:00 | 00:00:00 | 00:00:00 | |
| DJ2DS-15 | 2026-08-31 04:19:45 | 53.43268 | 7.10880 | 96° | 0km/h | 56m | 0.1m/s | 16.1°C | 92.3% | 1003.8hPa | 2.8V | 00:00:00 | 00:00:00 | 00:00:00 | |
| DJ2DS-15 | 2026-08-31 04:19:09 | 53.43268 | 7.10881 | 235° | 0km/h | 57m | -0.1m/s | 15.8°C | 95.2% | 1003.7hPa | 2.8V | 00:00:00 | 00:00:00 | 00:00:00 | |
| DJ2DS-15 | 2026-08-31 04:18:33 | 53.43267 | 7.10881 | 98° | 0km/h | 57m | 0.1m/s | 16.2°C | 91.8% | 1003.6hPa | 2.8V | 00:00:00 | 00:00:00 | 00:00:00 | |
| DJ2DS-15 | 2026-08-31 04:17:57 | 53.43267 | 7.10882 | 325° | 0km/h | 58m | 0.0m/s | 15.9°C | 94.3% | 1003.8hPa | 2.8V | 00:00:00 | 00:00:00 | 00:00:00 | |
| DJ2DS-15 | 2026-08-31 04:17:21 | 53.43267 | 7.10881 | 122° | 0km/h | 56m | 0.0m/s | 16.0°C | 94.4% | 1003.6hPa | 2.8V | 00:00:00 | 00:00:00 | 00:00:00 | |
| DJ2DS-15 | 2026-08-31 04:16:45 | 53.43267 | 7.10879 | 262° | 0km/h | 54m | -0.1m/s | 16.1°C | 92.7% | 1003.7hPa | 2.8V | 00:00:00 | 00:00:00 | 00:00:00 | |
| DJ2DS-15 | 2026-08-31 04:16:09 | 53.43268 | 7.10880 | 232° | 0km/h | 57m | -0.0m/s | 15.8°C | 95.9% | 1003.7hPa | 2.8V | 00:00:00 | 00:00:00 | 00:00:00 | |
| DJ2DS-15 | 2026-08-31 04:15:33 | 53.43268 | 7.10880 | 28° | 0km/h | 58m | 0.1m/s | 16.1°C | 92.7% | 1003.9hPa | 2.8V | 00:00:00 | 00:00:00 | 00:00:00 | |
| DJ2DS-15 | 2026-08-31 04:14:57 | 53.43268 | 7.10880 | 210° | 0km/h | 57m | -0.0m/s | 16.1°C | 92.4% | 1003.7hPa | 2.8V | 00:00:00 | 00:00:00 | 00:00:00 | |
| DJ2DS-15 | 2026-08-31 04:14:21 | 53.43267 | 7.10879 | 287° | 0km/h | 55m | -0.1m/s | 16.0°C | 93.0% | 1003.7hPa | 2.8V | 00:00:00 | 00:00:00 | 00:00:00 | |
| DJ2DS-15 | 2026-08-31 04:13:45 | 53.43267 | 7.10880 | 285° | 0km/h | 55m | -0.1m/s | 16.1°C | 93.3% | 1003.7hPa | 2.8V | 00:00:00 | 00:00:00 | 00:00:00 | |
| DJ2DS-15 | 2026-08-31 04:13:09 | 53.43266 | 7.10881 | 135° | 0km/h | 55m | 0.0m/s | 16.0°C | 93.3% | 1003.8hPa | 2.8V | 00:00:00 | 00:00:00 | 00:00:00 | |
| DJ2DS-15 | 2026-08-31 04:12:33 | 53.43267 | 7.10881 | 354° | 0km/h | 57m | 0.1m/s | 16.0°C | 93.5% | 1003.6hPa | 2.8V | 00:00:00 | 00:00:00 | 00:00:00 | |
| DJ2DS-15 | 2026-08-31 04:11:57 | 53.43268 | 7.10881 | 8° | 0km/h | 58m | 0.1m/s | 15.9°C | 94.9% | 1003.7hPa | 2.8V | 00:00:00 | 00:00:00 | 00:00:00 | |
| DJ2DS-15 | 2026-08-31 04:11:21 | 53.43269 | 7.10881 | 355° | 0km/h | 60m | 0.1m/s | 16.0°C | 93.7% | 1003.7hPa | 2.8V | 00:00:00 | 00:00:00 | 00:00:00 | |
| DJ2DS-15 | 2026-08-31 04:10:45 | 53.43269 | 7.10879 | 47° | 0km/h | 59m | -0.0m/s | 15.8°C | 95.5% | 1003.7hPa | 2.8V | 00:00:00 | 00:00:00 | 00:00:00 | |
| DJ2DS-15 | 2026-08-31 04:10:08 | 53.43269 | 7.10879 | 301° | 0km/h | 57m | 0.0m/s | 16.2°C | 91.9% | 1003.8hPa | 2.8V | 00:00:00 | 00:00:00 | 00:00:00 | |
| DJ2DS-15 | 2026-08-31 04:09:32 | 53.43268 | 7.10878 | 25° | 0km/h | 56m | 0.1m/s | 15.9°C | 94.2% | 1003.6hPa | 2.8V | 00:00:00 | 00:00:00 | 00:00:00 | |
| DJ2DS-15 | 2026-08-31 04:08:56 | 53.43267 | 7.10879 | 37° | 0km/h | 55m | 0.2m/s | 16.1°C | 92.2% | 1003.7hPa | 2.8V | 00:00:00 | 00:00:00 | 00:00:00 | |
| DJ2DS-15 | 2026-08-31 04:08:20 | 53.43267 | 7.10878 | 106° | 0km/h | 56m | -0.0m/s | 15.9°C | 93.6% | 1003.7hPa | 2.8V | 00:00:00 | 00:00:00 | 00:00:00 | |
| DJ2DS-15 | 2026-08-31 04:07:44 | 53.43266 | 7.10879 | 14° | 0km/h | 56m | 0.0m/s | 15.9°C | 94.4% | 1003.7hPa | 2.8V | 00:00:00 | 00:00:00 | 00:00:00 | |
| DJ2DS-15 | 2026-08-31 04:07:08 | 53.43267 | 7.10880 | 285° | 0km/h | 54m | 0.0m/s | 15.9°C | 93.0% | 1003.6hPa | 2.8V | 00:00:00 | 00:00:00 | 00:00:00 | |
| DJ2DS-15 | 2026-08-31 04:06:32 | 53.43267 | 7.10880 | 277° | 0km/h | 57m | -0.0m/s | 16.0°C | 93.0% | 1003.6hPa | 2.8V | 00:00:00 | 00:00:00 | 00:00:00 | |
| DJ2DS-15 | 2026-08-31 04:05:56 | 53.43268 | 7.10880 | 331° | 0km/h | 56m | 0.0m/s | 15.9°C | 93.2% | 1003.6hPa | 2.8V | 00:00:00 | 00:00:00 | 00:00:00 | |
| DJ2DS-15 | 2026-08-31 04:05:20 | 53.43267 | 7.10879 | 100° | 0km/h | 57m | 0.0m/s | 15.9°C | 93.6% | 1003.7hPa | 2.8V | 00:00:00 | 00:00:00 | 00:00:00 | |
| DJ2DS-15 | 2026-08-31 04:04:44 | 53.43266 | 7.10879 | 137° | 0km/h | 58m | 0.0m/s | 15.9°C | 92.5% | 1003.7hPa | 2.8V | 00:00:00 | 00:00:00 | 00:00:00 | |
| DJ2DS-15 | 2026-08-31 04:04:08 | 53.43267 | 7.10880 | 74° | 0km/h | 57m | 0.1m/s | 15.8°C | 93.9% | 1003.7hPa | 2.8V | 00:00:00 | 00:00:00 | 00:00:00 | |
| DJ2DS-15 | 2026-08-31 04:03:32 | 53.43266 | 7.10881 | 278° | 0km/h | 54m | -0.0m/s | 15.7°C | 95.3% | 1003.6hPa | 2.8V | 00:00:00 | 00:00:00 | 00:00:00 | |
| DJ2DS-15 | 2026-08-31 04:02:56 | 53.43267 | 7.10880 | 164° | 0km/h | 55m | -0.0m/s | 16.0°C | 92.9% | 1003.7hPa | 2.8V | 00:00:00 | 00:00:00 | 00:00:00 | |
| DJ2DS-15 | 2026-08-31 04:02:20 | 53.43267 | 7.10879 | 349° | 0km/h | 56m | 0.1m/s | 15.9°C | 93.4% | 1003.8hPa | 2.8V | 00:00:00 | 00:00:00 | 00:00:00 | |
| DJ2DS-15 | 2026-08-31 04:01:44 | 53.43267 | 7.10879 | 164° | 0km/h | 56m | 0.1m/s | 15.8°C | 94.6% | 1003.9hPa | 2.8V | 00:00:00 | 00:00:00 | 00:00:00 | |
| DJ2DS-15 | 2026-08-31 04:01:08 | 53.43266 | 7.10879 | 11° | 0km/h | 57m | 0.1m/s | 15.9°C | 93.4% | 1003.7hPa | 2.8V | 00:00:00 | 00:00:00 | 00:00:00 | |
| DJ2DS-15 | 2026-08-31 04:00:32 | 53.43266 | 7.10880 | 105° | 0km/h | 56m | 0.0m/s | 15.8°C | 94.8% | 1003.7hPa | 2.8V | 00:00:00 | 00:00:00 | 00:00:00 | |
| DJ2DS-15 | 2026-08-31 03:59:56 | 53.43267 | 7.10881 | 78° | 0km/h | 56m | 0.0m/s | 15.6°C | 95.8% | 1003.9hPa | 2.8V | 00:00:00 | 00:00:00 | 00:00:00 | |
| DJ2DS-15 | 2026-08-31 03:58:44 | 53.43265 | 7.10880 | 157° | 0km/h | 55m | -0.0m/s | 15.7°C | 95.6% | 1003.5hPa | 2.8V | 00:00:00 | 00:00:00 | 00:00:00 | |
| DJ2DS-15 | 2026-08-31 03:58:07 | 53.43265 | 7.10879 | 255° | 0km/h | 57m | -0.0m/s | 15.7°C | 94.7% | 1003.6hPa | 2.8V | 00:00:00 | 00:00:00 | 00:00:00 | |
| DJ2DS-15 | 2026-08-31 03:57:31 | 53.43266 | 7.10879 | 47° | 0km/h | 55m | 0.1m/s | 15.7°C | 94.6% | 1003.7hPa | 2.8V | 00:00:00 | 00:00:00 | 00:00:00 | |
| DJ2DS-15 | 2026-08-31 03:56:55 | 53.43266 | 7.10879 | 301° | 0km/h | 55m | 0.0m/s | 15.7°C | 94.6% | 1003.8hPa | 2.8V | 00:00:00 | 00:00:00 | 00:00:00 | |
| DJ2DS-15 | 2026-08-31 03:56:19 | 53.43267 | 7.10879 | 201° | 0km/h | 55m | -0.1m/s | 15.7°C | 94.7% | 1003.7hPa | 2.8V | 00:00:00 | 00:00:00 | 00:00:00 | |
| DJ2DS-15 | 2026-08-31 03:55:43 | 53.43267 | 7.10878 | 30° | 0km/h | 55m | 0.0m/s | 15.7°C | 94.2% | 1003.8hPa | 2.8V | 00:00:00 | 00:00:00 | 00:00:00 | |
| DJ2DS-15 | 2026-08-31 03:55:07 | 53.43267 | 7.10877 | 268° | 0km/h | 55m | -0.0m/s | 15.6°C | 95.8% | 1003.6hPa | 2.8V | 00:00:00 | 00:00:00 | 00:00:00 | |
| DJ2DS-15 | 2026-08-31 03:54:31 | 53.43266 | 7.10877 | 282° | 0km/h | 57m | 0.0m/s | 15.7°C | 94.1% | 1003.7hPa | 2.8V | 00:00:00 | 00:00:00 | 00:00:00 | |
| DJ2DS-15 | 2026-08-31 03:53:55 | 53.43267 | 7.10878 | 222° | 0km/h | 54m | 0.0m/s | 15.7°C | 94.4% | 1003.6hPa | 2.8V | 00:00:00 | 00:00:00 | 00:00:00 | |
| DJ2DS-15 | 2026-08-31 03:53:19 | 53.43266 | 7.10879 | 133° | 0km/h | 55m | 0.0m/s | 15.7°C | 94.3% | 1003.7hPa | 2.8V | 00:00:00 | 00:00:00 | 00:00:00 | |
| DJ2DS-15 | 2026-08-31 03:52:43 | 53.43267 | 7.10880 | 71° | 0km/h | 56m | 0.0m/s | 15.6°C | 95.1% | 1003.7hPa | 2.8V | 00:00:00 | 00:00:00 | 00:00:00 | |
| DJ2DS-15 | 2026-08-31 03:52:07 | 53.43267 | 7.10878 | 102° | 0km/h | 58m | 0.0m/s | 15.7°C | 93.8% | 1003.7hPa | 2.8V | 00:00:00 | 00:00:00 | 00:00:00 | |
| DJ2DS-15 | 2026-08-31 03:51:31 | 53.43266 | 7.10879 | 194° | 0km/h | 58m | 0.1m/s | 15.6°C | 95.4% | 1003.6hPa | 2.8V | 00:00:00 | 00:00:00 | 00:00:00 | |
| DJ2DS-15 | 2026-08-31 03:50:55 | 53.43266 | 7.10880 | 331° | 0km/h | 54m | -0.0m/s | 15.6°C | 95.2% | 1003.8hPa | 2.8V | 00:00:00 | 00:00:00 | 00:00:00 | |
| DJ2DS-15 | 2026-08-31 03:50:19 | 53.43266 | 7.10880 | 125° | 0km/h | 55m | -0.1m/s | 15.6°C | 94.8% | 1003.9hPa | 2.8V | 00:00:00 | 00:00:00 | 00:00:00 | |
| DJ2DS-15 | 2026-08-31 03:49:43 | 53.43267 | 7.10879 | 242° | 0km/h | 55m | 0.0m/s | 15.9°C | 93.2% | 1003.8hPa | 2.8V | 00:00:00 | 00:00:00 | 00:00:00 | |
| DJ2DS-15 | 2026-08-31 03:49:07 | 53.43267 | 7.10882 | 95° | 0km/h | 56m | 0.0m/s | 16.0°C | 92.2% | 1003.8hPa | 2.8V | 00:00:00 | 00:00:00 | 00:00:00 | |
| DJ2DS-15 | 2026-08-31 03:48:31 | 53.43267 | 7.10882 | 50° | 0km/h | 55m | -0.0m/s | 15.9°C | 93.3% | 1003.8hPa | 2.8V | 00:00:00 | 00:00:00 | 00:00:00 | |
| DJ2DS-15 | 2026-08-31 03:47:55 | 53.43267 | 7.10883 | 104° | 0km/h | 54m | -0.0m/s | 15.8°C | 94.2% | 1003.8hPa | 2.8V | 00:00:00 | 00:00:00 | 00:00:00 | |
| DJ2DS-15 | 2026-08-31 03:47:18 | 53.43266 | 7.10882 | 215° | 0km/h | 53m | -0.0m/s | 15.8°C | 93.5% | 1004.0hPa | 2.8V | 00:00:00 | 00:00:00 | 00:00:00 | |
| DJ2DS-15 | 2026-08-31 03:46:42 | 53.43267 | 7.10881 | 121° | 0km/h | 54m | -0.0m/s | 15.8°C | 93.8% | 1003.8hPa | 2.8V | 00:00:00 | 00:00:00 | 00:00:00 | |
| DJ2DS-15 | 2026-08-31 03:46:06 | 53.43268 | 7.10879 | 148° | 0km/h | 57m | 0.0m/s | 15.9°C | 93.5% | 1003.6hPa | 2.8V | 00:00:00 | 00:00:00 | 00:00:00 | |
| DJ2DS-15 | 2026-08-31 03:45:30 | 53.43269 | 7.10882 | 133° | 0km/h | 55m | -0.0m/s | 16.0°C | 91.7% | 1003.6hPa | 2.8V | 00:00:00 | 00:00:00 | 00:00:00 | |
| DJ2DS-15 | 2026-08-31 03:44:54 | 53.43269 | 7.10882 | 99° | 0km/h | 56m | 0.1m/s | 15.9°C | 93.0% | 1003.8hPa | 2.8V | 00:00:00 | 00:00:00 | 00:00:00 | |
| DJ2DS-15 | 2026-08-31 03:44:18 | 53.43269 | 7.10883 | 232° | 0km/h | 58m | 0.0m/s | 15.9°C | 92.5% | 1003.7hPa | 2.8V | 00:00:00 | 00:00:00 | 00:00:00 | |
| DJ2DS-15 | 2026-08-31 03:43:42 | 53.43268 | 7.10882 | 25° | 0km/h | 58m | -0.0m/s | 15.8°C | 94.2% | 1003.8hPa | 2.8V | 00:00:00 | 00:00:00 | 00:00:00 | |
| DJ2DS-15 | 2026-08-31 03:43:06 | 53.43267 | 7.10882 | 302° | 0km/h | 58m | -0.0m/s | 15.9°C | 92.9% | 1003.7hPa | 2.8V | 00:00:00 | 00:00:00 | 00:00:00 | |
| DJ2DS-15 | 2026-08-31 03:42:30 | 53.43268 | 7.10883 | 71° | 0km/h | 58m | -0.1m/s | 16.2°C | 91.1% | 1003.8hPa | 2.8V | 00:00:00 | 00:00:00 | 00:00:00 | |
| DJ2DS-15 | 2026-08-31 03:41:54 | 53.43267 | 7.10883 | 126° | 0km/h | 56m | 0.0m/s | 16.2°C | 91.7% | 1003.7hPa | 2.8V | 00:00:00 | 00:00:00 | 00:00:00 | |
| DJ2DS-15 | 2026-08-31 03:41:18 | 53.43267 | 7.10881 | 157° | 0km/h | 56m | -0.1m/s | 16.2°C | 90.7% | 1003.7hPa | 2.8V | 00:00:00 | 00:00:00 | 00:00:00 | |
| DJ2DS-15 | 2026-08-31 03:40:42 | 53.43268 | 7.10880 | 342° | 0km/h | 55m | 0.1m/s | 16.0°C | 92.4% | 1003.8hPa | 2.8V | 00:00:00 | 00:00:00 | 00:00:00 | |
| DJ2DS-15 | 2026-08-31 03:40:06 | 53.43268 | 7.10880 | 180° | 0km/h | 57m | -0.0m/s | 16.2°C | 90.4% | 1003.9hPa | 2.8V | 00:00:00 | 00:00:00 | 00:00:00 | |
| DJ2DS-15 | 2026-08-31 03:39:30 | 53.43268 | 7.10881 | 331° | 0km/h | 56m | -0.0m/s | 16.1°C | 91.8% | 1003.8hPa | 2.8V | 00:00:00 | 00:00:00 | 00:00:00 | |
| DJ2DS-15 | 2026-08-31 03:38:54 | 53.43268 | 7.10880 | 108° | 0km/h | 57m | 0.0m/s | 16.3°C | 90.3% | 1003.8hPa | 2.8V | 00:00:00 | 00:00:00 | 00:00:00 | |
| DJ2DS-15 | 2026-08-31 03:38:18 | 53.43267 | 7.10880 | 19° | 0km/h | 59m | -0.0m/s | 16.1°C | 92.1% | 1004.1hPa | 2.8V | 00:00:00 | 00:00:00 | 00:00:00 | |
| DJ2DS-15 | 2026-08-31 03:37:42 | 53.43267 | 7.10880 | 188° | 0km/h | 56m | -0.1m/s | 16.2°C | 91.1% | 1003.8hPa | 2.8V | 00:00:00 | 00:00:00 | 00:00:00 | |
| DJ2DS-15 | 2026-08-31 03:37:06 | 53.43267 | 7.10880 | 265° | 0km/h | 57m | 0.1m/s | 16.1°C | 92.4% | 1003.9hPa | 2.8V | 00:00:00 | 00:00:00 | 00:00:00 | |
| DJ2DS-15 | 2026-08-31 03:36:30 | 53.43267 | 7.10879 | 107° | 0km/h | 54m | -0.1m/s | 16.0°C | 93.1% | 1003.9hPa | 2.8V | 00:00:00 | 00:00:00 | 00:00:00 | |
| DJ2DS-15 | 2026-08-31 03:35:54 | 53.43268 | 7.10878 | 243° | 0km/h | 54m | 0.0m/s | 16.0°C | 92.6% | 1003.9hPa | 2.8V | 00:00:00 | 00:00:00 | 00:00:00 | |
| DJ2DS-15 | 2026-08-31 03:35:18 | 53.43267 | 7.10878 | 92° | 0km/h | 54m | -0.0m/s | 16.1°C | 91.5% | 1004.0hPa | 2.8V | 00:00:00 | 00:00:00 | 00:00:00 | |
| DJ2DS-15 | 2026-08-31 03:34:41 | 53.43268 | 7.10880 | 298° | 0km/h | 55m | 0.0m/s | 16.3°C | 90.1% | 1003.9hPa | 2.8V | 00:00:00 | 00:00:00 | 00:00:00 | |
| DJ2DS-15 | 2026-08-31 03:34:05 | 53.43267 | 7.10878 | 124° | 0km/h | 55m | 0.1m/s | 16.1°C | 91.9% | 1004.1hPa | 2.8V | 00:00:00 | 00:00:00 | 00:00:00 | |
| DJ2DS-15 | 2026-08-31 03:33:29 | 53.43267 | 7.10878 | 289° | 0km/h | 56m | -0.1m/s | 16.2°C | 91.2% | 1003.9hPa | 2.8V | 00:00:00 | 00:00:00 | 00:00:00 | |
| DJ2DS-15 | 2026-08-31 03:32:53 | 53.43266 | 7.10878 | 293° | 0km/h | 57m | 0.0m/s | 16.1°C | 91.2% | 1003.9hPa | 2.8V | 00:00:00 | 00:00:00 | 00:00:00 | |
| DJ2DS-15 | 2026-08-31 03:32:17 | 53.43268 | 7.10880 | 149° | 0km/h | 56m | -0.0m/s | 16.1°C | 91.4% | 1004.1hPa | 2.8V | 00:00:00 | 00:00:00 | 00:00:00 | |
| DJ2DS-15 | 2026-08-31 03:31:41 | 53.43266 | 7.10879 | 203° | 0km/h | 57m | 0.1m/s | 16.1°C | 91.3% | 1003.9hPa | 2.8V | 00:00:00 | 00:00:00 | 00:00:00 | |
| DJ2DS-15 | 2026-08-31 03:31:05 | 53.43267 | 7.10880 | 144° | 0km/h | 57m | -0.0m/s | 16.0°C | 92.5% | 1004.0hPa | 2.8V | 00:00:00 | 00:00:00 | 00:00:00 | |
| DJ2DS-15 | 2026-08-31 03:30:29 | 53.43265 | 7.10881 | 8° | 0km/h | 56m | -0.0m/s | 15.9°C | 93.5% | 1004.0hPa | 2.8V | 00:00:00 | 00:00:00 | 00:00:00 | |
| DJ2DS-15 | 2026-08-31 03:29:53 | 53.43265 | 7.10881 | 156° | 0km/h | 56m | -0.1m/s | 16.2°C | 91.0% | 1004.0hPa | 2.8V | 00:00:00 | 00:00:00 | 00:00:00 | |
| DJ2DS-15 | 2026-08-31 03:29:17 | 53.43264 | 7.10878 | 65° | 0km/h | 57m | 0.1m/s | 16.4°C | 89.8% | 1004.0hPa | 2.8V | 00:00:00 | 00:00:00 | 00:00:00 | |
| DJ2DS-15 | 2026-08-31 03:28:41 | 53.43265 | 7.10879 | 311° | 0km/h | 57m | 0.0m/s | 16.4°C | 90.0% | 1004.2hPa | 2.8V | 00:00:00 | 00:00:00 | 00:00:00 | |
| DJ2DS-15 | 2026-08-31 03:28:05 | 53.43264 | 7.10877 | 210° | 0km/h | 58m | -0.0m/s | 16.4°C | 90.2% | 1004.0hPa | 2.8V | 00:00:00 | 00:00:00 | 00:00:00 | |
| DJ2DS-15 | 2026-08-31 03:27:29 | 53.43266 | 7.10879 | 331° | 0km/h | 58m | -0.0m/s | 16.4°C | 89.8% | 1004.0hPa | 2.8V | 00:00:00 | 00:00:00 | 00:00:00 | |
| DJ2DS-15 | 2026-08-31 03:26:53 | 53.43267 | 7.10881 | 2° | 0km/h | 58m | 0.1m/s | 16.3°C | 90.9% | 1004.0hPa | 2.8V | 00:00:00 | 00:00:00 | 00:00:00 | |
| DJ2DS-15 | 2026-08-31 03:26:17 | 53.43267 | 7.10879 | 162° | 0km/h | 58m | 0.1m/s | 16.4°C | 89.5% | 1004.0hPa | 2.8V | 00:00:00 | 00:00:00 | 00:00:00 | |
| DJ2DS-15 | 2026-08-31 03:25:41 | 53.43266 | 7.10878 | 109° | 0km/h | 57m | 0.0m/s | 16.4°C | 89.5% | 1004.0hPa | 2.8V | 00:00:00 | 00:00:00 | 00:00:00 | |
| DJ2DS-15 | 2026-08-31 03:25:05 | 53.43267 | 7.10879 | 196° | 0km/h | 57m | -0.1m/s | 16.3°C | 90.7% | 1004.1hPa | 2.8V | 00:00:00 | 00:00:00 | 00:00:00 | |
| DJ2DS-15 | 2026-08-31 03:24:29 | 53.43267 | 7.10880 | 81° | 0km/h | 56m | -0.0m/s | 16.4°C | 90.1% | 1004.0hPa | 2.8V | 00:00:00 | 00:00:00 | 00:00:00 | |
| DJ2DS-15 | 2026-08-31 03:23:53 | 53.43266 | 7.10878 | 30° | 0km/h | 57m | -0.1m/s | 16.4°C | 90.3% | 1004.1hPa | 2.8V | 00:00:00 | 00:00:00 | 00:00:00 | |
| DJ2DS-15 | 2026-08-31 03:23:24 | 53.43265 | 7.10878 | 68° | 0km/h | 57m | -0.1m/s | 16.3°C | 90.5% | 1004.2hPa | 2.8V | 00:00:00 | 00:00:00 | 00:00:00 | |
| DJ2DS-15 | 2026-08-31 03:22:46 | 53.43266 | 7.10880 | 335° | 0km/h | 59m | -0.0m/s | 16.3°C | 90.4% | 1004.0hPa | 2.8V | 00:00:00 | 00:00:00 | 00:00:00 | |
| DJ2DS-15 | 2026-08-31 03:22:09 | 53.43265 | 7.10880 | 345° | 0km/h | 58m | 0.2m/s | 16.4°C | 89.8% | 1004.3hPa | 2.8V | 00:00:00 | 00:00:00 | 00:00:00 | |
| DJ2DS-15 | 2026-08-31 03:21:33 | 53.43266 | 7.10880 | 310° | 0km/h | 57m | 0.1m/s | 16.3°C | 90.5% | 1004.2hPa | 2.8V | 00:00:00 | 00:00:00 | 00:00:00 | |
| DJ2DS-15 | 2026-08-31 03:20:57 | 53.43267 | 7.10880 | 223° | 0km/h | 54m | 0.1m/s | 16.3°C | 90.9% | 1004.2hPa | 2.8V | 00:00:00 | 00:00:00 | 00:00:00 | |
| DJ2DS-15 | 2026-08-31 03:20:21 | 53.43166 | 7.10835 | 19° | 27km/h | 95m | -3.2m/s | 16.2°C | 88.6% | 999.1hPa | 2.8V | 00:00:00 | 00:00:00 | 00:00:00 | |
| DJ2DS-15 | 2026-08-31 03:19:45 | 53.42909 | 7.10610 | 33° | 35km/h | 192m | -2.6m/s | 15.8°C | 88.5% | 988.3hPa | 2.8V | 00:00:00 | 00:00:00 | 00:00:00 | |
| DJ2DS-15 | 2026-08-31 03:19:09 | 53.42636 | 7.10281 | 35° | 38km/h | 273m | -2.7m/s | 15.3°C | 89.9% | 978.6hPa | 2.8V | 00:00:00 | 00:00:00 | 00:00:00 | |
| DM0DOS-11 | 2026-08-31 03:18:35 | 53.42324 | 7.09838 | 39° | 44km/h | 361m | -2.2m/s | 14.8°C | 92.4% | 968.7hPa | 2.8V | 06:36:18 | 03:53:04 | 00:00:00 | |
| DJ2DS-15 | 2026-08-31 03:18:33 | 53.42349 | 7.09872 | 40° | 40km/h | 353m | -2.3m/s | 14.8°C | 91.7% | 969.6hPa | 2.8V | 00:00:00 | 00:00:00 | 00:00:00 | |
| DM0DOS-11 | 2026-08-31 03:18:29 | 53.42292 | 7.09792 | 41° | 42km/h | 371m | -2.6m/s | 14.9°C | 91.9% | 967.7hPa | 2.8V | 06:36:22 | 03:53:00 | 00:00:00 | |
| DM0DOS-11 | 2026-08-31 03:18:29 | 53.42276 | 7.09769 | 41° | 40km/h | 376m | -2.3m/s | 14.8°C | 92.1% | 967.1hPa | 2.8V | 06:36:24 | 03:52:58 | 00:00:00 | |
| DM0DOS-11 | 2026-08-31 03:18:24 | 53.42261 | 7.09746 | 40° | 40km/h | 380m | -2.2m/s | 14.8°C | 92.2% | 966.5hPa | 2.8V | 06:36:26 | 03:52:56 | 00:00:00 | |
| DM0DOS-11 | 2026-08-31 03:18:24 | 53.42245 | 7.09724 | 41° | 40km/h | 384m | -2.3m/s | 14.7°C | 92.5% | 966hPa | 2.8V | 06:36:28 | 03:52:54 | 00:00:00 | |
| DM0DOS-11 | 2026-08-31 03:18:24 | 53.42230 | 7.09701 | 39° | 42km/h | 389m | -2.4m/s | 14.7°C | 92.6% | 965.5hPa | 2.8V | 06:36:30 | 03:52:52 | 00:00:00 | |
| GOEST3-10 | 2026-08-31 03:18:15 | 53.42205 | 7.09667 | 40° | 44km/h | 396m | -2.3m/s | 14.6°C | 93.0% | 964.6hPa | 2.8V | 00:00:00 | 00:00:00 | 00:00:00 | |
| DM0DOS-11 | 2026-08-31 03:18:13 | 53.42179 | 7.09630 | 40° | 46km/h | 402m | -2.2m/s | 14.6°C | 92.9% | 963.9hPa | 2.8V | 06:36:36 | 03:52:46 | 00:00:00 | |
| DM0DOS-11 | 2026-08-31 03:18:13 | 53.42161 | 7.09605 | 41° | 46km/h | 407m | -2.5m/s | 14.6°C | 93% | 963.5hPa | 2.8V | 06:36:38 | 03:52:44 | 00:00:00 | |
| DM0DOS-11 | 2026-08-31 03:18:13 | 53.42143 | 7.09579 | 41° | 47km/h | 412m | -2.4m/s | 14.5°C | 93.6% | 962.9hPa | 2.8V | 06:36:40 | 03:52:42 | 00:00:00 | |
| GOEST3-10 | 2026-08-31 03:18:13 | 53.42187 | 7.09642 | 40° | 46km/h | 400m | -2.1m/s | 14.6°C | 93.2% | 964.2hPa | 2.7V | 00:00:00 | 03:52:47 | 00:00:00 | |
| GOEST3-10 | 2026-08-31 03:18:09 | 53.42152 | 7.09592 | 42° | 47km/h | 409m | -2.7m/s | 14.5°C | 93.6% | 963.0hPa | 2.7V | 00:00:00 | 03:52:43 | 00:00:00 | |
| DM0DOS-11 | 2026-08-31 03:18:07 | 53.42125 | 7.09552 | 42° | 47km/h | 417m | -2.3m/s | 14.5°C | 93.9% | 962.4hPa | 2.7V | 06:36:42 | 03:52:40 | 00:00:00 | |
| DM0DOS-11 | 2026-08-31 03:18:07 | 53.42108 | 7.09525 | 43° | 47km/h | 422m | -2.5m/s | 14.4°C | 94.1% | 961.7hPa | 2.8V | 06:36:44 | 03:52:38 | 00:00:00 | |
| DM0DOS-11 | 2026-08-31 03:18:07 | 53.42091 | 7.09498 | 44° | 47km/h | 427m | -2.5m/s | 14.4°C | 94.3% | 961.2hPa | 2.8V | 06:36:46 | 03:52:36 | 00:00:00 | |
| DM0DOS-11 | 2026-08-31 03:18:01 | 53.42074 | 7.09470 | 45° | 46km/h | 432m | -2.6m/s | 14.4°C | 94.3% | 960.6hPa | 2.8V | 06:36:48 | 03:52:34 | 00:00:00 | |
| DM0DOS-11 | 2026-08-31 03:18:01 | 53.42058 | 7.09442 | 46° | 46km/h | 437m | -2.7m/s | 14.3°C | 94.4% | 960hPa | 2.8V | 06:36:50 | 03:52:32 | 00:00:00 | |
| DM0DOS-11 | 2026-08-31 03:18:01 | 53.42042 | 7.09414 | 45° | 46km/h | 442m | -2.7m/s | 14.3°C | 94.5% | 959.4hPa | 2.8V | 06:36:52 | 03:52:30 | 00:00:00 | |
| HTAHTA | 2026-08-31 03:18:00 | 53.42066 | 7.09456 | 45° | 46km/h | 434m | -2.5m/s | 14.4°C | 93.3% | 960.3hPa | 2.8V | 00:00:00 | 00:00:00 | 00:00:00 | |
| DJ2DS-15 | 2026-08-31 03:17:57 | 53.42050 | 7.09428 | 46° | 44km/h | 440m | -2.5m/s | 14.3°C | 93.5% | 959.8hPa | 2.8V | 00:00:00 | 00:00:00 | 00:00:00 | |
| GOEST3-10 | 2026-08-31 03:17:57 | 53.42050 | 7.09428 | 47° | 46km/h | 440m | -2.5m/s | 14.3°C | 94.3% | 959.8hPa | 2.8V | 00:00:00 | 00:00:00 | 00:00:00 | |
| DM0DOS-11 | 2026-08-31 03:17:55 | 53.42026 | 7.09386 | 45° | 46km/h | 447m | -2.5m/s | 14.3°C | 94.5% | 958.8hPa | 2.8V | 06:36:54 | 03:52:28 | 00:00:00 | |
| DM0DOS-11 | 2026-08-31 03:17:55 | 53.42009 | 7.09358 | 45° | 47km/h | 453m | -2.5m/s | 14.2°C | 94.9% | 958.3hPa | 2.8V | 06:36:56 | 03:52:26 | 00:00:00 | |
| DM0DOS-11 | 2026-08-31 03:17:55 | 53.41993 | 7.09330 | 44° | 47km/h | 458m | -2.4m/s | 14.2°C | 95.1% | 957.7hPa | 2.7V | 06:36:58 | 03:52:24 | 00:00:00 | |
| GOEST3-10 | 2026-08-31 03:17:55 | 53.42034 | 7.09400 | 46° | 46km/h | 445m | -2.5m/s | 14.2°C | 94.7% | 959.0hPa | 2.7V | 00:00:00 | 00:00:00 | 00:00:00 | |
| GOEST3-10 | 2026-08-31 03:17:54 | 53.42026 | 7.09386 | 46° | 46km/h | 447m | -2.4m/s | 14.2°C | 94.5% | 958.8hPa | 2.7V | 00:00:00 | 03:52:28 | 00:00:00 | |
| GOEST3-10 | 2026-08-31 03:17:53 | 53.42018 | 7.09372 | 46° | 47km/h | 450m | -2.6m/s | 14.2°C | 94.8% | 958.6hPa | 2.7V | 00:00:00 | 00:00:00 | 00:00:00 | |
| GOEST3-10 | 2026-08-31 03:17:52 | 53.42009 | 7.09358 | 46° | 47km/h | 453m | -2.4m/s | 14.2°C | 94.9% | 958.2hPa | 2.7V | 06:36:00 | 03:52:26 | 00:00:00 | |
| GOEST3-10 | 2026-08-31 03:17:51 | 53.42001 | 7.09344 | 46° | 47km/h | 455m | -2.4m/s | 14.2°C | 94.9% | 958.1hPa | 2.8V | 00:00:00 | 00:00:00 | 00:00:00 | |
| DM0DOS-11 | 2026-08-31 03:17:49 | 53.41975 | 7.09301 | 44° | 49km/h | 462m | -2.4m/s | 14.1°C | 95.5% | 957.2hPa | 2.8V | 06:37:00 | 03:52:22 | 00:00:00 | |
| DM0DOS-11 | 2026-08-31 03:17:49 | 53.41958 | 7.09271 | 46° | 49km/h | 466m | -2m/s | 14.1°C | 95.6% | 956.7hPa | 2.8V | 06:37:02 | 03:52:20 | 00:00:00 | |
| DM0DOS-11 | 2026-08-31 03:17:49 | 53.41941 | 7.09240 | 47° | 51km/h | 471m | -2.2m/s | 14.1°C | 95.3% | 956.2hPa | 2.8V | 06:37:04 | 03:52:18 | 00:00:00 | |
| GOEST3-10 | 2026-08-31 03:17:49 | 53.41984 | 7.09315 | 45° | 47km/h | 460m | -2.3m/s | 14.1°C | 95.1% | 957.4hPa | 2.7V | 00:00:00 | 00:00:00 | 00:00:00 | |
| DF5WG-10 | 2026-08-31 03:17:49 | 53.41984 | 7.09315 | 45° | 47km/h | 460m | -2.3m/s | 14.1°C | 95.1% | 957.4hPa | 2.7V | 00:00:00 | 03:52:23 | 00:00:00 | |
| GOEST3-10 | 2026-08-31 03:17:47 | 53.41966 | 7.09286 | 46° | 49km/h | 465m | -2.0m/s | 14.1°C | 95.2% | 956.9hPa | 2.7V | 00:00:00 | 03:52:21 | 00:00:00 | |
| DF5WG-10 | 2026-08-31 03:17:46 | 53.41958 | 7.09271 | 47° | 49km/h | 467m | -1.9m/s | 14.1°C | 95.6% | 956.7hPa | 2.7V | 00:00:00 | 03:52:20 | 00:00:00 | |
| GOEST3-10 | 2026-08-31 03:17:46 | 53.41958 | 7.09271 | 47° | 49km/h | 467m | -1.9m/s | 14.1°C | 95.6% | 956.7hPa | 2.7V | 00:00:00 | 00:00:00 | 00:00:00 | |
| GOEST3-10 | 2026-08-31 03:17:45 | 53.41949 | 7.09255 | 48° | 49km/h | 469m | -2.2m/s | 14.1°C | 95.7% | 956.2hPa | 2.7V | 00:00:00 | 03:52:19 | 00:00:00 | |
| DF5WG-10 | 2026-08-31 03:17:45 | 53.41949 | 7.09255 | 48° | 49km/h | 469m | -2.2m/s | 14.1°C | 95.7% | 956.2hPa | 2.8V | 00:00:00 | 03:52:19 | 00:00:00 | |
| DM0DOS-11 | 2026-08-31 03:17:43 | 53.41924 | 7.09208 | 48° | 49km/h | 475m | -1.9m/s | 14.1°C | 95.9% | 955.7hPa | 2.8V | 06:37:06 | 03:52:16 | 00:00:00 | |
| DM0DOS-11 | 2026-08-31 03:17:43 | 53.41907 | 7.09176 | 48° | 49km/h | 479m | -2m/s | 14°C | 96.3% | 955.1hPa | 2.8V | 06:37:08 | 03:52:14 | 00:00:00 | |
| DM0DOS-11 | 2026-08-31 03:17:43 | 53.41890 | 7.09144 | 48° | 49km/h | 483m | -1.6m/s | 13.9°C | 96.4% | 954.7hPa | 2.8V | 06:37:10 | 03:52:12 | 00:00:00 | |
| GOEST3-10 | 2026-08-31 03:17:43 | 53.41932 | 7.09224 | 49° | 49km/h | 473m | -2.2m/s | 14.0°C | 95.6% | 955.8hPa | 2.7V | 00:00:00 | 03:52:17 | 00:00:00 | |
| DF5WG-10 | 2026-08-31 03:17:43 | 53.41932 | 7.09224 | 49° | 49km/h | 473m | -2.2m/s | 14.0°C | 95.6% | 955.8hPa | 2.7V | 06:37:00 | 03:52:17 | 00:00:00 | |
| GOEST3-10 | 2026-08-31 03:17:42 | 53.41924 | 7.09208 | 49° | 49km/h | 475m | -1.9m/s | 14.0°C | 95.9% | 955.7hPa | 2.7V | 00:00:00 | 00:00:00 | 00:00:00 | |
| GOEST3-10 | 2026-08-31 03:17:41 | 53.41915 | 7.09192 | 49° | 49km/h | 477m | -2.2m/s | 14.0°C | 96.1% | 955.4hPa | 2.7V | 00:00:00 | 03:52:15 | 00:00:00 | |
| GOEST3-10 | 2026-08-31 03:17:40 | 53.41907 | 7.09176 | 49° | 51km/h | 479m | -2.0m/s | 13.9°C | 96.3% | 955.1hPa | 2.7V | 00:00:00 | 00:00:00 | 00:00:00 | |
| DF5WG-10 | 2026-08-31 03:17:40 | 53.41907 | 7.09176 | 49° | 51km/h | 479m | -2.0m/s | 13.9°C | 96.3% | 955.1hPa | 2.7V | 00:00:00 | 03:52:14 | 00:00:00 | |
| GOEST3-10 | 2026-08-31 03:17:39 | 53.41899 | 7.09160 | 49° | 49km/h | 481m | -1.7m/s | 13.9°C | 96.3% | 954.8hPa | 2.7V | 00:00:00 | 03:52:13 | 00:00:00 | |
| DM0DOS-11 | 2026-08-31 03:17:37 | 53.41874 | 7.09113 | 47° | 49km/h | 487m | -1.9m/s | 13.9°C | 96.7% | 954.1hPa | 2.8V | 06:37:12 | 03:52:10 | 00:00:00 | |
| DM0DOS-11 | 2026-08-31 03:17:37 | 53.41857 | 7.09082 | 47° | 49km/h | 491m | -1.9m/s | 13.9°C | 96.9% | 953.9hPa | 2.7V | 06:37:14 | 03:52:08 | 00:00:00 | |
| DM0DOS-11 | 2026-08-31 03:17:37 | 53.41840 | 7.09051 | 48° | 49km/h | 495m | -2.2m/s | 13.9°C | 96.8% | 953.6hPa | 2.8V | 06:37:16 | 03:52:06 | 00:00:00 | |
| GOEST3-10 | 2026-08-31 03:17:37 | 53.41882 | 7.09128 | 49° | 49km/h | 485m | -2.1m/s | 13.9°C | 96.5% | 954.5hPa | 2.7V | 06:37:00 | 03:52:11 | 00:00:00 | |
| DF5WG-10 | 2026-08-31 03:17:37 | 53.41882 | 7.09128 | 49° | 49km/h | 485m | -2.1m/s | 13.9°C | 96.5% | 954.5hPa | 2.7V | 00:00:00 | 03:52:11 | 00:00:00 | |
| GOEST3-10 | 2026-08-31 03:17:36 | 53.41874 | 7.09113 | 48° | 49km/h | 487m | -1.9m/s | 13.9°C | 96.7% | 954.0hPa | 2.7V | 00:00:00 | 00:00:00 | 00:00:00 | |
| DF5WG-10 | 2026-08-31 03:17:36 | 53.41874 | 7.09113 | 48° | 49km/h | 487m | -1.9m/s | 13.9°C | 96.7% | 954.0hPa | 2.7V | 00:00:00 | 03:52:10 | 00:00:00 | |
| DF5WG-10 | 2026-08-31 03:17:35 | 53.41865 | 7.09097 | 48° | 49km/h | 489m | -1.7m/s | 13.9°C | 96.9% | 954.1hPa | 2.7V | 00:00:00 | 03:52:09 | 00:00:00 | |
| GOEST3-10 | 2026-08-31 03:17:35 | 53.41865 | 7.09097 | 48° | 49km/h | 489m | -1.7m/s | 13.9°C | 96.9% | 954.1hPa | 2.7V | 00:00:00 | 03:52:09 | 00:00:00 | |
| GOEST3-10 | 2026-08-31 03:17:34 | 53.41857 | 7.09082 | 48° | 49km/h | 491m | -1.9m/s | 13.8°C | 96.9% | 953.9hPa | 2.7V | 00:00:00 | 00:00:00 | 00:00:00 | |
| DF5WG-10 | 2026-08-31 03:17:34 | 53.41857 | 7.09082 | 48° | 49km/h | 491m | -1.9m/s | 13.8°C | 96.9% | 953.9hPa | 2.7V | 00:00:00 | 03:52:08 | 00:00:00 | |
| GOEST3-10 | 2026-08-31 03:17:33 | 53.41848 | 7.09066 | 48° | 49km/h | 493m | -1.9m/s | 13.9°C | 96.4% | 953.8hPa | 2.7V | 00:00:00 | 03:52:07 | 00:00:00 | |
| DM0DOS-11 | 2026-08-31 03:17:31 | 53.41824 | 7.09020 | 48° | 49km/h | 498m | -1.9m/s | 13.9°C | 96.5% | 952.9hPa | 2.8V | 06:37:18 | 03:52:04 | 00:00:00 | |
| DM0DOS-11 | 2026-08-31 03:17:31 | 53.41808 | 7.08988 | 49° | 49km/h | 502m | -1.7m/s | 13.9°C | 96.3% | 952.9hPa | 2.8V | 06:37:20 | 03:52:02 | 00:00:00 | |
| DM0DOS-11 | 2026-08-31 03:17:31 | 53.41792 | 7.08957 | 50° | 47km/h | 506m | -1.7m/s | 13.9°C | 96.3% | 952.5hPa | 2.8V | 06:37:22 | 03:52:00 | 00:00:00 | |
| GOEST3-10 | 2026-08-31 03:17:31 | 53.41832 | 7.09035 | 49° | 49km/h | 497m | -1.7m/s | 13.9°C | 96.5% | 953.3hPa | 2.7V | 00:00:00 | 03:52:05 | 00:00:00 | |
| GOEST3-10 | 2026-08-31 03:17:30 | 53.41824 | 7.09019 | 49° | 49km/h | 498m | -1.9m/s | 13.8°C | 96.5% | 952.9hPa | 2.7V | 06:37:00 | 00:00:00 | 00:00:00 | |
| DF5WG-10 | 2026-08-31 03:17:30 | 53.41824 | 7.09019 | 49° | 49km/h | 498m | -1.9m/s | 13.8°C | 96.5% | 952.9hPa | 2.7V | 06:37:00 | 03:52:04 | 00:00:00 | |
| GOEST3-10 | 2026-08-31 03:17:29 | 53.41816 | 7.09004 | 49° | 49km/h | 500m | -1.8m/s | 13.8°C | 96.6% | 952.7hPa | 2.7V | 00:00:00 | 03:52:03 | 00:00:00 | |
| DF5WG-10 | 2026-08-31 03:17:29 | 53.41816 | 7.09004 | 49° | 49km/h | 500m | -1.8m/s | 13.8°C | 96.6% | 952.7hPa | 2.7V | 00:00:00 | 03:52:03 | 00:00:00 | |
| GOEST3-10 | 2026-08-31 03:17:28 | 53.41808 | 7.08988 | 50° | 49km/h | 502m | -1.7m/s | 13.8°C | 96.3% | 952.8hPa | 2.7V | 00:00:00 | 00:00:00 | 00:00:00 | |
| DF5WG-10 | 2026-08-31 03:17:28 | 53.41808 | 7.08988 | 50° | 49km/h | 502m | -1.7m/s | 13.8°C | 96.3% | 952.8hPa | 2.7V | 00:00:00 | 03:52:02 | 00:00:00 | |
| GOEST3-10 | 2026-08-31 03:17:27 | 53.41800 | 7.08973 | 50° | 47km/h | 504m | -1.7m/s | 13.8°C | 96.6% | 952.4hPa | 2.7V | 00:00:00 | 03:52:01 | 00:00:00 | |
| DF5WG-10 | 2026-08-31 03:17:27 | 53.41800 | 7.08973 | 50° | 47km/h | 504m | -1.7m/s | 13.8°C | 96.6% | 952.4hPa | 2.7V | 00:00:00 | 03:52:01 | 00:00:00 | |
| DM0DOS-11 | 2026-08-31 03:17:25 | 53.41776 | 7.08926 | 49° | 47km/h | 509m | -1.9m/s | 13.9°C | 96.3% | 951.9hPa | 2.8V | 06:37:24 | 03:51:58 | 00:00:00 | |
| DM0DOS-11 | 2026-08-31 03:17:25 | 53.41761 | 7.08896 | 48° | 46km/h | 513m | -1.7m/s | 13.9°C | 96.3% | 951.6hPa | 2.8V | 06:37:26 | 03:51:56 | 00:00:00 | |
| DM0DOS-11 | 2026-08-31 03:17:25 | 53.41745 | 7.08867 | 46° | 46km/h | 516m | -1.4m/s | 13.8°C | 96.5% | 951hPa | 2.8V | 06:37:28 | 03:51:54 | 00:00:00 | |
| GOEST3-10 | 2026-08-31 03:17:25 | 53.41784 | 7.08942 | 51° | 47km/h | 507m | -1.6m/s | 13.8°C | 96.4% | 952.0hPa | 2.7V | 00:00:00 | 03:51:59 | 00:00:00 | |
| DF5WG-10 | 2026-08-31 03:17:25 | 53.41784 | 7.08942 | 51° | 47km/h | 507m | -1.6m/s | 13.8°C | 96.4% | 952.0hPa | 2.7V | 00:00:00 | 03:51:59 | 00:00:00 | |
| GOEST3-10 | 2026-08-31 03:17:24 | 53.41776 | 7.08926 | 50° | 47km/h | 509m | -1.8m/s | 13.8°C | 96.3% | 951.9hPa | 2.7V | 00:00:00 | 00:00:00 | 00:00:00 | |
| DF5WG-10 | 2026-08-31 03:17:24 | 53.41776 | 7.08926 | 50° | 47km/h | 509m | -1.8m/s | 13.8°C | 96.3% | 951.9hPa | 2.7V | 00:00:00 | 03:51:58 | 00:00:00 | |
| GOEST3-10 | 2026-08-31 03:17:23 | 53.41768 | 7.08911 | 49° | 47km/h | 511m | -1.6m/s | 13.8°C | 96.6% | 951.5hPa | 2.7V | 06:37:00 | 03:51:57 | 00:00:00 | |
| DF5WG-10 | 2026-08-31 03:17:23 | 53.41768 | 7.08911 | 49° | 47km/h | 511m | -1.6m/s | 13.8°C | 96.6% | 951.5hPa | 2.7V | 06:37:00 | 03:51:57 | 00:00:00 | |
| GOEST3-10 | 2026-08-31 03:17:22 | 53.41760 | 7.08896 | 49° | 46km/h | 513m | -1.6m/s | 13.8°C | 96.3% | 951.6hPa | 2.7V | 00:00:00 | 00:00:00 | 00:00:00 | |
| DF5WG-10 | 2026-08-31 03:17:22 | 53.41760 | 7.08896 | 49° | 46km/h | 513m | -1.6m/s | 13.8°C | 96.3% | 951.6hPa | 2.7V | 00:00:00 | 03:51:56 | 00:00:00 | |
| DJ2DS-15 | 2026-08-31 03:17:21 | 53.41753 | 7.08881 | 47° | 46km/h | 514m | -1.7m/s | 13.9°C | 95.6% | 951.2hPa | 2.7V | 00:00:00 | 00:00:00 | 00:00:00 | |
| GOEST3-10 | 2026-08-31 03:17:21 | 53.41753 | 7.08881 | 48° | 47km/h | 515m | -1.7m/s | 13.8°C | 96.5% | 951.2hPa | 2.7V | 00:00:00 | 03:51:55 | 00:00:00 | |
| DF5WG-10 | 2026-08-31 03:17:21 | 53.41753 | 7.08881 | 48° | 47km/h | 515m | -1.7m/s | 13.8°C | 96.5% | 951.2hPa | 2.7V | 00:00:00 | 03:51:55 | 00:00:00 | |
| DM0DOS-11 | 2026-08-31 03:17:19 | 53.41729 | 7.08839 | 45° | 46km/h | 520m | -1.8m/s | 13.8°C | 96.4% | 950.7hPa | 2.8V | 06:37:30 | 03:51:52 | 00:00:00 | |
| DM0DOS-11 | 2026-08-31 03:17:19 | 53.41712 | 7.08811 | 44° | 46km/h | 524m | -2m/s | 13.9°C | 96.2% | 950.3hPa | 2.8V | 06:37:32 | 03:51:50 | 00:00:00 | |
| DM0DOS-11 | 2026-08-31 03:17:19 | 53.41696 | 7.08784 | 45° | 46km/h | 527m | -1.8m/s | 13.8°C | 96.7% | 949.9hPa | 2.8V | 06:37:34 | 03:51:48 | 00:00:00 | |
| GOEST3-10 | 2026-08-31 03:17:19 | 53.41736 | 7.08853 | 47° | 46km/h | 518m | -1.9m/s | 13.8°C | 96.5% | 950.9hPa | 2.7V | 00:00:00 | 03:51:53 | 00:00:00 | |
| GOEST3-10 | 2026-08-31 03:17:18 | 53.41728 | 7.08838 | 46° | 46km/h | 520m | -1.7m/s | 13.8°C | 96.4% | 950.7hPa | 2.7V | 00:00:00 | 00:00:00 | 00:00:00 | |
| GOEST3-10 | 2026-08-31 03:17:17 | 53.41720 | 7.08825 | 45° | 46km/h | 522m | -2.0m/s | 13.8°C | 96.6% | 950.5hPa | 2.7V | 00:00:00 | 03:51:51 | 00:00:00 | |
| GOEST3-10 | 2026-08-31 03:17:16 | 53.41712 | 7.08811 | 45° | 46km/h | 524m | -2.0m/s | 13.8°C | 96.2% | 950.3hPa | 2.7V | 06:37:00 | 00:00:00 | 00:00:00 | |
| DF5WG-10 | 2026-08-31 03:17:16 | 53.41712 | 7.08811 | 45° | 46km/h | 524m | -2.0m/s | 13.8°C | 96.2% | 950.3hPa | 2.7V | 00:00:00 | 03:51:50 | 00:00:00 | |
| GOEST3-10 | 2026-08-31 03:17:15 | 53.41704 | 7.08797 | 46° | 46km/h | 525m | -1.7m/s | 13.8°C | 96.3% | 949.9hPa | 2.7V | 00:00:00 | 03:51:49 | 00:00:00 | |
| DF5WG-10 | 2026-08-31 03:17:15 | 53.41704 | 7.08797 | 46° | 46km/h | 525m | -1.7m/s | 13.8°C | 96.3% | 949.9hPa | 2.7V | 00:00:00 | 03:51:49 | 00:00:00 | |
| DM0DOS-11 | 2026-08-31 03:17:13 | 53.41680 | 7.08756 | 47° | 46km/h | 531m | -1.8m/s | 13.8°C | 96.5% | 949.4hPa | 2.8V | 06:37:36 | 03:51:46 | 00:00:00 | |
| DM0DOS-11 | 2026-08-31 03:17:13 | 53.41665 | 7.08728 | 47° | 46km/h | 535m | -1.9m/s | 13.8°C | 96.7% | 949hPa | 2.8V | 06:37:38 | 03:51:44 | 00:00:00 | |
| DM0DOS-11 | 2026-08-31 03:17:13 | 53.41649 | 7.08699 | 48° | 46km/h | 538m | -1.9m/s | 13.7°C | 97% | 948.6hPa | 2.8V | 06:37:40 | 03:51:42 | 00:00:00 | |
| GOEST3-10 | 2026-08-31 03:17:13 | 53.41688 | 7.08770 | 47° | 46km/h | 529m | -1.9m/s | 13.7°C | 96.7% | 949.5hPa | 2.7V | 00:00:00 | 03:51:47 | 00:00:00 | |
| DF5WG-10 | 2026-08-31 03:17:13 | 53.41688 | 7.08770 | 47° | 46km/h | 529m | -1.9m/s | 13.7°C | 96.7% | 949.5hPa | 2.7V | 06:37:00 | 03:51:47 | 00:00:00 | |
| GOEST3-10 | 2026-08-31 03:17:12 | 53.41680 | 7.08756 | 48° | 46km/h | 531m | -1.7m/s | 13.7°C | 96.5% | 949.4hPa | 2.7V | 00:00:00 | 00:00:00 | 00:00:00 | |
| DF5WG-10 | 2026-08-31 03:17:12 | 53.41680 | 7.08756 | 48° | 46km/h | 531m | -1.7m/s | 13.7°C | 96.5% | 949.4hPa | 2.7V | 00:00:00 | 03:51:46 | 00:00:00 | |
| GOEST3-10 | 2026-08-31 03:17:11 | 53.41672 | 7.08742 | 48° | 46km/h | 533m | -1.7m/s | 13.7°C | 96.7% | 949.1hPa | 2.7V | 00:00:00 | 03:51:45 | 00:00:00 | |
| DF5WG-10 | 2026-08-31 03:17:11 | 53.41672 | 7.08742 | 48° | 46km/h | 533m | -1.7m/s | 13.7°C | 96.7% | 949.1hPa | 2.7V | 00:00:00 | 03:51:45 | 00:00:00 | |
| GOEST3-10 | 2026-08-31 03:17:10 | 53.41665 | 7.08727 | 48° | 46km/h | 535m | -1.9m/s | 13.7°C | 96.7% | 949.0hPa | 2.7V | 00:00:00 | 00:00:00 | 00:00:00 | |
| DF5WG-10 | 2026-08-31 03:17:10 | 53.41665 | 7.08727 | 48° | 46km/h | 535m | -1.9m/s | 13.7°C | 96.7% | 949.0hPa | 2.7V | 00:00:00 | 03:51:44 | 00:00:00 | |
| GOEST3-10 | 2026-08-31 03:17:09 | 53.41657 | 7.08713 | 49° | 46km/h | 536m | -2.0m/s | 13.7°C | 96.6% | 948.7hPa | 2.7V | 06:37:00 | 03:51:43 | 00:00:00 | |
| DF5WG-10 | 2026-08-31 03:17:09 | 53.41657 | 7.08713 | 49° | 46km/h | 536m | -2.0m/s | 13.7°C | 96.6% | 948.7hPa | 2.7V | 00:00:00 | 03:51:43 | 00:00:00 | |
| DM0DOS-11 | 2026-08-31 03:17:07 | 53.41634 | 7.08670 | 48° | 46km/h | 542m | -2m/s | 13.7°C | 96.9% | 948.2hPa | 2.8V | 06:37:42 | 03:51:40 | 00:00:00 | |
| DM0DOS-11 | 2026-08-31 03:17:07 | 53.41619 | 7.08641 | 47° | 46km/h | 546m | -1.9m/s | 13.7°C | 97% | 947.8hPa | 2.7V | 06:37:44 | 03:51:38 | 00:00:00 | |
| DM0DOS-11 | 2026-08-31 03:17:07 | 53.41603 | 7.08613 | 46° | 46km/h | 550m | -1.7m/s | 13.7°C | 96.3% | 947.3hPa | 2.8V | 06:37:46 | 03:51:36 | 00:00:00 | |
| GOEST3-10 | 2026-08-31 03:17:07 | 53.41642 | 7.08684 | 49° | 46km/h | 540m | -1.9m/s | 13.7°C | 96.8% | 948.4hPa | 2.7V | 00:00:00 | 03:51:41 | 00:00:00 | |
| DF5WG-10 | 2026-08-31 03:17:07 | 53.41642 | 7.08684 | 49° | 46km/h | 540m | -1.9m/s | 13.7°C | 96.8% | 948.4hPa | 2.7V | 00:00:00 | 03:51:41 | 00:00:00 | |
| GOEST3-10 | 2026-08-31 03:17:06 | 53.41634 | 7.08670 | 49° | 46km/h | 542m | -2.0m/s | 13.7°C | 96.9% | 948.2hPa | 2.7V | 00:00:00 | 00:00:00 | 00:00:00 | |
| DF5WG-10 | 2026-08-31 03:17:06 | 53.41634 | 7.08670 | 49° | 46km/h | 542m | -2.0m/s | 13.7°C | 96.9% | 948.2hPa | 2.7V | 00:00:00 | 03:51:40 | 00:00:00 | |
| GOEST3-10 | 2026-08-31 03:17:05 | 53.41626 | 7.08655 | 48° | 46km/h | 544m | -1.9m/s | 13.6°C | 97.1% | 948.0hPa | 2.7V | 00:00:00 | 03:51:39 | 00:00:00 | |
| DF5WG-10 | 2026-08-31 03:17:05 | 53.41626 | 7.08655 | 48° | 46km/h | 544m | -1.9m/s | 13.6°C | 97.1% | 948.0hPa | 2.7V | 06:37:00 | 03:51:39 | 00:00:00 | |
| GOEST3-10 | 2026-08-31 03:17:04 | 53.41619 | 7.08641 | 48° | 46km/h | 546m | -1.9m/s | 13.6°C | 97.0% | 947.8hPa | 2.7V | 00:00:00 | 00:00:00 | 00:00:00 | |
| DF5WG-10 | 2026-08-31 03:17:04 | 53.41619 | 7.08641 | 48° | 46km/h | 546m | -1.9m/s | 13.6°C | 97.0% | 947.8hPa | 2.7V | 00:00:00 | 03:51:38 | 00:00:00 | |
| GOEST3-10 | 2026-08-31 03:17:03 | 53.41611 | 7.08627 | 48° | 46km/h | 548m | -1.9m/s | 13.7°C | 96.8% | 947.6hPa | 2.7V | 00:00:00 | 03:51:37 | 00:00:00 | |
| DF5WG-10 | 2026-08-31 03:17:03 | 53.41611 | 7.08627 | 48° | 46km/h | 548m | -1.9m/s | 13.7°C | 96.8% | 947.6hPa | 2.8V | 00:00:00 | 03:51:37 | 00:00:00 | |
| DM0DOS-11 | 2026-08-31 03:17:01 | 53.41587 | 7.08586 | 46° | 44km/h | 554m | -1.8m/s | 13.8°C | 96% | 947.1hPa | 2.8V | 06:37:48 | 03:51:34 | 00:00:00 | |
| DM0DOS-11 | 2026-08-31 03:17:01 | 53.41572 | 7.08558 | 47° | 44km/h | 557m | -1.7m/s | 13.7°C | 96.2% | 946.7hPa | 2.8V | 06:37:50 | 03:51:32 | 00:00:00 | |
| DM0DOS-11 | 2026-08-31 03:17:01 | 53.41557 | 7.08530 | 47° | 44km/h | 561m | -2m/s | 13.7°C | 96.3% | 946.2hPa | 2.8V | 06:37:52 | 03:51:30 | 00:00:00 | |
| HTAHTA | 2026-08-31 03:16:58 | 53.41549 | 7.08516 | 46° | 44km/h | 563m | -1.9m/s | 13.7°C | 95.4% | 946.0hPa | 2.7V | 00:00:00 | 00:00:00 | 00:00:00 | |
| GOEST3-10 | 2026-08-31 03:16:57 | 53.41565 | 7.08544 | 48° | 44km/h | 559m | -1.9m/s | 13.7°C | 96.1% | 946.5hPa | 2.7V | 00:00:00 | 03:51:31 | 00:00:00 | |
| DF5WG-10 | 2026-08-31 03:16:57 | 53.41565 | 7.08544 | 48° | 44km/h | 559m | -1.9m/s | 13.7°C | 96.1% | 946.5hPa | 2.8V | 00:00:00 | 03:51:31 | 00:00:00 | |
| DM0DOS-11 | 2026-08-31 03:16:55 | 53.41542 | 7.08502 | 47° | 44km/h | 565m | -2m/s | 13.7°C | 96.2% | 945.7hPa | 2.8V | 06:37:54 | 03:51:28 | 00:00:00 | |
| DM0DOS-11 | 2026-08-31 03:16:55 | 53.41526 | 7.08475 | 46° | 44km/h | 568m | -1.9m/s | 13.7°C | 96% | 945.3hPa | 2.8V | 06:37:56 | 03:51:26 | 00:00:00 | |
| DM0DOS-11 | 2026-08-31 03:16:55 | 53.41511 | 7.08447 | 45° | 46km/h | 572m | -1.9m/s | 13.7°C | 96.1% | 944.9hPa | 2.7V | 06:37:58 | 03:51:24 | 00:00:00 | |
| GOEST3-10 | 2026-08-31 03:16:55 | 53.41549 | 7.08516 | 47° | 44km/h | 563m | -1.8m/s | 13.7°C | 96.3% | 945.9hPa | 2.7V | 06:37:00 | 03:51:29 | 00:00:00 | |
| DF5WG-10 | 2026-08-31 03:16:55 | 53.41549 | 7.08516 | 47° | 44km/h | 563m | -1.8m/s | 13.7°C | 96.3% | 945.9hPa | 2.7V | 00:00:00 | 03:51:29 | 00:00:00 | |
| GOEST3-10 | 2026-08-31 03:16:54 | 53.41542 | 7.08502 | 48° | 44km/h | 565m | -1.9m/s | 13.6°C | 96.2% | 945.7hPa | 2.7V | 00:00:00 | 00:00:00 | 00:00:00 | |
| DF5WG-10 | 2026-08-31 03:16:54 | 53.41542 | 7.08502 | 48° | 44km/h | 565m | -1.9m/s | 13.6°C | 96.2% | 945.7hPa | 2.7V | 00:00:00 | 03:51:28 | 00:00:00 | |
| GOEST3-10 | 2026-08-31 03:16:53 | 53.41534 | 7.08488 | 48° | 44km/h | 567m | -1.8m/s | 13.6°C | 96.0% | 945.5hPa | 2.7V | 00:00:00 | 03:51:27 | 00:00:00 | |
| DF5WG-10 | 2026-08-31 03:16:53 | 53.41534 | 7.08488 | 48° | 44km/h | 567m | -1.8m/s | 13.6°C | 96.0% | 945.5hPa | 2.7V | 00:00:00 | 03:51:27 | 00:00:00 | |
| GOEST3-10 | 2026-08-31 03:16:52 | 53.41526 | 7.08475 | 47° | 46km/h | 569m | -1.8m/s | 13.6°C | 96.0% | 945.2hPa | 2.7V | 00:00:00 | 00:00:00 | 00:00:00 | |
| DF5WG-10 | 2026-08-31 03:16:52 | 53.41526 | 7.08475 | 47° | 46km/h | 569m | -1.8m/s | 13.6°C | 96.0% | 945.2hPa | 2.7V | 00:00:00 | 03:51:26 | 00:00:00 | |
| GOEST3-10 | 2026-08-31 03:16:51 | 53.41518 | 7.08461 | 47° | 44km/h | 571m | -2.0m/s | 13.6°C | 96.2% | 945.2hPa | 2.7V | 00:00:00 | 03:51:25 | 00:00:00 | |
| DF5WG-10 | 2026-08-31 03:16:51 | 53.41518 | 7.08461 | 47° | 44km/h | 571m | -2.0m/s | 13.6°C | 96.2% | 945.2hPa | 2.8V | 06:37:00 | 03:51:25 | 00:00:00 | |
| DM0DOS-11 | 2026-08-31 03:16:49 | 53.41494 | 7.08420 | 44° | 46km/h | 577m | -2.1m/s | 13.6°C | 96% | 944.5hPa | 2.8V | 06:38:00 | 03:51:22 | 00:00:00 | |
| DM0DOS-11 | 2026-08-31 03:16:49 | 53.41478 | 7.08394 | 44° | 44km/h | 581m | -2m/s | 13.6°C | 96.4% | 943.9hPa | 2.8V | 06:38:02 | 03:51:20 | 00:00:00 | |
| DM0DOS-11 | 2026-08-31 03:16:49 | 53.41462 | 7.08368 | 43° | 44km/h | 585m | -1.8m/s | 13.6°C | 96.3% | 943.5hPa | 2.8V | 06:38:04 | 03:51:18 | 00:00:00 | |
| DJ2DS-15 | 2026-08-31 03:16:45 | 53.41470 | 7.08381 | 44° | 44km/h | 582m | -1.9m/s | 13.6°C | 95.3% | 943.8hPa | 2.7V | 00:00:00 | 00:00:00 | 00:00:00 | |
| GOEST3-10 | 2026-08-31 03:16:45 | 53.41470 | 7.08381 | 45° | 44km/h | 583m | -1.9m/s | 13.5°C | 96.2% | 943.7hPa | 2.7V | 00:00:00 | 03:51:19 | 00:00:00 | |
| DF5WG-10 | 2026-08-31 03:16:45 | 53.41470 | 7.08381 | 45° | 44km/h | 583m | -1.9m/s | 13.5°C | 96.2% | 943.7hPa | 2.8V | 00:00:00 | 03:51:19 | 00:00:00 | |
| DM0DOS-11 | 2026-08-31 03:16:43 | 53.41446 | 7.08342 | 44° | 44km/h | 589m | -1.8m/s | 13.5°C | 95.6% | 943.1hPa | 2.8V | 06:38:06 | 03:51:16 | 00:00:00 | |
| DM0DOS-11 | 2026-08-31 03:16:43 | 53.41430 | 7.08316 | 44° | 44km/h | 593m | -2.1m/s | 13.5°C | 95.5% | 942.7hPa | 2.8V | 06:38:08 | 03:51:14 | 00:00:00 | |
| DM0DOS-11 | 2026-08-31 03:16:43 | 53.41415 | 7.08289 | 45° | 44km/h | 596m | -1.9m/s | 13.5°C | 95.7% | 942.2hPa | 2.8V | 06:38:10 | 03:51:12 | 00:00:00 | |
| DF5WG-10 | 2026-08-31 03:16:42 | 53.41446 | 7.08342 | 45° | 44km/h | 589m | -1.8m/s | 13.5°C | 95.6% | 943.1hPa | 2.7V | 00:00:00 | 03:51:16 | 00:00:00 | |
| GOEST3-10 | 2026-08-31 03:16:41 | 53.41438 | 7.08329 | 45° | 44km/h | 590m | -1.9m/s | 13.5°C | 95.7% | 942.9hPa | 2.7V | 00:00:00 | 00:00:00 | 00:00:00 | |
| DF5WG-10 | 2026-08-31 03:16:41 | 53.41438 | 7.08329 | 45° | 44km/h | 590m | -1.9m/s | 13.5°C | 95.7% | 942.9hPa | 2.7V | 00:00:00 | 03:51:15 | 00:00:00 | |
| GOEST3-10 | 2026-08-31 03:16:40 | 53.41430 | 7.08316 | 45° | 44km/h | 593m | -2.1m/s | 13.5°C | 95.5% | 942.7hPa | 2.7V | 06:38:00 | 03:51:14 | 00:00:00 | |
| DF5WG-10 | 2026-08-31 03:16:40 | 53.41430 | 7.08316 | 45° | 44km/h | 593m | -2.1m/s | 13.5°C | 95.5% | 942.7hPa | 2.7V | 00:00:00 | 03:51:14 | 00:00:00 | |
| GOEST3-10 | 2026-08-31 03:16:39 | 53.41422 | 7.08303 | 45° | 44km/h | 595m | -1.9m/s | 13.4°C | 95.6% | 942.3hPa | 2.7V | 00:00:00 | 00:00:00 | 00:00:00 | |
| DF5WG-10 | 2026-08-31 03:16:39 | 53.41422 | 7.08303 | 45° | 44km/h | 595m | -1.9m/s | 13.4°C | 95.6% | 942.3hPa | 2.7V | 00:00:00 | 03:51:13 | 00:00:00 | |
| DM0DOS-11 | 2026-08-31 03:16:37 | 53.41399 | 7.08263 | 46° | 44km/h | 600m | -2m/s | 13.4°C | 95.7% | 941.8hPa | 2.7V | 06:38:12 | 03:51:10 | 00:00:00 | |
| DM0DOS-11 | 2026-08-31 03:16:37 | 53.41384 | 7.08237 | 46° | 42km/h | 604m | -1.9m/s | 13.4°C | 95.7% | 941.5hPa | 2.8V | 06:38:14 | 03:51:08 | 00:00:00 | |
| DM0DOS-11 | 2026-08-31 03:16:37 | 53.41370 | 7.08211 | 47° | 42km/h | 608m | -1.9m/s | 13.4°C | 95.8% | 941hPa | 2.8V | 06:38:16 | 03:51:06 | 00:00:00 | |
| GOEST3-10 | 2026-08-31 03:16:37 | 53.41407 | 7.08276 | 47° | 44km/h | 599m | -1.9m/s | 13.4°C | 95.6% | 941.9hPa | 2.7V | 00:00:00 | 00:00:00 | 00:00:00 | |
| DF5WG-10 | 2026-08-31 03:16:37 | 53.41407 | 7.08276 | 47° | 44km/h | 599m | -1.9m/s | 13.4°C | 95.6% | 941.9hPa | 2.7V | 06:38:00 | 03:51:11 | 00:00:00 | |
| GOEST3-10 | 2026-08-31 03:16:36 | 53.41399 | 7.08263 | 47° | 44km/h | 600m | -2.0m/s | 13.4°C | 95.7% | 941.7hPa | 2.7V | 00:00:00 | 03:51:10 | 00:00:00 | |
| DF5WG-10 | 2026-08-31 03:16:36 | 53.41399 | 7.08263 | 47° | 44km/h | 600m | -2.0m/s | 13.4°C | 95.7% | 941.7hPa | 2.7V | 00:00:00 | 03:51:10 | 00:00:00 | |
| GOEST3-10 | 2026-08-31 03:16:35 | 53.41392 | 7.08250 | 47° | 42km/h | 603m | -1.8m/s | 13.4°C | 95.7% | 941.6hPa | 2.7V | 00:00:00 | 00:00:00 | 00:00:00 | |
| DF5WG-10 | 2026-08-31 03:16:35 | 53.41392 | 7.08250 | 47° | 42km/h | 603m | -1.8m/s | 13.4°C | 95.7% | 941.6hPa | 2.7V | 00:00:00 | 03:51:09 | 00:00:00 | |
| GOEST3-10 | 2026-08-31 03:16:34 | 53.41384 | 7.08237 | 47° | 42km/h | 604m | -1.8m/s | 13.4°C | 95.7% | 941.4hPa | 2.8V | 00:00:00 | 03:51:08 | 00:00:00 | |
| DF5WG-10 | 2026-08-31 03:16:34 | 53.41384 | 7.08237 | 47° | 42km/h | 604m | -1.8m/s | 13.4°C | 95.7% | 941.4hPa | 2.8V | 00:00:00 | 03:51:08 | 00:00:00 | |
| GOEST3-10 | 2026-08-31 03:16:33 | 53.41377 | 7.08224 | 48° | 42km/h | 606m | -1.8m/s | 13.4°C | 95.8% | 941.1hPa | 2.8V | 06:38:00 | 00:00:00 | 00:00:00 | |
| DF5WG-10 | 2026-08-31 03:16:33 | 53.41377 | 7.08224 | 48° | 42km/h | 606m | -1.8m/s | 13.4°C | 95.8% | 941.1hPa | 2.8V | 00:00:00 | 03:51:07 | 00:00:00 | |
| DM0DOS-11 | 2026-08-31 03:16:31 | 53.41356 | 7.08185 | 47° | 42km/h | 612m | -2m/s | 13.4°C | 96% | 940.6hPa | 2.8V | 06:38:18 | 03:51:04 | 00:00:00 | |
| DM0DOS-11 | 2026-08-31 03:16:31 | 53.41341 | 7.08159 | 46° | 42km/h | 616m | -1.9m/s | 13.4°C | 96.2% | 940.1hPa | 2.8V | 06:38:20 | 03:51:02 | 00:00:00 | |
| DM0DOS-11 | 2026-08-31 03:16:31 | 53.41327 | 7.08134 | 46° | 42km/h | 619m | -1.8m/s | 13.4°C | 96.2% | 939.7hPa | 2.8V | 06:38:22 | 03:51:00 | 00:00:00 | |
| GOEST3-10 | 2026-08-31 03:16:31 | 53.41362 | 7.08198 | 48° | 42km/h | 610m | -1.8m/s | 13.4°C | 95.9% | 940.9hPa | 2.7V | 00:00:00 | 00:00:00 | 00:00:00 | |
| DF5WG-10 | 2026-08-31 03:16:31 | 53.41362 | 7.08198 | 48° | 42km/h | 610m | -1.8m/s | 13.4°C | 95.9% | 940.9hPa | 2.7V | 00:00:00 | 03:51:05 | 00:00:00 | |
| GOEST3-10 | 2026-08-31 03:16:30 | 53.41355 | 7.08185 | 48° | 42km/h | 612m | -2.0m/s | 13.4°C | 96.0% | 940.6hPa | 2.7V | 00:00:00 | 03:51:04 | 00:00:00 | |
| DF5WG-10 | 2026-08-31 03:16:30 | 53.41355 | 7.08185 | 48° | 42km/h | 612m | -2.0m/s | 13.4°C | 96.0% | 940.6hPa | 2.7V | 06:38:00 | 03:51:04 | 00:00:00 | |
| DF5WG-10 | 2026-08-31 03:16:29 | 53.41348 | 7.08172 | 48° | 42km/h | 614m | -1.9m/s | 13.4°C | 96.0% | 940.3hPa | 2.7V | 00:00:00 | 03:51:03 | 00:00:00 | |
| GOEST3-10 | 2026-08-31 03:16:28 | 53.41341 | 7.08159 | 47° | 42km/h | 616m | -1.8m/s | 13.3°C | 96.2% | 940.0hPa | 2.7V | 00:00:00 | 00:00:00 | 00:00:00 | |
| DF5WG-10 | 2026-08-31 03:16:28 | 53.41341 | 7.08159 | 47° | 42km/h | 616m | -1.8m/s | 13.3°C | 96.2% | 940.0hPa | 2.8V | 00:00:00 | 03:51:02 | 00:00:00 | |
| GOEST3-10 | 2026-08-31 03:16:27 | 53.41334 | 7.08146 | 47° | 42km/h | 618m | -1.9m/s | 13.4°C | 96.0% | 939.7hPa | 2.8V | 00:00:00 | 03:51:01 | 00:00:00 | |
| DF5WG-10 | 2026-08-31 03:16:27 | 53.41334 | 7.08146 | 47° | 42km/h | 618m | -1.9m/s | 13.4°C | 96.0% | 939.7hPa | 2.8V | 00:00:00 | 03:51:01 | 00:00:00 | |
| DM0DOS-11 | 2026-08-31 03:16:25 | 53.41312 | 7.08108 | 46° | 42km/h | 623m | -2.1m/s | 13.4°C | 96.1% | 939.2hPa | 2.8V | 06:38:24 | 03:50:58 | 00:00:00 | |
| DM0DOS-11 | 2026-08-31 03:16:25 | 53.41297 | 7.08081 | 46° | 44km/h | 627m | -1.9m/s | 13.4°C | 96.3% | 938.9hPa | 2.8V | 06:38:26 | 03:50:56 | 00:00:00 | |
| DM0DOS-11 | 2026-08-31 03:16:25 | 53.41282 | 7.08054 | 46° | 44km/h | 631m | -2m/s | 13.3°C | 96.5% | 938.4hPa | 2.8V | 06:38:28 | 03:50:54 | 00:00:00 | |
| GOEST3-10 | 2026-08-31 03:16:25 | 53.41319 | 7.08121 | 47° | 42km/h | 621m | -1.8m/s | 13.3°C | 96.2% | 939.4hPa | 2.7V | 06:38:00 | 03:50:59 | 00:00:00 | |
| DF5WG-10 | 2026-08-31 03:16:25 | 53.41319 | 7.08121 | 47° | 42km/h | 621m | -1.8m/s | 13.3°C | 96.2% | 939.4hPa | 2.7V | 00:00:00 | 03:50:59 | 00:00:00 | |
| DF5WG-10 | 2026-08-31 03:16:24 | 53.41312 | 7.08108 | 47° | 42km/h | 623m | -2.0m/s | 13.3°C | 96.1% | 939.2hPa | 2.7V | 00:00:00 | 03:50:58 | 00:00:00 | |
| GOEST3-10 | 2026-08-31 03:16:24 | 53.41312 | 7.08108 | 47° | 42km/h | 623m | -2.0m/s | 13.3°C | 96.1% | 939.2hPa | 2.7V | 00:00:00 | 00:00:00 | 00:00:00 | |
| GOEST3-10 | 2026-08-31 03:16:23 | 53.41305 | 7.08094 | 47° | 44km/h | 625m | -1.7m/s | 13.3°C | 96.2% | 939.0hPa | 2.7V | 00:00:00 | 03:50:57 | 00:00:00 | |
| DF5WG-10 | 2026-08-31 03:16:23 | 53.41305 | 7.08094 | 47° | 44km/h | 625m | -1.7m/s | 13.3°C | 96.2% | 939.0hPa | 2.7V | 06:38:00 | 03:50:57 | 00:00:00 | |
| DF5WG-10 | 2026-08-31 03:16:22 | 53.41297 | 7.08081 | 47° | 44km/h | 627m | -1.9m/s | 13.3°C | 96.3% | 938.8hPa | 2.8V | 00:00:00 | 03:50:56 | 00:00:00 | |
| DF5WG-10 | 2026-08-31 03:16:21 | 53.41289 | 7.08067 | 48° | 44km/h | 629m | -1.8m/s | 13.3°C | 96.3% | 938.6hPa | 2.8V | 00:00:00 | 03:50:55 | 00:00:00 | |
| DM0DOS-11 | 2026-08-31 03:16:19 | 53.41267 | 7.08027 | 47° | 44km/h | 635m | -1.8m/s | 13.3°C | 96.6% | 938hPa | 2.8V | 06:38:30 | 03:50:52 | 00:00:00 | |
| DM0DOS-11 | 2026-08-31 03:16:19 | 53.41252 | 7.07999 | 48° | 42km/h | 638m | -1.8m/s | 13.3°C | 96.6% | 937.6hPa | 2.8V | 06:38:32 | 03:50:50 | 00:00:00 | |
| DM0DOS-11 | 2026-08-31 03:16:19 | 53.41238 | 7.07972 | 48° | 42km/h | 642m | -1.9m/s | 13.3°C | 96.8% | 937.2hPa | 2.8V | 06:38:34 | 03:50:48 | 00:00:00 | |
| DF5WG-10 | 2026-08-31 03:16:19 | 53.41274 | 7.08040 | 48° | 44km/h | 633m | -1.9m/s | 13.3°C | 96.6% | 938.2hPa | 2.7V | 00:00:00 | 03:50:53 | 00:00:00 | |
| GOEST3-10 | 2026-08-31 03:16:19 | 53.41274 | 7.08040 | 48° | 44km/h | 633m | -1.9m/s | 13.3°C | 96.6% | 938.2hPa | 2.7V | 00:00:00 | 03:50:53 | 00:00:00 | |
| DF5WG-10 | 2026-08-31 03:16:18 | 53.41267 | 7.08027 | 48° | 44km/h | 635m | -1.7m/s | 13.3°C | 96.6% | 938.0hPa | 2.7V | 00:00:00 | 03:50:52 | 00:00:00 | |
| GOEST3-10 | 2026-08-31 03:16:18 | 53.41267 | 7.08027 | 48° | 44km/h | 635m | -1.7m/s | 13.3°C | 96.6% | 938.0hPa | 2.7V | 00:00:00 | 00:00:00 | 00:00:00 | |
| GOEST3-10 | 2026-08-31 03:16:16 | 53.41252 | 7.07999 | 49° | 44km/h | 638m | -1.7m/s | 13.3°C | 96.6% | 937.6hPa | 2.7V | 00:00:00 | 03:50:50 | 00:00:00 | |
| GOEST3-10 | 2026-08-31 03:16:15 | 53.41245 | 7.07986 | 49° | 42km/h | 640m | -1.8m/s | 13.2°C | 96.8% | 937.4hPa | 2.7V | 06:38:00 | 00:00:00 | 00:00:00 | |
| DF5WG-10 | 2026-08-31 03:16:15 | 53.41245 | 7.07986 | 49° | 42km/h | 640m | -1.8m/s | 13.2°C | 96.8% | 937.4hPa | 2.7V | 00:00:00 | 03:50:49 | 00:00:00 | |
| DM0DOS-11 | 2026-08-31 03:16:13 | 53.41223 | 7.07946 | 47° | 42km/h | 646m | -2m/s | 13.3°C | 96.9% | 936.8hPa | 2.8V | 06:38:36 | 03:50:46 | 00:00:00 | |
| DM0DOS-11 | 2026-08-31 03:16:13 | 53.41209 | 7.07920 | 46° | 42km/h | 650m | -1.8m/s | 13.3°C | 97% | 936.5hPa | 2.7V | 06:38:38 | 03:50:44 | 00:00:00 | |
| DM0DOS-11 | 2026-08-31 03:16:13 | 53.41194 | 7.07894 | 45° | 42km/h | 653m | -2m/s | 13.3°C | 97.1% | 935.9hPa | 2.8V | 06:38:40 | 03:50:42 | 00:00:00 | |
| GOEST3-10 | 2026-08-31 03:16:13 | 53.41230 | 7.07959 | 48° | 42km/h | 644m | -1.9m/s | 13.2°C | 96.8% | 937.0hPa | 2.7V | 00:00:00 | 00:00:00 | 00:00:00 | |
| GOEST3-10 | 2026-08-31 03:16:12 | 53.41223 | 7.07946 | 48° | 42km/h | 646m | -2.0m/s | 13.2°C | 96.9% | 936.7hPa | 2.7V | 00:00:00 | 03:50:46 | 00:00:00 | |
| DF5WG-10 | 2026-08-31 03:16:12 | 53.41223 | 7.07946 | 48° | 42km/h | 646m | -2.0m/s | 13.2°C | 96.9% | 936.7hPa | 2.7V | 00:00:00 | 03:50:46 | 00:00:00 | |
| GOEST3-10 | 2026-08-31 03:16:11 | 53.41216 | 7.07933 | 48° | 42km/h | 648m | -1.9m/s | 13.2°C | 97.0% | 936.7hPa | 2.7V | 00:00:00 | 00:00:00 | 00:00:00 | |
| DF5WG-10 | 2026-08-31 03:16:11 | 53.41216 | 7.07933 | 48° | 42km/h | 648m | -1.9m/s | 13.2°C | 97.0% | 936.7hPa | 2.7V | 00:00:00 | 03:50:45 | 00:00:00 | |
| GOEST3-10 | 2026-08-31 03:16:10 | 53.41209 | 7.07920 | 47° | 42km/h | 650m | -1.8m/s | 13.2°C | 97.0% | 936.4hPa | 2.7V | 00:00:00 | 03:50:44 | 00:00:00 | |
| DF5WG-10 | 2026-08-31 03:16:10 | 53.41209 | 7.07920 | 47° | 42km/h | 650m | -1.8m/s | 13.2°C | 97.0% | 936.4hPa | 2.8V | 00:00:00 | 03:50:44 | 00:00:00 | |
| DJ2DS-15 | 2026-08-31 03:16:09 | 53.41202 | 7.07907 | 46° | 42km/h | 651m | -2.0m/s | 13.3°C | 96.1% | 936.1hPa | 2.8V | 00:00:00 | 00:00:00 | 00:00:00 | |
| GOEST3-10 | 2026-08-31 03:16:09 | 53.41201 | 7.07907 | 47° | 42km/h | 651m | -1.9m/s | 13.2°C | 97.1% | 936.1hPa | 2.8V | 00:00:00 | 00:00:00 | 00:00:00 | |
| DM0DOS-11 | 2026-08-31 03:16:07 | 53.41179 | 7.07869 | 45° | 42km/h | 657m | -2m/s | 13.2°C | 97.1% | 935.5hPa | 2.8V | 06:38:42 | 03:50:40 | 00:00:00 | |
| DM0DOS-11 | 2026-08-31 03:16:07 | 53.41164 | 7.07843 | 44° | 44km/h | 661m | -2.1m/s | 13.2°C | 96.8% | 935.2hPa | 2.8V | 06:38:44 | 03:50:38 | 00:00:00 | |
| DM0DOS-11 | 2026-08-31 03:16:07 | 53.41148 | 7.07817 | 44° | 44km/h | 665m | -2m/s | 13.2°C | 96.8% | 934.7hPa | 2.8V | 06:38:46 | 03:50:36 | 00:00:00 | |
| GOEST3-10 | 2026-08-31 03:16:06 | 53.41179 | 7.07869 | 46° | 42km/h | 657m | -1.9m/s | 13.2°C | 97.1% | 935.4hPa | 2.7V | 00:00:00 | 03:50:40 | 00:00:00 | |
| GOEST3-10 | 2026-08-31 03:16:05 | 53.41171 | 7.07856 | 45° | 42km/h | 659m | -1.9m/s | 13.2°C | 96.9% | 935.3hPa | 2.7V | 00:00:00 | 00:00:00 | 00:00:00 | |
| DF5WG-10 | 2026-08-31 03:16:05 | 53.41171 | 7.07856 | 45° | 42km/h | 659m | -1.9m/s | 13.2°C | 96.9% | 935.3hPa | 2.7V | 00:00:00 | 03:50:39 | 00:00:00 | |
| GOEST3-10 | 2026-08-31 03:16:04 | 53.41164 | 7.07843 | 45° | 44km/h | 661m | -2.0m/s | 13.2°C | 96.8% | 935.1hPa | 2.7V | 00:00:00 | 03:50:38 | 00:00:00 | |
| GOEST3-10 | 2026-08-31 03:16:03 | 53.41156 | 7.07830 | 45° | 44km/h | 663m | -1.9m/s | 13.2°C | 96.8% | 934.7hPa | 2.8V | 00:00:00 | 00:00:00 | 00:00:00 | |
| DM0DOS-11 | 2026-08-31 03:16:01 | 53.41132 | 7.07791 | 45° | 44km/h | 669m | -1.9m/s | 13.2°C | 96.9% | 934.3hPa | 2.8V | 06:38:48 | 03:50:34 | 00:00:00 | |
| DM0DOS-11 | 2026-08-31 03:16:01 | 53.41116 | 7.07764 | 46° | 44km/h | 673m | -2m/s | 13.2°C | 96.9% | 933.7hPa | 2.8V | 06:38:50 | 03:50:32 | 00:00:00 | |
| DM0DOS-11 | 2026-08-31 03:16:01 | 53.41101 | 7.07736 | 46° | 44km/h | 677m | -2m/s | 13.2°C | 97.1% | 933.3hPa | 2.8V | 06:38:52 | 03:50:30 | 00:00:00 | |
| HTAHTA | 2026-08-31 03:15:56 | 53.41086 | 7.07710 | 47° | 42km/h | 681m | -2.0m/s | 13.1°C | 96.0% | 932.9hPa | 2.8V | 00:00:00 | 00:00:00 | 00:00:00 | |
| DM0DOS-11 | 2026-08-31 03:15:55 | 53.41087 | 7.07710 | 47° | 42km/h | 681m | -2m/s | 13.1°C | 96.9% | 932.9hPa | 2.8V | 06:38:54 | 03:50:28 | 00:00:00 | |
| DM0DOS-11 | 2026-08-31 03:15:55 | 53.41072 | 7.07684 | 47° | 42km/h | 685m | -2m/s | 13.1°C | 97.1% | 932.5hPa | 2.8V | 06:38:56 | 03:50:26 | 00:00:00 | |
| DM0DOS-11 | 2026-08-31 03:15:55 | 53.41057 | 7.07657 | 46° | 42km/h | 689m | -2.1m/s | 13.1°C | 97.1% | 932.2hPa | 2.8V | 06:38:58 | 03:50:24 | 00:00:00 | |
| GOEST3-10 | 2026-08-31 03:15:55 | 53.41094 | 7.07723 | 47° | 42km/h | 679m | -1.9m/s | 13.1°C | 97.1% | 933.0hPa | 2.7V | 00:00:00 | 00:00:00 | 00:00:00 | |
| DF5WG-10 | 2026-08-31 03:15:55 | 53.41094 | 7.07723 | 47° | 42km/h | 679m | -1.9m/s | 13.1°C | 97.1% | 933.0hPa | 2.7V | 00:00:00 | 03:50:29 | 00:00:00 | |
| DF5WG-10 | 2026-08-31 03:15:54 | 53.41086 | 7.07710 | 48° | 42km/h | 681m | -2.0m/s | 13.1°C | 96.9% | 932.8hPa | 2.7V | 00:00:00 | 03:50:28 | 00:00:00 | |
| GOEST3-10 | 2026-08-31 03:15:54 | 53.41086 | 7.07710 | 48° | 42km/h | 681m | -2.0m/s | 13.1°C | 96.9% | 932.8hPa | 2.7V | 06:38:00 | 03:50:28 | 00:00:00 | |
| GOEST3-10 | 2026-08-31 03:15:53 | 53.41079 | 7.07697 | 48° | 42km/h | 683m | -2.0m/s | 13.1°C | 97.0% | 932.7hPa | 2.7V | 00:00:00 | 00:00:00 | 00:00:00 | |
| DF5WG-10 | 2026-08-31 03:15:53 | 53.41079 | 7.07697 | 48° | 42km/h | 683m | -2.0m/s | 13.1°C | 97.0% | 932.7hPa | 2.7V | 00:00:00 | 03:50:27 | 00:00:00 | |
| GOEST3-10 | 2026-08-31 03:15:52 | 53.41072 | 7.07684 | 48° | 42km/h | 685m | -1.9m/s | 13.0°C | 97.1% | 932.5hPa | 2.7V | 00:00:00 | 03:50:26 | 00:00:00 | |
| DF5WG-10 | 2026-08-31 03:15:52 | 53.41072 | 7.07684 | 48° | 42km/h | 685m | -1.9m/s | 13.0°C | 97.1% | 932.5hPa | 2.7V | 00:00:00 | 03:50:26 | 00:00:00 | |
| GOEST3-10 | 2026-08-31 03:15:51 | 53.41064 | 7.07671 | 47° | 42km/h | 687m | -2.0m/s | 13.0°C | 97.1% | 932.3hPa | 2.8V | 00:00:00 | 00:00:00 | 00:00:00 | |
| DM0DOS-11 | 2026-08-31 03:15:49 | 53.41043 | 7.07631 | 47° | 42km/h | 693m | -2.1m/s | 13°C | 97.2% | 931.6hPa | 2.8V | 06:39:00 | 03:50:22 | 00:00:00 | |
| DM0DOS-11 | 2026-08-31 03:15:49 | 53.41028 | 7.07605 | 46° | 42km/h | 696m | -1.9m/s | 13°C | 97.3% | 931.3hPa | 2.8V | 06:39:02 | 03:50:20 | 00:00:00 | |
| DM0DOS-11 | 2026-08-31 03:15:49 | 53.41013 | 7.07579 | 45° | 44km/h | 700m | -1.9m/s | 13°C | 97.3% | 930.8hPa | 2.8V | 06:39:04 | 03:50:18 | 00:00:00 | |
| GOEST3-10 | 2026-08-31 03:15:49 | 53.41050 | 7.07644 | 47° | 42km/h | 691m | -1.9m/s | 13.0°C | 97.2% | 931.6hPa | 2.7V | 00:00:00 | 00:00:00 | 00:00:00 | |
| GOEST3-10 | 2026-08-31 03:15:48 | 53.41043 | 7.07631 | 48° | 42km/h | 693m | -2.0m/s | 13.0°C | 97.2% | 931.6hPa | 2.7V | 00:00:00 | 03:50:22 | 00:00:00 | |
| DF5WG-10 | 2026-08-31 03:15:48 | 53.41043 | 7.07631 | 48° | 42km/h | 693m | -2.0m/s | 13.0°C | 97.2% | 931.6hPa | 2.7V | 00:00:00 | 03:50:22 | 00:00:00 | |
| GOEST3-10 | 2026-08-31 03:15:47 | 53.41036 | 7.07618 | 47° | 42km/h | 695m | -1.9m/s | 13.0°C | 97.2% | 931.3hPa | 2.7V | 06:39:00 | 00:00:00 | 00:00:00 | |
| DF5WG-10 | 2026-08-31 03:15:46 | 53.41028 | 7.07605 | 47° | 42km/h | 696m | -1.9m/s | 13.0°C | 97.3% | 931.2hPa | 2.7V | 06:39:00 | 03:50:20 | 00:00:00 | |
| GOEST3-10 | 2026-08-31 03:15:46 | 53.41028 | 7.07605 | 47° | 42km/h | 696m | -1.9m/s | 13.0°C | 97.3% | 931.2hPa | 2.7V | 00:00:00 | 03:50:20 | 00:00:00 | |
| GOEST3-10 | 2026-08-31 03:15:45 | 53.41021 | 7.07592 | 47° | 42km/h | 698m | -1.9m/s | 13.0°C | 97.3% | 930.9hPa | 2.8V | 00:00:00 | 00:00:00 | 00:00:00 | |
| DF5WG-10 | 2026-08-31 03:15:45 | 53.41021 | 7.07592 | 47° | 42km/h | 698m | -1.9m/s | 13.0°C | 97.3% | 930.9hPa | 2.8V | 00:00:00 | 03:50:19 | 00:00:00 | |
| DM0DOS-11 | 2026-08-31 03:15:43 | 53.40998 | 7.07552 | 46° | 44km/h | 704m | -1.8m/s | 13°C | 97.3% | 930.3hPa | 2.8V | 06:39:06 | 03:50:16 | 00:00:00 | |
| DM0DOS-11 | 2026-08-31 03:15:43 | 53.40982 | 7.07525 | 46° | 44km/h | 707m | -1.9m/s | 12.9°C | 97.6% | 929.9hPa | 2.8V | 06:39:08 | 03:50:14 | 00:00:00 | |
| DM0DOS-11 | 2026-08-31 03:15:43 | 53.40967 | 7.07498 | 45° | 44km/h | 711m | -1.9m/s | 12.9°C | 97.6% | 929.5hPa | 2.8V | 06:39:10 | 03:50:12 | 00:00:00 | |
| DF5WG-10 | 2026-08-31 03:15:43 | 53.41006 | 7.07566 | 47° | 44km/h | 702m | -1.9m/s | 12.9°C | 97.4% | 930.5hPa | 2.7V | 00:00:00 | 03:50:17 | 00:00:00 | |
| GOEST3-10 | 2026-08-31 03:15:43 | 53.41006 | 7.07566 | 47° | 44km/h | 702m | -1.9m/s | 12.9°C | 97.4% | 930.5hPa | 2.7V | 00:00:00 | 00:00:00 | 00:00:00 | |
| GOEST3-10 | 2026-08-31 03:15:42 | 53.40998 | 7.07552 | 47° | 44km/h | 704m | -1.8m/s | 12.9°C | 97.3% | 930.2hPa | 2.7V | 00:00:00 | 03:50:16 | 00:00:00 | |
| DF5WG-10 | 2026-08-31 03:15:42 | 53.40998 | 7.07552 | 47° | 44km/h | 704m | -1.8m/s | 12.9°C | 97.3% | 930.2hPa | 2.7V | 00:00:00 | 03:50:16 | 00:00:00 | |
| GOEST3-10 | 2026-08-31 03:15:41 | 53.40990 | 7.07538 | 47° | 44km/h | 706m | -1.9m/s | 12.9°C | 97.5% | 930.2hPa | 2.7V | 00:00:00 | 00:00:00 | 00:00:00 | |
| DF5WG-10 | 2026-08-31 03:15:41 | 53.40990 | 7.07538 | 47° | 44km/h | 706m | -1.9m/s | 12.9°C | 97.5% | 930.2hPa | 2.7V | 00:00:00 | 03:50:15 | 00:00:00 | |
| GOEST3-10 | 2026-08-31 03:15:40 | 53.40982 | 7.07525 | 47° | 44km/h | 707m | -1.9m/s | 12.9°C | 97.6% | 929.9hPa | 2.7V | 06:39:00 | 03:50:14 | 00:00:00 | |
| DF5WG-10 | 2026-08-31 03:15:40 | 53.40982 | 7.07525 | 47° | 44km/h | 707m | -1.9m/s | 12.9°C | 97.6% | 929.9hPa | 2.7V | 00:00:00 | 03:50:14 | 00:00:00 | |
| GOEST3-10 | 2026-08-31 03:15:39 | 53.40975 | 7.07511 | 47° | 44km/h | 709m | -1.9m/s | 12.9°C | 97.5% | 929.7hPa | 2.8V | 00:00:00 | 00:00:00 | 00:00:00 | |
| DF5WG-10 | 2026-08-31 03:15:39 | 53.40975 | 7.07511 | 47° | 44km/h | 709m | -1.9m/s | 12.9°C | 97.5% | 929.7hPa | 2.8V | 06:39:00 | 03:50:13 | 00:00:00 | |
| DM0DOS-11 | 2026-08-31 03:15:37 | 53.40952 | 7.07471 | 46° | 44km/h | 715m | -1.9m/s | 12.9°C | 97.8% | 929hPa | 2.8V | 06:39:12 | 03:50:10 | 00:00:00 | |
| DM0DOS-11 | 2026-08-31 03:15:37 | 53.40937 | 7.07444 | 47° | 42km/h | 718m | -1.9m/s | 12.9°C | 97.8% | 928.7hPa | 2.8V | 06:39:14 | 03:50:08 | 00:00:00 | |
| DM0DOS-11 | 2026-08-31 03:15:37 | 53.40922 | 7.07417 | 47° | 42km/h | 722m | -1.8m/s | 12.9°C | 98% | 928.3hPa | 2.8V | 06:39:16 | 03:50:06 | 00:00:00 | |
| GOEST3-10 | 2026-08-31 03:15:37 | 53.40959 | 7.07484 | 47° | 44km/h | 713m | -1.8m/s | 12.9°C | 97.7% | 929.2hPa | 2.7V | 00:00:00 | 00:00:00 | 00:00:00 | |
| DF5WG-10 | 2026-08-31 03:15:37 | 53.40959 | 7.07484 | 47° | 44km/h | 713m | -1.8m/s | 12.9°C | 97.7% | 929.2hPa | 2.7V | 00:00:00 | 03:50:11 | 00:00:00 | |
| GOEST3-10 | 2026-08-31 03:15:36 | 53.40951 | 7.07471 | 47° | 44km/h | 715m | -1.9m/s | 12.9°C | 97.8% | 929.0hPa | 2.7V | 00:00:00 | 03:50:10 | 00:00:00 | |
| DF5WG-10 | 2026-08-31 03:15:36 | 53.40951 | 7.07471 | 47° | 44km/h | 715m | -1.9m/s | 12.9°C | 97.8% | 929.0hPa | 2.7V | 00:00:00 | 03:50:10 | 00:00:00 | |
| GOEST3-10 | 2026-08-31 03:15:35 | 53.40944 | 7.07458 | 47° | 44km/h | 717m | -1.9m/s | 12.9°C | 97.7% | 928.8hPa | 2.7V | 00:00:00 | 00:00:00 | 00:00:00 | |
| DF5WG-10 | 2026-08-31 03:15:35 | 53.40944 | 7.07458 | 47° | 44km/h | 717m | -1.9m/s | 12.9°C | 97.7% | 928.8hPa | 2.7V | 00:00:00 | 03:50:09 | 00:00:00 | |
| GOEST3-10 | 2026-08-31 03:15:34 | 53.40936 | 7.07444 | 48° | 44km/h | 719m | -1.8m/s | 12.8°C | 97.8% | 928.7hPa | 2.7V | 00:00:00 | 03:50:08 | 00:00:00 | |
| DF5WG-10 | 2026-08-31 03:15:34 | 53.40936 | 7.07444 | 48° | 44km/h | 719m | -1.8m/s | 12.8°C | 97.8% | 928.7hPa | 2.7V | 00:00:00 | 03:50:08 | 00:00:00 | |
| DJ2DS-15 | 2026-08-31 03:15:33 | 53.40929 | 7.07431 | 47° | 42km/h | 720m | -1.8m/s | 12.9°C | 96.9% | 928.5hPa | 2.8V | 00:00:00 | 00:00:00 | 00:00:00 | |
| GOEST3-10 | 2026-08-31 03:15:33 | 53.40929 | 7.07431 | 48° | 44km/h | 720m | -1.8m/s | 12.8°C | 97.9% | 928.5hPa | 2.8V | 06:39:00 | 00:00:00 | 00:00:00 | |
| DF5WG-10 | 2026-08-31 03:15:33 | 53.40929 | 7.07431 | 48° | 44km/h | 720m | -1.8m/s | 12.8°C | 97.9% | 928.5hPa | 2.8V | 00:00:00 | 03:50:07 | 00:00:00 | |
| DM0DOS-11 | 2026-08-31 03:15:31 | 53.40907 | 7.07391 | 48° | 42km/h | 726m | -2m/s | 12.8°C | 98% | 927.8hPa | 2.8V | 06:39:18 | 03:50:04 | 00:00:00 | |
| DM0DOS-11 | 2026-08-31 03:15:31 | 53.40893 | 7.07364 | 48° | 42km/h | 729m | -1.9m/s | 12.8°C | 97.9% | 927.5hPa | 2.8V | 06:39:20 | 03:50:02 | 00:00:00 | |
| DM0DOS-11 | 2026-08-31 03:15:31 | 53.40879 | 7.07338 | 47° | 42km/h | 734m | -1.9m/s | 12.8°C | 98.1% | 927hPa | 2.8V | 06:39:22 | 03:50:00 | 00:00:00 | |
| GOEST3-10 | 2026-08-31 03:15:31 | 53.40914 | 7.07404 | 48° | 42km/h | 724m | -1.9m/s | 12.8°C | 97.9% | 928.1hPa | 2.7V | 00:00:00 | 00:00:00 | 00:00:00 | |
| DF5WG-10 | 2026-08-31 03:15:30 | 53.40907 | 7.07390 | 49° | 42km/h | 726m | -1.9m/s | 12.8°C | 98.0% | 927.8hPa | 2.7V | 06:39:00 | 03:50:04 | 00:00:00 | |
| GOEST3-10 | 2026-08-31 03:15:30 | 53.40907 | 7.07390 | 49° | 42km/h | 726m | -1.9m/s | 12.8°C | 98.0% | 927.8hPa | 2.7V | 00:00:00 | 03:50:04 | 00:00:00 | |
| GOEST3-10 | 2026-08-31 03:15:29 | 53.40900 | 7.07377 | 49° | 42km/h | 728m | -1.9m/s | 12.8°C | 98.1% | 927.6hPa | 2.7V | 00:00:00 | 00:00:00 | 00:00:00 | |
| GOEST3-10 | 2026-08-31 03:15:28 | 53.40893 | 7.07364 | 49° | 42km/h | 729m | -1.9m/s | 12.8°C | 97.9% | 927.5hPa | 2.7V | 00:00:00 | 03:50:02 | 00:00:00 | |
| DF5WG-10 | 2026-08-31 03:15:28 | 53.40893 | 7.07364 | 49° | 42km/h | 729m | -1.9m/s | 12.8°C | 97.9% | 927.5hPa | 2.7V | 00:00:00 | 03:50:02 | 00:00:00 | |
| GOEST3-10 | 2026-08-31 03:15:27 | 53.40886 | 7.07351 | 49° | 42km/h | 732m | -2.2m/s | 12.8°C | 98.1% | 927.2hPa | 2.8V | 00:00:00 | 00:00:00 | 00:00:00 | |
| DM0DOS-11 | 2026-08-31 03:15:25 | 53.40864 | 7.07311 | 46° | 44km/h | 738m | -1.9m/s | 12.8°C | 98.1% | 926.6hPa | 2.8V | 06:39:24 | 03:49:58 | 00:00:00 | |
| DM0DOS-11 | 2026-08-31 03:15:25 | 53.40849 | 7.07285 | 46° | 44km/h | 741m | -2m/s | 12.7°C | 98% | 926.1hPa | 2.8V | 06:39:26 | 03:49:56 | 00:00:00 | |
| DM0DOS-11 | 2026-08-31 03:15:25 | 53.40834 | 7.07258 | 46° | 44km/h | 746m | -1.9m/s | 12.7°C | 98.1% | 925.7hPa | 2.8V | 06:39:28 | 03:49:54 | 00:00:00 | |
| GOEST3-10 | 2026-08-31 03:15:25 | 53.40871 | 7.07324 | 48° | 42km/h | 735m | -2.0m/s | 12.7°C | 98.1% | 926.7hPa | 2.7V | 00:00:00 | 00:00:00 | 00:00:00 | |
| DF5WG-10 | 2026-08-31 03:15:25 | 53.40871 | 7.07324 | 48° | 42km/h | 735m | -2.0m/s | 12.7°C | 98.1% | 926.7hPa | 2.7V | 00:00:00 | 03:49:59 | 00:00:00 | |
| HTAHTA | 2026-08-31 03:15:25 | 53.40864 | 7.07311 | 46° | 42km/h | 737m | -1.9m/s | 12.8°C | 97.1% | 926.6hPa | 2.7V | 00:00:00 | 00:00:00 | 00:00:00 | |
| GOEST3-10 | 2026-08-31 03:15:24 | 53.40864 | 7.07311 | 47° | 44km/h | 738m | -1.9m/s | 12.7°C | 98.1% | 926.6hPa | 2.7V | 00:00:00 | 03:49:58 | 00:00:00 | |
| DF5WG-10 | 2026-08-31 03:15:24 | 53.40864 | 7.07311 | 47° | 44km/h | 738m | -1.9m/s | 12.7°C | 98.1% | 926.6hPa | 2.7V | 00:00:00 | 03:49:58 | 00:00:00 | |
| GOEST3-10 | 2026-08-31 03:15:23 | 53.40856 | 7.07298 | 47° | 44km/h | 739m | -2.0m/s | 12.7°C | 98.1% | 926.2hPa | 2.7V | 00:00:00 | 00:00:00 | 00:00:00 | |
| DF5WG-10 | 2026-08-31 03:15:23 | 53.40856 | 7.07298 | 47° | 44km/h | 739m | -2.0m/s | 12.7°C | 98.1% | 926.2hPa | 2.7V | 00:00:00 | 03:49:57 | 00:00:00 | |
| GOEST3-10 | 2026-08-31 03:15:22 | 53.40849 | 7.07284 | 47° | 44km/h | 742m | -2.0m/s | 12.7°C | 98.0% | 926.0hPa | 2.7V | 00:00:00 | 03:49:56 | 00:00:00 | |
| DM0DOS-11 | 2026-08-31 03:15:19 | 53.40819 | 7.07231 | 48° | 44km/h | 750m | -2.1m/s | 12.7°C | 98.3% | 925.2hPa | 2.8V | 06:39:30 | 03:49:52 | 00:00:00 | |
| DM0DOS-11 | 2026-08-31 03:15:19 | 53.40805 | 7.07203 | 49° | 44km/h | 754m | -2m/s | 12.7°C | 98.1% | 924.7hPa | 2.8V | 06:39:32 | 03:49:50 | 00:00:00 | |
| DM0DOS-11 | 2026-08-31 03:15:19 | 53.40791 | 7.07175 | 50° | 42km/h | 758m | -2.1m/s | 12.6°C | 98.1% | 924.3hPa | 2.8V | 06:39:34 | 03:49:48 | 00:00:00 | |
| GOEST3-10 | 2026-08-31 03:15:19 | 53.40826 | 7.07244 | 48° | 44km/h | 748m | -2.1m/s | 12.6°C | 98.2% | 925.3hPa | 2.7V | 06:39:00 | 00:00:00 | 00:00:00 | |
| DO9FK | 2026-08-31 03:15:18 | 53.40826 | 7.07244 | 48° | 44km/h | 748m | -2.2m/s | 12.7°C | 97.2% | 925.4hPa | 2.7V | 06:39:00 | 00:00:00 | 00:00:00 | |
| GOEST3-10 | 2026-08-31 03:15:18 | 53.40819 | 7.07231 | 49° | 44km/h | 750m | -2.0m/s | 12.6°C | 98.3% | 925.1hPa | 2.7V | 00:00:00 | 03:49:52 | 00:00:00 | |
| GOEST3-10 | 2026-08-31 03:15:17 | 53.40812 | 7.07217 | 50° | 44km/h | 752m | -2.0m/s | 12.6°C | 98.1% | 925.0hPa | 2.7V | 00:00:00 | 00:00:00 | 00:00:00 | |
| GOEST3-10 | 2026-08-31 03:15:16 | 53.40805 | 7.07203 | 50° | 44km/h | 754m | -1.9m/s | 12.6°C | 98.1% | 924.7hPa | 2.7V | 00:00:00 | 03:49:50 | 00:00:00 | |
| GOEST3-10 | 2026-08-31 03:15:15 | 53.40798 | 7.07189 | 51° | 44km/h | 756m | -2.0m/s | 12.6°C | 98.2% | 924.5hPa | 2.8V | 00:00:00 | 00:00:00 | 00:00:00 | |
| DF5WG-10 | 2026-08-31 03:15:15 | 53.40798 | 7.07189 | 51° | 44km/h | 756m | -2.0m/s | 12.6°C | 98.2% | 924.5hPa | 2.8V | 00:00:00 | 03:49:49 | 00:00:00 | |
| DM0DOS-11 | 2026-08-31 03:15:13 | 53.40777 | 7.07147 | 51° | 44km/h | 762m | -2.1m/s | 12.6°C | 97.8% | 923.9hPa | 2.8V | 06:39:36 | 03:49:46 | 00:00:00 | |
| DM0DOS-11 | 2026-08-31 03:15:13 | 53.40764 | 7.07118 | 52° | 42km/h | 766m | -2.2m/s | 12.6°C | 98% | 923.4hPa | 2.8V | 06:39:38 | 03:49:44 | 00:00:00 | |
| DM0DOS-11 | 2026-08-31 03:15:13 | 53.40751 | 7.07088 | 53° | 46km/h | 770m | -2m/s | 12.6°C | 97.9% | 922.8hPa | 2.8V | 06:39:40 | 03:49:42 | 00:00:00 | |
| GOEST3-10 | 2026-08-31 03:15:13 | 53.40784 | 7.07161 | 53° | 42km/h | 760m | -2.0m/s | 12.6°C | 97.9% | 924.1hPa | 2.7V | 00:00:00 | 00:00:00 | 00:00:00 | |
| DF5WG-10 | 2026-08-31 03:15:13 | 53.40784 | 7.07161 | 53° | 42km/h | 760m | -2.0m/s | 12.6°C | 97.9% | 924.1hPa | 2.7V | 06:39:00 | 03:49:47 | 00:00:00 | |
| GOEST3-10 | 2026-08-31 03:15:12 | 53.40777 | 7.07147 | 52° | 44km/h | 762m | -2.1m/s | 12.6°C | 97.8% | 923.9hPa | 2.7V | 06:39:00 | 03:49:46 | 00:00:00 | |
| DF5WG-10 | 2026-08-31 03:15:12 | 53.40777 | 7.07147 | 52° | 44km/h | 762m | -2.1m/s | 12.6°C | 97.8% | 923.9hPa | 2.7V | 00:00:00 | 03:49:46 | 00:00:00 | |
| GOEST3-10 | 2026-08-31 03:15:11 | 53.40771 | 7.07132 | 52° | 42km/h | 764m | -1.9m/s | 12.6°C | 98.0% | 923.6hPa | 2.7V | 00:00:00 | 00:00:00 | 00:00:00 | |
| DF5WG-10 | 2026-08-31 03:15:11 | 53.40771 | 7.07132 | 52° | 42km/h | 764m | -1.9m/s | 12.6°C | 98.0% | 923.6hPa | 2.7V | 00:00:00 | 03:49:45 | 00:00:00 | |
| GOEST3-10 | 2026-08-31 03:15:10 | 53.40764 | 7.07118 | 53° | 42km/h | 766m | -2.1m/s | 12.5°C | 98.0% | 923.3hPa | 2.7V | 00:00:00 | 03:49:44 | 00:00:00 | |
| DF5WG-10 | 2026-08-31 03:15:10 | 53.40764 | 7.07118 | 53° | 42km/h | 766m | -2.1m/s | 12.5°C | 98.0% | 923.3hPa | 2.7V | 00:00:00 | 03:49:44 | 00:00:00 | |
| GOEST3-10 | 2026-08-31 03:15:09 | 53.40757 | 7.07103 | 53° | 44km/h | 768m | -2.3m/s | 12.5°C | 98.0% | 923.2hPa | 2.8V | 00:00:00 | 00:00:00 | 00:00:00 | |
| DF5WG-10 | 2026-08-31 03:15:09 | 53.40757 | 7.07103 | 53° | 44km/h | 768m | -2.3m/s | 12.5°C | 98.0% | 923.2hPa | 2.8V | 00:00:00 | 03:49:43 | 00:00:00 | |
| DM0DOS-11 | 2026-08-31 03:15:07 | 53.40737 | 7.07058 | 53° | 46km/h | 774m | -2.4m/s | 12.6°C | 98.1% | 922.5hPa | 2.8V | 06:39:42 | 03:49:40 | 00:00:00 | |
| DM0DOS-11 | 2026-08-31 03:15:07 | 53.40723 | 7.07027 | 53° | 46km/h | 778m | -2.1m/s | 12.5°C | 98.4% | 922hPa | 2.8V | 06:39:44 | 03:49:38 | 00:00:00 | |
| DM0DOS-11 | 2026-08-31 03:15:07 | 53.40710 | 7.06996 | 53° | 44km/h | 782m | -2.3m/s | 12.5°C | 98.4% | 921.8hPa | 2.8V | 06:39:46 | 03:49:36 | 00:00:00 | |
| GOEST3-10 | 2026-08-31 03:15:07 | 53.40744 | 7.07073 | 55° | 44km/h | 772m | -1.7m/s | 12.5°C | 98.0% | 922.7hPa | 2.7V | 00:00:00 | 00:00:00 | 00:00:00 | |
| DF5WG-10 | 2026-08-31 03:15:07 | 53.40744 | 7.07073 | 55° | 44km/h | 772m | -1.7m/s | 12.5°C | 98.0% | 922.7hPa | 2.7V | 00:00:00 | 03:49:41 | 00:00:00 | |
| GOEST3-10 | 2026-08-31 03:15:06 | 53.40737 | 7.07058 | 54° | 46km/h | 774m | -2.4m/s | 12.5°C | 98.1% | 922.4hPa | 2.7V | 00:00:00 | 03:49:40 | 00:00:00 | |
| DF5WG-10 | 2026-08-31 03:15:06 | 53.40737 | 7.07058 | 54° | 46km/h | 774m | -2.4m/s | 12.5°C | 98.1% | 922.4hPa | 2.7V | 00:00:00 | 03:49:40 | 00:00:00 | |
| GOEST3-10 | 2026-08-31 03:15:05 | 53.40730 | 7.07042 | 53° | 46km/h | 776m | -2.0m/s | 12.5°C | 98.4% | 922.3hPa | 2.7V | 06:39:00 | 00:00:00 | 00:00:00 | |
| GOEST3-10 | 2026-08-31 03:15:04 | 53.40723 | 7.07027 | 54° | 46km/h | 778m | -2.1m/s | 12.5°C | 98.4% | 921.9hPa | 2.7V | 00:00:00 | 03:49:38 | 00:00:00 | |
| DF5WG-10 | 2026-08-31 03:15:04 | 53.40723 | 7.07027 | 54° | 46km/h | 778m | -2.1m/s | 12.5°C | 98.4% | 921.9hPa | 2.8V | 06:39:00 | 03:49:38 | 00:00:00 | |
| GOEST3-10 | 2026-08-31 03:15:03 | 53.40717 | 7.07011 | 55° | 46km/h | 780m | -1.7m/s | 12.5°C | 98.3% | 921.8hPa | 2.8V | 00:00:00 | 00:00:00 | 00:00:00 | |
| DF5WG-10 | 2026-08-31 03:15:03 | 53.40717 | 7.07011 | 55° | 46km/h | 780m | -1.7m/s | 12.5°C | 98.3% | 921.8hPa | 2.8V | 00:00:00 | 03:49:37 | 00:00:00 | |
| DM0DOS-11 | 2026-08-31 03:15:01 | 53.40696 | 7.06965 | 53° | 46km/h | 786m | -2m/s | 12.5°C | 98.4% | 921.2hPa | 2.8V | 06:39:48 | 03:49:34 | 00:00:00 | |
| DM0DOS-11 | 2026-08-31 03:15:01 | 53.40683 | 7.06935 | 52° | 44km/h | 791m | -2.1m/s | 12.4°C | 98.6% | 920.7hPa | 2.7V | 06:39:50 | 03:49:32 | 00:00:00 | |
| DM0DOS-11 | 2026-08-31 03:15:01 | 53.40669 | 7.06904 | 53° | 44km/h | 795m | -1.7m/s | 12.4°C | 98.6% | 920.3hPa | 2.8V | 06:39:52 | 03:49:30 | 00:00:00 | |
| DJ2DS-15 | 2026-08-31 03:14:57 | 53.40676 | 7.06920 | 53° | 44km/h | 793m | -2.0m/s | 12.4°C | 97.7% | 920.4hPa | 2.7V | 00:00:00 | 00:00:00 | 00:00:00 | |
| GOEST3-10 | 2026-08-31 03:14:57 | 53.40676 | 7.06920 | 54° | 46km/h | 793m | -1.9m/s | 12.4°C | 98.7% | 920.3hPa | 2.7V | 00:00:00 | 00:00:00 | 00:00:00 | |
| DF5WG-10 | 2026-08-31 03:14:57 | 53.40676 | 7.06920 | 54° | 46km/h | 793m | -1.9m/s | 12.4°C | 98.7% | 920.3hPa | 2.7V | 00:00:00 | 03:49:31 | 00:00:00 | |
| DM0DOS-11 | 2026-08-31 03:14:55 | 53.40656 | 7.06874 | 52° | 46km/h | 799m | -2.2m/s | 12.4°C | 98.9% | 919.8hPa | 2.8V | 06:39:54 | 03:49:28 | 00:00:00 | |
| DM0DOS-11 | 2026-08-31 03:14:55 | 53.40642 | 7.06844 | 52° | 44km/h | 803m | -2m/s | 12.3°C | 99.1% | 919.3hPa | 2.8V | 06:39:56 | 03:49:26 | 00:00:00 | |
| DM0DOS-11 | 2026-08-31 03:14:55 | 53.40628 | 7.06814 | 53° | 44km/h | 807m | -2.2m/s | 12.3°C | 99% | 918.8hPa | 2.8V | 06:39:58 | 03:49:24 | 00:00:00 | |
| HTAHTA | 2026-08-31 03:14:53 | 53.40649 | 7.06859 | 53° | 44km/h | 801m | -1.9m/s | 12.4°C | 97.8% | 919.6hPa | 2.7V | 00:00:00 | 00:00:00 | 00:00:00 | |
| GOEST3-10 | 2026-08-31 03:14:53 | 53.40649 | 7.06859 | 54° | 44km/h | 801m | -1.9m/s | 12.3°C | 98.8% | 919.6hPa | 2.7V | 00:00:00 | 00:00:00 | 00:00:00 | |
| DF5WG-10 | 2026-08-31 03:14:53 | 53.40649 | 7.06859 | 54° | 44km/h | 801m | -1.9m/s | 12.3°C | 98.8% | 919.6hPa | 2.7V | 00:00:00 | 03:49:27 | 00:00:00 | |
| GOEST3-10 | 2026-08-31 03:14:52 | 53.40642 | 7.06844 | 53° | 44km/h | 803m | -1.9m/s | 12.3°C | 99.1% | 919.2hPa | 2.7V | 00:00:00 | 03:49:26 | 00:00:00 | |
| DF5WG-10 | 2026-08-31 03:14:52 | 53.40642 | 7.06844 | 53° | 44km/h | 803m | -1.9m/s | 12.3°C | 99.1% | 919.2hPa | 2.7V | 00:00:00 | 03:49:26 | 00:00:00 | |
| GOEST3-10 | 2026-08-31 03:14:51 | 53.40635 | 7.06829 | 53° | 46km/h | 805m | -2.0m/s | 12.3°C | 99.0% | 919.2hPa | 2.7V | 06:39:00 | 00:00:00 | 00:00:00 | |
| DF5WG-10 | 2026-08-31 03:14:51 | 53.40635 | 7.06829 | 53° | 46km/h | 805m | -2.0m/s | 12.3°C | 99.0% | 919.2hPa | 2.7V | 00:00:00 | 03:49:25 | 00:00:00 | |
| DM0DOS-11 | 2026-08-31 03:14:49 | 53.40615 | 7.06784 | 53° | 44km/h | 811m | -2.1m/s | 12.3°C | 99.2% | 918.4hPa | 2.8V | 06:40:00 | 03:49:22 | 00:00:00 | |
| DM0DOS-11 | 2026-08-31 03:14:49 | 53.40601 | 7.06754 | 53° | 44km/h | 815m | -2m/s | 12.3°C | 99% | 918hPa | 2.8V | 06:40:02 | 03:49:20 | 00:00:00 | |
| DM0DOS-11 | 2026-08-31 03:14:49 | 53.40588 | 7.06723 | 53° | 44km/h | 819m | -2.1m/s | 12.2°C | 99% | 917.6hPa | 2.8V | 06:40:04 | 03:49:18 | 00:00:00 | |
| GOEST3-10 | 2026-08-31 03:14:49 | 53.40622 | 7.06799 | 53° | 44km/h | 809m | -2.1m/s | 12.3°C | 99.2% | 918.7hPa | 2.7V | 00:00:00 | 00:00:00 | 00:00:00 | |
| DF5WG-10 | 2026-08-31 03:14:49 | 53.40622 | 7.06799 | 53° | 44km/h | 809m | -2.1m/s | 12.3°C | 99.2% | 918.7hPa | 2.7V | 00:00:00 | 03:49:23 | 00:00:00 | |
| GOEST3-10 | 2026-08-31 03:14:48 | 53.40615 | 7.06784 | 54° | 44km/h | 811m | -2.1m/s | 12.3°C | 99.2% | 918.4hPa | 2.7V | 00:00:00 | 03:49:22 | 00:00:00 | |
| DF5WG-10 | 2026-08-31 03:14:48 | 53.40615 | 7.06784 | 54° | 44km/h | 811m | -2.1m/s | 12.3°C | 99.2% | 918.4hPa | 2.7V | 06:40:00 | 03:49:22 | 00:00:00 | |
| GOEST3-10 | 2026-08-31 03:14:47 | 53.40608 | 7.06769 | 54° | 44km/h | 813m | -2.1m/s | 12.2°C | 99.3% | 918.3hPa | 2.7V | 00:00:00 | 00:00:00 | 00:00:00 | |
| DF5WG-10 | 2026-08-31 03:14:47 | 53.40608 | 7.06769 | 54° | 44km/h | 813m | -2.1m/s | 12.2°C | 99.3% | 918.3hPa | 2.7V | 00:00:00 | 03:49:21 | 00:00:00 | |
| GOEST3-10 | 2026-08-31 03:14:46 | 53.40601 | 7.06753 | 54° | 44km/h | 815m | -2.0m/s | 12.2°C | 99.0% | 918.0hPa | 2.7V | 00:00:00 | 03:49:20 | 00:00:00 | |
| DF5WG-10 | 2026-08-31 03:14:46 | 53.40601 | 7.06753 | 54° | 44km/h | 815m | -2.0m/s | 12.2°C | 99.0% | 918.0hPa | 2.7V | 00:00:00 | 03:49:20 | 00:00:00 | |
| DF5WG-10 | 2026-08-31 03:14:45 | 53.40595 | 7.06738 | 54° | 44km/h | 817m | -2.1m/s | 12.2°C | 98.9% | 917.8hPa | 2.7V | 00:00:00 | 03:49:19 | 00:00:00 | |
| GOEST3-10 | 2026-08-31 03:14:45 | 53.40595 | 7.06738 | 54° | 44km/h | 817m | -2.1m/s | 12.2°C | 98.9% | 917.8hPa | 2.8V | 00:00:00 | 00:00:00 | 00:00:00 | |
| DM0DOS-11 | 2026-08-31 03:14:43 | 53.40575 | 7.06693 | 54° | 44km/h | 824m | -2.1m/s | 12.2°C | 99.1% | 917hPa | 2.8V | 06:40:06 | 03:49:16 | 00:00:00 | |
| DM0DOS-11 | 2026-08-31 03:14:43 | 53.40562 | 7.06664 | 54° | 44km/h | 828m | -2.3m/s | 12.2°C | 98.8% | 916.6hPa | 2.8V | 06:40:08 | 03:49:14 | 00:00:00 | |
| DM0DOS-11 | 2026-08-31 03:14:43 | 53.40550 | 7.06634 | 53° | 42km/h | 832m | -2.2m/s | 12.1°C | 98.7% | 916.1hPa | 2.8V | 06:40:10 | 03:49:12 | 00:00:00 | |
| DF5WG-10 | 2026-08-31 03:14:43 | 53.40582 | 7.06708 | 55° | 44km/h | 821m | -2.1m/s | 12.2°C | 98.7% | 917.3hPa | 2.7V | 00:00:00 | 03:49:17 | 00:00:00 | |
| GOEST3-10 | 2026-08-31 03:14:42 | 53.40575 | 7.06693 | 55° | 44km/h | 824m | -2.1m/s | 12.2°C | 99.1% | 917.0hPa | 2.7V | 00:00:00 | 03:49:16 | 00:00:00 | |
| DF5WG-10 | 2026-08-31 03:14:42 | 53.40575 | 7.06693 | 55° | 44km/h | 824m | -2.1m/s | 12.2°C | 99.1% | 917.0hPa | 2.7V | 00:00:00 | 03:49:16 | 00:00:00 | |
| GOEST3-10 | 2026-08-31 03:14:41 | 53.40569 | 7.06678 | 55° | 42km/h | 826m | -2.0m/s | 12.2°C | 99.1% | 916.8hPa | 2.7V | 00:00:00 | 00:00:00 | 00:00:00 | |
| DF5WG-10 | 2026-08-31 03:14:41 | 53.40569 | 7.06678 | 55° | 42km/h | 826m | -2.0m/s | 12.2°C | 99.1% | 916.8hPa | 2.7V | 06:40:00 | 03:49:15 | 00:00:00 | |
| GOEST3-10 | 2026-08-31 03:14:40 | 53.40562 | 7.06664 | 55° | 44km/h | 828m | -2.2m/s | 12.1°C | 98.8% | 916.5hPa | 2.7V | 00:00:00 | 03:49:14 | 00:00:00 | |
| DF5WG-10 | 2026-08-31 03:14:40 | 53.40562 | 7.06664 | 55° | 44km/h | 828m | -2.2m/s | 12.1°C | 98.8% | 916.5hPa | 2.7V | 00:00:00 | 03:49:14 | 00:00:00 | |
| GOEST3-10 | 2026-08-31 03:14:39 | 53.40556 | 7.06649 | 54° | 42km/h | 830m | -2.1m/s | 12.1°C | 98.4% | 916.4hPa | 2.7V | 00:00:00 | 00:00:00 | 00:00:00 | |
| DF5WG-10 | 2026-08-31 03:14:39 | 53.40556 | 7.06649 | 54° | 42km/h | 830m | -2.1m/s | 12.1°C | 98.4% | 916.4hPa | 2.7V | 00:00:00 | 03:49:13 | 00:00:00 | |
| DM0DOS-11 | 2026-08-31 03:14:37 | 53.40537 | 7.06605 | 52° | 44km/h | 836m | -2m/s | 12.1°C | 98.2% | 915.8hPa | 2.7V | 06:40:12 | 03:49:10 | 00:00:00 | |
| DM0DOS-11 | 2026-08-31 03:14:37 | 53.40524 | 7.06576 | 53° | 44km/h | 841m | -2.2m/s | 12°C | 97.9% | 915.2hPa | 2.8V | 06:40:14 | 03:49:08 | 00:00:00 | |
| DM0DOS-11 | 2026-08-31 03:14:37 | 53.40510 | 7.06546 | 53° | 44km/h | 845m | -2.2m/s | 12°C | 97.9% | 914.8hPa | 2.8V | 06:40:16 | 03:49:06 | 00:00:00 | |
| GOEST3-10 | 2026-08-31 03:14:37 | 53.40543 | 7.06620 | 55° | 42km/h | 834m | -2.2m/s | 12.0°C | 98.4% | 915.8hPa | 2.7V | 06:40:00 | 00:00:00 | 00:00:00 | |
| DO9FK | 2026-08-31 03:14:36 | 53.40543 | 7.06620 | 55° | 42km/h | 834m | -2.3m/s | 12.1°C | 97.4% | 915.9hPa | 2.7V | 06:40:00 | 00:00:00 | 00:00:00 | |
| GOEST3-10 | 2026-08-31 03:14:36 | 53.40537 | 7.06605 | 53° | 44km/h | 836m | -2.0m/s | 12.0°C | 98.2% | 915.7hPa | 2.7V | 00:00:00 | 03:49:10 | 00:00:00 | |
| DF5WG-10 | 2026-08-31 03:14:36 | 53.40537 | 7.06605 | 53° | 44km/h | 836m | -2.0m/s | 12.0°C | 98.2% | 915.7hPa | 2.7V | 00:00:00 | 03:49:10 | 00:00:00 | |
| GOEST3-10 | 2026-08-31 03:14:35 | 53.40530 | 7.06591 | 54° | 44km/h | 839m | -2.2m/s | 12.0°C | 97.7% | 915.3hPa | 2.7V | 00:00:00 | 00:00:00 | 00:00:00 | |
| DF5WG-10 | 2026-08-31 03:14:35 | 53.40530 | 7.06591 | 54° | 44km/h | 839m | -2.2m/s | 12.0°C | 97.7% | 915.3hPa | 2.7V | 00:00:00 | 03:49:09 | 00:00:00 | |
| DF5WG-10 | 2026-08-31 03:14:34 | 53.40524 | 7.06576 | 54° | 44km/h | 841m | -2.2m/s | 12.0°C | 97.9% | 915.2hPa | 2.7V | 00:00:00 | 03:49:08 | 00:00:00 | |
| GOEST3-10 | 2026-08-31 03:14:34 | 53.40524 | 7.06576 | 54° | 44km/h | 841m | -2.2m/s | 12.0°C | 97.9% | 915.2hPa | 2.7V | 00:00:00 | 03:49:08 | 00:00:00 | |
| GOEST3-10 | 2026-08-31 03:14:33 | 53.40517 | 7.06561 | 54° | 44km/h | 843m | -2.2m/s | 12.0°C | 98.0% | 914.9hPa | 2.8V | 00:00:00 | 00:00:00 | 00:00:00 | |
| DF5WG-10 | 2026-08-31 03:14:33 | 53.40517 | 7.06561 | 54° | 44km/h | 843m | -2.2m/s | 12.0°C | 98.0% | 914.9hPa | 2.8V | 06:40:00 | 03:49:07 | 00:00:00 | |
| DM0DOS-11 | 2026-08-31 03:14:31 | 53.40497 | 7.06515 | 54° | 46km/h | 849m | -2.3m/s | 12°C | 98% | 914.3hPa | 2.8V | 06:40:18 | 03:49:04 | 00:00:00 | |
| DM0DOS-11 | 2026-08-31 03:14:31 | 53.40484 | 7.06484 | 55° | 44km/h | 854m | -2m/s | 11.9°C | 98.2% | 913.8hPa | 2.8V | 06:40:20 | 03:49:02 | 00:00:00 | |
| DM0DOS-11 | 2026-08-31 03:14:31 | 53.40471 | 7.06453 | 55° | 44km/h | 858m | -2.4m/s | 11.9°C | 98.4% | 913.4hPa | 2.7V | 06:40:22 | 03:49:00 | 00:00:00 | |
| GOEST3-10 | 2026-08-31 03:14:31 | 53.40503 | 7.06530 | 55° | 46km/h | 847m | -2.3m/s | 11.9°C | 97.9% | 914.5hPa | 2.7V | 00:00:00 | 00:00:00 | 00:00:00 | |
| DF5WG-10 | 2026-08-31 03:14:31 | 53.40503 | 7.06530 | 55° | 46km/h | 847m | -2.3m/s | 11.9°C | 97.9% | 914.5hPa | 2.7V | 00:00:00 | 03:49:05 | 00:00:00 | |
| GOEST3-10 | 2026-08-31 03:14:30 | 53.40497 | 7.06515 | 55° | 46km/h | 850m | -2.3m/s | 11.9°C | 98.0% | 914.2hPa | 2.7V | 06:40:00 | 03:49:04 | 00:00:00 | |
| DF5WG-10 | 2026-08-31 03:14:30 | 53.40497 | 7.06515 | 55° | 46km/h | 850m | -2.3m/s | 11.9°C | 98.0% | 914.2hPa | 2.7V | 00:00:00 | 03:49:04 | 00:00:00 | |
| GOEST3-10 | 2026-08-31 03:14:29 | 53.40490 | 7.06499 | 55° | 46km/h | 852m | -2.2m/s | 11.9°C | 98.0% | 914.0hPa | 2.7V | 00:00:00 | 00:00:00 | 00:00:00 | |
| DF5WG-10 | 2026-08-31 03:14:29 | 53.40490 | 7.06499 | 55° | 46km/h | 852m | -2.2m/s | 11.9°C | 98.0% | 914.0hPa | 2.7V | 00:00:00 | 03:49:03 | 00:00:00 | |
| GOEST3-10 | 2026-08-31 03:14:28 | 53.40484 | 7.06484 | 56° | 46km/h | 854m | -2.0m/s | 11.9°C | 98.2% | 913.8hPa | 2.7V | 00:00:00 | 03:49:02 | 00:00:00 | |
| DF5WG-10 | 2026-08-31 03:14:28 | 53.40484 | 7.06484 | 56° | 46km/h | 854m | -2.0m/s | 11.9°C | 98.2% | 913.8hPa | 2.8V | 00:00:00 | 03:49:02 | 00:00:00 | |
| GOEST3-10 | 2026-08-31 03:14:27 | 53.40477 | 7.06468 | 55° | 44km/h | 856m | -2.1m/s | 11.9°C | 98.3% | 913.6hPa | 2.8V | 00:00:00 | 00:00:00 | 00:00:00 | |
| DF5WG-10 | 2026-08-31 03:14:27 | 53.40477 | 7.06468 | 55° | 44km/h | 856m | -2.1m/s | 11.9°C | 98.3% | 913.6hPa | 2.8V | 00:00:00 | 03:49:01 | 00:00:00 | |
| DM0DOS-11 | 2026-08-31 03:14:25 | 53.40458 | 7.06423 | 55° | 44km/h | 863m | -2.4m/s | 11.9°C | 98.4% | 912.9hPa | 2.8V | 06:40:24 | 03:48:58 | 00:00:00 | |
| DM0DOS-11 | 2026-08-31 03:14:25 | 53.40446 | 7.06393 | 56° | 42km/h | 867m | -2.3m/s | 11.9°C | 98.4% | 912.4hPa | 2.8V | 06:40:26 | 03:48:56 | 00:00:00 | |
| DM0DOS-11 | 2026-08-31 03:14:25 | 53.40434 | 7.06363 | 55° | 42km/h | 872m | -2.3m/s | 11.9°C | 98.6% | 911.9hPa | 2.8V | 06:40:28 | 03:48:54 | 00:00:00 | |
| GOEST3-10 | 2026-08-31 03:14:25 | 53.40465 | 7.06438 | 56° | 44km/h | 861m | -2.3m/s | 11.9°C | 98.4% | 913.0hPa | 2.7V | 00:00:00 | 00:00:00 | 00:00:00 | |
| DF5WG-10 | 2026-08-31 03:14:25 | 53.40465 | 7.06438 | 56° | 44km/h | 861m | -2.3m/s | 11.9°C | 98.4% | 913.0hPa | 2.7V | 00:00:00 | 03:48:59 | 00:00:00 | |
| DF5WG-10 | 2026-08-31 03:14:24 | 53.40458 | 7.06423 | 56° | 44km/h | 863m | -2.3m/s | 11.9°C | 98.4% | 912.8hPa | 2.7V | 00:00:00 | 03:48:58 | 00:00:00 | |
| GOEST3-10 | 2026-08-31 03:14:24 | 53.40458 | 7.06423 | 56° | 44km/h | 863m | -2.3m/s | 11.9°C | 98.4% | 912.8hPa | 2.7V | 00:00:00 | 03:48:58 | 00:00:00 | |
| DF5WG-10 | 2026-08-31 03:14:23 | 53.40452 | 7.06408 | 56° | 42km/h | 865m | -2.1m/s | 11.9°C | 98.5% | 912.5hPa | 2.7V | 00:00:00 | 03:48:57 | 00:00:00 | |
| GOEST3-10 | 2026-08-31 03:14:23 | 53.40452 | 7.06408 | 56° | 42km/h | 865m | -2.1m/s | 11.9°C | 98.5% | 912.5hPa | 2.7V | 06:40:00 | 00:00:00 | 00:00:00 | |
| HTAHTA | 2026-08-31 03:14:22 | 53.40446 | 7.06393 | 56° | 42km/h | 867m | -2.3m/s | 11.9°C | 97.3% | 912.4hPa | 2.7V | 00:00:00 | 00:00:00 | 00:00:00 | |
| DF5WG-10 | 2026-08-31 03:14:22 | 53.40446 | 7.06393 | 57° | 42km/h | 867m | -2.2m/s | 11.9°C | 98.4% | 912.3hPa | 2.7V | 00:00:00 | 03:48:56 | 00:00:00 | |
| GOEST3-10 | 2026-08-31 03:14:22 | 53.40446 | 7.06393 | 57° | 42km/h | 867m | -2.2m/s | 11.9°C | 98.4% | 912.3hPa | 2.7V | 00:00:00 | 03:48:56 | 00:00:00 | |
| DJ2DS-15 | 2026-08-31 03:14:21 | 53.40440 | 7.06378 | 56° | 42km/h | 870m | -2.2m/s | 11.9°C | 97.5% | 912.0hPa | 2.8V | 00:00:00 | 00:00:00 | 00:00:00 | |
| DF5WG-10 | 2026-08-31 03:14:21 | 53.40440 | 7.06378 | 57° | 42km/h | 870m | -2.2m/s | 11.8°C | 98.6% | 911.9hPa | 2.8V | 00:00:00 | 03:48:55 | 00:00:00 | |
| GOEST3-10 | 2026-08-31 03:14:21 | 53.40440 | 7.06378 | 57° | 42km/h | 870m | -2.2m/s | 11.8°C | 98.6% | 911.9hPa | 2.8V | 00:00:00 | 00:00:00 | 00:00:00 | |
| DM0DOS-11 | 2026-08-31 03:14:19 | 53.40422 | 7.06333 | 56° | 42km/h | 876m | -2.1m/s | 11.8°C | 98.8% | 911.3hPa | 2.8V | 06:40:30 | 03:48:52 | 00:00:00 | |
| DM0DOS-11 | 2026-08-31 03:14:19 | 53.40410 | 7.06303 | 56° | 42km/h | 881m | -2.3m/s | 11.8°C | 98.9% | 910.9hPa | 2.8V | 06:40:32 | 03:48:50 | 00:00:00 | |
| DM0DOS-11 | 2026-08-31 03:14:19 | 53.40398 | 7.06274 | 55° | 42km/h | 885m | -2.3m/s | 11.8°C | 98.8% | 910.4hPa | 2.8V | 06:40:34 | 03:48:48 | 00:00:00 | |
| DF5WG-10 | 2026-08-31 03:14:19 | 53.40428 | 7.06348 | 57° | 42km/h | 874m | -2.3m/s | 11.8°C | 98.6% | 911.5hPa | 2.7V | 06:40:00 | 03:48:53 | 00:00:00 | |
| DF5WG-10 | 2026-08-31 03:14:18 | 53.40422 | 7.06333 | 57° | 42km/h | 876m | -2.1m/s | 11.8°C | 98.8% | 911.3hPa | 2.7V | 00:00:00 | 03:48:52 | 00:00:00 | |
| GOEST3-10 | 2026-08-31 03:14:18 | 53.40422 | 7.06333 | 57° | 42km/h | 876m | -2.1m/s | 11.8°C | 98.8% | 911.3hPa | 2.7V | 00:00:00 | 00:00:00 | 00:00:00 | |
| GOEST3-10 | 2026-08-31 03:14:17 | 53.40416 | 7.06318 | 57° | 42km/h | 878m | -2.3m/s | 11.8°C | 98.7% | 911.1hPa | 2.7V | 00:00:00 | 03:48:51 | 00:00:00 | |
| DF5WG-10 | 2026-08-31 03:14:17 | 53.40416 | 7.06318 | 57° | 42km/h | 878m | -2.3m/s | 11.8°C | 98.7% | 911.1hPa | 2.7V | 00:00:00 | 03:48:51 | 00:00:00 | |
| DO9FK | 2026-08-31 03:14:16 | 53.40416 | 7.06318 | 57° | 42km/h | 878m | -2.4m/s | 11.9°C | 97.6% | 911.1hPa | 2.7V | 06:40:00 | 00:00:00 | 00:00:00 | |
| GOEST3-10 | 2026-08-31 03:14:16 | 53.40410 | 7.06303 | 57° | 42km/h | 881m | -2.3m/s | 11.8°C | 98.9% | 910.8hPa | 2.7V | 00:00:00 | 00:00:00 | 00:00:00 | |
| DF5WG-10 | 2026-08-31 03:14:16 | 53.40410 | 7.06303 | 57° | 42km/h | 881m | -2.3m/s | 11.8°C | 98.9% | 910.8hPa | 2.7V | 00:00:00 | 03:48:50 | 00:00:00 | |
| GOEST3-10 | 2026-08-31 03:14:15 | 53.40404 | 7.06288 | 56° | 42km/h | 883m | -2.1m/s | 11.8°C | 98.9% | 910.6hPa | 2.7V | 06:40:00 | 03:48:49 | 00:00:00 | |
| DF5WG-10 | 2026-08-31 03:14:15 | 53.40404 | 7.06288 | 56° | 42km/h | 883m | -2.1m/s | 11.8°C | 98.9% | 910.6hPa | 2.8V | 00:00:00 | 03:48:49 | 00:00:00 | |
| DM0DOS-11 | 2026-08-31 03:14:13 | 53.40386 | 7.06244 | 54° | 42km/h | 889m | -2.3m/s | 11.8°C | 99% | 909.9hPa | 2.8V | 06:40:36 | 03:48:46 | 00:00:00 | |
| DM0DOS-11 | 2026-08-31 03:14:13 | 53.40374 | 7.06215 | 54° | 42km/h | 894m | -2.3m/s | 11.8°C | 99.2% | 909.4hPa | 2.8V | 06:40:38 | 03:48:44 | 00:00:00 | |
| DM0DOS-11 | 2026-08-31 03:14:13 | 53.40361 | 7.06186 | 53° | 42km/h | 899m | -2.4m/s | 11.7°C | 99.2% | 908.9hPa | 2.8V | 06:40:40 | 03:48:42 | 00:00:00 | |
| GOEST3-10 | 2026-08-31 03:14:13 | 53.40392 | 7.06259 | 56° | 42km/h | 887m | -2.2m/s | 11.7°C | 99.0% | 910.0hPa | 2.7V | 00:00:00 | 03:48:47 | 00:00:00 | |
| DF5WG-10 | 2026-08-31 03:14:13 | 53.40392 | 7.06259 | 56° | 42km/h | 887m | -2.2m/s | 11.7°C | 99.0% | 910.0hPa | 2.7V | 00:00:00 | 03:48:47 | 00:00:00 | |
| GOEST3-10 | 2026-08-31 03:14:12 | 53.40386 | 7.06244 | 55° | 42km/h | 890m | -2.2m/s | 11.7°C | 99.0% | 909.8hPa | 2.7V | 00:00:00 | 00:00:00 | 00:00:00 | |
| DF5WG-10 | 2026-08-31 03:14:12 | 53.40386 | 7.06244 | 55° | 42km/h | 890m | -2.2m/s | 11.7°C | 99.0% | 909.8hPa | 2.7V | 06:40:00 | 03:48:46 | 00:00:00 | |
| GOEST3-10 | 2026-08-31 03:14:11 | 53.40380 | 7.06230 | 56° | 42km/h | 892m | -2.3m/s | 11.7°C | 99.2% | 909.6hPa | 2.7V | 00:00:00 | 03:48:45 | 00:00:00 | |
| DF5WG-10 | 2026-08-31 03:14:11 | 53.40380 | 7.06230 | 56° | 42km/h | 892m | -2.3m/s | 11.7°C | 99.2% | 909.6hPa | 2.7V | 00:00:00 | 03:48:45 | 00:00:00 | |
| DF5WG-10 | 2026-08-31 03:14:10 | 53.40374 | 7.06215 | 55° | 42km/h | 894m | -2.3m/s | 11.7°C | 99.2% | 909.4hPa | 2.7V | 00:00:00 | 03:48:44 | 00:00:00 | |
| GOEST3-10 | 2026-08-31 03:14:10 | 53.40374 | 7.06215 | 55° | 42km/h | 894m | -2.3m/s | 11.7°C | 99.2% | 909.4hPa | 2.7V | 00:00:00 | 00:00:00 | 00:00:00 | |
| GOEST3-10 | 2026-08-31 03:14:09 | 53.40368 | 7.06201 | 55° | 42km/h | 896m | -2.2m/s | 11.7°C | 99.2% | 908.9hPa | 2.7V | 00:00:00 | 03:48:43 | 00:00:00 | |
| DF5WG-10 | 2026-08-31 03:14:09 | 53.40368 | 7.06201 | 55° | 42km/h | 896m | -2.2m/s | 11.7°C | 99.2% | 908.9hPa | 2.8V | 00:00:00 | 03:48:43 | 00:00:00 | |
| DM0DOS-11 | 2026-08-31 03:14:07 | 53.40349 | 7.06158 | 53° | 42km/h | 903m | -2.4m/s | 11.7°C | 99% | 908.5hPa | 2.8V | 06:40:42 | 03:48:40 | 00:00:00 | |
| DM0DOS-11 | 2026-08-31 03:14:07 | 53.40337 | 7.06130 | 53° | 40km/h | 908m | -2.3m/s | 11.6°C | 98.8% | 908hPa | 2.8V | 06:40:44 | 03:48:38 | 00:00:00 | |
| DM0DOS-11 | 2026-08-31 03:14:07 | 53.40325 | 7.06103 | 53° | 40km/h | 913m | -2.2m/s | 11.6°C | 98.9% | 907.5hPa | 2.8V | 06:40:46 | 03:48:36 | 00:00:00 | |
| GOEST3-10 | 2026-08-31 03:14:07 | 53.40355 | 7.06172 | 54° | 42km/h | 901m | -2.3m/s | 11.6°C | 99.2% | 908.6hPa | 2.7V | 00:00:00 | 03:48:41 | 00:00:00 | |
| DF5WG-10 | 2026-08-31 03:14:07 | 53.40355 | 7.06172 | 54° | 42km/h | 901m | -2.3m/s | 11.6°C | 99.2% | 908.6hPa | 2.7V | 00:00:00 | 03:48:41 | 00:00:00 | |
| GOEST3-10 | 2026-08-31 03:14:06 | 53.40349 | 7.06158 | 54° | 42km/h | 903m | -2.3m/s | 11.6°C | 99.0% | 908.4hPa | 2.7V | 00:00:00 | 00:00:00 | 00:00:00 | |
| DF5WG-10 | 2026-08-31 03:14:06 | 53.40349 | 7.06158 | 54° | 42km/h | 903m | -2.3m/s | 11.6°C | 99.0% | 908.4hPa | 2.7V | 00:00:00 | 03:48:40 | 00:00:00 | |
| GOEST3-10 | 2026-08-31 03:14:05 | 53.40343 | 7.06144 | 55° | 40km/h | 906m | -2.2m/s | 11.6°C | 99.0% | 908.1hPa | 2.7V | 00:00:00 | 03:48:39 | 00:00:00 | |
| DF5WG-10 | 2026-08-31 03:14:05 | 53.40343 | 7.06144 | 55° | 40km/h | 906m | -2.2m/s | 11.6°C | 99.0% | 908.1hPa | 2.7V | 06:40:00 | 03:48:39 | 00:00:00 | |
| GOEST3-10 | 2026-08-31 03:14:04 | 53.40337 | 7.06130 | 54° | 40km/h | 908m | -2.2m/s | 11.6°C | 98.8% | 907.9hPa | 2.8V | 00:00:00 | 00:00:00 | 00:00:00 | |
| DF5WG-10 | 2026-08-31 03:14:04 | 53.40337 | 7.06130 | 54° | 40km/h | 908m | -2.2m/s | 11.6°C | 98.8% | 907.9hPa | 2.8V | 00:00:00 | 03:48:38 | 00:00:00 | |
| DM0DOS-11 | 2026-08-31 03:14:01 | 53.40313 | 7.06076 | 54° | 40km/h | 917m | -2.4m/s | 11.6°C | 98.8% | 906.9hPa | 2.8V | 06:40:48 | 03:48:34 | 00:00:00 | |
| DM0DOS-11 | 2026-08-31 03:14:01 | 53.40302 | 7.06048 | 54° | 38km/h | 922m | -2.2m/s | 11.5°C | 98.9% | 906.5hPa | 2.8V | 06:40:50 | 03:48:32 | 00:00:00 | |
| DM0DOS-11 | 2026-08-31 03:14:01 | 53.40290 | 7.06021 | 55° | 38km/h | 926m | -2.3m/s | 11.5°C | 98.8% | 906.1hPa | 2.8V | 06:40:52 | 03:48:30 | 00:00:00 | |
| GOEST3-10 | 2026-08-31 03:14:01 | 53.40319 | 7.06089 | 54° | 40km/h | 915m | -2.4m/s | 11.5°C | 98.9% | 907.0hPa | 2.7V | 06:40:00 | 03:48:35 | 00:00:00 | |
| DF5WG-10 | 2026-08-31 03:14:01 | 53.40319 | 7.06089 | 54° | 40km/h | 915m | -2.4m/s | 11.5°C | 98.9% | 907.0hPa | 2.7V | 00:00:00 | 03:48:35 | 00:00:00 | |
| GOEST3-10 | 2026-08-31 03:14:00 | 53.40313 | 7.06075 | 55° | 40km/h | 917m | -2.3m/s | 11.5°C | 98.8% | 906.8hPa | 2.7V | 00:00:00 | 00:00:00 | 00:00:00 | |
| DF5WG-10 | 2026-08-31 03:14:00 | 53.40313 | 7.06075 | 55° | 40km/h | 917m | -2.3m/s | 11.5°C | 98.8% | 906.8hPa | 2.7V | 00:00:00 | 03:48:34 | 00:00:00 | |
| GOEST3-10 | 2026-08-31 03:13:59 | 53.40307 | 7.06062 | 55° | 40km/h | 920m | -2.1m/s | 11.5°C | 99.0% | 906.7hPa | 2.7V | 00:00:00 | 03:48:33 | 00:00:00 | |
| DF5WG-10 | 2026-08-31 03:13:59 | 53.40307 | 7.06062 | 55° | 40km/h | 920m | -2.1m/s | 11.5°C | 99.0% | 906.7hPa | 2.7V | 00:00:00 | 03:48:33 | 00:00:00 | |
| GOEST3-10 | 2026-08-31 03:13:58 | 53.40301 | 7.06048 | 55° | 38km/h | 922m | -2.2m/s | 11.5°C | 98.9% | 906.4hPa | 2.7V | 00:00:00 | 00:00:00 | 00:00:00 | |
| DF5WG-10 | 2026-08-31 03:13:58 | 53.40301 | 7.06048 | 55° | 38km/h | 922m | -2.2m/s | 11.5°C | 98.9% | 906.4hPa | 2.7V | 06:40:00 | 03:48:32 | 00:00:00 | |
| GOEST3-10 | 2026-08-31 03:13:57 | 53.40295 | 7.06035 | 56° | 40km/h | 924m | -2.3m/s | 11.5°C | 99.1% | 906.1hPa | 2.7V | 00:00:00 | 03:48:31 | 00:00:00 | |
| DF5WG-10 | 2026-08-31 03:13:57 | 53.40295 | 7.06035 | 56° | 40km/h | 924m | -2.3m/s | 11.5°C | 99.1% | 906.1hPa | 2.8V | 00:00:00 | 03:48:31 | 00:00:00 | |
| DO9FK | 2026-08-31 03:13:56 | 53.40296 | 7.06035 | 56° | 40km/h | 924m | -2.4m/s | 11.5°C | 98.0% | 906.2hPa | 2.8V | 06:41:00 | 00:00:00 | 00:00:00 | |
| DM0DOS-11 | 2026-08-31 03:13:55 | 53.40279 | 7.05994 | 54° | 38km/h | 931m | -2.4m/s | 11.4°C | 98.6% | 905.5hPa | 2.8V | 06:40:54 | 03:48:28 | 00:00:00 | |
| DM0DOS-11 | 2026-08-31 03:13:55 | 53.40268 | 7.05967 | 54° | 38km/h | 936m | -2.4m/s | 11.4°C | 98.7% | 905hPa | 2.8V | 06:40:56 | 03:48:26 | 00:00:00 | |
| DM0DOS-11 | 2026-08-31 03:13:55 | 53.40256 | 7.05940 | 53° | 40km/h | 941m | -2.3m/s | 11.4°C | 98.9% | 904.4hPa | 2.8V | 06:40:58 | 03:48:24 | 00:00:00 | |
| HTAHTA | 2026-08-31 03:13:51 | 53.40262 | 7.05953 | 54° | 38km/h | 938m | -2.5m/s | 11.4°C | 97.6% | 904.8hPa | 2.7V | 00:00:00 | 00:00:00 | 00:00:00 | |
| GOEST3-10 | 2026-08-31 03:13:51 | 53.40262 | 7.05953 | 55° | 38km/h | 938m | -2.4m/s | 11.3°C | 98.7% | 904.7hPa | 2.7V | 00:00:00 | 03:48:25 | 00:00:00 | |
| DF5WG-10 | 2026-08-31 03:13:51 | 53.40262 | 7.05953 | 55° | 38km/h | 938m | -2.4m/s | 11.3°C | 98.7% | 904.7hPa | 2.8V | 06:40:00 | 03:48:25 | 00:00:00 | |
| DM0DOS-11 | 2026-08-31 03:13:49 | 53.40244 | 7.05913 | 51° | 40km/h | 945m | -2.4m/s | 11.3°C | 99.1% | 903.9hPa | 2.8V | 06:41:00 | 03:48:22 | 00:00:00 | |
| DM0DOS-11 | 2026-08-31 03:13:49 | 53.40230 | 7.05885 | 50° | 42km/h | 950m | -2.2m/s | 11.3°C | 99.1% | 903.5hPa | 2.8V | 06:41:02 | 03:48:20 | 00:00:00 | |
| DM0DOS-11 | 2026-08-31 03:13:49 | 53.40217 | 7.05857 | 51° | 42km/h | 954m | -2.3m/s | 11.3°C | 98.8% | 902.9hPa | 2.8V | 06:41:04 | 03:48:18 | 00:00:00 | |
| GOEST3-10 | 2026-08-31 03:13:49 | 53.40250 | 7.05926 | 53° | 40km/h | 943m | -2.2m/s | 11.3°C | 98.8% | 904.1hPa | 2.7V | 00:00:00 | 03:48:23 | 00:00:00 | |
| DF5WG-10 | 2026-08-31 03:13:49 | 53.40250 | 7.05926 | 53° | 40km/h | 943m | -2.2m/s | 11.3°C | 98.8% | 904.1hPa | 2.7V | 00:00:00 | 03:48:23 | 00:00:00 | |
| GOEST3-10 | 2026-08-31 03:13:48 | 53.40243 | 7.05913 | 52° | 40km/h | 945m | -2.3m/s | 11.3°C | 99.1% | 903.9hPa | 2.7V | 00:00:00 | 00:00:00 | 00:00:00 | |
| DF5WG-10 | 2026-08-31 03:13:48 | 53.40243 | 7.05913 | 52° | 40km/h | 945m | -2.3m/s | 11.3°C | 99.1% | 903.9hPa | 2.7V | 00:00:00 | 03:48:22 | 00:00:00 | |
| GOEST3-10 | 2026-08-31 03:13:47 | 53.40237 | 7.05899 | 52° | 42km/h | 948m | -2.1m/s | 11.3°C | 99.1% | 903.6hPa | 2.7V | 06:41:00 | 03:48:21 | 00:00:00 | |
| DF5WG-10 | 2026-08-31 03:13:46 | 53.40230 | 7.05885 | 51° | 42km/h | 950m | -2.2m/s | 11.3°C | 99.1% | 903.4hPa | 2.7V | 00:00:00 | 03:48:20 | 00:00:00 | |
| GOEST3-10 | 2026-08-31 03:13:46 | 53.40230 | 7.05885 | 51° | 42km/h | 950m | -2.2m/s | 11.3°C | 99.1% | 903.4hPa | 2.8V | 00:00:00 | 00:00:00 | 00:00:00 | |
| DM0DOS-11 | 2026-08-31 03:13:43 | 53.40203 | 7.05829 | 51° | 42km/h | 959m | -2.2m/s | 11.2°C | 99% | 902.5hPa | 2.8V | 06:41:06 | 03:48:16 | 00:00:00 | |
| DM0DOS-11 | 2026-08-31 03:13:43 | 53.40191 | 7.05802 | 53° | 40km/h | 963m | -2.3m/s | 11.2°C | 98.3% | 902hPa | 2.8V | 06:41:08 | 03:48:14 | 00:00:00 | |
| DM0DOS-11 | 2026-08-31 03:13:43 | 53.40179 | 7.05774 | 55° | 40km/h | 968m | -2.2m/s | 11.2°C | 98.6% | 901.4hPa | 2.8V | 06:41:10 | 03:48:12 | 00:00:00 | |
| GOEST3-10 | 2026-08-31 03:13:43 | 53.40210 | 7.05843 | 52° | 42km/h | 957m | -2.4m/s | 11.2°C | 98.8% | 902.6hPa | 2.7V | 00:00:00 | 03:48:17 | 00:00:00 | |
| DF5WG-10 | 2026-08-31 03:13:43 | 53.40210 | 7.05843 | 52° | 42km/h | 957m | -2.4m/s | 11.2°C | 98.8% | 902.6hPa | 2.7V | 06:41:00 | 03:48:17 | 00:00:00 | |
| GOEST3-10 | 2026-08-31 03:13:42 | 53.40203 | 7.05829 | 52° | 42km/h | 959m | -2.2m/s | 11.2°C | 99.0% | 902.4hPa | 2.7V | 00:00:00 | 00:00:00 | 00:00:00 | |
| DF5WG-10 | 2026-08-31 03:13:42 | 53.40203 | 7.05829 | 52° | 42km/h | 959m | -2.2m/s | 11.2°C | 99.0% | 902.4hPa | 2.7V | 00:00:00 | 03:48:16 | 00:00:00 | |
| GOEST3-10 | 2026-08-31 03:13:41 | 53.40197 | 7.05816 | 54° | 42km/h | 961m | -2.4m/s | 11.2°C | 98.7% | 902.1hPa | 2.7V | 00:00:00 | 03:48:15 | 00:00:00 | |
| DF5WG-10 | 2026-08-31 03:13:41 | 53.40197 | 7.05816 | 54° | 42km/h | 961m | -2.4m/s | 11.2°C | 98.7% | 902.1hPa | 2.7V | 00:00:00 | 03:48:15 | 00:00:00 | |
| GOEST3-10 | 2026-08-31 03:13:40 | 53.40191 | 7.05801 | 54° | 40km/h | 963m | -2.3m/s | 11.1°C | 98.3% | 901.9hPa | 2.7V | 06:41:00 | 00:00:00 | 00:00:00 | |
| DF5WG-10 | 2026-08-31 03:13:40 | 53.40191 | 7.05801 | 54° | 40km/h | 963m | -2.3m/s | 11.1°C | 98.3% | 901.9hPa | 2.7V | 00:00:00 | 03:48:14 | 00:00:00 | |
| GOEST3-10 | 2026-08-31 03:13:39 | 53.40185 | 7.05788 | 55° | 40km/h | 966m | -2.3m/s | 11.1°C | 98.4% | 901.6hPa | 2.7V | 00:00:00 | 03:48:13 | 00:00:00 | |
| DF5WG-10 | 2026-08-31 03:13:39 | 53.40185 | 7.05788 | 55° | 40km/h | 966m | -2.3m/s | 11.1°C | 98.4% | 901.6hPa | 2.8V | 00:00:00 | 03:48:13 | 00:00:00 | |
| DM0DOS-11 | 2026-08-31 03:13:37 | 53.40168 | 7.05746 | 56° | 38km/h | 973m | -2.5m/s | 11.2°C | 98.7% | 900.9hPa | 2.8V | 06:41:12 | 03:48:10 | 00:00:00 | |
| DM0DOS-11 | 2026-08-31 03:13:37 | 53.40157 | 7.05718 | 56° | 38km/h | 978m | -2.5m/s | 11.2°C | 98.9% | 900.4hPa | 2.8V | 06:41:14 | 03:48:08 | 00:00:00 | |
| GOEST3-10 | 2026-08-31 03:13:37 | 53.40174 | 7.05760 | 57° | 40km/h | 970m | -2.2m/s | 11.1°C | 98.5% | 901.1hPa | 2.7V | 00:00:00 | 03:48:11 | 00:00:00 | |
| DF5WG-10 | 2026-08-31 03:13:37 | 53.40174 | 7.05760 | 57° | 40km/h | 970m | -2.2m/s | 11.1°C | 98.5% | 901.1hPa | 2.7V | 00:00:00 | 03:48:11 | 00:00:00 | |
| GOEST3-10 | 2026-08-31 03:13:36 | 53.40168 | 7.05746 | 57° | 38km/h | 973m | -2.5m/s | 11.1°C | 98.7% | 900.9hPa | 2.7V | 00:00:00 | 00:00:00 | 00:00:00 | |
| DF5WG-10 | 2026-08-31 03:13:36 | 53.40168 | 7.05746 | 57° | 38km/h | 973m | -2.5m/s | 11.1°C | 98.7% | 900.9hPa | 2.7V | 06:41:00 | 03:48:10 | 00:00:00 | |
| DO9FK | 2026-08-31 03:13:35 | 53.40168 | 7.05746 | 58° | 38km/h | 973m | -2.6m/s | 11.2°C | 97.6% | 900.9hPa | 2.7V | 06:41:00 | 00:00:00 | 00:00:00 | |
| GOEST3-10 | 2026-08-31 03:13:35 | 53.40163 | 7.05732 | 57° | 38km/h | 975m | -2.4m/s | 11.1°C | 99.1% | 900.7hPa | 2.7V | 00:00:00 | 03:48:09 | 00:00:00 | |
| DF5WG-10 | 2026-08-31 03:13:35 | 53.40163 | 7.05732 | 57° | 38km/h | 975m | -2.4m/s | 11.1°C | 99.1% | 900.7hPa | 2.7V | 00:00:00 | 03:48:09 | 00:00:00 | |
| GOEST3-10 | 2026-08-31 03:13:34 | 53.40157 | 7.05718 | 57° | 38km/h | 978m | -2.4m/s | 11.1°C | 98.9% | 900.4hPa | 2.7V | 00:00:00 | 00:00:00 | 00:00:00 | |
| DF5WG-10 | 2026-08-31 03:13:34 | 53.40157 | 7.05718 | 57° | 38km/h | 978m | -2.4m/s | 11.1°C | 98.9% | 900.4hPa | 2.7V | 00:00:00 | 03:48:08 | 00:00:00 | |
| DM0DOS-11 | 2026-08-31 03:13:31 | 53.40135 | 7.05665 | 53° | 38km/h | 987m | -2.6m/s | 11.2°C | 99.8% | 899.4hPa | 2.8V | 06:41:18 | 03:48:04 | 00:00:00 | |
| DM0DOS-11 | 2026-08-31 03:13:31 | 53.40123 | 7.05639 | 52° | 38km/h | 992m | -2.6m/s | 11.2°C | 0% | 899hPa | 2.8V | 06:41:20 | 03:48:02 | 00:00:00 | |
| DM0DOS-11 | 2026-08-31 03:13:31 | 53.40111 | 7.05613 | 52° | 40km/h | 997m | -2.4m/s | 11.2°C | 0% | 898.4hPa | 2.7V | 06:41:22 | 03:48:00 | 00:00:00 | |
| GOEST3-10 | 2026-08-31 03:13:31 | 53.40140 | 7.05678 | 54° | 38km/h | 985m | -2.4m/s | 11.1°C | 0% | 899.5hPa | 2.7V | 00:00:00 | 03:48:05 | 00:00:00 | |
| DF5WG-10 | 2026-08-31 03:13:31 | 53.40140 | 7.05678 | 54° | 38km/h | 985m | -2.4m/s | 11.1°C | 0% | 899.5hPa | 2.7V | 00:00:00 | 03:48:05 | 00:00:00 | |
| GOEST3-10 | 2026-08-31 03:13:30 | 53.40135 | 7.05665 | 54° | 38km/h | 988m | -2.5m/s | 11.2°C | 0% | 899.3hPa | 2.7V | 00:00:00 | 00:00:00 | 00:00:00 | |
| DF5WG-10 | 2026-08-31 03:13:30 | 53.40135 | 7.05665 | 54° | 38km/h | 988m | -2.5m/s | 11.2°C | 0% | 899.3hPa | 2.7V | 00:00:00 | 03:48:04 | 00:00:00 | |
| GOEST3-10 | 2026-08-31 03:13:29 | 53.40129 | 7.05652 | 53° | 38km/h | 990m | -2.3m/s | 11.2°C | 0% | 899.1hPa | 2.7V | 00:00:00 | 03:48:03 | 00:00:00 | |
| DF5WG-10 | 2026-08-31 03:13:29 | 53.40129 | 7.05652 | 53° | 38km/h | 990m | -2.3m/s | 11.2°C | 0% | 899.1hPa | 2.7V | 06:41:00 | 03:48:03 | 00:00:00 | |
| GOEST3-10 | 2026-08-31 03:13:28 | 53.40123 | 7.05639 | 53° | 38km/h | 992m | -2.6m/s | 11.2°C | 0% | 898.9hPa | 2.7V | 00:00:00 | 00:00:00 | 00:00:00 | |
| DF5WG-10 | 2026-08-31 03:13:28 | 53.40123 | 7.05639 | 53° | 38km/h | 992m | -2.6m/s | 11.2°C | 0% | 898.9hPa | 2.7V | 00:00:00 | 03:48:02 | 00:00:00 | |
| DF5WG-10 | 2026-08-31 03:13:27 | 53.40117 | 7.05626 | 53° | 38km/h | 995m | -2.3m/s | 11.2°C | 0% | 898.5hPa | 2.7V | 00:00:00 | 03:48:01 | 00:00:00 | |
| GOEST3-10 | 2026-08-31 03:13:27 | 53.40117 | 7.05626 | 53° | 38km/h | 995m | -2.3m/s | 11.2°C | 0% | 898.5hPa | 2.7V | 00:00:00 | 03:48:01 | 00:00:00 | |
| DM0DOS-11 | 2026-08-31 03:13:25 | 53.40099 | 7.05586 | 54° | 40km/h | 1002m | -2.5m/s | 11.2°C | 0% | 897.9hPa | 2.8V | 06:41:24 | 03:47:58 | 00:00:00 | |
| DM0DOS-11 | 2026-08-31 03:13:25 | 53.40088 | 7.05558 | 56° | 40km/h | 1007m | -2.4m/s | 11.2°C | 0% | 897.2hPa | 2.8V | 06:41:26 | 03:47:56 | 00:00:00 | |
| DF5WG-10 | 2026-08-31 03:13:25 | 53.40105 | 7.05599 | 54° | 40km/h | 1000m | -2.4m/s | 11.2°C | 0% | 898.2hPa | 2.7V | 00:00:00 | 03:47:59 | 00:00:00 | |
| GOEST3-10 | 2026-08-31 03:13:25 | 53.40105 | 7.05599 | 54° | 40km/h | 1000m | -2.4m/s | 11.2°C | 0% | 898.2hPa | 2.7V | 00:00:00 | 03:47:59 | 00:00:00 | |
| GOEST3-10 | 2026-08-31 03:13:24 | 53.40099 | 7.05586 | 55° | 40km/h | 1002m | -2.4m/s | 11.2°C | 0% | 897.9hPa | 2.7V | 00:00:00 | 00:00:00 | 00:00:00 | |
| DF5WG-10 | 2026-08-31 03:13:24 | 53.40099 | 7.05586 | 55° | 40km/h | 1002m | -2.4m/s | 11.2°C | 0% | 897.9hPa | 2.7V | 00:00:00 | 03:47:58 | 00:00:00 | |
| GOEST3-10 | 2026-08-31 03:13:23 | 53.40093 | 7.05572 | 56° | 40km/h | 1005m | -2.5m/s | 11.2°C | 0% | 897.6hPa | 2.7V | 00:00:00 | 03:47:57 | 00:00:00 | |
| GOEST3-10 | 2026-08-31 03:13:22 | 53.40088 | 7.05558 | 57° | 40km/h | 1007m | -2.3m/s | 11.2°C | 0% | 897.2hPa | 2.7V | 00:00:00 | 00:00:00 | 00:00:00 | |
| GOEST3-10 | 2026-08-31 03:13:21 | 53.40082 | 7.05544 | 57° | 40km/h | 1009m | -2.5m/s | 11.1°C | 0% | 897.0hPa | 2.7V | 00:00:00 | 03:47:55 | 00:00:00 | |
| HTAHTA | 2026-08-31 03:13:20 | 53.40077 | 7.05530 | 57° | 38km/h | 1012m | -2.6m/s | 11.2°C | 99.1% | 896.8hPa | 2.7V | 00:00:00 | 00:00:00 | 00:00:00 | |
| GOEST3-10 | 2026-08-31 03:13:20 | 53.40077 | 7.05530 | 58° | 38km/h | 1012m | -2.5m/s | 11.1°C | 0% | 896.8hPa | 2.7V | 00:00:00 | 00:00:00 | 00:00:00 | |
| DF5WG-10 | 2026-08-31 03:13:20 | 53.40077 | 7.05530 | 58° | 38km/h | 1012m | -2.5m/s | 11.1°C | 0% | 896.8hPa | 2.7V | 00:00:00 | 03:47:54 | 00:00:00 | |
| GOEST3-10 | 2026-08-31 03:13:19 | 53.40071 | 7.05517 | 58° | 38km/h | 1015m | -2.4m/s | 11.1°C | 0% | 896.4hPa | 2.7V | 06:41:00 | 03:47:53 | 00:00:00 | |
| DM0DOS-11 | 2026-08-31 03:13:17 | 53.40055 | 7.05476 | 54° | 38km/h | 1022m | -2.5m/s | 11.1°C | 99.8% | 895.8hPa | 2.7V | 06:41:32 | 03:47:50 | 00:00:00 | |
| DM0DOS-11 | 2026-08-31 03:13:17 | 53.40032 | 7.05425 | 50° | 38km/h | 1032m | -2.5m/s | 11°C | 99.5% | 894.8hPa | 2.8V | 06:41:36 | 03:47:46 | 00:00:00 | |
| BIOWL1-15 | 2026-08-31 03:13:17 | 53.40061 | 7.05490 | 56° | 38km/h | 1020m | -2.4m/s | 11.1°C | 100% | 896.1hPa | 2.8V | 06:42:25 | 03:47:51 | 00:00:00 | |
| DF5WG-10 | 2026-08-31 03:13:17 | 53.40061 | 7.05490 | 57° | 38km/h | 1020m | -2.3m/s | 11.0°C | 99.9% | 896.0hPa | 2.7V | 06:41:00 | 03:47:51 | 00:00:00 | |
| GOEST3-10 | 2026-08-31 03:13:17 | 53.40061 | 7.05490 | 57° | 38km/h | 1020m | -2.3m/s | 11.0°C | 99.9% | 896.0hPa | 2.7V | 00:00:00 | 03:47:51 | 00:00:00 | |
| GOEST3-10 | 2026-08-31 03:13:16 | 53.40056 | 7.05476 | 55° | 38km/h | 1022m | -2.4m/s | 11.0°C | 99.8% | 895.7hPa | 2.7V | 00:00:00 | 00:00:00 | 00:00:00 | |
| GOEST3-10 | 2026-08-31 03:13:15 | 53.40050 | 7.05463 | 54° | 38km/h | 1024m | -2.4m/s | 11.0°C | 99.4% | 895.4hPa | 2.7V | 00:00:00 | 03:47:49 | 00:00:00 | |
| DO9FK | 2026-08-31 03:13:14 | 53.40050 | 7.05463 | 55° | 38km/h | 1024m | -2.5m/s | 11.0°C | 98.2% | 895.5hPa | 2.8V | 06:41:00 | 00:00:00 | 00:00:00 | |
| GOEST3-10 | 2026-08-31 03:13:14 | 53.40044 | 7.05451 | 54° | 38km/h | 1027m | -2.3m/s | 11.0°C | 99.7% | 895.2hPa | 2.8V | 00:00:00 | 00:00:00 | 00:00:00 | |
| DF5WG-10 | 2026-08-31 03:13:14 | 53.40044 | 7.05451 | 54° | 38km/h | 1027m | -2.3m/s | 11.0°C | 99.7% | 895.2hPa | 2.8V | 00:00:00 | 03:47:48 | 00:00:00 | |
| GOEST3-10 | 2026-08-31 03:13:13 | 53.40038 | 7.05438 | 52° | 38km/h | 1029m | -2.4m/s | 11.0°C | 99.5% | 894.9hPa | 2.8V | 00:00:00 | 03:47:47 | 00:00:00 | |
| DM0DOS-11 | 2026-08-31 03:13:11 | 53.40020 | 7.05400 | 49° | 38km/h | 1037m | -2.5m/s | 10.8°C | 97.9% | 894.3hPa | 2.8V | 06:41:38 | 03:47:44 | 00:00:00 | |
| DM0DOS-11 | 2026-08-31 03:13:11 | 53.40007 | 7.05375 | 49° | 38km/h | 1042m | -2.6m/s | 10.8°C | 97.9% | 893.7hPa | 2.8V | 06:41:40 | 03:47:42 | 00:00:00 | |
| DM0DOS-11 | 2026-08-31 03:13:11 | 53.39994 | 7.05349 | 49° | 38km/h | 1046m | -2.2m/s | 10.6°C | 97.6% | 893.1hPa | 2.8V | 06:41:42 | 03:47:40 | 00:00:00 | |
| DL1XH-west | 2026-08-31 03:13:08 | 53.40007 | 7.05375 | 50° | 38km/h | 1042m | -2.6m/s | 10.8°C | 100% | 893.7hPa | 2.8V | 06:42:25 | 03:47:42 | 00:00:00 | |
| DF5WG-10 | 2026-08-31 03:13:08 | 53.40007 | 7.05375 | 50° | 40km/h | 1042m | -2.5m/s | 10.7°C | 97.9% | 893.7hPa | 2.7V | 00:00:00 | 03:47:42 | 00:00:00 | |
| GOEST3-10 | 2026-08-31 03:13:07 | 53.40000 | 7.05362 | 50° | 40km/h | 1044m | -2.3m/s | 10.7°C | 97.8% | 893.3hPa | 2.7V | 00:00:00 | 03:47:41 | 00:00:00 | |
| GOEST3-10 | 2026-08-31 03:13:06 | 53.39994 | 7.05349 | 50° | 40km/h | 1046m | -2.1m/s | 10.6°C | 97.6% | 893.1hPa | 2.7V | 00:00:00 | 00:00:00 | 00:00:00 | |
| DM0DOS-11 | 2026-08-31 03:13:05 | 53.39968 | 7.05300 | 48° | 38km/h | 1056m | -2.4m/s | 10.4°C | 95% | 892.2hPa | 2.8V | 06:41:46 | 03:47:36 | 00:00:00 | |
| DM0DOS-11 | 2026-08-31 03:13:05 | 53.39955 | 7.05276 | 47° | 38km/h | 1061m | -2.5m/s | 10.4°C | 95.3% | 891.7hPa | 2.8V | 06:41:48 | 03:47:34 | 00:00:00 | |
| BIOWL1-15 | 2026-08-31 03:13:05 | 53.39987 | 7.05337 | 49° | 38km/h | 1049m | -2.7m/s | 10.5°C | 98.6% | 893hPa | 2.8V | 06:42:25 | 03:47:39 | 00:00:00 | |
| DL1XH-west | 2026-08-31 03:13:02 | 53.39968 | 7.05300 | 49° | 38km/h | 1056m | -2.4m/s | 10.4°C | 97.3% | 892.2hPa | 2.8V | 06:42:25 | 03:47:36 | 00:00:00 | |
| DL1XH-west | 2026-08-31 03:13:00 | 53.39955 | 7.05276 | 48° | 38km/h | 1061m | -2.5m/s | 10.4°C | 97.6% | 891.7hPa | 2.8V | 06:42:25 | 03:47:34 | 00:00:00 | |
| DM0DOS-11 | 2026-08-31 03:12:59 | 53.39942 | 7.05252 | 47° | 38km/h | 1066m | -2.5m/s | 10.3°C | 95.4% | 891.1hPa | 2.7V | 06:41:50 | 03:47:32 | 00:00:00 | |
| DM0DOS-11 | 2026-08-31 03:12:59 | 53.39929 | 7.05228 | 46° | 38km/h | 1071m | -2.5m/s | 10.3°C | 95.3% | 890.6hPa | 2.8V | 06:41:52 | 03:47:30 | 00:00:00 | |
| DL1XH-west | 2026-08-31 03:12:59 | 53.39949 | 7.05264 | 48° | 38km/h | 1063m | -2.4m/s | 10.4°C | 97.8% | 891.5hPa | 2.8V | 06:42:25 | 03:47:33 | 00:00:00 | |
| DL1XH-west | 2026-08-31 03:12:58 | 53.39942 | 7.05252 | 47° | 38km/h | 1066m | -2.5m/s | 10.4°C | 97.7% | 891.1hPa | 2.7V | 06:42:25 | 03:47:32 | 00:00:00 | |
| GOEST3-10 | 2026-08-31 03:12:58 | 53.39942 | 7.05251 | 48° | 38km/h | 1066m | -2.5m/s | 10.3°C | 95.4% | 891.1hPa | 2.7V | 06:41:00 | 00:00:00 | 00:00:00 | |
| GOEST3-10 | 2026-08-31 03:12:57 | 53.39936 | 7.05240 | 48° | 38km/h | 1068m | -2.3m/s | 10.3°C | 95.2% | 890.8hPa | 2.7V | 00:00:00 | 03:47:31 | 00:00:00 | |
| GOEST3-10 | 2026-08-31 03:12:56 | 53.39929 | 7.05228 | 47° | 38km/h | 1071m | -2.4m/s | 10.2°C | 95.3% | 890.6hPa | 2.8V | 00:00:00 | 00:00:00 | 00:00:00 | |
| DF5WG-10 | 2026-08-31 03:12:56 | 53.39929 | 7.05228 | 47° | 38km/h | 1071m | -2.4m/s | 10.2°C | 95.3% | 890.6hPa | 2.8V | 06:41:00 | 03:47:30 | 00:00:00 | |
| GOEST3-10 | 2026-08-31 03:12:55 | 53.39922 | 7.05216 | 47° | 38km/h | 1073m | -2.4m/s | 10.2°C | 94.7% | 890.3hPa | 2.8V | 00:00:00 | 03:47:29 | 00:00:00 | |
| DM0DOS-11 | 2026-08-31 03:12:54 | 53.39902 | 7.05180 | 46° | 40km/h | 1080m | -2.5m/s | 10.2°C | 94.4% | 889.6hPa | 2.8V | 06:41:56 | 03:47:26 | 00:00:00 | |
| DM0DOS-11 | 2026-08-31 03:12:54 | 53.39888 | 7.05155 | 46° | 38km/h | 1085m | -2.3m/s | 10.1°C | 94.8% | 889hPa | 2.8V | 06:41:58 | 03:47:24 | 00:00:00 | |
| BIOWL1-15 | 2026-08-31 03:12:49 | 53.39881 | 7.05143 | 47° | 40km/h | 1088m | -2.5m/s | 10.1°C | 96.1% | 888.9hPa | 2.7V | 06:42:25 | 03:47:23 | 00:00:00 | |
| BIOWL1-15 | 2026-08-31 03:12:41 | 53.39821 | 7.05038 | 46° | 38km/h | 1109m | -2.4m/s | 10°C | 95.9% | 886.6hPa | 2.7V | 06:42:25 | 03:47:14 | 00:00:00 | |
| DM0DOS-11 | 2026-08-31 03:12:41 | 53.39795 | 7.04993 | 47° | 37km/h | 1119m | -2.4m/s | 9.9°C | 93.7% | 885.6hPa | 2.8V | 06:42:12 | 03:47:10 | 00:00:00 | |
| BIOWL1-15 | 2026-08-31 03:12:41 | 53.39814 | 7.05027 | 47° | 37km/h | 1112m | -2.4m/s | 9.9°C | 95% | 886.3hPa | 2.8V | 06:42:25 | 03:47:13 | 00:00:00 | |
| DF5WG-10 | 2026-08-31 03:12:41 | 53.39827 | 7.05050 | 46° | 37km/h | 1107m | -2.2m/s | 10.0°C | 94.3% | 886.7hPa | 2.7V | 00:00:00 | 03:47:15 | 00:00:00 | |
| GOEST3-10 | 2026-08-31 03:12:39 | 53.39814 | 7.05027 | 47° | 37km/h | 1112m | -2.4m/s | 9.9°C | 94.4% | 886.3hPa | 2.7V | 00:00:00 | 03:47:13 | 00:00:00 | |
| GOEST3-10 | 2026-08-31 03:12:38 | 53.39808 | 7.05015 | 47° | 37km/h | 1114m | -2.4m/s | 9.8°C | 93.6% | 886.1hPa | 2.7V | 00:00:00 | 00:00:00 | 00:00:00 | |
| DF5WG-10 | 2026-08-31 03:12:38 | 53.39808 | 7.05015 | 47° | 37km/h | 1114m | -2.4m/s | 9.8°C | 93.6% | 886.1hPa | 2.7V | 00:00:00 | 03:47:12 | 00:00:00 | |
| GOEST3-10 | 2026-08-31 03:12:37 | 53.39801 | 7.05004 | 48° | 37km/h | 1116m | -2.5m/s | 9.8°C | 93.5% | 885.6hPa | 2.7V | 00:00:00 | 03:47:11 | 00:00:00 | |
| DM0DOS-11 | 2026-08-31 03:12:35 | 53.39783 | 7.04970 | 46° | 37km/h | 1123m | -2.3m/s | 10°C | 94.8% | 885hPa | 2.8V | 06:42:14 | 03:47:08 | 00:00:00 | |
| DL1XH-west | 2026-08-31 03:12:33 | 53.39776 | 7.04959 | 46° | 37km/h | 1126m | -2.4m/s | 10°C | 96.3% | 884.7hPa | 2.8V | 06:42:25 | 03:47:07 | 00:00:00 | |
| DL1XH-west | 2026-08-31 03:12:32 | 53.39770 | 7.04948 | 45° | 37km/h | 1128m | -2.3m/s | 10°C | 96.4% | 884.5hPa | 2.8V | 06:42:25 | 03:47:06 | 00:00:00 | |
| BIOWL1-15 | 2026-08-31 03:12:31 | 53.39763 | 7.04937 | 46° | 38km/h | 1131m | -2.4m/s | 10°C | 96.4% | 884.2hPa | 2.7V | 06:42:25 | 03:47:05 | 00:00:00 | |
| GOEST3-10 | 2026-08-31 03:12:31 | 53.39763 | 7.04936 | 46° | 38km/h | 1131m | -2.3m/s | 10.0°C | 95.1% | 884.2hPa | 2.7V | 00:00:00 | 03:47:05 | 00:00:00 | |
| GOEST3-10 | 2026-08-31 03:12:30 | 53.39756 | 7.04925 | 45° | 38km/h | 1133m | -2.5m/s | 10.0°C | 95.5% | 883.9hPa | 2.8V | 00:00:00 | 00:00:00 | 00:00:00 | |
| DM0DOS-11 | 2026-08-31 03:12:29 | 53.39728 | 7.04879 | 44° | 38km/h | 1143m | -2.2m/s | 10°C | 95.4% | 883.1hPa | 2.8V | 06:42:22 | 03:47:00 | 00:00:00 | |
| DL1XH-west | 2026-08-31 03:12:29 | 53.39749 | 7.04914 | 45° | 38km/h | 1135m | -2.3m/s | 10°C | 96.9% | 883.7hPa | 2.8V | 06:42:25 | 03:47:03 | 00:00:00 | |
| BIOWL1-15 | 2026-08-31 03:12:28 | 53.39742 | 7.04902 | 45° | 38km/h | 1138m | -2.4m/s | 10°C | 97% | 883.5hPa | 2.8V | 06:42:25 | 03:47:02 | 00:00:00 | |
| DL1XH-west | 2026-08-31 03:12:27 | 53.39735 | 7.04890 | 45° | 38km/h | 1140m | -2.4m/s | 10°C | 96.9% | 883.2hPa | 2.8V | 06:42:25 | 03:47:01 | 00:00:00 | |
| DL1XH-west | 2026-08-31 03:12:25 | 53.39721 | 7.04867 | 44° | 38km/h | 1145m | -2.4m/s | 10°C | 97.8% | 882.7hPa | 2.8V | 06:42:25 | 03:46:59 | 00:00:00 | |
| GOEST3-10 | 2026-08-31 03:12:25 | 53.39721 | 7.04867 | 45° | 38km/h | 1145m | -2.4m/s | 10.0°C | 96.1% | 882.6hPa | 2.7V | 00:00:00 | 03:46:59 | 00:00:00 | |
| DM0DOS-11 | 2026-08-31 03:12:23 | 53.39700 | 7.04833 | 44° | 38km/h | 1152m | -2.4m/s | 10.1°C | 96.7% | 882hPa | 2.7V | 06:42:26 | 03:46:56 | 00:00:00 | |
| DM0DOS-11 | 2026-08-31 03:12:23 | 53.39687 | 7.04811 | 44° | 37km/h | 1157m | -2.4m/s | 10.1°C | 97% | 881.4hPa | 2.8V | 06:42:28 | 03:46:54 | 00:00:00 | |
| DL1XH-west | 2026-08-31 03:12:23 | 53.39707 | 7.04844 | 44° | 38km/h | 1150m | -2.4m/s | 10.1°C | 98.7% | 882.2hPa | 2.8V | 06:42:25 | 03:46:57 | 00:00:00 | |
| DL1XH-west | 2026-08-31 03:12:22 | 53.39700 | 7.04833 | 44° | 38km/h | 1152m | -2.4m/s | 10.1°C | 98.8% | 882hPa | 2.7V | 06:43:16 | 03:46:56 | 00:00:00 | |
| BIOWL1-15 | 2026-08-31 03:12:20 | 53.39667 | 7.04778 | 44° | 37km/h | 1164m | -2.5m/s | 10.1°C | 100% | 880.7hPa | 2.8V | 06:43:16 | 03:46:51 | 00:00:00 | |
| DL1XH-west | 2026-08-31 03:12:20 | 53.39687 | 7.04811 | 45° | 37km/h | 1157m | -2.4m/s | 10.1°C | 99.7% | 881.4hPa | 2.8V | 06:43:16 | 03:46:54 | 00:00:00 | |
| DL1XH-west | 2026-08-31 03:12:18 | 53.39674 | 7.04789 | 45° | 37km/h | 1162m | -2.4m/s | 10.1°C | 100% | 881hPa | 2.8V | 06:43:16 | 03:46:52 | 00:00:00 | |
| DL1XH-west | 2026-08-31 03:12:16 | 53.39661 | 7.04767 | 44° | 37km/h | 1166m | -2.4m/s | 10.1°C | 100% | 880.5hPa | 2.8V | 06:43:16 | 03:46:50 | 00:00:00 | |
| DL1XH-west | 2026-08-31 03:12:15 | 53.39654 | 7.04757 | 44° | 37km/h | 1169m | -2.4m/s | 10.1°C | 100% | 880.2hPa | 2.8V | 06:43:16 | 03:46:49 | 00:00:00 | |
| BIOWL1-15 | 2026-08-31 03:12:14 | 53.39640 | 7.04736 | 42° | 37km/h | 1174m | -2.4m/s | 10°C | 100% | 879.7hPa | 2.8V | 06:43:16 | 03:46:47 | 00:00:00 | |
| BIOWL1-15 | 2026-08-31 03:12:14 | 53.39633 | 7.04725 | 43° | 38km/h | 1176m | -2.4m/s | 9.9°C | 100% | 879.5hPa | 2.8V | 06:43:16 | 03:46:46 | 00:00:00 | |
| BIOWL1-15 | 2026-08-31 03:12:10 | 53.39612 | 7.04692 | 43° | 38km/h | 1184m | -2.3m/s | 9.7°C | 98% | 878.8hPa | 2.8V | 06:43:16 | 03:46:43 | 00:00:00 | |
| BIOWL1-15 | 2026-08-31 03:12:10 | 53.39605 | 7.04681 | 43° | 38km/h | 1186m | -2.4m/s | 9.6°C | 97% | 878.5hPa | 2.8V | 06:43:16 | 03:46:42 | 00:00:00 | |
| DL1XH-west | 2026-08-31 03:12:10 | 53.39619 | 7.04703 | 43° | 38km/h | 1181m | -2.6m/s | 9.7°C | 98.2% | 879hPa | 2.8V | 06:43:16 | 03:46:44 | 00:00:00 | |
| GOEST3-10 | 2026-08-31 03:12:10 | 53.39619 | 7.04703 | 43° | 38km/h | 1181m | -2.5m/s | 9.7°C | 95.2% | 878.9hPa | 2.7V | 00:00:00 | 00:00:00 | 00:00:00 | |
| DM0DOS-11 | 2026-08-31 03:12:09 | 53.39591 | 7.04659 | 45° | 38km/h | 1190m | -2.3m/s | 9.5°C | 94.3% | 877.9hPa | 2.8V | 06:42:42 | 03:46:40 | 00:00:00 | |
| BIOWL1-15 | 2026-08-31 03:12:06 | 53.39591 | 7.04659 | 45° | 38km/h | 1191m | -2.3m/s | 9.5°C | 96.4% | 877.9hPa | 2.8V | 06:43:16 | 03:46:40 | 00:00:00 | |
| BIOWL1-15 | 2026-08-31 03:12:04 | 53.39578 | 7.04636 | 46° | 38km/h | 1195m | -2.3m/s | 9.4°C | 95.8% | 877.4hPa | 2.8V | 06:43:16 | 03:46:38 | 00:00:00 | |
| DM0DOS-11 | 2026-08-31 03:12:03 | 53.39565 | 7.04612 | 47° | 38km/h | 1200m | -2.5m/s | 9.4°C | 93.3% | 877hPa | 2.8V | 06:42:46 | 03:46:36 | 00:00:00 | |
| BIOWL1-15 | 2026-08-31 03:12:03 | 53.39571 | 7.04624 | 47° | 38km/h | 1197m | -2.3m/s | 9.4°C | 95.6% | 877.3hPa | 2.8V | 06:43:16 | 03:46:37 | 00:00:00 | |
| DL1XH-west | 2026-08-31 03:12:02 | 53.39565 | 7.04612 | 48° | 38km/h | 1200m | -2.5m/s | 9.4°C | 95.6% | 877hPa | 2.8V | 06:43:16 | 03:46:36 | 00:00:00 | |
| DL1XH-west | 2026-08-31 03:12:01 | 53.39558 | 7.04600 | 49° | 38km/h | 1202m | -2.4m/s | 9.4°C | 95.7% | 876.6hPa | 2.8V | 06:43:16 | 03:46:35 | 00:00:00 | |
| BIOWL1-15 | 2026-08-31 03:12:00 | 53.39552 | 7.04588 | 48° | 38km/h | 1205m | -2.5m/s | 9.3°C | 95.8% | 876.4hPa | 2.8V | 06:43:16 | 03:46:34 | 00:00:00 | |
| BIOWL1-15 | 2026-08-31 03:11:59 | 53.39546 | 7.04576 | 48° | 38km/h | 1207m | -2.3m/s | 9.3°C | 96.2% | 876.2hPa | 2.8V | 06:43:16 | 03:46:33 | 00:00:00 | |
| BIOWL1-15 | 2026-08-31 03:11:57 | 53.39514 | 7.04517 | 47° | 37km/h | 1219m | -2.4m/s | 9.3°C | 97% | 875.1hPa | 2.8V | 06:43:16 | 03:46:28 | 00:00:00 | |
| GOEST3-10 | 2026-08-31 03:11:57 | 53.39533 | 7.04553 | 49° | 38km/h | 1212m | -2.4m/s | 9.3°C | 93.5% | 875.6hPa | 2.8V | 00:00:00 | 03:46:31 | 00:00:00 | |
| DM0DOS-11 | 2026-08-31 03:11:57 | 53.39514 | 7.04517 | 47° | 37km/h | 1219m | -2.4m/s | 9.3°C | 93.7% | 875.1hPa | 2.8V | 06:42:54 | 03:46:28 | 00:00:00 | |
| DL1XH-west | 2026-08-31 03:11:57 | 53.39533 | 7.04553 | 49° | 38km/h | 1212m | -2.5m/s | 9.4°C | 96.6% | 875.6hPa | 2.7V | 06:43:16 | 03:46:31 | 00:00:00 | |
| DL1XH-west | 2026-08-31 03:11:55 | 53.39520 | 7.04529 | 48° | 38km/h | 1216m | -2.4m/s | 9.3°C | 97% | 875.3hPa | 2.8V | 06:43:16 | 03:46:29 | 00:00:00 | |
| DL1XH-west | 2026-08-31 03:11:53 | 53.39507 | 7.04506 | 47° | 37km/h | 1221m | -2.3m/s | 9.3°C | 97% | 874.7hPa | 2.8V | 06:43:16 | 03:46:27 | 00:00:00 | |
| DL1XH-west | 2026-08-31 03:11:52 | 53.39501 | 7.04494 | 47° | 37km/h | 1223m | -2.4m/s | 9.4°C | 98.3% | 874.5hPa | 2.8V | 06:43:16 | 03:46:26 | 00:00:00 | |
| GOEST3-10 | 2026-08-31 03:11:52 | 53.39501 | 7.04494 | 48° | 37km/h | 1224m | -2.3m/s | 9.4°C | 94.0% | 874.5hPa | 2.7V | 00:00:00 | 00:00:00 | 00:00:00 | |
| DO9FK | 2026-08-31 03:11:51 | 53.39501 | 7.04494 | 48° | 37km/h | 1224m | -2.4m/s | 9.4°C | 92.8% | 874.5hPa | 2.7V | 06:43:00 | 00:00:00 | 00:00:00 | |
| DM0DOS-11 | 2026-08-31 03:11:51 | 53.39475 | 7.04448 | 47° | 38km/h | 1233m | -2.4m/s | 9.2°C | 94.2% | 873.6hPa | 2.7V | 06:43:00 | 03:46:22 | 00:00:00 | |
| BIOWL1-15 | 2026-08-31 03:11:51 | 53.39482 | 7.04459 | 47° | 38km/h | 1230m | -2.5m/s | 9.3°C | 97.9% | 873.7hPa | 2.8V | 06:43:16 | 03:46:23 | 00:00:00 | |
| DL1XH-west | 2026-08-31 03:11:50 | 53.39488 | 7.04471 | 47° | 38km/h | 1228m | -2.3m/s | 9.4°C | 99.6% | 873.9hPa | 2.8V | 06:43:16 | 03:46:24 | 00:00:00 | |
| BIOWL1-15 | 2026-08-31 03:11:48 | 53.39475 | 7.04448 | 47° | 38km/h | 1233m | -2.4m/s | 9.2°C | 98.1% | 873.6hPa | 2.7V | 06:43:16 | 03:46:22 | 00:00:00 | |
| BIOWL1-15 | 2026-08-31 03:11:46 | 53.39462 | 7.04424 | 48° | 38km/h | 1238m | -2.4m/s | 9.1°C | 96.1% | 873.1hPa | 2.8V | 06:43:16 | 03:46:20 | 00:00:00 | |
| DL1XH-west | 2026-08-31 03:11:45 | 53.39455 | 7.04412 | 48° | 38km/h | 1240m | -2.4m/s | 9°C | 95.6% | 872.5hPa | 2.8V | 06:43:16 | 03:46:19 | 00:00:00 | |
| BIOWL1-15 | 2026-08-31 03:11:44 | 53.39449 | 7.04400 | 47° | 38km/h | 1242m | -2.3m/s | 9°C | 95.7% | 872.5hPa | 2.8V | 06:43:16 | 03:46:18 | 00:00:00 | |
| DL1XH-west | 2026-08-31 03:11:43 | 53.39442 | 7.04387 | 48° | 38km/h | 1245m | -2.5m/s | 9°C | 95.8% | 872.2hPa | 2.8V | 06:43:16 | 03:46:17 | 00:00:00 | |
| BIOWL1-15 | 2026-08-31 03:11:42 | 53.39436 | 7.04375 | 47° | 38km/h | 1247m | -2.3m/s | 8.9°C | 95.2% | 872hPa | 2.8V | 06:43:16 | 03:46:16 | 00:00:00 | |
| DL1XH-west | 2026-08-31 03:11:41 | 53.39429 | 7.04363 | 47° | 38km/h | 1249m | -2.3m/s | 8.9°C | 95.2% | 871.8hPa | 2.8V | 06:43:16 | 03:46:15 | 00:00:00 | |
| DL1XH-west | 2026-08-31 03:11:40 | 53.39422 | 7.04352 | 46° | 38km/h | 1252m | -2.3m/s | 8.8°C | 94.7% | 871.5hPa | 2.7V | 06:43:16 | 03:46:14 | 00:00:00 | |
| DL1XH-west | 2026-08-31 03:11:38 | 53.39409 | 7.04329 | 45° | 38km/h | 1256m | -2.3m/s | 8.7°C | 93.7% | 871hPa | 2.8V | 06:43:16 | 03:46:12 | 00:00:00 | |
| BIOWL1-15 | 2026-08-31 03:11:37 | 53.39402 | 7.04317 | 45° | 38km/h | 1259m | -2.4m/s | 8.7°C | 93.6% | 870.7hPa | 2.8V | 06:43:16 | 03:46:11 | 00:00:00 | |
| BIOWL1-15 | 2026-08-31 03:11:36 | 53.39395 | 7.04306 | 44° | 38km/h | 1261m | -2.4m/s | 8.6°C | 92.9% | 870.5hPa | 2.8V | 06:43:16 | 03:46:10 | 00:00:00 | |
| DL1XH-west | 2026-08-31 03:11:35 | 53.39388 | 7.04295 | 45° | 38km/h | 1264m | -2.3m/s | 8.6°C | 92.8% | 870.2hPa | 2.8V | 06:43:16 | 03:46:09 | 00:00:00 | |
| BIOWL1-15 | 2026-08-31 03:11:34 | 53.39342 | 7.04212 | 49° | 38km/h | 1280m | -2.4m/s | 8.5°C | 93.2% | 868.5hPa | 2.8V | 06:44:07 | 03:46:02 | 00:00:00 | |
| GOEST3-10 | 2026-08-31 03:11:34 | 53.39382 | 7.04284 | 46° | 38km/h | 1266m | -2.3m/s | 8.5°C | 91.2% | 870.0hPa | 2.7V | 00:00:00 | 00:00:00 | 00:00:00 | |
| DL1XH-west | 2026-08-31 03:11:34 | 53.39382 | 7.04284 | 46° | 38km/h | 1266m | -2.4m/s | 8.6°C | 92.9% | 870.1hPa | 2.8V | 06:43:16 | 03:46:08 | 00:00:00 | |
| DM0DOS-11 | 2026-08-31 03:11:33 | 53.39342 | 7.04212 | 48° | 38km/h | 1280m | -2.4m/s | 8.5°C | 91.2% | 868.5hPa | 2.8V | 06:43:20 | 03:46:02 | 00:00:00 | |
| DL1XH-west | 2026-08-31 03:11:32 | 53.39368 | 7.04260 | 47° | 38km/h | 1271m | -2.4m/s | 8.5°C | 92.5% | 869.5hPa | 2.7V | 06:43:16 | 03:46:06 | 00:00:00 | |
| DL1XH-west | 2026-08-31 03:11:31 | 53.39362 | 7.04248 | 48° | 38km/h | 1273m | -2.5m/s | 8.5°C | 92.8% | 869.2hPa | 2.8V | 06:44:07 | 03:46:05 | 00:00:00 | |
| DL1XH-west | 2026-08-31 03:11:29 | 53.39349 | 7.04224 | 49° | 38km/h | 1278m | -2.4m/s | 8.5°C | 93% | 868.7hPa | 2.8V | 06:44:07 | 03:46:03 | 00:00:00 | |
| BIOWL1-15 | 2026-08-31 03:11:28 | 53.39330 | 7.04188 | 49° | 38km/h | 1285m | -2.5m/s | 8.5°C | 93.4% | 867.9hPa | 2.8V | 06:44:07 | 03:46:00 | 00:00:00 | |
| GOEST3-10 | 2026-08-31 03:11:28 | 53.39342 | 7.04212 | 49° | 38km/h | 1280m | -2.4m/s | 8.4°C | 91.2% | 868.5hPa | 2.7V | 00:00:00 | 00:00:00 | 00:00:00 | |
| DM0DOS-11 | 2026-08-31 03:11:27 | 53.39317 | 7.04164 | 48° | 37km/h | 1290m | -2.4m/s | 8.4°C | 91.5% | 867.7hPa | 2.7V | 06:43:24 | 03:45:58 | 00:00:00 | |
| DL1XH-west | 2026-08-31 03:11:27 | 53.39336 | 7.04200 | 49° | 38km/h | 1283m | -2.4m/s | 8.5°C | 93.4% | 868.2hPa | 2.8V | 06:44:07 | 03:46:01 | 00:00:00 | |
| DL1XH-west | 2026-08-31 03:11:25 | 53.39324 | 7.04176 | 49° | 38km/h | 1288m | -2.4m/s | 8.4°C | 93.5% | 867.7hPa | 2.8V | 06:44:07 | 03:45:59 | 00:00:00 | |
| BIOWL1-15 | 2026-08-31 03:11:24 | 53.39317 | 7.04164 | 49° | 37km/h | 1290m | -2.4m/s | 8.4°C | 93.4% | 867.7hPa | 2.7V | 06:44:07 | 03:45:58 | 00:00:00 | |
| BIOWL1-15 | 2026-08-31 03:11:23 | 53.39311 | 7.04152 | 49° | 37km/h | 1293m | -2.5m/s | 8.4°C | 93.4% | 867.3hPa | 2.8V | 06:44:07 | 03:45:57 | 00:00:00 | |
| BIOWL1-15 | 2026-08-31 03:11:21 | 53.39292 | 7.04117 | 47° | 37km/h | 1300m | -2.4m/s | 8.4°C | 93.2% | 866.6hPa | 2.8V | 06:44:07 | 03:45:54 | 00:00:00 | |
| DM0DOS-11 | 2026-08-31 03:11:21 | 53.39280 | 7.04095 | 45° | 37km/h | 1305m | -2.4m/s | 8.3°C | 91.6% | 866hPa | 2.8V | 06:43:30 | 03:45:52 | 00:00:00 | |
| DL1XH-west | 2026-08-31 03:11:21 | 53.39299 | 7.04128 | 48° | 37km/h | 1298m | -2.5m/s | 8.4°C | 93.5% | 866.8hPa | 2.8V | 06:44:07 | 03:45:55 | 00:00:00 | |
| DL1XH-west | 2026-08-31 03:11:19 | 53.39286 | 7.04106 | 46° | 37km/h | 1302m | -2.3m/s | 8.4°C | 93.1% | 866.4hPa | 2.8V | 06:44:07 | 03:45:53 | 00:00:00 | |
| DL1XH-west | 2026-08-31 03:11:18 | 53.39280 | 7.04095 | 46° | 37km/h | 1305m | -2.4m/s | 8.3°C | 93.2% | 866hPa | 2.8V | 06:44:07 | 03:45:52 | 00:00:00 | |
| BIOWL1-15 | 2026-08-31 03:11:17 | 53.39267 | 7.04072 | 46° | 37km/h | 1310m | -2.4m/s | 8.3°C | 93.4% | 865.5hPa | 2.7V | 06:44:07 | 03:45:50 | 00:00:00 | |
| DL1XH-west | 2026-08-31 03:11:17 | 53.39273 | 7.04083 | 46° | 37km/h | 1307m | -2.4m/s | 8.3°C | 93.4% | 865.8hPa | 2.8V | 06:44:07 | 03:45:51 | 00:00:00 | |
| DL1XH-west | 2026-08-31 03:11:15 | 53.39260 | 7.04061 | 46° | 37km/h | 1312m | -2.3m/s | 8.3°C | 93.4% | 865.2hPa | 2.8V | 06:44:07 | 03:45:49 | 00:00:00 | |
| DL1XH-west | 2026-08-31 03:11:12 | 53.39241 | 7.04027 | 48° | 37km/h | 1319m | -2.3m/s | 8.2°C | 93.7% | 864.5hPa | 2.8V | 06:44:07 | 03:45:46 | 00:00:00 | |
| DL1XH-west | 2026-08-31 03:11:11 | 53.39234 | 7.04015 | 47° | 38km/h | 1321m | -2.5m/s | 8.2°C | 93.7% | 864.2hPa | 2.8V | 06:44:07 | 03:45:45 | 00:00:00 | |
| DL1XH-west | 2026-08-31 03:11:10 | 53.39228 | 7.04003 | 47° | 38km/h | 1323m | -2.4m/s | 8.2°C | 93.8% | 864hPa | 2.8V | 06:44:07 | 03:45:44 | 00:00:00 | |
| DL1XH-west | 2026-08-31 03:11:08 | 53.39215 | 7.03979 | 48° | 38km/h | 1328m | -2.3m/s | 8.2°C | 93.9% | 863.7hPa | 2.7V | 06:44:07 | 03:45:42 | 00:00:00 | |
| DL1XH-west | 2026-08-31 03:11:07 | 53.39208 | 7.03967 | 48° | 38km/h | 1331m | -2.4m/s | 8.2°C | 94.2% | 863.4hPa | 2.8V | 06:44:07 | 03:45:41 | 00:00:00 | |
| BIOWL1-15 | 2026-08-31 03:11:05 | 53.39195 | 7.03943 | 49° | 38km/h | 1335m | -2.3m/s | 8.1°C | 94.3% | 862.9hPa | 2.8V | 06:44:07 | 03:45:39 | 00:00:00 | |
| DL1XH-west | 2026-08-31 03:11:04 | 53.39189 | 7.03930 | 49° | 38km/h | 1337m | -2.4m/s | 8.1°C | 94.3% | 862.6hPa | 2.8V | 06:44:07 | 03:45:38 | 00:00:00 | |
| BIOWL1-15 | 2026-08-31 03:11:03 | 53.39170 | 7.03893 | 49° | 38km/h | 1345m | -2.3m/s | 8.1°C | 94.6% | 861.9hPa | 2.8V | 06:44:07 | 03:45:35 | 00:00:00 | |
| DL1XH-west | 2026-08-31 03:11:02 | 53.39176 | 7.03906 | 50° | 38km/h | 1342m | -2.4m/s | 8.1°C | 94.4% | 862.2hPa | 2.8V | 06:44:07 | 03:45:36 | 00:00:00 | |
| DL1XH-west | 2026-08-31 03:11:00 | 53.39164 | 7.03881 | 50° | 38km/h | 1347m | -2.5m/s | 8.1°C | 94.5% | 861.6hPa | 2.7V | 06:44:07 | 03:45:34 | 00:00:00 | |
| BIOWL1-15 | 2026-08-31 03:10:59 | 53.39158 | 7.03869 | 50° | 37km/h | 1350m | -2.4m/s | 8.1°C | 94.7% | 861.4hPa | 2.8V | 06:44:07 | 03:45:33 | 00:00:00 | |
| DL1XH-west | 2026-08-31 03:10:58 | 53.39152 | 7.03857 | 50° | 37km/h | 1352m | -2.4m/s | 8°C | 94.8% | 861.2hPa | 2.8V | 06:44:07 | 03:45:32 | 00:00:00 | |
| BIOWL1-15 | 2026-08-31 03:10:57 | 53.39146 | 7.03845 | 50° | 37km/h | 1355m | -2.4m/s | 8°C | 94.9% | 861hPa | 2.8V | 06:44:07 | 03:45:31 | 00:00:00 | |
| DL1XH-west | 2026-08-31 03:10:56 | 53.39140 | 7.03834 | 50° | 37km/h | 1357m | -2.5m/s | 8°C | 94.9% | 860.7hPa | 2.8V | 06:44:07 | 03:45:30 | 00:00:00 | |
| DL1XH-west | 2026-08-31 03:10:55 | 53.39134 | 7.03822 | 50° | 37km/h | 1359m | -2.6m/s | 8°C | 94.8% | 860.4hPa | 2.8V | 06:44:07 | 03:45:29 | 00:00:00 | |
| DL1XH-west | 2026-08-31 03:10:53 | 53.39122 | 7.03799 | 49° | 37km/h | 1364m | -2.4m/s | 8°C | 94.7% | 859.8hPa | 2.8V | 06:44:07 | 03:45:27 | 00:00:00 | |
| DL1XH-west | 2026-08-31 03:10:51 | 53.39110 | 7.03775 | 48° | 37km/h | 1369m | -2.4m/s | 7.9°C | 94.2% | 859.5hPa | 2.8V | 06:44:07 | 03:45:25 | 00:00:00 | |
| BIOWL1-15 | 2026-08-31 03:10:50 | 53.39103 | 7.03763 | 46° | 38km/h | 1371m | -2.4m/s | 7.9°C | 94.2% | 859.2hPa | 2.8V | 06:44:07 | 03:45:24 | 00:00:00 | |
| DL1XH-west | 2026-08-31 03:10:49 | 53.39097 | 7.03752 | 46° | 38km/h | 1374m | -2.5m/s | 7.9°C | 94.1% | 859hPa | 2.8V | 06:44:07 | 03:45:23 | 00:00:00 | |
| BIOWL1-15 | 2026-08-31 03:10:48 | 53.39077 | 7.03718 | 44° | 38km/h | 1381m | -2.4m/s | 7.9°C | 94.3% | 858.2hPa | 2.8V | 06:44:07 | 03:45:20 | 00:00:00 | |
| DL1XH-west | 2026-08-31 03:10:47 | 53.39083 | 7.03729 | 45° | 38km/h | 1379m | -2.3m/s | 7.9°C | 94.1% | 858.4hPa | 2.8V | 06:44:07 | 03:45:21 | 00:00:00 | |
| HTAHTA | 2026-08-31 03:10:45 | 53.39070 | 7.03707 | 43° | 37km/h | 1383m | -2.4m/s | 7.9°C | 92.3% | 857.9hPa | 2.8V | 00:00:00 | 00:00:00 | 00:00:00 | |
| DM0DOS-11 | 2026-08-31 03:10:45 | 53.39035 | 7.03653 | 42° | 38km/h | 1395m | -2.3m/s | 7.9°C | 94.6% | 856.7hPa | 2.8V | 06:44:08 | 03:45:14 | 00:00:00 | |
| DL1XH-west | 2026-08-31 03:10:45 | 53.39070 | 7.03707 | 43° | 38km/h | 1383m | -2.4m/s | 7.9°C | 94.4% | 857.9hPa | 2.8V | 06:44:07 | 03:45:19 | 00:00:00 | |
| BIOWL1-15 | 2026-08-31 03:10:44 | 53.39063 | 7.03696 | 43° | 38km/h | 1386m | -2.3m/s | 7.8°C | 94.4% | 857.6hPa | 2.7V | 06:44:07 | 03:45:18 | 00:00:00 | |
| BIOWL1-15 | 2026-08-31 03:10:43 | 53.39056 | 7.03685 | 43° | 37km/h | 1388m | -2.2m/s | 7.8°C | 94.6% | 857.4hPa | 2.8V | 06:44:07 | 03:45:17 | 00:00:00 | |
| BIOWL1-15 | 2026-08-31 03:10:42 | 53.39049 | 7.03674 | 42° | 38km/h | 1390m | -2.3m/s | 7.8°C | 94.7% | 857.2hPa | 2.8V | 06:44:07 | 03:45:16 | 00:00:00 | |
| DL1XH-west | 2026-08-31 03:10:41 | 53.39042 | 7.03664 | 41° | 38km/h | 1393m | -2.4m/s | 7.8°C | 94.9% | 856.9hPa | 2.8V | 06:44:07 | 03:45:15 | 00:00:00 | |
| BIOWL1-15 | 2026-08-31 03:10:40 | 53.39020 | 7.03631 | 42° | 38km/h | 1399m | -2.3m/s | 7.8°C | 95.8% | 856.3hPa | 2.8V | 06:44:58 | 03:45:12 | 00:00:00 | |
| DL1XH-west | 2026-08-31 03:10:40 | 53.39035 | 7.03653 | 42° | 38km/h | 1395m | -2.3m/s | 7.9°C | 95.8% | 856.7hPa | 2.8V | 06:44:58 | 03:45:14 | 00:00:00 | |
| DL1XH-west | 2026-08-31 03:10:39 | 53.39027 | 7.03642 | 42° | 38km/h | 1397m | -2.3m/s | 7.8°C | 95.5% | 856.5hPa | 2.8V | 06:44:58 | 03:45:13 | 00:00:00 | |
| DL1XH-west | 2026-08-31 03:10:37 | 53.39013 | 7.03621 | 42° | 38km/h | 1402m | -2.4m/s | 7.8°C | 95.4% | 855.9hPa | 2.8V | 06:44:58 | 03:45:11 | 00:00:00 | |
| BIOWL1-15 | 2026-08-31 03:10:36 | 53.39006 | 7.03610 | 43° | 38km/h | 1404m | -2.5m/s | 8°C | 97% | 855.8hPa | 2.7V | 06:44:58 | 03:45:10 | 00:00:00 | |
| BIOWL1-15 | 2026-08-31 03:10:35 | 53.38999 | 7.03599 | 43° | 38km/h | 1407m | -2.4m/s | 8°C | 98% | 855.5hPa | 2.8V | 06:44:58 | 03:45:09 | 00:00:00 | |
| BIOWL1-15 | 2026-08-31 03:10:33 | 53.38985 | 7.03577 | 43° | 38km/h | 1411m | -2.6m/s | 7.9°C | 98.1% | 855.1hPa | 2.8V | 06:44:58 | 03:45:07 | 00:00:00 | |
| BIOWL1-15 | 2026-08-31 03:10:31 | 53.38964 | 7.03545 | 43° | 38km/h | 1418m | -2.3m/s | 8°C | 99.7% | 854.4hPa | 2.8V | 06:44:58 | 03:45:04 | 00:00:00 | |
| DL1XH-west | 2026-08-31 03:10:31 | 53.38971 | 7.03555 | 43° | 37km/h | 1416m | -2.2m/s | 8°C | 98.9% | 854.5hPa | 2.8V | 06:44:58 | 03:45:05 | 00:00:00 | |
| DL1XH-west | 2026-08-31 03:10:29 | 53.38957 | 7.03534 | 42° | 37km/h | 1421m | -2.4m/s | 8°C | 99.8% | 854.1hPa | 2.7V | 06:44:58 | 03:45:03 | 00:00:00 | |
| DL1XH-west | 2026-08-31 03:10:27 | 53.38943 | 7.03513 | 42° | 37km/h | 1425m | -2.3m/s | 7.9°C | 99.8% | 853.7hPa | 2.8V | 06:44:58 | 03:45:01 | 00:00:00 | |
| DL1XH-west | 2026-08-31 03:10:26 | 53.38936 | 7.03502 | 42° | 37km/h | 1428m | -2.3m/s | 7.8°C | 98.9% | 853.4hPa | 2.8V | 06:44:58 | 03:45:00 | 00:00:00 | |
| DL1XH-west | 2026-08-31 03:10:24 | 53.38922 | 7.03481 | 42° | 37km/h | 1432m | -2.5m/s | 7.7°C | 97.5% | 852.8hPa | 2.8V | 06:44:58 | 03:44:58 | 00:00:00 | |
| DL1XH-west | 2026-08-31 03:10:23 | 53.38915 | 7.03471 | 42° | 37km/h | 1435m | -2.4m/s | 7.7°C | 97.4% | 852.6hPa | 2.8V | 06:44:58 | 03:44:57 | 00:00:00 | |
| DL1XH-west | 2026-08-31 03:10:21 | 53.38901 | 7.03450 | 42° | 38km/h | 1439m | -2.3m/s | 7.7°C | 97.3% | 852.1hPa | 2.7V | 06:44:58 | 03:44:55 | 00:00:00 | |
| DL1XH-west | 2026-08-31 03:10:19 | 53.38887 | 7.03429 | 42° | 38km/h | 1444m | -2.2m/s | 7.7°C | 97.7% | 851.6hPa | 2.8V | 06:44:58 | 03:44:53 | 00:00:00 | |
| BIOWL1-15 | 2026-08-31 03:10:19 | 53.38873 | 7.03407 | 42° | 38km/h | 1448m | -2.4m/s | 7.5°C | 96.5% | 851.4hPa | 2.8V | 06:44:58 | 03:44:51 | 00:00:00 | |
| DL1XH-west | 2026-08-31 03:10:18 | 53.38880 | 7.03418 | 41° | 38km/h | 1446m | -2.3m/s | 7.6°C | 97% | 851.5hPa | 2.8V | 06:44:58 | 03:44:52 | 00:00:00 | |
| DL1XH-west | 2026-08-31 03:10:16 | 53.38866 | 7.03397 | 42° | 38km/h | 1451m | -2.2m/s | 7.5°C | 95.9% | 850.9hPa | 2.8V | 06:44:58 | 03:44:50 | 00:00:00 | |
| DL1XH-west | 2026-08-31 03:10:15 | 53.38858 | 7.03386 | 41° | 38km/h | 1453m | -2.3m/s | 7.5°C | 95.6% | 850.8hPa | 2.8V | 06:44:58 | 03:44:49 | 00:00:00 | |
| DL1XH-west | 2026-08-31 03:10:14 | 53.38851 | 7.03376 | 41° | 38km/h | 1455m | -2.2m/s | 7.5°C | 95.7% | 850.6hPa | 2.7V | 06:44:58 | 03:44:48 | 00:00:00 | |
| DL1XH-west | 2026-08-31 03:10:13 | 53.38844 | 7.03365 | 41° | 38km/h | 1457m | -2.2m/s | 7.5°C | 95.7% | 850.4hPa | 2.8V | 06:44:58 | 03:44:47 | 00:00:00 | |
| BIOWL1-15 | 2026-08-31 03:10:11 | 53.38822 | 7.03333 | 42° | 38km/h | 1464m | -2.5m/s | 7.4°C | 95.9% | 849.6hPa | 2.8V | 06:44:58 | 03:44:44 | 00:00:00 | |
| DL1XH-west | 2026-08-31 03:10:11 | 53.38829 | 7.03344 | 42° | 38km/h | 1462m | -2.4m/s | 7.4°C | 95.5% | 849.8hPa | 2.8V | 06:44:58 | 03:44:45 | 00:00:00 | |
| DL1XH-west | 2026-08-31 03:10:09 | 53.38815 | 7.03322 | 42° | 38km/h | 1467m | -2.2m/s | 7.4°C | 95.8% | 849.3hPa | 2.8V | 06:44:58 | 03:44:43 | 00:00:00 | |
| BIOWL1-15 | 2026-08-31 03:10:07 | 53.38793 | 7.03288 | 42° | 38km/h | 1473m | -2.2m/s | 7.4°C | 95.5% | 848.6hPa | 2.7V | 06:44:58 | 03:44:40 | 00:00:00 | |
| DL1XH-west | 2026-08-31 03:10:07 | 53.38800 | 7.03299 | 42° | 38km/h | 1471m | -2.2m/s | 7.4°C | 95.9% | 848.8hPa | 2.8V | 06:44:58 | 03:44:41 | 00:00:00 | |
| DL1XH-west | 2026-08-31 03:10:05 | 53.38785 | 7.03277 | 42° | 38km/h | 1476m | -2.3m/s | 7.4°C | 95.6% | 848.4hPa | 2.8V | 06:44:58 | 03:44:39 | 00:00:00 | |
| DL1XH-west | 2026-08-31 03:10:04 | 53.38778 | 7.03266 | 42° | 38km/h | 1478m | -2.3m/s | 7.3°C | 95.5% | 848.2hPa | 2.8V | 06:44:58 | 03:44:38 | 00:00:00 | |
| DM0DOS-11 | 2026-08-31 03:10:03 | 53.38736 | 7.03199 | 43° | 38km/h | 1492m | -2.3m/s | 7.2°C | 93.6% | 846.7hPa | 2.8V | 06:44:50 | 03:44:32 | 00:00:00 | |
| BIOWL1-15 | 2026-08-31 03:10:03 | 53.38771 | 7.03255 | 43° | 38km/h | 1480m | -2.3m/s | 7.3°C | 95.5% | 847.8hPa | 2.8V | 06:44:58 | 03:44:37 | 00:00:00 | |
| DL1XH-west | 2026-08-31 03:10:02 | 53.38763 | 7.03244 | 43° | 38km/h | 1483m | -2.3m/s | 7.3°C | 95.4% | 847.7hPa | 2.8V | 06:44:58 | 03:44:36 | 00:00:00 | |
| DL1XH-west | 2026-08-31 03:10:01 | 53.38756 | 7.03233 | 43° | 38km/h | 1485m | -2.3m/s | 7.3°C | 95.4% | 847.4hPa | 2.8V | 06:44:58 | 03:44:35 | 00:00:00 | |
| BIOWL1-15 | 2026-08-31 03:10:00 | 53.38749 | 7.03222 | 44° | 38km/h | 1487m | -2.2m/s | 7.2°C | 95.3% | 847.1hPa | 2.8V | 06:44:58 | 03:44:34 | 00:00:00 | |
| DL1XH-west | 2026-08-31 03:09:59 | 53.38742 | 7.03210 | 44° | 38km/h | 1489m | -2.4m/s | 7.2°C | 94.9% | 846.9hPa | 2.7V | 06:44:58 | 03:44:33 | 00:00:00 | |
| BIOWL1-15 | 2026-08-31 03:09:57 | 53.38707 | 7.03155 | 43° | 38km/h | 1501m | -2.4m/s | 7.1°C | 94.2% | 845.8hPa | 2.8V | 06:44:58 | 03:44:28 | 00:00:00 | |
| DM0DOS-11 | 2026-08-31 03:09:57 | 53.38721 | 7.03177 | 43° | 38km/h | 1496m | -2.4m/s | 7.1°C | 92.8% | 846.2hPa | 2.8V | 06:44:52 | 03:44:30 | 00:00:00 | |
| DM0DOS-11 | 2026-08-31 03:09:57 | 53.38707 | 7.03155 | 42° | 38km/h | 1501m | -2.4m/s | 7.1°C | 93.1% | 845.8hPa | 2.8V | 06:44:54 | 03:44:28 | 00:00:00 | |
| DL1XH-west | 2026-08-31 03:09:57 | 53.38728 | 7.03188 | 44° | 38km/h | 1494m | -2.3m/s | 7.1°C | 93.5% | 846.5hPa | 2.8V | 06:44:58 | 03:44:31 | 00:00:00 | |
| DL1XH-west | 2026-08-31 03:09:55 | 53.38714 | 7.03166 | 43° | 38km/h | 1499m | -2.2m/s | 7.1°C | 93.7% | 845.9hPa | 2.8V | 06:44:58 | 03:44:29 | 00:00:00 | |
| DL1XH-west | 2026-08-31 03:09:53 | 53.38700 | 7.03144 | 43° | 38km/h | 1503m | -2.4m/s | 7.2°C | 95% | 845.5hPa | 2.8V | 06:44:58 | 03:44:27 | 00:00:00 | |
| DL1XH-west | 2026-08-31 03:09:51 | 53.38686 | 7.03122 | 42° | 38km/h | 1508m | -2.2m/s | 7.2°C | 96.4% | 845hPa | 2.8V | 06:44:58 | 03:44:25 | 00:00:00 | |
| BIOWL1-15 | 2026-08-31 03:09:50 | 53.38678 | 7.03111 | 41° | 38km/h | 1510m | -2.3m/s | 7.2°C | 96.3% | 844.8hPa | 2.8V | 06:44:58 | 03:44:24 | 00:00:00 | |
| DL1XH-west | 2026-08-31 03:09:49 | 53.38671 | 7.03100 | 41° | 38km/h | 1513m | -2.3m/s | 7.2°C | 96.6% | 844.6hPa | 2.8V | 06:45:49 | 03:44:23 | 00:00:00 | |
| BIOWL1-15 | 2026-08-31 03:09:48 | 53.38663 | 7.03089 | 42° | 40km/h | 1515m | -2.4m/s | 7.2°C | 96.2% | 844.3hPa | 2.8V | 06:45:49 | 03:44:22 | 00:00:00 | |
| BIOWL1-15 | 2026-08-31 03:09:47 | 53.38656 | 7.03078 | 42° | 40km/h | 1517m | -2.4m/s | 7.1°C | 96% | 844.1hPa | 2.8V | 06:45:49 | 03:44:21 | 00:00:00 | |
| DL1XH-west | 2026-08-31 03:09:46 | 53.38649 | 7.03066 | 43° | 38km/h | 1519m | -2.3m/s | 7.2°C | 96.6% | 843.9hPa | 2.8V | 06:45:49 | 03:44:20 | 00:00:00 | |
| DM0DOS-11 | 2026-08-31 03:09:45 | 53.38634 | 7.03044 | 43° | 38km/h | 1524m | -2.3m/s | 7.2°C | 94.9% | 843.4hPa | 2.7V | 06:45:04 | 03:44:18 | 00:00:00 | |
| DL1XH-west | 2026-08-31 03:09:45 | 53.38641 | 7.03055 | 43° | 40km/h | 1522m | -2.5m/s | 7.2°C | 96.9% | 843.6hPa | 2.8V | 06:45:49 | 03:44:19 | 00:00:00 | |
| BIOWL1-15 | 2026-08-31 03:09:44 | 53.38634 | 7.03044 | 44° | 38km/h | 1524m | -2.3m/s | 7.2°C | 96.9% | 843.4hPa | 2.7V | 06:45:49 | 03:44:18 | 00:00:00 | |
| BIOWL1-15 | 2026-08-31 03:09:42 | 53.38620 | 7.03021 | 44° | 38km/h | 1529m | -2.3m/s | 7.1°C | 96.8% | 842.9hPa | 2.8V | 06:45:49 | 03:44:16 | 00:00:00 | |
| DL1XH-west | 2026-08-31 03:09:40 | 53.38606 | 7.02997 | 45° | 38km/h | 1533m | -2.3m/s | 7.1°C | 96.7% | 842.4hPa | 2.8V | 06:45:49 | 03:44:14 | 00:00:00 | |
| GOEST3-10 | 2026-08-31 03:09:40 | 53.38606 | 7.02997 | 45° | 38km/h | 1533m | -2.3m/s | 7.0°C | 94.6% | 842.4hPa | 2.7V | 06:45:00 | 00:00:00 | 00:00:00 | |
| DM0DOS-11 | 2026-08-31 03:09:39 | 53.38577 | 7.02952 | 41° | 38km/h | 1542m | -2.4m/s | 6.9°C | 94.3% | 841.6hPa | 2.8V | 06:45:12 | 03:44:10 | 00:00:00 | |
| DM0DOS-11 | 2026-08-31 03:09:39 | 53.38562 | 7.02931 | 40° | 38km/h | 1547m | -2.3m/s | 6.9°C | 94.2% | 841.1hPa | 2.8V | 06:45:14 | 03:44:08 | 00:00:00 | |
| DL1XH-west | 2026-08-31 03:09:38 | 53.38591 | 7.02975 | 44° | 38km/h | 1538m | -2.2m/s | 7°C | 95.8% | 842hPa | 2.8V | 06:45:49 | 03:44:12 | 00:00:00 | |
| DL1XH-west | 2026-08-31 03:09:37 | 53.38584 | 7.02963 | 43° | 38km/h | 1540m | -2.3m/s | 7°C | 95.6% | 841.8hPa | 2.7V | 06:45:49 | 03:44:11 | 00:00:00 | |
| BIOWL1-15 | 2026-08-31 03:09:36 | 53.38577 | 7.02952 | 42° | 38km/h | 1542m | -2.4m/s | 6.9°C | 95.7% | 841.6hPa | 2.8V | 06:45:49 | 03:44:10 | 00:00:00 | |
| DL1XH-west | 2026-08-31 03:09:35 | 53.38570 | 7.02941 | 41° | 38km/h | 1545m | -2.4m/s | 6.9°C | 95.8% | 841.2hPa | 2.8V | 06:45:49 | 03:44:09 | 00:00:00 | |
| BIOWL1-15 | 2026-08-31 03:09:34 | 53.38540 | 7.02898 | 40° | 40km/h | 1554m | -2.3m/s | 6.8°C | 95.2% | 840.4hPa | 2.8V | 06:45:49 | 03:44:05 | 00:00:00 | |
| DL1XH-west | 2026-08-31 03:09:33 | 53.38555 | 7.02920 | 41° | 38km/h | 1550m | -2.3m/s | 6.9°C | 95.6% | 840.8hPa | 2.8V | 06:45:49 | 03:44:07 | 00:00:00 | |
| DL1XH-west | 2026-08-31 03:09:32 | 53.38547 | 7.02909 | 41° | 38km/h | 1552m | -2.4m/s | 6.9°C | 95.5% | 840.7hPa | 2.8V | 06:45:49 | 03:44:06 | 00:00:00 | |
| DL1XH-west | 2026-08-31 03:09:30 | 53.38532 | 7.02888 | 40° | 40km/h | 1557m | -2.5m/s | 6.8°C | 95.1% | 840hPa | 2.7V | 06:45:49 | 03:44:04 | 00:00:00 | |
| DL1XH-west | 2026-08-31 03:09:28 | 53.38517 | 7.02866 | 39° | 40km/h | 1561m | -2.3m/s | 6.8°C | 95% | 839.7hPa | 2.8V | 06:45:49 | 03:44:02 | 00:00:00 | |
| DL1XH-west | 2026-08-31 03:09:27 | 53.38509 | 7.02856 | 39° | 40km/h | 1564m | -2.2m/s | 6.8°C | 95% | 839.4hPa | 2.8V | 06:45:49 | 03:44:01 | 00:00:00 | |
| BIOWL1-15 | 2026-08-31 03:09:26 | 53.38477 | 7.02814 | 37° | 40km/h | 1573m | -2.2m/s | 6.7°C | 95.3% | 838.5hPa | 2.7V | 06:45:49 | 03:43:57 | 00:00:00 | |
| DL1XH-west | 2026-08-31 03:09:25 | 53.38493 | 7.02835 | 38° | 40km/h | 1569m | -2.5m/s | 6.7°C | 95.2% | 838.9hPa | 2.8V | 06:45:49 | 03:43:59 | 00:00:00 | |
| DL1XH-west | 2026-08-31 03:09:24 | 53.38485 | 7.02824 | 38° | 40km/h | 1571m | -2.3m/s | 6.7°C | 95.2% | 838.7hPa | 2.8V | 06:45:49 | 03:43:58 | 00:00:00 | |
| DL1XH-west | 2026-08-31 03:09:22 | 53.38469 | 7.02803 | 37° | 40km/h | 1576m | -2.4m/s | 6.7°C | 95.3% | 838.2hPa | 2.8V | 06:45:49 | 03:43:56 | 00:00:00 | |
| DL1XH-west | 2026-08-31 03:09:20 | 53.38452 | 7.02782 | 38° | 42km/h | 1580m | -2.2m/s | 6.7°C | 95.3% | 837.9hPa | 2.8V | 06:45:49 | 03:43:54 | 00:00:00 | |
| DL1XH-west | 2026-08-31 03:09:18 | 53.38436 | 7.02761 | 37° | 42km/h | 1585m | -2.3m/s | 6.6°C | 95.2% | 837.3hPa | 2.8V | 06:45:49 | 03:43:52 | 00:00:00 | |
| BIOWL1-15 | 2026-08-31 03:09:17 | 53.38427 | 7.02750 | 38° | 42km/h | 1587m | -2.4m/s | 6.6°C | 94.9% | 837hPa | 2.8V | 06:45:49 | 03:43:51 | 00:00:00 | |
| DL1XH-west | 2026-08-31 03:09:16 | 53.38419 | 7.02739 | 37° | 42km/h | 1590m | -2.4m/s | 6.6°C | 94.8% | 836.9hPa | 2.7V | 06:45:49 | 03:43:50 | 00:00:00 | |
| BIOWL1-15 | 2026-08-31 03:09:15 | 53.38411 | 7.02729 | 36° | 40km/h | 1592m | -2.4m/s | 6.6°C | 95% | 836.5hPa | 2.8V | 06:45:49 | 03:43:49 | 00:00:00 | |
| DL1XH-west | 2026-08-31 03:09:14 | 53.38402 | 7.02718 | 37° | 42km/h | 1594m | -2.2m/s | 6.6°C | 95.4% | 836.4hPa | 2.8V | 06:45:49 | 03:43:48 | 00:00:00 | |
| BIOWL1-15 | 2026-08-31 03:09:13 | 53.38394 | 7.02708 | 38° | 42km/h | 1596m | -2.4m/s | 6.7°C | 95.5% | 836.2hPa | 2.8V | 06:45:49 | 03:43:47 | 00:00:00 | |
| DL1XH-west | 2026-08-31 03:09:12 | 53.38385 | 7.02697 | 37° | 42km/h | 1599m | -2.2m/s | 6.7°C | 96% | 835.9hPa | 2.8V | 06:45:49 | 03:43:46 | 00:00:00 | |
| BIOWL1-15 | 2026-08-31 03:09:11 | 53.38377 | 7.02686 | 38° | 42km/h | 1601m | -2.1m/s | 6.8°C | 97% | 835.8hPa | 2.8V | 06:45:49 | 03:43:45 | 00:00:00 | |
| DL1XH-west | 2026-08-31 03:09:10 | 53.38369 | 7.02675 | 38° | 42km/h | 1603m | -2.2m/s | 6.8°C | 97.1% | 835.5hPa | 2.8V | 06:45:49 | 03:43:44 | 00:00:00 | |
| DL1XH-west | 2026-08-31 03:09:09 | 53.38361 | 7.02664 | 38° | 42km/h | 1605m | -2.3m/s | 6.8°C | 97.3% | 835.3hPa | 2.7V | 06:45:49 | 03:43:43 | 00:00:00 | |
| BIOWL1-15 | 2026-08-31 03:09:07 | 53.38328 | 7.02620 | 40° | 42km/h | 1615m | -2.3m/s | 6.7°C | 97.8% | 834.3hPa | 2.8V | 06:45:49 | 03:43:39 | 00:00:00 | |
| DL1XH-west | 2026-08-31 03:09:07 | 53.38344 | 7.02642 | 39° | 42km/h | 1610m | -2.4m/s | 6.8°C | 97.7% | 834.8hPa | 2.8V | 06:45:49 | 03:43:41 | 00:00:00 | |
| DL1XH-west | 2026-08-31 03:09:06 | 53.38336 | 7.02631 | 39° | 42km/h | 1612m | -2.3m/s | 6.7°C | 97.6% | 834.5hPa | 2.8V | 06:45:49 | 03:43:40 | 00:00:00 | |
| DL1XH-west | 2026-08-31 03:09:04 | 53.38320 | 7.02609 | 40° | 42km/h | 1617m | -2.4m/s | 6.7°C | 97.8% | 834.2hPa | 2.8V | 06:45:49 | 03:43:38 | 00:00:00 | |
| GOEST3-10 | 2026-08-31 03:09:04 | 53.38319 | 7.02608 | 41° | 42km/h | 1617m | -2.3m/s | 6.7°C | 96.3% | 834.1hPa | 2.7V | 00:00:00 | 00:00:00 | 00:00:00 | |
| DM0DOS-11 | 2026-08-31 03:09:03 | 53.38288 | 7.02564 | 40° | 40km/h | 1626m | -2.5m/s | 6.6°C | 96.3% | 833.1hPa | 2.8V | 06:45:48 | 03:43:34 | 00:00:00 | |
| DL1XH-west | 2026-08-31 03:09:03 | 53.38312 | 7.02597 | 41° | 42km/h | 1619m | -2.4m/s | 6.7°C | 97.6% | 833.8hPa | 2.8V | 06:45:49 | 03:43:37 | 00:00:00 | |
| DL1XH-west | 2026-08-31 03:09:01 | 53.38296 | 7.02575 | 40° | 42km/h | 1624m | -2.2m/s | 6.7°C | 97.7% | 833.4hPa | 2.8V | 06:45:49 | 03:43:35 | 00:00:00 | |
| BIOWL1-15 | 2026-08-31 03:09:00 | 53.38288 | 7.02564 | 40° | 40km/h | 1626m | -2.5m/s | 6.6°C | 97.7% | 833.1hPa | 2.8V | 06:45:49 | 03:43:34 | 00:00:00 | |
| DL1XH-west | 2026-08-31 03:08:59 | 53.38280 | 7.02553 | 40° | 40km/h | 1629m | -2.4m/s | 6.6°C | 97.7% | 832.9hPa | 2.8V | 06:45:49 | 03:43:33 | 00:00:00 | |
| BIOWL1-15 | 2026-08-31 03:08:58 | 53.38272 | 7.02541 | 39° | 42km/h | 1631m | -2.3m/s | 6.6°C | 97.6% | 832.6hPa | 2.8V | 06:46:40 | 03:43:32 | 00:00:00 | |
| DM0DOS-11 | 2026-08-31 03:08:57 | 53.38256 | 7.02520 | 38° | 42km/h | 1636m | -2.4m/s | 6.6°C | 96.3% | 832.1hPa | 2.8V | 06:45:52 | 03:43:30 | 00:00:00 | |
| BIOWL1-15 | 2026-08-31 03:08:57 | 53.38264 | 7.02531 | 39° | 42km/h | 1633m | -2.3m/s | 6.6°C | 97.7% | 832.4hPa | 2.8V | 06:46:40 | 03:43:31 | 00:00:00 | |
| DL1XH-west | 2026-08-31 03:08:56 | 53.38256 | 7.02520 | 39° | 42km/h | 1636m | -2.4m/s | 6.6°C | 97.7% | 832.1hPa | 2.8V | 06:46:40 | 03:43:30 | 00:00:00 | |
| DL1XH-west | 2026-08-31 03:08:55 | 53.38248 | 7.02509 | 38° | 42km/h | 1638m | -2.3m/s | 6.6°C | 97.7% | 831.9hPa | 2.7V | 06:46:40 | 03:43:29 | 00:00:00 | |
| BIOWL1-15 | 2026-08-31 03:08:53 | 53.38214 | 7.02466 | 38° | 42km/h | 1647m | -2.2m/s | 6.5°C | 97.9% | 831.1hPa | 2.8V | 06:46:40 | 03:43:25 | 00:00:00 | |
| DL1XH-west | 2026-08-31 03:08:53 | 53.38231 | 7.02487 | 38° | 42km/h | 1643m | -2.4m/s | 6.5°C | 97.8% | 831.5hPa | 2.8V | 06:46:40 | 03:43:27 | 00:00:00 | |
| DL1XH-west | 2026-08-31 03:08:52 | 53.38223 | 7.02477 | 37° | 42km/h | 1645m | -2.3m/s | 6.5°C | 98% | 831.3hPa | 2.8V | 06:46:40 | 03:43:26 | 00:00:00 | |
| DL1XH-west | 2026-08-31 03:08:50 | 53.38206 | 7.02455 | 38° | 42km/h | 1650m | -2.5m/s | 6.5°C | 98.1% | 830.9hPa | 2.8V | 06:46:40 | 03:43:24 | 00:00:00 | |
| BIOWL1-15 | 2026-08-31 03:08:49 | 53.38189 | 7.02433 | 38° | 42km/h | 1654m | -2.3m/s | 6.5°C | 98.4% | 830.4hPa | 2.7V | 06:46:40 | 03:43:22 | 00:00:00 | |
| DL1XH-west | 2026-08-31 03:08:49 | 53.38197 | 7.02444 | 38° | 42km/h | 1652m | -2.3m/s | 6.5°C | 98.2% | 830.6hPa | 2.8V | 06:46:40 | 03:43:23 | 00:00:00 | |
| DL1XH-west | 2026-08-31 03:08:47 | 53.38181 | 7.02422 | 39° | 42km/h | 1657m | -2.4m/s | 6.5°C | 98.3% | 830.1hPa | 2.8V | 06:46:40 | 03:43:21 | 00:00:00 | |
| DL1XH-west | 2026-08-31 03:08:46 | 53.38173 | 7.02411 | 40° | 42km/h | 1659m | -2.3m/s | 6.5°C | 98.3% | 829.8hPa | 2.8V | 06:46:40 | 03:43:20 | 00:00:00 | |
| BIOWL1-15 | 2026-08-31 03:08:45 | 53.38149 | 7.02377 | 41° | 40km/h | 1666m | -2.3m/s | 6.4°C | 97.7% | 829.1hPa | 2.8V | 06:46:40 | 03:43:17 | 00:00:00 | |
| DL1XH-west | 2026-08-31 03:08:44 | 53.38157 | 7.02389 | 41° | 42km/h | 1664m | -2.4m/s | 6.4°C | 97.8% | 829.3hPa | 2.8V | 06:46:40 | 03:43:18 | 00:00:00 | |
| DL1XH-west | 2026-08-31 03:08:42 | 53.38141 | 7.02366 | 41° | 40km/h | 1668m | -2.3m/s | 6.4°C | 97.9% | 828.9hPa | 2.8V | 06:46:40 | 03:43:16 | 00:00:00 | |
| DL1XH-west | 2026-08-31 03:08:40 | 53.38126 | 7.02343 | 41° | 40km/h | 1673m | -2.4m/s | 6.4°C | 99% | 828.4hPa | 2.8V | 06:46:40 | 03:43:14 | 00:00:00 | |
| DL1XH-west | 2026-08-31 03:08:39 | 53.38118 | 7.02331 | 42° | 42km/h | 1675m | -2.5m/s | 6.4°C | 98.9% | 828.2hPa | 2.8V | 06:46:40 | 03:43:13 | 00:00:00 | |
| DL1XH-west | 2026-08-31 03:08:38 | 53.38110 | 7.02320 | 42° | 40km/h | 1678m | -2.4m/s | 6.4°C | 98.6% | 828hPa | 2.8V | 06:46:40 | 03:43:12 | 00:00:00 | |
| DL1XH-west | 2026-08-31 03:08:37 | 53.38102 | 7.02308 | 42° | 42km/h | 1680m | -2.5m/s | 6.4°C | 98.7% | 827.8hPa | 2.7V | 06:46:40 | 03:43:11 | 00:00:00 | |
| BIOWL1-15 | 2026-08-31 03:08:36 | 53.38095 | 7.02297 | 42° | 42km/h | 1683m | -2.3m/s | 6.3°C | 98.7% | 827.6hPa | 2.7V | 06:46:40 | 03:43:10 | 00:00:00 | |
| BIOWL1-15 | 2026-08-31 03:08:35 | 53.38087 | 7.02285 | 42° | 42km/h | 1685m | -2.2m/s | 6.3°C | 98.8% | 827.3hPa | 2.8V | 06:46:40 | 03:43:09 | 00:00:00 | |
| DL1XH-west | 2026-08-31 03:08:33 | 53.38071 | 7.02262 | 42° | 42km/h | 1690m | -2.3m/s | 6.3°C | 98.6% | 826.8hPa | 2.8V | 06:46:40 | 03:43:07 | 00:00:00 | |
| BIOWL1-15 | 2026-08-31 03:08:31 | 53.38040 | 7.02214 | 43° | 42km/h | 1700m | -2.4m/s | 6.2°C | 98.5% | 825.8hPa | 2.7V | 06:46:40 | 03:43:03 | 00:00:00 | |
| DL1XH-west | 2026-08-31 03:08:31 | 53.38056 | 7.02238 | 43° | 42km/h | 1695m | -2.5m/s | 6.2°C | 98.6% | 826.2hPa | 2.8V | 06:46:40 | 03:43:05 | 00:00:00 | |
| DL1XH-west | 2026-08-31 03:08:30 | 53.38048 | 7.02226 | 43° | 42km/h | 1697m | -2.5m/s | 6.2°C | 98.7% | 826hPa | 2.8V | 06:46:40 | 03:43:04 | 00:00:00 | |
| DL1XH-west | 2026-08-31 03:08:28 | 53.38032 | 7.02201 | 42° | 42km/h | 1702m | -2.5m/s | 6.2°C | 98.4% | 825.4hPa | 2.8V | 06:46:40 | 03:43:02 | 00:00:00 | |
| DM0DOS-11 | 2026-08-31 03:08:27 | 53.37983 | 7.02130 | 40° | 44km/h | 1716m | -2.5m/s | 5.8°C | 94.6% | 824hPa | 2.8V | 06:46:26 | 03:42:56 | 00:00:00 | |
| DL1XH-west | 2026-08-31 03:08:27 | 53.38024 | 7.02189 | 42° | 42km/h | 1704m | -2.4m/s | 6.1°C | 98.3% | 825.3hPa | 2.8V | 06:46:40 | 03:43:01 | 00:00:00 | |
| DL1XH-west | 2026-08-31 03:08:26 | 53.38016 | 7.02177 | 42° | 42km/h | 1707m | -2.4m/s | 6°C | 97.3% | 825hPa | 2.8V | 06:46:40 | 03:43:00 | 00:00:00 | |
| BIOWL1-15 | 2026-08-31 03:08:25 | 53.38008 | 7.02166 | 41° | 44km/h | 1709m | -2.5m/s | 5.9°C | 96.1% | 824.9hPa | 2.8V | 06:46:40 | 03:42:59 | 00:00:00 | |
| DL1XH-west | 2026-08-31 03:08:24 | 53.37999 | 7.02154 | 40° | 44km/h | 1712m | -2.1m/s | 5.9°C | 95.7% | 824.5hPa | 2.8V | 06:46:40 | 03:42:58 | 00:00:00 | |
| BIOWL1-15 | 2026-08-31 03:08:23 | 53.37991 | 7.02142 | 40° | 44km/h | 1714m | -2.3m/s | 5.8°C | 94.8% | 824.4hPa | 2.8V | 06:46:40 | 03:42:57 | 00:00:00 | |
| DL1XH-west | 2026-08-31 03:08:22 | 53.37983 | 7.02130 | 40° | 44km/h | 1716m | -2.5m/s | 5.8°C | 94.4% | 824hPa | 2.8V | 06:46:40 | 03:42:56 | 00:00:00 | |
| BIOWL1-15 | 2026-08-31 03:08:21 | 53.37974 | 7.02118 | 40° | 44km/h | 1718m | -2.2m/s | 5.8°C | 94.4% | 823.8hPa | 2.8V | 06:46:40 | 03:42:55 | 00:00:00 | |
| DL1XH-west | 2026-08-31 03:08:20 | 53.37966 | 7.02107 | 40° | 44km/h | 1721m | -2.3m/s | 5.8°C | 94.5% | 823.5hPa | 2.8V | 06:46:40 | 03:42:54 | 00:00:00 | |
| DL1XH-west | 2026-08-31 03:08:19 | 53.37957 | 7.02095 | 40° | 44km/h | 1723m | -2.5m/s | 5.9°C | 94.6% | 823.4hPa | 2.8V | 06:46:40 | 03:42:53 | 00:00:00 | |
| BIOWL1-15 | 2026-08-31 03:08:18 | 53.37916 | 7.02033 | 43° | 44km/h | 1735m | -2.5m/s | 5.9°C | 95.5% | 822.2hPa | 2.8V | 06:46:40 | 03:42:48 | 00:00:00 | |
| GOEST3-10 | 2026-08-31 03:08:18 | 53.37949 | 7.02082 | 41° | 44km/h | 1725m | -2.3m/s | 5.9°C | 96.6% | 823.2hPa | 2.7V | 00:00:00 | 00:00:00 | 00:00:00 | |
| GOEST3-10 | 2026-08-31 03:08:17 | 53.37941 | 7.02070 | 42° | 44km/h | 1728m | -2.3m/s | 5.9°C | 96.4% | 823.0hPa | 2.7V | 00:00:00 | 03:42:51 | 00:00:00 | |
| DF5WG-10 | 2026-08-31 03:08:17 | 53.37941 | 7.02070 | 42° | 44km/h | 1728m | -2.3m/s | 5.9°C | 96.4% | 823.0hPa | 2.8V | 00:00:00 | 03:42:51 | 00:00:00 | |
| DL1XH-west | 2026-08-31 03:08:17 | 53.37941 | 7.02070 | 42° | 44km/h | 1728m | -2.3m/s | 5.9°C | 96.4% | 823hPa | 2.7V | 06:46:40 | 03:42:51 | 00:00:00 | |
| BIOWL7-15 | 2026-08-31 03:08:16 | 53.37940 | 7.02070 | 43° | 44km/h | 1728m | -2.3m/s | 5.9°C | 94.9% | 823.0hPa | 2.8V | 00:00:00 | 00:00:00 | 00:00:00 | |
| GOEST3-10 | 2026-08-31 03:08:16 | 53.37932 | 7.02058 | 42° | 44km/h | 1730m | -2.3m/s | 5.8°C | 95.8% | 822.6hPa | 2.8V | 00:00:00 | 00:00:00 | 00:00:00 | |
| DM0DOS-11 | 2026-08-31 03:08:15 | 53.37883 | 7.01983 | 42° | 44km/h | 1744m | -2.3m/s | 6.2°C | 98.4% | 821.3hPa | 2.8V | 06:46:38 | 03:42:44 | 00:00:00 | |
| DL1XH-west | 2026-08-31 03:08:15 | 53.37924 | 7.02046 | 42° | 44km/h | 1732m | -2.4m/s | 5.8°C | 95.5% | 822.4hPa | 2.8V | 06:46:40 | 03:42:49 | 00:00:00 | |
| BIOWL1-15 | 2026-08-31 03:08:13 | 53.37908 | 7.02021 | 43° | 44km/h | 1737m | -2.3m/s | 5.9°C | 96% | 821.9hPa | 2.8V | 06:46:40 | 03:42:47 | 00:00:00 | |
| BIOWL1-15 | 2026-08-31 03:08:11 | 53.37883 | 7.01983 | 42° | 44km/h | 1745m | -2.3m/s | 6.2°C | 99.5% | 821.3hPa | 2.8V | 06:46:40 | 03:42:44 | 00:00:00 | |
| DL1XH-west | 2026-08-31 03:08:11 | 53.37891 | 7.01996 | 43° | 44km/h | 1742m | -2.4m/s | 6.2°C | 99.5% | 821.4hPa | 2.8V | 06:46:40 | 03:42:45 | 00:00:00 | |
| DF5WG-10 | 2026-08-31 03:08:11 | 53.37891 | 7.01996 | 43° | 44km/h | 1742m | -2.4m/s | 6.1°C | 98.3% | 821.4hPa | 2.7V | 00:00:00 | 03:42:45 | 00:00:00 | |
| HTAHTA | 2026-08-31 03:08:10 | 53.37883 | 7.01983 | 42° | 42km/h | 1744m | -2.3m/s | 6.2°C | 96.9% | 821.3hPa | 2.7V | 00:00:00 | 00:00:00 | 00:00:00 | |
| GOEST3-10 | 2026-08-31 03:08:10 | 53.37883 | 7.01983 | 43° | 44km/h | 1745m | -2.3m/s | 6.1°C | 98.4% | 821.2hPa | 2.7V | 00:00:00 | 00:00:00 | 00:00:00 | |
| DM0DOS-11 | 2026-08-31 03:08:09 | 53.37851 | 7.01935 | 41° | 44km/h | 1754m | -2.4m/s | 6.1°C | 98.8% | 820.4hPa | 2.7V | 06:46:42 | 03:42:40 | 00:00:00 | |
| DL1XH-west | 2026-08-31 03:08:09 | 53.37875 | 7.01971 | 42° | 44km/h | 1747m | -2.4m/s | 6.2°C | 100% | 821hPa | 2.8V | 06:46:40 | 03:42:43 | 00:00:00 | |
| DL1XH-west | 2026-08-31 03:08:08 | 53.37867 | 7.01959 | 41° | 44km/h | 1749m | -2.3m/s | 6.2°C | 100% | 820.9hPa | 2.8V | 06:46:40 | 03:42:42 | 00:00:00 | |
| BIOWL1-15 | 2026-08-31 03:08:07 | 53.37818 | 7.01886 | 42° | 44km/h | 1763m | -2.3m/s | 5.9°C | 99.1% | 819.5hPa | 2.8V | 06:47:31 | 03:42:36 | 00:00:00 | |
| DL1XH-west | 2026-08-31 03:08:06 | 53.37851 | 7.01935 | 41° | 44km/h | 1754m | -2.4m/s | 6.1°C | 100% | 820.4hPa | 2.7V | 06:47:31 | 03:42:40 | 00:00:00 | |
| DL1XH-west | 2026-08-31 03:08:05 | 53.37842 | 7.01923 | 41° | 44km/h | 1756m | -2.3m/s | 6.1°C | 100% | 820.1hPa | 2.7V | 06:47:31 | 03:42:39 | 00:00:00 | |
| DL1XH-west | 2026-08-31 03:08:03 | 53.37826 | 7.01898 | 42° | 44km/h | 1761m | -2.2m/s | 6°C | 99.5% | 819.6hPa | 2.8V | 06:47:31 | 03:42:37 | 00:00:00 | |
| DL1XH-west | 2026-08-31 03:08:01 | 53.37810 | 7.01873 | 43° | 44km/h | 1765m | -2.4m/s | 5.9°C | 99.2% | 819.2hPa | 2.8V | 06:47:31 | 03:42:35 | 00:00:00 | |
| DL1XH-west | 2026-08-31 03:07:59 | 53.37793 | 7.01847 | 44° | 44km/h | 1770m | -2.4m/s | 5.9°C | 99.3% | 818.7hPa | 2.8V | 06:47:31 | 03:42:33 | 00:00:00 | |
| GOEST3-10 | 2026-08-31 03:07:59 | 53.37793 | 7.01847 | 44° | 44km/h | 1770m | -2.3m/s | 5.9°C | 98.0% | 818.6hPa | 2.7V | 00:00:00 | 03:42:33 | 00:00:00 | |
| DF5WG-10 | 2026-08-31 03:07:59 | 53.37793 | 7.01847 | 44° | 44km/h | 1770m | -2.3m/s | 5.9°C | 98.0% | 818.6hPa | 2.8V | 00:00:00 | 03:42:33 | 00:00:00 | |
| DM0DOS-11 | 2026-08-31 03:07:57 | 53.37769 | 7.01808 | 44° | 44km/h | 1778m | -2.4m/s | 5.8°C | 97.9% | 818hPa | 2.8V | 06:46:52 | 03:42:30 | 00:00:00 | |
| DM0DOS-11 | 2026-08-31 03:07:57 | 53.37753 | 7.01781 | 45° | 44km/h | 1782m | -2.5m/s | 5.8°C | 97.9% | 817.5hPa | 2.7V | 06:46:54 | 03:42:28 | 00:00:00 | |
| DL1XH-west | 2026-08-31 03:07:57 | 53.37777 | 7.01821 | 44° | 44km/h | 1775m | -2.4m/s | 5.9°C | 99.2% | 818.3hPa | 2.8V | 06:47:31 | 03:42:31 | 00:00:00 | |
| DL1XH-west | 2026-08-31 03:07:56 | 53.37769 | 7.01808 | 45° | 44km/h | 1778m | -2.4m/s | 5.9°C | 99.1% | 818hPa | 2.8V | 06:47:31 | 03:42:30 | 00:00:00 | |
| BIOWL1-15 | 2026-08-31 03:07:54 | 53.37745 | 7.01768 | 45° | 44km/h | 1785m | -2.3m/s | 5.8°C | 98.4% | 817.2hPa | 2.7V | 06:47:31 | 03:42:27 | 00:00:00 | |
| DL1XH-west | 2026-08-31 03:07:54 | 53.37753 | 7.01781 | 45° | 44km/h | 1782m | -2.5m/s | 5.8°C | 98.9% | 817.5hPa | 2.7V | 06:47:31 | 03:42:28 | 00:00:00 | |
| DL1XH-west | 2026-08-31 03:07:52 | 53.37737 | 7.01755 | 45° | 44km/h | 1787m | -2.3m/s | 5.8°C | 98.4% | 817hPa | 2.8V | 06:47:31 | 03:42:26 | 00:00:00 | |
| BIOWL1-15 | 2026-08-31 03:07:50 | 53.37690 | 7.01677 | 45° | 44km/h | 1801m | -2.3m/s | 5.7°C | 98.8% | 815.6hPa | 2.7V | 06:47:31 | 03:42:20 | 00:00:00 | |
| DL1XH-west | 2026-08-31 03:07:50 | 53.37722 | 7.01729 | 45° | 44km/h | 1792m | -2.4m/s | 5.8°C | 98.5% | 816.5hPa | 2.8V | 06:47:31 | 03:42:24 | 00:00:00 | |
| DL1XH-west | 2026-08-31 03:07:49 | 53.37714 | 7.01716 | 45° | 44km/h | 1794m | -2.3m/s | 5.7°C | 98.5% | 816.3hPa | 2.8V | 06:47:31 | 03:42:23 | 00:00:00 | |
| DL1XH-west | 2026-08-31 03:07:47 | 53.37698 | 7.01690 | 44° | 44km/h | 1799m | -2.2m/s | 5.7°C | 98.7% | 815.9hPa | 2.8V | 06:47:31 | 03:42:21 | 00:00:00 | |
| DF5WG-10 | 2026-08-31 03:07:47 | 53.37698 | 7.01690 | 45° | 44km/h | 1799m | -2.1m/s | 5.7°C | 98.1% | 815.9hPa | 2.8V | 00:00:00 | 03:42:21 | 00:00:00 | |
| GOEST3-10 | 2026-08-31 03:07:46 | 53.37690 | 7.01677 | 45° | 44km/h | 1801m | -2.2m/s | 5.7°C | 98.1% | 815.5hPa | 2.8V | 06:47:00 | 00:00:00 | 00:00:00 | |
| DO9FK | 2026-08-31 03:07:45 | 53.37690 | 7.01677 | 46° | 44km/h | 1801m | -2.3m/s | 5.7°C | 96.6% | 815.6hPa | 2.8V | 06:47:00 | 00:00:00 | 00:00:00 | |
| DM0DOS-11 | 2026-08-31 03:07:45 | 53.37641 | 7.01598 | 42° | 46km/h | 1815m | -2.3m/s | 5.7°C | 98.7% | 814.3hPa | 2.8V | 06:47:08 | 03:42:14 | 00:00:00 | |
| DL1XH-west | 2026-08-31 03:07:45 | 53.37682 | 7.01664 | 44° | 46km/h | 1803m | -2.5m/s | 5.7°C | 99% | 815.4hPa | 2.8V | 06:47:31 | 03:42:19 | 00:00:00 | |
| BIOWL1-15 | 2026-08-31 03:07:44 | 53.37666 | 7.01637 | 44° | 46km/h | 1808m | -2.5m/s | 5.7°C | 99.3% | 815hPa | 2.8V | 06:47:31 | 03:42:17 | 00:00:00 | |
| DL1XH-west | 2026-08-31 03:07:44 | 53.37674 | 7.01651 | 44° | 46km/h | 1805m | -2.2m/s | 5.7°C | 99.1% | 815.2hPa | 2.8V | 06:47:31 | 03:42:18 | 00:00:00 | |
| DL1XH-west | 2026-08-31 03:07:42 | 53.37658 | 7.01624 | 43° | 46km/h | 1810m | -2.4m/s | 5.7°C | 99.2% | 814.8hPa | 2.8V | 06:47:31 | 03:42:16 | 00:00:00 | |
| DL1XH-west | 2026-08-31 03:07:40 | 53.37641 | 7.01598 | 43° | 46km/h | 1815m | -2.3m/s | 5.7°C | 99.5% | 814.3hPa | 2.8V | 06:47:31 | 03:42:14 | 00:00:00 | |
| DM0DOS-11 | 2026-08-31 03:07:39 | 53.37624 | 7.01573 | 42° | 44km/h | 1819m | -2.2m/s | 5.6°C | 98.8% | 813.8hPa | 2.8V | 06:47:10 | 03:42:12 | 00:00:00 | |
| DL1XH-west | 2026-08-31 03:07:38 | 53.37624 | 7.01573 | 43° | 44km/h | 1819m | -2.2m/s | 5.6°C | 99.8% | 813.8hPa | 2.8V | 06:47:31 | 03:42:12 | 00:00:00 | |
| BIOWL1-15 | 2026-08-31 03:07:37 | 53.37616 | 7.01560 | 43° | 42km/h | 1822m | -2.4m/s | 5.6°C | 99.9% | 813.5hPa | 2.8V | 06:47:31 | 03:42:11 | 00:00:00 | |
| BIOWL1-15 | 2026-08-31 03:07:35 | 53.37601 | 7.01536 | 43° | 42km/h | 1826m | -2.3m/s | 5.6°C | 100% | 813.2hPa | 2.7V | 06:47:31 | 03:42:09 | 00:00:00 | |
| BIOWL1-15 | 2026-08-31 03:07:34 | 53.37593 | 7.01524 | 44° | 42km/h | 1829m | -2.4m/s | 5.6°C | 100% | 812.9hPa | 2.8V | 06:47:31 | 03:42:08 | 00:00:00 | |
| BIOWL1-15 | 2026-08-31 03:07:33 | 53.37585 | 7.01512 | 44° | 42km/h | 1831m | -2.2m/s | 5.6°C | 100% | 812.5hPa | 2.8V | 06:47:31 | 03:42:07 | 00:00:00 | |
| DL1XH-west | 2026-08-31 03:07:32 | 53.37578 | 7.01499 | 44° | 42km/h | 1833m | -2.3m/s | 5.6°C | 100% | 812.5hPa | 2.8V | 06:47:31 | 03:42:06 | 00:00:00 | |
| DL1XH-west | 2026-08-31 03:07:31 | 53.37570 | 7.01487 | 45° | 44km/h | 1836m | -2.4m/s | 5.6°C | 100% | 812.1hPa | 2.8V | 06:47:31 | 03:42:05 | 00:00:00 | |
| BIOWL1-15 | 2026-08-31 03:07:30 | 53.37562 | 7.01474 | 45° | 44km/h | 1838m | -2.3m/s | 5.6°C | 100% | 812hPa | 2.8V | 06:47:31 | 03:42:04 | 00:00:00 | |
| DL1XH-west | 2026-08-31 03:07:29 | 53.37554 | 7.01461 | 45° | 44km/h | 1841m | -2.4m/s | 5.6°C | 100% | 811.6hPa | 2.8V | 06:47:31 | 03:42:03 | 00:00:00 | |
| DL1XH-west | 2026-08-31 03:07:27 | 53.37538 | 7.01434 | 44° | 46km/h | 1845m | -2.3m/s | 5.6°C | 100% | 811.2hPa | 2.8V | 06:47:31 | 03:42:01 | 00:00:00 | |
| DL1XH-west | 2026-08-31 03:07:26 | 53.37530 | 7.01421 | 44° | 46km/h | 1848m | -2.3m/s | 5.6°C | 100% | 810.8hPa | 2.8V | 06:47:31 | 03:42:00 | 00:00:00 | |
| DL1XH-west | 2026-08-31 03:07:24 | 53.37513 | 7.01393 | 44° | 46km/h | 1852m | -2.2m/s | 5.6°C | 100% | 810.5hPa | 2.8V | 06:47:31 | 03:41:58 | 00:00:00 | |
| DL1XH-west | 2026-08-31 03:07:22 | 53.37496 | 7.01366 | 44° | 47km/h | 1857m | -2.3m/s | 5.5°C | 100% | 810hPa | 2.7V | 06:47:31 | 03:41:56 | 00:00:00 | |
| DL1XH-west | 2026-08-31 03:07:21 | 53.37488 | 7.01352 | 44° | 47km/h | 1859m | -2.4m/s | 5.5°C | 100% | 809.8hPa | 2.8V | 06:47:31 | 03:41:55 | 00:00:00 | |
| GOEST3-10 | 2026-08-31 03:07:21 | 53.37488 | 7.01352 | 44° | 47km/h | 1859m | -2.4m/s | 5.4°C | 99.7% | 809.8hPa | 2.8V | 00:00:00 | 00:00:00 | 00:00:00 | |
| DM0DOS-11 | 2026-08-31 03:07:20 | 53.37436 | 7.01265 | 46° | 49km/h | 1874m | -2.5m/s | 5.2°C | 98.9% | 808.5hPa | 2.8V | 06:47:33 | 03:41:49 | 00:00:00 | |
| DL1XH-west | 2026-08-31 03:07:20 | 53.37479 | 7.01338 | 44° | 47km/h | 1861m | -2.5m/s | 5.5°C | 100% | 809.7hPa | 2.8V | 06:47:31 | 03:41:54 | 00:00:00 | |
| DL1XH-west | 2026-08-31 03:07:19 | 53.37470 | 7.01324 | 44° | 47km/h | 1864m | -2.6m/s | 5.4°C | 100% | 809.4hPa | 2.8V | 06:47:31 | 03:41:53 | 00:00:00 | |
| BIOWL1-15 | 2026-08-31 03:07:18 | 53.37462 | 7.01309 | 45° | 49km/h | 1867m | -2.6m/s | 5.3°C | 100% | 809hPa | 2.8V | 06:47:31 | 03:41:52 | 00:00:00 | |
| DL1XH-west | 2026-08-31 03:07:17 | 53.37453 | 7.01295 | 46° | 49km/h | 1869m | -2.5m/s | 5.3°C | 100% | 808.9hPa | 2.8V | 06:47:31 | 03:41:51 | 00:00:00 | |
| BIOWL1-15 | 2026-08-31 03:07:16 | 53.37444 | 7.01280 | 46° | 49km/h | 1872m | -2.4m/s | 5.3°C | 100% | 808.5hPa | 2.8V | 06:48:22 | 03:41:50 | 00:00:00 | |
| DL1XH-west | 2026-08-31 03:07:15 | 53.37436 | 7.01265 | 46° | 49km/h | 1874m | -2.5m/s | 5.2°C | 100% | 808.5hPa | 2.8V | 06:48:22 | 03:41:49 | 00:00:00 | |
| DL1XH-west | 2026-08-31 03:07:14 | 53.37427 | 7.01250 | 46° | 49km/h | 1876m | -2.3m/s | 5.1°C | 100% | 808.1hPa | 2.8V | 06:48:22 | 03:41:48 | 00:00:00 | |
| DM0DOS-11 | 2026-08-31 03:07:13 | 53.37393 | 7.01191 | 45° | 49km/h | 1885m | -2.2m/s | 4.9°C | 97% | 807.2hPa | 2.8V | 06:47:38 | 03:41:44 | 00:00:00 | |
| BIOWL1-15 | 2026-08-31 03:07:13 | 53.37419 | 7.01236 | 46° | 47km/h | 1879m | -2.3m/s | 5°C | 99.2% | 807.9hPa | 2.8V | 06:48:22 | 03:41:47 | 00:00:00 | |
| DL1XH-west | 2026-08-31 03:07:12 | 53.37410 | 7.01221 | 47° | 47km/h | 1881m | -2.2m/s | 4.9°C | 97.8% | 807.6hPa | 2.7V | 06:48:22 | 03:41:46 | 00:00:00 | |
| BIOWL1-15 | 2026-08-31 03:07:11 | 53.37402 | 7.01206 | 46° | 49km/h | 1883m | -2.4m/s | 4.9°C | 98.8% | 807.4hPa | 2.7V | 06:48:22 | 03:41:45 | 00:00:00 | |
| DL1XH-west | 2026-08-31 03:07:10 | 53.37393 | 7.01191 | 46° | 49km/h | 1885m | -2.2m/s | 4.9°C | 98.2% | 807.2hPa | 2.8V | 06:48:22 | 03:41:44 | 00:00:00 | |
| BIOWL1-15 | 2026-08-31 03:07:09 | 53.37385 | 7.01177 | 46° | 47km/h | 1888m | -2.2m/s | 4.8°C | 99.1% | 806.9hPa | 2.8V | 06:48:22 | 03:41:43 | 00:00:00 | |
| DL1XH-west | 2026-08-31 03:07:08 | 53.37376 | 7.01162 | 46° | 47km/h | 1890m | -2.5m/s | 4.8°C | 98.3% | 806.9hPa | 2.8V | 06:48:22 | 03:41:42 | 00:00:00 | |
| DF5WG-10 | 2026-08-31 03:07:08 | 53.37376 | 7.01162 | 46° | 47km/h | 1890m | -2.4m/s | 4.8°C | 97.1% | 806.8hPa | 2.7V | 00:00:00 | 03:41:42 | 00:00:00 | |
| DM0DOS-11 | 2026-08-31 03:07:07 | 53.37342 | 7.01104 | 46° | 47km/h | 1899m | -2.4m/s | 4.7°C | 96.1% | 805.9hPa | 2.7V | 06:47:44 | 03:41:38 | 00:00:00 | |
| DL1XH-west | 2026-08-31 03:07:07 | 53.37368 | 7.01148 | 45° | 47km/h | 1893m | -2.2m/s | 4.8°C | 98.4% | 806.4hPa | 2.8V | 06:48:22 | 03:41:41 | 00:00:00 | |
| BIOWL1-15 | 2026-08-31 03:07:06 | 53.37359 | 7.01133 | 46° | 47km/h | 1895m | -2.3m/s | 4.7°C | 98% | 806.2hPa | 2.8V | 06:48:22 | 03:41:40 | 00:00:00 | |
| DL1XH-west | 2026-08-31 03:07:05 | 53.37351 | 7.01118 | 46° | 47km/h | 1897m | -2.5m/s | 4.7°C | 97.1% | 806hPa | 2.8V | 06:48:22 | 03:41:39 | 00:00:00 | |
| BIOWL1-15 | 2026-08-31 03:07:04 | 53.37334 | 7.01089 | 46° | 49km/h | 1902m | -2.3m/s | 4.7°C | 97.1% | 805.6hPa | 2.8V | 06:48:22 | 03:41:37 | 00:00:00 | |
| DL1XH-west | 2026-08-31 03:07:04 | 53.37342 | 7.01104 | 46° | 47km/h | 1900m | -2.4m/s | 4.7°C | 96.8% | 805.9hPa | 2.7V | 06:48:22 | 03:41:38 | 00:00:00 | |
| DL1XH-west | 2026-08-31 03:07:02 | 53.37325 | 7.01074 | 46° | 49km/h | 1904m | -2.3m/s | 4.7°C | 97.2% | 805.4hPa | 2.8V | 06:48:22 | 03:41:36 | 00:00:00 | |
| DL1XH-west | 2026-08-31 03:07:01 | 53.37317 | 7.01059 | 47° | 49km/h | 1906m | -2.3m/s | 4.7°C | 97.1% | 805.1hPa | 2.8V | 06:48:22 | 03:41:35 | 00:00:00 | |
| BIOWL1-15 | 2026-08-31 03:06:59 | 53.37291 | 7.01014 | 46° | 49km/h | 1913m | -2.3m/s | 4.7°C | 97.5% | 804.5hPa | 2.7V | 06:48:22 | 03:41:32 | 00:00:00 | |
| DL1XH-west | 2026-08-31 03:06:59 | 53.37300 | 7.01029 | 47° | 49km/h | 1911m | -2.5m/s | 4.7°C | 97.1% | 804.7hPa | 2.8V | 06:48:22 | 03:41:33 | 00:00:00 | |
| DL1XH-west | 2026-08-31 03:06:57 | 53.37282 | 7.00998 | 46° | 49km/h | 1916m | -2.3m/s | 4.6°C | 97.3% | 804.3hPa | 2.8V | 06:48:22 | 03:41:31 | 00:00:00 | |
| DL1XH-west | 2026-08-31 03:06:56 | 53.37274 | 7.00983 | 46° | 49km/h | 1918m | -2.3m/s | 4.6°C | 97.4% | 804hPa | 2.8V | 06:48:22 | 03:41:30 | 00:00:00 | |
| DM0DOS-11 | 2026-08-31 03:06:55 | 53.37256 | 7.00953 | 46° | 51km/h | 1922m | -2.4m/s | 4.6°C | 97.2% | 803.6hPa | 2.8V | 06:47:54 | 03:41:28 | 00:00:00 | |
| DL1XH-west | 2026-08-31 03:06:54 | 53.37256 | 7.00953 | 46° | 51km/h | 1922m | -2.4m/s | 4.6°C | 97.8% | 803.6hPa | 2.8V | 06:48:22 | 03:41:28 | 00:00:00 | |
| DL1XH-west | 2026-08-31 03:06:53 | 53.37247 | 7.00937 | 46° | 51km/h | 1925m | -2.4m/s | 4.6°C | 97.5% | 803.4hPa | 2.8V | 06:48:22 | 03:41:27 | 00:00:00 | |
| BIOWL1-15 | 2026-08-31 03:06:52 | 53.37238 | 7.00922 | 46° | 51km/h | 1927m | -2.3m/s | 4.6°C | 98.2% | 803.1hPa | 2.7V | 06:48:22 | 03:41:26 | 00:00:00 | |
| DL1XH-west | 2026-08-31 03:06:51 | 53.37229 | 7.00906 | 46° | 51km/h | 1929m | -2.1m/s | 4.6°C | 97.6% | 803hPa | 2.8V | 06:48:22 | 03:41:25 | 00:00:00 | |
| DL1XH-west | 2026-08-31 03:06:50 | 53.37220 | 7.00890 | 47° | 51km/h | 1932m | -2.4m/s | 4.6°C | 98.5% | 802.6hPa | 2.8V | 06:48:22 | 03:41:24 | 00:00:00 | |
| GOEST3-10 | 2026-08-31 03:06:50 | 53.37220 | 7.00890 | 47° | 51km/h | 1932m | -2.4m/s | 4.5°C | 98.0% | 802.6hPa | 2.7V | 00:00:00 | 00:00:00 | 00:00:00 | |
| DF5WG-10 | 2026-08-31 03:06:50 | 53.37220 | 7.00890 | 47° | 51km/h | 1932m | -2.4m/s | 4.5°C | 98.0% | 802.6hPa | 2.7V | 00:00:00 | 03:41:24 | 00:00:00 | |
| DM0DOS-11 | 2026-08-31 03:06:49 | 53.37186 | 7.00826 | 49° | 51km/h | 1940m | -2.1m/s | 4.5°C | 97.8% | 801.9hPa | 2.7V | 06:48:02 | 03:41:20 | 00:00:00 | |
| DM0DOS-11 | 2026-08-31 03:06:49 | 53.37169 | 7.00793 | 49° | 51km/h | 1945m | -2.2m/s | 4.5°C | 97.4% | 801.4hPa | 2.8V | 06:48:04 | 03:41:18 | 00:00:00 | |
| DL1XH-west | 2026-08-31 03:06:48 | 53.37203 | 7.00859 | 48° | 51km/h | 1936m | -2.1m/s | 4.5°C | 98.1% | 802.3hPa | 2.8V | 06:48:22 | 03:41:22 | 00:00:00 | |
| BIOWL1-15 | 2026-08-31 03:06:48 | 53.37186 | 7.00826 | 50° | 51km/h | 1940m | -2.1m/s | 4.5°C | 98.8% | 801.9hPa | 2.7V | 06:48:22 | 03:41:20 | 00:00:00 | |
| DL1XH-west | 2026-08-31 03:06:47 | 53.37194 | 7.00843 | 49° | 51km/h | 1939m | -2m/s | 4.5°C | 98.2% | 802.1hPa | 2.8V | 06:48:22 | 03:41:21 | 00:00:00 | |
| DL1XH-west | 2026-08-31 03:06:45 | 53.37178 | 7.00810 | 50° | 51km/h | 1942m | -2.4m/s | 4.5°C | 97.9% | 801.7hPa | 2.8V | 06:48:22 | 03:41:19 | 00:00:00 | |
| BIOWL1-15 | 2026-08-31 03:06:44 | 53.37152 | 7.00760 | 50° | 51km/h | 1950m | -2.3m/s | 4.4°C | 98.6% | 801hPa | 2.8V | 06:48:22 | 03:41:16 | 00:00:00 | |
| GOEST3-10 | 2026-08-31 03:06:44 | 53.37169 | 7.00793 | 50° | 51km/h | 1945m | -2.2m/s | 4.4°C | 97.4% | 801.3hPa | 2.8V | 00:00:00 | 00:00:00 | 00:00:00 | |
| DF5WG-10 | 2026-08-31 03:06:44 | 53.37169 | 7.00793 | 50° | 51km/h | 1945m | -2.2m/s | 4.4°C | 97.4% | 801.3hPa | 2.8V | 00:00:00 | 03:41:18 | 00:00:00 | |
| DO9FK | 2026-08-31 03:06:43 | 53.37169 | 7.00793 | 51° | 51km/h | 1945m | -2.2m/s | 4.5°C | 95.8% | 801.4hPa | 2.8V | 06:48:00 | 00:00:00 | 00:00:00 | |
| DM0DOS-11 | 2026-08-31 03:06:43 | 53.37118 | 7.00694 | 48° | 51km/h | 1959m | -2.6m/s | 4.4°C | 96.8% | 800.1hPa | 2.8V | 06:48:10 | 03:41:12 | 00:00:00 | |
| DL1XH-west | 2026-08-31 03:06:43 | 53.37161 | 7.00777 | 50° | 51km/h | 1947m | -2.3m/s | 4.5°C | 98.2% | 801.2hPa | 2.8V | 06:48:22 | 03:41:17 | 00:00:00 | |
| DL1XH-west | 2026-08-31 03:06:41 | 53.37144 | 7.00743 | 49° | 51km/h | 1952m | -2.5m/s | 4.4°C | 97.9% | 800.8hPa | 2.8V | 06:48:22 | 03:41:15 | 00:00:00 | |
| DL1XH-west | 2026-08-31 03:06:40 | 53.37135 | 7.00727 | 49° | 51km/h | 1954m | -2.3m/s | 4.4°C | 97.9% | 800.5hPa | 2.8V | 06:48:22 | 03:41:14 | 00:00:00 | |
| BIOWL1-15 | 2026-08-31 03:06:38 | 53.37101 | 7.00661 | 48° | 51km/h | 1964m | -2.3m/s | 4.4°C | 97.7% | 799.5hPa | 2.7V | 06:48:22 | 03:41:10 | 00:00:00 | |
| DL1XH-west | 2026-08-31 03:06:38 | 53.37118 | 7.00694 | 49° | 51km/h | 1959m | -2.6m/s | 4.4°C | 97.7% | 800.1hPa | 2.8V | 06:48:22 | 03:41:12 | 00:00:00 | |
| DF5WG-10 | 2026-08-31 03:06:38 | 53.37118 | 7.00694 | 49° | 51km/h | 1959m | -2.5m/s | 4.3°C | 96.8% | 800.0hPa | 2.8V | 06:48:00 | 03:41:12 | 00:00:00 | |
| DM0DOS-11 | 2026-08-31 03:06:37 | 53.37083 | 7.00629 | 46° | 51km/h | 1969m | -2.4m/s | 4.3°C | 97.2% | 799.2hPa | 2.8V | 06:48:14 | 03:41:08 | 00:00:00 | |
| DM0DOS-11 | 2026-08-31 03:06:37 | 53.37065 | 7.00598 | 46° | 51km/h | 1973m | -2.2m/s | 4.4°C | 97.6% | 798.7hPa | 2.8V | 06:48:16 | 03:41:06 | 00:00:00 | |
| DL1XH-west | 2026-08-31 03:06:37 | 53.37109 | 7.00678 | 48° | 51km/h | 1962m | -2.4m/s | 4.4°C | 97.6% | 800hPa | 2.8V | 06:48:22 | 03:41:11 | 00:00:00 | |
| DL1XH-west | 2026-08-31 03:06:35 | 53.37092 | 7.00645 | 48° | 51km/h | 1966m | -2.4m/s | 4.4°C | 97.6% | 799.4hPa | 2.7V | 06:48:22 | 03:41:09 | 00:00:00 | |
| DL1XH-west | 2026-08-31 03:06:33 | 53.37074 | 7.00614 | 46° | 51km/h | 1971m | -2.1m/s | 4.4°C | 98% | 799hPa | 2.8V | 06:48:22 | 03:41:07 | 00:00:00 | |
| DL1XH-west | 2026-08-31 03:06:32 | 53.37065 | 7.00598 | 46° | 51km/h | 1973m | -2.2m/s | 4.4°C | 97.9% | 798.7hPa | 2.8V | 06:48:22 | 03:41:06 | 00:00:00 | |
| DM0DOS-11 | 2026-08-31 03:06:31 | 53.37047 | 7.00566 | 46° | 51km/h | 1977m | -2.1m/s | 4.4°C | 98.2% | 798.2hPa | 2.8V | 06:48:18 | 03:41:04 | 00:00:00 | |
| DM0DOS-11 | 2026-08-31 03:06:31 | 53.37029 | 7.00535 | 46° | 51km/h | 1982m | -2.3m/s | 4.5°C | 98.9% | 798hPa | 2.8V | 06:48:20 | 03:41:02 | 00:00:00 | |
| DL1XH-west | 2026-08-31 03:06:30 | 53.37047 | 7.00566 | 46° | 51km/h | 1978m | -2.1m/s | 4.4°C | 98.7% | 798.2hPa | 2.8V | 06:48:22 | 03:41:04 | 00:00:00 | |
| DL1XH-west | 2026-08-31 03:06:28 | 53.37029 | 7.00535 | 47° | 51km/h | 1982m | -2.3m/s | 4.5°C | 99.6% | 798hPa | 2.8V | 06:48:22 | 03:41:02 | 00:00:00 | |
| BIOWL1-15 | 2026-08-31 03:06:27 | 53.37020 | 7.00519 | 47° | 49km/h | 1984m | -2.1m/s | 4.4°C | 99.8% | 797.6hPa | 2.8V | 06:48:22 | 03:41:01 | 00:00:00 | |
| DL1XH-west | 2026-08-31 03:06:26 | 53.37012 | 7.00504 | 48° | 49km/h | 1986m | -2.1m/s | 4.4°C | 99.9% | 797.4hPa | 2.8V | 06:48:22 | 03:41:00 | 00:00:00 | |
| DM0DOS-11 | 2026-08-31 03:06:25 | 53.36995 | 7.00472 | 48° | 49km/h | 1990m | -2m/s | 4.4°C | 99.1% | 797hPa | 2.7V | 06:48:24 | 03:40:58 | 00:00:00 | |
| DM0DOS-11 | 2026-08-31 03:06:25 | 53.36978 | 7.00441 | 48° | 49km/h | 1994m | -2.1m/s | 4.4°C | 99.3% | 796.7hPa | 2.8V | 06:48:26 | 03:40:56 | 00:00:00 | |
| BIOWL1-15 | 2026-08-31 03:06:25 | 53.37003 | 7.00488 | 48° | 49km/h | 1988m | -2.2m/s | 4.4°C | 99.6% | 797.2hPa | 2.7V | 06:49:13 | 03:40:59 | 00:00:00 | |
| BIOWL1-15 | 2026-08-31 03:06:24 | 53.36995 | 7.00472 | 48° | 49km/h | 1990m | -2m/s | 4.4°C | 99.7% | 797hPa | 2.7V | 06:49:13 | 03:40:58 | 00:00:00 | |
| BIOWL1-15 | 2026-08-31 03:06:22 | 53.36970 | 7.00425 | 49° | 49km/h | 1996m | -2.2m/s | 4.4°C | 99.8% | 796.5hPa | 2.8V | 06:49:13 | 03:40:55 | 00:00:00 | |
| DL1XH-west | 2026-08-31 03:06:22 | 53.36978 | 7.00441 | 49° | 49km/h | 1994m | -2.1m/s | 4.4°C | 100% | 796.7hPa | 2.8V | 06:49:13 | 03:40:56 | 00:00:00 | |
| DL1XH-west | 2026-08-31 03:06:20 | 53.36962 | 7.00409 | 48° | 51km/h | 1999m | -2.1m/s | 4.4°C | 99.8% | 796.3hPa | 2.8V | 06:49:13 | 03:40:54 | 00:00:00 | |
| DF5WG-10 | 2026-08-31 03:06:20 | 53.36962 | 7.00409 | 49° | 51km/h | 1999m | -2.0m/s | 4.3°C | 99.2% | 796.2hPa | 2.8V | 00:00:00 | 03:40:54 | 00:00:00 | |
| DM0DOS-11 | 2026-08-31 03:06:17 | 53.36936 | 7.00360 | 48° | 51km/h | 2005m | -2.1m/s | 4.3°C | 99.6% | 795.5hPa | 2.8V | 06:48:31 | 03:40:51 | 00:00:00 | |
| DM0DOS-11 | 2026-08-31 03:06:17 | 53.36893 | 7.00281 | 47° | 51km/h | 2016m | -2.3m/s | 4.3°C | 99.9% | 794.6hPa | 2.8V | 06:48:36 | 03:40:46 | 00:00:00 | |
| BIOWL1-15 | 2026-08-31 03:06:16 | 53.36927 | 7.00344 | 48° | 51km/h | 2007m | -2.1m/s | 4.3°C | 99.8% | 795.4hPa | 2.8V | 06:49:13 | 03:40:50 | 00:00:00 | |
| DL1XH-west | 2026-08-31 03:06:11 | 53.36884 | 7.00265 | 47° | 51km/h | 2018m | -2.1m/s | 4.3°C | 100% | 794.3hPa | 2.8V | 06:49:13 | 03:40:45 | 00:00:00 | |
| DL4BBY-15 | 2026-08-31 03:06:11 | 53.36884 | 7.00265 | 47° | 51km/h | 2017m | -2.1m/s | 3.8°C | 0% | 0hPa | 2.7V | 00:00:00 | 00:00:00 | 00:00:00 | |
| DF5WG-10 | 2026-08-31 03:06:10 | 53.36875 | 7.00249 | 48° | 53km/h | 2020m | -2.1m/s | 4.2°C | 0% | 794.0hPa | 2.7V | 00:00:00 | 03:40:44 | 00:00:00 | |
| DM0DOS-11 | 2026-08-31 03:06:07 | 53.36848 | 7.00200 | 48° | 53km/h | 2027m | -2.3m/s | 4.2°C | 0% | 793.6hPa | 2.7V | 06:48:41 | 03:40:41 | 00:00:00 | |
| DM0DOS-11 | 2026-08-31 03:06:07 | 53.36804 | 7.00116 | 49° | 53km/h | 2038m | -2.1m/s | 4.2°C | 0% | 792.4hPa | 2.8V | 06:48:46 | 03:40:36 | 00:00:00 | |
| BIOWL1-15 | 2026-08-31 03:06:05 | 53.36830 | 7.00166 | 49° | 53km/h | 2031m | -2m/s | 4.2°C | 100% | 793.2hPa | 2.8V | 06:49:13 | 03:40:39 | 00:00:00 | |
| DF5WG-10 | 2026-08-31 03:06:04 | 53.36821 | 7.00149 | 50° | 53km/h | 2033m | -2.0m/s | 4.1°C | 0% | 792.8hPa | 2.8V | 00:00:00 | 03:40:38 | 00:00:00 | |
| DM0DOS-11 | 2026-08-31 03:06:02 | 53.36763 | 7.00031 | 51° | 51km/h | 2049m | -2.2m/s | 4.1°C | 0% | 791.4hPa | 2.8V | 06:48:51 | 03:40:31 | 00:00:00 | |
| DL1XH-west | 2026-08-31 03:06:00 | 53.36787 | 7.00082 | 51° | 51km/h | 2042m | -2.2m/s | 4.1°C | 100% | 792.1hPa | 2.8V | 06:49:13 | 03:40:34 | 00:00:00 | |
| DF5WG-10 | 2026-08-31 03:05:58 | 53.36771 | 7.00048 | 51° | 51km/h | 2046m | -2.3m/s | 4.1°C | 0% | 791.5hPa | 2.8V | 00:00:00 | 03:40:32 | 00:00:00 | |
| DM0DOS-11 | 2026-08-31 03:05:57 | 53.36723 | 6.99944 | 52° | 53km/h | 2060m | -2.4m/s | 4°C | 0% | 790.3hPa | 2.8V | 06:48:56 | 03:40:26 | 00:00:00 | |
| BIOWL1-15 | 2026-08-31 03:05:55 | 53.36747 | 6.99996 | 52° | 51km/h | 2053m | -2.4m/s | 4.1°C | 100% | 790.9hPa | 2.7V | 06:49:13 | 03:40:29 | 00:00:00 | |
| DL1LOL-11 | 2026-08-31 03:05:54 | 53.36747 | 6.99996 | 53° | 51km/h | 2053m | -2.4m/s | 4.1°C | 0% | 790.9hPa | 2.7V | 06:49:00 | 00:00:00 | 00:00:00 | |
| DM0DOS-11 | 2026-08-31 03:05:52 | 53.36681 | 6.99858 | 51° | 51km/h | 2071m | -2m/s | 4°C | 0% | 789.2hPa | 2.7V | 06:49:01 | 03:40:21 | 00:00:00 | |
| DL1XH-west | 2026-08-31 03:05:50 | 53.36706 | 6.99910 | 52° | 53km/h | 2064m | -2.3m/s | 4°C | 100% | 789.8hPa | 2.8V | 06:49:13 | 03:40:24 | 00:00:00 | |
| GOEST3-10 | 2026-08-31 03:05:48 | 53.36690 | 6.99875 | 52° | 51km/h | 2069m | -1.9m/s | 4.0°C | 0% | 789.5hPa | 2.8V | 00:00:00 | 00:00:00 | 00:00:00 | |
| DM0DOS-11 | 2026-08-31 03:05:47 | 53.36641 | 6.99773 | 52° | 51km/h | 2081m | -2.3m/s | 4°C | 0% | 788.2hPa | 2.8V | 06:49:06 | 03:40:16 | 00:00:00 | |
| BIOWL1-15 | 2026-08-31 03:05:44 | 53.36657 | 6.99807 | 52° | 51km/h | 2077m | -2.1m/s | 4°C | 100% | 788.5hPa | 2.8V | 06:49:13 | 03:40:18 | 00:00:00 | |
| DL1XH-west | 2026-08-31 03:05:39 | 53.36618 | 6.99721 | 53° | 51km/h | 2088m | -2.3m/s | 4°C | 100% | 787.6hPa | 2.8V | 06:49:13 | 03:40:13 | 00:00:00 | |
| DM0DOS-11 | 2026-08-31 03:05:37 | 53.36602 | 6.99685 | 53° | 53km/h | 2093m | -2.3m/s | 4°C | 0% | 787.1hPa | 2.8V | 06:49:11 | 03:40:11 | 00:00:00 | |
| DM0DOS-11 | 2026-08-31 03:05:37 | 53.36560 | 6.99597 | 51° | 53km/h | 2105m | -2.3m/s | 3.9°C | 0% | 786hPa | 2.8V | 06:49:16 | 03:40:06 | 00:00:00 | |
| BIOWL1-15 | 2026-08-31 03:05:33 | 53.36569 | 6.99614 | 51° | 53km/h | 2103m | -2.1m/s | 3.9°C | 100% | 786.2hPa | 2.8V | 06:50:04 | 03:40:07 | 00:00:00 | |
| DL1XH-west | 2026-08-31 03:05:28 | 53.36526 | 6.99526 | 51° | 55km/h | 2114m | -2.4m/s | 3.9°C | 100% | 785.2hPa | 2.7V | 06:50:04 | 03:40:02 | 00:00:00 | |
| DF5WG-10 | 2026-08-31 03:05:28 | 53.36526 | 6.99526 | 52° | 53km/h | 2114m | -2.3m/s | 3.9°C | 0% | 785.1hPa | 2.8V | 00:00:00 | 03:40:02 | 00:00:00 | |
| DM0DOS-11 | 2026-08-31 03:05:27 | 53.36474 | 6.99422 | 48° | 53km/h | 2128m | -2.3m/s | 3.9°C | 0% | 783.7hPa | 2.8V | 06:49:26 | 03:39:56 | 00:00:00 | |
| BIOWL1-15 | 2026-08-31 03:05:22 | 53.36474 | 6.99422 | 48° | 53km/h | 2128m | -2.3m/s | 3.9°C | 100% | 783.7hPa | 2.8V | 06:50:04 | 03:39:56 | 00:00:00 | |
| DL1XH-west | 2026-08-31 03:05:18 | 53.36437 | 6.99354 | 48° | 55km/h | 2137m | -2.1m/s | 3.8°C | 100% | 782.7hPa | 2.7V | 06:50:04 | 03:39:52 | 00:00:00 | |
| GOEST3-10 | 2026-08-31 03:05:18 | 53.36437 | 6.99354 | 49° | 53km/h | 2137m | -2.0m/s | 3.8°C | 0% | 782.7hPa | 2.7V | 06:49:00 | 03:39:52 | 00:00:00 | |
| DM0DOS-11 | 2026-08-31 03:05:17 | 53.36386 | 6.99249 | 53° | 53km/h | 2150m | -2.1m/s | 3.8°C | 0% | 781.5hPa | 2.7V | 06:49:36 | 03:39:46 | 00:00:00 | |
| DF5WG-10 | 2026-08-31 03:05:16 | 53.36419 | 6.99319 | 50° | 53km/h | 2141m | -2.2m/s | 3.8°C | 0% | 782.3hPa | 2.7V | 00:00:00 | 03:39:50 | 00:00:00 | |
| DM0DOS-11 | 2026-08-31 03:05:12 | 53.36346 | 6.99160 | 53° | 53km/h | 2161m | -2.3m/s | 3.7°C | 0% | 780.6hPa | 2.7V | 06:49:41 | 03:39:41 | 00:00:00 | |
| BIOWL1-15 | 2026-08-31 03:05:11 | 53.36378 | 6.99231 | 53° | 53km/h | 2152m | -2.3m/s | 3.8°C | 100% | 781.5hPa | 2.8V | 06:50:04 | 03:39:45 | 00:00:00 | |
| DL1XH-west | 2026-08-31 03:05:07 | 53.36346 | 6.99160 | 53° | 53km/h | 2161m | -2.3m/s | 3.7°C | 100% | 780.6hPa | 2.7V | 06:50:04 | 03:39:41 | 00:00:00 | |
| HTAHTA | 2026-08-31 03:05:04 | 53.36313 | 6.99089 | 51° | 51km/h | 2170m | -2.2m/s | 3.7°C | 100.0% | 779.7hPa | 2.8V | 00:00:00 | 00:00:00 | 00:00:00 | |
| DM0DOS-11 | 2026-08-31 03:05:02 | 53.36263 | 6.98984 | 52° | 53km/h | 2183m | -2.1m/s | 3.6°C | 0% | 778.5hPa | 2.8V | 06:49:51 | 03:39:31 | 00:00:00 | |
| BIOWL1-15 | 2026-08-31 03:05:01 | 53.36296 | 6.99054 | 51° | 53km/h | 2174m | -2.3m/s | 3.7°C | 100% | 779.2hPa | 2.8V | 06:50:04 | 03:39:35 | 00:00:00 | |
| DL1XH-west | 2026-08-31 03:04:57 | 53.36263 | 6.98984 | 52° | 53km/h | 2183m | -2.2m/s | 3.6°C | 100% | 778.5hPa | 2.8V | 06:50:04 | 03:39:31 | 00:00:00 | |
| DM0DOS-11 | 2026-08-31 03:04:52 | 53.36222 | 6.98893 | 53° | 55km/h | 2194m | -2.1m/s | 3.6°C | 0% | 777.5hPa | 2.8V | 06:49:56 | 03:39:26 | 00:00:00 | |
| DM0DOS-11 | 2026-08-31 03:04:52 | 53.36182 | 6.98801 | 53° | 53km/h | 2204m | -2m/s | 3.5°C | 0% | 776.4hPa | 2.7V | 06:50:01 | 03:39:21 | 00:00:00 | |
| BIOWL1-15 | 2026-08-31 03:04:50 | 53.36206 | 6.98856 | 54° | 55km/h | 2198m | -2.1m/s | 3.5°C | 100% | 776.8hPa | 2.8V | 06:50:04 | 03:39:24 | 00:00:00 | |
| DL1XH-west | 2026-08-31 03:04:46 | 53.36174 | 6.98783 | 53° | 53km/h | 2206m | -2m/s | 3.5°C | 100% | 776.2hPa | 2.7V | 06:50:04 | 03:39:20 | 00:00:00 | |
| DJ2DS-15 | 2026-08-31 03:04:44 | 53.36158 | 6.98748 | 52° | 49km/h | 2209m | -2.0m/s | 3.5°C | 100.0% | 775.8hPa | 2.8V | 00:00:00 | 00:00:00 | 00:00:00 | |
| DM0DOS-11 | 2026-08-31 03:04:42 | 53.36143 | 6.98714 | 52° | 51km/h | 2213m | -1.8m/s | 3.4°C | 0% | 775.4hPa | 2.8V | 06:50:06 | 03:39:16 | 00:00:00 | |
| DM0DOS-11 | 2026-08-31 03:04:42 | 53.36105 | 6.98628 | 54° | 51km/h | 2222m | -1.7m/s | 3.4°C | 0% | 774.6hPa | 2.7V | 06:50:11 | 03:39:11 | 00:00:00 | |
| BIOWL1-15 | 2026-08-31 03:04:40 | 53.36127 | 6.98680 | 54° | 49km/h | 2217m | -1.8m/s | 3.4°C | 100% | 774.9hPa | 2.7V | 06:51:46 | 03:39:14 | 00:00:00 | |
| DF5WG-10 | 2026-08-31 03:04:40 | 53.36127 | 6.98680 | 54° | 51km/h | 2217m | -1.8m/s | 3.4°C | 0% | 774.9hPa | 2.7V | 00:00:00 | 03:39:14 | 00:00:00 | |
| GOEST3-10 | 2026-08-31 03:04:38 | 53.36112 | 6.98645 | 55° | 51km/h | 2221m | -1.7m/s | 3.4°C | 0% | 774.7hPa | 2.7V | 00:00:00 | 03:39:12 | 00:00:00 | |
| DM0DOS-11 | 2026-08-31 03:04:37 | 53.36067 | 6.98539 | 54° | 53km/h | 2232m | -2.1m/s | 3.4°C | 0% | 773.8hPa | 2.7V | 06:50:16 | 03:39:06 | 00:00:00 | |
| DL1XH-west | 2026-08-31 03:04:35 | 53.36090 | 6.98593 | 55° | 51km/h | 2226m | -2m/s | 3.4°C | 100% | 774.2hPa | 2.8V | 06:50:55 | 03:39:09 | 00:00:00 | |
| BIOWL1-15 | 2026-08-31 03:04:34 | 53.36052 | 6.98502 | 55° | 53km/h | 2235m | -1.8m/s | 3.3°C | 100% | 773.4hPa | 2.7V | 06:51:46 | 03:39:04 | 00:00:00 | |
| DM0DOS-11 | 2026-08-31 03:04:32 | 53.36029 | 6.98448 | 55° | 51km/h | 2241m | -1.9m/s | 3.3°C | 0% | 772.9hPa | 2.7V | 06:50:21 | 03:39:01 | 00:00:00 | |
| DF5WG-10 | 2026-08-31 03:04:28 | 53.36037 | 6.98466 | 56° | 51km/h | 2239m | -1.6m/s | 3.3°C | 0% | 773.0hPa | 2.7V | 00:00:00 | 03:39:02 | 00:00:00 | |
| DM0DOS-11 | 2026-08-31 03:04:27 | 53.35993 | 6.98357 | 56° | 51km/h | 2250m | -1.7m/s | 3.2°C | 0% | 772.1hPa | 2.7V | 06:50:26 | 03:38:56 | 00:00:00 | |
| DL1XH-west | 2026-08-31 03:04:24 | 53.36007 | 6.98394 | 56° | 51km/h | 2246m | -2m/s | 3.3°C | 100% | 772.4hPa | 2.7V | 06:50:55 | 03:38:58 | 00:00:00 | |
| DM0DOS-11 | 2026-08-31 03:04:22 | 53.35956 | 6.98266 | 55° | 53km/h | 2259m | -1.9m/s | 3.2°C | 0% | 771.1hPa | 2.7V | 06:50:31 | 03:38:51 | 00:00:00 | |
| BIOWL1-15 | 2026-08-31 03:04:19 | 53.35971 | 6.98302 | 56° | 53km/h | 2255m | -1.7m/s | 3.2°C | 100% | 771.5hPa | 2.7V | 06:51:46 | 03:38:53 | 00:00:00 | |
| DL1XH-west | 2026-08-31 03:04:14 | 53.35932 | 6.98211 | 54° | 53km/h | 2265m | -2.1m/s | 3.1°C | 100% | 770.5hPa | 2.7V | 06:50:55 | 03:38:48 | 00:00:00 | |
| DM0DOS-11 | 2026-08-31 03:04:12 | 53.35917 | 6.98175 | 53° | 53km/h | 2268m | -2.1m/s | 3.1°C | 0% | 770.1hPa | 2.7V | 06:50:36 | 03:38:46 | 00:00:00 | |
| DM0DOS-11 | 2026-08-31 03:04:12 | 53.35878 | 6.98087 | 53° | 51km/h | 2279m | -2m/s | 3.1°C | 0% | 769.4hPa | 2.7V | 06:50:41 | 03:38:41 | 00:00:00 | |
| BIOWL1-15 | 2026-08-31 03:04:12 | 53.35893 | 6.98122 | 53° | 51km/h | 2275m | -2m/s | 3.1°C | 100% | 769.6hPa | 2.7V | 06:51:46 | 03:38:43 | 00:00:00 | |
| DO9LL-15 | 2026-08-31 03:04:11 | 53.35909 | 6.98157 | 54° | 51km/h | 2271m | -2.0m/s | 3.1°C | 0% | 770.0hPa | 2.7V | 06:50:00 | 03:38:45 | 00:00:00 | |
| DF5WG-10 | 2026-08-31 03:04:10 | 53.35901 | 6.98139 | 54° | 51km/h | 2273m | -1.9m/s | 3.0°C | 0% | 769.7hPa | 2.7V | 06:50:00 | 03:38:44 | 00:00:00 | |
| GOEST3-10 | 2026-08-31 03:04:08 | 53.35885 | 6.98104 | 54° | 51km/h | 2277m | -2.1m/s | 3.0°C | 0% | 769.5hPa | 2.7V | 06:50:00 | 00:00:00 | 00:00:00 | |
| DF5WG-10 | 2026-08-31 03:04:04 | 53.35854 | 6.98034 | 54° | 51km/h | 2285m | -2.0m/s | 3.0°C | 0% | 768.7hPa | 2.7V | 00:00:00 | 03:38:38 | 00:00:00 | |
| DL1XH-west | 2026-08-31 03:04:04 | 53.35854 | 6.98035 | 53° | 51km/h | 2285m | -2.1m/s | 3°C | 100% | 768.7hPa | 2.7V | 06:50:55 | 03:38:38 | 00:00:00 | |
| DM0DOS-11 | 2026-08-31 03:04:02 | 53.35839 | 6.98000 | 54° | 51km/h | 2289m | -2m/s | 3°C | 0% | 768.2hPa | 2.7V | 06:50:46 | 03:38:36 | 00:00:00 | |
| DM0DOS-11 | 2026-08-31 03:04:02 | 53.35802 | 6.97911 | 54° | 51km/h | 2299m | -2m/s | 3°C | 0% | 767.3hPa | 2.7V | 06:50:51 | 03:38:31 | 00:00:00 | |
| BIOWL1-15 | 2026-08-31 03:03:58 | 53.35809 | 6.97929 | 55° | 51km/h | 2297m | -2.2m/s | 3°C | 100% | 767.4hPa | 2.7V | 06:51:46 | 03:38:32 | 00:00:00 | |
| DF5WG-10 | 2026-08-31 03:03:58 | 53.35809 | 6.97929 | 55° | 53km/h | 2297m | -2.1m/s | 2.9°C | 0% | 767.4hPa | 2.7V | 00:00:00 | 03:38:32 | 00:00:00 | |
| DM0DOS-11 | 2026-08-31 03:03:57 | 53.35762 | 6.97820 | 53° | 55km/h | 2308m | -1.7m/s | 2.9°C | 0% | 766.5hPa | 2.7V | 06:50:56 | 03:38:26 | 00:00:00 | |
| DL1XH-west | 2026-08-31 03:03:53 | 53.35770 | 6.97838 | 54° | 55km/h | 2306m | -1.6m/s | 2.9°C | 100% | 766.7hPa | 2.7V | 06:50:55 | 03:38:27 | 00:00:00 | |
| DM0DOS-11 | 2026-08-31 03:03:52 | 53.35721 | 6.97727 | 52° | 55km/h | 2314m | -1.7m/s | 2.9°C | 0% | 765.8hPa | 2.7V | 06:51:01 | 03:38:21 | 00:00:00 | |
| BIOWL1-15 | 2026-08-31 03:03:48 | 53.35729 | 6.97746 | 53° | 55km/h | 2313m | -1.3m/s | 2.9°C | 100% | 765.9hPa | 2.7V | 06:51:46 | 03:38:22 | 00:00:00 | |
| DM0DOS-11 | 2026-08-31 03:03:47 | 53.35679 | 6.97636 | 52° | 55km/h | 2323m | -1.8m/s | 2.8°C | 0% | 764.9hPa | 2.7V | 06:51:06 | 03:38:16 | 00:00:00 | |
| DL1XH-west | 2026-08-31 03:03:43 | 53.35687 | 6.97654 | 53° | 55km/h | 2321m | -2m/s | 2.8°C | 100% | 765hPa | 2.7V | 06:51:46 | 03:38:17 | 00:00:00 | |
| DL4BBY-15 | 2026-08-31 03:03:41 | 53.35670 | 6.97618 | 53° | 53km/h | 2325m | -1.9m/s | 2.3°C | 0% | 0hPa | 2.7V | 00:00:00 | 00:00:00 | 00:00:00 | |
| DF5WG-10 | 2026-08-31 03:03:40 | 53.35662 | 6.97599 | 53° | 53km/h | 2327m | -1.9m/s | 2.7°C | 0% | 764.6hPa | 2.7V | 00:00:00 | 03:38:14 | 00:00:00 | |
| DM0DOS-11 | 2026-08-31 03:03:37 | 53.35638 | 6.97545 | 53° | 53km/h | 2332m | -1.9m/s | 2.7°C | 0% | 764hPa | 2.7V | 06:51:11 | 03:38:11 | 00:00:00 | |
| DM0DOS-11 | 2026-08-31 03:03:37 | 53.35599 | 6.97455 | 53° | 53km/h | 2341m | -1.6m/s | 2.7°C | 0% | 763.2hPa | 2.7V | 06:51:16 | 03:38:06 | 00:00:00 | |
| BIOWL1-15 | 2026-08-31 03:03:37 | 53.35638 | 6.97545 | 54° | 53km/h | 2332m | -1.9m/s | 2.7°C | 100% | 764hPa | 2.7V | 06:51:46 | 03:38:11 | 00:00:00 | |
| DL1XH-west | 2026-08-31 03:03:32 | 53.35599 | 6.97455 | 54° | 53km/h | 2341m | -1.6m/s | 2.7°C | 100% | 763.2hPa | 2.7V | 06:51:46 | 03:38:06 | 00:00:00 | |
| BIOWL1-15 | 2026-08-31 03:03:27 | 53.35560 | 6.97364 | 54° | 55km/h | 2349m | -1.9m/s | 2.6°C | 100% | 762.5hPa | 2.7V | 06:51:46 | 03:38:01 | 00:00:00 | |
| GOEST3-10 | 2026-08-31 03:03:27 | 53.35560 | 6.97364 | 55° | 53km/h | 2349m | -1.9m/s | 2.6°C | 0% | 762.4hPa | 2.7V | 00:00:00 | 00:00:00 | 00:00:00 | |
| BIOWL9-15 | 2026-08-31 03:03:25 | 53.35544 | 6.97327 | 54° | 53km/h | 2353m | -2.1m/s | 2.6°C | 100.0% | 762.1hPa | 2.7V | 00:00:00 | 00:00:00 | 00:00:00 | |
| DM0DOS-11 | 2026-08-31 03:03:22 | 53.35479 | 6.97181 | 52° | 51km/h | 2368m | -2m/s | 2.6°C | 0% | 760.6hPa | 2.7V | 06:51:31 | 03:37:51 | 00:00:00 | |
| DL1XH-west | 2026-08-31 03:03:22 | 53.35519 | 6.97271 | 54° | 55km/h | 2359m | -1.9m/s | 2.6°C | 100% | 761.6hPa | 2.7V | 06:51:46 | 03:37:56 | 00:00:00 | |
| DF5WG-10 | 2026-08-31 03:03:22 | 53.35519 | 6.97271 | 55° | 53km/h | 2359m | -1.9m/s | 2.6°C | 0% | 761.6hPa | 2.7V | 00:00:00 | 03:37:56 | 00:00:00 | |
| DM0DOS-11 | 2026-08-31 03:03:17 | 53.35439 | 6.97099 | 49° | 49km/h | 2379m | -2.3m/s | 2.5°C | 0% | 759.8hPa | 2.7V | 06:51:36 | 03:37:46 | 00:00:00 | |
| BIOWL1-15 | 2026-08-31 03:03:17 | 53.35479 | 6.97181 | 53° | 51km/h | 2368m | -2m/s | 2.6°C | 100% | 760.6hPa | 2.7V | 06:51:46 | 03:37:51 | 00:00:00 | |
| DF5WG-10 | 2026-08-31 03:03:16 | 53.35471 | 6.97164 | 53° | 49km/h | 2370m | -2.0m/s | 2.5°C | 0% | 760.5hPa | 2.7V | 00:00:00 | 03:37:50 | 00:00:00 | |
| DM0DOS-11 | 2026-08-31 03:03:12 | 53.35399 | 6.97020 | 49° | 49km/h | 2391m | -2.3m/s | 2.5°C | 0% | 758.7hPa | 2.7V | 06:51:41 | 03:37:41 | 00:00:00 | |
| DL1XH-west | 2026-08-31 03:03:11 | 53.35431 | 6.97083 | 49° | 49km/h | 2381m | -2.3m/s | 2.5°C | 100% | 759.6hPa | 2.7V | 06:51:46 | 03:37:45 | 00:00:00 | |
| DO9LL-15 | 2026-08-31 03:03:11 | 53.35431 | 6.97083 | 50° | 49km/h | 2381m | -2.3m/s | 2.4°C | 0% | 759.6hPa | 2.7V | 00:00:00 | 03:37:45 | 00:00:00 | |
| DF5WG-10 | 2026-08-31 03:03:10 | 53.35423 | 6.97067 | 50° | 49km/h | 2384m | -2.2m/s | 2.4°C | 0% | 759.3hPa | 2.7V | 00:00:00 | 03:37:44 | 00:00:00 | |
| DM0DOS-11 | 2026-08-31 03:03:07 | 53.35359 | 6.96941 | 50° | 49km/h | 2404m | -2.8m/s | 2.4°C | 0% | 757.3hPa | 2.7V | 06:51:46 | 03:37:36 | 00:00:00 | |
| BIOWL1-15 | 2026-08-31 03:03:06 | 53.35391 | 6.97004 | 50° | 49km/h | 2393m | -2.2m/s | 2.5°C | 100% | 758.4hPa | 2.7V | 06:51:46 | 03:37:40 | 00:00:00 | |
| DL1XH-west | 2026-08-31 03:03:00 | 53.35344 | 6.96908 | 51° | 49km/h | 2410m | -3m/s | 2.4°C | 100% | 757hPa | 2.7V | 06:52:37 | 03:37:34 | 00:00:00 | |
| HTAHTA | 2026-08-31 03:02:59 | 53.35336 | 6.96892 | 50° | 49km/h | 2413m | -3.0m/s | 2.3°C | 100.0% | 756.7hPa | 2.7V | 00:00:00 | 00:00:00 | 00:00:00 | |
| DM0DOS-11 | 2026-08-31 03:02:57 | 53.35320 | 6.96860 | 50° | 51km/h | 2420m | -3.3m/s | 2.3°C | 0% | 756.1hPa | 2.7V | 06:51:51 | 03:37:31 | 00:00:00 | |
| DM0DOS-11 | 2026-08-31 03:02:57 | 53.35278 | 6.96776 | 50° | 51km/h | 2435m | -3m/s | 1.9°C | 0% | 754.6hPa | 2.7V | 06:51:56 | 03:37:26 | 00:00:00 | |
| BIOWL1-15 | 2026-08-31 03:02:57 | 53.35303 | 6.96826 | 51° | 51km/h | 2426m | -3.3m/s | 2°C | 100% | 755.4hPa | 2.7V | 06:52:37 | 03:37:29 | 00:00:00 | |
| DL1XH-west | 2026-08-31 03:02:49 | 53.35255 | 6.96728 | 51° | 47km/h | 2444m | -2.8m/s | 1.9°C | 100% | 753.8hPa | 2.7V | 06:52:37 | 03:37:23 | 00:00:00 | |
| DM0DOS-11 | 2026-08-31 03:02:47 | 53.35240 | 6.96696 | 51° | 47km/h | 2450m | -3m/s | 1.9°C | 0% | 753.2hPa | 2.7V | 06:52:01 | 03:37:21 | 00:00:00 | |
| DM0DOS-11 | 2026-08-31 03:02:47 | 53.35203 | 6.96619 | 51° | 46km/h | 2463m | -2.8m/s | 1.7°C | 0% | 752hPa | 2.7V | 06:52:06 | 03:37:16 | 00:00:00 | |
| BIOWL1-15 | 2026-08-31 03:02:46 | 53.35218 | 6.96650 | 51° | 46km/h | 2458m | -2.7m/s | 1.8°C | 100% | 752.4hPa | 2.7V | 06:52:37 | 03:37:18 | 00:00:00 | |
| DF5WG-10 | 2026-08-31 03:02:46 | 53.35232 | 6.96681 | 52° | 46km/h | 2452m | -2.7m/s | 1.8°C | 0% | 752.9hPa | 2.7V | 06:52:00 | 03:37:20 | 00:00:00 | |
| DM0DOS-11 | 2026-08-31 03:02:42 | 53.35168 | 6.96544 | 54° | 46km/h | 2476m | -2.5m/s | 1.7°C | 0% | 750.8hPa | 2.7V | 06:52:11 | 03:37:11 | 00:00:00 | |
| DL1XH-west | 2026-08-31 03:02:38 | 53.35175 | 6.96559 | 53° | 44km/h | 2473m | -2.4m/s | 1.7°C | 100% | 751hPa | 2.7V | 06:52:37 | 03:37:12 | 00:00:00 | |
| DM0DOS-11 | 2026-08-31 03:02:37 | 53.35134 | 6.96462 | 56° | 49km/h | 2487m | -2.2m/s | 1.7°C | 0% | 749.5hPa | 2.7V | 06:52:16 | 03:37:06 | 00:00:00 | |
| BIOWL1-15 | 2026-08-31 03:02:33 | 53.35141 | 6.96479 | 56° | 47km/h | 2485m | -2.3m/s | 1.7°C | 100% | 749.9hPa | 2.7V | 06:52:37 | 03:37:07 | 00:00:00 | |
| DL1XH-west | 2026-08-31 03:02:28 | 53.35107 | 6.96392 | 58° | 49km/h | 2496m | -2.2m/s | 1.6°C | 100% | 748.9hPa | 2.7V | 06:52:37 | 03:37:02 | 00:00:00 | |
| BIOWL1-15 | 2026-08-31 03:02:22 | 53.35069 | 6.96284 | 60° | 49km/h | 2509m | -1.7m/s | 1.6°C | 100% | 747.5hPa | 2.7V | 06:52:37 | 03:36:56 | 00:00:00 | |
| DL1XH-west | 2026-08-31 03:02:17 | 53.35039 | 6.96192 | 62° | 49km/h | 2518m | -1.6m/s | 1.5°C | 100% | 746.8hPa | 2.7V | 06:52:37 | 03:36:51 | 00:00:00 | |
| BIOWL1-15 | 2026-08-31 03:02:11 | 53.34998 | 6.96080 | 56° | 53km/h | 2529m | -1.8m/s | 1.4°C | 100% | 745.9hPa | 2.7V | 06:52:37 | 03:36:45 | 00:00:00 | |
| DO9LL-15 | 2026-08-31 03:02:11 | 53.34998 | 6.96080 | 57° | 49km/h | 2529m | -1.8m/s | 1.3°C | 0% | 745.8hPa | 2.7V | 00:00:00 | 03:36:45 | 00:00:00 | |
| DF5WG-10 | 2026-08-31 03:02:10 | 53.34991 | 6.96061 | 56° | 51km/h | 2530m | -1.6m/s | 1.4°C | 0% | 745.6hPa | 2.7V | 00:00:00 | 03:36:44 | 00:00:00 | |
| DM0DOS-11 | 2026-08-31 03:02:07 | 53.34969 | 6.96006 | 56° | 51km/h | 2536m | -1.9m/s | 1.4°C | 0% | 745.2hPa | 2.7V | 06:52:41 | 03:36:41 | 00:00:00 | |
| DL1XH-west | 2026-08-31 03:02:06 | 53.34961 | 6.95988 | 57° | 51km/h | 2538m | -1.7m/s | 1.4°C | 100% | 745hPa | 2.7V | 06:53:28 | 03:36:40 | 00:00:00 | |
| BIOWL1-15 | 2026-08-31 03:02:03 | 53.34928 | 6.95902 | 57° | 47km/h | 2548m | -2.3m/s | 1.4°C | 100% | 744hPa | 2.7V | 06:53:28 | 03:36:35 | 00:00:00 | |
| DM0DOS-11 | 2026-08-31 03:02:02 | 53.34902 | 6.95837 | 54° | 47km/h | 2556m | -2.1m/s | 1.4°C | 0% | 743.2hPa | 2.7V | 06:52:51 | 03:36:31 | 00:00:00 | |
| DF5WG-10 | 2026-08-31 03:01:58 | 53.34908 | 6.95853 | 55° | 47km/h | 2554m | -2.2m/s | 1.3°C | 0% | 743.3hPa | 2.7V | 00:00:00 | 03:36:32 | 00:00:00 | |
| DM0DOS-11 | 2026-08-31 03:01:57 | 53.34868 | 6.95749 | 59° | 51km/h | 2568m | -2.4m/s | 1.3°C | 0% | 742.2hPa | 2.7V | 06:52:56 | 03:36:26 | 00:00:00 | |
| DL1XH-west | 2026-08-31 03:01:56 | 53.34895 | 6.95820 | 56° | 47km/h | 2558m | -2.3m/s | 1.3°C | 100% | 743.1hPa | 2.7V | 06:53:28 | 03:36:30 | 00:00:00 | |
| DM0DOS-11 | 2026-08-31 03:01:52 | 53.34835 | 6.95653 | 60° | 53km/h | 2580m | -2.1m/s | 1.2°C | 0% | 741.1hPa | 2.7V | 06:53:01 | 03:36:21 | 00:00:00 | |
| BIOWL1-15 | 2026-08-31 03:01:52 | 53.34855 | 6.95711 | 60° | 53km/h | 2573m | -2.4m/s | 1.3°C | 100% | 741.8hPa | 2.7V | 06:53:28 | 03:36:24 | 00:00:00 | |
| DF5WG-10 | 2026-08-31 03:01:52 | 53.34868 | 6.95749 | 60° | 53km/h | 2568m | -2.4m/s | 1.2°C | 0% | 742.1hPa | 2.7V | 00:00:00 | 03:36:26 | 00:00:00 | |
| DM0DOS-11 | 2026-08-31 03:01:47 | 53.34802 | 6.95557 | 58° | 53km/h | 2591m | -2.4m/s | 1.2°C | 0% | 740.2hPa | 2.7V | 06:53:06 | 03:36:16 | 00:00:00 | |
| DL1XH-west | 2026-08-31 03:01:46 | 53.34829 | 6.95634 | 61° | 53km/h | 2582m | -2m/s | 1.2°C | 100% | 741hPa | 2.6V | 06:53:28 | 03:36:20 | 00:00:00 | |
| DJ2DS-15 | 2026-08-31 03:01:44 | 53.34816 | 6.95596 | 59° | 51km/h | 2586m | -2.3m/s | 1.2°C | 100.0% | 740.6hPa | 2.7V | 00:00:00 | 00:00:00 | 00:00:00 | |
| DL4BBY-15 | 2026-08-31 03:01:41 | 53.34795 | 6.95538 | 59° | 53km/h | 2593m | -2.3m/s | 0.7°C | 0% | 0hPa | 2.7V | 00:00:00 | 00:00:00 | 00:00:00 | |
| DF5WG-10 | 2026-08-31 03:01:40 | 53.34788 | 6.95519 | 60° | 53km/h | 2595m | -2.1m/s | 1.1°C | 0% | 739.6hPa | 2.7V | 00:00:00 | 03:36:14 | 00:00:00 | |
| BIOWL1-15 | 2026-08-31 03:01:40 | 53.34788 | 6.95519 | 59° | 53km/h | 2595m | -2.2m/s | 1.2°C | 100% | 739.7hPa | 2.7V | 06:53:28 | 03:36:14 | 00:00:00 | |
| DL1LOL-11 | 2026-08-31 03:01:38 | 53.34781 | 6.95500 | 60° | 53km/h | 2598m | -2.2m/s | 1.1°C | 0% | 739.4hPa | 2.7V | 06:53:00 | 00:00:00 | 00:00:00 | |
| DM0DOS-11 | 2026-08-31 03:01:37 | 53.34768 | 6.95461 | 59° | 53km/h | 2602m | -2.1m/s | 1.1°C | 0% | 739.1hPa | 2.7V | 06:53:11 | 03:36:11 | 00:00:00 | |
| DM0DOS-11 | 2026-08-31 03:01:37 | 53.34734 | 6.95368 | 56° | 51km/h | 2612m | -2m/s | 1.1°C | 0% | 738.1hPa | 2.7V | 06:53:16 | 03:36:06 | 00:00:00 | |
| DL1XH-west | 2026-08-31 03:01:35 | 53.34754 | 6.95424 | 59° | 51km/h | 2606m | -2m/s | 1.1°C | 100% | 738.6hPa | 2.7V | 06:53:28 | 03:36:09 | 00:00:00 | |
| BIOWL1-15 | 2026-08-31 03:01:29 | 53.34711 | 6.95313 | 56° | 53km/h | 2618m | -2m/s | 1°C | 100% | 737.6hPa | 2.7V | 06:53:28 | 03:36:03 | 00:00:00 | |
| DM0DOS-11 | 2026-08-31 03:01:27 | 53.34697 | 6.95277 | 55° | 53km/h | 2622m | -1.8m/s | 1°C | 0% | 737.3hPa | 2.7V | 06:53:21 | 03:36:01 | 00:00:00 | |
| DM0DOS-11 | 2026-08-31 03:01:27 | 53.34659 | 6.95183 | 58° | 53km/h | 2632m | -2.1m/s | 0.9°C | 0% | 736.4hPa | 2.7V | 06:53:26 | 03:35:56 | 00:00:00 | |
| DL1XH-west | 2026-08-31 03:01:25 | 53.34681 | 6.95240 | 56° | 53km/h | 2626m | -1.9m/s | 1°C | 100% | 736.9hPa | 2.7V | 06:53:28 | 03:35:59 | 00:00:00 | |
| DM0DOS-11 | 2026-08-31 03:01:22 | 53.34625 | 6.95088 | 58° | 51km/h | 2644m | -2.3m/s | 0.8°C | 0% | 735.2hPa | 2.7V | 06:53:31 | 03:35:51 | 00:00:00 | |
| BIOWL1-15 | 2026-08-31 03:01:20 | 53.34632 | 6.95107 | 60° | 51km/h | 2641m | -2.4m/s | 0.9°C | 100% | 735.4hPa | 2.7V | 06:54:19 | 03:35:52 | 00:00:00 | |
| DM0DOS-11 | 2026-08-31 03:01:17 | 53.34590 | 6.94998 | 55° | 51km/h | 2655m | -2.1m/s | 0.8°C | 0% | 734.1hPa | 2.7V | 06:53:36 | 03:35:46 | 00:00:00 | |
| DL1XH-west | 2026-08-31 03:01:14 | 53.34605 | 6.95034 | 57° | 51km/h | 2651m | -2.6m/s | 0.8°C | 100% | 734.5hPa | 2.7V | 06:54:19 | 03:35:48 | 00:00:00 | |
| BIOWL7-15 | 2026-08-31 03:01:13 | 53.34605 | 6.95034 | 58° | 51km/h | 2651m | -2.6m/s | 0.8°C | 0% | 734.5hPa | 2.7V | 00:00:00 | 00:00:00 | 00:00:00 | |
| DM0DOS-11 | 2026-08-31 03:01:12 | 53.34552 | 6.94906 | 54° | 55km/h | 2667m | -2.6m/s | 0.7°C | 0% | 733.1hPa | 2.7V | 06:53:41 | 03:35:41 | 00:00:00 | |
| BIOWL1-15 | 2026-08-31 03:01:10 | 53.34560 | 6.94924 | 55° | 55km/h | 2665m | -2.4m/s | 0.7°C | 100% | 733.3hPa | 2.7V | 06:54:19 | 03:35:42 | 00:00:00 | |
| DF5WG-10 | 2026-08-31 03:01:10 | 53.34575 | 6.94961 | 56° | 55km/h | 2660m | -2.3m/s | 0.7°C | 0% | 733.7hPa | 2.7V | 00:00:00 | 03:35:44 | 00:00:00 | |
| DJ2DS-15 | 2026-08-31 03:01:08 | 53.34552 | 6.94906 | 54° | 53km/h | 2667m | -2.6m/s | 0.7°C | 100.0% | 733.1hPa | 2.7V | 00:00:00 | 00:00:00 | 00:00:00 | |
| DM0DOS-11 | 2026-08-31 03:01:07 | 53.34511 | 6.94813 | 53° | 53km/h | 2679m | -2.6m/s | 0.7°C | 0% | 732.1hPa | 2.7V | 06:53:46 | 03:35:36 | 00:00:00 | |
| DL1XH-west | 2026-08-31 03:01:03 | 53.34519 | 6.94831 | 53° | 55km/h | 2677m | -2.6m/s | 0.7°C | 100% | 732hPa | 2.7V | 06:54:19 | 03:35:37 | 00:00:00 | |
| BIOWL1-15 | 2026-08-31 03:00:57 | 53.34474 | 6.94726 | 56° | 49km/h | 2691m | -2.1m/s | 0.6°C | 100% | 730.8hPa | 2.7V | 06:54:19 | 03:35:31 | 00:00:00 | |
| DL1XH-west | 2026-08-31 03:00:52 | 53.34440 | 6.94636 | 58° | 51km/h | 2703m | -2.8m/s | 0.5°C | 100% | 729.9hPa | 2.7V | 06:54:19 | 03:35:26 | 00:00:00 | |
| BIOWL9-15 | 2026-08-31 03:00:50 | 53.34426 | 6.94599 | 56° | 51km/h | 2708m | -2.6m/s | 0.5°C | 100.0% | 729.4hPa | 2.7V | 00:00:00 | 00:00:00 | 00:00:00 | |
| DM0DOS-11 | 2026-08-31 03:00:47 | 53.34404 | 6.94544 | 55° | 53km/h | 2716m | -2.6m/s | 0.4°C | 0% | 728.7hPa | 2.7V | 06:54:01 | 03:35:21 | 00:00:00 | |
| BIOWL1-15 | 2026-08-31 03:00:47 | 53.34404 | 6.94544 | 55° | 53km/h | 2716m | -2.6m/s | 0.4°C | 100% | 728.7hPa | 2.7V | 06:54:19 | 03:35:21 | 00:00:00 | |
| DO9LL-15 | 2026-08-31 03:00:46 | 53.34396 | 6.94526 | 56° | 53km/h | 2719m | -2.5m/s | 0.4°C | 0% | 728.4hPa | 2.7V | 00:00:00 | 03:35:20 | 00:00:00 | |
| DM0DOS-11 | 2026-08-31 03:00:42 | 53.34330 | 6.94361 | 56° | 51km/h | 2740m | -2.3m/s | 0.3°C | 0% | 726.5hPa | 2.7V | 06:54:11 | 03:35:11 | 00:00:00 | |
| DL1XH-west | 2026-08-31 03:00:41 | 53.34359 | 6.94434 | 56° | 53km/h | 2731m | -2.3m/s | 0.2°C | 100% | 727.4hPa | 2.7V | 06:54:19 | 03:35:15 | 00:00:00 | |
| BIOWL1-15 | 2026-08-31 03:00:40 | 53.34322 | 6.94343 | 56° | 51km/h | 2742m | -2.4m/s | 0.3°C | 100% | 726.3hPa | 2.7V | 06:54:19 | 03:35:10 | 00:00:00 | |
| DF5WG-10 | 2026-08-31 03:00:40 | 53.34351 | 6.94415 | 57° | 51km/h | 2733m | -2.5m/s | 0.1°C | 0% | 727.1hPa | 2.7V | 06:54:00 | 03:35:14 | 00:00:00 | |
| DM0DOS-11 | 2026-08-31 03:00:37 | 53.34293 | 6.94269 | 56° | 53km/h | 2752m | -2.5m/s | 0.2°C | 0% | 725.3hPa | 2.7V | 06:54:16 | 03:35:06 | 00:00:00 | |
| GOEST3-10 | 2026-08-31 03:00:37 | 53.34330 | 6.94361 | 57° | 53km/h | 2740m | -2.3m/s | 0.2°C | 0% | 726.4hPa | 2.7V | 06:54:00 | 03:35:11 | 00:00:00 | |
| DF5WG-10 | 2026-08-31 03:00:34 | 53.34308 | 6.94306 | 57° | 53km/h | 2747m | -2.3m/s | 0.2°C | 0% | 725.7hPa | 2.7V | 00:00:00 | 03:35:08 | 00:00:00 | |
| DM0DOS-11 | 2026-08-31 03:00:32 | 53.34257 | 6.94172 | 58° | 53km/h | 2766m | -2.8m/s | -0.1°C | 0% | 724.2hPa | 2.7V | 06:54:21 | 03:35:01 | 00:00:00 | |
| DL1XH-west | 2026-08-31 03:00:30 | 53.34278 | 6.94230 | 58° | 55km/h | 2758m | -2.7m/s | -0.1°C | 100% | 725hPa | 2.7V | 06:54:19 | 03:35:04 | 00:00:00 | |
| DF5WG-10 | 2026-08-31 03:00:28 | 53.34264 | 6.94191 | 59° | 53km/h | 2763m | -2.8m/s | -0.1°C | 0% | 724.4hPa | 2.7V | 00:00:00 | 03:35:02 | 00:00:00 | |
| DM0DOS-11 | 2026-08-31 03:00:27 | 53.34223 | 6.94079 | 57° | 49km/h | 2780m | -3.2m/s | -0.4°C | 0% | 722.9hPa | 2.7V | 06:54:26 | 03:34:56 | 00:00:00 | |
| BIOWL1-15 | 2026-08-31 03:00:26 | 53.34250 | 6.94153 | 59° | 53km/h | 2768m | -2.6m/s | 0.1°C | 100% | 724hPa | 2.7V | 06:55:10 | 03:35:00 | 00:00:00 | |
| DO9LL-15 | 2026-08-31 03:00:26 | 53.34250 | 6.94153 | 59° | 51km/h | 2768m | -2.5m/s | 0.0°C | 0% | 724.0hPa | 2.7V | 00:00:00 | 03:35:00 | 00:00:00 | |
| HTAHTA | 2026-08-31 03:00:24 | 53.34237 | 6.94115 | 58° | 49km/h | 2774m | -2.9m/s | 0.0°C | 100.0% | 723.5hPa | 2.7V | 00:00:00 | 00:00:00 | 00:00:00 | |
| DM0DOS-11 | 2026-08-31 03:00:22 | 53.34190 | 6.93996 | 55° | 46km/h | 2796m | -2.9m/s | -0.4°C | 0% | 721.5hPa | 2.7V | 06:54:31 | 03:34:51 | 00:00:00 | |
| DL1XH-west | 2026-08-31 03:00:20 | 53.34210 | 6.94045 | 56° | 47km/h | 2786m | -3.2m/s | -0.5°C | 100% | 722.4hPa | 2.7V | 06:55:10 | 03:34:54 | 00:00:00 | |
| BIOWL1-15 | 2026-08-31 03:00:15 | 53.34176 | 6.93963 | 56° | 47km/h | 2801m | -2.6m/s | -0.4°C | 100% | 721.1hPa | 2.7V | 06:55:10 | 03:34:49 | 00:00:00 | |
| DL1LOL-11 | 2026-08-31 03:00:13 | 53.34169 | 6.93946 | 56° | 49km/h | 2804m | -2.6m/s | -0.4°C | 0% | 720.8hPa | 2.7V | 00:00:00 | 00:00:00 | 00:00:00 | |
| DM0DOS-11 | 2026-08-31 03:00:12 | 53.34155 | 6.93911 | 56° | 51km/h | 2809m | -2.8m/s | -0.4°C | 0% | 720.2hPa | 2.7V | 06:54:36 | 03:34:46 | 00:00:00 | |
| DM0DOS-11 | 2026-08-31 03:00:12 | 53.34120 | 6.93817 | 59° | 51km/h | 2824m | -2.8m/s | -0.4°C | 0% | 718.9hPa | 2.7V | 06:54:41 | 03:34:41 | 00:00:00 | |
| DL1XH-west | 2026-08-31 03:00:09 | 53.34134 | 6.93855 | 59° | 53km/h | 2818m | -3m/s | -0.5°C | 100% | 719.5hPa | 2.7V | 06:55:10 | 03:34:43 | 00:00:00 | |
| BIOWL1-15 | 2026-08-31 03:00:05 | 53.34106 | 6.93779 | 59° | 53km/h | 2829m | -2.4m/s | -0.5°C | 100% | 718.5hPa | 2.7V | 06:55:10 | 03:34:39 | 00:00:00 | |
| DF5WG-10 | 2026-08-31 03:00:04 | 53.34099 | 6.93760 | 60° | 53km/h | 2831m | -2.2m/s | -0.4°C | 0% | 718.1hPa | 2.7V | 00:00:00 | 03:34:38 | 00:00:00 | |
| DM0DOS-11 | 2026-08-31 03:00:02 | 53.34086 | 6.93722 | 60° | 53km/h | 2836m | -2.3m/s | -0.8°C | 0% | 717.8hPa | 2.7V | 06:54:46 | 03:34:36 | 00:00:00 | |
| DM0DOS-11 | 2026-08-31 03:00:02 | 53.34053 | 6.93628 | 58° | 49km/h | 2847m | -2.3m/s | -0.9°C | 0% | 716.8hPa | 2.7V | 06:54:51 | 03:34:31 | 00:00:00 | |
| DL1XH-west | 2026-08-31 02:59:59 | 53.34067 | 6.93665 | 60° | 51km/h | 2843m | -2.4m/s | -0.9°C | 98.3% | 717.2hPa | 2.7V | 06:55:10 | 03:34:33 | 00:00:00 | |
| DO9LL-15 | 2026-08-31 02:59:58 | 53.34060 | 6.93646 | 59° | 47km/h | 2845m | -2.1m/s | -0.8°C | 0% | 717.0hPa | 2.7V | 00:00:00 | 03:34:32 | 00:00:00 | |
| DM0DOS-11 | 2026-08-31 02:59:57 | 53.34019 | 6.93543 | 55° | 47km/h | 2859m | -2.4m/s | -0.7°C | 0% | 715.9hPa | 2.7V | 06:54:56 | 03:34:26 | 00:00:00 | |
| BIOWL1-15 | 2026-08-31 02:59:54 | 53.34033 | 6.93577 | 56° | 47km/h | 2854m | -2.5m/s | -0.8°C | 100% | 716.3hPa | 2.7V | 06:55:10 | 03:34:28 | 00:00:00 | |
| HTAHTA | 2026-08-31 02:59:53 | 53.34026 | 6.93560 | 55° | 47km/h | 2856m | -2.3m/s | -0.7°C | 100.0% | 716.0hPa | 2.7V | 00:00:00 | 00:00:00 | 00:00:00 | |
| DM0DOS-11 | 2026-08-31 02:59:52 | 53.33984 | 6.93462 | 52° | 47km/h | 2871m | -2.4m/s | -0.9°C | 0% | 714.8hPa | 2.7V | 06:55:01 | 03:34:21 | 00:00:00 | |
| DL1XH-west | 2026-08-31 02:59:49 | 53.33998 | 6.93494 | 54° | 47km/h | 2866m | -2.6m/s | -0.9°C | 100% | 715.1hPa | 2.7V | 06:55:10 | 03:34:23 | 00:00:00 | |
| BIOWL9-15 | 2026-08-31 02:59:48 | 53.33991 | 6.93478 | 53° | 47km/h | 2868m | -2.4m/s | -0.9°C | 100.0% | 715.0hPa | 2.7V | 00:00:00 | 00:00:00 | 00:00:00 | |
| DM0DOS-11 | 2026-08-31 02:59:47 | 53.33948 | 6.93385 | 53° | 44km/h | 2884m | -2.7m/s | -1.1°C | 0% | 713.5hPa | 2.7V | 06:55:06 | 03:34:16 | 00:00:00 | |
| GOEST3-10 | 2026-08-31 02:59:47 | 53.33984 | 6.93462 | 53° | 46km/h | 2871m | -2.3m/s | -0.8°C | 0% | 714.7hPa | 2.6V | 00:00:00 | 00:00:00 | 00:00:00 | |
| DF5WG-10 | 2026-08-31 02:59:46 | 53.33977 | 6.93446 | 52° | 46km/h | 2873m | -2.6m/s | -0.8°C | 0% | 714.5hPa | 2.6V | 00:00:00 | 03:34:20 | 00:00:00 | |
| BIOWL1-15 | 2026-08-31 02:59:46 | 53.33962 | 6.93415 | 52° | 46km/h | 2879m | -2.6m/s | -1°C | 100% | 714hPa | 2.7V | 06:55:10 | 03:34:18 | 00:00:00 | |
| DM0DOS-11 | 2026-08-31 02:59:42 | 53.33915 | 6.93308 | 53° | 46km/h | 2898m | -2.3m/s | -1.2°C | 0% | 712.4hPa | 2.6V | 06:55:11 | 03:34:11 | 00:00:00 | |
| DL1XH-west | 2026-08-31 02:59:39 | 53.33928 | 6.93339 | 55° | 46km/h | 2893m | -2.8m/s | -1.1°C | 100% | 712.7hPa | 2.7V | 06:55:10 | 03:34:13 | 00:00:00 | |
| BIOWL1-15 | 2026-08-31 02:59:33 | 53.33887 | 6.93247 | 51° | 46km/h | 2909m | -2.9m/s | -1.3°C | 99.9% | 711.3hPa | 2.7V | 06:56:01 | 03:34:07 | 00:00:00 | |
| DM0DOS-11 | 2026-08-31 02:59:32 | 53.33879 | 6.93232 | 51° | 46km/h | 2912m | -2.9m/s | -1.3°C | 99.9% | 711.1hPa | 2.7V | 06:55:16 | 03:34:06 | 00:00:00 | |
| DM0DOS-11 | 2026-08-31 02:59:32 | 53.33843 | 6.93158 | 50° | 46km/h | 2925m | -2.8m/s | -1.4°C | 0% | 709.9hPa | 2.7V | 06:55:21 | 03:34:01 | 00:00:00 | |
| DL1XH-west | 2026-08-31 02:59:28 | 53.33850 | 6.93173 | 50° | 46km/h | 2922m | -2.6m/s | -1.4°C | 99.8% | 710.2hPa | 2.6V | 06:56:01 | 03:34:02 | 00:00:00 | |
| BIOWL1-15 | 2026-08-31 02:59:26 | 53.33805 | 6.93084 | 49° | 47km/h | 2938m | -2.4m/s | -1.5°C | 100% | 708.7hPa | 2.7V | 06:56:01 | 03:33:56 | 00:00:00 | |
| DM0DOS-11 | 2026-08-31 02:59:22 | 53.33805 | 6.93084 | 49° | 47km/h | 2938m | -2.4m/s | -1.5°C | 0% | 708.7hPa | 2.7V | 06:55:26 | 03:33:56 | 00:00:00 | |
| DM0DOS-11 | 2026-08-31 02:59:22 | 53.33766 | 6.93007 | 50° | 47km/h | 2951m | -2.7m/s | -1.6°C | 0% | 707.6hPa | 2.7V | 06:55:31 | 03:33:51 | 00:00:00 | |
| DL1XH-west | 2026-08-31 02:59:18 | 53.33774 | 6.93023 | 50° | 47km/h | 2949m | -2.7m/s | -1.6°C | 100% | 707.8hPa | 2.7V | 06:56:01 | 03:33:52 | 00:00:00 | |
| DO9LL-15 | 2026-08-31 02:59:18 | 53.33774 | 6.93023 | 50° | 47km/h | 2949m | -2.6m/s | -1.5°C | 0% | 707.7hPa | 2.7V | 06:55:00 | 03:33:52 | 00:00:00 | |
| DM0DOS-11 | 2026-08-31 02:59:17 | 53.33729 | 6.92929 | 52° | 47km/h | 2964m | -2.5m/s | -1.7°C | 0% | 706.3hPa | 2.7V | 06:55:36 | 03:33:46 | 00:00:00 | |
| GOEST3-10 | 2026-08-31 02:59:17 | 53.33766 | 6.93007 | 51° | 47km/h | 2951m | -2.7m/s | -1.6°C | 0% | 707.6hPa | 2.7V | 00:00:00 | 03:33:51 | 00:00:00 | |
| DF5WG-10 | 2026-08-31 02:59:16 | 53.33759 | 6.92992 | 51° | 47km/h | 2954m | -2.5m/s | -1.6°C | 0% | 707.3hPa | 2.7V | 06:55:00 | 03:33:50 | 00:00:00 | |
| DM0DOS-11 | 2026-08-31 02:59:12 | 53.33693 | 6.92849 | 51° | 47km/h | 2977m | -2.4m/s | -1.7°C | 0% | 705.4hPa | 2.7V | 06:55:41 | 03:33:41 | 00:00:00 | |
| BIOWL1-15 | 2026-08-31 02:59:12 | 53.33729 | 6.92929 | 53° | 47km/h | 2964m | -2.6m/s | -1.7°C | 100% | 706.4hPa | 2.7V | 06:56:01 | 03:33:46 | 00:00:00 | |
| DL1XH-west | 2026-08-31 02:59:08 | 53.33700 | 6.92865 | 53° | 47km/h | 2974m | -2.3m/s | -1.7°C | 100% | 705.5hPa | 2.7V | 06:56:01 | 03:33:42 | 00:00:00 | |
| BIOWL1-15 | 2026-08-31 02:59:02 | 53.33654 | 6.92772 | 49° | 47km/h | 2989m | -2.3m/s | -1.8°C | 100% | 704.1hPa | 2.7V | 06:56:01 | 03:33:36 | 00:00:00 | |
| DO9LL-15 | 2026-08-31 02:58:58 | 53.33621 | 6.92710 | 49° | 46km/h | 2999m | -2.4m/s | -1.8°C | 0% | 703.3hPa | 2.6V | 00:00:00 | 03:33:32 | 00:00:00 | |
| DM0DOS-11 | 2026-08-31 02:58:57 | 53.33574 | 6.92610 | 54° | 49km/h | 3013m | -2.7m/s | -2°C | 0% | 702hPa | 2.7V | 06:55:56 | 03:33:26 | 00:00:00 | |
| DL1XH-west | 2026-08-31 02:58:57 | 53.33613 | 6.92694 | 49° | 49km/h | 3001m | -2.4m/s | -1.9°C | 99.7% | 703.1hPa | 2.6V | 06:56:01 | 03:33:31 | 00:00:00 | |
| BIOWL1-15 | 2026-08-31 02:58:52 | 53.33574 | 6.92610 | 54° | 49km/h | 3014m | -2.7m/s | -2°C | 100% | 702hPa | 2.7V | 06:56:01 | 03:33:26 | 00:00:00 | |
| HTAHTA | 2026-08-31 02:58:51 | 53.33566 | 6.92593 | 54° | 49km/h | 3016m | -2.7m/s | -2.0°C | 99.1% | 701.9hPa | 2.6V | 00:00:00 | 00:00:00 | 00:00:00 | |
| GOEST3-10 | 2026-08-31 02:58:50 | 53.33559 | 6.92576 | 55° | 46km/h | 3019m | -2.6m/s | -2.0°C | 0% | 701.6hPa | 2.6V | 00:00:00 | 00:00:00 | 00:00:00 | |
| DF5WG-10 | 2026-08-31 02:58:48 | 53.33545 | 6.92543 | 56° | 44km/h | 3024m | -2.5m/s | -2.0°C | 0% | 701.1hPa | 2.6V | 00:00:00 | 03:33:22 | 00:00:00 | |
| DM0DOS-11 | 2026-08-31 02:58:47 | 53.33506 | 6.92453 | 51° | 44km/h | 3040m | -2.4m/s | -2.2°C | 0% | 699.7hPa | 2.6V | 06:56:06 | 03:33:16 | 00:00:00 | |
| DL1XH-west | 2026-08-31 02:58:46 | 53.33532 | 6.92512 | 55° | 44km/h | 3029m | -2.6m/s | -2.1°C | 100% | 700.7hPa | 2.7V | 06:56:52 | 03:33:20 | 00:00:00 | |
| GOEST3-10 | 2026-08-31 02:58:45 | 53.33526 | 6.92497 | 55° | 44km/h | 3032m | -2.8m/s | -2.1°C | 0% | 700.4hPa | 2.7V | 00:00:00 | 03:33:19 | 00:00:00 | |
| BIOWL7-15 | 2026-08-31 02:58:43 | 53.33519 | 6.92482 | 55° | 44km/h | 3035m | -2.8m/s | -2.1°C | 99.1% | 700.2hPa | 2.7V | 06:56:00 | 00:00:00 | 00:00:00 | |
| DM0DOS-11 | 2026-08-31 02:58:42 | 53.33471 | 6.92384 | 48° | 44km/h | 3051m | -2m/s | -2.2°C | 0% | 698.8hPa | 2.7V | 06:56:11 | 03:33:11 | 00:00:00 | |
| BIOWL1-15 | 2026-08-31 02:58:41 | 53.33499 | 6.92439 | 50° | 44km/h | 3042m | -2.3m/s | -2.2°C | 100% | 699.5hPa | 2.6V | 06:56:52 | 03:33:15 | 00:00:00 | |
| DL4BBY-15 | 2026-08-31 02:58:41 | 53.33499 | 6.92439 | 51° | 46km/h | 3042m | -2.3m/s | -2.5°C | 0% | 0hPa | 2.7V | 00:00:00 | 00:00:00 | 00:00:00 | |
| GOEST3-10 | 2026-08-31 02:58:40 | 53.33492 | 6.92425 | 50° | 44km/h | 3045m | -2.6m/s | -2.1°C | 0% | 699.3hPa | 2.7V | 00:00:00 | 00:00:00 | 00:00:00 | |
| DF5WG-10 | 2026-08-31 02:58:38 | 53.33478 | 6.92398 | 49° | 44km/h | 3050m | -2.1m/s | -2.2°C | 0% | 698.8hPa | 2.7V | 00:00:00 | 03:33:12 | 00:00:00 | |
| DM0DOS-11 | 2026-08-31 02:58:37 | 53.33436 | 6.92314 | 52° | 42km/h | 3062m | -2.1m/s | -2.3°C | 0% | 697.8hPa | 2.7V | 06:56:16 | 03:33:06 | 00:00:00 | |
| DL1XH-west | 2026-08-31 02:58:35 | 53.33457 | 6.92357 | 50° | 44km/h | 3056m | -2.2m/s | -2.2°C | 100% | 698.3hPa | 2.6V | 06:56:52 | 03:33:09 | 00:00:00 | |
| BIOWL1-15 | 2026-08-31 02:58:33 | 53.33430 | 6.92300 | 53° | 44km/h | 3064m | -2.1m/s | -2.3°C | 100% | 697.5hPa | 2.7V | 06:56:52 | 03:33:05 | 00:00:00 | |
| DO9LL-15 | 2026-08-31 02:58:33 | 53.33443 | 6.92328 | 52° | 47km/h | 3060m | -2.2m/s | -2.2°C | 0% | 697.9hPa | 2.6V | 00:00:00 | 03:33:07 | 00:00:00 | |
| DM0DOS-11 | 2026-08-31 02:58:32 | 53.33403 | 6.92241 | 52° | 44km/h | 3073m | -2.2m/s | -2.4°C | 0% | 696.8hPa | 2.6V | 06:56:21 | 03:33:01 | 00:00:00 | |
| GOEST3-10 | 2026-08-31 02:58:30 | 53.33423 | 6.92285 | 53° | 44km/h | 3066m | -2.3m/s | 0°C | 0% | 0hPa | 2.7V | 00:00:00 | 00:00:00 | 00:00:00 | |
| DF5WG-10 | 2026-08-31 02:58:28 | 53.33410 | 6.92256 | 53° | 46km/h | 3071m | -2.3m/s | -2.3°C | 0% | 696.9hPa | 2.7V | 00:00:00 | 03:33:02 | 00:00:00 | |
| DM0DOS-11 | 2026-08-31 02:58:27 | 53.33368 | 6.92167 | 50° | 47km/h | 3085m | -2.5m/s | -2.4°C | 0% | 695.7hPa | 2.7V | 06:56:26 | 03:32:56 | 00:00:00 | |
| DL1XH-west | 2026-08-31 02:58:25 | 53.33390 | 6.92212 | 52° | 44km/h | 3078m | -2.3m/s | -2.4°C | 100% | 696.4hPa | 2.7V | 06:56:52 | 03:32:59 | 00:00:00 | |
| BIOWL1-15 | 2026-08-31 02:58:22 | 53.33353 | 6.92136 | 51° | 49km/h | 3090m | -2.4m/s | -2.4°C | 100% | 695.3hPa | 2.7V | 06:56:52 | 03:32:54 | 00:00:00 | |
| GOEST3-10 | 2026-08-31 02:58:20 | 53.33353 | 6.92136 | 52° | 49km/h | 3090m | -2.4m/s | -2.4°C | 0% | 695.2hPa | 2.7V | 00:00:00 | 00:00:00 | 00:00:00 | |
| DM0DOS-11 | 2026-08-31 02:58:17 | 53.33329 | 6.92088 | 51° | 49km/h | 3097m | -2.1m/s | -2.5°C | 0% | 694.6hPa | 2.7V | 06:56:31 | 03:32:51 | 00:00:00 | |
| DM0DOS-11 | 2026-08-31 02:58:17 | 53.33291 | 6.92005 | 52° | 49km/h | 3108m | -2.3m/s | -2.5°C | 0% | 693.7hPa | 2.6V | 06:56:36 | 03:32:46 | 00:00:00 | |
| DL1XH-west | 2026-08-31 02:58:14 | 53.33306 | 6.92038 | 52° | 49km/h | 3104m | -2.2m/s | -2.5°C | 100% | 694.1hPa | 2.7V | 06:56:52 | 03:32:48 | 00:00:00 | |
| BIOWL1-15 | 2026-08-31 02:58:11 | 53.33267 | 6.91956 | 52° | 49km/h | 3115m | -2.4m/s | -2.6°C | 100% | 693hPa | 2.7V | 06:56:52 | 03:32:43 | 00:00:00 | |
| DL4BBY-15 | 2026-08-31 02:58:11 | 53.33283 | 6.91989 | 52° | 51km/h | 3110m | -2.4m/s | -2.9°C | 0% | 0hPa | 2.7V | 00:00:00 | 00:00:00 | 00:00:00 | |
| GOEST3-10 | 2026-08-31 02:58:10 | 53.33275 | 6.91972 | 52° | 51km/h | 3113m | -2.1m/s | -2.5°C | 0% | 693.3hPa | 2.7V | 00:00:00 | 00:00:00 | 00:00:00 | |
| DM0DOS-11 | 2026-08-31 02:58:07 | 53.33252 | 6.91923 | 50° | 51km/h | 3120m | -2.7m/s | -2.6°C | 0% | 692.7hPa | 2.7V | 06:56:41 | 03:32:41 | 00:00:00 | |
| DM0DOS-11 | 2026-08-31 02:58:07 | 53.33212 | 6.91838 | 54° | 51km/h | 3133m | -2.8m/s | -2.7°C | 0% | 691.6hPa | 2.7V | 06:56:46 | 03:32:36 | 00:00:00 | |
| DL1XH-west | 2026-08-31 02:58:03 | 53.33220 | 6.91856 | 53° | 51km/h | 3130m | -2.9m/s | -2.7°C | 100% | 691.7hPa | 2.6V | 06:56:52 | 03:32:37 | 00:00:00 | |
| DO9LL-15 | 2026-08-31 02:58:03 | 53.33219 | 6.91856 | 54° | 51km/h | 3130m | -2.8m/s | -2.6°C | 0% | 691.6hPa | 2.6V | 00:00:00 | 03:32:37 | 00:00:00 | |
| DM0DOS-11 | 2026-08-31 02:58:02 | 53.33175 | 6.91746 | 58° | 53km/h | 3146m | -3m/s | -2.8°C | 0% | 690.4hPa | 2.6V | 06:56:51 | 03:32:31 | 00:00:00 | |
| GOEST3-10 | 2026-08-31 02:58:00 | 53.33196 | 6.91802 | 56° | 53km/h | 3138m | -2.5m/s | -2.7°C | 0% | 691.0hPa | 2.7V | 06:56:00 | 00:00:00 | 00:00:00 | |
| DF5WG-10 | 2026-08-31 02:57:58 | 53.33182 | 6.91764 | 58° | 49km/h | 3143m | -2.7m/s | -2.7°C | 0% | 690.6hPa | 2.7V | 00:00:00 | 03:32:32 | 00:00:00 | |
| BIOWL1-15 | 2026-08-31 02:57:58 | 53.33182 | 6.91765 | 58° | 53km/h | 3143m | -2.7m/s | -2.8°C | 100% | 690.6hPa | 2.7V | 06:56:52 | 03:32:32 | 00:00:00 | |
| DM0DOS-11 | 2026-08-31 02:57:57 | 53.33141 | 6.91655 | 57° | 49km/h | 3157m | -2.4m/s | -2.9°C | 0% | 689.3hPa | 2.7V | 06:56:56 | 03:32:26 | 00:00:00 | |
| BIOWL1-15 | 2026-08-31 02:57:52 | 53.33113 | 6.91588 | 53° | 47km/h | 3167m | -2.1m/s | -2.9°C | 100% | 688.5hPa | 2.7V | 06:57:43 | 03:32:22 | 00:00:00 | |
| DL1XH-west | 2026-08-31 02:57:52 | 53.33141 | 6.91655 | 57° | 49km/h | 3157m | -2.4m/s | -2.9°C | 100% | 689.3hPa | 2.7V | 06:57:43 | 03:32:26 | 00:00:00 | |
| HTAHTA | 2026-08-31 02:57:49 | 53.33121 | 6.91605 | 54° | 47km/h | 3164m | -2.3m/s | -2.9°C | 100.0% | 688.7hPa | 2.6V | 00:00:00 | 00:00:00 | 00:00:00 | |
| DF5WG-10 | 2026-08-31 02:57:48 | 53.33113 | 6.91588 | 54° | 51km/h | 3167m | -2.1m/s | -2.8°C | 0% | 688.5hPa | 2.6V | 00:00:00 | 03:32:22 | 00:00:00 | |
| DM0DOS-11 | 2026-08-31 02:57:47 | 53.33068 | 6.91486 | 54° | 51km/h | 3180m | -2.4m/s | -3°C | 0% | 687.3hPa | 2.6V | 06:57:06 | 03:32:16 | 00:00:00 | |
| GOEST3-10 | 2026-08-31 02:57:45 | 53.33091 | 6.91538 | 53° | 51km/h | 3174m | -2.5m/s | -2.9°C | 0% | 687.9hPa | 2.7V | 00:00:00 | 03:32:19 | 00:00:00 | |
| BIOWL9-15 | 2026-08-31 02:57:44 | 53.33076 | 6.91504 | 54° | 51km/h | 3178m | -2.2m/s | -3.0°C | 100.0% | 687.5hPa | 2.7V | 00:00:00 | 00:00:00 | 00:00:00 | |
| DM0DOS-11 | 2026-08-31 02:57:42 | 53.33033 | 6.91396 | 58° | 49km/h | 3190m | -2.1m/s | -3.1°C | 0% | 686.4hPa | 2.7V | 06:57:11 | 03:32:11 | 00:00:00 | |
| DL1XH-west | 2026-08-31 02:57:42 | 53.33068 | 6.91486 | 55° | 51km/h | 3180m | -2.4m/s | -3°C | 100% | 687.3hPa | 2.6V | 06:57:43 | 03:32:16 | 00:00:00 | |
| BIOWL1-15 | 2026-08-31 02:57:38 | 53.33039 | 6.91414 | 57° | 51km/h | 3189m | -2.1m/s | -3.1°C | 100% | 686.6hPa | 2.7V | 06:57:43 | 03:32:12 | 00:00:00 | |
| DF5WG-10 | 2026-08-31 02:57:38 | 53.33039 | 6.91414 | 58° | 47km/h | 3189m | -2.0m/s | -3.0°C | 0% | 686.5hPa | 2.7V | 00:00:00 | 03:32:12 | 00:00:00 | |
| BIOWL7-15 | 2026-08-31 02:57:37 | 53.33039 | 6.91414 | 58° | 51km/h | 3189m | -2.1m/s | -3.1°C | 0% | 686.6hPa | 2.7V | 06:57:00 | 00:00:00 | 00:00:00 | |
| GOEST3-10 | 2026-08-31 02:57:35 | 53.33019 | 6.91361 | 58° | 46km/h | 3194m | -1.8m/s | -3.1°C | 0% | 685.9hPa | 2.7V | 00:00:00 | 03:32:09 | 00:00:00 | |
| DC6BW-12 | 2026-08-31 02:57:34 | 53.33019 | 6.91361 | 59° | 47km/h | 3194m | -1.8m/s | -3.1°C | 116.8% | 686.0hPa | 2.7V | 00:00:00 | 00:00:00 | 00:00:00 | |
| DM0DOS-11 | 2026-08-31 02:57:32 | 53.33000 | 6.91312 | 57° | 44km/h | 3200m | -1.9m/s | -3.1°C | 0% | 685.6hPa | 2.7V | 06:57:16 | 03:32:06 | 00:00:00 | |
| DM0DOS-11 | 2026-08-31 02:57:32 | 53.32969 | 6.91234 | 58° | 42km/h | 3210m | -2.4m/s | -3.2°C | 0% | 684.6hPa | 2.6V | 06:57:21 | 03:32:01 | 00:00:00 | |
| DL1XH-west | 2026-08-31 02:57:31 | 53.32994 | 6.91296 | 55° | 46km/h | 3201m | -1.6m/s | -3.2°C | 100% | 685.4hPa | 2.7V | 06:57:43 | 03:32:05 | 00:00:00 | |
| BIOWL1-15 | 2026-08-31 02:57:27 | 53.32969 | 6.91234 | 59° | 42km/h | 3210m | -2.4m/s | -3.2°C | 100% | 684.6hPa | 2.6V | 06:57:43 | 03:32:01 | 00:00:00 | |
| GOEST3-10 | 2026-08-31 02:57:25 | 53.32957 | 6.91203 | 59° | 44km/h | 3215m | -2.7m/s | 0°C | 0% | 0hPa | 2.7V | 06:57:00 | 03:31:59 | 00:00:00 | |
| DM0DOS-11 | 2026-08-31 02:57:22 | 53.32916 | 6.91071 | 62° | 46km/h | 3242m | -3.7m/s | -3.4°C | 0% | 682hPa | 2.7V | 06:57:31 | 03:31:51 | 00:00:00 | |
| DL1XH-west | 2026-08-31 02:57:20 | 53.32931 | 6.91122 | 62° | 46km/h | 3231m | -4m/s | -3.3°C | 100% | 682.8hPa | 2.6V | 06:57:43 | 03:31:54 | 00:00:00 | |
| BIOWL1-15 | 2026-08-31 02:57:17 | 53.32916 | 6.91071 | 63° | 46km/h | 3242m | -3.7m/s | -3.4°C | 100% | 682hPa | 2.7V | 06:57:43 | 03:31:51 | 00:00:00 | |
| GOEST3-10 | 2026-08-31 02:57:14 | 53.32899 | 6.91021 | 61° | 47km/h | 3253m | -4.1m/s | -3.4°C | 0% | 680.9hPa | 2.7V | 00:00:00 | 03:31:48 | 00:00:00 | |
| BIOWL9-15 | 2026-08-31 02:57:13 | 53.32888 | 6.90987 | 58° | 47km/h | 3261m | -4.0m/s | -3.5°C | 100.0% | 680.3hPa | 2.7V | 00:00:00 | 00:00:00 | 00:00:00 | |
| DM0DOS-11 | 2026-08-31 02:57:12 | 53.32854 | 6.90899 | 58° | 51km/h | 3282m | -4m/s | -3.7°C | 0% | 678.6hPa | 2.7V | 06:57:41 | 03:31:41 | 00:00:00 | |
| DL1XH-west | 2026-08-31 02:57:09 | 53.32868 | 6.90935 | 57° | 49km/h | 3274m | -4.2m/s | -3.6°C | 100% | 679.2hPa | 2.7V | 06:57:43 | 03:31:43 | 00:00:00 | |
| DF5WG-10 | 2026-08-31 02:57:08 | 53.32861 | 6.90917 | 58° | 47km/h | 3278m | -4.2m/s | -3.6°C | 0% | 678.9hPa | 2.7V | 06:57:00 | 03:31:42 | 00:00:00 | |
| DM0DOS-11 | 2026-08-31 02:57:07 | 53.32825 | 6.90808 | 64° | 47km/h | 3302m | -3.8m/s | -3.7°C | 0% | 676.7hPa | 2.7V | 06:57:46 | 03:31:36 | 00:00:00 | |
| BIOWL1-15 | 2026-08-31 02:57:06 | 53.32848 | 6.90881 | 60° | 49km/h | 3286m | -4.5m/s | -3.7°C | 100% | 678.3hPa | 2.6V | 06:57:43 | 03:31:40 | 00:00:00 | |
| DL1XH-west | 2026-08-31 02:56:58 | 53.32807 | 6.90740 | 69° | 42km/h | 3317m | -4.1m/s | -3.9°C | 100% | 675.4hPa | 2.6V | 06:58:34 | 03:31:32 | 00:00:00 | |
| DM0DOS-11 | 2026-08-31 02:56:57 | 53.32803 | 6.90723 | 67° | 42km/h | 3321m | -3.9m/s | -3.9°C | 0% | 675hPa | 2.6V | 06:57:51 | 03:31:31 | 00:00:00 | |
| DM0DOS-11 | 2026-08-31 02:56:57 | 53.32781 | 6.90644 | 60° | 44km/h | 3339m | -3.7m/s | -4.2°C | 0% | 673.5hPa | 2.7V | 06:57:56 | 03:31:26 | 00:00:00 | |
| BIOWL1-15 | 2026-08-31 02:56:56 | 53.32799 | 6.90707 | 67° | 40km/h | 3325m | -3.6m/s | -3.9°C | 100% | 674.6hPa | 2.7V | 06:58:34 | 03:31:30 | 00:00:00 | |
| DL1XH-west | 2026-08-31 02:56:48 | 53.32755 | 6.90581 | 56° | 49km/h | 3352m | -3.8m/s | -4.4°C | 100% | 672.4hPa | 2.7V | 06:58:34 | 03:31:22 | 00:00:00 | |
| DM0DOS-11 | 2026-08-31 02:56:47 | 53.32748 | 6.90564 | 56° | 49km/h | 3356m | -3.7m/s | -4.4°C | 0% | 672hPa | 2.7V | 06:58:01 | 03:31:21 | 00:00:00 | |
| BIOWL1-15 | 2026-08-31 02:56:45 | 53.32735 | 6.90529 | 61° | 49km/h | 3362m | -2.7m/s | -4.6°C | 100% | 671.5hPa | 2.7V | 06:58:34 | 03:31:19 | 00:00:00 | |
| GOEST3-10 | 2026-08-31 02:56:44 | 53.32730 | 6.90510 | 64° | 46km/h | 3365m | -3.2m/s | -4.5°C | 0% | 671.3hPa | 2.6V | 00:00:00 | 03:31:18 | 00:00:00 | |
| DM0DOS-11 | 2026-08-31 02:56:42 | 53.32702 | 6.90392 | 66° | 38km/h | 3384m | -2.3m/s | -4.6°C | 0% | 669.6hPa | 2.6V | 06:58:11 | 03:31:11 | 00:00:00 | |
| BIOWL9-15 | 2026-08-31 02:56:42 | 53.32716 | 6.90457 | 70° | 44km/h | 3374m | -3.2m/s | -4.7°C | 100.0% | 670.7hPa | 2.7V | 00:00:00 | 00:00:00 | 00:00:00 | |
| DL4BBY-15 | 2026-08-31 02:56:41 | 53.32716 | 6.90457 | 71° | 42km/h | 3374m | -3.2m/s | -5.0°C | 0% | 0hPa | 2.7V | 00:00:00 | 00:00:00 | 00:00:00 | |
| GOEST3-10 | 2026-08-31 02:56:39 | 53.32709 | 6.90422 | 71° | 38km/h | 3379m | -2.5m/s | -4.6°C | 0% | 670.1hPa | 2.7V | 00:00:00 | 00:00:00 | 00:00:00 | |
| DF5WG-10 | 2026-08-31 02:56:38 | 53.32706 | 6.90406 | 67° | 38km/h | 3382m | -2.2m/s | -4.5°C | 0% | 669.8hPa | 2.7V | 00:00:00 | 03:31:12 | 00:00:00 | |
| DM0DOS-11 | 2026-08-31 02:56:37 | 53.32682 | 6.90321 | 58° | 35km/h | 3400m | -3.7m/s | -4.3°C | 0% | 668.4hPa | 2.7V | 06:58:16 | 03:31:06 | 00:00:00 | |
| BIOWL1-15 | 2026-08-31 02:56:37 | 53.32695 | 6.90362 | 68° | 37km/h | 3390m | -3.3m/s | -4.5°C | 100% | 669.3hPa | 2.7V | 06:58:34 | 03:31:09 | 00:00:00 | |
| DL1XH-west | 2026-08-31 02:56:37 | 53.32702 | 6.90392 | 66° | 38km/h | 3384m | -2.3m/s | -4.6°C | 100% | 669.6hPa | 2.6V | 06:58:34 | 03:31:11 | 00:00:00 | |
| GOEST3-10 | 2026-08-31 02:56:34 | 53.32691 | 6.90348 | 62° | 37km/h | 3393m | -3.4m/s | -4.4°C | 0% | 668.9hPa | 2.7V | 00:00:00 | 03:31:08 | 00:00:00 | |
| DO9LL-15 | 2026-08-31 02:56:33 | 53.32687 | 6.90334 | 65° | 44km/h | 3396m | -3.5m/s | -4.4°C | 0% | 668.7hPa | 2.7V | 00:00:00 | 03:31:07 | 00:00:00 | |
| DM0DOS-11 | 2026-08-31 02:56:32 | 53.32653 | 6.90252 | 53° | 46km/h | 3416m | -3.5m/s | -4.7°C | 0% | 667.2hPa | 2.7V | 06:58:21 | 03:31:01 | 00:00:00 | |
| BIOWL1-15 | 2026-08-31 02:56:29 | 53.32639 | 6.90220 | 54° | 47km/h | 3423m | -3.8m/s | -4.9°C | 100% | 666.5hPa | 2.7V | 06:58:34 | 03:30:59 | 00:00:00 | |
| DF5WG-10 | 2026-08-31 02:56:28 | 53.32660 | 6.90267 | 52° | 46km/h | 3413m | -3.1m/s | -4.6°C | 0% | 667.3hPa | 2.7V | 00:00:00 | 03:31:02 | 00:00:00 | |
| DM0DOS-11 | 2026-08-31 02:56:27 | 53.32617 | 6.90174 | 47° | 46km/h | 3434m | -2.9m/s | -5°C | 0% | 665.7hPa | 2.6V | 06:58:26 | 03:30:56 | 00:00:00 | |
| DL1XH-west | 2026-08-31 02:56:26 | 53.32646 | 6.90236 | 54° | 47km/h | 3420m | -3.6m/s | -4.8°C | 100% | 666.8hPa | 2.7V | 06:58:34 | 03:31:00 | 00:00:00 | |
| GOEST3-10 | 2026-08-31 02:56:24 | 53.32632 | 6.90204 | 54° | 46km/h | 3427m | -3.6m/s | -5.0°C | 0% | 666.2hPa | 2.7V | 00:00:00 | 03:30:58 | 00:00:00 | |
| GOEST3-10 | 2026-08-31 02:56:19 | 53.32594 | 6.90129 | 49° | 46km/h | 3441m | -2.1m/s | -5.2°C | 0% | 665.0hPa | 2.7V | 00:00:00 | 00:00:00 | 00:00:00 | |
| DM0DOS-11 | 2026-08-31 02:56:17 | 53.32579 | 6.90099 | 50° | 46km/h | 3446m | -2.3m/s | -5.2°C | 0% | 664.6hPa | 2.7V | 06:58:31 | 03:30:51 | 00:00:00 | |
| DM0DOS-11 | 2026-08-31 02:56:17 | 53.32544 | 6.90027 | 51° | 44km/h | 3457m | -1.9m/s | -5.3°C | 0% | 663.8hPa | 2.7V | 06:58:36 | 03:30:46 | 00:00:00 | |
| DL1XH-west | 2026-08-31 02:56:15 | 53.32565 | 6.90069 | 50° | 46km/h | 3451m | -2.4m/s | -5.3°C | 100% | 664.2hPa | 2.6V | 06:58:34 | 03:30:49 | 00:00:00 | |
| BIOWL1-15 | 2026-08-31 02:56:14 | 53.32558 | 6.90055 | 49° | 44km/h | 3453m | -2.5m/s | -5.4°C | 100% | 664hPa | 2.7V | 06:58:34 | 03:30:48 | 00:00:00 | |
| BIOWL9-15 | 2026-08-31 02:56:11 | 53.32531 | 6.89998 | 52° | 42km/h | 3461m | -2.2m/s | -5.2°C | 100.0% | 663.4hPa | 2.7V | 00:00:00 | 00:00:00 | 00:00:00 | |
| GOEST3-10 | 2026-08-31 02:56:09 | 53.32524 | 6.89984 | 54° | 44km/h | 3463m | -2.2m/s | -5.1°C | 0% | 663.2hPa | 2.7V | 00:00:00 | 00:00:00 | 00:00:00 | |
| DM0DOS-11 | 2026-08-31 02:56:07 | 53.32512 | 6.89955 | 54° | 42km/h | 3468m | -2.3m/s | -5.3°C | 0% | 662.9hPa | 2.7V | 06:58:41 | 03:30:41 | 00:00:00 | |
| DM0DOS-11 | 2026-08-31 02:56:07 | 53.32478 | 6.89878 | 52° | 47km/h | 3480m | -2.2m/s | -5.1°C | 0% | 662hPa | 2.6V | 06:58:46 | 03:30:36 | 00:00:00 | |
| DL1XH-west | 2026-08-31 02:56:04 | 53.32492 | 6.89909 | 53° | 46km/h | 3475m | -2.4m/s | -5.3°C | 100% | 662.3hPa | 2.7V | 06:59:25 | 03:30:38 | 00:00:00 | |
| BIOWL1-15 | 2026-08-31 02:56:03 | 53.32485 | 6.89894 | 53° | 46km/h | 3477m | -2.3m/s | -5.3°C | 100% | 662.2hPa | 2.7V | 06:59:25 | 03:30:37 | 00:00:00 | |
| DO9LL-15 | 2026-08-31 02:56:03 | 53.32485 | 6.89894 | 53° | 47km/h | 3477m | -2.3m/s | -5.3°C | 0% | 662.1hPa | 2.7V | 06:58:00 | 03:30:37 | 00:00:00 | |
| DM0DOS-11 | 2026-08-31 02:56:02 | 53.32441 | 6.89797 | 54° | 49km/h | 3491m | -2.4m/s | -4.4°C | 76.6% | 661hPa | 2.7V | 06:58:51 | 03:30:31 | 00:00:00 | |
| GOEST3-10 | 2026-08-31 02:55:59 | 53.32455 | 6.89830 | 53° | 47km/h | 3487m | -2.4m/s | -4.3°C | 79.1% | 661.3hPa | 2.7V | 00:00:00 | 00:00:00 | 00:00:00 | |
| DF5WG-10 | 2026-08-31 02:55:58 | 53.32448 | 6.89814 | 54° | 47km/h | 3489m | -2.2m/s | -4.3°C | 77.9% | 661.1hPa | 2.7V | 06:58:00 | 03:30:32 | 00:00:00 | |
| DM0DOS-11 | 2026-08-31 02:55:57 | 53.32406 | 6.89714 | 55° | 47km/h | 3503m | -2.2m/s | -4.5°C | 78.1% | 660hPa | 2.7V | 06:58:56 | 03:30:26 | 00:00:00 | |
| DL1XH-west | 2026-08-31 02:55:54 | 53.32420 | 6.89747 | 56° | 47km/h | 3498m | -2.3m/s | -4.4°C | 81.1% | 660.4hPa | 2.6V | 06:59:25 | 03:30:28 | 00:00:00 | |
| BIOWL1-15 | 2026-08-31 02:55:53 | 53.32413 | 6.89731 | 56° | 47km/h | 3501m | -2.4m/s | -4.5°C | 80.3% | 660.2hPa | 2.7V | 06:59:25 | 03:30:27 | 00:00:00 | |
| DM0DOS-11 | 2026-08-31 02:55:52 | 53.32372 | 6.89635 | 52° | 46km/h | 3515m | -2.2m/s | -4.5°C | 73% | 659hPa | 2.6V | 06:59:01 | 03:30:21 | 00:00:00 | |
| GOEST3-10 | 2026-08-31 02:55:49 | 53.32386 | 6.89666 | 55° | 46km/h | 3510m | -2.2m/s | -4.5°C | 79.4% | 659.4hPa | 2.7V | 00:00:00 | 00:00:00 | 00:00:00 | |
| DF5WG-10 | 2026-08-31 02:55:48 | 53.32379 | 6.89650 | 54° | 46km/h | 3513m | -2.3m/s | -4.5°C | 78.3% | 659.1hPa | 2.7V | 00:00:00 | 03:30:22 | 00:00:00 | |
| DM0DOS-11 | 2026-08-31 02:55:47 | 53.32336 | 6.89561 | 49° | 46km/h | 3526m | -2.4m/s | -4.5°C | 65.4% | 658hPa | 2.7V | 06:59:06 | 03:30:16 | 00:00:00 | |
| HTAHTA | 2026-08-31 02:55:45 | 53.32351 | 6.89590 | 50° | 44km/h | 3522m | -2.4m/s | -4.5°C | 67.2% | 658.4hPa | 2.7V | 00:00:00 | 00:00:00 | 00:00:00 | |
| DL1XH-west | 2026-08-31 02:55:43 | 53.32344 | 6.89575 | 51° | 46km/h | 3524m | -2.2m/s | -4.5°C | 70.3% | 658.3hPa | 2.7V | 06:59:25 | 03:30:17 | 00:00:00 | |
| DL4BBY-15 | 2026-08-31 02:55:41 | 53.32329 | 6.89546 | 50° | 49km/h | 3529m | -2.4m/s | -4.8°C | 0% | 0hPa | 2.7V | 00:00:00 | 00:00:00 | 00:00:00 | |
| BIOWL9-15 | 2026-08-31 02:55:40 | 53.32314 | 6.89516 | 49° | 46km/h | 3534m | -2.5m/s | -4.5°C | 59.5% | 657.6hPa | 2.7V | 00:00:00 | 00:00:00 | 00:00:00 | |
| GOEST3-10 | 2026-08-31 02:55:39 | 53.32314 | 6.89516 | 50° | 49km/h | 3534m | -2.4m/s | -4.4°C | 61.2% | 657.6hPa | 2.7V | 06:59:00 | 00:00:00 | 00:00:00 | |
| DO9FK | 2026-08-31 02:55:38 | 53.32314 | 6.89516 | 50° | 47km/h | 3534m | -2.5m/s | -4.5°C | 59.5% | 657.6hPa | 2.7V | 06:59:00 | 00:00:00 | 00:00:00 | |
| DM0DOS-11 | 2026-08-31 02:55:37 | 53.32298 | 6.89485 | 49° | 49km/h | 3538m | -2m/s | -4.5°C | 61.9% | 657.1hPa | 2.7V | 06:59:11 | 03:30:11 | 00:00:00 | |
| DM0DOS-11 | 2026-08-31 02:55:37 | 53.32256 | 6.89403 | 49° | 51km/h | 3550m | -2.4m/s | -4.6°C | 60.8% | 656hPa | 2.7V | 06:59:16 | 03:30:06 | 00:00:00 | |
| BIOWL1-15 | 2026-08-31 02:55:34 | 53.32255 | 6.89403 | 50° | 51km/h | 3551m | -2.4m/s | -4.6°C | 63.7% | 656hPa | 2.7V | 06:59:25 | 03:30:06 | 00:00:00 | |
| DL1XH-west | 2026-08-31 02:55:33 | 53.32264 | 6.89420 | 50° | 51km/h | 3548m | -2.3m/s | -4.6°C | 63.8% | 656.2hPa | 2.6V | 06:59:25 | 03:30:07 | 00:00:00 | |
| DO9LL-15 | 2026-08-31 02:55:33 | 53.32264 | 6.89420 | 50° | 51km/h | 3548m | -2.3m/s | -4.6°C | 61.0% | 656.1hPa | 2.7V | 00:00:00 | 03:30:07 | 00:00:00 | |
| GOEST3-10 | 2026-08-31 02:55:29 | 53.32230 | 6.89353 | 50° | 51km/h | 3557m | -2.2m/s | -4.6°C | 60.6% | 655.5hPa | 2.7V | 00:00:00 | 00:00:00 | 00:00:00 | |
| DF5WG-10 | 2026-08-31 02:55:28 | 53.32222 | 6.89337 | 50° | 51km/h | 3559m | -2.3m/s | -4.6°C | 60.9% | 655.3hPa | 2.7V | 00:00:00 | 03:30:02 | 00:00:00 | |
| DM0DOS-11 | 2026-08-31 02:55:27 | 53.32172 | 6.89238 | 50° | 51km/h | 3572m | -2.3m/s | -4.8°C | 60.2% | 654.2hPa | 2.7V | 06:59:26 | 03:29:56 | 00:00:00 | |
| DL1XH-west | 2026-08-31 02:55:23 | 53.32180 | 6.89255 | 51° | 51km/h | 3570m | -2.1m/s | -4.8°C | 63.3% | 654.4hPa | 2.7V | 06:59:25 | 03:29:57 | 00:00:00 | |
| BIOWL1-15 | 2026-08-31 02:55:22 | 53.32172 | 6.89238 | 51° | 51km/h | 3572m | -2.3m/s | -4.8°C | 63.2% | 654.2hPa | 2.7V | 07:00:16 | 03:29:56 | 00:00:00 | |
| GOEST3-10 | 2026-08-31 02:55:19 | 53.32147 | 6.89188 | 52° | 49km/h | 3579m | -2.0m/s | -4.7°C | 58.0% | 653.7hPa | 2.6V | 00:00:00 | 00:00:00 | 00:00:00 | |
| DF5WG-10 | 2026-08-31 02:55:18 | 53.32140 | 6.89171 | 52° | 49km/h | 3581m | -2.0m/s | -4.7°C | 56.7% | 653.5hPa | 2.6V | 00:00:00 | 03:29:52 | 00:00:00 | |
| DM0DOS-11 | 2026-08-31 02:55:17 | 53.32094 | 6.89075 | 51° | 49km/h | 3594m | -2.3m/s | -4.9°C | 57.3% | 652.4hPa | 2.6V | 06:59:36 | 03:29:46 | 00:00:00 | |
| DL1XH-west | 2026-08-31 02:55:12 | 53.32094 | 6.89075 | 52° | 49km/h | 3594m | -2.3m/s | -4.9°C | 60.6% | 652.4hPa | 2.6V | 07:00:16 | 03:29:46 | 00:00:00 | |
| BIOWL1-15 | 2026-08-31 02:55:11 | 53.32086 | 6.89059 | 51° | 49km/h | 3596m | -2.1m/s | -4.9°C | 59.2% | 652.2hPa | 2.7V | 07:00:16 | 03:29:45 | 00:00:00 | |
| DL4BBY-15 | 2026-08-31 02:55:11 | 53.32086 | 6.89059 | 52° | 53km/h | 3596m | -2.1m/s | -5.3°C | 0% | 0hPa | 2.7V | 00:00:00 | 00:00:00 | 00:00:00 | |
| BIOWL9-15 | 2026-08-31 02:55:09 | 53.32063 | 6.89010 | 50° | 49km/h | 3603m | -2.3m/s | -4.9°C | 50.8% | 651.6hPa | 2.7V | 00:00:00 | 00:00:00 | 00:00:00 | |
| DF5WG-10 | 2026-08-31 02:55:08 | 53.32062 | 6.89010 | 51° | 51km/h | 3603m | -2.2m/s | -4.8°C | 52.3% | 651.6hPa | 2.7V | 00:00:00 | 03:29:42 | 00:00:00 | |
| DM0DOS-11 | 2026-08-31 02:55:07 | 53.32014 | 6.88910 | 50° | 51km/h | 3616m | -2.1m/s | -5°C | 51% | 650.5hPa | 2.7V | 06:59:46 | 03:29:36 | 00:00:00 | |
| BIOWL1-15 | 2026-08-31 02:55:03 | 53.32006 | 6.88893 | 51° | 51km/h | 3619m | -2.2m/s | -5°C | 52.7% | 650.3hPa | 2.7V | 07:00:16 | 03:29:35 | 00:00:00 | |
| DL1XH-west | 2026-08-31 02:55:02 | 53.32014 | 6.88910 | 51° | 51km/h | 3616m | -2.1m/s | -5°C | 53.7% | 650.6hPa | 2.7V | 07:00:16 | 03:29:36 | 00:00:00 | |
| GOEST3-10 | 2026-08-31 02:54:59 | 53.31989 | 6.88860 | 50° | 53km/h | 3623m | -2.3m/s | -4.9°C | 43.6% | 650.1hPa | 2.6V | 00:00:00 | 00:00:00 | 00:00:00 | |
| DF5WG-10 | 2026-08-31 02:54:58 | 53.31980 | 6.88843 | 49° | 53km/h | 3626m | -2.4m/s | -4.9°C | 43.6% | 649.8hPa | 2.6V | 00:00:00 | 03:29:32 | 00:00:00 | |
| DO9FK | 2026-08-31 02:54:57 | 53.31980 | 6.88843 | 49° | 51km/h | 3626m | -2.4m/s | -5.0°C | 42.3% | 649.8hPa | 2.6V | 07:00:00 | 00:00:00 | 00:00:00 | |
| GOEST3-10 | 2026-08-31 02:54:54 | 53.31944 | 6.88779 | 46° | 55km/h | 3634m | -2.5m/s | -5.0°C | 42.0% | 649.0hPa | 2.6V | 00:00:00 | 03:29:28 | 00:00:00 | |
| DM0DOS-11 | 2026-08-31 02:54:52 | 53.31925 | 6.88746 | 45° | 55km/h | 3640m | -2.4m/s | -5.1°C | 42.2% | 648.6hPa | 2.6V | 06:59:56 | 03:29:26 | 00:00:00 | |
| DM0DOS-11 | 2026-08-31 02:54:52 | 53.31878 | 6.88662 | 48° | 53km/h | 3650m | -2m/s | -5.1°C | 41.6% | 647.8hPa | 2.7V | 07:00:01 | 03:29:21 | 00:00:00 | |
| BIOWL1-15 | 2026-08-31 02:54:52 | 53.31906 | 6.88712 | 47° | 55km/h | 3644m | -2m/s | -5.1°C | 45.8% | 648.3hPa | 2.7V | 07:00:16 | 03:29:24 | 00:00:00 | |
| DL1XH-west | 2026-08-31 02:54:51 | 53.31915 | 6.88729 | 46° | 55km/h | 3642m | -2.1m/s | -5.1°C | 45.7% | 648.5hPa | 2.6V | 07:00:16 | 03:29:25 | 00:00:00 | |
| GOEST3-10 | 2026-08-31 02:54:49 | 53.31897 | 6.88696 | 48° | 53km/h | 3646m | -1.8m/s | -5.1°C | 42.1% | 648.1hPa | 2.7V | 00:00:00 | 00:00:00 | 00:00:00 | |
| DF5WG-10 | 2026-08-31 02:54:48 | 53.31887 | 6.88679 | 48° | 53km/h | 3648m | -2.2m/s | -5.0°C | 41.8% | 647.9hPa | 2.7V | 00:00:00 | 03:29:22 | 00:00:00 | |
| DM0DOS-11 | 2026-08-31 02:54:47 | 53.31836 | 6.88575 | 51° | 53km/h | 3660m | -2.2m/s | -5°C | 41.3% | 646.9hPa | 2.7V | 07:00:06 | 03:29:16 | 00:00:00 | |
| GOEST3-10 | 2026-08-31 02:54:44 | 53.31853 | 6.88610 | 52° | 53km/h | 3656m | -2.1m/s | -5.0°C | 41.3% | 647.2hPa | 2.7V | 00:00:00 | 03:29:18 | 00:00:00 | |
| HTAHTA | 2026-08-31 02:54:43 | 53.31836 | 6.88575 | 51° | 53km/h | 3660m | -2.2m/s | -5.0°C | 40.1% | 646.9hPa | 2.7V | 00:00:00 | 00:00:00 | 00:00:00 | |
| DM0DOS-11 | 2026-08-31 02:54:42 | 53.31792 | 6.88487 | 49° | 55km/h | 3671m | -2.2m/s | -5.1°C | 41.7% | 646hPa | 2.7V | 07:00:11 | 03:29:11 | 00:00:00 | |
| DL1XH-west | 2026-08-31 02:54:41 | 53.31827 | 6.88557 | 51° | 53km/h | 3662m | -2m/s | -5.1°C | 45.2% | 646.7hPa | 2.7V | 07:00:16 | 03:29:15 | 00:00:00 | |
| BIOWL1-15 | 2026-08-31 02:54:40 | 53.31819 | 6.88540 | 51° | 55km/h | 3665m | -2.3m/s | -5.1°C | 45.2% | 646.5hPa | 2.7V | 07:00:16 | 03:29:14 | 00:00:00 | |
| GOEST3-10 | 2026-08-31 02:54:39 | 53.31810 | 6.88522 | 50° | 55km/h | 3667m | -2.0m/s | -5.0°C | 41.5% | 646.3hPa | 2.6V | 00:00:00 | 00:00:00 | 00:00:00 | |
| DM0DOS-11 | 2026-08-31 02:54:37 | 53.31746 | 6.88404 | 44° | 55km/h | 3682m | -1.9m/s | -5.1°C | 41.6% | 645.2hPa | 2.6V | 07:00:16 | 03:29:06 | 00:00:00 | |
| DO9FK | 2026-08-31 02:54:36 | 53.31792 | 6.88487 | 50° | 55km/h | 3671m | -2.2m/s | -5.1°C | 40.5% | 646.0hPa | 2.7V | 07:00:00 | 00:00:00 | 00:00:00 | |
| GOEST3-10 | 2026-08-31 02:54:34 | 53.31765 | 6.88437 | 47° | 55km/h | 3677m | -2.0m/s | -5.1°C | 42.1% | 645.4hPa | 2.7V | 00:00:00 | 03:29:08 | 00:00:00 | |
| DO9LL-15 | 2026-08-31 02:54:33 | 53.31755 | 6.88421 | 46° | 58km/h | 3680m | -2.0m/s | -5.1°C | 42.0% | 645.4hPa | 2.7V | 00:00:00 | 03:29:07 | 00:00:00 | |
| DM0DOS-11 | 2026-08-31 02:54:32 | 53.31695 | 6.88318 | 46° | 58km/h | 3692m | -1.9m/s | -5.3°C | 42.4% | 644.3hPa | 2.7V | 07:00:21 | 03:29:01 | 00:00:00 | |
| DL1XH-west | 2026-08-31 02:54:30 | 53.31726 | 6.88371 | 45° | 57km/h | 3686m | -2.2m/s | -5.2°C | 45.4% | 644.8hPa | 2.7V | 07:01:07 | 03:29:04 | 00:00:00 | |
| BIOWL1-15 | 2026-08-31 02:54:29 | 53.31715 | 6.88353 | 46° | 57km/h | 3688m | -2.1m/s | -5.3°C | 45.5% | 644.6hPa | 2.7V | 07:01:07 | 03:29:03 | 00:00:00 | |
| DF5WG-10 | 2026-08-31 02:54:28 | 53.31705 | 6.88336 | 46° | 58km/h | 3690m | -1.6m/s | -5.2°C | 42.4% | 644.4hPa | 2.7V | 00:00:00 | 03:29:02 | 00:00:00 | |
| DM0DOS-11 | 2026-08-31 02:54:27 | 53.31645 | 6.88226 | 48° | 60km/h | 3702m | -2.2m/s | -5.3°C | 42.1% | 643.5hPa | 2.7V | 07:00:26 | 03:28:56 | 00:00:00 | |
| DL1XH-west | 2026-08-31 02:54:19 | 53.31615 | 6.88170 | 47° | 58km/h | 3708m | -2.4m/s | -5.4°C | 45.8% | 643hPa | 2.6V | 07:01:07 | 03:28:53 | 00:00:00 | |
| DM0DOS-11 | 2026-08-31 02:54:17 | 53.31594 | 6.88134 | 45° | 58km/h | 3712m | -1.8m/s | -5.4°C | 42.3% | 642.6hPa | 2.7V | 07:00:31 | 03:28:51 | 00:00:00 | |
| DM0DOS-11 | 2026-08-31 02:54:17 | 53.31541 | 6.88046 | 44° | 60km/h | 3723m | -2.5m/s | -5.5°C | 42.6% | 641.8hPa | 2.6V | 07:00:36 | 03:28:46 | 00:00:00 | |
| DL1XH-west | 2026-08-31 02:54:08 | 53.31496 | 6.87973 | 45° | 62km/h | 3731m | -1.9m/s | -5.5°C | 57.2% | 641hPa | 2.7V | 07:01:07 | 03:28:42 | 00:00:00 | |
| DM0DOS-11 | 2026-08-31 02:54:07 | 53.31485 | 6.87954 | 45° | 62km/h | 3733m | -2.1m/s | -5.6°C | 52.4% | 640.8hPa | 2.7V | 07:00:41 | 03:28:41 | 00:00:00 | |
| BIOWL9-15 | 2026-08-31 02:54:06 | 53.31474 | 6.87935 | 47° | 60km/h | 3735m | -2.3m/s | -5.6°C | 50.5% | 640.8hPa | 2.7V | 00:00:00 | 00:00:00 | 00:00:00 | |
| GOEST3-10 | 2026-08-31 02:54:04 | 53.31454 | 6.87897 | 50° | 57km/h | 3740m | -2.2m/s | -5.6°C | 52.5% | 640.3hPa | 2.7V | 00:00:00 | 03:28:38 | 00:00:00 | |
| DO9LL-15 | 2026-08-31 02:54:03 | 53.31444 | 6.87878 | 50° | 57km/h | 3742m | -2.1m/s | -5.6°C | 52.3% | 640.0hPa | 2.7V | 00:00:00 | 03:28:37 | 00:00:00 | |
| DM0DOS-11 | 2026-08-31 02:54:02 | 53.31388 | 6.87772 | 45° | 55km/h | 3755m | -1.9m/s | -5.7°C | 57.2% | 639.1hPa | 2.7V | 07:00:51 | 03:28:31 | 00:00:00 | |
| DL1XH-west | 2026-08-31 02:53:57 | 53.31388 | 6.87772 | 46° | 55km/h | 3755m | -1.9m/s | -5.7°C | 59.4% | 639.1hPa | 2.7V | 07:01:07 | 03:28:31 | 00:00:00 | |
| DJ2DS-15 | 2026-08-31 02:53:55 | 53.31368 | 6.87740 | 44° | 55km/h | 3759m | -2.4m/s | -5.8°C | 56.6% | 638.7hPa | 2.7V | 00:00:00 | 00:00:00 | 00:00:00 | |
| GOEST3-10 | 2026-08-31 02:53:54 | 53.31358 | 6.87723 | 44° | 58km/h | 3762m | -2.0m/s | -5.7°C | 58.7% | 638.5hPa | 2.7V | 00:00:00 | 03:28:28 | 00:00:00 | |
| DM0DOS-11 | 2026-08-31 02:53:52 | 53.31283 | 6.87607 | 42° | 58km/h | 3777m | -2.1m/s | -5.8°C | 56.8% | 637.3hPa | 2.7V | 07:01:01 | 03:28:21 | 00:00:00 | |
| DF5WG-10 | 2026-08-31 02:53:48 | 53.31294 | 6.87623 | 43° | 57km/h | 3775m | -2.3m/s | -5.8°C | 58.6% | 637.4hPa | 2.7V | 07:01:00 | 03:28:22 | 00:00:00 | |
| DM0DOS-11 | 2026-08-31 02:53:47 | 53.31230 | 6.87524 | 43° | 55km/h | 3788m | -2.4m/s | -5.6°C | 39% | 636.4hPa | 2.7V | 07:01:06 | 03:28:16 | 00:00:00 | |
| BIOWL1-15 | 2026-08-31 02:53:47 | 53.31283 | 6.87607 | 43° | 58km/h | 3777m | -2.1m/s | -5.8°C | 59.1% | 637.3hPa | 2.7V | 07:01:07 | 03:28:21 | 00:00:00 | |
| DL1XH-west | 2026-08-31 02:53:46 | 53.31272 | 6.87590 | 43° | 58km/h | 3779m | -2.3m/s | -5.7°C | 56.4% | 637.2hPa | 2.6V | 07:01:07 | 03:28:20 | 00:00:00 | |
| GOEST3-10 | 2026-08-31 02:53:43 | 53.31240 | 6.87540 | 44° | 55km/h | 3786m | -2.1m/s | -5.5°C | 40.9% | 636.3hPa | 2.7V | 00:00:00 | 03:28:17 | 00:00:00 | |
| DM0DOS-11 | 2026-08-31 02:53:42 | 53.31179 | 6.87446 | 40° | 57km/h | 3800m | -2.2m/s | -5.6°C | 34.8% | 635.5hPa | 2.7V | 07:01:11 | 03:28:11 | 00:00:00 | |
| DL1XH-west | 2026-08-31 02:53:36 | 53.31168 | 6.87431 | 40° | 57km/h | 3802m | -1.9m/s | -5.6°C | 38% | 635.3hPa | 2.7V | 07:01:58 | 03:28:10 | 00:00:00 | |
| BIOWL9-15 | 2026-08-31 02:53:35 | 53.31157 | 6.87416 | 39° | 57km/h | 3804m | -2.3m/s | -5.6°C | 33.5% | 635.1hPa | 2.6V | 00:00:00 | 00:00:00 | 00:00:00 | |
| DO9FK | 2026-08-31 02:53:34 | 53.31157 | 6.87416 | 41° | 57km/h | 3805m | -2.3m/s | -5.6°C | 33.5% | 635.1hPa | 2.6V | 07:01:00 | 00:00:00 | 00:00:00 | |
| DM0DOS-11 | 2026-08-31 02:53:32 | 53.31123 | 6.87369 | 39° | 58km/h | 3812m | -2.3m/s | -5.6°C | 33.7% | 634.5hPa | 2.6V | 07:01:16 | 03:28:06 | 00:00:00 | |
| DM0DOS-11 | 2026-08-31 02:53:32 | 53.31067 | 6.87292 | 38° | 58km/h | 3823m | -2.2m/s | -5.6°C | 31.6% | 633.6hPa | 2.6V | 07:01:21 | 03:28:01 | 00:00:00 | |
| DF5WG-10 | 2026-08-31 02:53:28 | 53.31078 | 6.87307 | 40° | 58km/h | 3821m | -2.1m/s | -5.5°C | 31.8% | 633.8hPa | 2.7V | 00:00:00 | 03:28:02 | 00:00:00 | |
| DM0DOS-11 | 2026-08-31 02:53:27 | 53.31010 | 6.87213 | 39° | 58km/h | 3836m | -2.5m/s | -5.5°C | 29.5% | 632.8hPa | 2.7V | 07:01:26 | 03:27:56 | 00:00:00 | |
| DL1XH-west | 2026-08-31 02:53:25 | 53.31044 | 6.87260 | 40° | 58km/h | 3828m | -2.2m/s | -5.5°C | 33.7% | 633.3hPa | 2.7V | 07:01:58 | 03:27:59 | 00:00:00 | |
| GOEST3-10 | 2026-08-31 02:53:23 | 53.31021 | 6.87229 | 40° | 58km/h | 3833m | -2.6m/s | -5.5°C | 29.9% | 632.9hPa | 2.7V | 00:00:00 | 03:27:57 | 00:00:00 | |
| DM0DOS-11 | 2026-08-31 02:53:22 | 53.30952 | 6.87134 | 39° | 60km/h | 3848m | -2.6m/s | -5.5°C | 28.3% | 631.7hPa | 2.7V | 07:01:31 | 03:27:51 | 00:00:00 | |
| WEDDY | 2026-08-31 02:53:20 | 53.30998 | 6.87197 | 41° | 58km/h | 3838m | -2.5m/s | -5.5°C | 28.3% | 632.5hPa | 2.7V | 00:00:00 | 00:00:00 | 00:00:00 | |
| DJ2DS-15 | 2026-08-31 02:53:19 | 53.30975 | 6.87166 | 39° | 58km/h | 3843m | -2.3m/s | -5.5°C | 28.0% | 632.1hPa | 2.7V | 00:00:00 | 00:00:00 | 00:00:00 | |
| DF5WG-10 | 2026-08-31 02:53:18 | 53.30964 | 6.87150 | 40° | 58km/h | 3845m | -2.3m/s | -5.5°C | 28.6% | 631.8hPa | 2.7V | 00:00:00 | 03:27:52 | 00:00:00 | |
| DM0DOS-11 | 2026-08-31 02:53:17 | 53.30894 | 6.87055 | 38° | 58km/h | 3860m | -2.7m/s | -5.6°C | 27.6% | 630.7hPa | 2.7V | 07:01:36 | 03:27:46 | 00:00:00 | |
| DL1XH-west | 2026-08-31 02:53:14 | 53.30917 | 6.87086 | 39° | 58km/h | 3855m | -2.5m/s | -5.5°C | 31.2% | 631.1hPa | 2.6V | 07:01:58 | 03:27:48 | 00:00:00 | |
| GOEST3-10 | 2026-08-31 02:53:13 | 53.30906 | 6.87071 | 39° | 58km/h | 3858m | -2.3m/s | -5.5°C | 27.7% | 630.9hPa | 2.6V | 00:00:00 | 03:27:47 | 00:00:00 | |
| DM0DOS-11 | 2026-08-31 02:53:12 | 53.30837 | 6.86979 | 39° | 57km/h | 3873m | -2.5m/s | -5.6°C | 27.2% | 629.7hPa | 2.6V | 07:01:41 | 03:27:41 | 00:00:00 | |
| DL4BBY-15 | 2026-08-31 02:53:11 | 53.30883 | 6.87040 | 39° | 55km/h | 3863m | -2.5m/s | -5.9°C | 0% | 0hPa | 2.7V | 00:00:00 | 00:00:00 | 00:00:00 | |
| HTAHTA | 2026-08-31 02:53:10 | 53.30860 | 6.87009 | 38° | 57km/h | 3868m | -2.7m/s | -5.6°C | 26.3% | 630.1hPa | 2.7V | 00:00:00 | 00:00:00 | 00:00:00 | |
| DF5WG-10 | 2026-08-31 02:53:08 | 53.30848 | 6.86994 | 39° | 57km/h | 3870m | -2.4m/s | -5.6°C | 27.1% | 629.9hPa | 2.7V | 00:00:00 | 03:27:42 | 00:00:00 | |
| DM0DOS-11 | 2026-08-31 02:53:07 | 53.30783 | 6.86902 | 42° | 55km/h | 3885m | -2.5m/s | -5.7°C | 27.2% | 628.7hPa | 2.7V | 07:01:46 | 03:27:36 | 00:00:00 | |
| DL1XH-west | 2026-08-31 02:53:03 | 53.30794 | 6.86918 | 42° | 57km/h | 3883m | -2.5m/s | -5.7°C | 30.5% | 628.9hPa | 2.7V | 07:01:58 | 03:27:37 | 00:00:00 | |
| WEDDY | 2026-08-31 02:52:59 | 53.30762 | 6.86870 | 45° | 55km/h | 3890m | -2.5m/s | -5.8°C | 26.4% | 628.4hPa | 2.7V | 00:00:00 | 00:00:00 | 00:00:00 | |
| DF5WG-10 | 2026-08-31 02:52:58 | 53.30743 | 6.86839 | 44° | 53km/h | 3895m | -2.6m/s | -5.8°C | 27.2% | 627.9hPa | 2.7V | 00:00:00 | 03:27:32 | 00:00:00 | |
| DM0DOS-11 | 2026-08-31 02:52:57 | 53.30684 | 6.86752 | 40° | 53km/h | 3909m | -2.2m/s | -5.9°C | 26.8% | 626.8hPa | 2.7V | 07:01:56 | 03:27:26 | 00:00:00 | |
| BIOWL1-15 | 2026-08-31 02:52:53 | 53.30694 | 6.86766 | 41° | 53km/h | 3907m | -2.3m/s | -5.9°C | 29.8% | 627hPa | 2.7V | 07:01:58 | 03:27:27 | 00:00:00 | |
| DL1XH-west | 2026-08-31 02:52:52 | 53.30684 | 6.86751 | 40° | 53km/h | 3909m | -2.2m/s | -5.9°C | 29.9% | 626.8hPa | 2.7V | 07:01:58 | 03:27:26 | 00:00:00 | |
| DF5WG-10 | 2026-08-31 02:52:48 | 53.30642 | 6.86694 | 39° | 55km/h | 3919m | -2.4m/s | -5.9°C | 26.3% | 625.9hPa | 2.6V | 00:00:00 | 03:27:22 | 00:00:00 | |
| DM0DOS-11 | 2026-08-31 02:52:47 | 53.30576 | 6.86610 | 36° | 55km/h | 3934m | -2.6m/s | -5.9°C | 27.2% | 624.8hPa | 2.6V | 07:02:06 | 03:27:16 | 00:00:00 | |
| BIOWL1-15 | 2026-08-31 02:52:42 | 53.30576 | 6.86610 | 36° | 55km/h | 3934m | -2.6m/s | -5.9°C | 30.8% | 624.8hPa | 2.6V | 07:02:49 | 03:27:16 | 00:00:00 | |
| DL1XH-west | 2026-08-31 02:52:41 | 53.30565 | 6.86597 | 36° | 55km/h | 3937m | -2.6m/s | -5.9°C | 30.9% | 624.5hPa | 2.6V | 07:02:49 | 03:27:15 | 00:00:00 | |
| DL4BBY-15 | 2026-08-31 02:52:41 | 53.30565 | 6.86597 | 36° | 51km/h | 3937m | -2.5m/s | -6.2°C | 0% | 0hPa | 2.7V | 00:00:00 | 00:00:00 | 00:00:00 | |
| WEDDY | 2026-08-31 02:52:39 | 53.30554 | 6.86584 | 36° | 55km/h | 3939m | -2.4m/s | -5.9°C | 26.5% | 624.3hPa | 2.7V | 07:02:00 | 00:00:00 | 00:00:00 | |
| DF5WG-10 | 2026-08-31 02:52:38 | 53.30532 | 6.86557 | 37° | 53km/h | 3944m | -2.5m/s | -5.9°C | 27.7% | 623.9hPa | 2.7V | 00:00:00 | 03:27:12 | 00:00:00 | |
| DM0DOS-11 | 2026-08-31 02:52:37 | 53.30470 | 6.86473 | 41° | 53km/h | 3959m | -2.4m/s | -6°C | 28.7% | 622.9hPa | 2.7V | 07:02:16 | 03:27:06 | 00:00:00 | |
| DO9LL-15 | 2026-08-31 02:52:33 | 53.30480 | 6.86488 | 42° | 51km/h | 3956m | -2.5m/s | -6.0°C | 28.4% | 622.9hPa | 2.7V | 00:00:00 | 03:27:07 | 00:00:00 | |
| DM0DOS-11 | 2026-08-31 02:52:32 | 53.30421 | 6.86401 | 39° | 51km/h | 3971m | -2.5m/s | -6.1°C | 29.6% | 621.7hPa | 2.7V | 07:02:21 | 03:27:01 | 00:00:00 | |
| BIOWL1-15 | 2026-08-31 02:52:31 | 53.30460 | 6.86459 | 42° | 53km/h | 3961m | -2.5m/s | -6°C | 31.9% | 622.4hPa | 2.7V | 07:02:49 | 03:27:05 | 00:00:00 | |
| DL1XH-west | 2026-08-31 02:52:30 | 53.30450 | 6.86444 | 42° | 53km/h | 3964m | -2.4m/s | -6°C | 32.1% | 622.4hPa | 2.7V | 07:02:49 | 03:27:04 | 00:00:00 | |
| DF5WG-10 | 2026-08-31 02:52:28 | 53.30430 | 6.86415 | 41° | 51km/h | 3968m | -2.5m/s | -6.0°C | 29.4% | 621.9hPa | 2.6V | 07:02:00 | 03:27:02 | 00:00:00 | |
| DM0DOS-11 | 2026-08-31 02:52:27 | 53.30369 | 6.86334 | 36° | 51km/h | 3983m | -2.5m/s | -6.2°C | 30.1% | 620.9hPa | 2.6V | 07:02:26 | 03:26:56 | 00:00:00 | |
| BIOWL1-15 | 2026-08-31 02:52:23 | 53.30358 | 6.86322 | 35° | 53km/h | 3985m | -2.6m/s | -6.2°C | 33.8% | 620.6hPa | 2.7V | 07:02:49 | 03:26:55 | 00:00:00 | |
| DL1XH-west | 2026-08-31 02:52:20 | 53.30347 | 6.86309 | 35° | 51km/h | 3988m | -2.7m/s | -6.2°C | 33.9% | 620.5hPa | 2.7V | 07:02:49 | 03:26:54 | 00:00:00 | |
| WEDDY | 2026-08-31 02:52:18 | 53.30337 | 6.86296 | 37° | 51km/h | 3990m | -2.4m/s | -6.2°C | 29.2% | 620.3hPa | 2.6V | 07:02:00 | 00:00:00 | 00:00:00 | |
| DM0DOS-11 | 2026-08-31 02:52:17 | 53.30316 | 6.86271 | 36° | 51km/h | 3995m | -2.6m/s | -6.2°C | 29.9% | 619.9hPa | 2.6V | 07:02:31 | 03:26:51 | 00:00:00 | |
| DM0DOS-11 | 2026-08-31 02:52:17 | 53.30265 | 6.86205 | 39° | 51km/h | 4008m | -2.5m/s | -6.3°C | 29.2% | 618.8hPa | 2.7V | 07:02:36 | 03:26:46 | 00:00:00 | |
| BIOWL1-15 | 2026-08-31 02:52:10 | 53.30246 | 6.86177 | 40° | 51km/h | 4013m | -2.5m/s | -6.3°C | 32.4% | 618.4hPa | 2.6V | 07:02:49 | 03:26:44 | 00:00:00 | |
| DL1XH-west | 2026-08-31 02:52:09 | 53.30236 | 6.86163 | 40° | 51km/h | 4015m | -2.4m/s | -6.3°C | 32.4% | 618.2hPa | 2.7V | 07:02:49 | 03:26:43 | 00:00:00 | |
| DM0DOS-11 | 2026-08-31 02:52:07 | 53.30216 | 6.86135 | 39° | 53km/h | 4020m | -2.6m/s | -6.4°C | 28.9% | 617.8hPa | 2.7V | 07:02:41 | 03:26:41 | 00:00:00 | |
| DM0DOS-11 | 2026-08-31 02:52:07 | 53.30162 | 6.86066 | 36° | 53km/h | 4033m | -2.6m/s | -6.5°C | 29% | 616.9hPa | 2.7V | 07:02:46 | 03:26:36 | 00:00:00 | |
| DM0DOS-11 | 2026-08-31 02:52:02 | 53.30107 | 6.86001 | 35° | 53km/h | 4046m | -2.6m/s | -6.6°C | 28.7% | 615.8hPa | 2.6V | 07:02:51 | 03:26:31 | 00:00:00 | |
| BIOWL1-15 | 2026-08-31 02:52:00 | 53.30140 | 6.86040 | 35° | 53km/h | 4038m | -2.6m/s | -6.5°C | 32.1% | 616.5hPa | 2.7V | 07:02:49 | 03:26:34 | 00:00:00 | |
| DL1XH-west | 2026-08-31 02:51:59 | 53.30129 | 6.86027 | 36° | 53km/h | 4041m | -2.6m/s | -6.6°C | 32.1% | 616.2hPa | 2.7V | 07:02:49 | 03:26:33 | 00:00:00 | |
| DF5WG-10 | 2026-08-31 02:51:58 | 53.30118 | 6.86014 | 36° | 53km/h | 4043m | -2.8m/s | -6.5°C | 28.8% | 616.0hPa | 2.6V | 00:00:00 | 03:26:32 | 00:00:00 | |
| DM0DOS-11 | 2026-08-31 02:51:57 | 53.30053 | 6.85933 | 37° | 55km/h | 4059m | -2.6m/s | -6.6°C | 27.5% | 614.8hPa | 2.6V | 07:02:56 | 03:26:26 | 00:00:00 | |
| GOEST3-10 | 2026-08-31 02:51:53 | 53.30064 | 6.85947 | 38° | 55km/h | 4057m | -2.3m/s | -6.6°C | 28.1% | 615.0hPa | 2.7V | 00:00:00 | 03:26:27 | 00:00:00 | |
| DM0DOS-11 | 2026-08-31 02:51:52 | 53.30000 | 6.85861 | 39° | 55km/h | 4072m | -2.7m/s | -6.6°C | 26.4% | 613.8hPa | 2.7V | 07:03:01 | 03:26:21 | 00:00:00 | |
| BIOWL1-15 | 2026-08-31 02:51:50 | 53.30031 | 6.85905 | 39° | 55km/h | 4064m | -2.8m/s | -6.6°C | 30% | 614.4hPa | 2.7V | 07:03:40 | 03:26:24 | 00:00:00 | |
| DL1XH-west | 2026-08-31 02:51:48 | 53.30010 | 6.85875 | 40° | 55km/h | 4069m | -2.6m/s | -6.6°C | 29.1% | 614hPa | 2.7V | 07:03:40 | 03:26:22 | 00:00:00 | |
| BIOWL1-15 | 2026-08-31 02:51:41 | 53.29913 | 6.85742 | 39° | 57km/h | 4093m | -2.7m/s | -6.8°C | 38.3% | 612.1hPa | 2.6V | 07:03:40 | 03:26:13 | 00:00:00 | |
| DL4BBY-15 | 2026-08-31 02:51:41 | 53.29935 | 6.85771 | 39° | 57km/h | 4089m | -2.6m/s | -7.0°C | 0% | 0hPa | 2.7V | 00:00:00 | 00:00:00 | 00:00:00 | |
| DM0DOS-11 | 2026-08-31 02:51:37 | 53.29890 | 6.85712 | 38° | 57km/h | 4098m | -2.7m/s | -6.8°C | 34.6% | 611.8hPa | 2.7V | 07:03:11 | 03:26:11 | 00:00:00 | |
| DM0DOS-11 | 2026-08-31 02:51:37 | 53.29835 | 6.85639 | 37° | 57km/h | 4111m | -2.4m/s | -7°C | 34.9% | 610.7hPa | 2.7V | 07:03:16 | 03:26:06 | 00:00:00 | |
| DL1XH-west | 2026-08-31 02:51:37 | 53.29891 | 6.85712 | 39° | 57km/h | 4098m | -2.7m/s | -6.8°C | 38.5% | 611.8hPa | 2.7V | 07:03:40 | 03:26:11 | 00:00:00 | |
| BIOWL1-15 | 2026-08-31 02:51:28 | 53.29790 | 6.85581 | 38° | 57km/h | 4122m | -2.6m/s | -7.1°C | 42% | 609.9hPa | 2.6V | 07:03:40 | 03:26:02 | 00:00:00 | |
| DM0DOS-11 | 2026-08-31 02:51:27 | 53.29778 | 6.85566 | 37° | 57km/h | 4124m | -2.6m/s | -7.1°C | 38.6% | 609.7hPa | 2.6V | 07:03:21 | 03:26:01 | 00:00:00 | |
| DL1XH-west | 2026-08-31 02:51:26 | 53.29767 | 6.85551 | 38° | 57km/h | 4127m | -2.4m/s | -7.1°C | 45.8% | 609.5hPa | 2.7V | 07:03:40 | 03:26:00 | 00:00:00 | |
| GOEST3-10 | 2026-08-31 02:51:23 | 53.29733 | 6.85506 | 40° | 58km/h | 4134m | -2.4m/s | -7.1°C | 40.9% | 608.9hPa | 2.7V | 00:00:00 | 03:25:57 | 00:00:00 | |
| DM0DOS-11 | 2026-08-31 02:51:22 | 53.29665 | 6.85411 | 40° | 58km/h | 4150m | -2.8m/s | -7.4°C | 55.9% | 607.6hPa | 2.7V | 07:03:31 | 03:25:51 | 00:00:00 | |
| BIOWL1-15 | 2026-08-31 02:51:19 | 53.29664 | 6.85411 | 40° | 58km/h | 4150m | -2.8m/s | -7.4°C | 58.9% | 607.6hPa | 2.7V | 07:03:40 | 03:25:51 | 00:00:00 | |
| DL1XH-west | 2026-08-31 02:51:15 | 53.29642 | 6.85380 | 40° | 57km/h | 4155m | -2.6m/s | -7.4°C | 57.7% | 607.2hPa | 2.6V | 07:03:40 | 03:25:49 | 00:00:00 | |
| GOEST3-10 | 2026-08-31 02:51:13 | 53.29621 | 6.85351 | 40° | 53km/h | 4161m | -2.6m/s | -7.4°C | 53.7% | 606.8hPa | 2.7V | 00:00:00 | 03:25:47 | 00:00:00 | |
| DM0DOS-11 | 2026-08-31 02:51:12 | 53.29558 | 6.85269 | 36° | 51km/h | 4176m | -2.7m/s | -7.7°C | 58.4% | 605.6hPa | 2.7V | 07:03:41 | 03:25:41 | 00:00:00 | |
| DL4BBY-15 | 2026-08-31 02:51:11 | 53.29600 | 6.85322 | 39° | 53km/h | 4166m | -2.5m/s | -7.9°C | 0% | 0hPa | 2.7V | 00:00:00 | 00:00:00 | 00:00:00 | |
| DO9FK | 2026-08-31 02:51:10 | 53.29600 | 6.85322 | 39° | 53km/h | 4166m | -2.5m/s | -7.6°C | 0% | 606.4hPa | 2.7V | 07:03:00 | 00:00:00 | 00:00:00 | |
| DC6BW-12 | 2026-08-31 02:51:09 | 53.29589 | 6.85309 | 39° | 53km/h | 4168m | -2.5m/s | -7.6°C | 55.4% | 606.3hPa | 2.7V | 07:03:00 | 00:00:00 | 00:00:00 | |
| DF5WG-10 | 2026-08-31 02:51:08 | 53.29568 | 6.85282 | 38° | 55km/h | 4174m | -2.6m/s | -7.6°C | 58.1% | 605.7hPa | 2.7V | 07:03:00 | 03:25:42 | 00:00:00 | |
| DM0DOS-11 | 2026-08-31 02:51:07 | 53.29503 | 6.85201 | 37° | 57km/h | 4189m | -2.6m/s | -7.8°C | 59.9% | 604.6hPa | 2.7V | 07:03:46 | 03:25:36 | 00:00:00 | |
| BIOWL1-15 | 2026-08-31 02:51:06 | 53.29547 | 6.85256 | 37° | 53km/h | 4179m | -2.7m/s | -7.7°C | 61.8% | 605.4hPa | 2.7V | 07:04:31 | 03:25:40 | 00:00:00 | |
| DL1XH-west | 2026-08-31 02:51:04 | 53.29526 | 6.85229 | 37° | 55km/h | 4184m | -2.7m/s | -7.7°C | 61.2% | 605hPa | 2.6V | 07:04:31 | 03:25:38 | 00:00:00 | |
| DO9LL-15 | 2026-08-31 02:51:03 | 53.29514 | 6.85215 | 37° | 53km/h | 4187m | -2.7m/s | -7.7°C | 58.7% | 604.8hPa | 2.6V | 07:03:00 | 03:25:37 | 00:00:00 | |
| BIOWL9-15 | 2026-08-31 02:51:00 | 53.29480 | 6.85171 | 38° | 57km/h | 4195m | -2.7m/s | -7.8°C | 57.2% | 604.2hPa | 2.6V | 00:00:00 | 00:00:00 | 00:00:00 | |
| DM0DOS-11 | 2026-08-31 02:50:57 | 53.29446 | 6.85125 | 39° | 57km/h | 4203m | -2.7m/s | -7.9°C | 64.6% | 603.5hPa | 2.6V | 07:03:51 | 03:25:31 | 00:00:00 | |
| DM0DOS-11 | 2026-08-31 02:50:57 | 53.29394 | 6.85051 | 40° | 51km/h | 4217m | -3m/s | -7.9°C | 81.2% | 602.5hPa | 2.6V | 07:03:56 | 03:25:26 | 00:00:00 | |
| BIOWL1-15 | 2026-08-31 02:50:56 | 53.29435 | 6.85110 | 40° | 57km/h | 4206m | -2.8m/s | -8°C | 71.2% | 603.4hPa | 2.7V | 07:04:31 | 03:25:30 | 00:00:00 | |
| DL1XH-west | 2026-08-31 02:50:53 | 53.29404 | 6.85065 | 41° | 51km/h | 4214m | -3m/s | -7.9°C | 81.4% | 602.7hPa | 2.7V | 07:04:31 | 03:25:27 | 00:00:00 | |
| DL1LOL-11 | 2026-08-31 02:50:50 | 53.29384 | 6.85038 | 41° | 49km/h | 4220m | -2.7m/s | -7.9°C | 79.4% | 602.3hPa | 2.7V | 00:00:00 | 00:00:00 | 00:00:00 | |
| DO9FK | 2026-08-31 02:50:49 | 53.29375 | 6.85024 | 40° | 49km/h | 4222m | -2.6m/s | -8.0°C | 0% | 602.1hPa | 2.7V | 07:04:00 | 00:00:00 | 00:00:00 | |
| DC6BW-12 | 2026-08-31 02:50:48 | 53.29366 | 6.85012 | 40° | 47km/h | 4225m | -2.9m/s | -8.0°C | 79.5% | 601.8hPa | 2.7V | 00:00:00 | 00:00:00 | 00:00:00 | |
| DM0DOS-11 | 2026-08-31 02:50:47 | 53.29346 | 6.84986 | 37° | 49km/h | 4230m | -2.3m/s | -8°C | 82.4% | 601.5hPa | 2.7V | 07:04:01 | 03:25:21 | 00:00:00 | |
| DM0DOS-11 | 2026-08-31 02:50:47 | 53.29295 | 6.84924 | 35° | 51km/h | 4242m | -2.4m/s | -8.1°C | 82.6% | 600.5hPa | 2.7V | 07:04:06 | 03:25:16 | 00:00:00 | |
| BIOWL1-15 | 2026-08-31 02:50:45 | 53.29326 | 6.84961 | 36° | 49km/h | 4235m | -2.3m/s | -8°C | 82.9% | 601.2hPa | 2.6V | 07:04:31 | 03:25:19 | 00:00:00 | |
| DL1XH-west | 2026-08-31 02:50:42 | 53.29295 | 6.84924 | 35° | 51km/h | 4242m | -2.4m/s | -8.1°C | 83.3% | 600.5hPa | 2.7V | 07:04:31 | 03:25:16 | 00:00:00 | |
| DL4BBY-15 | 2026-08-31 02:50:41 | 53.29284 | 6.84911 | 36° | 53km/h | 4244m | -2.6m/s | -8.4°C | 0% | 0hPa | 2.7V | 00:00:00 | 00:00:00 | 00:00:00 | |
| DF5WG-10 | 2026-08-31 02:50:38 | 53.29253 | 6.84874 | 36° | 53km/h | 4253m | -2.7m/s | -8.1°C | 81.7% | 599.7hPa | 2.7V | 00:00:00 | 03:25:12 | 00:00:00 | |
| DM0DOS-11 | 2026-08-31 02:50:37 | 53.29189 | 6.84798 | 35° | 53km/h | 4268m | -2.6m/s | -8.3°C | 76.8% | 598.5hPa | 2.7V | 07:04:16 | 03:25:06 | 00:00:00 | |
| BIOWL1-15 | 2026-08-31 02:50:34 | 53.29210 | 6.84824 | 35° | 53km/h | 4263m | -2.6m/s | -8.2°C | 79.6% | 598.8hPa | 2.6V | 07:04:31 | 03:25:08 | 00:00:00 | |
| DL1XH-west | 2026-08-31 02:50:32 | 53.29189 | 6.84798 | 35° | 53km/h | 4268m | -2.7m/s | -8.3°C | 78.1% | 598.5hPa | 2.7V | 07:04:31 | 03:25:06 | 00:00:00 | |
| BIOWL9-15 | 2026-08-31 02:50:29 | 53.29156 | 6.84760 | 34° | 51km/h | 4276m | -2.8m/s | -8.4°C | 75.9% | 597.9hPa | 2.6V | 00:00:00 | 00:00:00 | 00:00:00 | |
| DF5WG-10 | 2026-08-31 02:50:28 | 53.29145 | 6.84747 | 35° | 53km/h | 4278m | -2.5m/s | -8.3°C | 78.7% | 597.7hPa | 2.6V | 00:00:00 | 03:25:02 | 00:00:00 | |
| DM0DOS-11 | 2026-08-31 02:50:27 | 53.29079 | 6.84673 | 34° | 53km/h | 4294m | -2.6m/s | -8.5°C | 75.1% | 596.5hPa | 2.6V | 07:04:26 | 03:24:56 | 00:00:00 | |
| BIOWL1-15 | 2026-08-31 02:50:23 | 53.29090 | 6.84685 | 34° | 53km/h | 4292m | -2.7m/s | -8.5°C | 76.8% | 596.8hPa | 2.7V | 07:04:31 | 03:24:57 | 00:00:00 | |
| DL1XH-west | 2026-08-31 02:50:21 | 53.29068 | 6.84660 | 34° | 53km/h | 4297m | -2.8m/s | -8.5°C | 76.5% | 596.3hPa | 2.6V | 07:04:31 | 03:24:55 | 00:00:00 | |
| DJ2DS-15 | 2026-08-31 02:50:19 | 53.29046 | 6.84634 | 35° | 53km/h | 4302m | -2.6m/s | -8.5°C | 73.0% | 596.0hPa | 2.7V | 00:00:00 | 00:00:00 | 00:00:00 | |
| DM0DOS-11 | 2026-08-31 02:50:17 | 53.29025 | 6.84608 | 37° | 53km/h | 4307m | -2.6m/s | -8.5°C | 74.2% | 595.5hPa | 2.7V | 07:04:31 | 03:24:51 | 00:00:00 | |
| DM0DOS-11 | 2026-08-31 02:50:17 | 53.28973 | 6.84539 | 38° | 51km/h | 4320m | -2.6m/s | -8.6°C | 81.8% | 594.5hPa | 2.7V | 07:04:36 | 03:24:46 | 00:00:00 | |
| BIOWL1-15 | 2026-08-31 02:50:13 | 53.28983 | 6.84553 | 39° | 51km/h | 4318m | -2.7m/s | -8.6°C | 81.3% | 594.7hPa | 2.7V | 07:05:22 | 03:24:47 | 00:00:00 | |
| DL1XH-west | 2026-08-31 02:50:11 | 53.28963 | 6.84526 | 38° | 51km/h | 4323m | -2.7m/s | -8.6°C | 82.7% | 594.3hPa | 2.7V | 07:05:22 | 03:24:45 | 00:00:00 | |
| DL4BBY-15 | 2026-08-31 02:50:11 | 53.28962 | 6.84526 | 38° | 53km/h | 4323m | -2.6m/s | -8.9°C | 0% | 0hPa | 2.7V | 00:00:00 | 00:00:00 | 00:00:00 | |
| DO9FK | 2026-08-31 02:50:09 | 53.28952 | 6.84513 | 38° | 51km/h | 4325m | -2.6m/s | 0°C | 0% | 594.1hPa | 2.7V | 00:00:00 | 00:00:00 | 00:00:00 | |
| DM0DOS-11 | 2026-08-31 02:50:07 | 53.28922 | 6.84477 | 33° | 49km/h | 4334m | -2.7m/s | -8.7°C | 83.9% | 593.5hPa | 2.7V | 07:04:41 | 03:24:41 | 00:00:00 | |
| DM0DOS-11 | 2026-08-31 02:50:07 | 53.28867 | 6.84420 | 31° | 51km/h | 4347m | -2.4m/s | -8.8°C | 82.2% | 592.5hPa | 2.7V | 07:04:46 | 03:24:36 | 00:00:00 | |
| BIOWL1-15 | 2026-08-31 02:50:03 | 53.28879 | 6.84432 | 31° | 51km/h | 4345m | -2.5m/s | -8.8°C | 83.6% | 592.6hPa | 2.7V | 07:05:22 | 03:24:37 | 00:00:00 | |
| HTAHTA | 2026-08-31 02:50:03 | 53.28879 | 6.84432 | 31° | 49km/h | 4344m | -2.5m/s | -8.8°C | 80.8% | 592.6hPa | 2.7V | 00:00:00 | 00:00:00 | 00:00:00 | |
| DM0DOS-11 | 2026-08-31 02:50:02 | 53.28810 | 6.84358 | 36° | 57km/h | 4360m | -3m/s | -8.9°C | 82.7% | 591.4hPa | 2.7V | 07:04:51 | 03:24:31 | 00:00:00 | |
| DL1XH-west | 2026-08-31 02:50:00 | 53.28844 | 6.84397 | 32° | 55km/h | 4352m | -2.9m/s | -8.9°C | 83.1% | 592.1hPa | 2.7V | 07:05:22 | 03:24:34 | 00:00:00 | |
| DM0DOS-11 | 2026-08-31 02:49:57 | 53.28756 | 6.84282 | 41° | 55km/h | 4374m | -2.9m/s | -9.1°C | 83.6% | 590.4hPa | 2.6V | 07:04:56 | 03:24:26 | 00:00:00 | |
| BIOWL1-15 | 2026-08-31 02:49:54 | 53.28756 | 6.84282 | 42° | 55km/h | 4374m | -2.9m/s | -9.1°C | 84.6% | 590.4hPa | 2.6V | 07:05:22 | 03:24:26 | 00:00:00 | |
| DM0DOS-11 | 2026-08-31 02:49:52 | 53.28705 | 6.84214 | 34° | 49km/h | 4388m | -2.8m/s | -9.2°C | 85% | 589.4hPa | 2.6V | 07:05:01 | 03:24:21 | 00:00:00 | |
| DL1XH-west | 2026-08-31 02:49:50 | 53.28735 | 6.84253 | 40° | 51km/h | 4380m | -2.5m/s | -9.1°C | 85.1% | 590hPa | 2.7V | 07:05:22 | 03:24:24 | 00:00:00 | |
| DF5WG-10 | 2026-08-31 02:49:48 | 53.28715 | 6.84226 | 37° | 53km/h | 4385m | -2.8m/s | -9.1°C | 85.0% | 589.5hPa | 2.7V | 07:05:00 | 03:24:22 | 00:00:00 | |
| DM0DOS-11 | 2026-08-31 02:49:47 | 53.28649 | 6.84156 | 31° | 55km/h | 4401m | -2.6m/s | -9.3°C | 86.5% | 588.4hPa | 2.7V | 07:05:06 | 03:24:16 | 00:00:00 | |
| BIOWL1-15 | 2026-08-31 02:49:46 | 53.28649 | 6.84156 | 32° | 55km/h | 4402m | -2.7m/s | -9.3°C | 87.3% | 588.4hPa | 2.7V | 07:05:22 | 03:24:16 | 00:00:00 | |
| DL1XH-west | 2026-08-31 02:49:39 | 53.28613 | 6.84117 | 35° | 58km/h | 4410m | -2.6m/s | -9.4°C | 88.9% | 587.7hPa | 2.7V | 07:05:22 | 03:24:13 | 00:00:00 | |
| DM0DOS-11 | 2026-08-31 02:49:37 | 53.28537 | 6.84014 | 41° | 51km/h | 4430m | -2.7m/s | -9.6°C | 91.9% | 586.2hPa | 2.7V | 07:05:16 | 03:24:06 | 00:00:00 | |
| BIOWL1-15 | 2026-08-31 02:49:34 | 53.28537 | 6.84013 | 41° | 51km/h | 4430m | -2.7m/s | -9.6°C | 90.9% | 586.2hPa | 2.7V | 07:05:22 | 03:24:06 | 00:00:00 | |
| DL1XH-west | 2026-08-31 02:49:28 | 53.28498 | 6.83959 | 37° | 51km/h | 4441m | -2.7m/s | -9.7°C | 90.3% | 585.4hPa | 2.7V | 07:05:22 | 03:24:02 | 00:00:00 | |
| BIOWL1-15 | 2026-08-31 02:49:21 | 53.28418 | 6.83867 | 34° | 58km/h | 4460m | -2.8m/s | -9.8°C | 92.1% | 583.9hPa | 2.7V | 07:06:13 | 03:23:55 | 00:00:00 | |
| DF5WG-10 | 2026-08-31 02:49:18 | 53.28382 | 6.83823 | 39° | 55km/h | 4470m | -3.1m/s | -9.9°C | 93.3% | 583.2hPa | 2.6V | 00:00:00 | 03:23:52 | 00:00:00 | |
| GOEST3-10 | 2026-08-31 02:49:17 | 53.28371 | 6.83808 | 40° | 57km/h | 4473m | -2.9m/s | -9.9°C | 93.7% | 582.9hPa | 2.6V | 00:00:00 | 00:00:00 | 00:00:00 | |
| DL1XH-west | 2026-08-31 02:49:17 | 53.28371 | 6.83808 | 40° | 58km/h | 4473m | -3m/s | -9.9°C | 93.2% | 582.9hPa | 2.7V | 07:06:13 | 03:23:51 | 00:00:00 | |
| DM0DOS-11 | 2026-08-31 02:49:12 | 53.28267 | 6.83657 | 35° | 55km/h | 4501m | -2.6m/s | -10.2°C | 93.9% | 580.9hPa | 2.6V | 07:05:41 | 03:23:41 | 00:00:00 | |
| BIOWL1-15 | 2026-08-31 02:49:11 | 53.28309 | 6.83714 | 43° | 53km/h | 4489m | -3.1m/s | -10.1°C | 92.8% | 581.7hPa | 2.7V | 07:06:13 | 03:23:45 | 00:00:00 | |
| DL1XH-west | 2026-08-31 02:49:06 | 53.28256 | 6.83644 | 35° | 57km/h | 4503m | -2.6m/s | -10.2°C | 92.2% | 580.7hPa | 2.6V | 07:06:13 | 03:23:40 | 00:00:00 | |
| DO9FK | 2026-08-31 02:49:03 | 53.28231 | 6.83616 | 36° | 58km/h | 4509m | -2.9m/s | 0°C | 0% | 0hPa | 2.7V | 07:06:00 | 00:00:00 | 00:00:00 | |
| DM0DOS-11 | 2026-08-31 02:49:02 | 53.28150 | 6.83505 | 44° | 58km/h | 4527m | -3m/s | -10.4°C | 94.4% | 578.9hPa | 2.7V | 07:05:51 | 03:23:31 | 00:00:00 | |
| BIOWL1-15 | 2026-08-31 02:49:01 | 53.28195 | 6.83571 | 38° | 60km/h | 4517m | -2.7m/s | -10.3°C | 93.5% | 579.7hPa | 2.6V | 07:06:13 | 03:23:35 | 00:00:00 | |
| DL1XH-west | 2026-08-31 02:48:56 | 53.28140 | 6.83488 | 45° | 58km/h | 4530m | -2.8m/s | -10.5°C | 94.1% | 578.7hPa | 2.6V | 07:06:13 | 03:23:30 | 00:00:00 | |
| DM0DOS-11 | 2026-08-31 02:48:52 | 53.28041 | 6.83353 | 31° | 53km/h | 4553m | -2.6m/s | -10.7°C | 94.9% | 576.9hPa | 2.7V | 07:06:01 | 03:23:21 | 00:00:00 | |
| BIOWL1-15 | 2026-08-31 02:48:50 | 53.28076 | 6.83391 | 35° | 55km/h | 4545m | -2.4m/s | -10.6°C | 94.9% | 577.5hPa | 2.6V | 07:06:13 | 03:23:24 | 00:00:00 | |
| DF5WG-10 | 2026-08-31 02:48:48 | 53.28053 | 6.83365 | 33° | 55km/h | 4550m | -2.5m/s | -10.6°C | 95.2% | 577.1hPa | 2.7V | 00:00:00 | 03:23:22 | 00:00:00 | |
| DM0DOS-11 | 2026-08-31 02:48:47 | 53.27984 | 6.83294 | 33° | 57km/h | 4564m | -2.2m/s | -10.8°C | 95% | 576.1hPa | 2.7V | 07:06:06 | 03:23:16 | 00:00:00 | |
| DL1XH-west | 2026-08-31 02:48:46 | 53.28030 | 6.83341 | 31° | 53km/h | 4556m | -2.6m/s | -10.7°C | 92.9% | 576.8hPa | 2.7V | 07:06:13 | 03:23:20 | 00:00:00 | |
| DM0DOS-11 | 2026-08-31 02:48:42 | 53.27924 | 6.83221 | 39° | 60km/h | 4575m | -1.7m/s | -10.8°C | 95.2% | 575.3hPa | 2.7V | 07:06:11 | 03:23:11 | 00:00:00 | |
| BIOWL1-15 | 2026-08-31 02:48:39 | 53.27948 | 6.83252 | 36° | 60km/h | 4571m | -2.4m/s | -10.8°C | 92.6% | 575.6hPa | 2.6V | 07:06:13 | 03:23:13 | 00:00:00 | |
| DF5WG-10 | 2026-08-31 02:48:38 | 53.27935 | 6.83237 | 38° | 58km/h | 4573m | -2.0m/s | -10.8°C | 94.8% | 575.4hPa | 2.7V | 00:00:00 | 03:23:12 | 00:00:00 | |
| DM0DOS-11 | 2026-08-31 02:48:37 | 53.27866 | 6.83138 | 40° | 58km/h | 4586m | -2.1m/s | -10.9°C | 95.4% | 574.4hPa | 2.7V | 07:06:16 | 03:23:06 | 00:00:00 | |
| DL1XH-west | 2026-08-31 02:48:36 | 53.27912 | 6.83205 | 41° | 60km/h | 4577m | -2.4m/s | -10.9°C | 93% | 575.2hPa | 2.7V | 07:06:13 | 03:23:10 | 00:00:00 | |
| DM0DOS-11 | 2026-08-31 02:48:32 | 53.27810 | 6.83065 | 34° | 55km/h | 4596m | -2.3m/s | -10.9°C | 95.4% | 573.7hPa | 2.6V | 07:06:21 | 03:23:01 | 00:00:00 | |
| BIOWL1-15 | 2026-08-31 02:48:28 | 53.27822 | 6.83078 | 36° | 55km/h | 4594m | -1.8m/s | -10.9°C | 93.8% | 573.9hPa | 2.6V | 07:07:04 | 03:23:02 | 00:00:00 | |
| DL1XH-west | 2026-08-31 02:48:25 | 53.27787 | 6.83039 | 33° | 57km/h | 4601m | -2.4m/s | -11°C | 93.1% | 573.3hPa | 2.7V | 07:07:04 | 03:22:59 | 00:00:00 | |
| DM0DOS-11 | 2026-08-31 02:48:22 | 53.27751 | 6.82999 | 34° | 57km/h | 4608m | -2.5m/s | -11°C | 95.3% | 572.8hPa | 2.6V | 07:06:26 | 03:22:56 | 00:00:00 | |
| DM0DOS-11 | 2026-08-31 02:48:22 | 53.27695 | 6.82924 | 43° | 57km/h | 4620m | -2.7m/s | -11.1°C | 95.2% | 571.9hPa | 2.6V | 07:06:31 | 03:22:51 | 00:00:00 | |
| BIOWL1-15 | 2026-08-31 02:48:20 | 53.27706 | 6.82940 | 42° | 57km/h | 4617m | -2m/s | -11.1°C | 93.2% | 572.2hPa | 2.7V | 07:07:04 | 03:22:52 | 00:00:00 | |
| DL1XH-west | 2026-08-31 02:48:14 | 53.27664 | 6.82876 | 42° | 57km/h | 4627m | -1.7m/s | -11.2°C | 93.3% | 571.5hPa | 2.7V | 07:07:04 | 03:22:48 | 00:00:00 | |
| DM0DOS-11 | 2026-08-31 02:48:12 | 53.27643 | 6.82845 | 38° | 55km/h | 4631m | -2.6m/s | -11.2°C | 95.9% | 571hPa | 2.6V | 07:06:36 | 03:22:46 | 00:00:00 | |
| DM0DOS-11 | 2026-08-31 02:48:12 | 53.27585 | 6.82781 | 30° | 55km/h | 4643m | -2.3m/s | -11.3°C | 96.5% | 570.2hPa | 2.7V | 07:06:41 | 03:22:41 | 00:00:00 | |
| BIOWL1-15 | 2026-08-31 02:48:10 | 53.27597 | 6.82793 | 32° | 55km/h | 4641m | -2.2m/s | -11.3°C | 94.6% | 570.5hPa | 2.7V | 07:07:04 | 03:22:42 | 00:00:00 | |
| DF5WG-10 | 2026-08-31 02:48:08 | 53.27597 | 6.82793 | 32° | 53km/h | 4641m | -2.1m/s | -11.3°C | 96.7% | 570.4hPa | 2.7V | 00:00:00 | 03:22:42 | 00:00:00 | |
| DM0DOS-11 | 2026-08-31 02:48:07 | 53.27530 | 6.82718 | 40° | 53km/h | 4654m | -2.1m/s | -11.4°C | 98% | 569.5hPa | 2.7V | 07:06:46 | 03:22:36 | 00:00:00 | |
| DL1XH-west | 2026-08-31 02:48:03 | 53.27540 | 6.82732 | 38° | 53km/h | 4652m | -2.2m/s | -11.4°C | 94.8% | 569.5hPa | 2.7V | 07:07:04 | 03:22:37 | 00:00:00 | |
| DM0DOS-11 | 2026-08-31 02:48:02 | 53.27477 | 6.82643 | 38° | 57km/h | 4666m | -2.2m/s | -11.5°C | 97.7% | 568.5hPa | 2.7V | 07:06:51 | 03:22:31 | 00:00:00 | |
| BIOWL1-15 | 2026-08-31 02:47:57 | 53.27476 | 6.82643 | 38° | 57km/h | 4666m | -2.2m/s | -11.5°C | 94.5% | 568.5hPa | 2.7V | 07:07:04 | 03:22:31 | 00:00:00 | |
| DJ2DS-15 | 2026-08-31 02:47:55 | 53.27442 | 6.82599 | 35° | 57km/h | 4673m | -2.4m/s | -11.6°C | 93.7% | 568.0hPa | 2.7V | 00:00:00 | 00:00:00 | 00:00:00 | |
| BIOWL9-15 | 2026-08-31 02:47:54 | 53.27442 | 6.82599 | 35° | 57km/h | 4673m | -2.4m/s | -11.6°C | 93.7% | 568.0hPa | 2.7V | 00:00:00 | 00:00:00 | 00:00:00 | |
| DM0DOS-11 | 2026-08-31 02:47:52 | 53.27365 | 6.82500 | 40° | 51km/h | 4690m | -2.1m/s | -11.7°C | 97.4% | 566.8hPa | 2.7V | 07:07:01 | 03:22:21 | 00:00:00 | |
| DL1XH-west | 2026-08-31 02:47:52 | 53.27418 | 6.82571 | 37° | 57km/h | 4678m | -2.3m/s | -11.6°C | 94.3% | 567.6hPa | 2.7V | 07:07:04 | 03:22:26 | 00:00:00 | |
| BIOWL1-15 | 2026-08-31 02:47:47 | 53.27365 | 6.82500 | 41° | 51km/h | 4690m | -2.1m/s | -11.7°C | 95.5% | 566.8hPa | 2.7V | 07:07:04 | 03:22:21 | 00:00:00 | |
| DL1XH-west | 2026-08-31 02:47:42 | 53.27317 | 6.82432 | 38° | 51km/h | 4702m | -2.1m/s | -11.8°C | 93.3% | 565.9hPa | 2.7V | 07:07:55 | 03:22:16 | 00:00:00 | |
| BIOWL1-15 | 2026-08-31 02:47:36 | 53.27249 | 6.82349 | 35° | 57km/h | 4715m | -2.1m/s | -11.8°C | 94.1% | 565hPa | 2.7V | 07:07:55 | 03:22:10 | 00:00:00 | |
| DM0DOS-11 | 2026-08-31 02:47:32 | 53.27203 | 6.82294 | 36° | 55km/h | 4725m | -2.5m/s | -11.9°C | 96.4% | 564.3hPa | 2.6V | 07:07:16 | 03:22:06 | 00:00:00 | |
| DM0DOS-11 | 2026-08-31 02:47:32 | 53.27151 | 6.82222 | 42° | 51km/h | 4737m | -2.4m/s | -12°C | 96.2% | 563.3hPa | 2.6V | 07:07:21 | 03:22:01 | 00:00:00 | |
| DL1XH-west | 2026-08-31 02:47:32 | 53.27203 | 6.82294 | 37° | 55km/h | 4725m | -2.5m/s | -11.9°C | 94.1% | 564.3hPa | 2.6V | 07:07:55 | 03:22:06 | 00:00:00 | |
| WEDDY | 2026-08-31 02:47:30 | 53.27192 | 6.82280 | 39° | 55km/h | 4727m | -2.4m/s | -11.9°C | 92.9% | 564.0hPa | 2.6V | 07:07:00 | 00:00:00 | 00:00:00 | |
| DO9FK | 2026-08-31 02:47:29 | 53.27181 | 6.82266 | 41° | 53km/h | 4730m | -2.4m/s | 0°C | 0% | 0hPa | 2.6V | 00:00:00 | 00:00:00 | 00:00:00 | |
| DF5WG-10 | 2026-08-31 02:47:28 | 53.27161 | 6.82237 | 42° | 53km/h | 4735m | -2.4m/s | -11.9°C | 96.0% | 563.4hPa | 2.6V | 00:00:00 | 03:22:02 | 00:00:00 | |
| DM0DOS-11 | 2026-08-31 02:47:27 | 53.27101 | 6.82148 | 39° | 57km/h | 4749m | -2.3m/s | -11.9°C | 93.8% | 562.4hPa | 2.6V | 07:07:26 | 03:21:56 | 00:00:00 | |
| BIOWL1-15 | 2026-08-31 02:47:26 | 53.27142 | 6.82207 | 43° | 51km/h | 4740m | -2.6m/s | -12°C | 93% | 563.2hPa | 2.7V | 07:07:55 | 03:22:00 | 00:00:00 | |
| DO9LL-15 | 2026-08-31 02:47:24 | 53.27123 | 6.82178 | 42° | 55km/h | 4745m | -2.1m/s | -11.9°C | 95.5% | 562.7hPa | 2.6V | 00:00:00 | 03:21:58 | 00:00:00 | |
| BIOWL9-15 | 2026-08-31 02:47:23 | 53.27112 | 6.82163 | 40° | 55km/h | 4747m | -2.1m/s | -11.9°C | 91.2% | 562.7hPa | 2.6V | 00:00:00 | 00:00:00 | 00:00:00 | |
| DM0DOS-11 | 2026-08-31 02:47:22 | 53.27048 | 6.82075 | 39° | 53km/h | 4761m | -2.2m/s | -12°C | 94.4% | 561.6hPa | 2.6V | 07:07:31 | 03:21:51 | 00:00:00 | |
| DL1XH-west | 2026-08-31 02:47:21 | 53.27090 | 6.82133 | 40° | 55km/h | 4752m | -2.7m/s | -11.9°C | 91.1% | 562.3hPa | 2.6V | 07:07:55 | 03:21:55 | 00:00:00 | |
| DJ2DS-15 | 2026-08-31 02:47:19 | 53.27058 | 6.82089 | 38° | 53km/h | 4758m | -2.3m/s | -12.0°C | 90.7% | 561.8hPa | 2.6V | 00:00:00 | 00:00:00 | 00:00:00 | |
| DF5WG-10 | 2026-08-31 02:47:18 | 53.27058 | 6.82089 | 39° | 53km/h | 4759m | -2.3m/s | -11.9°C | 94.0% | 561.7hPa | 2.6V | 00:00:00 | 03:21:52 | 00:00:00 | |
| DM0DOS-11 | 2026-08-31 02:47:17 | 53.26997 | 6.82003 | 41° | 53km/h | 4772m | -2.2m/s | -12.1°C | 94.4% | 560.9hPa | 2.6V | 07:07:36 | 03:21:46 | 00:00:00 | |
| BIOWL1-15 | 2026-08-31 02:47:17 | 53.27027 | 6.82046 | 40° | 53km/h | 4765m | -2.3m/s | -12°C | 91.7% | 561.3hPa | 2.7V | 07:07:55 | 03:21:49 | 00:00:00 | |
| GOEST3-10 | 2026-08-31 02:47:17 | 53.27048 | 6.82075 | 40° | 53km/h | 4761m | -2.2m/s | -12.0°C | 94.4% | 561.6hPa | 2.7V | 00:00:00 | 00:00:00 | 00:00:00 | |
| DM0DOS-11 | 2026-08-31 02:47:12 | 53.26946 | 6.81927 | 41° | 55km/h | 4783m | -2.4m/s | -12.2°C | 95.2% | 559.9hPa | 2.7V | 07:07:41 | 03:21:41 | 00:00:00 | |
| DL1XH-west | 2026-08-31 02:47:10 | 53.26977 | 6.81973 | 42° | 53km/h | 4776m | -2.1m/s | -12.1°C | 92.3% | 560.4hPa | 2.7V | 07:07:55 | 03:21:44 | 00:00:00 | |
| WEDDY | 2026-08-31 02:47:09 | 53.26977 | 6.81973 | 43° | 53km/h | 4777m | -2.1m/s | -12.1°C | 91.5% | 560.4hPa | 2.7V | 07:07:00 | 00:00:00 | 00:00:00 | |
| DF5WG-10 | 2026-08-31 02:47:08 | 53.26956 | 6.81942 | 42° | 57km/h | 4781m | -2.4m/s | -12.1°C | 95.1% | 560.1hPa | 2.7V | 07:07:00 | 03:21:42 | 00:00:00 | |
| DM0DOS-11 | 2026-08-31 02:47:07 | 53.26893 | 6.81851 | 39° | 57km/h | 4795m | -2.4m/s | -12.3°C | 96.1% | 559hPa | 2.7V | 07:07:46 | 03:21:36 | 00:00:00 | |
| BIOWL1-15 | 2026-08-31 02:47:05 | 53.26925 | 6.81897 | 41° | 55km/h | 4788m | -2.3m/s | -12.2°C | 91.8% | 559.6hPa | 2.6V | 07:07:55 | 03:21:39 | 00:00:00 | |
| DL1XH-west | 2026-08-31 02:46:59 | 53.26860 | 6.81804 | 41° | 57km/h | 4802m | -2.4m/s | -12.2°C | 91.2% | 558.5hPa | 2.6V | 07:07:55 | 03:21:33 | 00:00:00 | |
| DM0DOS-11 | 2026-08-31 02:46:57 | 53.26838 | 6.81773 | 39° | 57km/h | 4807m | -2.3m/s | -12.3°C | 95% | 558.2hPa | 2.7V | 07:07:51 | 03:21:31 | 00:00:00 | |
| DM0DOS-11 | 2026-08-31 02:46:57 | 53.26784 | 6.81702 | 35° | 53km/h | 4819m | -2.7m/s | -12.3°C | 95.4% | 557.4hPa | 2.6V | 07:07:56 | 03:21:26 | 00:00:00 | |
| BIOWL1-15 | 2026-08-31 02:46:57 | 53.26816 | 6.81743 | 40° | 55km/h | 4812m | -2.4m/s | -12.3°C | 92.2% | 557.9hPa | 2.7V | 07:07:55 | 03:21:29 | 00:00:00 | |
| DL1XH-west | 2026-08-31 02:46:49 | 53.26750 | 6.81665 | 32° | 55km/h | 4826m | -2.6m/s | -12.4°C | 93.5% | 556.8hPa | 2.7V | 07:08:46 | 03:21:23 | 00:00:00 | |
| WEDDY | 2026-08-31 02:46:48 | 53.26750 | 6.81664 | 33° | 55km/h | 4827m | -2.6m/s | -12.4°C | 92.9% | 556.8hPa | 2.7V | 07:08:00 | 00:00:00 | 00:00:00 | |
| DM0DOS-11 | 2026-08-31 02:46:47 | 53.26726 | 6.81640 | 31° | 55km/h | 4831m | -2.4m/s | -12.4°C | 94.2% | 556.5hPa | 2.7V | 07:08:01 | 03:21:21 | 00:00:00 | |
| DM0DOS-11 | 2026-08-31 02:46:47 | 53.26667 | 6.81571 | 39° | 58km/h | 4843m | -2.5m/s | -12.4°C | 93% | 555.6hPa | 2.7V | 07:08:06 | 03:21:16 | 00:00:00 | |
| BIOWL1-15 | 2026-08-31 02:46:45 | 53.26703 | 6.81615 | 34° | 57km/h | 4836m | -2.6m/s | -12.4°C | 91.5% | 556.1hPa | 2.6V | 07:08:46 | 03:21:19 | 00:00:00 | |
| DJ2DS-15 | 2026-08-31 02:46:43 | 53.26667 | 6.81571 | 39° | 57km/h | 4843m | -2.5m/s | -12.4°C | 89.6% | 555.6hPa | 2.6V | 00:00:00 | 00:00:00 | 00:00:00 | |
| DM0DOS-11 | 2026-08-31 02:46:42 | 53.26613 | 6.81489 | 43° | 57km/h | 4855m | -2.8m/s | -12.4°C | 86.5% | 554.7hPa | 2.6V | 07:08:11 | 03:21:11 | 00:00:00 | |
| DL1XH-west | 2026-08-31 02:46:38 | 53.26624 | 6.81506 | 44° | 57km/h | 4852m | -2.4m/s | -12.4°C | 85.8% | 554.8hPa | 2.6V | 07:08:46 | 03:21:12 | 00:00:00 | |
| BIOWL1-15 | 2026-08-31 02:46:34 | 53.26581 | 6.81441 | 41° | 57km/h | 4862m | -2.6m/s | -12.5°C | 85.9% | 554.2hPa | 2.7V | 07:08:46 | 03:21:08 | 00:00:00 | |
| DM0DOS-11 | 2026-08-31 02:46:32 | 53.26500 | 6.81341 | 37° | 55km/h | 4879m | -2.2m/s | -12.6°C | 85.2% | 553.1hPa | 2.7V | 07:08:21 | 03:21:01 | 00:00:00 | |
| DL1XH-west | 2026-08-31 02:46:27 | 53.26501 | 6.81341 | 37° | 55km/h | 4879m | -2.2m/s | -12.6°C | 83.5% | 553.1hPa | 2.7V | 07:08:46 | 03:21:01 | 00:00:00 | |
| BIOWL1-15 | 2026-08-31 02:46:24 | 53.26469 | 6.81298 | 40° | 53km/h | 4886m | -2.2m/s | -12.6°C | 82.8% | 552.5hPa | 2.6V | 07:08:46 | 03:20:58 | 00:00:00 | |
| DO9LL-15 | 2026-08-31 02:46:24 | 53.26469 | 6.81298 | 41° | 55km/h | 4886m | -2.1m/s | -12.5°C | 84.4% | 552.5hPa | 2.7V | 00:00:00 | 03:20:58 | 00:00:00 | |
| DM0DOS-11 | 2026-08-31 02:46:22 | 53.26448 | 6.81269 | 40° | 53km/h | 4891m | -2.7m/s | -12.5°C | 84.2% | 552.1hPa | 2.7V | 07:08:26 | 03:20:56 | 00:00:00 | |
| DM0DOS-11 | 2026-08-31 02:46:22 | 53.26395 | 6.81198 | 36° | 57km/h | 4903m | -2.3m/s | -12.6°C | 84.4% | 551.3hPa | 2.7V | 07:08:31 | 03:20:51 | 00:00:00 | |
| DL1XH-west | 2026-08-31 02:46:16 | 53.26384 | 6.81184 | 36° | 57km/h | 4905m | -2.4m/s | -12.6°C | 82.2% | 551.2hPa | 2.7V | 07:08:46 | 03:20:50 | 00:00:00 | |
| BIOWL1-15 | 2026-08-31 02:46:13 | 53.26348 | 6.81140 | 36° | 60km/h | 4912m | -2.4m/s | -12.7°C | 82.6% | 550.5hPa | 2.6V | 07:08:46 | 03:20:47 | 00:00:00 | |
| DM0DOS-11 | 2026-08-31 02:46:12 | 53.26336 | 6.81125 | 37° | 60km/h | 4915m | -2.7m/s | -12.7°C | 83.9% | 550.4hPa | 2.7V | 07:08:36 | 03:20:46 | 00:00:00 | |
| GOEST3-10 | 2026-08-31 02:46:12 | 53.26336 | 6.81125 | 38° | 58km/h | 4915m | -2.6m/s | -12.6°C | 83.9% | 550.3hPa | 2.7V | 00:00:00 | 03:20:46 | 00:00:00 | |
| DL4BBY-15 | 2026-08-31 02:46:11 | 53.26324 | 6.81109 | 39° | 55km/h | 4918m | -2.6m/s | -13.0°C | 0% | 0hPa | 2.7V | 00:00:00 | 00:00:00 | 00:00:00 | |
| DF5WG-10 | 2026-08-31 02:46:08 | 53.26290 | 6.81062 | 41° | 53km/h | 4925m | -2.4m/s | -12.7°C | 83.9% | 549.7hPa | 2.7V | 00:00:00 | 03:20:42 | 00:00:00 | |
| DM0DOS-11 | 2026-08-31 02:46:07 | 53.26227 | 6.80979 | 33° | 53km/h | 4939m | -2.2m/s | -12.8°C | 77.2% | 548.7hPa | 2.7V | 07:08:46 | 03:20:36 | 00:00:00 | |
| DL1XH-west | 2026-08-31 02:46:05 | 53.26259 | 6.81017 | 39° | 51km/h | 4932m | -2.5m/s | -12.7°C | 78.1% | 549.2hPa | 2.7V | 07:08:46 | 03:20:39 | 00:00:00 | |
| DM0DOS-11 | 2026-08-31 02:46:02 | 53.26170 | 6.80915 | 35° | 58km/h | 4951m | -2.6m/s | -12.9°C | 76% | 547.8hPa | 2.7V | 07:08:51 | 03:20:31 | 00:00:00 | |
| BIOWL1-15 | 2026-08-31 02:46:02 | 53.26227 | 6.80979 | 33° | 53km/h | 4939m | -2.2m/s | -12.8°C | 76.8% | 548.7hPa | 2.7V | 07:08:46 | 03:20:36 | 00:00:00 | |
| GOEST3-10 | 2026-08-31 02:46:02 | 53.26227 | 6.80979 | 34° | 55km/h | 4939m | -2.1m/s | -12.7°C | 77.2% | 548.6hPa | 2.7V | 00:00:00 | 03:20:36 | 00:00:00 | |
| DF5WG-10 | 2026-08-31 02:45:58 | 53.26181 | 6.80929 | 35° | 58km/h | 4949m | -2.0m/s | -12.8°C | 76.8% | 548.0hPa | 2.7V | 00:00:00 | 03:20:32 | 00:00:00 | |
| DM0DOS-11 | 2026-08-31 02:45:57 | 53.26108 | 6.80841 | 35° | 60km/h | 4964m | -2.2m/s | -12.9°C | 70% | 546.9hPa | 2.7V | 07:08:56 | 03:20:26 | 00:00:00 | |
| DL1XH-west | 2026-08-31 02:45:55 | 53.26145 | 6.80886 | 36° | 60km/h | 4956m | -2.4m/s | -12.9°C | 75.4% | 547.5hPa | 2.6V | 07:09:37 | 03:20:29 | 00:00:00 | |
| HTAHTA | 2026-08-31 02:45:55 | 53.26133 | 6.80871 | 35° | 60km/h | 4958m | -2.7m/s | -12.9°C | 71.2% | 547.2hPa | 2.7V | 00:00:00 | 00:00:00 | 00:00:00 | |
| DO9LL-15 | 2026-08-31 02:45:54 | 53.26133 | 6.80871 | 36° | 57km/h | 4958m | -2.7m/s | -12.9°C | 74.1% | 547.2hPa | 2.7V | 00:00:00 | 03:20:28 | 00:00:00 | |
| DM0DOS-11 | 2026-08-31 02:45:52 | 53.26050 | 6.80773 | 35° | 53km/h | 4975m | -2.4m/s | -13°C | 65.4% | 546.1hPa | 2.7V | 07:09:01 | 03:20:21 | 00:00:00 | |
| BIOWL1-15 | 2026-08-31 02:45:51 | 53.26096 | 6.80826 | 35° | 58km/h | 4965m | -2m/s | -12.9°C | 70.1% | 546.7hPa | 2.6V | 07:09:37 | 03:20:25 | 00:00:00 | |
| BIOWL9-15 | 2026-08-31 02:45:50 | 53.26084 | 6.80813 | 34° | 55km/h | 4968m | -2.4m/s | -13.0°C | 66.2% | 546.6hPa | 2.7V | 00:00:00 | 00:00:00 | 00:00:00 | |
| DF5WG-10 | 2026-08-31 02:45:48 | 53.26061 | 6.80786 | 36° | 55km/h | 4973m | -2.3m/s | -12.9°C | 66.2% | 546.2hPa | 2.7V | 07:09:00 | 03:20:22 | 00:00:00 | |
| DM0DOS-11 | 2026-08-31 02:45:47 | 53.25997 | 6.80706 | 39° | 57km/h | 4987m | -2m/s | -13.1°C | 60.7% | 545.1hPa | 2.7V | 07:09:06 | 03:20:16 | 00:00:00 | |
| DL1XH-west | 2026-08-31 02:45:44 | 53.26018 | 6.80735 | 37° | 53km/h | 4983m | -2.7m/s | -13°C | 62.4% | 545.5hPa | 2.6V | 07:09:37 | 03:20:18 | 00:00:00 | |
| BIOWL1-15 | 2026-08-31 02:45:42 | 53.25974 | 6.80676 | 39° | 58km/h | 4992m | -2.6m/s | -13.1°C | 61.2% | 544.8hPa | 2.7V | 07:09:37 | 03:20:14 | 00:00:00 | |
| DL4BBY-15 | 2026-08-31 02:45:41 | 53.25985 | 6.80691 | 39° | 58km/h | 4989m | -2.3m/s | -13.4°C | 0% | 0hPa | 2.6V | 00:00:00 | 00:00:00 | 00:00:00 | |
| DM0DOS-11 | 2026-08-31 02:45:37 | 53.25938 | 6.80631 | 34° | 58km/h | 5000m | -2.4m/s | -13.2°C | 59% | 544.3hPa | 2.6V | 07:09:11 | 03:20:11 | 00:00:00 | |
| DM0DOS-11 | 2026-08-31 02:45:37 | 53.25878 | 6.80567 | 31° | 57km/h | 5013m | -2.7m/s | -13.2°C | 57.4% | 543.4hPa | 2.6V | 07:09:16 | 03:20:06 | 00:00:00 | |
| DL1XH-west | 2026-08-31 02:45:34 | 53.25902 | 6.80591 | 32° | 57km/h | 5007m | -2.5m/s | -13.2°C | 59.8% | 543.8hPa | 2.7V | 07:09:37 | 03:20:08 | 00:00:00 | |
| BIOWL1-15 | 2026-08-31 02:45:31 | 53.25843 | 6.80529 | 34° | 55km/h | 5020m | -2.8m/s | -13.3°C | 57.4% | 542.8hPa | 2.7V | 07:09:37 | 03:20:03 | 00:00:00 | |
| DC6BW-12 | 2026-08-31 02:45:30 | 53.25866 | 6.80554 | 33° | 55km/h | 5015m | -2.2m/s | -13.2°C | 53.3% | 543.2hPa | 2.6V | 07:09:00 | 00:00:00 | 00:00:00 | |
| DF5WG-10 | 2026-08-31 02:45:28 | 53.25831 | 6.80516 | 35° | 58km/h | 5023m | -2.6m/s | -13.2°C | 54.4% | 542.6hPa | 2.6V | 00:00:00 | 03:20:02 | 00:00:00 | |
| DM0DOS-11 | 2026-08-31 02:45:27 | 53.25760 | 6.80427 | 38° | 60km/h | 5039m | -2.9m/s | -13.4°C | 53.4% | 541.6hPa | 2.6V | 07:09:26 | 03:19:56 | 00:00:00 | |
| DL1XH-west | 2026-08-31 02:45:24 | 53.25784 | 6.80458 | 38° | 60km/h | 5033m | -2.6m/s | -13.4°C | 55.5% | 542hPa | 2.7V | 07:09:37 | 03:19:58 | 00:00:00 | |
| BIOWL1-15 | 2026-08-31 02:45:19 | 53.25724 | 6.80381 | 35° | 58km/h | 5047m | -2.7m/s | -13.5°C | 54.6% | 541hPa | 2.7V | 07:09:37 | 03:19:53 | 00:00:00 | |
| DF5WG-10 | 2026-08-31 02:45:18 | 53.25712 | 6.80368 | 33° | 57km/h | 5049m | -2.3m/s | -13.5°C | 53.0% | 540.7hPa | 2.6V | 00:00:00 | 03:19:52 | 00:00:00 | |
| DM0DOS-11 | 2026-08-31 02:45:17 | 53.25637 | 6.80295 | 33° | 57km/h | 5065m | -2.7m/s | -13.7°C | 52.9% | 539.7hPa | 2.6V | 07:09:36 | 03:19:46 | 00:00:00 | |
| DL1XH-west | 2026-08-31 02:45:13 | 53.25650 | 6.80308 | 31° | 57km/h | 5062m | -2.9m/s | -13.6°C | 54.6% | 539.9hPa | 2.6V | 07:09:37 | 03:19:47 | 00:00:00 | |
| BIOWL1-15 | 2026-08-31 02:45:08 | 53.25593 | 6.80236 | 41° | 55km/h | 5076m | -3m/s | -13.8°C | 55.1% | 539hPa | 2.6V | 07:10:28 | 03:19:42 | 00:00:00 | |
| DF5WG-10 | 2026-08-31 02:45:08 | 53.25593 | 6.80236 | 42° | 58km/h | 5076m | -2.9m/s | -13.7°C | 52.8% | 538.9hPa | 2.6V | 00:00:00 | 03:19:42 | 00:00:00 | |
| DM0DOS-11 | 2026-08-31 02:45:07 | 53.25524 | 6.80152 | 31° | 60km/h | 5092m | -3m/s | -13.9°C | 51.5% | 537.8hPa | 2.6V | 07:09:46 | 03:19:36 | 00:00:00 | |
| DL1XH-west | 2026-08-31 02:45:03 | 53.25537 | 6.80165 | 32° | 58km/h | 5089m | -2.2m/s | -13.9°C | 54.6% | 538hPa | 2.6V | 07:10:28 | 03:19:37 | 00:00:00 | |
| BIOWL1-15 | 2026-08-31 02:44:57 | 53.25460 | 6.80083 | 36° | 57km/h | 5106m | -2.5m/s | -14°C | 53.6% | 536.9hPa | 2.6V | 07:10:28 | 03:19:31 | 00:00:00 | |
| DL1XH-west | 2026-08-31 02:44:53 | 53.25416 | 6.80030 | 34° | 51km/h | 5116m | -2.8m/s | -14.1°C | 53.9% | 536.1hPa | 2.6V | 07:10:28 | 03:19:27 | 00:00:00 | |
| BIOWL1-15 | 2026-08-31 02:44:49 | 53.25345 | 6.79959 | 30° | 58km/h | 5132m | -2.4m/s | -14.3°C | 53.9% | 535hPa | 2.6V | 07:10:28 | 03:19:21 | 00:00:00 | |
| BIOWL9-15 | 2026-08-31 02:44:48 | 53.25345 | 6.79959 | 30° | 57km/h | 5132m | -2.4m/s | -14.3°C | 50.0% | 535.0hPa | 2.6V | 00:00:00 | 00:00:00 | 00:00:00 | |
| DM0DOS-11 | 2026-08-31 02:44:47 | 53.25278 | 6.79895 | 29° | 62km/h | 5145m | -2.9m/s | -14.4°C | 53.2% | 534hPa | 2.6V | 07:10:06 | 03:19:16 | 00:00:00 | |
| DL1XH-west | 2026-08-31 02:44:42 | 53.25279 | 6.79895 | 30° | 62km/h | 5145m | -2.9m/s | -14.4°C | 54.5% | 534hPa | 2.6V | 07:10:28 | 03:19:16 | 00:00:00 | |
| DL4BBY-15 | 2026-08-31 02:44:41 | 53.25264 | 6.79882 | 31° | 58km/h | 5148m | -2.6m/s | -14.7°C | 0% | 0hPa | 2.7V | 00:00:00 | 00:00:00 | 00:00:00 | |
| DF5WG-10 | 2026-08-31 02:44:38 | 53.25224 | 6.79840 | 34° | 60km/h | 5155m | -2.4m/s | 0°C | 0% | 0hPa | 2.7V | 00:00:00 | 03:19:12 | 00:00:00 | |
| GOEST3-10 | 2026-08-31 02:44:37 | 53.25210 | 6.79826 | 35° | 60km/h | 5158m | -2.5m/s | -14.4°C | 51.0% | 533.0hPa | 2.7V | 00:00:00 | 00:00:00 | 00:00:00 | |
| DM0DOS-11 | 2026-08-31 02:44:36 | 53.25138 | 6.79732 | 37° | 58km/h | 5174m | -2.2m/s | -14.6°C | 43.5% | 532.1hPa | 2.7V | 07:10:17 | 03:19:05 | 00:00:00 | |
| BIOWL1-15 | 2026-08-31 02:44:36 | 53.25198 | 6.79811 | 37° | 62km/h | 5161m | -2.6m/s | -14.5°C | 51.7% | 533hPa | 2.7V | 07:10:28 | 03:19:10 | 00:00:00 | |
| DL1XH-west | 2026-08-31 02:44:31 | 53.25138 | 6.79732 | 38° | 58km/h | 5174m | -2.3m/s | -14.6°C | 45.9% | 532.1hPa | 2.7V | 07:10:28 | 03:19:05 | 00:00:00 | |
| BIOWL1-15 | 2026-08-31 02:44:27 | 53.25068 | 6.79657 | 29° | 55km/h | 5190m | -2.7m/s | -14.7°C | 46.1% | 530.9hPa | 2.7V | 07:10:28 | 03:18:59 | 00:00:00 | |
| DM0DOS-11 | 2026-08-31 02:44:27 | 53.25020 | 6.79607 | 36° | 55km/h | 5201m | -2.5m/s | -14.8°C | 46.7% | 530.1hPa | 2.7V | 07:10:27 | 03:18:55 | 00:00:00 | |
| DL1XH-west | 2026-08-31 02:44:20 | 53.25009 | 6.79593 | 39° | 55km/h | 5204m | -2.4m/s | -14.8°C | 49% | 530hPa | 2.7V | 07:10:28 | 03:18:54 | 00:00:00 | |
| DF5WG-10 | 2026-08-31 02:44:18 | 53.24987 | 6.79563 | 40° | 57km/h | 5209m | -3.1m/s | -14.8°C | 44.3% | 529.5hPa | 2.7V | 00:00:00 | 03:18:52 | 00:00:00 | |
| BIOWL9-15 | 2026-08-31 02:44:17 | 53.24965 | 6.79535 | 36° | 53km/h | 5215m | -2.5m/s | -14.9°C | 43.4% | 529.2hPa | 2.7V | 00:00:00 | 00:00:00 | 00:00:00 | |
| DM0DOS-11 | 2026-08-31 02:44:16 | 53.24905 | 6.79474 | 27° | 58km/h | 5229m | -3.1m/s | -15°C | 45.6% | 528.2hPa | 2.7V | 07:10:37 | 03:18:45 | 00:00:00 | |
| BIOWL1-15 | 2026-08-31 02:44:14 | 53.24942 | 6.79509 | 32° | 55km/h | 5220m | -3m/s | -15°C | 48.4% | 528.9hPa | 2.7V | 07:11:19 | 03:18:48 | 00:00:00 | |
| DL1XH-west | 2026-08-31 02:44:10 | 53.24891 | 6.79463 | 27° | 60km/h | 5232m | -3m/s | -15.1°C | 47% | 527.9hPa | 2.7V | 07:11:19 | 03:18:44 | 00:00:00 | |
| DF5WG-10 | 2026-08-31 02:44:08 | 53.24864 | 6.79438 | 30° | 60km/h | 5237m | -2.5m/s | -15.1°C | 44.8% | 527.6hPa | 2.7V | 00:00:00 | 03:18:42 | 00:00:00 | |
| GOEST3-10 | 2026-08-31 02:44:07 | 53.24851 | 6.79426 | 31° | 60km/h | 5240m | -2.6m/s | -15.1°C | 44.4% | 527.4hPa | 2.7V | 00:00:00 | 00:00:00 | 00:00:00 | |
| DM0DOS-11 | 2026-08-31 02:44:06 | 53.24776 | 6.79339 | 37° | 58km/h | 5256m | -2.4m/s | -15.2°C | 43.6% | 526.3hPa | 2.7V | 07:10:47 | 03:18:35 | 00:00:00 | |
| BIOWL1-15 | 2026-08-31 02:44:06 | 53.24813 | 6.79384 | 36° | 60km/h | 5248m | -2.8m/s | -15.2°C | 45.9% | 526.9hPa | 2.7V | 07:11:19 | 03:18:38 | 00:00:00 | |
| DL1XH-west | 2026-08-31 02:44:00 | 53.24764 | 6.79324 | 38° | 58km/h | 5258m | -3m/s | -15.3°C | 45.9% | 526.1hPa | 2.7V | 07:11:19 | 03:18:34 | 00:00:00 | |
| DF5WG-10 | 2026-08-31 02:43:58 | 53.24741 | 6.79294 | 39° | 53km/h | 5264m | -2.5m/s | -15.3°C | 43.9% | 525.7hPa | 2.6V | 00:00:00 | 03:18:32 | 00:00:00 | |
| GOEST3-10 | 2026-08-31 02:43:57 | 53.24730 | 6.79279 | 39° | 55km/h | 5267m | -3.1m/s | -15.3°C | 43.9% | 525.5hPa | 2.6V | 00:00:00 | 00:00:00 | 00:00:00 | |
| DM0DOS-11 | 2026-08-31 02:43:56 | 53.24665 | 6.79198 | 34° | 51km/h | 5283m | -2.9m/s | -15.5°C | 44.1% | 524.4hPa | 2.7V | 07:10:57 | 03:18:25 | 00:00:00 | |
| BIOWL1-15 | 2026-08-31 02:43:53 | 53.24687 | 6.79223 | 36° | 53km/h | 5278m | -2.7m/s | -15.5°C | 46.3% | 524.8hPa | 2.6V | 07:11:19 | 03:18:27 | 00:00:00 | |
| DL1XH-west | 2026-08-31 02:43:49 | 53.24644 | 6.79173 | 33° | 51km/h | 5289m | -2.4m/s | -15.6°C | 46.5% | 524hPa | 2.7V | 07:11:19 | 03:18:23 | 00:00:00 | |
| DO9LL-15 | 2026-08-31 02:43:49 | 53.24643 | 6.79173 | 34° | 53km/h | 5289m | -2.4m/s | -15.5°C | 44.4% | 524.0hPa | 2.7V | 00:00:00 | 03:18:23 | 00:00:00 | |
| DF5WG-10 | 2026-08-31 02:43:48 | 53.24633 | 6.79162 | 34° | 51km/h | 5292m | -2.9m/s | -15.5°C | 44.4% | 523.8hPa | 2.6V | 00:00:00 | 03:18:22 | 00:00:00 | |
| GOEST3-10 | 2026-08-31 02:43:47 | 53.24622 | 6.79150 | 34° | 49km/h | 5295m | -2.7m/s | -15.6°C | 44.6% | 523.6hPa | 2.6V | 00:00:00 | 00:00:00 | 00:00:00 | |
| DM0DOS-11 | 2026-08-31 02:43:46 | 53.24559 | 6.79080 | 33° | 53km/h | 5311m | -2.8m/s | -15.8°C | 44.8% | 522.5hPa | 2.6V | 07:11:07 | 03:18:15 | 00:00:00 | |
| BIOWL9-15 | 2026-08-31 02:43:46 | 53.24601 | 6.79127 | 32° | 49km/h | 5300m | -2.7m/s | -15.7°C | 42.3% | 523.3hPa | 2.7V | 00:00:00 | 00:00:00 | 00:00:00 | |
| BIOWL1-15 | 2026-08-31 02:43:45 | 53.24580 | 6.79104 | 33° | 49km/h | 5306m | -2.8m/s | -15.7°C | 46.4% | 522.9hPa | 2.7V | 07:11:19 | 03:18:17 | 00:00:00 | |
| WEDDY | 2026-08-31 02:43:43 | 53.24591 | 6.79115 | 35° | 49km/h | 5303m | -3.1m/s | -15.7°C | 42.4% | 523.1hPa | 2.7V | 07:11:00 | 00:00:00 | 00:00:00 | |
| DL1XH-15 | 2026-08-31 02:43:42 | 53.24514 | 6.79025 | 38° | 58km/h | 5322m | -2.9m/s | -15.9°C | 44.8% | 521.8hPa | 2.7V | 07:11:11 | 03:18:11 | 00:00:00 | |
| DL1XH-west | 2026-08-31 02:43:38 | 53.24525 | 6.79040 | 38° | 57km/h | 5319m | -2.4m/s | -15.9°C | 46.9% | 521.9hPa | 2.7V | 07:11:19 | 03:18:12 | 00:00:00 | |
| DF5WG-10 | 2026-08-31 02:43:38 | 53.24525 | 6.79040 | 38° | 55km/h | 5319m | -2.3m/s | -15.8°C | 44.9% | 521.8hPa | 2.6V | 00:00:00 | 03:18:12 | 00:00:00 | |
| GOEST3-10 | 2026-08-31 02:43:37 | 53.24514 | 6.79025 | 39° | 57km/h | 5322m | -2.8m/s | -15.8°C | 44.8% | 521.7hPa | 2.6V | 07:11:00 | 00:00:00 | 00:00:00 | |
| DM0DOS-11 | 2026-08-31 02:43:36 | 53.24449 | 6.78938 | 34° | 51km/h | 5339m | -2.8m/s | -16°C | 45% | 520.5hPa | 2.6V | 07:11:17 | 03:18:05 | 00:00:00 | |
| BIOWL1-15 | 2026-08-31 02:43:33 | 53.24470 | 6.78965 | 39° | 53km/h | 5333m | -3m/s | -16°C | 47% | 521hPa | 2.7V | 07:11:19 | 03:18:07 | 00:00:00 | |
| DL1XH-west | 2026-08-31 02:43:27 | 53.24405 | 6.78893 | 30° | 53km/h | 5351m | -2.8m/s | -16.1°C | 46.6% | 519.8hPa | 2.7V | 07:12:10 | 03:18:01 | 00:00:00 | |
| BIOWL1-15 | 2026-08-31 02:43:22 | 53.24348 | 6.78827 | 40° | 55km/h | 5364m | -2.7m/s | -16.2°C | 46% | 518.7hPa | 2.7V | 07:12:10 | 03:17:56 | 00:00:00 | |
| DL1XH-west | 2026-08-31 02:43:16 | 53.24287 | 6.78738 | 40° | 55km/h | 5381m | -2.8m/s | -16.4°C | 44.9% | 517.6hPa | 2.7V | 07:12:10 | 03:17:50 | 00:00:00 | |
| BIOWL1-15 | 2026-08-31 02:43:11 | 53.24231 | 6.78661 | 39° | 60km/h | 5395m | -3.1m/s | -16.5°C | 43.4% | 516.6hPa | 2.6V | 07:12:10 | 03:17:45 | 00:00:00 | |
| DL1XH-west | 2026-08-31 02:43:05 | 53.24163 | 6.78576 | 36° | 51km/h | 5412m | -2.7m/s | -16.6°C | 43.4% | 515.5hPa | 2.7V | 07:12:10 | 03:17:39 | 00:00:00 | |
| BIOWL1-15 | 2026-08-31 02:43:00 | 53.24112 | 6.78513 | 38° | 53km/h | 5426m | -2.6m/s | -16.7°C | 43.7% | 514.5hPa | 2.6V | 07:12:10 | 03:17:34 | 00:00:00 | |
| DL1XH-west | 2026-08-31 02:42:55 | 53.24060 | 6.78442 | 39° | 55km/h | 5440m | -2.7m/s | -16.8°C | 47.4% | 513.6hPa | 2.6V | 07:12:10 | 03:17:29 | 00:00:00 | |
| BIOWL1-15 | 2026-08-31 02:42:51 | 53.23993 | 6.78349 | 41° | 58km/h | 5457m | -2.5m/s | -16.9°C | 60.6% | 512.4hPa | 2.6V | 07:12:10 | 03:17:23 | 00:00:00 | |
| HTAHTA | 2026-08-31 02:42:49 | 53.23982 | 6.78333 | 41° | 57km/h | 5459m | -2.9m/s | -17.0°C | 58.8% | 512.2hPa | 2.6V | 00:00:00 | 00:00:00 | 00:00:00 | |
| DF5WG-10 | 2026-08-31 02:42:48 | 53.23982 | 6.78333 | 42° | 51km/h | 5460m | -2.8m/s | -16.9°C | 61.6% | 512.2hPa | 2.6V | 00:00:00 | 03:17:22 | 00:00:00 | |
| GOEST3-10 | 2026-08-31 02:42:47 | 53.23971 | 6.78317 | 44° | 51km/h | 5463m | -3.0m/s | -17.0°C | 64.9% | 511.9hPa | 2.6V | 00:00:00 | 00:00:00 | 00:00:00 | |
| DM0DOS-11 | 2026-08-31 02:42:46 | 53.23913 | 6.78234 | 35° | 47km/h | 5480m | -2.7m/s | -17.2°C | 72.3% | 510.8hPa | 2.6V | 07:12:07 | 03:17:15 | 00:00:00 | |
| DL1XH-west | 2026-08-31 02:42:45 | 53.23951 | 6.78286 | 43° | 51km/h | 5468m | -3m/s | -17.1°C | 70.9% | 511.6hPa | 2.7V | 07:12:10 | 03:17:19 | 00:00:00 | |
| BIOWL1-15 | 2026-08-31 02:42:39 | 53.23893 | 6.78210 | 35° | 49km/h | 5485m | -2.8m/s | -17.2°C | 71.9% | 510.5hPa | 2.7V | 07:12:10 | 03:17:13 | 00:00:00 | |
| DF5WG-10 | 2026-08-31 02:42:38 | 53.23882 | 6.78197 | 35° | 57km/h | 5488m | -2.2m/s | -17.2°C | 73.0% | 510.2hPa | 2.7V | 00:00:00 | 03:17:12 | 00:00:00 | |
| GOEST3-10 | 2026-08-31 02:42:37 | 53.23871 | 6.78185 | 35° | 57km/h | 5491m | -2.4m/s | -17.2°C | 73.1% | 510.0hPa | 2.7V | 00:00:00 | 00:00:00 | 00:00:00 | |
| DM0DOS-11 | 2026-08-31 02:42:36 | 53.23801 | 6.78099 | 38° | 58km/h | 5507m | -2.4m/s | -17.4°C | 75.9% | 509hPa | 2.7V | 07:12:17 | 03:17:05 | 00:00:00 | |
| DL1XH-west | 2026-08-31 02:42:35 | 53.23848 | 6.78158 | 36° | 57km/h | 5496m | -2.7m/s | -17.3°C | 73% | 509.8hPa | 2.6V | 07:13:01 | 03:17:09 | 00:00:00 | |
| BIOWL1-15 | 2026-08-31 02:42:33 | 53.23778 | 6.78068 | 40° | 57km/h | 5512m | -2.9m/s | -17.5°C | 73.3% | 508.6hPa | 2.6V | 07:13:01 | 03:17:03 | 00:00:00 | |
| GOEST3-10 | 2026-08-31 02:42:32 | 53.23812 | 6.78114 | 38° | 57km/h | 5504m | -2.8m/s | -17.4°C | 75.2% | 509.1hPa | 2.6V | 00:00:00 | 03:17:06 | 00:00:00 | |
| DJ2DS-15 | 2026-08-31 02:42:30 | 53.23789 | 6.78083 | 39° | 57km/h | 5509m | -2.8m/s | -17.5°C | 72.7% | 508.8hPa | 2.6V | 00:00:00 | 00:00:00 | 00:00:00 | |
| DF5WG-10 | 2026-08-31 02:42:28 | 53.23767 | 6.78053 | 41° | 55km/h | 5515m | -2.6m/s | -17.5°C | 75.5% | 508.4hPa | 2.6V | 00:00:00 | 03:17:02 | 00:00:00 | |
| GOEST3-10 | 2026-08-31 02:42:27 | 53.23756 | 6.78037 | 42° | 55km/h | 5517m | -2.5m/s | -17.5°C | 75.6% | 508.3hPa | 2.6V | 00:00:00 | 00:00:00 | 00:00:00 | |
| DM0DOS-11 | 2026-08-31 02:42:26 | 53.23696 | 6.77945 | 43° | 53km/h | 5534m | -2.3m/s | -17.7°C | 78.1% | 507.1hPa | 2.6V | 07:12:27 | 03:16:55 | 00:00:00 | |
| DL1XH-west | 2026-08-31 02:42:24 | 53.23726 | 6.77991 | 42° | 55km/h | 5526m | -2.6m/s | -17.6°C | 75.4% | 507.7hPa | 2.7V | 07:13:01 | 03:16:58 | 00:00:00 | |
| BIOWL1-15 | 2026-08-31 02:42:18 | 53.23666 | 6.77898 | 43° | 53km/h | 5542m | -2.3m/s | -17.8°C | 75.5% | 506.6hPa | 2.6V | 07:13:01 | 03:16:52 | 00:00:00 | |
| HTAHTA | 2026-08-31 02:42:18 | 53.23657 | 6.77883 | 42° | 51km/h | 5545m | -2.6m/s | -17.8°C | 71.6% | 506.5hPa | 2.7V | 00:00:00 | 00:00:00 | 00:00:00 | |
| GOEST3-10 | 2026-08-31 02:42:17 | 53.23656 | 6.77883 | 43° | 51km/h | 5545m | -2.6m/s | -17.7°C | 75.0% | 506.5hPa | 2.7V | 07:12:00 | 00:00:00 | 00:00:00 | |
| DM0DOS-11 | 2026-08-31 02:42:16 | 53.23597 | 6.77805 | 33° | 49km/h | 5562m | -3.1m/s | -17.9°C | 72.5% | 505.3hPa | 2.7V | 07:12:37 | 03:16:45 | 00:00:00 | |
| DL1XH-west | 2026-08-31 02:42:13 | 53.23617 | 6.77829 | 36° | 49km/h | 5556m | -2.7m/s | -17.9°C | 72.4% | 505.6hPa | 2.6V | 07:13:01 | 03:16:47 | 00:00:00 | |
| BIOWL1-15 | 2026-08-31 02:42:07 | 53.23553 | 6.77759 | 33° | 53km/h | 5573m | -2.8m/s | -18°C | 69.1% | 504.5hPa | 2.6V | 07:13:01 | 03:16:41 | 00:00:00 | |
| GOEST3-10 | 2026-08-31 02:42:07 | 53.23553 | 6.77759 | 33° | 57km/h | 5573m | -2.8m/s | -18.0°C | 70.6% | 504.4hPa | 2.6V | 00:00:00 | 00:00:00 | 00:00:00 | |
| DM0DOS-11 | 2026-08-31 02:42:06 | 53.23482 | 6.77677 | 36° | 58km/h | 5589m | -2.8m/s | -18.1°C | 72.2% | 503.5hPa | 2.6V | 07:12:47 | 03:16:35 | 00:00:00 | |
| DL1XH-west | 2026-08-31 02:42:02 | 53.23494 | 6.77692 | 36° | 58km/h | 5586m | -2.6m/s | -18.1°C | 70.3% | 503.7hPa | 2.6V | 07:13:01 | 03:16:36 | 00:00:00 | |
| BIOWL1-15 | 2026-08-31 02:41:56 | 53.23424 | 6.77606 | 35° | 55km/h | 5601m | -2.5m/s | -18.2°C | 76.8% | 502.6hPa | 2.7V | 07:13:01 | 03:16:30 | 00:00:00 | |
| DL1XH-west | 2026-08-31 02:41:51 | 53.23369 | 6.77545 | 36° | 51km/h | 5615m | -2.8m/s | -18.3°C | 77.9% | 501.7hPa | 2.6V | 07:13:01 | 03:16:25 | 00:00:00 | |
| BIOWL1-15 | 2026-08-31 02:41:46 | 53.23316 | 6.77478 | 38° | 53km/h | 5629m | -3m/s | -18.4°C | 83.3% | 500.8hPa | 2.6V | 07:13:52 | 03:16:20 | 00:00:00 | |
| DL1XH-west | 2026-08-31 02:41:40 | 53.23253 | 6.77402 | 32° | 51km/h | 5645m | -2.7m/s | -18.5°C | 77.5% | 499.7hPa | 2.6V | 07:13:52 | 03:16:14 | 00:00:00 | |
| BIOWL1-15 | 2026-08-31 02:41:39 | 53.23196 | 6.77347 | 32° | 51km/h | 5658m | -2.3m/s | -18.6°C | 78.5% | 498.9hPa | 2.6V | 07:13:52 | 03:16:09 | 00:00:00 | |
| DF5WG-10 | 2026-08-31 02:41:38 | 53.23230 | 6.77380 | 30° | 51km/h | 5650m | -2.5m/s | -18.5°C | 80.0% | 499.3hPa | 2.6V | 00:00:00 | 03:16:12 | 00:00:00 | |
| GOEST3-10 | 2026-08-31 02:41:37 | 53.23219 | 6.77369 | 30° | 51km/h | 5653m | -2.7m/s | -18.5°C | 81.1% | 499.1hPa | 2.6V | 07:13:00 | 00:00:00 | 00:00:00 | |
| DM0DOS-11 | 2026-08-31 02:41:36 | 53.23154 | 6.77296 | 38° | 53km/h | 5668m | -2.6m/s | -18.7°C | 82.9% | 498.2hPa | 2.6V | 07:13:17 | 03:16:05 | 00:00:00 | |
| DL1XH-15 | 2026-08-31 02:41:32 | 53.23113 | 6.77238 | 40° | 53km/h | 5678m | -2.4m/s | -18.8°C | 84% | 497.5hPa | 2.6V | 07:13:21 | 03:16:01 | 00:00:00 | |
| DL1XH-west | 2026-08-31 02:41:29 | 53.23134 | 6.77267 | 40° | 53km/h | 5674m | -2.6m/s | -18.7°C | 79.5% | 497.8hPa | 2.6V | 07:13:52 | 03:16:03 | 00:00:00 | |
| BIOWL1-15 | 2026-08-31 02:41:27 | 53.23093 | 6.77210 | 38° | 51km/h | 5683m | -2.8m/s | -18.8°C | 80% | 497.1hPa | 2.6V | 07:13:52 | 03:15:59 | 00:00:00 | |
| DM0DOS-11 | 2026-08-31 02:41:26 | 53.23052 | 6.77163 | 29° | 49km/h | 5694m | -2.5m/s | -18.9°C | 81.4% | 496.4hPa | 2.6V | 07:13:27 | 03:15:55 | 00:00:00 | |
| DL1XH-west | 2026-08-31 02:41:18 | 53.23019 | 6.77134 | 27° | 51km/h | 5702m | -2.8m/s | -19°C | 74.8% | 495.8hPa | 2.6V | 07:13:52 | 03:15:52 | 00:00:00 | |
| DF5WG-10 | 2026-08-31 02:41:18 | 53.23019 | 6.77134 | 27° | 49km/h | 5702m | -2.8m/s | -18.9°C | 77.8% | 495.7hPa | 2.6V | 00:00:00 | 03:15:52 | 00:00:00 | |
| DM0DOS-11 | 2026-08-31 02:41:16 | 53.22944 | 6.77055 | 35° | 47km/h | 5720m | -2.8m/s | -19.1°C | 74.5% | 494.7hPa | 2.6V | 07:13:37 | 03:15:45 | 00:00:00 | |
| BIOWL1-15 | 2026-08-31 02:41:14 | 53.22975 | 6.77091 | 34° | 51km/h | 5712m | -2m/s | -19°C | 72.8% | 495.2hPa | 2.6V | 07:13:52 | 03:15:48 | 00:00:00 | |
| DL1XH-west | 2026-08-31 02:41:08 | 53.22915 | 6.77023 | 30° | 46km/h | 5727m | -2.2m/s | -19.1°C | 69.5% | 494.2hPa | 2.6V | 07:13:52 | 03:15:42 | 00:00:00 | |
| DF5WG-10 | 2026-08-31 02:41:08 | 53.22915 | 6.77023 | 30° | 49km/h | 5727m | -2.2m/s | -19.0°C | 70.8% | 494.2hPa | 2.6V | 00:00:00 | 03:15:42 | 00:00:00 | |
| DM0DOS-11 | 2026-08-31 02:41:06 | 53.22842 | 6.76946 | 35° | 53km/h | 5744m | -2.4m/s | -19.2°C | 71.4% | 493hPa | 2.6V | 07:13:47 | 03:15:35 | 00:00:00 | |
| BIOWL1-15 | 2026-08-31 02:41:04 | 53.22874 | 6.76983 | 33° | 49km/h | 5737m | -2.5m/s | -19.2°C | 68.2% | 493.5hPa | 2.6V | 07:13:52 | 03:15:38 | 00:00:00 | |
| DL1XH-west | 2026-08-31 02:40:57 | 53.22798 | 6.76895 | 33° | 51km/h | 5754m | -2.2m/s | -19.3°C | 71.7% | 492.4hPa | 2.6V | 07:13:52 | 03:15:31 | 00:00:00 | |
| DM0DOS-11 | 2026-08-31 02:40:56 | 53.22732 | 6.76829 | 31° | 49km/h | 5769m | -2.6m/s | -19.4°C | 74.3% | 491.4hPa | 2.6V | 07:13:57 | 03:15:25 | 00:00:00 | |
| BIOWL1-15 | 2026-08-31 02:40:53 | 53.22754 | 6.76851 | 31° | 49km/h | 5764m | -2.5m/s | -19.4°C | 71.8% | 491.7hPa | 2.6V | 07:14:43 | 03:15:27 | 00:00:00 | |
| GOEST3-10 | 2026-08-31 02:40:51 | 53.22732 | 6.76829 | 32° | 49km/h | 5769m | -2.6m/s | -19.4°C | 74.3% | 491.4hPa | 2.6V | 00:00:00 | 03:15:25 | 00:00:00 | |
| DC6BW-12 | 2026-08-31 02:40:49 | 53.22722 | 6.76818 | 34° | 49km/h | 5772m | -2.6m/s | -19.4°C | 70.7% | 491.2hPa | 2.6V | 00:00:00 | 00:00:00 | 00:00:00 | |
| DF5WG-10 | 2026-08-31 02:40:48 | 53.22701 | 6.76795 | 36° | 49km/h | 5777m | -2.5m/s | -19.4°C | 73.4% | 490.8hPa | 2.6V | 00:00:00 | 03:15:22 | 00:00:00 | |
| DM0DOS-11 | 2026-08-31 02:40:46 | 53.22630 | 6.76711 | 33° | 51km/h | 5795m | -2.6m/s | -19.6°C | 61.6% | 489.7hPa | 2.6V | 07:14:07 | 03:15:15 | 00:00:00 | |
| DL1XH-west | 2026-08-31 02:40:46 | 53.22682 | 6.76771 | 36° | 49km/h | 5782m | -2.4m/s | -19.5°C | 70.3% | 490.6hPa | 2.5V | 07:14:43 | 03:15:20 | 00:00:00 | |
| HTAHTA | 2026-08-31 02:40:44 | 53.22661 | 6.76746 | 35° | 49km/h | 5787m | -2.8m/s | -19.5°C | 66.2% | 490.3hPa | 2.6V | 00:00:00 | 00:00:00 | 00:00:00 | |
| BIOWL1-15 | 2026-08-31 02:40:42 | 53.22640 | 6.76723 | 34° | 51km/h | 5792m | -2.4m/s | -19.5°C | 62.4% | 489.9hPa | 2.6V | 07:14:43 | 03:15:16 | 00:00:00 | |
| DL4BBY-15 | 2026-08-31 02:40:41 | 53.22630 | 6.76711 | 34° | 47km/h | 5795m | -2.6m/s | -19.9°C | 0% | 0hPa | 2.5V | 00:00:00 | 00:00:00 | 00:00:00 | |
| DF5WG-10 | 2026-08-31 02:40:38 | 53.22598 | 6.76677 | 33° | 49km/h | 5802m | -2.5m/s | -19.6°C | 60.4% | 489.1hPa | 2.5V | 00:00:00 | 03:15:12 | 00:00:00 | |
| DL1XH-15 | 2026-08-31 02:40:37 | 53.22536 | 6.76608 | 35° | 47km/h | 5818m | -2.7m/s | -19.7°C | 60.4% | 488.2hPa | 2.5V | 07:14:16 | 03:15:06 | 00:00:00 | |
| DL1XH-west | 2026-08-31 02:40:36 | 53.22577 | 6.76654 | 34° | 49km/h | 5808m | -2.6m/s | -19.7°C | 59.6% | 488.8hPa | 2.6V | 07:14:43 | 03:15:10 | 00:00:00 | |
| BIOWL1-15 | 2026-08-31 02:40:32 | 53.22536 | 6.76608 | 35° | 47km/h | 5818m | -2.7m/s | -19.7°C | 59.4% | 488.2hPa | 2.5V | 07:14:43 | 03:15:06 | 00:00:00 | |
| DL1XH-west | 2026-08-31 02:40:26 | 53.22473 | 6.76543 | 29° | 49km/h | 5834m | -2.6m/s | -19.8°C | 54.3% | 487.1hPa | 2.6V | 07:14:43 | 03:15:00 | 00:00:00 | |
| DL1XH-15 | 2026-08-31 02:40:24 | 53.22399 | 6.76467 | 35° | 47km/h | 5850m | -2.3m/s | -19.8°C | 39.1% | 486.1hPa | 2.6V | 07:14:29 | 03:14:53 | 00:00:00 | |
| BIOWL1-15 | 2026-08-31 02:40:21 | 53.22419 | 6.76490 | 33° | 49km/h | 5846m | -2.6m/s | -19.8°C | 44% | 486.4hPa | 2.5V | 07:14:43 | 03:14:55 | 00:00:00 | |
| DL1XH-west | 2026-08-31 02:40:15 | 53.22363 | 6.76421 | 37° | 42km/h | 5860m | -2.3m/s | -19.9°C | 40.7% | 485.4hPa | 2.5V | 07:14:43 | 03:14:49 | 00:00:00 | |
| DL1XH-15 | 2026-08-31 02:40:13 | 53.22295 | 6.76342 | 33° | 53km/h | 5877m | -2.5m/s | -20.1°C | 40.3% | 484.3hPa | 2.6V | 07:14:40 | 03:14:42 | 00:00:00 | |
| BIOWL1-15 | 2026-08-31 02:40:12 | 53.22316 | 6.76365 | 33° | 49km/h | 5872m | -2.3m/s | -20°C | 41.1% | 484.6hPa | 2.5V | 07:14:43 | 03:14:44 | 00:00:00 | |
| DL1XH-west | 2026-08-31 02:40:05 | 53.22262 | 6.76304 | 36° | 53km/h | 5884m | -2.4m/s | -20.1°C | 42.2% | 483.8hPa | 2.6V | 07:14:43 | 03:14:39 | 00:00:00 | |
| DL1XH-15 | 2026-08-31 02:40:03 | 53.22183 | 6.76219 | 31° | 53km/h | 5902m | -2.4m/s | -20.3°C | 38.1% | 482.8hPa | 2.6V | 07:14:50 | 03:14:32 | 00:00:00 | |
| BIOWL1-15 | 2026-08-31 02:40:02 | 53.22206 | 6.76242 | 31° | 53km/h | 5897m | -2.8m/s | -20.2°C | 39.4% | 483.1hPa | 2.6V | 07:15:34 | 03:14:34 | 00:00:00 | |
| GOEST3-10 | 2026-08-31 02:40:01 | 53.22217 | 6.76254 | 33° | 53km/h | 5895m | -2.4m/s | -20.2°C | 39.0% | 483.2hPa | 2.6V | 00:00:00 | 03:14:35 | 00:00:00 | |
| DO9LL-15 | 2026-08-31 02:39:59 | 53.22194 | 6.76231 | 32° | 55km/h | 5900m | -2.3m/s | -20.2°C | 38.4% | 482.8hPa | 2.6V | 00:00:00 | 03:14:33 | 00:00:00 | |
| DF5WG-10 | 2026-08-31 02:39:58 | 53.22183 | 6.76219 | 32° | 55km/h | 5902m | -2.4m/s | -20.2°C | 38.1% | 482.7hPa | 2.6V | 00:00:00 | 03:14:32 | 00:00:00 | |
| BIOWL7-15 | 2026-08-31 02:39:57 | 53.22183 | 6.76219 | 33° | 53km/h | 5902m | -2.4m/s | -20.3°C | 35.9% | 482.8hPa | 2.5V | 00:00:00 | 00:00:00 | 00:00:00 | |
| DM0DOS-11 | 2026-08-31 02:39:56 | 53.22102 | 6.76130 | 35° | 57km/h | 5921m | -2.9m/s | -20.4°C | 37.4% | 481.5hPa | 2.5V | 07:14:57 | 03:14:25 | 00:00:00 | |
| DL1XH-west | 2026-08-31 02:39:55 | 53.22149 | 6.76183 | 34° | 55km/h | 5910m | -2.2m/s | -20.3°C | 39.3% | 482.2hPa | 2.6V | 07:15:34 | 03:14:29 | 00:00:00 | |
| DL1XH-15 | 2026-08-31 02:39:53 | 53.22066 | 6.76087 | 36° | 58km/h | 5929m | -2.7m/s | -20.5°C | 33.8% | 480.9hPa | 2.6V | 07:15:00 | 03:14:22 | 00:00:00 | |
| BIOWL1-15 | 2026-08-31 02:39:50 | 53.22090 | 6.76116 | 36° | 58km/h | 5923m | -2.9m/s | -20.5°C | 38.2% | 481.4hPa | 2.6V | 07:15:34 | 03:14:24 | 00:00:00 | |
| DF5WG-10 | 2026-08-31 02:39:48 | 53.22066 | 6.76086 | 37° | 55km/h | 5930m | -2.7m/s | -20.4°C | 33.8% | 480.9hPa | 2.6V | 00:00:00 | 03:14:22 | 00:00:00 | |
| DM0DOS-11 | 2026-08-31 02:39:46 | 53.21986 | 6.75989 | 33° | 49km/h | 5947m | -2.5m/s | -20.5°C | 42.8% | 479.8hPa | 2.6V | 07:15:07 | 03:14:15 | 00:00:00 | |
| DL1XH-west | 2026-08-31 02:39:45 | 53.22031 | 6.76042 | 37° | 58km/h | 5937m | -2.6m/s | -20.5°C | 34.3% | 480.4hPa | 2.5V | 07:15:34 | 03:14:19 | 00:00:00 | |
| DL1XH-15 | 2026-08-31 02:39:43 | 53.21955 | 6.75955 | 33° | 49km/h | 5954m | -2.5m/s | -20.6°C | 44.7% | 479.3hPa | 2.5V | 07:15:10 | 03:14:12 | 00:00:00 | |
| BIOWL1-15 | 2026-08-31 02:39:39 | 53.21966 | 6.75966 | 33° | 49km/h | 5952m | -2.5m/s | -20.5°C | 44.6% | 479.5hPa | 2.5V | 07:15:34 | 03:14:13 | 00:00:00 | |
| DF5WG-10 | 2026-08-31 02:39:38 | 53.21955 | 6.75955 | 34° | 57km/h | 5955m | -2.4m/s | -20.5°C | 44.7% | 479.3hPa | 2.6V | 00:00:00 | 03:14:12 | 00:00:00 | |
| BIOWL9-15 | 2026-08-31 02:39:37 | 53.21945 | 6.75943 | 36° | 51km/h | 5957m | -2.6m/s | -20.6°C | 42.1% | 479.2hPa | 2.6V | 00:00:00 | 00:00:00 | 00:00:00 | |
| DM0DOS-11 | 2026-08-31 02:39:36 | 53.21881 | 6.75850 | 43° | 58km/h | 5973m | -2.7m/s | -20.5°C | 41.3% | 478.1hPa | 2.6V | 07:15:17 | 03:14:05 | 00:00:00 | |
| DL1XH-west | 2026-08-31 02:39:34 | 53.21913 | 6.75899 | 42° | 57km/h | 5964m | -2.8m/s | -20.5°C | 43.2% | 478.7hPa | 2.5V | 07:15:34 | 03:14:08 | 00:00:00 | |
| DL1XH-15 | 2026-08-31 02:39:33 | 53.21848 | 6.75800 | 39° | 57km/h | 5980m | -1.7m/s | -20.4°C | 43.2% | 477.6hPa | 2.5V | 07:15:20 | 03:14:02 | 00:00:00 | |
| BIOWL1-15 | 2026-08-31 02:39:31 | 53.21859 | 6.75816 | 41° | 58km/h | 5978m | -2.3m/s | -20.5°C | 42.2% | 477.7hPa | 2.6V | 07:15:34 | 03:14:03 | 00:00:00 | |
| DJ2DS-15 | 2026-08-31 02:39:30 | 53.21870 | 6.75833 | 42° | 58km/h | 5975m | -2.8m/s | -20.5°C | 39.2% | 477.9hPa | 2.5V | 00:00:00 | 00:00:00 | 00:00:00 | |
| DO9LL-15 | 2026-08-31 02:39:29 | 53.21859 | 6.75816 | 42° | 53km/h | 5978m | -2.3m/s | -20.4°C | 42.2% | 477.7hPa | 2.5V | 00:00:00 | 03:14:03 | 00:00:00 | |
| DF5WG-10 | 2026-08-31 02:39:28 | 53.21848 | 6.75800 | 40° | 55km/h | 5980m | -1.7m/s | -20.4°C | 43.2% | 477.5hPa | 2.5V | 00:00:00 | 03:14:02 | 00:00:00 | |
| DM0DOS-11 | 2026-08-31 02:39:26 | 53.21772 | 6.75707 | 37° | 55km/h | 5996m | -2.5m/s | -20.5°C | 53.3% | 476.6hPa | 2.5V | 07:15:27 | 03:13:55 | 00:00:00 | |
| GOEST3-10 | 2026-08-31 02:39:26 | 53.21826 | 6.75771 | 36° | 53km/h | 5984m | -2.2m/s | -20.4°C | 47.4% | 477.4hPa | 2.6V | 00:00:00 | 00:00:00 | 00:00:00 | |
| DL1XH-15 | 2026-08-31 02:39:23 | 53.21739 | 6.75662 | 41° | 57km/h | 6004m | -2.4m/s | -20.5°C | 54.5% | 476.1hPa | 2.6V | 07:15:30 | 03:13:52 | 00:00:00 | |
| DL1XH-west | 2026-08-31 02:39:23 | 53.21793 | 6.75734 | 36° | 53km/h | 5991m | -2.8m/s | -20.4°C | 50.2% | 476.9hPa | 2.5V | 07:15:34 | 03:13:57 | 00:00:00 | |
| BIOWL1-15 | 2026-08-31 02:39:19 | 53.21750 | 6.75677 | 40° | 57km/h | 6002m | -2.7m/s | -20.5°C | 53.9% | 476.4hPa | 2.6V | 07:15:34 | 03:13:53 | 00:00:00 | |
| DF5WG-10 | 2026-08-31 02:39:18 | 53.21739 | 6.75662 | 42° | 53km/h | 6004m | -2.4m/s | -20.5°C | 54.5% | 476.0hPa | 2.5V | 00:00:00 | 03:13:52 | 00:00:00 | |
| DM0DOS-11 | 2026-08-31 02:39:16 | 53.21668 | 6.75556 | 38° | 49km/h | 6021m | -2.8m/s | -20.4°C | 58.2% | 475hPa | 2.5V | 07:15:37 | 03:13:45 | 00:00:00 | |
| DL1XH-west | 2026-08-31 02:39:13 | 53.21688 | 6.75583 | 42° | 53km/h | 6016m | -2.3m/s | -20.4°C | 57.8% | 475.3hPa | 2.6V | 07:16:25 | 03:13:47 | 00:00:00 | |
| BIOWL1-15 | 2026-08-31 02:39:08 | 53.21638 | 6.75520 | 33° | 49km/h | 6029m | -2.7m/s | -20.5°C | 59.9% | 474.5hPa | 2.6V | 07:16:25 | 03:13:42 | 00:00:00 | |
| DF5WG-10 | 2026-08-31 02:39:08 | 53.21638 | 6.75520 | 34° | 55km/h | 6029m | -2.7m/s | -20.4°C | 60.8% | 474.4hPa | 2.5V | 07:15:00 | 03:13:42 | 00:00:00 | |
| DM0DOS-11 | 2026-08-31 02:39:06 | 53.21561 | 6.75429 | 39° | 60km/h | 6046m | -2.6m/s | -20.6°C | 65.4% | 473.3hPa | 2.5V | 07:15:47 | 03:13:35 | 00:00:00 | |
| DL1XH-west | 2026-08-31 02:39:03 | 53.21584 | 6.75459 | 38° | 57km/h | 6041m | -2.6m/s | -20.6°C | 62.3% | 473.7hPa | 2.6V | 07:16:25 | 03:13:37 | 00:00:00 | |
| BIOWL1-15 | 2026-08-31 02:38:57 | 53.21514 | 6.75364 | 39° | 60km/h | 6057m | -2.5m/s | -20.7°C | 64.6% | 472.6hPa | 2.6V | 07:16:25 | 03:13:31 | 00:00:00 | |
| DM0DOS-11 | 2026-08-31 02:38:56 | 53.21442 | 6.75274 | 35° | 60km/h | 6073m | -2.8m/s | -20.8°C | 68.9% | 471.7hPa | 2.6V | 07:15:57 | 03:13:25 | 00:00:00 | |
| DJ2DS-15 | 2026-08-31 02:38:54 | 53.21478 | 6.75318 | 36° | 58km/h | 6065m | -3.1m/s | -20.7°C | 64.9% | 472.2hPa | 2.5V | 00:00:00 | 00:00:00 | 00:00:00 | |
| DL1XH-15 | 2026-08-31 02:38:53 | 53.21406 | 6.75229 | 38° | 60km/h | 6082m | -2.4m/s | -20.8°C | 68.8% | 471.1hPa | 2.5V | 07:16:00 | 03:13:22 | 00:00:00 | |
| DL1XH-west | 2026-08-31 02:38:52 | 53.21455 | 6.75288 | 36° | 58km/h | 6070m | -2.6m/s | -20.8°C | 67.5% | 471.8hPa | 2.6V | 07:16:25 | 03:13:26 | 00:00:00 | |
| GOEST3-10 | 2026-08-31 02:38:51 | 53.21442 | 6.75274 | 36° | 60km/h | 6073m | -2.8m/s | -20.7°C | 68.9% | 471.6hPa | 2.6V | 00:00:00 | 03:13:25 | 00:00:00 | |
| DF5WG-10 | 2026-08-31 02:38:48 | 53.21406 | 6.75229 | 39° | 58km/h | 6082m | -2.3m/s | -20.8°C | 68.8% | 471.1hPa | 2.6V | 00:00:00 | 03:13:22 | 00:00:00 | |
| DO9FK | 2026-08-31 02:38:47 | 53.21406 | 6.75229 | 39° | 60km/h | 6082m | -2.4m/s | 0°C | 0% | 0hPa | 2.6V | 00:00:00 | 00:00:00 | 00:00:00 | |
| DM0DOS-11 | 2026-08-31 02:38:46 | 53.21328 | 6.75112 | 42° | 57km/h | 6099m | -2.2m/s | -20.9°C | 65.5% | 470hPa | 2.6V | 07:16:07 | 03:13:15 | 00:00:00 | |
| BIOWL1-15 | 2026-08-31 02:38:46 | 53.21383 | 6.75197 | 41° | 60km/h | 6086m | -2.4m/s | -20.8°C | 66.4% | 470.9hPa | 2.6V | 07:16:25 | 03:13:20 | 00:00:00 | |
| GOEST3-10 | 2026-08-31 02:38:46 | 53.21383 | 6.75197 | 41° | 58km/h | 6086m | -2.3m/s | -20.8°C | 67.3% | 470.8hPa | 2.6V | 00:00:00 | 00:00:00 | 00:00:00 | |
| DL1XH-15 | 2026-08-31 02:38:43 | 53.21296 | 6.75067 | 38° | 55km/h | 6107m | -2.7m/s | -20.9°C | 64.4% | 469.6hPa | 2.6V | 07:16:10 | 03:13:12 | 00:00:00 | |
| DL1XH-west | 2026-08-31 02:38:42 | 53.21339 | 6.75129 | 44° | 58km/h | 6097m | -2.6m/s | -20.9°C | 64.2% | 470.2hPa | 2.6V | 07:16:25 | 03:13:16 | 00:00:00 | |
| BIOWL1-15 | 2026-08-31 02:38:36 | 53.21274 | 6.75040 | 34° | 55km/h | 6112m | -2.8m/s | -21°C | 62.9% | 469.2hPa | 2.6V | 07:16:25 | 03:13:10 | 00:00:00 | |
| BIOWL9-15 | 2026-08-31 02:38:35 | 53.21262 | 6.75026 | 33° | 57km/h | 6115m | -2.6m/s | -21.0°C | 60.0% | 469.1hPa | 2.5V | 00:00:00 | 00:00:00 | 00:00:00 | |
| DL1XH-15 | 2026-08-31 02:38:33 | 53.21177 | 6.74914 | 42° | 62km/h | 6132m | -2.7m/s | -21.2°C | 64.3% | 467.9hPa | 2.5V | 07:16:20 | 03:13:02 | 00:00:00 | |
| DL1XH-west | 2026-08-31 02:38:31 | 53.21213 | 6.74966 | 40° | 62km/h | 6125m | -2.3m/s | -21.1°C | 62.8% | 468.4hPa | 2.6V | 07:16:25 | 03:13:05 | 00:00:00 | |
| BIOWL1-15 | 2026-08-31 02:38:28 | 53.21155 | 6.74880 | 41° | 58km/h | 6137m | -2.2m/s | -21.2°C | 63.4% | 467.6hPa | 2.6V | 07:16:25 | 03:13:00 | 00:00:00 | |
| DF5WG-10 | 2026-08-31 02:38:28 | 53.21177 | 6.74914 | 43° | 58km/h | 6133m | -2.7m/s | -21.1°C | 64.3% | 467.9hPa | 2.5V | 00:00:00 | 03:13:02 | 00:00:00 | |
| DM0DOS-11 | 2026-08-31 02:38:26 | 53.21096 | 6.74806 | 33° | 58km/h | 6149m | -2.7m/s | -21.3°C | 64.9% | 466.8hPa | 2.6V | 07:16:27 | 03:12:55 | 00:00:00 | |
| GOEST3-10 | 2026-08-31 02:38:26 | 53.21155 | 6.74880 | 42° | 58km/h | 6137m | -2.1m/s | -21.2°C | 64.9% | 467.6hPa | 2.6V | 00:00:00 | 00:00:00 | 00:00:00 | |
| DL1XH-15 | 2026-08-31 02:38:23 | 53.21058 | 6.74764 | 33° | 62km/h | 6156m | -2.3m/s | -21.4°C | 65.3% | 466.4hPa | 2.5V | 07:16:30 | 03:12:52 | 00:00:00 | |
| DL1XH-west | 2026-08-31 02:38:21 | 53.21096 | 6.74806 | 33° | 58km/h | 6149m | -2.7m/s | -21.3°C | 64.2% | 466.9hPa | 2.6V | 07:17:16 | 03:12:55 | 00:00:00 | |
| BIOWL1-15 | 2026-08-31 02:38:17 | 53.21018 | 6.74717 | 38° | 66km/h | 6163m | -2.4m/s | -21.5°C | 64.9% | 466.1hPa | 2.6V | 07:17:16 | 03:12:49 | 00:00:00 | |
| DM0DOS-11 | 2026-08-31 02:38:16 | 53.20971 | 6.74643 | 47° | 62km/h | 6172m | -2.6m/s | -21.5°C | 65.4% | 465.4hPa | 2.5V | 07:16:37 | 03:12:45 | 00:00:00 | |
| GOEST3-10 | 2026-08-31 02:38:16 | 53.21031 | 6.74734 | 37° | 64km/h | 6161m | -2.4m/s | -21.4°C | 65.2% | 466.1hPa | 2.6V | 07:16:00 | 00:00:00 | 00:00:00 | |
| DL1XH-15 | 2026-08-31 02:38:13 | 53.20939 | 6.74587 | 44° | 60km/h | 6179m | -2.1m/s | -21.6°C | 65.5% | 464.9hPa | 2.6V | 07:16:40 | 03:12:42 | 00:00:00 | |
| DL1XH-west | 2026-08-31 02:38:10 | 53.20960 | 6.74624 | 47° | 60km/h | 6174m | -2.4m/s | -21.6°C | 64% | 465.3hPa | 2.5V | 07:17:16 | 03:12:44 | 00:00:00 | |
| HTAHTA | 2026-08-31 02:38:09 | 53.20950 | 6.74606 | 46° | 58km/h | 6176m | -2.3m/s | -21.6°C | 61.9% | 465.2hPa | 2.6V | 00:00:00 | 00:00:00 | 00:00:00 | |
| DF5WG-10 | 2026-08-31 02:38:08 | 53.20939 | 6.74587 | 45° | 66km/h | 6179m | -2.1m/s | -21.5°C | 65.5% | 464.9hPa | 2.6V | 00:00:00 | 03:12:42 | 00:00:00 | |
| DM0DOS-11 | 2026-08-31 02:38:06 | 53.20850 | 6.74472 | 36° | 68km/h | 6193m | -2.3m/s | -21.7°C | 65.8% | 464.1hPa | 2.6V | 07:16:47 | 03:12:35 | 00:00:00 | |
| BIOWL1-15 | 2026-08-31 02:38:04 | 53.20891 | 6.74522 | 36° | 64km/h | 6186m | -2m/s | -21.7°C | 63.8% | 464.5hPa | 2.5V | 07:17:16 | 03:12:38 | 00:00:00 | |
| DL1XH-15 | 2026-08-31 02:38:03 | 53.20808 | 6.74419 | 38° | 69km/h | 6199m | -2.2m/s | -21.8°C | 65.2% | 463.6hPa | 2.5V | 07:16:50 | 03:12:32 | 00:00:00 | |
| DL1XH-west | 2026-08-31 02:37:59 | 53.20822 | 6.74437 | 38° | 69km/h | 6197m | -2.1m/s | -21.8°C | 64.8% | 463.8hPa | 2.5V | 07:17:16 | 03:12:33 | 00:00:00 | |
| DO9LL-15 | 2026-08-31 02:37:59 | 53.20822 | 6.74437 | 38° | 68km/h | 6197m | -2.0m/s | -21.7°C | 65.6% | 463.7hPa | 2.5V | 00:00:00 | 03:12:33 | 00:00:00 | |
| DF5WG-10 | 2026-08-31 02:37:58 | 53.20808 | 6.74419 | 39° | 69km/h | 6200m | -2.2m/s | -21.7°C | 65.2% | 463.6hPa | 2.5V | 00:00:00 | 03:12:32 | 00:00:00 | |
| DM0DOS-11 | 2026-08-31 02:37:56 | 53.20719 | 6.74281 | 44° | 68km/h | 6214m | -1.9m/s | -21.9°C | 63.3% | 462.8hPa | 2.6V | 07:16:57 | 03:12:25 | 00:00:00 | |
| BIOWL1-15 | 2026-08-31 02:37:53 | 53.20743 | 6.74321 | 45° | 68km/h | 6210m | -2m/s | -21.8°C | 63.5% | 463hPa | 2.5V | 07:17:16 | 03:12:27 | 00:00:00 | |
| DL1XH-west | 2026-08-31 02:37:49 | 53.20694 | 6.74241 | 44° | 68km/h | 6217m | -1.3m/s | -21.8°C | 57.5% | 462.6hPa | 2.6V | 07:17:16 | 03:12:23 | 00:00:00 | |
| DF5WG-10 | 2026-08-31 02:37:48 | 53.20682 | 6.74222 | 44° | 68km/h | 6219m | -2.0m/s | -21.8°C | 58.0% | 462.4hPa | 2.5V | 07:17:00 | 03:12:22 | 00:00:00 | |
| DM0DOS-11 | 2026-08-31 02:37:46 | 53.20593 | 6.74086 | 42° | 69km/h | 6233m | -1.9m/s | -22°C | 58.2% | 461.6hPa | 2.5V | 07:17:07 | 03:12:15 | 00:00:00 | |
| BIOWL1-15 | 2026-08-31 02:37:45 | 53.20619 | 6.74125 | 42° | 69km/h | 6230m | -2m/s | -21.9°C | 56.5% | 461.8hPa | 2.6V | 07:17:16 | 03:12:17 | 00:00:00 | |
| DL1XH-15 | 2026-08-31 02:37:43 | 53.20555 | 6.74025 | 45° | 68km/h | 6240m | -2.4m/s | -22°C | 56.5% | 461.1hPa | 2.6V | 07:17:10 | 03:12:12 | 00:00:00 | |
| DL1XH-west | 2026-08-31 02:37:38 | 53.20555 | 6.74025 | 45° | 68km/h | 6240m | -2.4m/s | -22°C | 56.7% | 461.2hPa | 2.6V | 07:17:16 | 03:12:12 | 00:00:00 | |
| DF5WG-10 | 2026-08-31 02:37:38 | 53.20555 | 6.74025 | 46° | 64km/h | 6240m | -2.4m/s | -21.9°C | 56.5% | 461.1hPa | 2.5V | 00:00:00 | 03:12:12 | 00:00:00 | |
| DM0DOS-11 | 2026-08-31 02:37:36 | 53.20474 | 6.73899 | 36° | 60km/h | 6257m | -2.3m/s | -22°C | 53.4% | 460.1hPa | 2.5V | 07:17:17 | 03:12:05 | 00:00:00 | |
| BIOWL1-15 | 2026-08-31 02:37:34 | 53.20486 | 6.73914 | 39° | 60km/h | 6255m | -2.4m/s | -22°C | 53.9% | 460.2hPa | 2.6V | 07:17:16 | 03:12:06 | 00:00:00 | |
| DL1XH-15 | 2026-08-31 02:37:33 | 53.20436 | 6.73852 | 36° | 64km/h | 6264m | -2.3m/s | -22.1°C | 53.2% | 459.7hPa | 2.6V | 07:17:20 | 03:12:02 | 00:00:00 | |
| DL1XH-west | 2026-08-31 02:37:27 | 53.20423 | 6.73836 | 38° | 66km/h | 6266m | -2.1m/s | -22.1°C | 53.3% | 459.5hPa | 2.6V | 07:18:07 | 03:12:01 | 00:00:00 | |
| DM0DOS-11 | 2026-08-31 02:37:26 | 53.20345 | 6.73714 | 47° | 71km/h | 6279m | -2.3m/s | -22.1°C | 52.1% | 458.7hPa | 2.5V | 07:17:27 | 03:11:55 | 00:00:00 | |
| GOEST3-10 | 2026-08-31 02:37:26 | 53.20409 | 6.73818 | 40° | 71km/h | 6268m | -1.8m/s | -22.0°C | 52.9% | 459.4hPa | 2.6V | 00:00:00 | 00:00:00 | 00:00:00 | |
| DL1XH-15 | 2026-08-31 02:37:23 | 53.20309 | 6.73649 | 46° | 68km/h | 6286m | -1.6m/s | -22.2°C | 52.1% | 458.3hPa | 2.6V | 07:17:30 | 03:11:52 | 00:00:00 | |
| BIOWL1-15 | 2026-08-31 02:37:23 | 53.20345 | 6.73714 | 47° | 71km/h | 6279m | -2.3m/s | -22.2°C | 51.7% | 458.7hPa | 2.5V | 07:18:07 | 03:11:55 | 00:00:00 | |
| DL1XH-west | 2026-08-31 02:37:17 | 53.20298 | 6.73628 | 46° | 66km/h | 6288m | -1.8m/s | -22.2°C | 52.4% | 458.2hPa | 2.6V | 07:18:07 | 03:11:51 | 00:00:00 | |
| DM0DOS-11 | 2026-08-31 02:37:16 | 53.20226 | 6.73524 | 36° | 66km/h | 6302m | -2m/s | -22.4°C | 52.2% | 457.3hPa | 2.6V | 07:17:37 | 03:11:45 | 00:00:00 | |
| GOEST3-10 | 2026-08-31 02:37:16 | 53.20286 | 6.73609 | 45° | 62km/h | 6290m | -2.0m/s | -22.2°C | 52.0% | 458.1hPa | 2.5V | 00:00:00 | 00:00:00 | 00:00:00 | |
| DL1XH-15 | 2026-08-31 02:37:13 | 53.20184 | 6.73471 | 38° | 71km/h | 6309m | -2.5m/s | -22.4°C | 52.4% | 456.9hPa | 2.5V | 07:17:40 | 03:11:42 | 00:00:00 | |
| BIOWL1-15 | 2026-08-31 02:37:12 | 53.20212 | 6.73507 | 37° | 69km/h | 6304m | -2.2m/s | -22.4°C | 52.9% | 457.2hPa | 2.5V | 07:18:07 | 03:11:44 | 00:00:00 | |
| DL1XH-west | 2026-08-31 02:37:07 | 53.20170 | 6.73452 | 40° | 73km/h | 6311m | -2.2m/s | -22.4°C | 52.8% | 456.7hPa | 2.6V | 07:18:07 | 03:11:41 | 00:00:00 | |
| DM0DOS-11 | 2026-08-31 02:37:06 | 53.20089 | 6.73329 | 41° | 68km/h | 6326m | -2.1m/s | -22.6°C | 54.7% | 455.8hPa | 2.6V | 07:17:47 | 03:11:35 | 00:00:00 | |
| BIOWL1-15 | 2026-08-31 02:37:04 | 53.20063 | 6.73293 | 38° | 64km/h | 6330m | -2.1m/s | -22.6°C | 56.8% | 455.6hPa | 2.5V | 07:18:07 | 03:11:33 | 00:00:00 | |
| BIOWL9-15 | 2026-08-31 02:37:02 | 53.20101 | 6.73348 | 43° | 69km/h | 6323m | -2.6m/s | -22.5°C | 50.5% | 456.0hPa | 2.6V | 00:00:00 | 00:00:00 | 00:00:00 | |
| DL1XH-15 | 2026-08-31 02:37:01 | 53.20024 | 6.73244 | 36° | 66km/h | 6337m | -2.1m/s | -22.6°C | 59.6% | 455.1hPa | 2.6V | 07:17:52 | 03:11:30 | 00:00:00 | |
| GOEST3-10 | 2026-08-31 02:37:01 | 53.20088 | 6.73329 | 42° | 66km/h | 6326m | -2.1m/s | -22.5°C | 54.7% | 455.7hPa | 2.6V | 00:00:00 | 03:11:35 | 00:00:00 | |
| DO9LL-15 | 2026-08-31 02:36:59 | 53.20063 | 6.73293 | 39° | 71km/h | 6330m | -2.1m/s | -22.5°C | 56.4% | 455.5hPa | 2.6V | 07:17:00 | 03:11:33 | 00:00:00 | |
| DF5WG-10 | 2026-08-31 02:36:58 | 53.20050 | 6.73277 | 37° | 69km/h | 6332m | -2.4m/s | -22.5°C | 57.7% | 455.4hPa | 2.6V | 00:00:00 | 03:11:32 | 00:00:00 | |
| DM0DOS-11 | 2026-08-31 02:36:56 | 53.19954 | 6.73150 | 42° | 75km/h | 6346m | -2.2m/s | -22.7°C | 61.1% | 454.5hPa | 2.6V | 07:17:57 | 03:11:25 | 00:00:00 | |
| DL1XH-west | 2026-08-31 02:36:56 | 53.20024 | 6.73244 | 36° | 66km/h | 6337m | -2.1m/s | -22.6°C | 59.2% | 455.1hPa | 2.6V | 07:18:07 | 03:11:30 | 00:00:00 | |
| DL1XH-15 | 2026-08-31 02:36:51 | 53.19887 | 6.73042 | 43° | 73km/h | 6358m | -2.2m/s | -22.8°C | 62.1% | 453.8hPa | 2.6V | 07:18:02 | 03:11:20 | 00:00:00 | |
| BIOWL1-15 | 2026-08-31 02:36:48 | 53.19913 | 6.73085 | 45° | 75km/h | 6354m | -2.3m/s | -22.7°C | 60.9% | 454hPa | 2.5V | 07:18:07 | 03:11:22 | 00:00:00 | |
| DF5WG-10 | 2026-08-31 02:36:48 | 53.19913 | 6.73085 | 45° | 71km/h | 6354m | -2.3m/s | -22.7°C | 61.8% | 454.0hPa | 2.5V | 00:00:00 | 03:11:22 | 00:00:00 | |
| DM0DOS-11 | 2026-08-31 02:36:46 | 53.19820 | 6.72947 | 37° | 69km/h | 6368m | -2.4m/s | -22.9°C | 61.2% | 453.2hPa | 2.5V | 07:18:07 | 03:11:15 | 00:00:00 | |
| DL1XH-west | 2026-08-31 02:36:46 | 53.19887 | 6.73042 | 44° | 73km/h | 6358m | -2.2m/s | -22.8°C | 61% | 453.8hPa | 2.6V | 07:18:07 | 03:11:20 | 00:00:00 | |
| GOEST3-10 | 2026-08-31 02:36:46 | 53.19887 | 6.73042 | 44° | 69km/h | 6358m | -2.2m/s | -22.7°C | 62.1% | 453.8hPa | 2.5V | 00:00:00 | 00:00:00 | 00:00:00 | |
| DL1LOL-11 | 2026-08-31 02:36:45 | 53.19887 | 6.73042 | 45° | 73km/h | 6358m | -2.2m/s | -22.8°C | 58.6% | 453.8hPa | 2.5V | 00:00:00 | 00:00:00 | 00:00:00 | |
| DL1XH-15 | 2026-08-31 02:36:41 | 53.19746 | 6.72854 | 36° | 75km/h | 6380m | -2.4m/s | -22.9°C | 61% | 452.5hPa | 2.5V | 07:18:12 | 03:11:10 | 00:00:00 | |
| BIOWL1-15 | 2026-08-31 02:36:39 | 53.19761 | 6.72873 | 37° | 75km/h | 6378m | -2.2m/s | -22.9°C | 61.1% | 452.6hPa | 2.5V | 07:18:58 | 03:11:11 | 00:00:00 | |
| DL1XH-west | 2026-08-31 02:36:36 | 53.19746 | 6.72854 | 37° | 75km/h | 6380m | -2.4m/s | -22.9°C | 60.8% | 452.5hPa | 2.5V | 07:18:58 | 03:11:10 | 00:00:00 | |
| GOEST3-10 | 2026-08-31 02:36:31 | 53.19673 | 6.72758 | 40° | 69km/h | 6391m | -2.2m/s | -23.0°C | 62.0% | 451.7hPa | 2.6V | 00:00:00 | 03:11:05 | 00:00:00 | |
| DL1XH-15 | 2026-08-31 02:36:30 | 53.19595 | 6.72641 | 42° | 66km/h | 6404m | -2.2m/s | -23.2°C | 62.7% | 450.9hPa | 2.6V | 07:18:23 | 03:10:59 | 00:00:00 | |
| DO9LL-15 | 2026-08-31 02:36:29 | 53.19646 | 6.72719 | 42° | 73km/h | 6395m | -2.0m/s | -23.0°C | 62.0% | 451.5hPa | 2.6V | 00:00:00 | 03:11:03 | 00:00:00 | |
| DF5WG-10 | 2026-08-31 02:36:28 | 53.19633 | 6.72699 | 43° | 66km/h | 6397m | -2.3m/s | -23.1°C | 62.2% | 451.3hPa | 2.6V | 07:18:00 | 03:11:02 | 00:00:00 | |
| DM0DOS-11 | 2026-08-31 02:36:26 | 53.19545 | 6.72569 | 38° | 66km/h | 6413m | -2.3m/s | -23.2°C | 62.5% | 450.5hPa | 2.6V | 07:18:27 | 03:10:55 | 00:00:00 | |
| BIOWL1-15 | 2026-08-31 02:36:26 | 53.19608 | 6.72660 | 43° | 68km/h | 6402m | -2.3m/s | -23.2°C | 61.6% | 451.1hPa | 2.5V | 07:18:58 | 03:11:00 | 00:00:00 | |
| GOEST3-10 | 2026-08-31 02:36:21 | 53.19545 | 6.72569 | 39° | 69km/h | 6413m | -2.2m/s | -23.2°C | 62.5% | 450.4hPa | 2.6V | 00:00:00 | 03:10:55 | 00:00:00 | |
| DL1XH-15 | 2026-08-31 02:36:20 | 53.19461 | 6.72458 | 40° | 77km/h | 6425m | -2.3m/s | -23.3°C | 61.8% | 449.7hPa | 2.6V | 07:18:33 | 03:10:49 | 00:00:00 | |
| DF5WG-10 | 2026-08-31 02:36:18 | 53.19505 | 6.72517 | 38° | 77km/h | 6420m | -1.9m/s | -23.2°C | 61.8% | 449.9hPa | 2.5V | 00:00:00 | 03:10:52 | 00:00:00 | |
| DM0DOS-11 | 2026-08-31 02:36:16 | 53.19403 | 6.72370 | 43° | 78km/h | 6434m | -2.1m/s | -23.4°C | 62% | 449.1hPa | 2.5V | 07:18:37 | 03:10:45 | 00:00:00 | |
| BIOWL1-15 | 2026-08-31 02:36:15 | 53.19447 | 6.72436 | 42° | 77km/h | 6428m | -2.2m/s | -23.3°C | 62.3% | 449.5hPa | 2.6V | 07:18:58 | 03:10:48 | 00:00:00 | |
| DL1XH-west | 2026-08-31 02:36:15 | 53.19461 | 6.72458 | 41° | 77km/h | 6425m | -2.3m/s | -23.3°C | 61.9% | 449.7hPa | 2.6V | 07:18:58 | 03:10:49 | 00:00:00 | |
| DL4BBY-15 | 2026-08-31 02:36:11 | 53.19403 | 6.72369 | 44° | 75km/h | 6434m | -2.1m/s | -23.7°C | 0% | 0hPa | 2.5V | 00:00:00 | 00:00:00 | 00:00:00 | |
| DL1XH-15 | 2026-08-31 02:36:10 | 53.19315 | 6.72233 | 40° | 78km/h | 6446m | -1.7m/s | -23.5°C | 64.3% | 448.4hPa | 2.5V | 07:18:43 | 03:10:39 | 00:00:00 | |
| DF5WG-10 | 2026-08-31 02:36:08 | 53.19360 | 6.72300 | 43° | 77km/h | 6440m | -2.1m/s | -23.4°C | 62.3% | 448.7hPa | 2.6V | 00:00:00 | 03:10:42 | 00:00:00 | |
| DM0DOS-11 | 2026-08-31 02:36:06 | 53.19256 | 6.72152 | 39° | 73km/h | 6452m | -2.2m/s | -23.6°C | 64.7% | 448hPa | 2.6V | 07:18:47 | 03:10:35 | 00:00:00 | |
| DL1XH-west | 2026-08-31 02:36:04 | 53.19300 | 6.72212 | 40° | 77km/h | 6447m | -1.6m/s | -23.6°C | 62.9% | 448.4hPa | 2.5V | 07:18:58 | 03:10:38 | 00:00:00 | |
| GOEST3-10 | 2026-08-31 02:36:01 | 53.19256 | 6.72151 | 40° | 69km/h | 6453m | -2.2m/s | -23.6°C | 64.7% | 448.0hPa | 2.6V | 00:00:00 | 03:10:35 | 00:00:00 | |
| DL1XH-15 | 2026-08-31 02:36:00 | 53.19176 | 6.72037 | 41° | 71km/h | 6466m | -2m/s | -23.7°C | 64% | 447.2hPa | 2.6V | 07:18:53 | 03:10:29 | 00:00:00 | |
| DO9LL-15 | 2026-08-31 02:35:59 | 53.19229 | 6.72113 | 41° | 75km/h | 6457m | -2.2m/s | -23.6°C | 64.5% | 447.7hPa | 2.5V | 00:00:00 | 03:10:33 | 00:00:00 | |
| DF5WG-10 | 2026-08-31 02:35:58 | 53.19216 | 6.72094 | 41° | 71km/h | 6459m | -2.5m/s | -23.6°C | 63.9% | 447.5hPa | 2.5V | 00:00:00 | 03:10:32 | 00:00:00 | |
| DM0DOS-11 | 2026-08-31 02:35:56 | 53.19120 | 6.71959 | 37° | 73km/h | 6475m | -2.1m/s | -23.7°C | 60% | 446.7hPa | 2.6V | 07:18:57 | 03:10:25 | 00:00:00 | |
| DL1XH-west | 2026-08-31 02:35:53 | 53.19149 | 6.71997 | 40° | 71km/h | 6470m | -2.2m/s | -23.7°C | 61.3% | 446.9hPa | 2.5V | 07:18:58 | 03:10:27 | 00:00:00 | |
| GOEST3-10 | 2026-08-31 02:35:51 | 53.19121 | 6.71959 | 38° | 75km/h | 6475m | -2.1m/s | -23.7°C | 60.0% | 446.6hPa | 2.6V | 00:00:00 | 03:10:25 | 00:00:00 | |
| DL1XH-15 | 2026-08-31 02:35:50 | 53.19028 | 6.71847 | 36° | 75km/h | 6487m | -1.9m/s | -23.8°C | 55.9% | 445.9hPa | 2.6V | 07:19:03 | 03:10:19 | 00:00:00 | |
| DF5WG-10 | 2026-08-31 02:35:48 | 53.19075 | 6.71904 | 36° | 75km/h | 6481m | -2.1m/s | -23.7°C | 57.0% | 446.2hPa | 2.5V | 00:00:00 | 03:10:22 | 00:00:00 | |
| DM0DOS-11 | 2026-08-31 02:35:46 | 53.18970 | 6.71769 | 41° | 73km/h | 6494m | -1.8m/s | -23.9°C | 56.6% | 445.4hPa | 2.5V | 07:19:07 | 03:10:15 | 00:00:00 | |
| DL1XH-west | 2026-08-31 02:35:43 | 53.18999 | 6.71809 | 39° | 73km/h | 6490m | -1.7m/s | -23.8°C | 56.3% | 445.7hPa | 2.6V | 07:19:49 | 03:10:17 | 00:00:00 | |
| DL4BBY-15 | 2026-08-31 02:35:41 | 53.18971 | 6.71769 | 42° | 75km/h | 6494m | -1.8m/s | -24.2°C | 0% | 0hPa | 2.5V | 00:00:00 | 00:00:00 | 00:00:00 | |
| DL1XH-15 | 2026-08-31 02:35:40 | 53.18884 | 6.71644 | 39° | 78km/h | 6506m | -2.3m/s | -24°C | 59.2% | 444.7hPa | 2.5V | 07:19:13 | 03:10:09 | 00:00:00 | |
| DF5WG-10 | 2026-08-31 02:35:38 | 53.18929 | 6.71707 | 41° | 78km/h | 6500m | -1.9m/s | -23.9°C | 57.7% | 445.1hPa | 2.6V | 00:00:00 | 03:10:12 | 00:00:00 | |
| DM0DOS-11 | 2026-08-31 02:35:36 | 53.18822 | 6.71558 | 39° | 78km/h | 6514m | -2.1m/s | -24.1°C | 57.2% | 444.2hPa | 2.6V | 07:19:17 | 03:10:05 | 00:00:00 | |
| DL1XH-west | 2026-08-31 02:35:32 | 53.18837 | 6.71580 | 40° | 80km/h | 6513m | -2m/s | -24.1°C | 56.9% | 444.3hPa | 2.6V | 07:19:49 | 03:10:06 | 00:00:00 | |
| GOEST3-10 | 2026-08-31 02:35:31 | 53.18822 | 6.71558 | 40° | 75km/h | 6515m | -2.1m/s | -24.0°C | 57.2% | 444.2hPa | 2.6V | 00:00:00 | 03:10:05 | 00:00:00 | |
| DL1XH-15 | 2026-08-31 02:35:30 | 53.18734 | 6.71438 | 39° | 75km/h | 6525m | -2.1m/s | -24.2°C | 56.7% | 443.6hPa | 2.6V | 07:19:23 | 03:09:59 | 00:00:00 | |
| DO9LL-15 | 2026-08-31 02:35:29 | 53.18792 | 6.71517 | 40° | 75km/h | 6518m | -1.6m/s | -24.1°C | 58.1% | 443.8hPa | 2.6V | 00:00:00 | 03:10:03 | 00:00:00 | |
| DF5WG-10 | 2026-08-31 02:35:27 | 53.18763 | 6.71477 | 40° | 77km/h | 6522m | -1.6m/s | -24.1°C | 57.1% | 443.7hPa | 2.6V | 00:00:00 | 03:10:01 | 00:00:00 | |
| DM0DOS-11 | 2026-08-31 02:35:26 | 53.18674 | 6.71356 | 40° | 78km/h | 6533m | -2m/s | -24.2°C | 55.9% | 443.1hPa | 2.6V | 07:19:27 | 03:09:55 | 00:00:00 | |
| DL1XH-west | 2026-08-31 02:35:22 | 53.18690 | 6.71377 | 40° | 78km/h | 6531m | -2m/s | -24.2°C | 57.4% | 443.2hPa | 2.5V | 07:19:49 | 03:09:56 | 00:00:00 | |
| GOEST3-10 | 2026-08-31 02:35:21 | 53.18675 | 6.71356 | 41° | 78km/h | 6533m | -2.0m/s | -24.2°C | 55.9% | 443.0hPa | 2.6V | 00:00:00 | 03:09:55 | 00:00:00 | |
| DL1XH-15 | 2026-08-31 02:35:20 | 53.18589 | 6.71224 | 44° | 71km/h | 6545m | -2.1m/s | -24.3°C | 50.9% | 442.4hPa | 2.6V | 07:19:33 | 03:09:49 | 00:00:00 | |
| DJ2DS-15 | 2026-08-31 02:35:18 | 53.18616 | 6.71268 | 44° | 75km/h | 6541m | -2.2m/s | -24.3°C | 49.1% | 442.5hPa | 2.5V | 00:00:00 | 00:00:00 | 00:00:00 | |
| DF5WG-10 | 2026-08-31 02:35:17 | 53.18616 | 6.71268 | 45° | 71km/h | 6541m | -2.1m/s | -24.2°C | 52.2% | 442.5hPa | 2.5V | 00:00:00 | 03:09:51 | 00:00:00 | |
| DM0DOS-11 | 2026-08-31 02:35:16 | 53.18538 | 6.71144 | 41° | 68km/h | 6553m | -1.9m/s | -24.3°C | 52.1% | 441.8hPa | 2.5V | 07:19:37 | 03:09:45 | 00:00:00 | |
| DL1XH-west | 2026-08-31 02:35:11 | 53.18538 | 6.71144 | 41° | 68km/h | 6553m | -1.9m/s | -24.3°C | 51.9% | 441.8hPa | 2.5V | 07:19:49 | 03:09:45 | 00:00:00 | |
| DL4BBY-15 | 2026-08-31 02:35:11 | 53.18538 | 6.71144 | 42° | 77km/h | 6553m | -1.8m/s | -24.6°C | 0% | 0hPa | 2.5V | 00:00:00 | 00:00:00 | 00:00:00 | |
| DL1XH-15 | 2026-08-31 02:35:10 | 53.18451 | 6.71032 | 37° | 80km/h | 6566m | -2.1m/s | -24.5°C | 52.3% | 441.1hPa | 2.5V | 07:19:43 | 03:09:39 | 00:00:00 | |
| DF5WG-10 | 2026-08-31 02:35:07 | 53.18482 | 6.71071 | 37° | 78km/h | 6562m | -2.5m/s | -24.4°C | 52.0% | 441.3hPa | 2.6V | 07:19:00 | 03:09:41 | 00:00:00 | |
| DM0DOS-11 | 2026-08-31 02:35:06 | 53.18387 | 6.70943 | 43° | 80km/h | 6576m | -2.5m/s | -24.6°C | 52.6% | 440.4hPa | 2.6V | 07:19:47 | 03:09:35 | 00:00:00 | |
| BIOWL1-15 | 2026-08-31 02:35:02 | 53.18373 | 6.70920 | 44° | 78km/h | 6579m | -2.7m/s | -24.6°C | 54.9% | 440.2hPa | 2.5V | 07:19:49 | 03:09:34 | 00:00:00 | |
| DL1XH-west | 2026-08-31 02:35:01 | 53.18387 | 6.70943 | 43° | 80km/h | 6576m | -2.5m/s | -24.6°C | 54.6% | 440.4hPa | 2.6V | 07:19:49 | 03:09:35 | 00:00:00 | |
| BIOWL9-15 | 2026-08-31 02:34:58 | 53.18345 | 6.70874 | 46° | 73km/h | 6584m | -2.5m/s | -24.7°C | 51.9% | 440.0hPa | 2.6V | 00:00:00 | 00:00:00 | 00:00:00 | |
| DF5WG-10 | 2026-08-31 02:34:57 | 53.18332 | 6.70851 | 47° | 75km/h | 6586m | -2.1m/s | -24.7°C | 56.3% | 439.8hPa | 2.6V | 00:00:00 | 03:09:31 | 00:00:00 | |
| DM0DOS-11 | 2026-08-31 02:34:56 | 53.18252 | 6.70729 | 37° | 75km/h | 6600m | -2.3m/s | -24.8°C | 56.3% | 439.1hPa | 2.6V | 07:19:57 | 03:09:25 | 00:00:00 | |
| DL1XH-west | 2026-08-31 02:34:50 | 53.18237 | 6.70710 | 38° | 77km/h | 6602m | -2.3m/s | -24.9°C | 55.8% | 438.9hPa | 2.6V | 07:20:40 | 03:09:24 | 00:00:00 | |
| DF5WG-10 | 2026-08-31 02:34:47 | 53.18190 | 6.70648 | 39° | 77km/h | 6609m | -2.4m/s | -24.9°C | 57.3% | 438.5hPa | 2.5V | 00:00:00 | 03:09:21 | 00:00:00 | |
| DM0DOS-11 | 2026-08-31 02:34:46 | 53.18098 | 6.70516 | 44° | 77km/h | 6623m | -2.3m/s | -25°C | 60.7% | 437.7hPa | 2.5V | 07:20:07 | 03:09:15 | 00:00:00 | |
| BIOWL1-15 | 2026-08-31 02:34:41 | 53.18071 | 6.70472 | 45° | 71km/h | 6628m | -2.4m/s | -25.1°C | 58.5% | 437.5hPa | 2.6V | 07:20:40 | 03:09:13 | 00:00:00 | |
| DL1XH-west | 2026-08-31 02:34:40 | 53.18084 | 6.70494 | 45° | 73km/h | 6625m | -2.1m/s | -25°C | 59.7% | 437.6hPa | 2.5V | 07:20:40 | 03:09:14 | 00:00:00 | |
| DF5WG-10 | 2026-08-31 02:34:37 | 53.18046 | 6.70430 | 45° | 66km/h | 6633m | -2.9m/s | -25.1°C | 56.8% | 437.0hPa | 2.6V | 00:00:00 | 03:09:11 | 00:00:00 | |
| DM0DOS-11 | 2026-08-31 02:34:36 | 53.17973 | 6.70316 | 41° | 66km/h | 6651m | -3.2m/s | -25.2°C | 67.3% | 436hPa | 2.6V | 07:20:17 | 03:09:05 | 00:00:00 | |
| DL1XH-west | 2026-08-31 02:34:30 | 53.17960 | 6.70298 | 40° | 66km/h | 6654m | -3m/s | -25.2°C | 67.6% | 435.8hPa | 2.5V | 07:20:40 | 03:09:04 | 00:00:00 | |
| BIOWL1-15 | 2026-08-31 02:34:28 | 53.17933 | 6.70263 | 37° | 68km/h | 6660m | -2.9m/s | -25.3°C | 67.7% | 435.4hPa | 2.5V | 07:20:40 | 03:09:02 | 00:00:00 | |
| DF5WG-10 | 2026-08-31 02:34:27 | 53.17919 | 6.70247 | 35° | 75km/h | 6663m | -2.8m/s | -25.3°C | 67.8% | 435.2hPa | 2.6V | 00:00:00 | 03:09:01 | 00:00:00 | |
| DM0DOS-11 | 2026-08-31 02:34:26 | 53.17828 | 6.70132 | 42° | 78km/h | 6681m | -3m/s | -25.5°C | 66.2% | 434.2hPa | 2.6V | 07:20:27 | 03:08:55 | 00:00:00 | |
| DL1XH-west | 2026-08-31 02:34:19 | 53.17800 | 6.70088 | 44° | 77km/h | 6687m | -3.1m/s | -25.6°C | 67.5% | 433.9hPa | 2.6V | 07:20:40 | 03:08:53 | 00:00:00 | |
| BIOWL1-15 | 2026-08-31 02:34:18 | 53.17787 | 6.70066 | 45° | 73km/h | 6690m | -3.2m/s | -25.6°C | 67.2% | 433.6hPa | 2.5V | 07:20:40 | 03:08:52 | 00:00:00 | |
| DF5WG-10 | 2026-08-31 02:34:17 | 53.17773 | 6.70044 | 44° | 69km/h | 6693m | -2.8m/s | -25.6°C | 69.7% | 433.4hPa | 2.6V | 00:00:00 | 03:08:51 | 00:00:00 | |
| DM0DOS-11 | 2026-08-31 02:34:16 | 53.17693 | 6.69935 | 36° | 68km/h | 6711m | -3.4m/s | -25.7°C | 70.9% | 432.4hPa | 2.6V | 07:20:37 | 03:08:45 | 00:00:00 | |
| DL1XH-west | 2026-08-31 02:34:09 | 53.17665 | 6.69900 | 36° | 69km/h | 6717m | -3.3m/s | -25.8°C | 70.8% | 432hPa | 2.5V | 07:20:40 | 03:08:43 | 00:00:00 | |
| DL1XH-15 | 2026-08-31 02:34:08 | 53.17576 | 6.69793 | 37° | 75km/h | 6736m | -3.1m/s | -25.9°C | 71.3% | 430.9hPa | 2.5V | 07:20:45 | 03:08:37 | 00:00:00 | |
| BIOWL1-15 | 2026-08-31 02:34:07 | 53.17636 | 6.69866 | 35° | 71km/h | 6724m | -3.1m/s | -25.8°C | 71.2% | 431.7hPa | 2.6V | 07:21:31 | 03:08:41 | 00:00:00 | |
| DF5WG-10 | 2026-08-31 02:34:07 | 53.17636 | 6.69866 | 36° | 73km/h | 6724m | -3.0m/s | -25.7°C | 70.7% | 431.6hPa | 2.6V | 00:00:00 | 03:08:41 | 00:00:00 | |
| DM0DOS-11 | 2026-08-31 02:34:06 | 53.17547 | 6.69754 | 40° | 73km/h | 6742m | -2.8m/s | -26°C | 72% | 430.5hPa | 2.6V | 07:20:47 | 03:08:35 | 00:00:00 | |
| DL1XH-west | 2026-08-31 02:33:59 | 53.17519 | 6.69713 | 44° | 71km/h | 6749m | -3.2m/s | -26°C | 71.5% | 430.2hPa | 2.5V | 07:21:31 | 03:08:33 | 00:00:00 | |
| BIOWL1-15 | 2026-08-31 02:33:59 | 53.17494 | 6.69671 | 44° | 69km/h | 6755m | -3m/s | -26.1°C | 71.3% | 429.7hPa | 2.5V | 07:21:31 | 03:08:31 | 00:00:00 | |
| DO9LL-15 | 2026-08-31 02:33:59 | 53.17519 | 6.69712 | 44° | 66km/h | 6749m | -3.2m/s | -26.0°C | 71.7% | 430.1hPa | 2.5V | 00:00:00 | 03:08:33 | 00:00:00 | |
| BIOWL7-15 | 2026-08-31 02:33:57 | 53.17506 | 6.69692 | 45° | 71km/h | 6752m | -3.2m/s | -26.1°C | 67.7% | 429.9hPa | 2.5V | 07:21:00 | 00:00:00 | 00:00:00 | |
| DM0DOS-11 | 2026-08-31 02:33:56 | 53.17422 | 6.69560 | 39° | 62km/h | 6773m | -2.8m/s | -26.2°C | 72.8% | 428.7hPa | 2.5V | 07:20:57 | 03:08:25 | 00:00:00 | |
| GOEST3-10 | 2026-08-31 02:33:56 | 53.17482 | 6.69651 | 45° | 64km/h | 6758m | -2.8m/s | -26.1°C | 72.6% | 429.6hPa | 2.6V | 00:00:00 | 00:00:00 | 00:00:00 | |
| DL1XH-15 | 2026-08-31 02:33:51 | 53.17357 | 6.69484 | 32° | 68km/h | 6787m | -3.1m/s | -26.4°C | 75% | 427.9hPa | 2.5V | 07:21:02 | 03:08:20 | 00:00:00 | |
| DL1XH-west | 2026-08-31 02:33:49 | 53.17397 | 6.69528 | 36° | 62km/h | 6778m | -2.8m/s | -26.3°C | 71.2% | 428.3hPa | 2.6V | 07:21:31 | 03:08:23 | 00:00:00 | |
| DF5WG-10 | 2026-08-31 02:33:47 | 53.17371 | 6.69499 | 33° | 71km/h | 6784m | -2.9m/s | -26.3°C | 74.4% | 428.0hPa | 2.5V | 07:21:00 | 03:08:21 | 00:00:00 | |
| DM0DOS-11 | 2026-08-31 02:33:46 | 53.17284 | 6.69393 | 42° | 73km/h | 6803m | -3.4m/s | -26.6°C | 74.7% | 426.9hPa | 2.5V | 07:21:07 | 03:08:15 | 00:00:00 | |
| BIOWL1-15 | 2026-08-31 02:33:46 | 53.17357 | 6.69484 | 32° | 68km/h | 6787m | -3.1m/s | -26.4°C | 72.2% | 427.9hPa | 2.5V | 07:21:31 | 03:08:20 | 00:00:00 | |
| GOEST3-10 | 2026-08-31 02:33:46 | 53.17357 | 6.69484 | 33° | 71km/h | 6787m | -3.1m/s | -26.4°C | 75.0% | 427.8hPa | 2.5V | 00:00:00 | 00:00:00 | 00:00:00 | |
| DL1XH-15 | 2026-08-31 02:33:41 | 53.17221 | 6.69289 | 45° | 64km/h | 6819m | -3.3m/s | -26.7°C | 74.9% | 426hPa | 2.5V | 07:21:12 | 03:08:10 | 00:00:00 | |
| DL1XH-west | 2026-08-31 02:33:38 | 53.17245 | 6.69330 | 46° | 69km/h | 6813m | -3.1m/s | -26.6°C | 74.6% | 426.3hPa | 2.5V | 07:21:31 | 03:08:12 | 00:00:00 | |
| DF5WG-10 | 2026-08-31 02:33:37 | 53.17232 | 6.69309 | 46° | 64km/h | 6816m | -2.9m/s | -26.6°C | 74.8% | 426.1hPa | 2.5V | 00:00:00 | 03:08:11 | 00:00:00 | |
| GOEST3-10 | 2026-08-31 02:33:36 | 53.17221 | 6.69289 | 46° | 62km/h | 6819m | -3.3m/s | -26.6°C | 74.9% | 425.9hPa | 2.5V | 07:21:00 | 00:00:00 | 00:00:00 | |
| BIOWL1-15 | 2026-08-31 02:33:36 | 53.17221 | 6.69289 | 45° | 64km/h | 6819m | -3.3m/s | -26.7°C | 74.5% | 426hPa | 2.5V | 07:21:31 | 03:08:10 | 00:00:00 | |
| DL1LOL-11 | 2026-08-31 02:33:32 | 53.17186 | 6.69236 | 40° | 60km/h | 6829m | -3.1m/s | -26.7°C | 68.0% | 425.4hPa | 2.5V | 00:00:00 | 00:00:00 | 00:00:00 | |
| DL1XH-15 | 2026-08-31 02:33:31 | 53.17090 | 6.69129 | 34° | 73km/h | 6851m | -3.2m/s | -26.9°C | 73.6% | 424.1hPa | 2.5V | 07:21:22 | 03:08:00 | 00:00:00 | |
| DL1XH-west | 2026-08-31 02:33:28 | 53.17120 | 6.69162 | 32° | 69km/h | 6845m | -3.2m/s | -26.9°C | 71.6% | 424.5hPa | 2.6V | 07:21:31 | 03:08:02 | 00:00:00 | |
| DF5WG-10 | 2026-08-31 02:33:27 | 53.17105 | 6.69146 | 34° | 71km/h | 6848m | -2.9m/s | -26.8°C | 73.3% | 424.2hPa | 2.6V | 00:00:00 | 03:08:01 | 00:00:00 | |
| DM0DOS-11 | 2026-08-31 02:33:26 | 53.17019 | 6.69029 | 44° | 69km/h | 6866m | -3m/s | -27.1°C | 75.4% | 423.2hPa | 2.5V | 07:21:27 | 03:07:55 | 00:00:00 | |
| BIOWL1-15 | 2026-08-31 02:33:26 | 53.17090 | 6.69129 | 35° | 73km/h | 6851m | -3.2m/s | -26.9°C | 71.7% | 424.1hPa | 2.5V | 07:21:31 | 03:08:00 | 00:00:00 | |
| BIOWL9-15 | 2026-08-31 02:33:25 | 53.17075 | 6.69111 | 37° | 73km/h | 6854m | -3.1m/s | -26.9°C | 69.5% | 423.9hPa | 2.5V | 00:00:00 | 00:00:00 | 00:00:00 | |
| DB0UT-7 | 2026-08-31 02:33:23 | 53.17046 | 6.69071 | 42° | 68km/h | 6860m | -2.8m/s | -26.9°C | 74.9% | 423.5hPa | 2.5V | 00:00:00 | 03:07:57 | 00:00:00 | |
| DL1XH-15 | 2026-08-31 02:33:21 | 53.16961 | 6.68936 | 38° | 60km/h | 6881m | -2.9m/s | -27.2°C | 76.3% | 422.4hPa | 2.5V | 07:21:32 | 03:07:50 | 00:00:00 | |
| DL1XH-west | 2026-08-31 02:33:18 | 53.16984 | 6.68970 | 44° | 62km/h | 6875m | -2.9m/s | -27.2°C | 75.6% | 422.7hPa | 2.6V | 07:21:31 | 03:07:52 | 00:00:00 | |
| BIOWL1-15 | 2026-08-31 02:33:17 | 53.16948 | 6.68920 | 36° | 60km/h | 6883m | -2.8m/s | -27.3°C | 75.2% | 422.2hPa | 2.5V | 07:22:22 | 03:07:49 | 00:00:00 | |
| DF5WG-10 | 2026-08-31 02:33:17 | 53.16972 | 6.68952 | 42° | 64km/h | 6878m | -3.0m/s | -27.2°C | 76.5% | 422.5hPa | 2.5V | 00:00:00 | 03:07:51 | 00:00:00 | |
| DM0DOS-11 | 2026-08-31 02:33:16 | 53.16895 | 6.68859 | 35° | 68km/h | 6895m | -2.6m/s | -27.3°C | 74.6% | 421.5hPa | 2.5V | 07:21:37 | 03:07:45 | 00:00:00 | |
| GOEST3-10 | 2026-08-31 02:33:16 | 53.16960 | 6.68936 | 39° | 62km/h | 6881m | -2.8m/s | -27.2°C | 76.3% | 422.3hPa | 2.6V | 00:00:00 | 00:00:00 | 00:00:00 | |
| DL1XH-15 | 2026-08-31 02:33:11 | 53.16829 | 6.68766 | 44° | 69km/h | 6909m | -3.1m/s | -27.4°C | 74.7% | 420.7hPa | 2.6V | 07:21:42 | 03:07:40 | 00:00:00 | |
| BIOWL1-15 | 2026-08-31 02:33:08 | 53.16804 | 6.68724 | 46° | 69km/h | 6914m | -2.8m/s | -27.5°C | 73.1% | 420.4hPa | 2.5V | 07:22:22 | 03:07:38 | 00:00:00 | |
| DL1XH-west | 2026-08-31 02:33:08 | 53.16855 | 6.68806 | 41° | 69km/h | 6903m | -2.4m/s | -27.4°C | 73.4% | 421hPa | 2.6V | 07:22:22 | 03:07:42 | 00:00:00 | |
| DF5WG-10 | 2026-08-31 02:33:07 | 53.16841 | 6.68786 | 43° | 71km/h | 6906m | -2.6m/s | -27.4°C | 74.4% | 420.9hPa | 2.6V | 00:00:00 | 03:07:41 | 00:00:00 | |
| DM0DOS-11 | 2026-08-31 02:33:06 | 53.16766 | 6.68661 | 45° | 71km/h | 6923m | -3m/s | -27.6°C | 74.9% | 419.9hPa | 2.6V | 07:21:47 | 03:07:35 | 00:00:00 | |
| GOEST3-10 | 2026-08-31 02:33:06 | 53.16829 | 6.68766 | 45° | 71km/h | 6909m | -3.0m/s | -27.4°C | 74.7% | 420.6hPa | 2.5V | 00:00:00 | 00:00:00 | 00:00:00 | |
| DL1LOL-11 | 2026-08-31 02:33:05 | 53.16829 | 6.68766 | 45° | 69km/h | 6909m | -3.1m/s | -27.4°C | 70.0% | 420.7hPa | 2.5V | 00:00:00 | 00:00:00 | 00:00:00 | |
| DL1XH-15 | 2026-08-31 02:33:01 | 53.16704 | 6.68554 | 46° | 69km/h | 6938m | -2.9m/s | -27.7°C | 76.8% | 419hPa | 2.5V | 07:21:52 | 03:07:30 | 00:00:00 | |
| DL1XH-west | 2026-08-31 02:32:57 | 53.16716 | 6.68575 | 47° | 69km/h | 6935m | -2.8m/s | -27.7°C | 74% | 419.1hPa | 2.6V | 07:22:22 | 03:07:31 | 00:00:00 | |
| BIOWL1-15 | 2026-08-31 02:32:53 | 53.16669 | 6.68492 | 47° | 66km/h | 6948m | -3.4m/s | -27.8°C | 74.7% | 418.4hPa | 2.6V | 07:22:22 | 03:07:27 | 00:00:00 | |
| DB0UT-7 | 2026-08-31 02:32:53 | 53.16669 | 6.68492 | 47° | 62km/h | 6948m | -3.3m/s | -27.8°C | 77.1% | 418.4hPa | 2.6V | 00:00:00 | 00:00:00 | 00:00:00 | |
| DL1XH-15 | 2026-08-31 02:32:51 | 53.16590 | 6.68361 | 44° | 66km/h | 6970m | -3m/s | -28°C | 78.2% | 417.1hPa | 2.6V | 07:22:02 | 03:07:20 | 00:00:00 | |
| DL1XH-west | 2026-08-31 02:32:46 | 53.16590 | 6.68361 | 45° | 66km/h | 6970m | -3m/s | -28°C | 75.4% | 417.1hPa | 2.6V | 07:22:22 | 03:07:20 | 00:00:00 | |
| BIOWL1-15 | 2026-08-31 02:32:44 | 53.16543 | 6.68279 | 47° | 68km/h | 6983m | -3.7m/s | -28°C | 72.3% | 416.5hPa | 2.6V | 07:22:22 | 03:07:16 | 00:00:00 | |
| DL4BBY-15 | 2026-08-31 02:32:41 | 53.16532 | 6.68258 | 48° | 62km/h | 6987m | -3.5m/s | -28.3°C | 0% | 0hPa | 2.6V | 00:00:00 | 00:00:00 | 00:00:00 | |
| DF5WG-10 | 2026-08-31 02:32:37 | 53.16488 | 6.68181 | 46° | 60km/h | 7001m | -3.2m/s | -28.0°C | 71.5% | 415.3hPa | 2.6V | 00:00:00 | 03:07:11 | 00:00:00 | |
| DM0DOS-11 | 2026-08-31 02:32:36 | 53.16423 | 6.68076 | 41° | 58km/h | 7020m | -3.3m/s | -28.2°C | 71.1% | 414.2hPa | 2.6V | 07:22:17 | 03:07:05 | 00:00:00 | |
| BIOWL1-15 | 2026-08-31 02:32:35 | 53.16423 | 6.68076 | 42° | 58km/h | 7020m | -3.3m/s | -28.3°C | 71% | 414.2hPa | 2.6V | 07:22:22 | 03:07:05 | 00:00:00 | |
| DL1XH-west | 2026-08-31 02:32:35 | 53.16466 | 6.68145 | 45° | 60km/h | 7007m | -3.3m/s | -28.1°C | 72.2% | 415hPa | 2.5V | 07:22:22 | 03:07:09 | 00:00:00 | |
| DO2JMG | 2026-08-31 02:32:34 | 53.16456 | 6.68127 | 45° | 60km/h | 7010m | -2.9m/s | 0°C | 0% | 0hPa | 2.5V | 18:12:15 | 03:07:08 | 00:00:00 | |
| GOEST3-10 | 2026-08-31 02:32:31 | 53.16423 | 6.68076 | 42° | 60km/h | 7020m | -3.3m/s | -28.2°C | 71.1% | 414.2hPa | 2.6V | 00:00:00 | 03:07:05 | 00:00:00 | |
| DO9LL-15 | 2026-08-31 02:32:29 | 53.16400 | 6.68043 | 41° | 60km/h | 7026m | -3.1m/s | -28.3°C | 72.2% | 413.8hPa | 2.6V | 00:00:00 | 03:07:03 | 00:00:00 | |
| HTAHTA | 2026-08-31 02:32:28 | 53.16377 | 6.68010 | 41° | 60km/h | 7032m | -2.9m/s | -28.4°C | 68.4% | 413.5hPa | 2.6V | 00:00:00 | 00:00:00 | 00:00:00 | |
| DF5WG-10 | 2026-08-31 02:32:27 | 53.16377 | 6.68010 | 42° | 62km/h | 7032m | -2.8m/s | -28.3°C | 73.1% | 413.5hPa | 2.6V | 07:22:00 | 03:07:01 | 00:00:00 | |
| DM0DOS-11 | 2026-08-31 02:32:26 | 53.16308 | 6.67906 | 41° | 64km/h | 7048m | -3.2m/s | -28.5°C | 70.6% | 412.6hPa | 2.6V | 07:22:27 | 03:06:55 | 00:00:00 | |
| DL1XH-west | 2026-08-31 02:32:25 | 53.16354 | 6.67976 | 42° | 62km/h | 7037m | -2.3m/s | -28.4°C | 70.9% | 413.2hPa | 2.5V | 07:23:13 | 03:06:59 | 00:00:00 | |
| BIOWL1-15 | 2026-08-31 02:32:20 | 53.16296 | 6.67889 | 40° | 64km/h | 7052m | -3.1m/s | -28.5°C | 70% | 412.4hPa | 2.5V | 07:23:13 | 03:06:54 | 00:00:00 | |
| DC6BW-12 | 2026-08-31 02:32:19 | 53.16295 | 6.67889 | 41° | 64km/h | 7052m | -3.1m/s | -28.5°C | 65.8% | 412.4hPa | 2.5V | 07:23:00 | 00:00:00 | 00:00:00 | |
| DM0DOS-11 | 2026-08-31 02:32:16 | 53.16187 | 6.67735 | 45° | 58km/h | 7081m | -3.2m/s | -28.7°C | 69.7% | 410.8hPa | 2.5V | 07:22:37 | 03:06:45 | 00:00:00 | |
| DL1XH-west | 2026-08-31 02:32:14 | 53.16221 | 6.67788 | 41° | 62km/h | 7070m | -3.1m/s | -28.6°C | 69.4% | 411.4hPa | 2.5V | 07:23:13 | 03:06:48 | 00:00:00 | |
| BIOWL1-15 | 2026-08-31 02:32:10 | 53.16177 | 6.67717 | 46° | 57km/h | 7084m | -3m/s | -28.7°C | 69.5% | 410.6hPa | 2.5V | 07:23:13 | 03:06:44 | 00:00:00 | |
| DF5WG-10 | 2026-08-31 02:32:07 | 53.16147 | 6.67667 | 45° | 58km/h | 7093m | -3.2m/s | -28.8°C | 70.2% | 410.0hPa | 2.6V | 00:00:00 | 03:06:41 | 00:00:00 | |
| DM0DOS-11 | 2026-08-31 02:32:06 | 53.16083 | 6.67582 | 34° | 58km/h | 7112m | -3.3m/s | -29°C | 71.3% | 409hPa | 2.6V | 07:22:47 | 03:06:35 | 00:00:00 | |
| DL1XH-west | 2026-08-31 02:32:04 | 53.16117 | 6.67623 | 38° | 53km/h | 7102m | -3.3m/s | -28.9°C | 69.6% | 409.5hPa | 2.5V | 07:23:13 | 03:06:38 | 00:00:00 | |
| BIOWL1-15 | 2026-08-31 02:32:02 | 53.16070 | 6.67567 | 34° | 62km/h | 7115m | -3.3m/s | -29°C | 70.1% | 408.8hPa | 2.5V | 07:23:13 | 03:06:34 | 00:00:00 | |
| DL1XH-15 | 2026-08-31 02:32:01 | 53.16018 | 6.67499 | 42° | 68km/h | 7128m | -2.8m/s | -29.1°C | 71.4% | 408.1hPa | 2.6V | 07:22:52 | 03:06:30 | 00:00:00 | |
| HTAHTA | 2026-08-31 02:31:57 | 53.15995 | 6.67460 | 47° | 62km/h | 7134m | -3.4m/s | -29.2°C | 66.4% | 407.8hPa | 2.6V | 00:00:00 | 00:00:00 | 00:00:00 | |
| DM0DOS-11 | 2026-08-31 02:31:56 | 53.15965 | 6.67404 | 48° | 55km/h | 7144m | -3.3m/s | -29.3°C | 70.6% | 407.1hPa | 2.6V | 07:22:57 | 03:06:25 | 00:00:00 | |
| DL1XH-west | 2026-08-31 02:31:53 | 53.15984 | 6.67441 | 48° | 60km/h | 7137m | -3.2m/s | -29.2°C | 70.1% | 407.5hPa | 2.5V | 07:23:13 | 03:06:27 | 00:00:00 | |
| BIOWL1-15 | 2026-08-31 02:31:52 | 53.15956 | 6.67387 | 47° | 53km/h | 7147m | -3.3m/s | -29.3°C | 69.4% | 407hPa | 2.6V | 07:23:13 | 03:06:24 | 00:00:00 | |
| DL1XH-15 | 2026-08-31 02:31:51 | 53.15915 | 6.67329 | 35° | 55km/h | 7160m | -3.2m/s | -29.4°C | 70.5% | 406.2hPa | 2.6V | 07:23:02 | 03:06:20 | 00:00:00 | |
| GOEST3-10 | 2026-08-31 02:31:51 | 53.15965 | 6.67404 | 49° | 53km/h | 7144m | -3.2m/s | -29.2°C | 70.6% | 407.1hPa | 2.5V | 00:00:00 | 03:06:25 | 00:00:00 | |
| DF5WG-10 | 2026-08-31 02:31:47 | 53.15926 | 6.67342 | 38° | 62km/h | 7157m | -3.2m/s | -29.3°C | 70.7% | 406.4hPa | 2.5V | 00:00:00 | 03:06:21 | 00:00:00 | |
| DM0DOS-11 | 2026-08-31 02:31:46 | 53.15852 | 6.67255 | 37° | 68km/h | 7177m | -3.4m/s | -29.5°C | 68.9% | 405.4hPa | 2.5V | 07:23:07 | 03:06:15 | 00:00:00 | |
| DL1XH-west | 2026-08-31 02:31:42 | 53.15865 | 6.67272 | 36° | 66km/h | 7173m | -3.4m/s | -29.5°C | 68.2% | 405.5hPa | 2.5V | 07:23:13 | 03:06:16 | 00:00:00 | |
| DL1XH-15 | 2026-08-31 02:31:41 | 53.15791 | 6.67162 | 47° | 60km/h | 7193m | -3.3m/s | -29.7°C | 70.4% | 404.4hPa | 2.5V | 07:23:12 | 03:06:10 | 00:00:00 | |
| BIOWL1-15 | 2026-08-31 02:31:39 | 53.15826 | 6.67219 | 43° | 66km/h | 7183m | -3.4m/s | -29.6°C | 69.3% | 405hPa | 2.6V | 07:23:13 | 03:06:13 | 00:00:00 | |
| DC6BW-12 | 2026-08-31 02:31:38 | 53.15825 | 6.67219 | 44° | 66km/h | 7183m | -3.4m/s | -29.6°C | 65.5% | 405.0hPa | 2.5V | 07:23:00 | 00:00:00 | 00:00:00 | |
| DF5WG-10 | 2026-08-31 02:31:37 | 53.15802 | 6.67180 | 47° | 58km/h | 7190m | -3.3m/s | -29.6°C | 70.5% | 404.5hPa | 2.5V | 00:00:00 | 03:06:11 | 00:00:00 | |
| DM0DOS-11 | 2026-08-31 02:31:36 | 53.15741 | 6.67077 | 40° | 55km/h | 7211m | -3.7m/s | -29.8°C | 69.5% | 403.4hPa | 2.5V | 07:23:17 | 03:06:05 | 00:00:00 | |
| GOEST3-10 | 2026-08-31 02:31:36 | 53.15791 | 6.67162 | 48° | 57km/h | 7193m | -3.2m/s | -29.6°C | 70.4% | 404.3hPa | 2.5V | 07:23:00 | 00:00:00 | 00:00:00 | |
| WEDDY | 2026-08-31 02:31:34 | 53.15781 | 6.67143 | 48° | 58km/h | 7196m | -3.5m/s | -29.7°C | 65.4% | 404.2hPa | 2.5V | 07:23:00 | 00:00:00 | 00:00:00 | |
| BIOWL7-15 | 2026-08-31 02:31:33 | 53.15771 | 6.67125 | 48° | 57km/h | 7200m | -3.6m/s | -29.7°C | 64.9% | 404.0hPa | 2.5V | 00:00:00 | 00:00:00 | 00:00:00 | |
| DL1XH-15 | 2026-08-31 02:31:31 | 53.15680 | 6.66998 | 39° | 68km/h | 7229m | -3.6m/s | -29.9°C | 68.4% | 402.3hPa | 2.5V | 07:23:22 | 03:06:00 | 00:00:00 | |
| DL1XH-west | 2026-08-31 02:31:31 | 53.15741 | 6.67077 | 40° | 55km/h | 7211m | -3.7m/s | -29.8°C | 68.5% | 403.4hPa | 2.5V | 07:24:04 | 03:06:05 | 00:00:00 | |
| BIOWL1-15 | 2026-08-31 02:31:28 | 53.15706 | 6.67032 | 37° | 62km/h | 7222m | -3.6m/s | -29.8°C | 67.8% | 402.7hPa | 2.6V | 07:24:04 | 03:06:02 | 00:00:00 | |
| DF5WG-10 | 2026-08-31 02:31:27 | 53.15693 | 6.67015 | 39° | 66km/h | 7225m | -3.3m/s | -29.8°C | 68.2% | 402.5hPa | 2.5V | 00:00:00 | 03:06:01 | 00:00:00 | |
| DM0DOS-11 | 2026-08-31 02:31:26 | 53.15618 | 6.66902 | 46° | 66km/h | 7247m | -3.7m/s | -30.1°C | 69.7% | 401.3hPa | 2.5V | 07:23:27 | 03:05:55 | 00:00:00 | |
| DL1XH-west | 2026-08-31 02:31:21 | 53.15618 | 6.66902 | 47° | 66km/h | 7247m | -3.7m/s | -30.1°C | 69.1% | 401.3hPa | 2.5V | 07:24:04 | 03:05:55 | 00:00:00 | |
| BIOWL1-15 | 2026-08-31 02:31:17 | 53.15576 | 6.66826 | 47° | 55km/h | 7261m | -3.5m/s | -30.3°C | 70.2% | 400.5hPa | 2.6V | 07:24:04 | 03:05:51 | 00:00:00 | |
| DL1XH-west | 2026-08-31 02:31:11 | 53.15513 | 6.66738 | 35° | 60km/h | 7282m | -3.4m/s | -30.4°C | 69.2% | 399.3hPa | 2.6V | 07:24:04 | 03:05:45 | 00:00:00 | |
| BIOWL1-15 | 2026-08-31 02:31:08 | 53.15447 | 6.66655 | 41° | 68km/h | 7299m | -3.5m/s | -30.6°C | 70% | 398.4hPa | 2.6V | 07:24:04 | 03:05:40 | 00:00:00 | |
| DF5WG-10 | 2026-08-31 02:31:07 | 53.15460 | 6.66673 | 40° | 64km/h | 7295m | -3.4m/s | -30.5°C | 70.1% | 398.5hPa | 2.5V | 07:23:00 | 03:05:41 | 00:00:00 | |
| GOEST3-10 | 2026-08-31 02:31:06 | 53.15447 | 6.66655 | 42° | 68km/h | 7299m | -3.4m/s | -30.5°C | 70.5% | 398.4hPa | 2.5V | 00:00:00 | 00:00:00 | 00:00:00 | |
| DJ2DS-15 | 2026-08-31 02:31:05 | 53.15435 | 6.66636 | 43° | 68km/h | 7302m | -3.5m/s | -30.6°C | 65.6% | 398.2hPa | 2.5V | 00:00:00 | 00:00:00 | 00:00:00 | |
| DL1XH-15 | 2026-08-31 02:31:01 | 53.15339 | 6.66471 | 40° | 55km/h | 7332m | -3m/s | -30.9°C | 72.6% | 396.5hPa | 2.5V | 07:23:52 | 03:05:30 | 00:00:00 | |
| DL1XH-west | 2026-08-31 02:31:00 | 53.15379 | 6.66537 | 49° | 58km/h | 7319m | -3.4m/s | -30.8°C | 71.1% | 397.2hPa | 2.6V | 07:24:04 | 03:05:34 | 00:00:00 | |
| DO9LL-15 | 2026-08-31 02:30:59 | 53.15369 | 6.66519 | 48° | 62km/h | 7323m | -3.3m/s | -30.8°C | 71.6% | 397.0hPa | 2.5V | 00:00:00 | 03:05:33 | 00:00:00 | |
| DF5WG-10 | 2026-08-31 02:30:57 | 53.15349 | 6.66486 | 43° | 64km/h | 7330m | -3.2m/s | -30.8°C | 72.3% | 396.7hPa | 2.5V | 00:00:00 | 03:05:31 | 00:00:00 | |
| DM0DOS-11 | 2026-08-31 02:30:56 | 53.15277 | 6.66394 | 36° | 68km/h | 7346m | -2.9m/s | -31°C | 73.1% | 395.7hPa | 2.5V | 07:23:57 | 03:05:25 | 00:00:00 | |
| BIOWL1-15 | 2026-08-31 02:30:55 | 53.15328 | 6.66456 | 38° | 57km/h | 7335m | -2.9m/s | -30.9°C | 72% | 396.3hPa | 2.6V | 07:24:04 | 03:05:29 | 00:00:00 | |
| HTAHTA | 2026-08-31 02:30:55 | 53.15316 | 6.66442 | 36° | 58km/h | 7338m | -2.8m/s | -31.0°C | 68.1% | 396.2hPa | 2.6V | 00:00:00 | 00:00:00 | 00:00:00 | |
| DB0UT-7 | 2026-08-31 02:30:53 | 53.15304 | 6.66426 | 36° | 66km/h | 7341m | -2.7m/s | -30.9°C | 73.3% | 396.0hPa | 2.6V | 00:00:00 | 00:00:00 | 00:00:00 | |
| BIOWL7-15 | 2026-08-31 02:30:52 | 53.15304 | 6.66426 | 37° | 62km/h | 7341m | -2.8m/s | -31.0°C | 68.2% | 396.0hPa | 2.5V | 00:00:00 | 00:00:00 | 00:00:00 | |
| DL1XH-15 | 2026-08-31 02:30:51 | 53.15211 | 6.66298 | 45° | 69km/h | 7360m | -2.7m/s | -31.2°C | 74% | 394.9hPa | 2.5V | 07:24:02 | 03:05:20 | 00:00:00 | |
| DL1XH-west | 2026-08-31 02:30:50 | 53.15264 | 6.66377 | 38° | 69km/h | 7349m | -2.8m/s | -31°C | 72.5% | 395.6hPa | 2.5V | 07:24:04 | 03:05:24 | 00:00:00 | |
| DF5WG-10 | 2026-08-31 02:30:47 | 53.15223 | 6.66319 | 44° | 62km/h | 7358m | -2.6m/s | -31.1°C | 73.6% | 395.0hPa | 2.5V | 00:00:00 | 03:05:21 | 00:00:00 | |
| DM0DOS-11 | 2026-08-31 02:30:46 | 53.15155 | 6.66200 | 44° | 57km/h | 7373m | -2.1m/s | -31.3°C | 74.7% | 394.2hPa | 2.5V | 07:24:07 | 03:05:15 | 00:00:00 | |
| BIOWL1-15 | 2026-08-31 02:30:45 | 53.15199 | 6.66277 | 47° | 69km/h | 7363m | -2.6m/s | -31.2°C | 73.1% | 394.8hPa | 2.5V | 07:24:04 | 03:05:19 | 00:00:00 | |
| DL1XH-15 | 2026-08-31 02:30:41 | 53.15098 | 6.66126 | 33° | 60km/h | 7387m | -2.8m/s | -31.4°C | 75.7% | 393.5hPa | 2.6V | 07:24:12 | 03:05:10 | 00:00:00 | |
| DL1XH-west | 2026-08-31 02:30:39 | 53.15134 | 6.66169 | 38° | 57km/h | 7378m | -3m/s | -31.3°C | 73% | 393.9hPa | 2.5V | 07:24:55 | 03:05:13 | 00:00:00 | |
| DF5WG-10 | 2026-08-31 02:30:37 | 53.15111 | 6.66140 | 35° | 66km/h | 7384m | -2.8m/s | -31.3°C | 75.5% | 393.6hPa | 2.6V | 00:00:00 | 03:05:11 | 00:00:00 | |
| DM0DOS-11 | 2026-08-31 02:30:36 | 53.15030 | 6.66048 | 38° | 71km/h | 7400m | -2.9m/s | -31.5°C | 75.2% | 392.7hPa | 2.6V | 07:24:17 | 03:05:05 | 00:00:00 | |
| BIOWL1-15 | 2026-08-31 02:30:34 | 53.15072 | 6.66097 | 33° | 64km/h | 7392m | -2.7m/s | -31.5°C | 73.9% | 393.2hPa | 2.5V | 07:24:55 | 03:05:08 | 00:00:00 | |
| DL1XH-15 | 2026-08-31 02:30:31 | 53.14966 | 6.65947 | 47° | 66km/h | 7413m | -2.4m/s | -31.7°C | 77.2% | 392hPa | 2.6V | 07:24:22 | 03:05:00 | 00:00:00 | |
| DL1XH-west | 2026-08-31 02:30:28 | 53.14990 | 6.65988 | 44° | 71km/h | 7408m | -2.6m/s | -31.6°C | 74.7% | 392.3hPa | 2.5V | 07:24:55 | 03:05:02 | 00:00:00 | |
| DF5WG-10 | 2026-08-31 02:30:27 | 53.14977 | 6.65968 | 46° | 62km/h | 7411m | -2.5m/s | -31.6°C | 76.9% | 392.1hPa | 2.5V | 00:00:00 | 03:05:01 | 00:00:00 | |
| DM0DOS-11 | 2026-08-31 02:30:26 | 53.14911 | 6.65860 | 37° | 57km/h | 7426m | -2.7m/s | -31.8°C | 78% | 391.2hPa | 2.5V | 07:24:27 | 03:04:55 | 00:00:00 | |
| BIOWL1-15 | 2026-08-31 02:30:24 | 53.14944 | 6.65909 | 46° | 60km/h | 7418m | -2.9m/s | -31.7°C | 76.1% | 391.7hPa | 2.6V | 07:24:55 | 03:04:58 | 00:00:00 | |
| DB0UT-7 | 2026-08-31 02:30:23 | 53.14933 | 6.65891 | 44° | 62km/h | 7421m | -2.7m/s | -31.7°C | 78.1% | 391.5hPa | 2.5V | 07:24:00 | 03:04:57 | 00:00:00 | |
| DL1XH-15 | 2026-08-31 02:30:21 | 53.14848 | 6.65786 | 35° | 68km/h | 7441m | -2.8m/s | -31.9°C | 78% | 390.4hPa | 2.5V | 07:24:32 | 03:04:50 | 00:00:00 | |
| DL1XH-west | 2026-08-31 02:30:17 | 53.14861 | 6.65802 | 34° | 64km/h | 7438m | -2.8m/s | -31.9°C | 76% | 390.6hPa | 2.6V | 07:24:55 | 03:04:51 | 00:00:00 | |
| DF5WG-10 | 2026-08-31 02:30:17 | 53.14861 | 6.65801 | 34° | 69km/h | 7438m | -2.7m/s | -31.8°C | 77.8% | 390.5hPa | 2.6V | 00:00:00 | 03:04:51 | 00:00:00 | |
| DM0DOS-11 | 2026-08-31 02:30:16 | 53.14779 | 6.65693 | 43° | 71km/h | 7454m | -3.2m/s | -32°C | 76% | 389.7hPa | 2.6V | 07:24:37 | 03:04:45 | 00:00:00 | |
| BIOWL1-15 | 2026-08-31 02:30:13 | 53.14806 | 6.65733 | 40° | 71km/h | 7449m | -2.5m/s | -32°C | 75.6% | 390hPa | 2.5V | 07:24:55 | 03:04:47 | 00:00:00 | |
| DL1XH-15 | 2026-08-31 02:30:11 | 53.14718 | 6.65600 | 39° | 60km/h | 7468m | -2.5m/s | -32.1°C | 76.3% | 388.9hPa | 2.6V | 07:24:42 | 03:04:40 | 00:00:00 | |
| DL1XH-west | 2026-08-31 02:30:07 | 53.14729 | 6.65617 | 42° | 60km/h | 7465m | -2.3m/s | -32.1°C | 75.2% | 389.1hPa | 2.5V | 07:24:55 | 03:04:41 | 00:00:00 | |
| BIOWL1-15 | 2026-08-31 02:30:03 | 53.14683 | 6.65554 | 37° | 58km/h | 7476m | -2.7m/s | -32.2°C | 75% | 388.5hPa | 2.5V | 07:24:55 | 03:04:37 | 00:00:00 | |
| DL1XH-15 | 2026-08-31 02:30:01 | 53.14600 | 6.65447 | 38° | 62km/h | 7493m | -2.5m/s | -32.4°C | 77.1% | 387.5hPa | 2.5V | 07:24:52 | 03:04:30 | 00:00:00 | |
| GOEST3-10 | 2026-08-31 02:30:01 | 53.14660 | 6.65525 | 37° | 60km/h | 7481m | -2.4m/s | -32.2°C | 76.9% | 388.2hPa | 2.6V | 00:00:00 | 03:04:35 | 00:00:00 | |
| DO9LL-15 | 2026-08-31 02:29:59 | 53.14636 | 6.65495 | 39° | 64km/h | 7486m | -2.1m/s | -32.3°C | 77.3% | 387.9hPa | 2.6V | 00:00:00 | 03:04:33 | 00:00:00 | |
| DF5WG-10 | 2026-08-31 02:29:57 | 53.14612 | 6.65463 | 40° | 64km/h | 7491m | -2.7m/s | -32.3°C | 77.1% | 387.6hPa | 2.5V | 00:00:00 | 03:04:31 | 00:00:00 | |
| DM0DOS-11 | 2026-08-31 02:29:56 | 53.14535 | 6.65366 | 35° | 66km/h | 7505m | -2.6m/s | -32.5°C | 77.1% | 386.8hPa | 2.5V | 07:24:57 | 03:04:25 | 00:00:00 | |
| DL1XH-west | 2026-08-31 02:29:56 | 53.14600 | 6.65447 | 39° | 62km/h | 7493m | -2.5m/s | -32.4°C | 75.9% | 387.5hPa | 2.5V | 07:24:55 | 03:04:30 | 00:00:00 | |
| BIOWL1-15 | 2026-08-31 02:29:52 | 53.14548 | 6.65382 | 36° | 64km/h | 7503m | -2.5m/s | -32.5°C | 75.4% | 386.9hPa | 2.6V | 07:25:46 | 03:04:26 | 00:00:00 | |
| DL1XH-15 | 2026-08-31 02:29:51 | 53.14470 | 6.65291 | 35° | 60km/h | 7518m | -2.6m/s | -32.6°C | 78.3% | 386.1hPa | 2.6V | 07:25:02 | 03:04:20 | 00:00:00 | |
| BIOWL9-15 | 2026-08-31 02:29:48 | 53.14482 | 6.65306 | 36° | 60km/h | 7515m | -2.6m/s | -32.6°C | 72.7% | 386.2hPa | 2.6V | 00:00:00 | 00:00:00 | 00:00:00 | |
| DF5WG-10 | 2026-08-31 02:29:47 | 53.14482 | 6.65306 | 37° | 62km/h | 7515m | -2.6m/s | -32.5°C | 78.3% | 386.2hPa | 2.6V | 07:25:00 | 03:04:21 | 00:00:00 | |
| DM0DOS-11 | 2026-08-31 02:29:46 | 53.14408 | 6.65216 | 33° | 64km/h | 7531m | -2.6m/s | -32.7°C | 78.7% | 385.4hPa | 2.6V | 07:25:07 | 03:04:15 | 00:00:00 | |
| DL1XH-west | 2026-08-31 02:29:45 | 53.14458 | 6.65276 | 37° | 58km/h | 7520m | -2.3m/s | -32.6°C | 76.1% | 385.9hPa | 2.6V | 07:25:46 | 03:04:19 | 00:00:00 | |
| BIOWL1-15 | 2026-08-31 02:29:43 | 53.14408 | 6.65216 | 33° | 64km/h | 7531m | -2.6m/s | -32.7°C | 76.8% | 385.4hPa | 2.6V | 07:25:46 | 03:04:15 | 00:00:00 | |
| DL1XH-15 | 2026-08-31 02:29:41 | 53.14337 | 6.65137 | 34° | 69km/h | 7544m | -2.5m/s | -32.9°C | 78.9% | 384.5hPa | 2.6V | 07:25:12 | 03:04:10 | 00:00:00 | |
| DL4BBY-15 | 2026-08-31 02:29:41 | 53.14408 | 6.65216 | 34° | 66km/h | 7531m | -2.5m/s | -33.0°C | 0% | 0hPa | 2.5V | 00:00:00 | 00:00:00 | 00:00:00 | |
| SMARD9-15 | 2026-08-31 02:29:39 | 53.14352 | 6.65153 | 33° | 69km/h | 7541m | -2.5m/s | 0°C | -1.0% | -1.0hPa | 2.5V | 00:00:00 | 00:00:00 | 00:00:00 | |
| DF5WG-10 | 2026-08-31 02:29:37 | 53.14352 | 6.65153 | 34° | 68km/h | 7541m | -2.5m/s | -32.8°C | 78.8% | 384.7hPa | 2.5V | 00:00:00 | 03:04:11 | 00:00:00 | |
| DM0DOS-11 | 2026-08-31 02:29:36 | 53.14265 | 6.65052 | 37° | 68km/h | 7556m | -2.9m/s | -33°C | 79.1% | 384hPa | 2.5V | 07:25:17 | 03:04:05 | 00:00:00 | |
| DL1XH-west | 2026-08-31 02:29:34 | 53.14307 | 6.65104 | 33° | 71km/h | 7549m | -2.4m/s | -32.9°C | 77.6% | 384.3hPa | 2.6V | 07:25:46 | 03:04:08 | 00:00:00 | |
| BIOWL1-15 | 2026-08-31 02:29:31 | 53.14265 | 6.65052 | 38° | 68km/h | 7556m | -2.9m/s | -33°C | 77.9% | 384hPa | 2.5V | 07:25:46 | 03:04:05 | 00:00:00 | |
| GOEST3-10 | 2026-08-31 02:29:31 | 53.14265 | 6.65052 | 38° | 62km/h | 7556m | -2.8m/s | -32.9°C | 79.1% | 383.9hPa | 2.6V | 00:00:00 | 03:04:05 | 00:00:00 | |
| DO9LL-15 | 2026-08-31 02:29:29 | 53.14239 | 6.65017 | 42° | 64km/h | 7562m | -2.7m/s | -33.0°C | 79.5% | 383.6hPa | 2.6V | 00:00:00 | 03:04:03 | 00:00:00 | |
| WEDDY | 2026-08-31 02:29:28 | 53.14240 | 6.65017 | 43° | 62km/h | 7562m | -2.8m/s | -33.0°C | 73.8% | 383.6hPa | 2.6V | 07:25:00 | 00:00:00 | 00:00:00 | |
| DF5WG-10 | 2026-08-31 02:29:27 | 53.14217 | 6.64984 | 43° | 60km/h | 7568m | -2.6m/s | -33.0°C | 79.6% | 383.3hPa | 2.6V | 00:00:00 | 03:04:01 | 00:00:00 | |
| DM0DOS-11 | 2026-08-31 02:29:26 | 53.14147 | 6.64901 | 29° | 60km/h | 7583m | -2.3m/s | -33.2°C | 80.6% | 382.5hPa | 2.6V | 07:25:27 | 03:03:55 | 00:00:00 | |
| BIOWL1-15 | 2026-08-31 02:29:23 | 53.14147 | 6.64901 | 30° | 60km/h | 7583m | -2.3m/s | -33.2°C | 77.9% | 382.6hPa | 2.6V | 07:25:46 | 03:03:55 | 00:00:00 | |
| DL1XH-west | 2026-08-31 02:29:23 | 53.14173 | 6.64926 | 31° | 57km/h | 7579m | -2.4m/s | -33.2°C | 77.9% | 382.8hPa | 2.5V | 07:25:46 | 03:03:57 | 00:00:00 | |
| MET0W-2 | 2026-08-31 02:29:22 | 53.14160 | 6.64914 | 30° | 58km/h | 7581m | -2.2m/s | -33.2°C | 74.7% | 382.6hPa | 2.5V | 00:00:00 | 00:00:00 | 00:00:00 | |
| GOEST3-10 | 2026-08-31 02:29:21 | 53.14147 | 6.64901 | 30° | 68km/h | 7583m | -2.3m/s | -33.2°C | 80.6% | 382.5hPa | 2.5V | 00:00:00 | 03:03:55 | 00:00:00 | |
| BIOWL7-15 | 2026-08-31 02:29:20 | 53.14147 | 6.64901 | 31° | 60km/h | 7583m | -2.3m/s | -33.2°C | 74.8% | 382.5hPa | 2.5V | 07:25:00 | 00:00:00 | 00:00:00 | |
| BIOWL9-15 | 2026-08-31 02:29:17 | 53.14073 | 6.64829 | 33° | 71km/h | 7594m | -2.3m/s | -33.3°C | 75.4% | 381.9hPa | 2.5V | 00:00:00 | 00:00:00 | 00:00:00 | |
| DM0DOS-11 | 2026-08-31 02:29:16 | 53.14000 | 6.64738 | 41° | 73km/h | 7608m | -2.7m/s | -33.4°C | 81.2% | 381.2hPa | 2.5V | 07:25:37 | 03:03:45 | 00:00:00 | |
| DL1XH-west | 2026-08-31 02:29:13 | 53.14028 | 6.64776 | 38° | 73km/h | 7602m | -2.6m/s | -33.4°C | 78.3% | 381.5hPa | 2.6V | 07:25:46 | 03:03:47 | 00:00:00 | |
| BIOWL1-15 | 2026-08-31 02:29:12 | 53.13986 | 6.64718 | 40° | 71km/h | 7611m | -2.7m/s | -33.5°C | 78.6% | 381.1hPa | 2.5V | 07:25:46 | 03:03:44 | 00:00:00 | |
| DL4BBY-15 | 2026-08-31 02:29:11 | 53.14000 | 6.64738 | 42° | 66km/h | 7608m | -2.6m/s | -33.7°C | 0% | 0hPa | 2.6V | 00:00:00 | 00:00:00 | 00:00:00 | |
| DF5WG-10 | 2026-08-31 02:29:07 | 53.13947 | 6.64661 | 39° | 62km/h | 7619m | -2.0m/s | -33.5°C | 82.6% | 380.6hPa | 2.6V | 00:00:00 | 03:03:41 | 00:00:00 | |
| DM0DOS-11 | 2026-08-31 02:29:06 | 53.13868 | 6.64576 | 26° | 62km/h | 7633m | -1.8m/s | -33.7°C | 83.1% | 379.9hPa | 2.6V | 07:25:47 | 03:03:35 | 00:00:00 | |
| BIOWL1-15 | 2026-08-31 02:29:02 | 53.13854 | 6.64564 | 27° | 60km/h | 7635m | -2.1m/s | -33.7°C | 80.5% | 379.7hPa | 2.6V | 07:26:37 | 03:03:34 | 00:00:00 | |
| DL1XH-west | 2026-08-31 02:29:02 | 53.13881 | 6.64588 | 29° | 62km/h | 7631m | -2.2m/s | -33.7°C | 80.5% | 380hPa | 2.5V | 07:25:46 | 03:03:36 | 00:00:00 | |
| GOEST3-10 | 2026-08-31 02:29:01 | 53.13867 | 6.64576 | 27° | 62km/h | 7633m | -1.8m/s | -33.6°C | 83.1% | 379.8hPa | 2.5V | 00:00:00 | 03:03:35 | 00:00:00 | |
| BIOWL7-15 | 2026-08-31 02:29:00 | 53.13868 | 6.64576 | 28° | 62km/h | 7633m | -1.8m/s | -33.7°C | 77.1% | 379.9hPa | 2.5V | 00:00:00 | 00:00:00 | 00:00:00 | |
| DO9LL-15 | 2026-08-31 02:28:59 | 53.13840 | 6.64552 | 28° | 69km/h | 7637m | -2.4m/s | -33.7°C | 83.0% | 379.6hPa | 2.5V | 07:25:00 | 03:03:33 | 00:00:00 | |
| DF5WG-10 | 2026-08-31 02:28:57 | 53.13812 | 6.64528 | 27° | 71km/h | 7642m | -2.1m/s | -33.7°C | 83.4% | 379.4hPa | 2.5V | 00:00:00 | 03:03:31 | 00:00:00 | |
| DM0DOS-11 | 2026-08-31 02:28:56 | 53.13719 | 6.64441 | 32° | 73km/h | 7656m | -2.6m/s | -33.9°C | 82.7% | 378.6hPa | 2.5V | 07:25:57 | 03:03:25 | 00:00:00 | |
| DL1XH-west | 2026-08-31 02:28:51 | 53.13719 | 6.64441 | 33° | 73km/h | 7656m | -2.6m/s | -33.9°C | 80.5% | 378.6hPa | 2.5V | 07:26:37 | 03:03:25 | 00:00:00 | |
| BIOWL1-15 | 2026-08-31 02:28:50 | 53.13704 | 6.64424 | 35° | 71km/h | 7659m | -2.3m/s | -33.9°C | 80% | 378.5hPa | 2.5V | 07:26:37 | 03:03:24 | 00:00:00 | |
| DF5WG-10 | 2026-08-31 02:28:47 | 53.13660 | 6.64371 | 36° | 66km/h | 7666m | -2.2m/s | -33.9°C | 83.7% | 378.1hPa | 2.5V | 00:00:00 | 03:03:21 | 00:00:00 | |
| DM0DOS-11 | 2026-08-31 02:28:46 | 53.13577 | 6.64285 | 28° | 62km/h | 7678m | -2m/s | -34.1°C | 83.8% | 377.5hPa | 2.5V | 07:26:07 | 03:03:15 | 00:00:00 | |
| BIOWL9-15 | 2026-08-31 02:28:46 | 53.13632 | 6.64340 | 33° | 64km/h | 7670m | -1.9m/s | -34.0°C | 78.3% | 377.9hPa | 2.6V | 00:00:00 | 00:00:00 | 00:00:00 | |
| DL1XH-west | 2026-08-31 02:28:40 | 53.13563 | 6.64273 | 28° | 66km/h | 7680m | -1.9m/s | -34.1°C | 79.9% | 377.4hPa | 2.6V | 07:26:37 | 03:03:14 | 00:00:00 | |
| BIOWL1-15 | 2026-08-31 02:28:39 | 53.13548 | 6.64260 | 25° | 68km/h | 7682m | -2.1m/s | -34.1°C | 79.9% | 377.3hPa | 2.6V | 07:26:37 | 03:03:13 | 00:00:00 | |
| DF5WG-10 | 2026-08-31 02:28:37 | 53.13517 | 6.64236 | 25° | 75km/h | 7687m | -2.4m/s | -34.1°C | 83.1% | 377.0hPa | 2.6V | 00:00:00 | 03:03:11 | 00:00:00 | |
| DM0DOS-11 | 2026-08-31 02:28:36 | 53.13415 | 6.64151 | 29° | 78km/h | 7700m | -2.2m/s | -34.2°C | 79.3% | 376.4hPa | 2.6V | 07:26:17 | 03:03:05 | 00:00:00 | |
| GOEST3-10 | 2026-08-31 02:28:36 | 53.13500 | 6.64223 | 26° | 77km/h | 7689m | -2.1m/s | -34.1°C | 83.3% | 377.0hPa | 2.6V | 00:00:00 | 00:00:00 | 00:00:00 | |
| DL1XH-15 | 2026-08-31 02:28:31 | 53.13334 | 6.64062 | 36° | 73km/h | 7712m | -2.5m/s | -34.2°C | 76% | 375.7hPa | 2.6V | 07:26:22 | 03:03:00 | 00:00:00 | |
| DL1XH-west | 2026-08-31 02:28:30 | 53.13398 | 6.64134 | 31° | 78km/h | 7702m | -2.3m/s | -34.2°C | 75.6% | 376.2hPa | 2.5V | 07:26:37 | 03:03:04 | 00:00:00 | |
| BIOWL1-15 | 2026-08-31 02:28:29 | 53.13381 | 6.64117 | 32° | 78km/h | 7705m | -2.4m/s | -34.2°C | 74.6% | 376hPa | 2.5V | 07:26:37 | 03:03:03 | 00:00:00 | |
| DO9LL-15 | 2026-08-31 02:28:29 | 53.13381 | 6.64117 | 33° | 71km/h | 7705m | -2.3m/s | -34.1°C | 77.5% | 376.0hPa | 2.5V | 00:00:00 | 03:03:03 | 00:00:00 | |
| DF5WG-10 | 2026-08-31 02:28:27 | 53.13349 | 6.64080 | 36° | 68km/h | 7710m | -2.5m/s | -34.1°C | 76.1% | 375.9hPa | 2.5V | 07:26:00 | 03:03:01 | 00:00:00 | |
| DM0DOS-11 | 2026-08-31 02:28:26 | 53.13264 | 6.63983 | 29° | 64km/h | 7725m | -2.8m/s | -34.3°C | 74.9% | 375.1hPa | 2.5V | 07:26:27 | 03:02:55 | 00:00:00 | |
| GOEST3-10 | 2026-08-31 02:28:25 | 53.13319 | 6.64044 | 38° | 66km/h | 7715m | -2.5m/s | -34.2°C | 75.7% | 375.6hPa | 2.6V | 00:00:00 | 00:00:00 | 00:00:00 | |
| DL1XH-15 | 2026-08-31 02:28:21 | 53.13187 | 6.63920 | 25° | 73km/h | 7739m | -2.8m/s | -34.5°C | 75.5% | 374.2hPa | 2.5V | 07:26:32 | 03:02:50 | 00:00:00 | |
| DL1XH-west | 2026-08-31 02:28:20 | 53.13250 | 6.63970 | 27° | 64km/h | 7728m | -2.9m/s | -34.4°C | 73.9% | 374.9hPa | 2.5V | 07:26:37 | 03:02:54 | 00:00:00 | |
| BIOWL1-15 | 2026-08-31 02:28:19 | 53.13235 | 6.63958 | 26° | 66km/h | 7731m | -2.9m/s | -34.4°C | 73.9% | 374.7hPa | 2.6V | 07:26:37 | 03:02:53 | 00:00:00 | |
| DF5WG-10 | 2026-08-31 02:28:17 | 53.13203 | 6.63933 | 26° | 75km/h | 7737m | -2.8m/s | -34.4°C | 75.4% | 374.4hPa | 2.6V | 00:00:00 | 03:02:51 | 00:00:00 | |
| DM0DOS-11 | 2026-08-31 02:28:16 | 53.13103 | 6.63839 | 34° | 77km/h | 7754m | -2.9m/s | -34.6°C | 75.9% | 373.4hPa | 2.6V | 07:26:37 | 03:02:45 | 00:00:00 | |
| BIOWL9-15 | 2026-08-31 02:28:15 | 53.13153 | 6.63891 | 29° | 77km/h | 7745m | -3.0m/s | -34.5°C | 69.7% | 373.9hPa | 2.6V | 00:00:00 | 00:00:00 | 00:00:00 | |
| DL1XH-15 | 2026-08-31 02:28:11 | 53.13028 | 6.63745 | 38° | 69km/h | 7769m | -2.7m/s | -34.7°C | 76.1% | 372.7hPa | 2.6V | 07:26:42 | 03:02:40 | 00:00:00 | |
| BIOWL1-15 | 2026-08-31 02:28:09 | 53.13071 | 6.63802 | 37° | 77km/h | 7760m | -3m/s | -34.7°C | 74.8% | 373.1hPa | 2.5V | 07:27:28 | 03:02:43 | 00:00:00 | |
| DF5WG-10 | 2026-08-31 02:28:07 | 53.13042 | 6.63764 | 39° | 68km/h | 7766m | -2.9m/s | -34.7°C | 75.8% | 372.8hPa | 2.5V | 00:00:00 | 03:02:41 | 00:00:00 | |
| DM0DOS-11 | 2026-08-31 02:28:06 | 53.12960 | 6.63666 | 29° | 64km/h | 7783m | -2.8m/s | -34.9°C | 75.9% | 371.9hPa | 2.5V | 07:26:47 | 03:02:35 | 00:00:00 | |
| GOEST3-10 | 2026-08-31 02:28:05 | 53.13014 | 6.63727 | 39° | 64km/h | 7772m | -2.9m/s | -34.7°C | 76.3% | 372.5hPa | 2.5V | 00:00:00 | 00:00:00 | 00:00:00 | |
| DL1XH-15 | 2026-08-31 02:28:01 | 53.12881 | 6.63600 | 27° | 77km/h | 7798m | -3m/s | -35°C | 77.3% | 371.1hPa | 2.5V | 07:26:52 | 03:02:30 | 00:00:00 | |
| DL1XH-west | 2026-08-31 02:27:59 | 53.12930 | 6.63640 | 26° | 68km/h | 7789m | -3m/s | -34.9°C | 75.1% | 371.6hPa | 2.6V | 07:27:28 | 03:02:33 | 00:00:00 | |
| BIOWL1-15 | 2026-08-31 02:27:58 | 53.12914 | 6.63628 | 26° | 71km/h | 7792m | -2.9m/s | -34.9°C | 74.8% | 371.4hPa | 2.6V | 07:27:28 | 03:02:32 | 00:00:00 | |
| DF5WG-10 | 2026-08-31 02:27:57 | 53.12898 | 6.63614 | 27° | 77km/h | 7795m | -3.0m/s | -34.9°C | 76.5% | 371.3hPa | 2.5V | 00:00:00 | 03:02:31 | 00:00:00 | |
| DM0DOS-11 | 2026-08-31 02:27:56 | 53.12796 | 6.63514 | 35° | 78km/h | 7813m | -3m/s | -35.2°C | 80.1% | 370.3hPa | 2.6V | 07:26:57 | 03:02:25 | 00:00:00 | |
| DC4HF-4 | 2026-08-31 02:27:54 | 53.12846 | 6.63568 | 30° | 78km/h | 7804m | -3.0m/s | -35.1°C | 72.9% | 370.8hPa | 2.6V | 00:00:00 | 00:00:00 | 00:00:00 | |
| DL1XH-15 | 2026-08-31 02:27:51 | 53.12722 | 6.63418 | 37° | 68km/h | 7828m | -3.1m/s | -35.3°C | 78.9% | 369.5hPa | 2.6V | 07:27:02 | 03:02:20 | 00:00:00 | |
| BIOWL1-15 | 2026-08-31 02:27:49 | 53.12735 | 6.63436 | 39° | 71km/h | 7825m | -2.9m/s | -35.3°C | 78.5% | 369.7hPa | 2.6V | 07:27:28 | 03:02:21 | 00:00:00 | |
| DL1XH-west | 2026-08-31 02:27:49 | 53.12765 | 6.63475 | 38° | 77km/h | 7819m | -2.9m/s | -35.2°C | 77.9% | 370hPa | 2.5V | 07:27:28 | 03:02:23 | 00:00:00 | |
| HTAHTA | 2026-08-31 02:27:48 | 53.12750 | 6.63455 | 38° | 73km/h | 7822m | -3.0m/s | -35.3°C | 73.4% | 369.8hPa | 2.6V | 00:00:00 | 00:00:00 | 00:00:00 | |
| DF5WG-10 | 2026-08-31 02:27:47 | 53.12735 | 6.63436 | 39° | 69km/h | 7825m | -2.8m/s | -35.2°C | 79.5% | 369.7hPa | 2.6V | 00:00:00 | 03:02:21 | 00:00:00 | |
| DM0DOS-11 | 2026-08-31 02:27:46 | 53.12651 | 6.63345 | 26° | 68km/h | 7843m | -3m/s | -35.4°C | 78.8% | 368.7hPa | 2.6V | 07:27:07 | 03:02:15 | 00:00:00 | |
| GOEST3-10 | 2026-08-31 02:27:45 | 53.12708 | 6.63401 | 36° | 66km/h | 7831m | -2.8m/s | -35.3°C | 78.8% | 369.3hPa | 2.5V | 00:00:00 | 00:00:00 | 00:00:00 | |
| BIOWL9-15 | 2026-08-31 02:27:44 | 53.12680 | 6.63372 | 30° | 64km/h | 7837m | -3.1m/s | -35.4°C | 72.4% | 369.1hPa | 2.5V | 00:00:00 | 00:00:00 | 00:00:00 | |
| DL1XH-15 | 2026-08-31 02:27:41 | 53.12567 | 6.63276 | 29° | 78km/h | 7859m | -3m/s | -35.6°C | 81.4% | 367.9hPa | 2.5V | 07:27:12 | 03:02:10 | 00:00:00 | |
| BIOWL1-15 | 2026-08-31 02:27:41 | 53.12584 | 6.63291 | 28° | 77km/h | 7857m | -3.1m/s | -35.6°C | 77.4% | 368hPa | 2.5V | 07:27:28 | 03:02:11 | 00:00:00 | |
| DL1XH-west | 2026-08-31 02:27:39 | 53.12618 | 6.63320 | 26° | 73km/h | 7850m | -3.3m/s | -35.5°C | 77.3% | 368.4hPa | 2.6V | 07:27:28 | 03:02:13 | 00:00:00 | |
| BIOWL7-15 | 2026-08-31 02:27:38 | 53.12618 | 6.63319 | 26° | 73km/h | 7850m | -3.3m/s | -35.5°C | 73.5% | 368.4hPa | 2.5V | 07:27:00 | 00:00:00 | 00:00:00 | |
| DF5WG-10 | 2026-08-31 02:27:37 | 53.12584 | 6.63291 | 28° | 75km/h | 7857m | -3.1m/s | -35.5°C | 80.8% | 368.0hPa | 2.5V | 00:00:00 | 03:02:11 | 00:00:00 | |
| DM0DOS-11 | 2026-08-31 02:27:36 | 53.12485 | 6.63182 | 38° | 75km/h | 7875m | -3m/s | -35.8°C | 82.3% | 367hPa | 2.5V | 07:27:17 | 03:02:05 | 00:00:00 | |
| GOEST3-10 | 2026-08-31 02:27:35 | 53.12549 | 6.63258 | 32° | 78km/h | 7863m | -3.0m/s | -35.6°C | 81.7% | 367.6hPa | 2.5V | 07:27:00 | 00:00:00 | 00:00:00 | |
| DL1LOL-11 | 2026-08-31 02:27:33 | 53.12532 | 6.63240 | 35° | 80km/h | 7866m | -2.9m/s | -35.7°C | 75.7% | 367.5hPa | 2.5V | 00:00:00 | 00:00:00 | 00:00:00 | |
| DL1XH-15 | 2026-08-31 02:27:31 | 53.12415 | 6.63093 | 33° | 66km/h | 7890m | -2.9m/s | -35.9°C | 83.1% | 366.3hPa | 2.5V | 07:27:22 | 03:02:00 | 00:00:00 | |
| DL1XH-west | 2026-08-31 02:27:28 | 53.12443 | 6.63125 | 38° | 68km/h | 7884m | -3.2m/s | -35.8°C | 80.1% | 366.6hPa | 2.6V | 07:27:28 | 03:02:02 | 00:00:00 | |
| BIOWL1-15 | 2026-08-31 02:27:27 | 53.12429 | 6.63109 | 35° | 66km/h | 7887m | -3m/s | -35.9°C | 80.4% | 366.4hPa | 2.6V | 07:27:28 | 03:02:01 | 00:00:00 | |
| DF5WG-10 | 2026-08-31 02:27:27 | 53.12429 | 6.63109 | 36° | 73km/h | 7887m | -2.9m/s | -35.8°C | 82.9% | 366.4hPa | 2.6V | 00:00:00 | 03:02:01 | 00:00:00 | |
| WEDDY | 2026-08-31 02:27:26 | 53.12429 | 6.63109 | 36° | 66km/h | 7887m | -3.0m/s | -35.9°C | 76.5% | 366.4hPa | 2.5V | 07:27:00 | 00:00:00 | 00:00:00 | |
| GOEST3-10 | 2026-08-31 02:27:25 | 53.12401 | 6.63079 | 32° | 71km/h | 7893m | -3.1m/s | -35.9°C | 82.8% | 366.1hPa | 2.5V | 00:00:00 | 00:00:00 | 00:00:00 | |
| DL1XH-15 | 2026-08-31 02:27:21 | 53.12252 | 6.62933 | 34° | 82km/h | 7921m | -3.1m/s | -36.2°C | 84.8% | 364.6hPa | 2.6V | 07:27:32 | 03:01:50 | 00:00:00 | |
| BIOWL1-15 | 2026-08-31 02:27:18 | 53.12252 | 6.62933 | 35° | 82km/h | 7921m | -3.1m/s | -36.2°C | 82.4% | 364.6hPa | 2.6V | 07:28:19 | 03:01:50 | 00:00:00 | |
| DL1XH-west | 2026-08-31 02:27:17 | 53.12269 | 6.62952 | 33° | 82km/h | 7918m | -3.1m/s | -36.1°C | 82.4% | 364.9hPa | 2.6V | 07:28:19 | 03:01:51 | 00:00:00 | |
| DD1CC2-15 | 2026-08-31 02:27:16 | 53.12269 | 6.62951 | 34° | 82km/h | 7918m | -3.1m/s | -36.1°C | 78.5% | 364.9hPa | 2.6V | 07:28:00 | 00:00:00 | 00:00:00 | |
| GOEST3-10 | 2026-08-31 02:27:15 | 53.12235 | 6.62913 | 36° | 78km/h | 7924m | -3.0m/s | -36.1°C | 85.0% | 364.4hPa | 2.6V | 00:00:00 | 00:00:00 | 00:00:00 | |
| BIOWL9-15 | 2026-08-31 02:27:13 | 53.12188 | 6.62852 | 39° | 77km/h | 7933m | -2.9m/s | -36.3°C | 80.2% | 364.0hPa | 2.6V | 00:00:00 | 00:00:00 | 00:00:00 | |
| DL1XH-15 | 2026-08-31 02:27:12 | 53.12104 | 6.62739 | 34° | 66km/h | 7952m | -2.9m/s | -36.4°C | 91.1% | 363.1hPa | 2.6V | 07:27:42 | 03:01:40 | 00:00:00 | |
| BIOWL1-15 | 2026-08-31 02:27:07 | 53.12091 | 6.62724 | 32° | 66km/h | 7955m | -3.1m/s | -36.5°C | 87% | 362.8hPa | 2.6V | 07:28:19 | 03:01:39 | 00:00:00 | |
| DL1XH-west | 2026-08-31 02:27:07 | 53.12118 | 6.62755 | 37° | 66km/h | 7949m | -3.2m/s | -36.4°C | 86% | 363.2hPa | 2.5V | 07:28:19 | 03:01:41 | 00:00:00 | |
| DF5WG-10 | 2026-08-31 02:27:07 | 53.12118 | 6.62755 | 38° | 73km/h | 7949m | -3.2m/s | -36.4°C | 90.9% | 363.1hPa | 2.5V | 07:27:00 | 03:01:41 | 00:00:00 | |
| DM0DOS-11 | 2026-08-31 02:27:06 | 53.12029 | 6.62667 | 27° | 75km/h | 7967m | -3.1m/s | -36.6°C | 91.7% | 362.3hPa | 2.5V | 07:27:47 | 03:01:35 | 00:00:00 | |
| GOEST3-10 | 2026-08-31 02:27:05 | 53.12090 | 6.62724 | 33° | 69km/h | 7955m | -3.0m/s | -36.4°C | 91.3% | 362.8hPa | 2.5V | 00:00:00 | 00:00:00 | 00:00:00 | |
| DL1XH-15 | 2026-08-31 02:27:01 | 53.11941 | 6.62582 | 34° | 82km/h | 7983m | -3.2m/s | -36.7°C | 93.4% | 361.4hPa | 2.5V | 07:27:52 | 03:01:30 | 00:00:00 | |
| BIOWL1-15 | 2026-08-31 02:26:57 | 53.11924 | 6.62562 | 36° | 82km/h | 7986m | -3m/s | -36.8°C | 88.9% | 361.2hPa | 2.5V | 07:28:19 | 03:01:29 | 00:00:00 | |
| DF5WG-10 | 2026-08-31 02:26:57 | 53.11958 | 6.62601 | 33° | 77km/h | 7980m | -3.1m/s | -36.6°C | 93.0% | 361.6hPa | 2.5V | 00:00:00 | 03:01:31 | 00:00:00 | |
| DM0DOS-11 | 2026-08-31 02:26:56 | 53.11862 | 6.62483 | 38° | 71km/h | 7999m | -3.1m/s | -36.8°C | 92.2% | 360.6hPa | 2.5V | 07:27:57 | 03:01:25 | 00:00:00 | |
| DL1XH-west | 2026-08-31 02:26:56 | 53.11941 | 6.62582 | 34° | 82km/h | 7983m | -3.2m/s | -36.7°C | 89% | 361.4hPa | 2.5V | 07:28:19 | 03:01:30 | 00:00:00 | |
| DJ2DS-15 | 2026-08-31 02:26:53 | 53.11892 | 6.62522 | 38° | 77km/h | 7992m | -3.2m/s | -36.8°C | 85.8% | 361.0hPa | 2.5V | 00:00:00 | 00:00:00 | 00:00:00 | |
| DL1XH-15 | 2026-08-31 02:26:51 | 53.11789 | 6.62400 | 29° | 71km/h | 8014m | -3m/s | -37°C | 90.3% | 359.8hPa | 2.5V | 07:28:02 | 03:01:20 | 00:00:00 | |
| DL1XH-west | 2026-08-31 02:26:46 | 53.11788 | 6.62400 | 29° | 71km/h | 8014m | -3m/s | -37°C | 86% | 359.8hPa | 2.5V | 07:28:19 | 03:01:20 | 00:00:00 | |
| BIOWL1-15 | 2026-08-31 02:26:44 | 53.11756 | 6.62371 | 28° | 75km/h | 8020m | -3.2m/s | -37°C | 84.1% | 359.4hPa | 2.6V | 07:28:19 | 03:01:18 | 00:00:00 | |
| DC4HF-4 | 2026-08-31 02:26:42 | 53.11721 | 6.62341 | 27° | 77km/h | 8027m | -3.1m/s | -37.1°C | 81.1% | 359.1hPa | 2.6V | 00:00:00 | 00:00:00 | 00:00:00 | |
| DL1XH-15 | 2026-08-31 02:26:41 | 53.11612 | 6.62249 | 26° | 82km/h | 8045m | -2.9m/s | -37.2°C | 84.7% | 358.1hPa | 2.6V | 07:28:12 | 03:01:10 | 00:00:00 | |
| DL4BBY-15 | 2026-08-31 02:26:41 | 53.11704 | 6.62325 | 28° | 78km/h | 8030m | -3.0m/s | -37.4°C | 0% | 0hPa | 2.5V | 00:00:00 | 00:00:00 | 00:00:00 | |
| GOEST3-10 | 2026-08-31 02:26:40 | 53.11686 | 6.62310 | 28° | 80km/h | 8033m | -3.0m/s | -37.1°C | 86.9% | 358.8hPa | 2.5V | 00:00:00 | 03:01:14 | 00:00:00 | |
| DC6BW-12 | 2026-08-31 02:26:38 | 53.11668 | 6.62295 | 28° | 80km/h | 8036m | -2.9m/s | -37.1°C | 79.5% | 358.6hPa | 2.6V | 00:00:00 | 00:00:00 | 00:00:00 | |
| DF5WG-10 | 2026-08-31 02:26:37 | 53.11631 | 6.62264 | 27° | 84km/h | 8042m | -2.8m/s | -37.1°C | 85.1% | 358.2hPa | 2.6V | 00:00:00 | 03:01:11 | 00:00:00 | |
| DM0DOS-11 | 2026-08-31 02:26:36 | 53.11519 | 6.62167 | 30° | 84km/h | 8059m | -2.9m/s | -37.4°C | 84.2% | 357.5hPa | 2.6V | 07:28:17 | 03:01:05 | 00:00:00 | |
| DL1XH-west | 2026-08-31 02:26:36 | 53.11612 | 6.62249 | 26° | 82km/h | 8045m | -2.9m/s | -37.2°C | 82.6% | 358.1hPa | 2.6V | 07:28:19 | 03:01:10 | 00:00:00 | |
| BIOWL1-15 | 2026-08-31 02:26:33 | 53.11556 | 6.62202 | 28° | 84km/h | 8053m | -2.9m/s | -37.3°C | 82.5% | 357.7hPa | 2.5V | 07:28:19 | 03:01:07 | 00:00:00 | |
| DL1XH-15 | 2026-08-31 02:26:31 | 53.11433 | 6.62069 | 37° | 78km/h | 8073m | -2.7m/s | -37.5°C | 83.9% | 356.7hPa | 2.6V | 07:28:22 | 03:01:00 | 00:00:00 | |
| DB0UT-7 | 2026-08-31 02:26:31 | 53.11519 | 6.62167 | 31° | 78km/h | 8059m | -2.9m/s | -37.3°C | 84.2% | 357.4hPa | 2.6V | 00:00:00 | 00:00:00 | 00:00:00 | |
| GOEST3-10 | 2026-08-31 02:26:30 | 53.11501 | 6.62149 | 33° | 82km/h | 8062m | -2.7m/s | -37.3°C | 84.1% | 357.2hPa | 2.6V | 00:00:00 | 03:01:04 | 00:00:00 | |
| DO9LL-15 | 2026-08-31 02:26:29 | 53.11483 | 6.62129 | 35° | 80km/h | 8065m | -2.7m/s | -37.4°C | 84.3% | 357.0hPa | 2.6V | 00:00:00 | 03:01:03 | 00:00:00 | |
| DF5WG-10 | 2026-08-31 02:26:27 | 53.11449 | 6.62089 | 37° | 75km/h | 8070m | -2.7m/s | -37.4°C | 84.0% | 356.8hPa | 2.6V | 00:00:00 | 03:01:01 | 00:00:00 | |
| DM0DOS-11 | 2026-08-31 02:26:26 | 53.11354 | 6.61981 | 29° | 71km/h | 8088m | -3.3m/s | -37.5°C | 81.4% | 356hPa | 2.6V | 07:28:27 | 03:00:55 | 00:00:00 | |
| BIOWL1-15 | 2026-08-31 02:26:25 | 53.11386 | 6.62013 | 33° | 75km/h | 8082m | -2.6m/s | -37.5°C | 78.2% | 356.3hPa | 2.5V | 07:29:10 | 03:00:57 | 00:00:00 | |
| DL1XH-west | 2026-08-31 02:26:25 | 53.11417 | 6.62049 | 36° | 77km/h | 8076m | -3.2m/s | -37.5°C | 79.7% | 356.6hPa | 2.5V | 07:29:10 | 03:00:59 | 00:00:00 | |
| WEDDY | 2026-08-31 02:26:24 | 53.11417 | 6.62049 | 37° | 77km/h | 8076m | -3.2m/s | -37.5°C | 76.5% | 356.6hPa | 2.6V | 07:29:00 | 00:00:00 | 00:00:00 | |
| DL1XH-15 | 2026-08-31 02:26:21 | 53.11273 | 6.61914 | 24° | 73km/h | 8104m | -3.3m/s | -37.7°C | 82.7% | 355.1hPa | 2.6V | 07:28:32 | 03:00:50 | 00:00:00 | |
| GOEST3-10 | 2026-08-31 02:26:20 | 53.11338 | 6.61967 | 28° | 71km/h | 8091m | -3.1m/s | -37.5°C | 82.2% | 355.8hPa | 2.6V | 00:00:00 | 03:00:54 | 00:00:00 | |
| DF5WG-10 | 2026-08-31 02:26:17 | 53.11290 | 6.61927 | 26° | 80km/h | 8100m | -3.2m/s | -37.6°C | 82.8% | 355.3hPa | 2.6V | 00:00:00 | 03:00:51 | 00:00:00 | |
| DM0DOS-11 | 2026-08-31 02:26:16 | 53.11183 | 6.61847 | 25° | 84km/h | 8119m | -3m/s | -37.8°C | 84.4% | 354.4hPa | 2.6V | 07:28:37 | 03:00:45 | 00:00:00 | |
| DL1XH-west | 2026-08-31 02:26:14 | 53.11239 | 6.61888 | 24° | 77km/h | 8110m | -2.9m/s | -37.8°C | 80.3% | 354.8hPa | 2.5V | 07:29:10 | 03:00:48 | 00:00:00 | |
| BIOWL1-15 | 2026-08-31 02:26:12 | 53.11202 | 6.61862 | 24° | 82km/h | 8116m | -2.8m/s | -37.8°C | 81% | 354.5hPa | 2.6V | 07:29:10 | 03:00:46 | 00:00:00 | |
| DL1XH-15 | 2026-08-31 02:26:11 | 53.11089 | 6.61756 | 34° | 86km/h | 8133m | -2.9m/s | -38°C | 82.4% | 353.6hPa | 2.6V | 07:28:42 | 03:00:40 | 00:00:00 | |
| DL4BBY-15 | 2026-08-31 02:26:11 | 53.11183 | 6.61847 | 26° | 84km/h | 8119m | -2.9m/s | -38.1°C | 0% | 0hPa | 2.5V | 00:00:00 | 00:00:00 | 00:00:00 | |
| GOEST3-10 | 2026-08-31 02:26:10 | 53.11164 | 6.61831 | 28° | 86km/h | 8122m | -2.9m/s | -37.8°C | 84.6% | 354.2hPa | 2.5V | 00:00:00 | 03:00:44 | 00:00:00 | |
| BIOWL7-15 | 2026-08-31 02:26:08 | 53.11145 | 6.61814 | 30° | 88km/h | 8124m | -2.9m/s | -37.9°C | 77.3% | 354.1hPa | 2.6V | 07:29:00 | 00:00:00 | 00:00:00 | |
| DF5WG-10 | 2026-08-31 02:26:07 | 53.11107 | 6.61776 | 33° | 80km/h | 8130m | -2.8m/s | -37.9°C | 82.9% | 353.8hPa | 2.6V | 00:00:00 | 03:00:41 | 00:00:00 | |
| DM0DOS-11 | 2026-08-31 02:26:06 | 53.11006 | 6.61653 | 37° | 78km/h | 8147m | -3m/s | -38.1°C | 79.5% | 352.9hPa | 2.6V | 07:28:47 | 03:00:35 | 00:00:00 | |
| BIOWL1-15 | 2026-08-31 02:26:03 | 53.11022 | 6.61673 | 38° | 80km/h | 8144m | -2.9m/s | -38.1°C | 77.5% | 353.1hPa | 2.6V | 07:29:10 | 03:00:36 | 00:00:00 | |
| DL1XH-west | 2026-08-31 02:26:03 | 53.11038 | 6.61694 | 38° | 82km/h | 8142m | -2.7m/s | -38°C | 77.9% | 353.3hPa | 2.5V | 07:29:10 | 03:00:37 | 00:00:00 | |
| DB0UT-7 | 2026-08-31 02:26:01 | 53.11006 | 6.61653 | 38° | 86km/h | 8147m | -3.0m/s | -38.0°C | 79.5% | 352.9hPa | 2.6V | 00:00:00 | 03:00:35 | 00:00:00 | |
| GOEST3-10 | 2026-08-31 02:26:00 | 53.10990 | 6.61633 | 37° | 78km/h | 8150m | -3.0m/s | -38.0°C | 79.5% | 352.7hPa | 2.6V | 00:00:00 | 03:00:34 | 00:00:00 | |
| DO9LL-15 | 2026-08-31 02:25:58 | 53.10958 | 6.61596 | 33° | 88km/h | 8156m | -2.2m/s | -38.1°C | 80.7% | 352.4hPa | 2.6V | 00:00:00 | 03:00:32 | 00:00:00 | |
| DF5WG-10 | 2026-08-31 02:25:57 | 53.10941 | 6.61579 | 30° | 84km/h | 8158m | -2.1m/s | -38.1°C | 80.6% | 352.3hPa | 2.6V | 00:00:00 | 03:00:31 | 00:00:00 | |
| DM0DOS-11 | 2026-08-31 02:25:56 | 53.10828 | 6.61489 | 23° | 86km/h | 8174m | -2.4m/s | -38.3°C | 81.8% | 351.5hPa | 2.6V | 07:28:57 | 03:00:25 | 00:00:00 | |
| DL1XH-west | 2026-08-31 02:25:53 | 53.10867 | 6.61518 | 25° | 84km/h | 8168m | -2.8m/s | -38.3°C | 78% | 351.8hPa | 2.5V | 07:29:10 | 03:00:27 | 00:00:00 | |
| BIOWL1-15 | 2026-08-31 02:25:51 | 53.10828 | 6.61489 | 24° | 86km/h | 8174m | -2.4m/s | -38.3°C | 78.1% | 351.5hPa | 2.6V | 07:29:10 | 03:00:25 | 00:00:00 | |
| GOEST3-10 | 2026-08-31 02:25:50 | 53.10808 | 6.61474 | 24° | 88km/h | 8177m | -2.6m/s | -38.3°C | 82.3% | 351.3hPa | 2.6V | 00:00:00 | 03:00:24 | 00:00:00 | |
| DC6BW-12 | 2026-08-31 02:25:49 | 53.10808 | 6.61474 | 25° | 86km/h | 8177m | -2.7m/s | -38.4°C | 75.5% | 351.4hPa | 2.6V | 07:29:00 | 00:00:00 | 00:00:00 | |
| DF5WG-10 | 2026-08-31 02:25:47 | 53.10747 | 6.61429 | 25° | 89km/h | 8185m | -2.6m/s | -38.4°C | 81.5% | 350.9hPa | 2.6V | 07:29:00 | 03:00:21 | 00:00:00 | |
| DM0DOS-11 | 2026-08-31 02:25:46 | 53.10624 | 6.61332 | 27° | 91km/h | 8201m | -2.6m/s | -38.6°C | 82.3% | 350.2hPa | 2.6V | 07:29:07 | 03:00:15 | 00:00:00 | |
| MET0W-2 | 2026-08-31 02:25:45 | 53.10686 | 6.61382 | 25° | 89km/h | 8193m | -2.5m/s | -38.5°C | 74.9% | 350.5hPa | 2.6V | 00:00:00 | 00:00:00 | 00:00:00 | |
| DL1XH-west | 2026-08-31 02:25:42 | 53.10645 | 6.61349 | 27° | 91km/h | 8198m | -2.7m/s | -38.6°C | 77.6% | 350.3hPa | 2.6V | 07:29:10 | 03:00:16 | 00:00:00 | |
| DL1XH-15 | 2026-08-31 02:25:41 | 53.10525 | 6.61239 | 29° | 88km/h | 8215m | -3m/s | -38.7°C | 78.1% | 349.4hPa | 2.6V | 07:29:12 | 03:00:10 | 00:00:00 | |
| BIOWL1-15 | 2026-08-31 02:25:40 | 53.10604 | 6.61314 | 29° | 91km/h | 8203m | -2.7m/s | -38.6°C | 77.9% | 350hPa | 2.5V | 07:29:10 | 03:00:14 | 00:00:00 | |
| BIOWL9-15 | 2026-08-31 02:25:39 | 53.10584 | 6.61295 | 29° | 89km/h | 8206m | -2.7m/s | -38.7°C | 75.5% | 349.9hPa | 2.6V | 00:00:00 | 00:00:00 | 00:00:00 | |
| DF5WG-10 | 2026-08-31 02:25:37 | 53.10545 | 6.61257 | 31° | 86km/h | 8212m | -2.9m/s | -38.7°C | 80.2% | 349.6hPa | 2.6V | 00:00:00 | 03:00:11 | 00:00:00 | |
| DM0DOS-11 | 2026-08-31 02:25:36 | 53.10430 | 6.61160 | 23° | 84km/h | 8230m | -3.2m/s | -38.8°C | 64.6% | 348.6hPa | 2.6V | 07:29:17 | 03:00:05 | 00:00:00 | |
| DL1XH-west | 2026-08-31 02:25:32 | 53.10450 | 6.61175 | 24° | 82km/h | 8227m | -3.2m/s | -38.7°C | 63.9% | 348.9hPa | 2.6V | 07:30:01 | 03:00:06 | 00:00:00 | |
| DL1XH-15 | 2026-08-31 02:25:31 | 53.10328 | 6.61090 | 22° | 91km/h | 8246m | -3m/s | -38.9°C | 54.4% | 347.9hPa | 2.6V | 07:29:22 | 03:00:00 | 00:00:00 | |
| DB0UT-7 | 2026-08-31 02:25:31 | 53.10430 | 6.61160 | 24° | 89km/h | 8230m | -3.1m/s | -38.7°C | 64.6% | 348.6hPa | 2.6V | 00:00:00 | 00:00:00 | 00:00:00 | |
| GOEST3-10 | 2026-08-31 02:25:30 | 53.10410 | 6.61147 | 23° | 88km/h | 8233m | -3.1m/s | -38.8°C | 62.7% | 348.5hPa | 2.6V | 00:00:00 | 03:00:04 | 00:00:00 | |
| BIOWL1-15 | 2026-08-31 02:25:30 | 53.10410 | 6.61147 | 23° | 86km/h | 8233m | -3.2m/s | -38.8°C | 61.4% | 348.5hPa | 2.5V | 07:30:01 | 03:00:04 | 00:00:00 | |
| DC6BW-12 | 2026-08-31 02:25:29 | 53.10410 | 6.61147 | 24° | 86km/h | 8233m | -3.2m/s | -38.8°C | 57.1% | 348.5hPa | 2.6V | 07:30:00 | 00:00:00 | 00:00:00 | |
| DF5WG-10 | 2026-08-31 02:25:27 | 53.10349 | 6.61104 | 23° | 93km/h | 8243m | -3.1m/s | -38.8°C | 57.1% | 348.0hPa | 2.6V | 00:00:00 | 03:00:01 | 00:00:00 | |
| DM0DOS-11 | 2026-08-31 02:25:26 | 53.10220 | 6.61006 | 27° | 97km/h | 8261m | -3m/s | -38.8°C | 38.7% | 347.1hPa | 2.6V | 07:29:27 | 02:59:55 | 00:00:00 | |
| GOEST3-10 | 2026-08-31 02:25:25 | 53.10307 | 6.61074 | 24° | 95km/h | 8249m | -3.0m/s | -38.8°C | 49.4% | 347.6hPa | 2.5V | 00:00:00 | 00:00:00 | 00:00:00 | |
| WEDDY | 2026-08-31 02:25:22 | 53.10263 | 6.61042 | 26° | 95km/h | 8255m | -2.9m/s | -38.8°C | 39.6% | 347.3hPa | 2.6V | 07:30:00 | 00:00:00 | 00:00:00 | |
| DL1XH-15 | 2026-08-31 02:25:21 | 53.10118 | 6.60905 | 33° | 89km/h | 8276m | -3m/s | -38.9°C | 36.8% | 346.3hPa | 2.6V | 07:29:32 | 02:59:50 | 00:00:00 | |
| DL1XH-west | 2026-08-31 02:25:21 | 53.10220 | 6.61006 | 28° | 97km/h | 8261m | -3m/s | -38.8°C | 39.5% | 347.1hPa | 2.6V | 07:30:01 | 02:59:55 | 00:00:00 | |
| BIOWL1-15 | 2026-08-31 02:25:19 | 53.10178 | 6.60967 | 30° | 95km/h | 8267m | -3m/s | -38.8°C | 38.5% | 346.8hPa | 2.5V | 07:30:01 | 02:59:53 | 00:00:00 | |
| DF5WG-10 | 2026-08-31 02:25:17 | 53.10137 | 6.60926 | 33° | 86km/h | 8273m | -2.9m/s | -38.8°C | 37.0% | 346.4hPa | 2.6V | 00:00:00 | 02:59:51 | 00:00:00 | |
| DM0DOS-11 | 2026-08-31 02:25:16 | 53.10027 | 6.60812 | 27° | 80km/h | 8291m | -3.1m/s | -39°C | 34.3% | 345.6hPa | 2.6V | 07:29:37 | 02:59:45 | 00:00:00 | |
| DL1XH-west | 2026-08-31 02:25:11 | 53.10027 | 6.60812 | 28° | 80km/h | 8291m | -3.1m/s | -39°C | 35.9% | 345.6hPa | 2.6V | 07:30:01 | 02:59:45 | 00:00:00 | |
| BIOWL1-15 | 2026-08-31 02:25:08 | 53.09970 | 6.60769 | 23° | 88km/h | 8301m | -3.2m/s | -39.1°C | 35% | 345.1hPa | 2.5V | 07:30:01 | 02:59:42 | 00:00:00 | |
| DF5WG-10 | 2026-08-31 02:25:07 | 53.09949 | 6.60754 | 23° | 95km/h | 8304m | -2.9m/s | -39.0°C | 33.2% | 344.9hPa | 2.6V | 00:00:00 | 02:59:41 | 00:00:00 | |
| DM0DOS-11 | 2026-08-31 02:25:06 | 53.09818 | 6.60650 | 29° | 97km/h | 8322m | -3.2m/s | -39.3°C | 35% | 344hPa | 2.6V | 07:29:47 | 02:59:35 | 00:00:00 | |
| GOEST3-10 | 2026-08-31 02:25:05 | 53.09906 | 6.60724 | 25° | 97km/h | 8310m | -3.0m/s | -39.1°C | 34.3% | 344.6hPa | 2.6V | 00:00:00 | 00:00:00 | 00:00:00 | |
| WEDDY | 2026-08-31 02:25:02 | 53.09862 | 6.60689 | 28° | 97km/h | 8316m | -3.1m/s | -39.2°C | 31.1% | 344.3hPa | 2.6V | 07:30:00 | 00:00:00 | 00:00:00 | |
| DL1XH-15 | 2026-08-31 02:25:01 | 53.09718 | 6.60546 | 33° | 88km/h | 8337m | -3.1m/s | -39.4°C | 33.3% | 343.2hPa | 2.6V | 07:29:52 | 02:59:30 | 00:00:00 | |
| DL1XH-west | 2026-08-31 02:25:01 | 53.09818 | 6.60650 | 30° | 97km/h | 8322m | -3.2m/s | -39.3°C | 36.1% | 344hPa | 2.6V | 07:30:01 | 02:59:35 | 00:00:00 | |
| BIOWL1-15 | 2026-08-31 02:24:58 | 53.09756 | 6.60588 | 33° | 93km/h | 8331m | -3m/s | -39.4°C | 35% | 343.6hPa | 2.5V | 07:30:01 | 02:59:32 | 00:00:00 | |
| DF5WG-10 | 2026-08-31 02:24:57 | 53.09737 | 6.60567 | 34° | 84km/h | 8334m | -3.0m/s | -39.3°C | 33.7% | 343.3hPa | 2.6V | 00:00:00 | 02:59:31 | 00:00:00 | |
| DM0DOS-11 | 2026-08-31 02:24:56 | 53.09629 | 6.60457 | 26° | 80km/h | 8352m | -3.1m/s | -39.5°C | 29.7% | 342.5hPa | 2.6V | 07:29:57 | 02:59:25 | 00:00:00 | |
| DL1XH-west | 2026-08-31 02:24:50 | 53.09610 | 6.60442 | 25° | 82km/h | 8355m | -2.9m/s | -39.5°C | 30% | 342.4hPa | 2.5V | 07:30:01 | 02:59:24 | 00:00:00 | |
| GOEST3-10 | 2026-08-31 02:24:50 | 53.09610 | 6.60442 | 25° | 88km/h | 8355m | -2.9m/s | -39.5°C | 28.8% | 342.3hPa | 2.6V | 00:00:00 | 02:59:24 | 00:00:00 | |
| BIOWL1-15 | 2026-08-31 02:24:50 | 53.09571 | 6.60413 | 23° | 88km/h | 8362m | -2.9m/s | -39.6°C | 28.6% | 342.1hPa | 2.5V | 07:30:01 | 02:59:22 | 00:00:00 | |
| DF5WG-10 | 2026-08-31 02:24:47 | 53.09551 | 6.60399 | 23° | 95km/h | 8365m | -2.9m/s | -39.6°C | 26.7% | 341.8hPa | 2.6V | 00:00:00 | 02:59:21 | 00:00:00 | |
| DM0DOS-11 | 2026-08-31 02:24:46 | 53.09421 | 6.60292 | 30° | 97km/h | 8383m | -3m/s | -39.7°C | 21.9% | 341hPa | 2.6V | 07:30:07 | 02:59:15 | 00:00:00 | |
| GOEST3-10 | 2026-08-31 02:24:45 | 53.09508 | 6.60368 | 25° | 97km/h | 8370m | -2.9m/s | -39.6°C | 25.5% | 341.6hPa | 2.5V | 00:00:00 | 00:00:00 | 00:00:00 | |
| MET0W-2 | 2026-08-31 02:24:43 | 53.09442 | 6.60312 | 29° | 97km/h | 8380m | -3.1m/s | -39.7°C | 20.1% | 341.1hPa | 2.5V | 00:00:00 | 00:00:00 | 00:00:00 | |
| HTAHTA | 2026-08-31 02:24:42 | 53.09442 | 6.60312 | 29° | 97km/h | 8380m | -3.1m/s | -39.7°C | 20.1% | 341.1hPa | 2.5V | 00:00:00 | 00:00:00 | 00:00:00 | |
| DL4BBY-15 | 2026-08-31 02:24:41 | 53.09421 | 6.60292 | 31° | 89km/h | 8382m | -2.9m/s | -40.0°C | 0% | 0hPa | 2.5V | 00:00:00 | 00:00:00 | 00:00:00 | |
| DL1XH-15 | 2026-08-31 02:24:40 | 53.09305 | 6.60172 | 29° | 82km/h | 8401m | -3m/s | -39.8°C | 16.4% | 340.1hPa | 2.5V | 07:30:13 | 02:59:09 | 00:00:00 | |
| DL1XH-west | 2026-08-31 02:24:39 | 53.09380 | 6.60250 | 33° | 93km/h | 8389m | -3m/s | -39.8°C | 20.5% | 340.7hPa | 2.5V | 07:30:52 | 02:59:13 | 00:00:00 | |
| BIOWL1-15 | 2026-08-31 02:24:37 | 53.09342 | 6.60209 | 33° | 88km/h | 8394m | -3.1m/s | -39.8°C | 18.5% | 340.4hPa | 2.6V | 07:30:52 | 02:59:11 | 00:00:00 | |
| DF5WG-10 | 2026-08-31 02:24:37 | 53.09342 | 6.60209 | 33° | 84km/h | 8394m | -3.0m/s | -39.8°C | 17.4% | 340.4hPa | 2.6V | 00:00:00 | 02:59:11 | 00:00:00 | |
| DM0DOS-11 | 2026-08-31 02:24:36 | 53.09230 | 6.60110 | 23° | 84km/h | 8412m | -3m/s | -39.9°C | 15.4% | 339.5hPa | 2.6V | 07:30:17 | 02:59:05 | 00:00:00 | |
| GOEST3-10 | 2026-08-31 02:24:35 | 53.09305 | 6.60172 | 30° | 82km/h | 8401m | -3.0m/s | -39.8°C | 16.4% | 340.1hPa | 2.6V | 00:00:00 | 00:00:00 | 00:00:00 | |
| DO9LL-15 | 2026-08-31 02:24:31 | 53.09230 | 6.60110 | 24° | 89km/h | 8413m | -3.0m/s | -39.9°C | 15.4% | 339.5hPa | 2.6V | 00:00:00 | 02:59:05 | 00:00:00 | |
| DL1XH-15 | 2026-08-31 02:24:30 | 53.09109 | 6.60030 | 20° | 89km/h | 8430m | -2.8m/s | -40°C | 13.7% | 338.6hPa | 2.5V | 07:30:23 | 02:58:59 | 00:00:00 | |
| DL1XH-west | 2026-08-31 02:24:29 | 53.09191 | 6.60083 | 22° | 86km/h | 8419m | -2.8m/s | -40°C | 15.3% | 339.2hPa | 2.5V | 07:30:52 | 02:59:03 | 00:00:00 | |
| DF5WG-10 | 2026-08-31 02:24:27 | 53.09150 | 6.60056 | 21° | 93km/h | 8425m | -2.8m/s | -39.9°C | 14.2% | 338.9hPa | 2.6V | 07:30:00 | 02:59:01 | 00:00:00 | |
| DM0DOS-11 | 2026-08-31 02:24:26 | 53.09021 | 6.59974 | 22° | 97km/h | 8441m | -2.8m/s | -40°C | 13.3% | 338.1hPa | 2.6V | 07:30:27 | 02:58:55 | 00:00:00 | |
| BIOWL1-15 | 2026-08-31 02:24:26 | 53.09130 | 6.60043 | 21° | 88km/h | 8427m | -2.8m/s | -40°C | 14.5% | 338.8hPa | 2.6V | 07:30:52 | 02:59:00 | 00:00:00 | |
| DL1XH-west | 2026-08-31 02:24:18 | 53.08954 | 6.59922 | 28° | 99km/h | 8450m | -3m/s | -40.1°C | 13.6% | 337.7hPa | 2.5V | 07:30:52 | 02:58:52 | 00:00:00 | |
| DF5WG-10 | 2026-08-31 02:24:17 | 53.08932 | 6.59902 | 30° | 86km/h | 8453m | -2.9m/s | -40.0°C | 13.0% | 337.4hPa | 2.6V | 00:00:00 | 02:58:51 | 00:00:00 | |
| DM0DOS-11 | 2026-08-31 02:24:16 | 53.08817 | 6.59785 | 30° | 82km/h | 8470m | -2.9m/s | -40.2°C | 12.8% | 336.6hPa | 2.6V | 07:30:37 | 02:58:45 | 00:00:00 | |
| BIOWL1-15 | 2026-08-31 02:24:16 | 53.08912 | 6.59882 | 31° | 95km/h | 8456m | -2.8m/s | -40.1°C | 13.5% | 337.4hPa | 2.6V | 07:30:52 | 02:58:50 | 00:00:00 | |
| DL1XH-west | 2026-08-31 02:24:08 | 53.08763 | 6.59738 | 24° | 80km/h | 8479m | -3m/s | -40.1°C | 13.4% | 336.2hPa | 2.5V | 07:30:52 | 02:58:42 | 00:00:00 | |
| DL1XH-15 | 2026-08-31 02:24:07 | 53.08640 | 6.59655 | 23° | 95km/h | 8497m | -3m/s | -40.2°C | 13.2% | 335.3hPa | 2.6V | 07:30:46 | 02:58:36 | 00:00:00 | |
| BIOWL1-15 | 2026-08-31 02:24:06 | 53.08725 | 6.59711 | 21° | 86km/h | 8485m | -2.9m/s | -40.1°C | 13.7% | 335.9hPa | 2.6V | 07:30:52 | 02:58:40 | 00:00:00 | |
| DL1XH-west | 2026-08-31 02:23:57 | 53.08533 | 6.59562 | 31° | 93km/h | 8512m | -3.1m/s | -40.3°C | 13.9% | 334.6hPa | 2.5V | 07:30:52 | 02:58:31 | 00:00:00 | |
| BIOWL1-15 | 2026-08-31 02:23:56 | 53.08513 | 6.59542 | 32° | 91km/h | 8516m | -3.1m/s | -40.3°C | 13.8% | 334.5hPa | 2.6V | 07:30:52 | 02:58:30 | 00:00:00 | |
| DL1XH-west | 2026-08-31 02:23:47 | 53.08334 | 6.59395 | 21° | 91km/h | 8544m | -3.2m/s | -40.5°C | 13.9% | 333.1hPa | 2.5V | 07:31:43 | 02:58:21 | 00:00:00 | |
| BIOWL1-15 | 2026-08-31 02:23:45 | 53.08290 | 6.59367 | 21° | 93km/h | 8550m | -3.1m/s | -40.6°C | 14% | 332.7hPa | 2.5V | 07:31:43 | 02:58:19 | 00:00:00 | |
| DC4HF-4 | 2026-08-31 02:23:42 | 53.08223 | 6.59322 | 22° | 97km/h | 8559m | -2.9m/s | -40.7°C | 11.1% | 332.3hPa | 2.5V | 00:00:00 | 00:00:00 | 00:00:00 | |
| DL4BBY-15 | 2026-08-31 02:23:41 | 53.08200 | 6.59306 | 24° | 97km/h | 8562m | -2.9m/s | -41.0°C | 0% | 0hPa | 2.5V | 00:00:00 | 00:00:00 | 00:00:00 | |
| GOEST3-10 | 2026-08-31 02:23:40 | 53.08177 | 6.59290 | 25° | 99km/h | 8565m | -2.9m/s | -40.7°C | 13.5% | 331.9hPa | 2.5V | 00:00:00 | 02:58:14 | 00:00:00 | |
| DF5WG-10 | 2026-08-31 02:23:37 | 53.08109 | 6.59234 | 29° | 91km/h | 8574m | -3.0m/s | -40.7°C | 13.7% | 331.6hPa | 2.6V | 00:00:00 | 02:58:11 | 00:00:00 | |
| BIOWL1-15 | 2026-08-31 02:23:37 | 53.08067 | 6.59194 | 31° | 95km/h | 8580m | -3.1m/s | -40.8°C | 14.5% | 331.3hPa | 2.5V | 07:31:43 | 02:58:09 | 00:00:00 | |
| DM0DOS-11 | 2026-08-31 02:23:36 | 53.07988 | 6.59119 | 27° | 88km/h | 8592m | -3m/s | -40.9°C | 13.9% | 330.7hPa | 2.6V | 07:31:17 | 02:58:05 | 00:00:00 | |
| DL1XH-west | 2026-08-31 02:23:36 | 53.08088 | 6.59215 | 30° | 97km/h | 8576m | -3.1m/s | -40.8°C | 14.4% | 331.4hPa | 2.5V | 07:31:43 | 02:58:10 | 00:00:00 | |
| GOEST3-10 | 2026-08-31 02:23:35 | 53.08067 | 6.59194 | 31° | 89km/h | 8580m | -3.0m/s | -40.8°C | 13.7% | 331.3hPa | 2.6V | 07:31:00 | 00:00:00 | 00:00:00 | |
| DB0UT-7 | 2026-08-31 02:23:31 | 53.07988 | 6.59119 | 28° | 95km/h | 8592m | -3.0m/s | -40.9°C | 13.9% | 330.6hPa | 2.6V | 00:00:00 | 00:00:00 | 00:00:00 | |
| DO9LL-15 | 2026-08-31 02:23:30 | 53.07968 | 6.59103 | 26° | 97km/h | 8595m | -3.2m/s | -40.9°C | 13.8% | 330.5hPa | 2.5V | 00:00:00 | 02:58:04 | 00:00:00 | |
| DF5WG-10 | 2026-08-31 02:23:27 | 53.07905 | 6.59056 | 23° | 99km/h | 8604m | -2.9m/s | -41.0°C | 13.8% | 330.1hPa | 2.5V | 00:00:00 | 02:58:01 | 00:00:00 | |
| DM0DOS-11 | 2026-08-31 02:23:26 | 53.07769 | 6.58954 | 26° | 102km/h | 8623m | -2.9m/s | -41.2°C | 13.9% | 329.2hPa | 2.6V | 07:31:27 | 02:57:55 | 00:00:00 | |
| DL1XH-west | 2026-08-31 02:23:25 | 53.07861 | 6.59025 | 24° | 99km/h | 8610m | -3.2m/s | -41.1°C | 14.6% | 329.8hPa | 2.6V | 07:31:43 | 02:57:59 | 00:00:00 | |
| BIOWL1-15 | 2026-08-31 02:23:24 | 53.07838 | 6.59008 | 24° | 99km/h | 8614m | -3.1m/s | -41.1°C | 14.6% | 329.7hPa | 2.5V | 07:31:43 | 02:57:58 | 00:00:00 | |
| GOEST3-10 | 2026-08-31 02:23:20 | 53.07746 | 6.58935 | 28° | 100km/h | 8626m | -2.9m/s | -41.1°C | 13.9% | 329.0hPa | 2.5V | 00:00:00 | 02:57:54 | 00:00:00 | |
| WEDDY | 2026-08-31 02:23:19 | 53.07746 | 6.58935 | 28° | 102km/h | 8626m | -2.9m/s | -41.2°C | 11.5% | 329.1hPa | 2.5V | 07:31:00 | 00:00:00 | 00:00:00 | |
| DF5WG-10 | 2026-08-31 02:23:17 | 53.07679 | 6.58873 | 31° | 97km/h | 8635m | -3.0m/s | -41.2°C | 13.5% | 328.5hPa | 2.5V | 00:00:00 | 02:57:51 | 00:00:00 | |
| DM0DOS-11 | 2026-08-31 02:23:16 | 53.07552 | 6.58742 | 33° | 95km/h | 8653m | -2.9m/s | -41.3°C | 13.2% | 327.7hPa | 2.5V | 07:31:37 | 02:57:45 | 00:00:00 | |
| DL1XH-west | 2026-08-31 02:23:14 | 53.07614 | 6.58809 | 32° | 99km/h | 8644m | -3m/s | -41.3°C | 14% | 328.2hPa | 2.5V | 07:31:43 | 02:57:48 | 00:00:00 | |
| DL4BBY-15 | 2026-08-31 02:23:11 | 53.07552 | 6.58742 | 34° | 97km/h | 8653m | -2.9m/s | -41.6°C | 0% | 0hPa | 2.6V | 00:00:00 | 00:00:00 | 00:00:00 | |
| GOEST3-10 | 2026-08-31 02:23:10 | 53.07532 | 6.58720 | 34° | 89km/h | 8656m | -2.9m/s | -41.3°C | 13.2% | 327.5hPa | 2.6V | 00:00:00 | 02:57:44 | 00:00:00 | |
| HTAHTA | 2026-08-31 02:23:09 | 53.07513 | 6.58699 | 33° | 89km/h | 8658m | -3.2m/s | -41.4°C | 10.9% | 327.5hPa | 2.5V | 00:00:00 | 00:00:00 | 00:00:00 | |
| DF5WG-10 | 2026-08-31 02:23:07 | 53.07474 | 6.58659 | 32° | 95km/h | 8665m | -3.1m/s | -41.4°C | 13.2% | 327.1hPa | 2.5V | 07:31:00 | 02:57:41 | 00:00:00 | |
| DM0DOS-11 | 2026-08-31 02:23:06 | 53.07350 | 6.58551 | 26° | 100km/h | 8683m | -3.1m/s | -41.5°C | 13.1% | 326.4hPa | 2.5V | 07:31:47 | 02:57:35 | 00:00:00 | |
| DL1XH-west | 2026-08-31 02:23:03 | 53.07394 | 6.58586 | 26° | 95km/h | 8678m | -3m/s | -41.5°C | 13.8% | 326.6hPa | 2.6V | 07:32:34 | 02:57:37 | 00:00:00 | |
| DB0UT-7 | 2026-08-31 02:23:01 | 53.07350 | 6.58551 | 27° | 102km/h | 8684m | -3.1m/s | -41.5°C | 13.1% | 326.3hPa | 2.5V | 00:00:00 | 02:57:35 | 00:00:00 | |
| DO9LL-15 | 2026-08-31 02:23:00 | 53.07327 | 6.58532 | 27° | 102km/h | 8687m | -3.2m/s | -41.5°C | 13.1% | 326.1hPa | 2.5V | 00:00:00 | 02:57:34 | 00:00:00 | |
| WEDDY | 2026-08-31 02:22:59 | 53.07327 | 6.58532 | 28° | 102km/h | 8687m | -3.2m/s | -41.6°C | 10.7% | 326.2hPa | 2.6V | 07:32:00 | 00:00:00 | 00:00:00 | |
| DF5WG-10 | 2026-08-31 02:22:57 | 53.07258 | 6.58472 | 29° | 99km/h | 8697m | -3.1m/s | -41.6°C | 13.3% | 325.7hPa | 2.6V | 00:00:00 | 02:57:31 | 00:00:00 | |
| DM0DOS-11 | 2026-08-31 02:22:56 | 53.07127 | 6.58343 | 31° | 97km/h | 8715m | -3.5m/s | -41.7°C | 13.4% | 324.8hPa | 2.6V | 07:31:57 | 02:57:25 | 00:00:00 | |
| DL1XH-west | 2026-08-31 02:22:53 | 53.07170 | 6.58386 | 31° | 100km/h | 8709m | -2.8m/s | -41.7°C | 14% | 325.1hPa | 2.5V | 07:32:34 | 02:57:27 | 00:00:00 | |
| GOEST3-10 | 2026-08-31 02:22:50 | 53.07106 | 6.58322 | 31° | 95km/h | 8719m | -3.5m/s | -41.7°C | 13.5% | 324.6hPa | 2.5V | 00:00:00 | 02:57:24 | 00:00:00 | |
| DF5WG-10 | 2026-08-31 02:22:47 | 53.07042 | 6.58265 | 27° | 100km/h | 8729m | -3.0m/s | -41.8°C | 13.7% | 324.2hPa | 2.5V | 00:00:00 | 02:57:21 | 00:00:00 | |
| DM0DOS-11 | 2026-08-31 02:22:46 | 53.06907 | 6.58160 | 24° | 102km/h | 8748m | -3m/s | -42°C | 14.4% | 323.2hPa | 2.5V | 07:32:07 | 02:57:15 | 00:00:00 | |
| BIOWL1-15 | 2026-08-31 02:22:45 | 53.06953 | 6.58195 | 25° | 100km/h | 8741m | -3.2m/s | -41.9°C | 14.9% | 323.5hPa | 2.5V | 07:32:34 | 02:57:17 | 00:00:00 | |
| DL1XH-west | 2026-08-31 02:22:42 | 53.06930 | 6.58177 | 24° | 100km/h | 8745m | -3.2m/s | -41.9°C | 15% | 323.4hPa | 2.5V | 07:32:34 | 02:57:16 | 00:00:00 | |
| DL4BBY-15 | 2026-08-31 02:22:41 | 53.06907 | 6.58160 | 25° | 104km/h | 8747m | -3.0m/s | -42.3°C | 0% | 0hPa | 2.6V | 00:00:00 | 00:00:00 | 00:00:00 | |
| GOEST3-10 | 2026-08-31 02:22:40 | 53.06883 | 6.58142 | 25° | 104km/h | 8751m | -3.1m/s | -41.9°C | 14.6% | 323.0hPa | 2.6V | 00:00:00 | 02:57:14 | 00:00:00 | |
| WEDDY | 2026-08-31 02:22:38 | 53.06860 | 6.58124 | 25° | 104km/h | 8754m | -3.2m/s | -42.0°C | 12.0% | 322.9hPa | 2.5V | 07:32:00 | 00:00:00 | 00:00:00 | |
| DF5WG-10 | 2026-08-31 02:22:37 | 53.06811 | 6.58088 | 25° | 108km/h | 8760m | -3.0m/s | -42.0°C | 14.7% | 322.6hPa | 2.5V | 00:00:00 | 02:57:11 | 00:00:00 | |
| DM0DOS-11 | 2026-08-31 02:22:36 | 53.06664 | 6.57968 | 28° | 110km/h | 8778m | -2.9m/s | -42.2°C | 15% | 321.8hPa | 2.5V | 07:32:17 | 02:57:05 | 00:00:00 | |
| BIOWL1-15 | 2026-08-31 02:22:32 | 53.06688 | 6.57990 | 28° | 110km/h | 8775m | -3m/s | -42.2°C | 15.9% | 321.9hPa | 2.6V | 07:32:34 | 02:57:06 | 00:00:00 | |
| DL1XH-west | 2026-08-31 02:22:31 | 53.06664 | 6.57968 | 29° | 110km/h | 8778m | -2.9m/s | -42.2°C | 16% | 321.8hPa | 2.5V | 07:32:34 | 02:57:05 | 00:00:00 | |
| BIOWL1-15 | 2026-08-31 02:22:27 | 53.06445 | 6.57759 | 25° | 93km/h | 8808m | -3.1m/s | -42.4°C | 17.3% | 320.4hPa | 2.6V | 07:32:34 | 02:56:55 | 00:00:00 | |
| DF5WG-10 | 2026-08-31 02:22:27 | 53.06571 | 6.57875 | 33° | 97km/h | 8790m | -2.9m/s | -42.2°C | 15.6% | 321.2hPa | 2.6V | 00:00:00 | 02:57:01 | 00:00:00 | |
| DM0DOS-11 | 2026-08-31 02:22:26 | 53.06445 | 6.57759 | 24° | 93km/h | 8808m | -3.1m/s | -42.4°C | 16.4% | 320.4hPa | 2.6V | 07:32:27 | 02:56:55 | 00:00:00 | |
| DL1XH-west | 2026-08-31 02:22:20 | 53.06423 | 6.57743 | 24° | 95km/h | 8811m | -3.2m/s | -42.4°C | 17.4% | 320.2hPa | 2.5V | 07:32:34 | 02:56:54 | 00:00:00 | |
| WEDDY | 2026-08-31 02:22:18 | 53.06401 | 6.57726 | 24° | 97km/h | 8815m | -3.2m/s | -42.4°C | 13.9% | 320.1hPa | 2.5V | 07:32:00 | 00:00:00 | 00:00:00 | |
| DF5WG-10 | 2026-08-31 02:22:17 | 53.06354 | 6.57693 | 24° | 106km/h | 8821m | -3.0m/s | -42.4°C | 16.9% | 319.7hPa | 2.5V | 00:00:00 | 02:56:51 | 00:00:00 | |
| DM0DOS-11 | 2026-08-31 02:22:16 | 53.06209 | 6.57570 | 31° | 108km/h | 8839m | -3m/s | -42.6°C | 17.2% | 318.9hPa | 2.5V | 07:32:37 | 02:56:45 | 00:00:00 | |
| BIOWL1-15 | 2026-08-31 02:22:11 | 53.06209 | 6.57570 | 31° | 108km/h | 8839m | -3m/s | -42.6°C | 18.2% | 318.9hPa | 2.5V | 07:33:25 | 02:56:45 | 00:00:00 | |
| DL1XH-west | 2026-08-31 02:22:10 | 53.06186 | 6.57547 | 32° | 108km/h | 8842m | -3.1m/s | -42.6°C | 18.2% | 318.7hPa | 2.5V | 07:33:25 | 02:56:44 | 00:00:00 | |
| GOEST3-10 | 2026-08-31 02:22:10 | 53.06186 | 6.57547 | 32° | 102km/h | 8842m | -3.1m/s | -42.6°C | 17.2% | 318.7hPa | 2.5V | 00:00:00 | 02:56:44 | 00:00:00 | |
| DF5WG-10 | 2026-08-31 02:22:07 | 53.06119 | 6.57477 | 32° | 100km/h | 8852m | -2.9m/s | -42.6°C | 17.1% | 318.3hPa | 2.6V | 00:00:00 | 02:56:41 | 00:00:00 | |
| DM0DOS-11 | 2026-08-31 02:22:06 | 53.05984 | 6.57367 | 23° | 102km/h | 8869m | -3.2m/s | -42.8°C | 17.1% | 317.4hPa | 2.6V | 07:32:47 | 02:56:35 | 00:00:00 | |
| BIOWL1-15 | 2026-08-31 02:22:01 | 53.05984 | 6.57367 | 23° | 102km/h | 8870m | -3.2m/s | -42.8°C | 18.3% | 317.4hPa | 2.6V | 07:33:25 | 02:56:35 | 00:00:00 | |
| DL1XH-west | 2026-08-31 02:21:59 | 53.05936 | 6.57334 | 22° | 104km/h | 8876m | -3.1m/s | -42.8°C | 18.4% | 317.1hPa | 2.5V | 07:33:25 | 02:56:33 | 00:00:00 | |
| SONCRA | 2026-08-31 02:21:58 | 53.05912 | 6.57317 | 21° | 104km/h | 8879m | -3.0m/s | -42.8°C | 14.5% | 317.0hPa | 2.5V | 00:00:00 | 00:00:00 | 00:00:00 | |
| DB0UT-7 | 2026-08-31 02:21:57 | 53.05887 | 6.57301 | 22° | 104km/h | 8882m | -3.0m/s | -42.8°C | 17.4% | 316.8hPa | 2.5V | 00:00:00 | 02:56:31 | 00:00:00 | |
| DM0DOS-11 | 2026-08-31 02:21:56 | 53.05736 | 6.57195 | 25° | 111km/h | 8900m | -3m/s | -43°C | 17.7% | 316hPa | 2.6V | 07:32:57 | 02:56:25 | 00:00:00 | |
| BIOWL1-15 | 2026-08-31 02:21:51 | 53.05736 | 6.57195 | 26° | 111km/h | 8900m | -3m/s | -43°C | 18.9% | 316hPa | 2.6V | 07:33:25 | 02:56:25 | 00:00:00 | |
| DL1XH-west | 2026-08-31 02:21:48 | 53.05662 | 6.57131 | 30° | 106km/h | 8909m | -2.9m/s | -43.1°C | 18.7% | 315.6hPa | 2.5V | 07:33:25 | 02:56:22 | 00:00:00 | |
| DF5WG-10 | 2026-08-31 02:21:47 | 53.05640 | 6.57109 | 31° | 97km/h | 8912m | -2.9m/s | -43.0°C | 17.3% | 315.4hPa | 2.5V | 07:33:00 | 02:56:21 | 00:00:00 | |
| DM0DOS-11 | 2026-08-31 02:21:46 | 53.05512 | 6.56988 | 27° | 93km/h | 8931m | -3.2m/s | -43.2°C | 17.4% | 314.6hPa | 2.5V | 07:33:07 | 02:56:15 | 00:00:00 | |
| BIOWL1-15 | 2026-08-31 02:21:42 | 53.05491 | 6.56971 | 26° | 93km/h | 8934m | -3.1m/s | -43.2°C | 18.1% | 314.4hPa | 2.6V | 07:33:25 | 02:56:14 | 00:00:00 | |
| DL1XH-west | 2026-08-31 02:21:38 | 53.05448 | 6.56937 | 24° | 97km/h | 8940m | -3.1m/s | -43.3°C | 18.1% | 314.2hPa | 2.5V | 07:33:25 | 02:56:12 | 00:00:00 | |
| WEDDY | 2026-08-31 02:21:37 | 53.05448 | 6.56937 | 25° | 97km/h | 8940m | -3.1m/s | -43.3°C | 14.4% | 314.2hPa | 2.5V | 07:33:00 | 00:00:00 | 00:00:00 | |
| DM0DOS-11 | 2026-08-31 02:21:36 | 53.05280 | 6.56813 | 26° | 108km/h | 8961m | -3.2m/s | -43.4°C | 17.2% | 313.2hPa | 2.5V | 07:33:17 | 02:56:05 | 00:00:00 | |
| BIOWL1-15 | 2026-08-31 02:21:29 | 53.05232 | 6.56771 | 28° | 106km/h | 8968m | -3.6m/s | -43.4°C | 18.3% | 312.9hPa | 2.6V | 07:33:25 | 02:56:03 | 00:00:00 | |
| DL1XH-west | 2026-08-31 02:21:27 | 53.05186 | 6.56729 | 29° | 100km/h | 8975m | -3.3m/s | -43.5°C | 18.5% | 312.5hPa | 2.6V | 07:33:25 | 02:56:01 | 00:00:00 | |
| BIOWL1-15 | 2026-08-31 02:21:21 | 53.05001 | 6.56584 | 24° | 108km/h | 9001m | -3.1m/s | -43.6°C | 18.6% | 311.3hPa | 2.6V | 07:34:16 | 02:55:53 | 00:00:00 | |
| DL1XH-west | 2026-08-31 02:21:16 | 53.04926 | 6.56526 | 25° | 111km/h | 9011m | -3.2m/s | -43.7°C | 18.6% | 310.9hPa | 2.5V | 07:34:16 | 02:55:50 | 00:00:00 | |
| BIOWL1-15 | 2026-08-31 02:21:08 | 53.04719 | 6.56366 | 25° | 115km/h | 9035m | -2.9m/s | -43.8°C | 18.6% | 309.8hPa | 2.6V | 07:34:16 | 02:55:42 | 00:00:00 | |
| DL1XH-west | 2026-08-31 02:21:05 | 53.04639 | 6.56302 | 27° | 117km/h | 9044m | -3m/s | -43.8°C | 18.8% | 309.3hPa | 2.5V | 07:34:16 | 02:55:39 | 00:00:00 | |
| BIOWL1-15 | 2026-08-31 02:20:58 | 53.04464 | 6.56144 | 29° | 106km/h | 9066m | -3.4m/s | -43.9°C | 19.5% | 308.4hPa | 2.6V | 07:34:16 | 02:55:32 | 00:00:00 | |
| DB0UT-7 | 2026-08-31 02:20:57 | 53.04441 | 6.56123 | 28° | 111km/h | 9069m | -3.5m/s | -43.9°C | 18.5% | 308.2hPa | 2.5V | 07:33:00 | 02:55:31 | 00:00:00 | |
| DM0DOS-11 | 2026-08-31 02:20:56 | 53.04292 | 6.56006 | 25° | 115km/h | 9089m | -3.2m/s | -44°C | 18.6% | 307.3hPa | 2.5V | 07:33:57 | 02:55:25 | 00:00:00 | |
| DL1XH-west | 2026-08-31 02:20:55 | 53.04393 | 6.56084 | 25° | 106km/h | 9076m | -3.4m/s | -44°C | 19.7% | 307.9hPa | 2.5V | 07:34:16 | 02:55:29 | 00:00:00 | |
| BIOWL1-15 | 2026-08-31 02:20:47 | 53.04186 | 6.55915 | 29° | 119km/h | 9102m | -3.1m/s | -44.1°C | 20.1% | 306.6hPa | 2.6V | 07:34:16 | 02:55:21 | 00:00:00 | |
| DF5WG-10 | 2026-08-31 02:20:47 | 53.04186 | 6.55915 | 30° | 113km/h | 9102m | -3.1m/s | -44.0°C | 18.7% | 306.6hPa | 2.5V | 00:00:00 | 02:55:21 | 00:00:00 | |
| DM0DOS-11 | 2026-08-31 02:20:46 | 53.04035 | 6.55762 | 32° | 111km/h | 9121m | -3.1m/s | -44.2°C | 19% | 305.9hPa | 2.5V | 07:34:07 | 02:55:15 | 00:00:00 | |
| DL1XH-west | 2026-08-31 02:20:45 | 53.04134 | 6.55865 | 31° | 119km/h | 9108m | -3m/s | -44.2°C | 20.2% | 306.4hPa | 2.5V | 07:34:16 | 02:55:19 | 00:00:00 | |
| BIOWL1-15 | 2026-08-31 02:20:37 | 53.03943 | 6.55668 | 30° | 102km/h | 9133m | -3.1m/s | -44.3°C | 20.6% | 305.2hPa | 2.6V | 07:34:16 | 02:55:11 | 00:00:00 | |
| DL1XH-west | 2026-08-31 02:20:34 | 53.03874 | 6.55609 | 25° | 102km/h | 9142m | -3.1m/s | -44.4°C | 20.8% | 304.8hPa | 2.5V | 07:34:16 | 02:55:08 | 00:00:00 | |
| BIOWL1-15 | 2026-08-31 02:20:28 | 53.03669 | 6.55461 | 26° | 119km/h | 9166m | -2.9m/s | -44.6°C | 21.3% | 303.8hPa | 2.6V | 07:35:07 | 02:55:00 | 00:00:00 | |
| DL1XH-west | 2026-08-31 02:20:23 | 53.03590 | 6.55391 | 30° | 117km/h | 9175m | -3.1m/s | -44.6°C | 21.2% | 303.4hPa | 2.5V | 07:35:07 | 02:54:57 | 00:00:00 | |
| GOEST3-10 | 2026-08-31 02:20:20 | 53.03517 | 6.55318 | 32° | 104km/h | 9184m | -3.0m/s | -44.6°C | 19.9% | 302.9hPa | 2.6V | 00:00:00 | 02:54:54 | 00:00:00 | |
| DJ2DS-15 | 2026-08-31 02:20:17 | 53.03425 | 6.55232 | 27° | 100km/h | 9196m | -3.1m/s | -44.7°C | 16.4% | 302.4hPa | 2.6V | 00:00:00 | 00:00:00 | 00:00:00 | |
| DM0DOS-11 | 2026-08-31 02:20:16 | 53.03306 | 6.55143 | 22° | 106km/h | 9212m | -3.1m/s | -44.7°C | 19.3% | 301.7hPa | 2.6V | 07:34:37 | 02:54:45 | 00:00:00 | |
| BIOWL1-15 | 2026-08-31 02:20:15 | 53.03402 | 6.55213 | 26° | 102km/h | 9199m | -3m/s | -44.7°C | 20.7% | 302.3hPa | 2.6V | 07:35:07 | 02:54:49 | 00:00:00 | |
| DL1XH-west | 2026-08-31 02:20:13 | 53.03355 | 6.55177 | 24° | 104km/h | 9206m | -3.1m/s | -44.7°C | 20.6% | 302hPa | 2.5V | 07:35:07 | 02:54:47 | 00:00:00 | |
| BIOWL1-15 | 2026-08-31 02:20:09 | 53.03149 | 6.55030 | 27° | 117km/h | 9230m | -3m/s | -44.9°C | 20.4% | 300.9hPa | 2.6V | 07:35:07 | 02:54:39 | 00:00:00 | |
| DF5WG-10 | 2026-08-31 02:20:07 | 53.03203 | 6.55072 | 24° | 113km/h | 9224m | -3.0m/s | -44.7°C | 19.1% | 301.1hPa | 2.5V | 00:00:00 | 02:54:41 | 00:00:00 | |
| DM0DOS-11 | 2026-08-31 02:20:06 | 53.03048 | 6.54935 | 31° | 111km/h | 9242m | -3.2m/s | -45°C | 19% | 300.3hPa | 2.5V | 07:34:47 | 02:54:35 | 00:00:00 | |
| DL1XH-west | 2026-08-31 02:20:02 | 53.03072 | 6.54959 | 31° | 115km/h | 9239m | -3.1m/s | -44.9°C | 20.3% | 300.5hPa | 2.5V | 07:35:07 | 02:54:36 | 00:00:00 | |
| BIOWL9-15 | 2026-08-31 02:19:58 | 53.02977 | 6.54866 | 28° | 104km/h | 9252m | -2.7m/s | -45.0°C | 15.7% | 299.9hPa | 2.5V | 00:00:00 | 00:00:00 | 00:00:00 | |
| DM0DOS-11 | 2026-08-31 02:19:56 | 53.02808 | 6.54736 | 23° | 108km/h | 9273m | -2.8m/s | -45.2°C | 19.2% | 299hPa | 2.5V | 07:34:57 | 02:54:25 | 00:00:00 | |
| BIOWL1-15 | 2026-08-31 02:19:56 | 53.02882 | 6.54789 | 24° | 106km/h | 9263m | -3.1m/s | -45.1°C | 20.1% | 299.4hPa | 2.6V | 07:35:07 | 02:54:28 | 00:00:00 | |
| DL1XH-west | 2026-08-31 02:19:51 | 53.02808 | 6.54736 | 23° | 108km/h | 9273m | -2.8m/s | -45.2°C | 20.1% | 299hPa | 2.5V | 07:35:07 | 02:54:25 | 00:00:00 | |
| GOEST3-10 | 2026-08-31 02:19:50 | 53.02783 | 6.54719 | 24° | 110km/h | 9275m | -2.6m/s | -45.2°C | 19.2% | 298.8hPa | 2.6V | 00:00:00 | 02:54:24 | 00:00:00 | |
| BIOWL7-15 | 2026-08-31 02:19:48 | 53.02758 | 6.54701 | 24° | 108km/h | 9278m | -2.8m/s | -45.3°C | 15.7% | 298.8hPa | 2.6V | 00:00:00 | 00:00:00 | 00:00:00 | |
| DF5WG-10 | 2026-08-31 02:19:47 | 53.02707 | 6.54664 | 24° | 110km/h | 9284m | -2.8m/s | -45.2°C | 19.0% | 298.4hPa | 2.6V | 00:00:00 | 02:54:21 | 00:00:00 | |
| DM0DOS-11 | 2026-08-31 02:19:46 | 53.02556 | 6.54545 | 26° | 110km/h | 9303m | -3.2m/s | -45.4°C | 18.7% | 297.6hPa | 2.6V | 07:35:07 | 02:54:15 | 00:00:00 | |
| BIOWL1-15 | 2026-08-31 02:19:43 | 53.02606 | 6.54586 | 26° | 111km/h | 9296m | -3.6m/s | -45.4°C | 19.8% | 297.9hPa | 2.6V | 07:35:07 | 02:54:17 | 00:00:00 | |
| DL1XH-west | 2026-08-31 02:19:41 | 53.02556 | 6.54545 | 27° | 110km/h | 9303m | -3.2m/s | -45.4°C | 19.7% | 297.6hPa | 2.6V | 07:35:07 | 02:54:15 | 00:00:00 | |
| DJ2DS-15 | 2026-08-31 02:19:41 | 53.02531 | 6.54524 | 26° | 106km/h | 9306m | -2.9m/s | -45.4°C | 15.3% | 297.5hPa | 2.5V | 00:00:00 | 00:00:00 | 00:00:00 | |
| GOEST3-10 | 2026-08-31 02:19:40 | 53.02531 | 6.54524 | 27° | 104km/h | 9306m | -2.8m/s | -45.4°C | 18.6% | 297.4hPa | 2.5V | 00:00:00 | 02:54:14 | 00:00:00 | |
| DF5WG-10 | 2026-08-31 02:19:37 | 53.02460 | 6.54466 | 26° | 108km/h | 9316m | -3.4m/s | -45.5°C | 18.3% | 297.0hPa | 2.5V | 00:00:00 | 02:54:11 | 00:00:00 | |
| DM0DOS-11 | 2026-08-31 02:19:36 | 53.02312 | 6.54365 | 20° | 110km/h | 9335m | -3.1m/s | -45.7°C | 17.9% | 296.2hPa | 2.5V | 07:35:17 | 02:54:05 | 00:00:00 | |
| BIOWL1-15 | 2026-08-31 02:19:32 | 53.02338 | 6.54381 | 21° | 108km/h | 9332m | -3.2m/s | -45.6°C | 18.9% | 296.3hPa | 2.5V | 07:35:58 | 02:54:06 | 00:00:00 | |
| DL1XH-west | 2026-08-31 02:19:30 | 53.02286 | 6.54349 | 21° | 111km/h | 9338m | -3.2m/s | -45.7°C | 18.5% | 296hPa | 2.5V | 07:35:58 | 02:54:04 | 00:00:00 | |
| DO9LL-15 | 2026-08-31 02:19:29 | 53.02259 | 6.54332 | 21° | 117km/h | 9342m | -3.2m/s | -45.6°C | 17.3% | 295.8hPa | 2.5V | 00:00:00 | 02:54:03 | 00:00:00 | |
| DL1XH-15 | 2026-08-31 02:19:28 | 53.02096 | 6.54225 | 22° | 115km/h | 9360m | -3.1m/s | -45.6°C | 16.4% | 295.1hPa | 2.5V | 07:35:25 | 02:53:57 | 00:00:00 | |
| DB0UT-7 | 2026-08-31 02:19:27 | 53.02206 | 6.54298 | 21° | 117km/h | 9348m | -3.0m/s | -45.6°C | 16.8% | 295.6hPa | 2.5V | 00:00:00 | 00:00:00 | 00:00:00 | |
| DM0DOS-11 | 2026-08-31 02:19:26 | 53.02044 | 6.54187 | 24° | 111km/h | 9367m | -3.2m/s | -45.7°C | 16.4% | 294.7hPa | 2.5V | 07:35:27 | 02:53:55 | 00:00:00 | |
| BIOWL1-15 | 2026-08-31 02:19:21 | 53.02043 | 6.54187 | 25° | 111km/h | 9367m | -3.2m/s | -45.7°C | 17% | 294.7hPa | 2.5V | 07:35:58 | 02:53:55 | 00:00:00 | |
| DL1XH-west | 2026-08-31 02:19:20 | 53.02018 | 6.54167 | 26° | 110km/h | 9370m | -3.1m/s | -45.7°C | 17% | 294.7hPa | 2.5V | 07:35:58 | 02:53:54 | 00:00:00 | |
| BIOWL7-15 | 2026-08-31 02:19:19 | 53.02018 | 6.54167 | 27° | 110km/h | 9370m | -3.1m/s | -45.7°C | 13.3% | 294.7hPa | 2.5V | 00:00:00 | 00:00:00 | 00:00:00 | |
| DL1XH-15 | 2026-08-31 02:19:18 | 53.01850 | 6.54033 | 24° | 108km/h | 9391m | -3m/s | -45.7°C | 16.6% | 293.7hPa | 2.5V | 07:35:35 | 02:53:47 | 00:00:00 | |
| GOEST3-10 | 2026-08-31 02:19:18 | 53.01970 | 6.54128 | 27° | 104km/h | 9376m | -3.2m/s | -45.6°C | 16.5% | 294.3hPa | 2.6V | 00:00:00 | 02:53:52 | 00:00:00 | |
| DF5WG-10 | 2026-08-31 02:19:17 | 53.01946 | 6.54109 | 26° | 110km/h | 9379m | -3.2m/s | -45.6°C | 16.5% | 294.2hPa | 2.6V | 00:00:00 | 02:53:51 | 00:00:00 | |
| DM0DOS-11 | 2026-08-31 02:19:16 | 53.01799 | 6.53996 | 23° | 111km/h | 9397m | -3.1m/s | -45.8°C | 16.5% | 293.4hPa | 2.6V | 07:35:37 | 02:53:45 | 00:00:00 | |
| BIOWL1-15 | 2026-08-31 02:19:11 | 53.01799 | 6.53996 | 23° | 111km/h | 9398m | -3.1m/s | -45.8°C | 17.4% | 293.4hPa | 2.6V | 07:35:58 | 02:53:45 | 00:00:00 | |
| DL1XH-west | 2026-08-31 02:19:09 | 53.01746 | 6.53958 | 22° | 115km/h | 9404m | -3.4m/s | -45.8°C | 17.5% | 293.1hPa | 2.6V | 07:35:58 | 02:53:43 | 00:00:00 | |
| GOEST3-10 | 2026-08-31 02:19:08 | 53.01718 | 6.53940 | 22° | 120km/h | 9408m | -3.4m/s | -45.7°C | 16.5% | 293.0hPa | 2.5V | 00:00:00 | 02:53:42 | 00:00:00 | |
| DF5WG-10 | 2026-08-31 02:19:07 | 53.01690 | 6.53922 | 22° | 122km/h | 9411m | -3.3m/s | -45.8°C | 16.7% | 292.8hPa | 2.6V | 07:35:00 | 02:53:41 | 00:00:00 | |
| DM0DOS-11 | 2026-08-31 02:19:06 | 53.01519 | 6.53810 | 21° | 124km/h | 9430m | -3m/s | -45.9°C | 16.5% | 291.9hPa | 2.6V | 07:35:47 | 02:53:35 | 00:00:00 | |
| BIOWL1-15 | 2026-08-31 02:19:02 | 53.01490 | 6.53791 | 22° | 124km/h | 9433m | -3m/s | -45.9°C | 17.4% | 291.8hPa | 2.5V | 07:35:58 | 02:53:34 | 00:00:00 | |
| DL1XH-west | 2026-08-31 02:18:58 | 53.01432 | 6.53750 | 24° | 124km/h | 9439m | -3.2m/s | -46°C | 17.3% | 291.5hPa | 2.5V | 07:35:58 | 02:53:32 | 00:00:00 | |
| DF5WG-10 | 2026-08-31 02:18:57 | 53.01403 | 6.53729 | 26° | 111km/h | 9443m | -3.2m/s | -46.0°C | 16.5% | 291.4hPa | 2.5V | 00:00:00 | 02:53:31 | 00:00:00 | |
| DM0DOS-11 | 2026-08-31 02:18:56 | 53.01249 | 6.53601 | 25° | 106km/h | 9461m | -3.2m/s | -46.1°C | 15.9% | 290.6hPa | 2.5V | 07:35:57 | 02:53:25 | 00:00:00 | |
| BIOWL1-15 | 2026-08-31 02:18:52 | 53.01225 | 6.53583 | 24° | 106km/h | 9465m | -3.3m/s | -46.1°C | 16.7% | 290.5hPa | 2.5V | 07:35:58 | 02:53:24 | 00:00:00 | |
| DB0UT-7 | 2026-08-31 02:18:51 | 53.01249 | 6.53601 | 26° | 117km/h | 9462m | -3.1m/s | -46.0°C | 15.9% | 290.6hPa | 2.5V | 00:00:00 | 02:53:25 | 00:00:00 | |
| DL1XH-15 | 2026-08-31 02:18:48 | 53.01042 | 6.53463 | 21° | 120km/h | 9487m | -3m/s | -46.2°C | 15.5% | 289.5hPa | 2.5V | 07:36:05 | 02:53:17 | 00:00:00 | |
| DL1XH-west | 2026-08-31 02:18:47 | 53.01150 | 6.53531 | 21° | 108km/h | 9474m | -3.3m/s | -46.1°C | 16.5% | 290hPa | 2.6V | 07:36:49 | 02:53:21 | 00:00:00 | |
| DF5WG-10 | 2026-08-31 02:18:47 | 53.01150 | 6.53531 | 22° | 120km/h | 9475m | -3.3m/s | -46.1°C | 15.7% | 290.0hPa | 2.5V | 00:00:00 | 02:53:21 | 00:00:00 | |
| DM0DOS-11 | 2026-08-31 02:18:46 | 53.00985 | 6.53424 | 23° | 124km/h | 9494m | -3.4m/s | -46.2°C | 15.6% | 289.2hPa | 2.5V | 07:36:07 | 02:53:15 | 00:00:00 | |
| BIOWL1-15 | 2026-08-31 02:18:41 | 53.00927 | 6.53381 | 25° | 126km/h | 9500m | -3.3m/s | -46.2°C | 16.4% | 288.9hPa | 2.6V | 07:36:49 | 02:53:13 | 00:00:00 | |
| DL1XH-west | 2026-08-31 02:18:37 | 53.00869 | 6.53336 | 26° | 126km/h | 9507m | -3.2m/s | -46.3°C | 16.4% | 288.6hPa | 2.6V | 07:36:49 | 02:53:11 | 00:00:00 | |
| DM0DOS-11 | 2026-08-31 02:18:36 | 53.00706 | 6.53193 | 28° | 115km/h | 9526m | -3.2m/s | -46.4°C | 15.5% | 287.8hPa | 2.6V | 07:36:17 | 02:53:05 | 00:00:00 | |
| BIOWL1-15 | 2026-08-31 02:18:30 | 53.00631 | 6.53129 | 25° | 110km/h | 9536m | -3.3m/s | -46.5°C | 16.4% | 287.4hPa | 2.5V | 07:36:49 | 02:53:02 | 00:00:00 | |
| HTAHTA | 2026-08-31 02:18:29 | 53.00656 | 6.53149 | 27° | 110km/h | 9532m | -3.4m/s | -46.4°C | 12.4% | 287.5hPa | 2.5V | 00:00:00 | 00:00:00 | 00:00:00 | |
| DO9LL-15 | 2026-08-31 02:18:28 | 53.00631 | 6.53129 | 26° | 117km/h | 9536m | -3.2m/s | -46.4°C | 15.4% | 287.3hPa | 2.5V | 00:00:00 | 02:53:02 | 00:00:00 | |
| DF5WG-10 | 2026-08-31 02:18:27 | 53.00606 | 6.53110 | 24° | 119km/h | 9539m | -3.2m/s | -46.4°C | 15.5% | 287.2hPa | 2.5V | 00:00:00 | 02:53:01 | 00:00:00 | |
| DM0DOS-11 | 2026-08-31 02:18:26 | 53.00442 | 6.53008 | 20° | 124km/h | 9559m | -3.3m/s | -46.6°C | 16.1% | 286.4hPa | 2.6V | 07:36:27 | 02:52:55 | 00:00:00 | |
| DL1XH-west | 2026-08-31 02:18:26 | 53.00581 | 6.53093 | 22° | 110km/h | 9542m | -3.2m/s | -46.5°C | 16.4% | 287.1hPa | 2.5V | 07:36:49 | 02:53:00 | 00:00:00 | |
| BIOWL1-15 | 2026-08-31 02:18:17 | 53.00325 | 6.52926 | 25° | 126km/h | 9572m | -3.4m/s | -46.7°C | 16.7% | 285.8hPa | 2.5V | 07:36:49 | 02:52:51 | 00:00:00 | |
| DL1XH-west | 2026-08-31 02:18:16 | 53.00296 | 6.52903 | 27° | 126km/h | 9576m | -3.4m/s | -46.7°C | 16.7% | 285.7hPa | 2.5V | 07:36:49 | 02:52:50 | 00:00:00 | |
| BIOWL1-15 | 2026-08-31 02:18:07 | 53.00061 | 6.52710 | 21° | 110km/h | 9606m | -3.6m/s | -47°C | 16.3% | 284.4hPa | 2.6V | 07:36:49 | 02:52:41 | 00:00:00 | |
| DL1XH-west | 2026-08-31 02:18:06 | 53.00035 | 6.52694 | 21° | 111km/h | 9610m | -3.5m/s | -47°C | 16.4% | 284.2hPa | 2.6V | 07:36:49 | 02:52:40 | 00:00:00 | |
| GOEST3-10 | 2026-08-31 02:18:03 | 52.99953 | 6.52643 | 21° | 120km/h | 9621m | -3.4m/s | -47.0°C | 15.7% | 283.7hPa | 2.6V | 00:00:00 | 00:00:00 | 00:00:00 | |
| DO9LL-15 | 2026-08-31 02:17:58 | 52.99814 | 6.52539 | 28° | 115km/h | 9638m | -3.3m/s | -47.1°C | 15.8% | 283.0hPa | 2.6V | 00:00:00 | 02:52:32 | 00:00:00 | |
| DL1XH-15 | 2026-08-31 02:17:57 | 52.99659 | 6.52400 | 28° | 110km/h | 9659m | -3.5m/s | -47.2°C | 15.7% | 282.1hPa | 2.5V | 07:36:56 | 02:52:26 | 00:00:00 | |
| BIOWL1-15 | 2026-08-31 02:17:56 | 52.99761 | 6.52492 | 28° | 117km/h | 9645m | -3.5m/s | -47.1°C | 16.5% | 282.8hPa | 2.5V | 07:37:40 | 02:52:30 | 00:00:00 | |
| DL1XH-west | 2026-08-31 02:17:55 | 52.99735 | 6.52469 | 29° | 115km/h | 9648m | -3.2m/s | -47.2°C | 16.5% | 282.5hPa | 2.5V | 07:37:40 | 02:52:29 | 00:00:00 | |
| BIOWL1-15 | 2026-08-31 02:17:48 | 52.99517 | 6.52276 | 26° | 104km/h | 9679m | -3.4m/s | -47.4°C | 16.5% | 281.3hPa | 2.5V | 07:37:40 | 02:52:20 | 00:00:00 | |
| DL1XH-15 | 2026-08-31 02:17:47 | 52.99417 | 6.52201 | 23° | 113km/h | 9693m | -3.5m/s | -47.6°C | 16.1% | 280.7hPa | 2.6V | 07:37:06 | 02:52:16 | 00:00:00 | |
| DF5WG-10 | 2026-08-31 02:17:47 | 52.99540 | 6.52295 | 27° | 113km/h | 9676m | -3.3m/s | -47.4°C | 15.8% | 281.4hPa | 2.6V | 07:37:00 | 02:52:21 | 00:00:00 | |
| DM0DOS-11 | 2026-08-31 02:17:46 | 52.99391 | 6.52181 | 24° | 119km/h | 9697m | -3.4m/s | -47.6°C | 16% | 280.5hPa | 2.6V | 07:37:07 | 02:52:15 | 00:00:00 | |
| DL1XH-west | 2026-08-31 02:17:45 | 52.99493 | 6.52257 | 25° | 104km/h | 9683m | -3.5m/s | -47.5°C | 16.5% | 281.1hPa | 2.5V | 07:37:40 | 02:52:19 | 00:00:00 | |
| DL1LOL-11 | 2026-08-31 02:17:44 | 52.99493 | 6.52257 | 26° | 104km/h | 9683m | -3.5m/s | -47.5°C | 12.6% | 281.1hPa | 2.5V | 00:00:00 | 00:00:00 | 00:00:00 | |
| GOEST3-10 | 2026-08-31 02:17:43 | 52.99443 | 6.52219 | 25° | 117km/h | 9690m | -3.5m/s | -47.5°C | 16.0% | 280.8hPa | 2.5V | 00:00:00 | 00:00:00 | 00:00:00 | |
| DL4BBY-15 | 2026-08-31 02:17:41 | 52.99391 | 6.52181 | 25° | 117km/h | 9697m | -3.4m/s | -47.9°C | 0% | 0hPa | 2.5V | 00:00:00 | 00:00:00 | 00:00:00 | |
| GOEST3-10 | 2026-08-31 02:17:38 | 52.99308 | 6.52116 | 27° | 120km/h | 9708m | -3.8m/s | -47.6°C | 15.8% | 280.0hPa | 2.5V | 00:00:00 | 02:52:12 | 00:00:00 | |
| DL1XH-15 | 2026-08-31 02:17:37 | 52.99148 | 6.51973 | 29° | 117km/h | 9730m | -3.7m/s | -47.7°C | 15.8% | 279.1hPa | 2.5V | 07:37:16 | 02:52:06 | 00:00:00 | |
| BIOWL1-15 | 2026-08-31 02:17:37 | 52.99226 | 6.52046 | 29° | 120km/h | 9719m | -3.8m/s | -47.7°C | 16.6% | 279.6hPa | 2.6V | 07:37:40 | 02:52:09 | 00:00:00 | |
| DF5WG-10 | 2026-08-31 02:17:37 | 52.99280 | 6.52093 | 27° | 117km/h | 9712m | -3.6m/s | -47.6°C | 15.8% | 279.9hPa | 2.5V | 00:00:00 | 02:52:11 | 00:00:00 | |
| DM0DOS-11 | 2026-08-31 02:17:36 | 52.99123 | 6.51949 | 30° | 113km/h | 9734m | -3.6m/s | -47.7°C | 15.9% | 279hPa | 2.5V | 07:37:17 | 02:52:05 | 00:00:00 | |
| DL1XH-west | 2026-08-31 02:17:34 | 52.99199 | 6.52022 | 29° | 119km/h | 9723m | -3.7m/s | -47.7°C | 16.5% | 279.4hPa | 2.6V | 07:37:40 | 02:52:08 | 00:00:00 | |
| GOEST3-10 | 2026-08-31 02:17:33 | 52.99173 | 6.51997 | 30° | 113km/h | 9726m | -3.6m/s | -47.6°C | 15.7% | 279.2hPa | 2.5V | 07:37:00 | 00:00:00 | 00:00:00 | |
| DD1CC3-15 | 2026-08-31 02:17:31 | 52.99148 | 6.51973 | 31° | 117km/h | 9730m | -3.7m/s | -47.7°C | 12.5% | 279.1hPa | 2.5V | 07:37:00 | 00:00:00 | 00:00:00 | |
| DO9LL-15 | 2026-08-31 02:17:28 | 52.99049 | 6.51880 | 29° | 115km/h | 9744m | -2.9m/s | -47.7°C | 16.1% | 278.5hPa | 2.5V | 00:00:00 | 02:52:02 | 00:00:00 | |
| DL1XH-15 | 2026-08-31 02:17:27 | 52.98899 | 6.51753 | 24° | 115km/h | 9765m | -3.8m/s | -48°C | 16.5% | 277.6hPa | 2.5V | 07:37:26 | 02:51:56 | 00:00:00 | |
| DF5WG-10 | 2026-08-31 02:17:27 | 52.99025 | 6.51858 | 29° | 115km/h | 9748m | -3.2m/s | -47.7°C | 16.3% | 278.3hPa | 2.6V | 00:00:00 | 02:52:01 | 00:00:00 | |
| DM0DOS-11 | 2026-08-31 02:17:26 | 52.98873 | 6.51733 | 24° | 115km/h | 9769m | -4.1m/s | -48°C | 16.5% | 277.4hPa | 2.5V | 07:37:27 | 02:51:55 | 00:00:00 | |
| DL1XH-west | 2026-08-31 02:17:24 | 52.98951 | 6.51794 | 26° | 111km/h | 9758m | -3.4m/s | -47.9°C | 17% | 277.9hPa | 2.5V | 07:37:40 | 02:51:58 | 00:00:00 | |
| BIOWL9-15 | 2026-08-31 02:17:23 | 52.98900 | 6.51753 | 24° | 115km/h | 9765m | -3.8m/s | -48.0°C | 13.1% | 277.6hPa | 2.5V | 00:00:00 | 00:00:00 | 00:00:00 | |
| DL3AQ-11 | 2026-08-31 02:17:22 | 52.98873 | 6.51733 | 24° | 115km/h | 9769m | -4.1m/s | 0°C | -1.0% | -1.0hPa | 2.5V | 00:00:00 | 00:00:00 | 00:00:00 | |
| DB0UT-7 | 2026-08-31 02:17:20 | 52.98846 | 6.51712 | 26° | 115km/h | 9773m | -4.1m/s | -48.0°C | 16.6% | 277.2hPa | 2.5V | 00:00:00 | 00:00:00 | 00:00:00 | |
| SONCRA | 2026-08-31 02:17:19 | 52.98792 | 6.51669 | 26° | 120km/h | 9781m | -3.7m/s | -48.1°C | 13.1% | 277.0hPa | 2.6V | 00:00:00 | 00:00:00 | 00:00:00 | |
| GOEST3-10 | 2026-08-31 02:17:18 | 52.98792 | 6.51669 | 27° | 119km/h | 9781m | -3.6m/s | -48.0°C | 16.6% | 276.9hPa | 2.6V | 00:00:00 | 02:51:52 | 00:00:00 | |
| DF5WG-10 | 2026-08-31 02:17:17 | 52.98765 | 6.51645 | 29° | 115km/h | 9785m | -3.8m/s | -48.1°C | 16.6% | 276.8hPa | 2.6V | 00:00:00 | 02:51:51 | 00:00:00 | |
| DM0DOS-11 | 2026-08-31 02:17:16 | 52.98613 | 6.51494 | 33° | 113km/h | 9808m | -3.6m/s | -48.2°C | 16.7% | 275.9hPa | 2.6V | 07:37:37 | 02:51:45 | 00:00:00 | |
| BIOWL1-15 | 2026-08-31 02:17:14 | 52.98687 | 6.51572 | 32° | 117km/h | 9797m | -3.8m/s | -48.2°C | 17.3% | 276.4hPa | 2.5V | 07:37:40 | 02:51:48 | 00:00:00 | |
| DL1XH-15 | 2026-08-31 02:17:13 | 52.98543 | 6.51418 | 31° | 108km/h | 9818m | -3.5m/s | -48.2°C | 16.7% | 275.4hPa | 2.5V | 07:37:40 | 02:51:42 | 00:00:00 | |
| DL1XH-west | 2026-08-31 02:17:13 | 52.98662 | 6.51546 | 33° | 115km/h | 9800m | -3.9m/s | -48.2°C | 17.3% | 276.2hPa | 2.5V | 07:37:40 | 02:51:47 | 00:00:00 | |
| GOEST3-10 | 2026-08-31 02:17:12 | 52.98637 | 6.51520 | 34° | 111km/h | 9805m | -3.7m/s | -48.2°C | 16.6% | 276.0hPa | 2.6V | 00:00:00 | 00:00:00 | 00:00:00 | |
| DL4BBY-15 | 2026-08-31 02:17:11 | 52.98613 | 6.51494 | 34° | 111km/h | 9807m | -3.5m/s | -48.6°C | 0% | 0hPa | 2.6V | 00:00:00 | 00:00:00 | 00:00:00 | |
| DD1CC3-15 | 2026-08-31 02:17:10 | 52.98613 | 6.51494 | 34° | 113km/h | 9808m | -3.6m/s | -48.3°C | 13.2% | 275.9hPa | 2.6V | 07:37:00 | 00:00:00 | 00:00:00 | |
| BIOWL7-15 | 2026-08-31 02:17:09 | 52.98590 | 6.51468 | 35° | 111km/h | 9812m | -3.4m/s | -48.3°C | 13.2% | 275.7hPa | 2.6V | 07:37:00 | 00:00:00 | 00:00:00 | |
| DF5WG-10 | 2026-08-31 02:17:07 | 52.98520 | 6.51395 | 32° | 111km/h | 9822m | -3.6m/s | -48.2°C | 16.8% | 275.3hPa | 2.6V | 00:00:00 | 02:51:41 | 00:00:00 | |
| DM0DOS-11 | 2026-08-31 02:17:06 | 52.98378 | 6.51271 | 23° | 115km/h | 9842m | -3.3m/s | -48.3°C | 17.1% | 274.5hPa | 2.6V | 07:37:47 | 02:51:35 | 00:00:00 | |
| BIOWL1-15 | 2026-08-31 02:17:03 | 52.98428 | 6.51310 | 26° | 106km/h | 9835m | -3.1m/s | -48.3°C | 17.6% | 274.8hPa | 2.6V | 07:38:31 | 02:51:37 | 00:00:00 | |
| DL1XH-15 | 2026-08-31 02:17:02 | 52.98269 | 6.51186 | 27° | 120km/h | 9855m | -3.6m/s | -48.3°C | 17.1% | 273.8hPa | 2.5V | 07:37:51 | 02:51:31 | 00:00:00 | |
| GOEST3-10 | 2026-08-31 02:17:02 | 52.98403 | 6.51290 | 25° | 117km/h | 9838m | -3.2m/s | -48.2°C | 17.1% | 274.6hPa | 2.5V | 00:00:00 | 00:00:00 | 00:00:00 | |
| DL1XH-west | 2026-08-31 02:17:02 | 52.98403 | 6.51291 | 24° | 110km/h | 9838m | -3.3m/s | -48.3°C | 17.7% | 274.6hPa | 2.6V | 07:38:31 | 02:51:36 | 00:00:00 | |
| DF5WG-10 | 2026-08-31 02:16:57 | 52.98269 | 6.51186 | 28° | 115km/h | 9855m | -3.5m/s | -48.2°C | 17.1% | 273.8hPa | 2.5V | 00:00:00 | 02:51:31 | 00:00:00 | |
| DM0DOS-11 | 2026-08-31 02:16:56 | 52.98113 | 6.51037 | 30° | 111km/h | 9875m | -3.6m/s | -48.4°C | 16.9% | 273hPa | 2.5V | 07:37:57 | 02:51:25 | 00:00:00 | |
| BIOWL1-15 | 2026-08-31 02:16:53 | 52.98162 | 6.51087 | 31° | 117km/h | 9869m | -3.3m/s | -48.3°C | 17.7% | 273.3hPa | 2.6V | 07:38:31 | 02:51:27 | 00:00:00 | |
| DL1XH-15 | 2026-08-31 02:16:52 | 52.98021 | 6.50947 | 29° | 104km/h | 9889m | -3.4m/s | -48.4°C | 17% | 272.4hPa | 2.6V | 07:38:01 | 02:51:21 | 00:00:00 | |
| DL1XH-west | 2026-08-31 02:16:51 | 52.98113 | 6.51037 | 31° | 111km/h | 9875m | -3.6m/s | -48.4°C | 17.6% | 273hPa | 2.5V | 07:38:31 | 02:51:25 | 00:00:00 | |
| SONCRA | 2026-08-31 02:16:48 | 52.98021 | 6.50947 | 29° | 104km/h | 9889m | -3.4m/s | -48.4°C | 13.4% | 272.4hPa | 2.5V | 00:00:00 | 00:00:00 | 00:00:00 | |
| DF5WG-10 | 2026-08-31 02:16:47 | 52.98021 | 6.50947 | 30° | 110km/h | 9889m | -3.4m/s | -48.4°C | 17.0% | 272.4hPa | 2.5V | 00:00:00 | 02:51:21 | 00:00:00 | |
| DM0DOS-11 | 2026-08-31 02:16:46 | 52.97875 | 6.50832 | 24° | 111km/h | 9909m | -3.3m/s | -48.5°C | 17% | 271.6hPa | 2.5V | 07:38:07 | 02:51:15 | 00:00:00 | |
| BIOWL1-15 | 2026-08-31 02:16:46 | 52.97901 | 6.50850 | 23° | 108km/h | 9905m | -3.6m/s | -48.5°C | 17.6% | 271.7hPa | 2.5V | 07:38:31 | 02:51:16 | 00:00:00 | |
| DL1XH-west | 2026-08-31 02:16:40 | 52.97849 | 6.50813 | 23° | 115km/h | 9912m | -3.3m/s | -48.5°C | 17.6% | 271.5hPa | 2.5V | 07:38:31 | 02:51:14 | 00:00:00 | |
| DF5WG-10 | 2026-08-31 02:16:37 | 52.97768 | 6.50753 | 25° | 111km/h | 9923m | -3.0m/s | -48.5°C | 16.9% | 271.0hPa | 2.6V | 00:00:00 | 02:51:11 | 00:00:00 | |
| DM0DOS-11 | 2026-08-31 02:16:36 | 52.97614 | 6.50617 | 29° | 108km/h | 9943m | -3.5m/s | -48.6°C | 16.5% | 270.2hPa | 2.6V | 07:38:17 | 02:51:05 | 00:00:00 | |
| BIOWL1-15 | 2026-08-31 02:16:34 | 52.97638 | 6.50640 | 30° | 110km/h | 9940m | -3.5m/s | -48.6°C | 17.2% | 270.3hPa | 2.5V | 07:38:31 | 02:51:06 | 00:00:00 | |
| GOEST3-10 | 2026-08-31 02:16:32 | 52.97638 | 6.50640 | 31° | 106km/h | 9940m | -3.4m/s | -48.6°C | 16.6% | 270.3hPa | 2.5V | 00:00:00 | 00:00:00 | 00:00:00 | |
| DL1XH-15 | 2026-08-31 02:16:29 | 52.97453 | 6.50478 | 25° | 100km/h | 9967m | -3.5m/s | -48.7°C | 16.8% | 269.2hPa | 2.5V | 07:38:24 | 02:50:58 | 00:00:00 | |
| DL1XH-west | 2026-08-31 02:16:29 | 52.97567 | 6.50574 | 29° | 104km/h | 9951m | -3.7m/s | -48.6°C | 17.2% | 269.9hPa | 2.6V | 07:38:31 | 02:51:03 | 00:00:00 | |
| WEDDY | 2026-08-31 02:16:28 | 52.97567 | 6.50574 | 30° | 104km/h | 9951m | -3.7m/s | -48.6°C | 13.0% | 269.9hPa | 2.6V | 07:38:00 | 00:00:00 | 00:00:00 | |
| GOEST3-10 | 2026-08-31 02:16:27 | 52.97521 | 6.50534 | 29° | 100km/h | 9958m | -3.3m/s | -48.6°C | 16.6% | 269.5hPa | 2.6V | 00:00:00 | 02:51:01 | 00:00:00 | |
| DM0DOS-11 | 2026-08-31 02:16:26 | 52.97381 | 6.50425 | 22° | 108km/h | 9978m | -3.2m/s | -48.8°C | 17.2% | 268.8hPa | 2.6V | 07:38:27 | 02:50:55 | 00:00:00 | |
| BIOWL1-15 | 2026-08-31 02:16:23 | 52.97381 | 6.50425 | 22° | 108km/h | 9978m | -3.2m/s | -48.8°C | 17.8% | 268.9hPa | 2.6V | 07:38:31 | 02:50:55 | 00:00:00 | |
| DL1XH-west | 2026-08-31 02:16:18 | 52.97304 | 6.50371 | 24° | 117km/h | 9988m | -3.1m/s | -48.8°C | 17.9% | 268.4hPa | 2.5V | 07:38:31 | 02:50:52 | 00:00:00 | |
| SONCRA | 2026-08-31 02:16:17 | 52.97251 | 6.50327 | 28° | 117km/h | 9993m | -3.2m/s | -48.9°C | 13.6% | 268.2hPa | 2.5V | 00:00:00 | 00:00:00 | 00:00:00 | |
| DM0DOS-11 | 2026-08-31 02:16:16 | 52.97123 | 6.50203 | 33° | 115km/h | 10010m | -3.3m/s | -49°C | 17.4% | 267.5hPa | 2.5V | 07:38:37 | 02:50:45 | 00:00:00 | |
| BIOWL1-15 | 2026-08-31 02:16:10 | 52.97099 | 6.50177 | 33° | 113km/h | 10013m | -3.3m/s | -49°C | 18.2% | 267.4hPa | 2.5V | 07:39:22 | 02:50:44 | 00:00:00 | |
| DL1XH-west | 2026-08-31 02:16:07 | 52.97029 | 6.50103 | 32° | 104km/h | 10023m | -3.4m/s | -49.1°C | 18.5% | 266.9hPa | 2.6V | 07:39:22 | 02:50:41 | 00:00:00 | |
| DF5WG-10 | 2026-08-31 02:16:07 | 52.97029 | 6.50103 | 33° | 106km/h | 10023m | -3.4m/s | -49.0°C | 17.8% | 266.9hPa | 2.5V | 00:00:00 | 02:50:41 | 00:00:00 | |
| DM0DOS-11 | 2026-08-31 02:16:06 | 52.96891 | 6.49985 | 23° | 106km/h | 10042m | -3.2m/s | -49.2°C | 18.2% | 266.2hPa | 2.5V | 07:38:47 | 02:50:35 | 00:00:00 | |
| BIOWL1-15 | 2026-08-31 02:16:02 | 52.96867 | 6.49967 | 23° | 108km/h | 10046m | -3.4m/s | -49.2°C | 18.8% | 266.1hPa | 2.5V | 07:39:22 | 02:50:34 | 00:00:00 | |
| DL1XH-west | 2026-08-31 02:15:57 | 52.96790 | 6.49909 | 27° | 115km/h | 10055m | -3.2m/s | -49.2°C | 18.7% | 265.7hPa | 2.6V | 07:39:22 | 02:50:31 | 00:00:00 | |
| GOEST3-10 | 2026-08-31 02:15:57 | 52.96790 | 6.49909 | 27° | 115km/h | 10055m | -3.2m/s | -49.2°C | 18.2% | 265.6hPa | 2.6V | 00:00:00 | 02:50:31 | 00:00:00 | |
| DM0DOS-11 | 2026-08-31 02:15:56 | 52.96641 | 6.49763 | 33° | 111km/h | 10075m | -3.2m/s | -49.2°C | 18.2% | 264.9hPa | 2.6V | 07:38:57 | 02:50:25 | 00:00:00 | |
| HTAHTA | 2026-08-31 02:15:54 | 52.96714 | 6.49839 | 31° | 113km/h | 10064m | -3.3m/s | -49.3°C | 14.4% | 265.3hPa | 2.5V | 00:00:00 | 00:00:00 | 00:00:00 | |
| DC4HF-4 | 2026-08-31 02:15:53 | 52.96689 | 6.49814 | 31° | 113km/h | 10068m | -3.3m/s | -49.3°C | 14.5% | 265.2hPa | 2.5V | 00:00:00 | 00:00:00 | 00:00:00 | |
| DL1XH-15 | 2026-08-31 02:15:52 | 52.96548 | 6.49660 | 34° | 108km/h | 10087m | -3.3m/s | -49.2°C | 17.9% | 264.4hPa | 2.5V | 07:39:01 | 02:50:21 | 00:00:00 | |
| BIOWL1-15 | 2026-08-31 02:15:49 | 52.96594 | 6.49711 | 34° | 110km/h | 10081m | -3.1m/s | -49.2°C | 18.5% | 264.6hPa | 2.6V | 07:39:22 | 02:50:23 | 00:00:00 | |
| DL1XH-west | 2026-08-31 02:15:47 | 52.96548 | 6.49660 | 34° | 108km/h | 10087m | -3.3m/s | -49.2°C | 18.4% | 264.4hPa | 2.5V | 07:39:22 | 02:50:21 | 00:00:00 | |
| DM0DOS-11 | 2026-08-31 02:15:46 | 52.96415 | 6.49523 | 27° | 104km/h | 10106m | -3.1m/s | -49.2°C | 17.7% | 263.6hPa | 2.6V | 07:39:07 | 02:50:15 | 00:00:00 | |
| SONCRA | 2026-08-31 02:15:46 | 52.96504 | 6.49611 | 33° | 102km/h | 10093m | -3.1m/s | -49.2°C | 14.1% | 264.1hPa | 2.5V | 00:00:00 | 00:00:00 | 00:00:00 | |
| BIOWL1-15 | 2026-08-31 02:15:39 | 52.96366 | 6.49483 | 26° | 111km/h | 10112m | -3m/s | -49.2°C | 18.4% | 263.4hPa | 2.5V | 07:39:22 | 02:50:13 | 00:00:00 | |
| DF5WG-10 | 2026-08-31 02:15:37 | 52.96314 | 6.49442 | 26° | 120km/h | 10119m | -3.2m/s | -49.2°C | 17.8% | 263.1hPa | 2.5V | 00:00:00 | 02:50:11 | 00:00:00 | |
| DM0DOS-11 | 2026-08-31 02:15:36 | 52.96154 | 6.49304 | 28° | 122km/h | 10137m | -3m/s | -49.3°C | 17.6% | 262.4hPa | 2.5V | 07:39:17 | 02:50:05 | 00:00:00 | |
| DL1XH-west | 2026-08-31 02:15:36 | 52.96288 | 6.49420 | 26° | 117km/h | 10122m | -3.1m/s | -49.3°C | 18.4% | 263hPa | 2.5V | 07:39:22 | 02:50:10 | 00:00:00 | |
| BIOWL1-15 | 2026-08-31 02:15:31 | 52.96101 | 6.49254 | 30° | 122km/h | 10143m | -3.1m/s | -49.3°C | 18.1% | 262.1hPa | 2.5V | 07:39:22 | 02:50:03 | 00:00:00 | |
| DL1XH-west | 2026-08-31 02:15:26 | 52.96021 | 6.49175 | 32° | 122km/h | 10152m | -3m/s | -49.4°C | 17.7% | 261.8hPa | 2.6V | 07:39:22 | 02:50:00 | 00:00:00 | |
| DL1LOL-11 | 2026-08-31 02:15:25 | 52.96021 | 6.49175 | 33° | 122km/h | 10152m | -3.0m/s | -49.4°C | 13.3% | 261.8hPa | 2.6V | 07:39:00 | 00:00:00 | 00:00:00 | |
| MET0W-2 | 2026-08-31 02:15:24 | 52.95945 | 6.49093 | 33° | 115km/h | 10161m | -3.0m/s | -49.4°C | 13.4% | 261.4hPa | 2.6V | 00:00:00 | 00:00:00 | 00:00:00 | |
| DL1XH-15 | 2026-08-31 02:15:23 | 52.95829 | 6.48972 | 29° | 102km/h | 10175m | -3m/s | -49.5°C | 16.7% | 260.8hPa | 2.6V | 07:39:30 | 02:49:52 | 00:00:00 | |
| BIOWL1-15 | 2026-08-31 02:15:18 | 52.95829 | 6.48972 | 30° | 102km/h | 10175m | -3m/s | -49.5°C | 17% | 260.8hPa | 2.6V | 07:40:13 | 02:49:52 | 00:00:00 | |
| DF5WG-10 | 2026-08-31 02:15:17 | 52.95807 | 6.48951 | 29° | 108km/h | 10178m | -3.0m/s | -49.4°C | 16.6% | 260.6hPa | 2.6V | 00:00:00 | 02:49:51 | 00:00:00 | |
| DM0DOS-11 | 2026-08-31 02:15:16 | 52.95665 | 6.48839 | 23° | 108km/h | 10196m | -3m/s | -49.5°C | 16.1% | 259.9hPa | 2.6V | 07:39:37 | 02:49:45 | 00:00:00 | |
| DL1XH-west | 2026-08-31 02:15:16 | 52.95784 | 6.48931 | 27° | 102km/h | 10181m | -3m/s | -49.5°C | 16.8% | 260.6hPa | 2.5V | 07:40:13 | 02:49:50 | 00:00:00 | |
| SONCRA | 2026-08-31 02:15:15 | 52.95737 | 6.48893 | 25° | 102km/h | 10187m | -3.0m/s | -49.5°C | 12.7% | 260.3hPa | 2.5V | 00:00:00 | 00:00:00 | 00:00:00 | |
| DL1XH-15 | 2026-08-31 02:15:13 | 52.95586 | 6.48780 | 25° | 119km/h | 10205m | -2.9m/s | -49.5°C | 15.9% | 259.6hPa | 2.5V | 07:39:40 | 02:49:42 | 00:00:00 | |
| BIOWL1-15 | 2026-08-31 02:15:10 | 52.95587 | 6.48780 | 26° | 119km/h | 10205m | -2.9m/s | -49.5°C | 16.2% | 259.6hPa | 2.5V | 07:40:13 | 02:49:42 | 00:00:00 | |
| DF5WG-10 | 2026-08-31 02:15:07 | 52.95560 | 6.48758 | 28° | 115km/h | 10208m | -2.9m/s | -49.5°C | 15.8% | 259.4hPa | 2.6V | 07:39:00 | 02:49:41 | 00:00:00 | |
| DM0DOS-11 | 2026-08-31 02:15:06 | 52.95406 | 6.48599 | 34° | 115km/h | 10225m | -2.8m/s | -49.6°C | 15.3% | 258.8hPa | 2.6V | 07:39:47 | 02:49:35 | 00:00:00 | |
| DL1XH-west | 2026-08-31 02:15:05 | 52.95506 | 6.48708 | 31° | 122km/h | 10214m | -3m/s | -49.6°C | 15.9% | 259.3hPa | 2.5V | 07:40:13 | 02:49:39 | 00:00:00 | |
| BIOWL1-15 | 2026-08-31 02:14:57 | 52.95315 | 6.48497 | 32° | 104km/h | 10238m | -2.9m/s | -49.7°C | 15.2% | 258.4hPa | 2.5V | 07:40:13 | 02:49:31 | 00:00:00 | |
| DF5WG-10 | 2026-08-31 02:14:57 | 52.95315 | 6.48497 | 32° | 104km/h | 10238m | -2.8m/s | -49.6°C | 15.1% | 258.3hPa | 2.5V | 00:00:00 | 02:49:31 | 00:00:00 | |
| DM0DOS-11 | 2026-08-31 02:14:56 | 52.95178 | 6.48377 | 25° | 104km/h | 10257m | -3.2m/s | -49.6°C | 14.7% | 257.6hPa | 2.5V | 07:39:57 | 02:49:25 | 00:00:00 | |
| DL1XH-west | 2026-08-31 02:14:54 | 52.95248 | 6.48433 | 27° | 102km/h | 10247m | -3.4m/s | -49.7°C | 14.9% | 258hPa | 2.6V | 07:40:13 | 02:49:28 | 00:00:00 | |
| BIOWL1-15 | 2026-08-31 02:14:50 | 52.95056 | 6.48269 | 32° | 111km/h | 10272m | -2.9m/s | -49.6°C | 13.9% | 257hPa | 2.6V | 07:40:13 | 02:49:20 | 00:00:00 | |
| DL1XH-west | 2026-08-31 02:14:44 | 52.95008 | 6.48217 | 34° | 113km/h | 10278m | -3.5m/s | -49.7°C | 13.5% | 256.8hPa | 2.5V | 07:40:13 | 02:49:18 | 00:00:00 | |
| SONCRA | 2026-08-31 02:14:44 | 52.94985 | 6.48190 | 34° | 111km/h | 10282m | -3.4m/s | -49.7°C | 10.3% | 256.6hPa | 2.5V | 00:00:00 | 00:00:00 | 00:00:00 | |
| GOEST3-10 | 2026-08-31 02:14:42 | 52.94962 | 6.48164 | 36° | 110km/h | 10285m | -3.2m/s | -49.6°C | 13.5% | 256.5hPa | 2.5V | 00:00:00 | 00:00:00 | 00:00:00 | |
| DL4BBY-15 | 2026-08-31 02:14:41 | 52.94939 | 6.48136 | 37° | 108km/h | 10289m | -3.0m/s | -50.0°C | 0% | 0hPa | 2.5V | 00:00:00 | 00:00:00 | 00:00:00 | |
| BIOWL7-15 | 2026-08-31 02:14:39 | 52.94917 | 6.48109 | 37° | 110km/h | 10292m | -3.1m/s | -49.6°C | 9.7% | 256.3hPa | 2.5V | 07:40:00 | 00:00:00 | 00:00:00 | |
| DL1XH-15 | 2026-08-31 02:14:38 | 52.94767 | 6.47925 | 34° | 100km/h | 10313m | -2.8m/s | -49.5°C | 12.1% | 255.5hPa | 2.5V | 07:40:15 | 02:49:07 | 00:00:00 | |
| BIOWL1-15 | 2026-08-31 02:14:38 | 52.94830 | 6.48001 | 37° | 106km/h | 10304m | -2.9m/s | -49.5°C | 12.2% | 255.8hPa | 2.5V | 07:40:13 | 02:49:10 | 00:00:00 | |
| DF5WG-10 | 2026-08-31 02:14:37 | 52.94851 | 6.48027 | 38° | 102km/h | 10301m | -2.9m/s | -49.5°C | 12.4% | 255.9hPa | 2.5V | 00:00:00 | 02:49:11 | 00:00:00 | |
| DM0DOS-11 | 2026-08-31 02:14:36 | 52.94725 | 6.47879 | 32° | 99km/h | 10319m | -3.5m/s | -49.5°C | 12% | 255.3hPa | 2.5V | 07:40:17 | 02:49:05 | 00:00:00 | |
| DL1XH-west | 2026-08-31 02:14:33 | 52.94767 | 6.47925 | 34° | 100km/h | 10313m | -2.8m/s | -49.5°C | 11.8% | 255.5hPa | 2.5V | 07:41:04 | 02:49:07 | 00:00:00 | |
| GOEST3-10 | 2026-08-31 02:14:32 | 52.94746 | 6.47901 | 34° | 100km/h | 10316m | -3.0m/s | -49.5°C | 12.1% | 255.3hPa | 2.5V | 00:00:00 | 00:00:00 | 00:00:00 | |
| DL1LOL-11 | 2026-08-31 02:14:30 | 52.94725 | 6.47879 | 33° | 99km/h | 10319m | -3.5m/s | -49.5°C | 8.8% | 255.3hPa | 2.5V | 07:41:00 | 00:00:00 | 00:00:00 | |
| GOEST3-10 | 2026-08-31 02:14:27 | 52.94635 | 6.47792 | 30° | 113km/h | 10332m | -2.9m/s | -49.4°C | 11.8% | 254.7hPa | 2.5V | 00:00:00 | 02:49:01 | 00:00:00 | |
| BIOWL1-15 | 2026-08-31 02:14:27 | 52.94587 | 6.47744 | 31° | 113km/h | 10338m | -2.9m/s | -49.4°C | 11.2% | 254.5hPa | 2.5V | 07:41:04 | 02:48:59 | 00:00:00 | |
| DM0DOS-11 | 2026-08-31 02:14:26 | 52.94490 | 6.47639 | 35° | 117km/h | 10350m | -3m/s | -49.4°C | 11.7% | 254hPa | 2.5V | 07:40:27 | 02:48:55 | 00:00:00 | |
| DL1XH-west | 2026-08-31 02:14:23 | 52.94538 | 6.47693 | 32° | 115km/h | 10344m | -3m/s | -49.4°C | 11.3% | 254.2hPa | 2.6V | 07:41:04 | 02:48:57 | 00:00:00 | |
| GOEST3-10 | 2026-08-31 02:14:22 | 52.94513 | 6.47667 | 35° | 115km/h | 10347m | -3.1m/s | -49.4°C | 11.8% | 254.1hPa | 2.5V | 00:00:00 | 00:00:00 | 00:00:00 | |
| HTAHTA | 2026-08-31 02:14:21 | 52.94489 | 6.47639 | 35° | 117km/h | 10350m | -3.0m/s | -49.4°C | 8.6% | 254.0hPa | 2.5V | 00:00:00 | 00:00:00 | 00:00:00 | |
| DB0UT-7 | 2026-08-31 02:14:20 | 52.94466 | 6.47611 | 36° | 104km/h | 10353m | -2.9m/s | -49.4°C | 11.8% | 253.8hPa | 2.5V | 00:00:00 | 00:00:00 | 00:00:00 | |
| BIOWL7-15 | 2026-08-31 02:14:19 | 52.94466 | 6.47611 | 37° | 115km/h | 10353m | -2.9m/s | -49.4°C | 8.6% | 253.9hPa | 2.5V | 00:00:00 | 00:00:00 | 00:00:00 | |
| DF5WG-10 | 2026-08-31 02:14:17 | 52.94397 | 6.47525 | 39° | 104km/h | 10360m | -2.9m/s | -49.4°C | 11.6% | 253.5hPa | 2.5V | 00:00:00 | 02:48:51 | 00:00:00 | |
| DM0DOS-11 | 2026-08-31 02:14:16 | 52.94271 | 6.47355 | 39° | 100km/h | 10378m | -2.9m/s | -49.5°C | 11.3% | 252.9hPa | 2.5V | 07:40:37 | 02:48:45 | 00:00:00 | |
| DH3RM | 2026-08-31 02:14:15 | 52.94374 | 6.47495 | 40° | 111km/h | 10363m | -2.7m/s | -49.4°C | 8.4% | 253.4hPa | 2.5V | 00:00:00 | 00:00:00 | 00:00:00 | |
| DL1XH-15 | 2026-08-31 02:14:14 | 52.94232 | 6.47302 | 38° | 99km/h | 10383m | -2.8m/s | -49.4°C | 11.1% | 252.7hPa | 2.5V | 07:40:39 | 02:48:43 | 00:00:00 | |
| BIOWL1-15 | 2026-08-31 02:14:14 | 52.94332 | 6.47437 | 39° | 108km/h | 10368m | -2.9m/s | -49.4°C | 10.9% | 253.2hPa | 2.5V | 07:41:04 | 02:48:48 | 00:00:00 | |
| DL1XH-west | 2026-08-31 02:14:12 | 52.94291 | 6.47382 | 39° | 104km/h | 10374m | -2.9m/s | -49.5°C | 10.8% | 253hPa | 2.6V | 07:41:04 | 02:48:46 | 00:00:00 | |
| DH3RM | 2026-08-31 02:14:08 | 52.94232 | 6.47302 | 40° | 99km/h | 10383m | -2.8m/s | -49.4°C | 8.1% | 252.7hPa | 2.5V | 00:00:00 | 00:00:00 | 00:00:00 | |
| DF5WG-10 | 2026-08-31 02:14:07 | 52.94194 | 6.47252 | 39° | 95km/h | 10388m | -3.4m/s | -49.3°C | 11.0% | 252.4hPa | 2.5V | 00:00:00 | 02:48:41 | 00:00:00 | |
| DM0DOS-11 | 2026-08-31 02:14:06 | 52.94077 | 6.47123 | 28° | 97km/h | 10406m | -2.8m/s | -49.2°C | 10.5% | 251.8hPa | 2.5V | 07:40:47 | 02:48:35 | 00:00:00 | |
| BIOWL1-15 | 2026-08-31 02:14:05 | 52.94117 | 6.47163 | 33° | 95km/h | 10400m | -3.2m/s | -49.3°C | 10.2% | 252hPa | 2.5V | 07:41:04 | 02:48:37 | 00:00:00 | |
| DC4HF-4 | 2026-08-31 02:14:05 | 52.94156 | 6.47205 | 34° | 91km/h | 10394m | -3.1m/s | -49.3°C | 7.9% | 252.2hPa | 2.6V | 00:00:00 | 00:00:00 | 00:00:00 | |
| DL1XH-15 | 2026-08-31 02:14:04 | 52.94033 | 6.47084 | 27° | 99km/h | 10412m | -2.7m/s | -49.2°C | 10.4% | 251.6hPa | 2.6V | 07:40:49 | 02:48:33 | 00:00:00 | |
| DL1LOL-11 | 2026-08-31 02:14:03 | 52.94137 | 6.47184 | 33° | 93km/h | 10397m | -2.8m/s | -49.3°C | 7.8% | 252.1hPa | 2.6V | 07:41:00 | 00:00:00 | 00:00:00 | |
| GOEST3-10 | 2026-08-31 02:14:02 | 52.94097 | 6.47142 | 31° | 97km/h | 10403m | -3.1m/s | -49.2°C | 10.6% | 251.8hPa | 2.6V | 00:00:00 | 00:00:00 | 00:00:00 | |
| DL1XH-west | 2026-08-31 02:14:02 | 52.94097 | 6.47143 | 31° | 93km/h | 10403m | -3.2m/s | -49.3°C | 10.1% | 251.9hPa | 2.5V | 07:41:04 | 02:48:36 | 00:00:00 | |
| DH3RM | 2026-08-31 02:14:00 | 52.94077 | 6.47123 | 30° | 97km/h | 10406m | -2.8m/s | -49.2°C | 7.6% | 251.8hPa | 2.6V | 00:00:00 | 00:00:00 | 00:00:00 | |
| BIOWL7-15 | 2026-08-31 02:13:58 | 52.94033 | 6.47084 | 28° | 99km/h | 10412m | -2.7m/s | -49.2°C | 7.5% | 251.6hPa | 2.6V | 00:00:00 | 00:00:00 | 00:00:00 | |
| DF5WG-10 | 2026-08-31 02:13:57 | 52.93989 | 6.47044 | 29° | 111km/h | 10418m | -2.7m/s | -49.2°C | 10.3% | 251.2hPa | 2.6V | 00:00:00 | 02:48:31 | 00:00:00 | |
| DM0DOS-11 | 2026-08-31 02:13:56 | 52.93844 | 6.46905 | 32° | 115km/h | 10434m | -2.8m/s | -49.3°C | 10.1% | 250.7hPa | 2.6V | 07:40:57 | 02:48:25 | 00:00:00 | |
| DO9LL-15 | 2026-08-31 02:13:54 | 52.93917 | 6.46979 | 31° | 99km/h | 10426m | -2.7m/s | -49.2°C | 10.3% | 250.9hPa | 2.5V | 00:00:00 | 02:48:28 | 00:00:00 | |
| DH3RM | 2026-08-31 02:13:53 | 52.93917 | 6.46979 | 31° | 111km/h | 10426m | -2.7m/s | -49.3°C | 7.4% | 251.0hPa | 2.5V | 00:00:00 | 00:00:00 | 00:00:00 | |
| DL1XH-15 | 2026-08-31 02:13:52 | 52.93750 | 6.46792 | 38° | 113km/h | 10446m | -3m/s | -49.4°C | 10% | 250.3hPa | 2.5V | 07:41:01 | 02:48:21 | 00:00:00 | |
| BIOWL1-15 | 2026-08-31 02:13:52 | 52.93869 | 6.46930 | 32° | 113km/h | 10431m | -2.8m/s | -49.3°C | 9.4% | 250.8hPa | 2.5V | 07:41:04 | 02:48:26 | 00:00:00 | |
| DL1XH-west | 2026-08-31 02:13:51 | 52.93844 | 6.46905 | 33° | 115km/h | 10434m | -2.8m/s | -49.3°C | 9.4% | 250.7hPa | 2.6V | 07:41:04 | 02:48:25 | 00:00:00 | |
| DB0UT-7 | 2026-08-31 02:13:50 | 52.93820 | 6.46878 | 36° | 104km/h | 10437m | -2.9m/s | -49.3°C | 10.1% | 250.5hPa | 2.6V | 00:00:00 | 02:48:24 | 00:00:00 | |
| DF5WG-10 | 2026-08-31 02:13:47 | 52.93750 | 6.46792 | 39° | 100km/h | 10446m | -3.0m/s | -49.3°C | 10.0% | 250.2hPa | 2.6V | 07:41:00 | 02:48:21 | 00:00:00 | |
| DM0DOS-11 | 2026-08-31 02:13:46 | 52.93628 | 6.46630 | 36° | 95km/h | 10464m | -3m/s | -49.3°C | 9.6% | 249.6hPa | 2.6V | 07:41:07 | 02:48:15 | 00:00:00 | |
| BIOWL9-15 | 2026-08-31 02:13:45 | 52.93706 | 6.46734 | 38° | 106km/h | 10452m | -2.6m/s | 0°C | -1.0% | -1.0hPa | 2.5V | 00:00:00 | 00:00:00 | 00:00:00 | |
| WEDDY | 2026-08-31 02:13:44 | 52.93706 | 6.46734 | 40° | 108km/h | 10452m | -2.6m/s | -49.4°C | 7.0% | 250.0hPa | 2.5V | 07:41:00 | 00:00:00 | 00:00:00 | |
| DL1XH-15 | 2026-08-31 02:13:42 | 52.93549 | 6.46546 | 28° | 93km/h | 10476m | -3m/s | -49.3°C | 9.3% | 249.1hPa | 2.5V | 07:41:11 | 02:48:11 | 00:00:00 | |
| DL1XH-west | 2026-08-31 02:13:41 | 52.93628 | 6.46630 | 37° | 95km/h | 10464m | -3m/s | -49.3°C | 8.5% | 249.6hPa | 2.6V | 07:41:55 | 02:48:15 | 00:00:00 | |
| DL4BBY-15 | 2026-08-31 02:13:41 | 52.93627 | 6.46630 | 37° | 99km/h | 10464m | -2.9m/s | -49.7°C | 0% | 0hPa | 2.5V | 00:00:00 | 00:00:00 | 00:00:00 | |
| DJ2DS-15 | 2026-08-31 02:13:40 | 52.93608 | 6.46608 | 33° | 91km/h | 10467m | -2.8m/s | -49.3°C | 6.7% | 249.4hPa | 2.5V | 00:00:00 | 00:00:00 | 00:00:00 | |
| DH3RM | 2026-08-31 02:13:39 | 52.93608 | 6.46608 | 35° | 93km/h | 10467m | -2.8m/s | -49.3°C | 6.7% | 249.4hPa | 2.5V | 07:41:00 | 00:00:00 | 00:00:00 | |
| BIOWL7-15 | 2026-08-31 02:13:38 | 52.93589 | 6.46586 | 34° | 89km/h | 10470m | -3.2m/s | -49.3°C | 6.6% | 249.4hPa | 2.5V | 07:41:00 | 00:00:00 | 00:00:00 | |
| DF5WG-10 | 2026-08-31 02:13:37 | 52.93549 | 6.46546 | 29° | 104km/h | 10476m | -3.0m/s | -49.2°C | 9.3% | 249.0hPa | 2.5V | 00:00:00 | 02:48:11 | 00:00:00 | |
| DM0DOS-11 | 2026-08-31 02:13:36 | 52.93415 | 6.46425 | 30° | 110km/h | 10495m | -2.9m/s | -49.1°C | 8.9% | 248.4hPa | 2.5V | 07:41:17 | 02:48:05 | 00:00:00 | |
| DO2JMG | 2026-08-31 02:13:33 | 52.93462 | 6.46468 | 27° | 104km/h | 10488m | -3.1m/s | -49.1°C | 7.8% | 0hPa | 2.6V | 07:41:55 | 02:48:07 | 00:00:00 | |
| DL1XH-15 | 2026-08-31 02:13:32 | 52.93323 | 6.46323 | 36° | 108km/h | 10507m | -3m/s | -49°C | 8.7% | 248hPa | 2.6V | 07:41:21 | 02:48:01 | 00:00:00 | |
| BIOWL1-15 | 2026-08-31 02:13:30 | 52.93392 | 6.46401 | 32° | 110km/h | 10498m | -3m/s | -49.1°C | 7.7% | 248.3hPa | 2.5V | 07:41:55 | 02:48:04 | 00:00:00 | |
| DC4HF-4 | 2026-08-31 02:13:29 | 52.93368 | 6.46377 | 33° | 110km/h | 10500m | -3.0m/s | -49.1°C | 6.1% | 248.2hPa | 2.5V | 00:00:00 | 00:00:00 | 00:00:00 | |
| GOEST3-10 | 2026-08-31 02:13:27 | 52.93323 | 6.46323 | 37° | 104km/h | 10507m | -2.9m/s | -49.0°C | 8.7% | 247.9hPa | 2.5V | 00:00:00 | 02:48:01 | 00:00:00 | |
| DM0DOS-11 | 2026-08-31 02:13:26 | 52.93199 | 6.46165 | 38° | 99km/h | 10525m | -3m/s | -48.9°C | 8.5% | 247.3hPa | 2.5V | 07:41:27 | 02:47:55 | 00:00:00 | |
| DO2JMG | 2026-08-31 02:13:23 | 52.93238 | 6.46217 | 37° | 100km/h | 10519m | -2.9m/s | -48.9°C | 7.3% | 0hPa | 2.6V | 07:41:55 | 02:47:57 | 00:00:00 | |
| DL3AQ-11 | 2026-08-31 02:13:23 | 52.93218 | 6.46191 | 38° | 97km/h | 10521m | -3.2m/s | -48.9°C | 5.9% | 247.4hPa | 2.6V | 00:00:00 | 00:00:00 | 00:00:00 | |
| DL1XH-15 | 2026-08-31 02:13:22 | 52.93123 | 6.46064 | 39° | 93km/h | 10538m | -3.4m/s | -48.8°C | 8.4% | 246.8hPa | 2.6V | 07:41:31 | 02:47:51 | 00:00:00 | |
| DL1XH-west | 2026-08-31 02:13:19 | 52.93160 | 6.46115 | 38° | 97km/h | 10531m | -3.1m/s | -48.9°C | 7.2% | 247hPa | 2.5V | 07:41:55 | 02:47:53 | 00:00:00 | |
| BIOWL7-15 | 2026-08-31 02:13:18 | 52.93160 | 6.46114 | 39° | 97km/h | 10531m | -3.1m/s | -48.9°C | 5.8% | 247.0hPa | 2.6V | 07:41:00 | 00:00:00 | 00:00:00 | |
| GOEST3-10 | 2026-08-31 02:13:17 | 52.93123 | 6.46064 | 40° | 93km/h | 10538m | -3.3m/s | -48.8°C | 8.4% | 246.7hPa | 2.6V | 00:00:00 | 02:47:51 | 00:00:00 | |
| DM0DOS-11 | 2026-08-31 02:13:16 | 52.93013 | 6.45913 | 41° | 97km/h | 10556m | -3m/s | -48.8°C | 8.1% | 246.1hPa | 2.6V | 07:41:37 | 02:47:45 | 00:00:00 | |
| DO2JMG | 2026-08-31 02:13:13 | 52.93049 | 6.45965 | 40° | 97km/h | 10550m | -2.9m/s | -48.8°C | 6.7% | 0hPa | 2.5V | 07:41:55 | 02:47:47 | 00:00:00 | |
| BIOWL1-15 | 2026-08-31 02:13:08 | 52.92959 | 6.45833 | 42° | 93km/h | 10565m | -3.4m/s | -48.8°C | 6.4% | 245.8hPa | 2.5V | 07:41:55 | 02:47:42 | 00:00:00 | |
| DF5WG-10 | 2026-08-31 02:13:07 | 52.92942 | 6.45807 | 43° | 89km/h | 10569m | -3.2m/s | -48.8°C | 7.8% | 245.6hPa | 2.6V | 00:00:00 | 02:47:41 | 00:00:00 | |
| DM0DOS-11 | 2026-08-31 02:13:06 | 52.92841 | 6.45661 | 36° | 88km/h | 10587m | -2.9m/s | -48.7°C | 7.3% | 245hPa | 2.6V | 07:41:47 | 02:47:35 | 00:00:00 | |
| DD1CC2-15 | 2026-08-31 02:13:05 | 52.92925 | 6.45781 | 44° | 91km/h | 10572m | -3.2m/s | -48.8°C | 5.1% | 245.5hPa | 2.5V | 00:00:00 | 00:00:00 | 00:00:00 | |
| DJ2DS-15 | 2026-08-31 02:13:04 | 52.92891 | 6.45731 | 41° | 88km/h | 10578m | -3.2m/s | -48.7°C | 5.0% | 245.4hPa | 2.5V | 00:00:00 | 00:00:00 | 00:00:00 | |
| WEDDY | 2026-08-31 02:13:03 | 52.92891 | 6.45731 | 43° | 88km/h | 10579m | -3.2m/s | -48.7°C | 5.0% | 245.4hPa | 2.5V | 07:41:00 | 00:00:00 | 00:00:00 | |
| DL1XH-15 | 2026-08-31 02:13:02 | 52.92763 | 6.45574 | 33° | 99km/h | 10599m | -3.3m/s | -48.5°C | 7% | 244.6hPa | 2.5V | 07:41:51 | 02:47:31 | 00:00:00 | |
| DO2JMG | 2026-08-31 02:13:02 | 52.92858 | 6.45684 | 39° | 86km/h | 10584m | -2.8m/s | -48.7°C | 5.9% | 0hPa | 2.5V | 07:41:55 | 02:47:36 | 00:00:00 | |
| DL1XH-west | 2026-08-31 02:12:58 | 52.92784 | 6.45597 | 33° | 97km/h | 10596m | -3.2m/s | -48.5°C | 5.4% | 244.7hPa | 2.5V | 07:41:55 | 02:47:32 | 00:00:00 | |
| DF5WG-10 | 2026-08-31 02:12:57 | 52.92763 | 6.45574 | 34° | 104km/h | 10600m | -3.2m/s | -48.4°C | 7.0% | 244.5hPa | 2.5V | 00:00:00 | 02:47:31 | 00:00:00 | |
| DM0DOS-11 | 2026-08-31 02:12:56 | 52.92638 | 6.45417 | 40° | 106km/h | 10619m | -3.1m/s | -48.1°C | 6.6% | 243.8hPa | 2.5V | 07:41:57 | 02:47:25 | 00:00:00 | |
| DC4HF-4 | 2026-08-31 02:12:53 | 52.92658 | 6.45446 | 39° | 104km/h | 10616m | -3.2m/s | -48.1°C | 4.3% | 243.9hPa | 2.6V | 00:00:00 | 00:00:00 | 00:00:00 | |
| DL1XH-15 | 2026-08-31 02:12:52 | 52.92561 | 6.45299 | 44° | 100km/h | 10632m | -3.1m/s | -48°C | 6.4% | 243.3hPa | 2.6V | 07:42:01 | 02:47:21 | 00:00:00 | |
| DO2JMG | 2026-08-31 02:12:51 | 52.92638 | 6.45417 | 41° | 106km/h | 10620m | -3.1m/s | 0°C | 0% | 0hPa | 2.5V | 18:12:15 | 02:47:25 | 00:00:00 | |
| DL1XH-west | 2026-08-31 02:12:47 | 52.92561 | 6.45299 | 45° | 100km/h | 10632m | -3.1m/s | -48°C | 4.7% | 243.3hPa | 2.6V | 07:42:46 | 02:47:21 | 00:00:00 | |
| DF5WG-10 | 2026-08-31 02:12:47 | 52.92561 | 6.45299 | 45° | 97km/h | 10632m | -3.0m/s | -48.0°C | 6.4% | 243.3hPa | 2.5V | 00:00:00 | 02:47:21 | 00:00:00 | |
| DM0DOS-11 | 2026-08-31 02:12:46 | 52.92459 | 6.45123 | 47° | 95km/h | 10650m | -3.1m/s | -48°C | 6.3% | 242.6hPa | 2.5V | 07:42:07 | 02:47:15 | 00:00:00 | |
| DO9LL-15 | 2026-08-31 02:12:44 | 52.92509 | 6.45210 | 47° | 89km/h | 10641m | -3.0m/s | -48.0°C | 6.4% | 242.9hPa | 2.5V | 00:00:00 | 02:47:18 | 00:00:00 | |
| BIOWL9-15 | 2026-08-31 02:12:43 | 52.92492 | 6.45181 | 46° | 95km/h | 10644m | -3.2m/s | -48.0°C | 4.1% | 242.9hPa | 2.6V | 00:00:00 | 00:00:00 | 00:00:00 | |
| DL1XH-15 | 2026-08-31 02:12:42 | 52.92395 | 6.45009 | 47° | 91km/h | 10663m | -3.1m/s | -48.1°C | 6.2% | 242.2hPa | 2.6V | 07:42:11 | 02:47:11 | 00:00:00 | |
| BIOWL1-15 | 2026-08-31 02:12:37 | 52.92396 | 6.45009 | 48° | 91km/h | 10663m | -3.1m/s | -48.1°C | 4.3% | 242.2hPa | 2.6V | 07:42:46 | 02:47:11 | 00:00:00 | |
| BIOWL7-15 | 2026-08-31 02:12:36 | 52.92395 | 6.45008 | 49° | 91km/h | 10663m | -3.1m/s | -48.1°C | 3.9% | 242.2hPa | 2.6V | 07:42:00 | 00:00:00 | 00:00:00 | |
| DH3RM | 2026-08-31 02:12:35 | 52.92380 | 6.44980 | 49° | 91km/h | 10666m | -3.2m/s | -48.1°C | 3.9% | 242.1hPa | 2.6V | 00:00:00 | 00:00:00 | 00:00:00 | |
| DC6BW-12 | 2026-08-31 02:12:34 | 52.92364 | 6.44952 | 49° | 91km/h | 10669m | -3.1m/s | -48.1°C | 3.9% | 241.9hPa | 2.6V | 07:42:00 | 00:00:00 | 00:00:00 | |
| DL1XH-15 | 2026-08-31 02:12:32 | 52.92246 | 6.44735 | 45° | 82km/h | 10695m | -3.2m/s | -47.9°C | 5.7% | 241hPa | 2.6V | 07:42:21 | 02:47:01 | 00:00:00 | |
| BIOWL1-15 | 2026-08-31 02:12:27 | 52.92246 | 6.44735 | 46° | 82km/h | 10695m | -3.2m/s | -47.9°C | 3.6% | 241hPa | 2.6V | 07:42:46 | 02:47:01 | 00:00:00 | |
| DF5WG-10 | 2026-08-31 02:12:27 | 52.92246 | 6.44735 | 46° | 88km/h | 10695m | -3.2m/s | -47.8°C | 5.7% | 240.9hPa | 2.6V | 07:42:00 | 02:47:01 | 00:00:00 | |
| DM0DOS-11 | 2026-08-31 02:12:26 | 52.92150 | 6.44595 | 39° | 91km/h | 10714m | -3.4m/s | -47.6°C | 5.4% | 240.3hPa | 2.6V | 07:42:27 | 02:46:55 | 00:00:00 | |
| DL1XH-west | 2026-08-31 02:12:26 | 52.92232 | 6.44711 | 44° | 82km/h | 10698m | -3.1m/s | -47.7°C | 3.5% | 240.8hPa | 2.6V | 07:42:46 | 02:47:00 | 00:00:00 | |
| DD1CC2-15 | 2026-08-31 02:12:24 | 52.92217 | 6.44687 | 44° | 82km/h | 10701m | -3.2m/s | -47.6°C | 3.4% | 240.8hPa | 2.5V | 07:42:00 | 00:00:00 | 00:00:00 | |
| DL1XH-15 | 2026-08-31 02:12:22 | 52.92078 | 6.44486 | 45° | 99km/h | 10728m | -3.5m/s | -47.5°C | 5.4% | 239.8hPa | 2.5V | 07:42:31 | 02:46:51 | 00:00:00 | |
| BIOWL1-15 | 2026-08-31 02:12:19 | 52.92078 | 6.44486 | 46° | 99km/h | 10728m | -3.5m/s | -47.5°C | 3.3% | 239.8hPa | 2.5V | 07:42:46 | 02:46:51 | 00:00:00 | |
| DL1XH-west | 2026-08-31 02:12:15 | 52.92045 | 6.44426 | 49° | 97km/h | 10735m | -3.6m/s | -47.5°C | 3.3% | 239.6hPa | 2.6V | 07:42:46 | 02:46:49 | 00:00:00 | |
| DC6BW-12 | 2026-08-31 02:12:14 | 52.92044 | 6.44426 | 49° | 97km/h | 10735m | -3.6m/s | -47.5°C | 3.2% | 239.6hPa | 2.5V | 07:42:00 | 00:00:00 | 00:00:00 | |
| DL1XH-15 | 2026-08-31 02:12:12 | 52.91930 | 6.44193 | 50° | 82km/h | 10762m | -3.3m/s | -47.4°C | 5% | 238.6hPa | 2.5V | 07:42:41 | 02:46:41 | 00:00:00 | |
| GOEST3-10 | 2026-08-31 02:12:12 | 52.91998 | 6.44335 | 52° | 88km/h | 10745m | -3.2m/s | -47.4°C | 5.2% | 239.1hPa | 2.5V | 07:42:00 | 00:00:00 | 00:00:00 | |
| DO9LL-15 | 2026-08-31 02:12:11 | 52.91984 | 6.44306 | 52° | 88km/h | 10749m | -3.4m/s | -47.4°C | 5.2% | 239.0hPa | 2.5V | 00:00:00 | 02:46:45 | 00:00:00 | |
| SONCRA | 2026-08-31 02:12:08 | 52.91943 | 6.44220 | 51° | 84km/h | 10759m | -3.4m/s | -47.4°C | 3.0% | 238.7hPa | 2.5V | 00:00:00 | 00:00:00 | 00:00:00 | |
| DF5WG-10 | 2026-08-31 02:12:07 | 52.91930 | 6.44193 | 51° | 82km/h | 10762m | -3.3m/s | -47.4°C | 5.0% | 238.6hPa | 2.5V | 00:00:00 | 02:46:41 | 00:00:00 | |
| DM0DOS-11 | 2026-08-31 02:12:06 | 52.91846 | 6.44049 | 40° | 82km/h | 10783m | -3.4m/s | -47.3°C | 5% | 237.8hPa | 2.5V | 07:42:47 | 02:46:35 | 00:00:00 | |
| BIOWL1-15 | 2026-08-31 02:12:06 | 52.91917 | 6.44167 | 50° | 80km/h | 10766m | -3.6m/s | -47.4°C | 3% | 238.4hPa | 2.5V | 07:42:46 | 02:46:40 | 00:00:00 | |
| DL1XH-west | 2026-08-31 02:12:04 | 52.91890 | 6.44118 | 46° | 78km/h | 10773m | -3.5m/s | -47.4°C | 2.9% | 238.2hPa | 2.6V | 07:42:46 | 02:46:38 | 00:00:00 | |
| DD1CC2-15 | 2026-08-31 02:12:03 | 52.91890 | 6.44118 | 47° | 78km/h | 10773m | -3.5m/s | -47.4°C | 3.0% | 238.2hPa | 2.6V | 07:42:00 | 00:00:00 | 00:00:00 | |
| GOEST3-10 | 2026-08-31 02:12:02 | 52.91861 | 6.44071 | 42° | 86km/h | 10780m | -3.4m/s | -47.3°C | 5.1% | 237.9hPa | 2.6V | 00:00:00 | 00:00:00 | 00:00:00 | |
| DL1XH-15 | 2026-08-31 02:12:02 | 52.91776 | 6.43956 | 39° | 95km/h | 10797m | -3.6m/s | -47.4°C | 5% | 237.3hPa | 2.6V | 07:42:51 | 02:46:31 | 00:00:00 | |
| WEDDY | 2026-08-31 02:12:01 | 52.91861 | 6.44071 | 43° | 80km/h | 10780m | -3.5m/s | -47.4°C | 3.0% | 237.9hPa | 2.6V | 07:42:00 | 00:00:00 | 00:00:00 | |
| DF5WG-10 | 2026-08-31 02:11:57 | 52.91776 | 6.43956 | 40° | 97km/h | 10797m | -3.5m/s | -47.3°C | 5.0% | 237.3hPa | 2.6V | 00:00:00 | 02:46:31 | 00:00:00 | |
| DM0DOS-11 | 2026-08-31 02:11:56 | 52.91668 | 6.43786 | 48° | 97km/h | 10818m | -3.4m/s | -47.6°C | 5% | 236.6hPa | 2.6V | 07:42:57 | 02:46:25 | 00:00:00 | |
| BIOWL1-15 | 2026-08-31 02:11:55 | 52.91739 | 6.43903 | 42° | 99km/h | 10804m | -3.5m/s | -47.4°C | 2.9% | 237.1hPa | 2.5V | 07:43:37 | 02:46:29 | 00:00:00 | |
| DL1XH-west | 2026-08-31 02:11:53 | 52.91702 | 6.43846 | 45° | 100km/h | 10811m | -3.5m/s | -47.5°C | 2.9% | 236.8hPa | 2.5V | 07:43:37 | 02:46:27 | 00:00:00 | |
| DL1XH-15 | 2026-08-31 02:11:52 | 52.91610 | 6.43667 | 52° | 86km/h | 10832m | -3.4m/s | -47.6°C | 4.9% | 236.1hPa | 2.5V | 07:43:01 | 02:46:21 | 00:00:00 | |
| DL3AQ-11 | 2026-08-31 02:11:52 | 52.91638 | 6.43725 | 51° | 91km/h | 10825m | -3.4m/s | -47.6°C | 2.9% | 236.3hPa | 2.6V | 00:00:00 | 00:00:00 | 00:00:00 | |
| DB0UT-7 | 2026-08-31 02:11:50 | 52.91653 | 6.43755 | 51° | 88km/h | 10822m | -3.4m/s | -47.5°C | 4.9% | 236.4hPa | 2.6V | 00:00:00 | 02:46:24 | 00:00:00 | |
| DF5WG-10 | 2026-08-31 02:11:47 | 52.91610 | 6.43667 | 53° | 80km/h | 10832m | -3.3m/s | -47.5°C | 4.9% | 236.0hPa | 2.6V | 00:00:00 | 02:46:21 | 00:00:00 | |
| DM0DOS-11 | 2026-08-31 02:11:46 | 52.91531 | 6.43514 | 44° | 77km/h | 10854m | -3.6m/s | -47.4°C | 4.8% | 235.3hPa | 2.6V | 07:43:07 | 02:46:15 | 00:00:00 | |
| BIOWL1-15 | 2026-08-31 02:11:44 | 52.91571 | 6.43586 | 50° | 80km/h | 10843m | -3.7m/s | -47.5°C | 2.7% | 235.7hPa | 2.5V | 07:43:37 | 02:46:18 | 00:00:00 | |
| DD1CC2-15 | 2026-08-31 02:11:43 | 52.91571 | 6.43586 | 51° | 80km/h | 10843m | -3.7m/s | -47.5°C | 2.8% | 235.7hPa | 2.5V | 00:00:00 | 00:00:00 | 00:00:00 | |
| GOEST3-10 | 2026-08-31 02:11:42 | 52.91544 | 6.43537 | 47° | 78km/h | 10850m | -3.6m/s | -47.4°C | 4.8% | 235.4hPa | 2.5V | 00:00:00 | 00:00:00 | 00:00:00 | |
| DL1XH-west | 2026-08-31 02:11:42 | 52.91544 | 6.43537 | 47° | 78km/h | 10850m | -3.7m/s | -47.4°C | 2.6% | 235.4hPa | 2.6V | 07:43:37 | 02:46:16 | 00:00:00 | |
| DC4HF-4 | 2026-08-31 02:11:41 | 52.91516 | 6.43491 | 42° | 77km/h | 10857m | -3.4m/s | -47.4°C | 2.7% | 235.2hPa | 2.5V | 00:00:00 | 00:00:00 | 00:00:00 | |
| DO9LL-15 | 2026-08-31 02:11:38 | 52.91486 | 6.43447 | 40° | 88km/h | 10865m | -3.5m/s | -47.4°C | 4.8% | 234.9hPa | 2.5V | 00:00:00 | 02:46:12 | 00:00:00 | |
| DF5WG-10 | 2026-08-31 02:11:37 | 52.91470 | 6.43426 | 40° | 91km/h | 10868m | -3.4m/s | -47.4°C | 4.8% | 234.7hPa | 2.5V | 00:00:00 | 02:46:11 | 00:00:00 | |
| DM0DOS-11 | 2026-08-31 02:11:36 | 52.91364 | 6.43288 | 39° | 97km/h | 10890m | -3.5m/s | -47.6°C | 4.9% | 234hPa | 2.5V | 07:43:17 | 02:46:05 | 00:00:00 | |
| BIOWL1-15 | 2026-08-31 02:11:34 | 52.91419 | 6.43360 | 38° | 89km/h | 10879m | -3.6m/s | -47.5°C | 2.6% | 234.4hPa | 2.6V | 07:43:37 | 02:46:08 | 00:00:00 | |
| BIOWL7-15 | 2026-08-31 02:11:33 | 52.91419 | 6.43360 | 39° | 89km/h | 10879m | -3.6m/s | -47.5°C | 2.7% | 234.4hPa | 2.6V | 07:43:00 | 00:00:00 | 00:00:00 | |
| DL1XH-15 | 2026-08-31 02:11:32 | 52.91293 | 6.43175 | 47° | 97km/h | 10904m | -3.6m/s | -47.6°C | 4.8% | 233.5hPa | 2.6V | 07:43:21 | 02:46:01 | 00:00:00 | |
| GOEST3-10 | 2026-08-31 02:11:32 | 52.91383 | 6.43313 | 39° | 97km/h | 10886m | -3.5m/s | -47.5°C | 4.9% | 234.1hPa | 2.6V | 07:43:00 | 00:00:00 | 00:00:00 | |
| DL1XH-west | 2026-08-31 02:11:32 | 52.91383 | 6.43313 | 39° | 95km/h | 10886m | -3.6m/s | -47.6°C | 2.6% | 234.1hPa | 2.5V | 07:43:37 | 02:46:06 | 00:00:00 | |
| DF5WG-10 | 2026-08-31 02:11:27 | 52.91293 | 6.43175 | 48° | 86km/h | 10904m | -3.5m/s | -47.6°C | 4.8% | 233.5hPa | 2.6V | 00:00:00 | 02:46:01 | 00:00:00 | |
| DM0DOS-11 | 2026-08-31 02:11:26 | 52.91207 | 6.43004 | 48° | 80km/h | 10925m | -3.7m/s | -47.7°C | 4.7% | 232.8hPa | 2.5V | 07:43:27 | 02:45:55 | 00:00:00 | |
| BIOWL1-15 | 2026-08-31 02:11:23 | 52.91234 | 6.43057 | 51° | 86km/h | 10918m | -3.5m/s | -47.7°C | 2.5% | 233.1hPa | 2.6V | 07:43:37 | 02:45:57 | 00:00:00 | |
| DL3AQ-11 | 2026-08-31 02:11:23 | 52.91220 | 6.43030 | 50° | 82km/h | 10922m | -3.7m/s | -47.7°C | 2.7% | 232.9hPa | 2.6V | 00:00:00 | 00:00:00 | 00:00:00 | |
| GOEST3-10 | 2026-08-31 02:11:22 | 52.91220 | 6.43030 | 51° | 80km/h | 10922m | -3.6m/s | -47.6°C | 4.7% | 232.9hPa | 2.6V | 00:00:00 | 00:00:00 | 00:00:00 | |
| DL1XH-15 | 2026-08-31 02:11:21 | 52.91133 | 6.42891 | 38° | 82km/h | 10944m | -3.7m/s | -47.7°C | 4.7% | 232.1hPa | 2.6V | 07:43:32 | 02:45:50 | 00:00:00 | |
| DL1XH-west | 2026-08-31 02:11:21 | 52.91207 | 6.43004 | 49° | 80km/h | 10925m | -3.7m/s | -47.7°C | 2.5% | 232.8hPa | 2.5V | 07:43:37 | 02:45:55 | 00:00:00 | |
| DB0UT-7 | 2026-08-31 02:11:20 | 52.91193 | 6.42980 | 47° | 80km/h | 10929m | -3.8m/s | -47.6°C | 4.7% | 232.6hPa | 2.5V | 00:00:00 | 00:00:00 | 00:00:00 | |
| DL1LOL-11 | 2026-08-31 02:11:19 | 52.91193 | 6.42980 | 47° | 78km/h | 10929m | -3.8m/s | -47.7°C | 2.7% | 232.6hPa | 2.6V | 00:00:00 | 00:00:00 | 00:00:00 | |
| DF5WG-10 | 2026-08-31 02:11:17 | 52.91149 | 6.42912 | 40° | 86km/h | 10940m | -3.5m/s | -47.7°C | 4.7% | 232.2hPa | 2.6V | 00:00:00 | 02:45:51 | 00:00:00 | |
| DM0DOS-11 | 2026-08-31 02:11:16 | 52.91049 | 6.42782 | 38° | 88km/h | 10962m | -3.5m/s | -47.9°C | 4.8% | 231.5hPa | 2.6V | 07:43:37 | 02:45:45 | 00:00:00 | |
| BIOWL1-15 | 2026-08-31 02:11:13 | 52.91083 | 6.42826 | 38° | 86km/h | 10955m | -3.9m/s | -47.8°C | 2.5% | 231.8hPa | 2.5V | 07:43:37 | 02:45:47 | 00:00:00 | |
| DL3AQ-11 | 2026-08-31 02:11:12 | 52.91049 | 6.42782 | 38° | 86km/h | 10962m | -3.5m/s | -47.9°C | 2.7% | 231.5hPa | 2.6V | 00:00:00 | 00:00:00 | 00:00:00 | |
| DL1XH-15 | 2026-08-31 02:11:11 | 52.90968 | 6.42660 | 45° | 86km/h | 10980m | -3.9m/s | -48°C | 4.9% | 230.8hPa | 2.6V | 07:43:42 | 02:45:40 | 00:00:00 | |
| DL1XH-west | 2026-08-31 02:11:10 | 52.91032 | 6.42759 | 40° | 86km/h | 10965m | -2.9m/s | -47.9°C | 2.6% | 231.3hPa | 2.5V | 07:44:28 | 02:45:44 | 00:00:00 | |
| DH3RM | 2026-08-31 02:11:08 | 52.91015 | 6.42735 | 43° | 88km/h | 10969m | -3.7m/s | -47.9°C | 2.7% | 231.2hPa | 2.6V | 00:00:00 | 00:00:00 | 00:00:00 | |
| DF5WG-10 | 2026-08-31 02:11:07 | 52.90983 | 6.42685 | 45° | 80km/h | 10977m | -4.0m/s | -47.9°C | 4.9% | 231.0hPa | 2.6V | 07:43:00 | 02:45:41 | 00:00:00 | |
| DM0DOS-11 | 2026-08-31 02:11:06 | 52.90896 | 6.42538 | 45° | 78km/h | 11000m | -4m/s | -48°C | 5% | 230.1hPa | 2.6V | 07:43:47 | 02:45:35 | 00:00:00 | |
| BIOWL1-15 | 2026-08-31 02:11:05 | 52.90924 | 6.42585 | 46° | 80km/h | 10993m | -3.8m/s | -48.1°C | 2.6% | 230.4hPa | 2.5V | 07:44:28 | 02:45:37 | 00:00:00 | |
| DO3DL | 2026-08-31 02:11:04 | 52.90953 | 6.42635 | 47° | 84km/h | 10985m | -4.3m/s | -48.0°C | 2.7% | 230.7hPa | 2.6V | 07:44:00 | 00:00:00 | 00:00:00 | |
| GOEST3-10 | 2026-08-31 02:11:02 | 52.90910 | 6.42561 | 46° | 77km/h | 10996m | -3.8m/s | -48.0°C | 4.9% | 230.2hPa | 2.6V | 00:00:00 | 00:00:00 | 00:00:00 | |
| DL1XH-15 | 2026-08-31 02:11:01 | 52.90828 | 6.42430 | 41° | 73km/h | 11020m | -3.5m/s | -48°C | 4.9% | 229.5hPa | 2.6V | 07:43:52 | 02:45:30 | 00:00:00 | |
| DL1XH-west | 2026-08-31 02:10:59 | 52.90868 | 6.42493 | 44° | 77km/h | 11008m | -4.3m/s | -48°C | 2.7% | 229.9hPa | 2.5V | 07:44:28 | 02:45:33 | 00:00:00 | |
| DO3DL | 2026-08-31 02:10:58 | 52.90868 | 6.42493 | 45° | 77km/h | 11008m | -4.3m/s | -48.0°C | 2.8% | 229.9hPa | 2.5V | 07:44:00 | 00:00:00 | 00:00:00 | |
| DF5WG-10 | 2026-08-31 02:10:57 | 52.90841 | 6.42450 | 43° | 69km/h | 11016m | -3.8m/s | -48.0°C | 4.9% | 229.6hPa | 2.5V | 00:00:00 | 02:45:31 | 00:00:00 | |
| DM0DOS-11 | 2026-08-31 02:10:56 | 52.90761 | 6.42333 | 39° | 68km/h | 11037m | -3.5m/s | -48.1°C | 4.8% | 228.8hPa | 2.6V | 07:43:57 | 02:45:25 | 00:00:00 | |
| BIOWL1-15 | 2026-08-31 02:10:52 | 52.90774 | 6.42352 | 41° | 69km/h | 11034m | -3.6m/s | -48.2°C | 2.6% | 228.9hPa | 2.5V | 07:44:28 | 02:45:26 | 00:00:00 | |
| DL1XH-15 | 2026-08-31 02:10:51 | 52.90694 | 6.42247 | 35° | 69km/h | 11055m | -3.6m/s | -48.2°C | 4.8% | 228.2hPa | 2.5V | 07:44:02 | 02:45:20 | 00:00:00 | |
| DL1XH-west | 2026-08-31 02:10:49 | 52.90735 | 6.42298 | 38° | 66km/h | 11044m | -3.4m/s | -48.2°C | 2.7% | 228.6hPa | 2.5V | 07:44:28 | 02:45:23 | 00:00:00 | |
| DF5WG-10 | 2026-08-31 02:10:47 | 52.90708 | 6.42264 | 37° | 80km/h | 11052m | -3.4m/s | -48.2°C | 4.9% | 228.3hPa | 2.5V | 00:00:00 | 02:45:21 | 00:00:00 | |
| DM0DOS-11 | 2026-08-31 02:10:46 | 52.90613 | 6.42153 | 36° | 86km/h | 11074m | -3.4m/s | -48.4°C | 4.9% | 227.6hPa | 2.5V | 07:44:07 | 02:45:15 | 00:00:00 | |
| BIOWL1-15 | 2026-08-31 02:10:42 | 52.90630 | 6.42174 | 36° | 84km/h | 11070m | -3.8m/s | -48.3°C | 2.7% | 227.7hPa | 2.5V | 07:44:28 | 02:45:16 | 00:00:00 | |
| DL1XH-west | 2026-08-31 02:10:38 | 52.90560 | 6.42087 | 38° | 86km/h | 11085m | -3.8m/s | -48.4°C | 2.6% | 227.2hPa | 2.6V | 07:44:28 | 02:45:12 | 00:00:00 | |
| DF5WG-10 | 2026-08-31 02:10:37 | 52.90543 | 6.42066 | 38° | 73km/h | 11088m | -3.5m/s | -48.4°C | 5.0% | 227.0hPa | 2.6V | 00:00:00 | 02:45:11 | 00:00:00 | |
| DM0DOS-11 | 2026-08-31 02:10:36 | 52.90453 | 6.41951 | 35° | 69km/h | 11110m | -3.8m/s | -48.5°C | 4.9% | 226.4hPa | 2.6V | 07:44:17 | 02:45:05 | 00:00:00 | |
| BIOWL1-15 | 2026-08-31 02:10:31 | 52.90453 | 6.41951 | 36° | 69km/h | 11110m | -3.8m/s | -48.5°C | 2.6% | 226.4hPa | 2.6V | 07:44:28 | 02:45:05 | 00:00:00 | |
| DL1XH-west | 2026-08-31 02:10:28 | 52.90410 | 6.41902 | 33° | 71km/h | 11121m | -3.9m/s | -48.6°C | 2.6% | 225.9hPa | 2.5V | 07:44:28 | 02:45:02 | 00:00:00 | |
| DF5WG-10 | 2026-08-31 02:10:27 | 52.90394 | 6.41886 | 34° | 82km/h | 11125m | -4.1m/s | -48.5°C | 5.0% | 225.7hPa | 2.5V | 00:00:00 | 02:45:01 | 00:00:00 | |
| DM0DOS-11 | 2026-08-31 02:10:26 | 52.90295 | 6.41771 | 37° | 86km/h | 11148m | -4.1m/s | -48.7°C | 5% | 225hPa | 2.6V | 07:44:27 | 02:44:55 | 00:00:00 | |
| BIOWL1-15 | 2026-08-31 02:10:22 | 52.90278 | 6.41750 | 37° | 84km/h | 11152m | -3.8m/s | -48.8°C | 2.7% | 224.9hPa | 2.5V | 07:44:28 | 02:44:54 | 00:00:00 | |
| DL1XH-15 | 2026-08-31 02:10:21 | 52.90208 | 6.41662 | 37° | 86km/h | 11167m | -3.6m/s | -48.9°C | 5% | 224.4hPa | 2.6V | 07:44:32 | 02:44:50 | 00:00:00 | |
| DL1XH-west | 2026-08-31 02:10:17 | 52.90226 | 6.41685 | 38° | 89km/h | 11163m | -3.5m/s | -48.9°C | 2.6% | 224.5hPa | 2.5V | 07:45:19 | 02:44:51 | 00:00:00 | |
| DF5WG-10 | 2026-08-31 02:10:17 | 52.90226 | 6.41685 | 38° | 89km/h | 11163m | -3.5m/s | -48.8°C | 5.0% | 224.4hPa | 2.6V | 00:00:00 | 02:44:51 | 00:00:00 | |
| DM0DOS-11 | 2026-08-31 02:10:16 | 52.90123 | 6.41545 | 41° | 89km/h | 11185m | -3.5m/s | -48.8°C | 4.9% | 223.7hPa | 2.6V | 07:44:37 | 02:44:45 | 00:00:00 | |
| DD1CC3-15 | 2026-08-31 02:10:15 | 52.90208 | 6.41662 | 39° | 86km/h | 11167m | -3.6m/s | -48.9°C | 2.8% | 224.4hPa | 2.5V | 00:00:00 | 00:00:00 | 00:00:00 | |
| HTAHTA | 2026-08-31 02:10:13 | 52.90140 | 6.41569 | 40° | 89km/h | 11181m | -3.6m/s | -48.9°C | 2.7% | 223.9hPa | 2.5V | 00:00:00 | 00:00:00 | 00:00:00 | |
| GOEST3-10 | 2026-08-31 02:10:12 | 52.90140 | 6.41569 | 41° | 89km/h | 11182m | -3.5m/s | -48.8°C | 4.9% | 223.8hPa | 2.5V | 07:44:00 | 00:00:00 | 00:00:00 | |
| DL1XH-15 | 2026-08-31 02:10:11 | 52.90039 | 6.41418 | 42° | 91km/h | 11202m | -3.4m/s | -48.8°C | 4.9% | 223.2hPa | 2.5V | 07:44:42 | 02:44:40 | 00:00:00 | |
| BIOWL1-15 | 2026-08-31 02:10:10 | 52.90107 | 6.41520 | 42° | 89km/h | 11188m | -3.4m/s | -48.8°C | 2.5% | 223.6hPa | 2.6V | 07:45:19 | 02:44:44 | 00:00:00 | |
| DL1XH-west | 2026-08-31 02:10:06 | 52.90039 | 6.41418 | 42° | 91km/h | 11202m | -3.4m/s | -48.8°C | 2.4% | 223.2hPa | 2.5V | 07:45:19 | 02:44:40 | 00:00:00 | |
| DO9LL-15 | 2026-08-31 02:10:05 | 52.90022 | 6.41392 | 42° | 89km/h | 11205m | -3.3m/s | -48.8°C | 4.9% | 223.0hPa | 2.5V | 00:00:00 | 02:44:39 | 00:00:00 | |
| DJ2DS-15 | 2026-08-31 02:10:04 | 52.89988 | 6.41340 | 40° | 91km/h | 11212m | -3.1m/s | -48.9°C | 2.7% | 222.8hPa | 2.5V | 00:00:00 | 00:00:00 | 00:00:00 | |
| BIOWL1-15 | 2026-08-31 02:10:03 | 52.89916 | 6.41239 | 40° | 93km/h | 11225m | -2.8m/s | -48.9°C | 2.3% | 222.4hPa | 2.6V | 07:45:19 | 02:44:33 | 00:00:00 | |
| DL3AQ-11 | 2026-08-31 02:10:03 | 52.89970 | 6.41315 | 40° | 93km/h | 11215m | -2.8m/s | -48.9°C | 2.7% | 222.7hPa | 2.5V | 00:00:00 | 00:00:00 | 00:00:00 | |
| GOEST3-10 | 2026-08-31 02:10:02 | 52.89970 | 6.41315 | 41° | 93km/h | 11216m | -2.8m/s | -48.8°C | 4.9% | 222.7hPa | 2.5V | 00:00:00 | 00:00:00 | 00:00:00 | |
| DL1XH-15 | 2026-08-31 02:10:01 | 52.89862 | 6.41163 | 40° | 97km/h | 11235m | -2.9m/s | -48.9°C | 4.7% | 222hPa | 2.5V | 07:44:52 | 02:44:30 | 00:00:00 | |
| DF5WG-10 | 2026-08-31 02:09:57 | 52.89880 | 6.41188 | 41° | 100km/h | 11232m | -3.0m/s | -48.9°C | 4.8% | 222.1hPa | 2.5V | 00:00:00 | 02:44:31 | 00:00:00 | |
| DM0DOS-11 | 2026-08-31 02:09:56 | 52.89768 | 6.41026 | 42° | 100km/h | 11253m | -3.9m/s | -48.9°C | 4.5% | 221.4hPa | 2.5V | 07:44:57 | 02:44:25 | 00:00:00 | |
| DL1XH-west | 2026-08-31 02:09:56 | 52.89862 | 6.41163 | 41° | 97km/h | 11235m | -2.9m/s | -48.9°C | 2.2% | 222hPa | 2.5V | 07:45:19 | 02:44:30 | 00:00:00 | |
| DL3AQ-11 | 2026-08-31 02:09:52 | 52.89768 | 6.41026 | 42° | 100km/h | 11253m | -3.9m/s | -48.9°C | 2.4% | 221.4hPa | 2.5V | 00:00:00 | 00:00:00 | 00:00:00 | |
| DL1XH-15 | 2026-08-31 02:09:51 | 52.89678 | 6.40879 | 46° | 93km/h | 11271m | -3.1m/s | -48.9°C | 4.6% | 220.9hPa | 2.5V | 07:45:02 | 02:44:20 | 00:00:00 | |
| BIOWL1-15 | 2026-08-31 02:09:48 | 52.89712 | 6.40938 | 44° | 102km/h | 11264m | -3.3m/s | -48.8°C | 2% | 221.1hPa | 2.6V | 07:45:19 | 02:44:22 | 00:00:00 | |
| DF5WG-10 | 2026-08-31 02:09:47 | 52.89694 | 6.40908 | 47° | 82km/h | 11268m | -3.3m/s | -48.8°C | 4.5% | 220.9hPa | 2.5V | 07:45:00 | 02:44:21 | 00:00:00 | |
| DM0DOS-11 | 2026-08-31 02:09:46 | 52.89603 | 6.40755 | 42° | 78km/h | 11286m | -3.4m/s | -48.9°C | 4.5% | 220.3hPa | 2.5V | 07:45:07 | 02:44:15 | 00:00:00 | |
| DL1XH-west | 2026-08-31 02:09:45 | 52.89662 | 6.40851 | 47° | 89km/h | 11274m | -3m/s | -48.9°C | 2% | 220.8hPa | 2.5V | 07:45:19 | 02:44:19 | 00:00:00 | |
| DO3DL | 2026-08-31 02:09:44 | 52.89662 | 6.40851 | 48° | 89km/h | 11275m | -3.0m/s | -48.9°C | 2.4% | 220.8hPa | 2.5V | 07:45:00 | 00:00:00 | 00:00:00 | |
| HTAHTA | 2026-08-31 02:09:42 | 52.89603 | 6.40755 | 42° | 77km/h | 11286m | -3.4m/s | -48.9°C | 2.3% | 220.3hPa | 2.5V | 00:00:00 | 00:00:00 | 00:00:00 | |
| DL1XH-15 | 2026-08-31 02:09:41 | 52.89529 | 6.40653 | 37° | 80km/h | 11304m | -3.4m/s | -49°C | 4.5% | 219.7hPa | 2.5V | 07:45:12 | 02:44:10 | 00:00:00 | |
| BIOWL1-15 | 2026-08-31 02:09:39 | 52.89545 | 6.40673 | 37° | 78km/h | 11300m | -3.1m/s | -49°C | 1.9% | 219.9hPa | 2.5V | 07:45:19 | 02:44:11 | 00:00:00 | |
| DO3DL | 2026-08-31 02:09:38 | 52.89575 | 6.40713 | 41° | 75km/h | 11294m | -3.2m/s | -49.0°C | 2.3% | 220.1hPa | 2.5V | 07:45:00 | 00:00:00 | 00:00:00 | |
| DF5WG-10 | 2026-08-31 02:09:37 | 52.89545 | 6.40673 | 38° | 93km/h | 11300m | -3.0m/s | -49.0°C | 4.5% | 219.8hPa | 2.5V | 00:00:00 | 02:44:11 | 00:00:00 | |
| DM0DOS-11 | 2026-08-31 02:09:36 | 52.89441 | 6.40530 | 42° | 102km/h | 11320m | -3.6m/s | -49.1°C | 4.4% | 219.3hPa | 2.5V | 07:45:17 | 02:44:05 | 00:00:00 | |
| DL1XH-west | 2026-08-31 02:09:34 | 52.89496 | 6.40610 | 40° | 89km/h | 11310m | -2.5m/s | -49.1°C | 1.8% | 219.6hPa | 2.5V | 07:45:19 | 02:44:08 | 00:00:00 | |
| SONCRA | 2026-08-31 02:09:33 | 52.89478 | 6.40585 | 40° | 95km/h | 11313m | -3.0m/s | -49.1°C | 2.3% | 219.5hPa | 2.6V | 00:00:00 | 00:00:00 | 00:00:00 | |
| DO9LL-15 | 2026-08-31 02:09:32 | 52.89459 | 6.40558 | 42° | 89km/h | 11316m | -3.3m/s | -49.0°C | 4.4% | 219.3hPa | 2.6V | 00:00:00 | 02:44:06 | 00:00:00 | |
| DL1XH-15 | 2026-08-31 02:09:31 | 52.89354 | 6.40379 | 48° | 95km/h | 11339m | -3.3m/s | -48.7°C | 4.1% | 218.6hPa | 2.5V | 07:45:22 | 02:44:00 | 00:00:00 | |
| BIOWL1-15 | 2026-08-31 02:09:29 | 52.89370 | 6.40409 | 48° | 97km/h | 11335m | -3.5m/s | -48.7°C | 1.4% | 218.8hPa | 2.6V | 07:46:10 | 02:44:01 | 00:00:00 | |
| DJ2DS-15 | 2026-08-31 02:09:28 | 52.89370 | 6.40409 | 47° | 97km/h | 11335m | -3.5m/s | -48.7°C | 2.1% | 218.8hPa | 2.5V | 00:00:00 | 00:00:00 | 00:00:00 | |
| GOEST3-10 | 2026-08-31 02:09:27 | 52.89369 | 6.40409 | 48° | 91km/h | 11335m | -3.5m/s | -48.7°C | 4.1% | 218.7hPa | 2.5V | 00:00:00 | 02:44:01 | 00:00:00 | |
| DM0DOS-11 | 2026-08-31 02:09:26 | 52.89281 | 6.40244 | 47° | 77km/h | 11355m | -3.9m/s | -48.7°C | 4.1% | 218hPa | 2.5V | 07:45:27 | 02:43:55 | 00:00:00 | |
| DL1XH-west | 2026-08-31 02:09:23 | 52.89308 | 6.40294 | 49° | 86km/h | 11349m | -3.2m/s | -48.7°C | 1.3% | 218.3hPa | 2.6V | 07:46:10 | 02:43:57 | 00:00:00 | |
| DD1CC2-15 | 2026-08-31 02:09:23 | 52.89308 | 6.40294 | 50° | 86km/h | 11349m | -3.2m/s | -48.7°C | 2.0% | 218.3hPa | 2.6V | 07:46:00 | 00:00:00 | 00:00:00 | |
| GOEST3-10 | 2026-08-31 02:09:22 | 52.89294 | 6.40268 | 48° | 78km/h | 11352m | -3.0m/s | -48.6°C | 4.0% | 218.1hPa | 2.6V | 00:00:00 | 00:00:00 | 00:00:00 | |
| DL1XH-15 | 2026-08-31 02:09:21 | 52.89205 | 6.40133 | 38° | 88km/h | 11372m | -3.5m/s | -48.7°C | 4% | 217.5hPa | 2.6V | 07:45:32 | 02:43:50 | 00:00:00 | |
| BIOWL1-15 | 2026-08-31 02:09:16 | 52.89205 | 6.40133 | 39° | 88km/h | 11372m | -3.5m/s | -48.7°C | 1.3% | 217.5hPa | 2.6V | 07:46:10 | 02:43:50 | 00:00:00 | |
| DL1XH-west | 2026-08-31 02:09:13 | 52.89150 | 6.40060 | 40° | 97km/h | 11383m | -3.7m/s | -48.6°C | 1.2% | 217.1hPa | 2.5V | 07:46:10 | 02:43:47 | 00:00:00 | |
| DL3AQ-11 | 2026-08-31 02:09:12 | 52.89112 | 6.40006 | 40° | 100km/h | 11391m | -3.8m/s | -48.6°C | 1.9% | 216.9hPa | 2.6V | 00:00:00 | 00:00:00 | 00:00:00 | |
| DL1XH-15 | 2026-08-31 02:09:11 | 52.89022 | 6.39865 | 46° | 91km/h | 11410m | -3.5m/s | -48.7°C | 4.1% | 216.2hPa | 2.6V | 07:45:42 | 02:43:40 | 00:00:00 | |
| BIOWL1-15 | 2026-08-31 02:09:08 | 52.89022 | 6.39865 | 47° | 91km/h | 11410m | -3.5m/s | -48.7°C | 1.3% | 216.2hPa | 2.6V | 07:46:10 | 02:43:40 | 00:00:00 | |
| DF5WG-10 | 2026-08-31 02:09:07 | 52.89038 | 6.39892 | 46° | 82km/h | 11406m | -3.9m/s | -48.6°C | 4.1% | 216.3hPa | 2.6V | 00:00:00 | 02:43:41 | 00:00:00 | |
| DM0DOS-11 | 2026-08-31 02:09:06 | 52.88950 | 6.39737 | 46° | 78km/h | 11427m | -3.5m/s | -48.7°C | 4% | 215.6hPa | 2.6V | 07:45:47 | 02:43:35 | 00:00:00 | |
| DO3DL | 2026-08-31 02:09:04 | 52.89007 | 6.39837 | 48° | 88km/h | 11414m | -3.2m/s | -48.7°C | 2.0% | 216.1hPa | 2.5V | 07:46:00 | 00:00:00 | 00:00:00 | |
| GOEST3-10 | 2026-08-31 02:09:02 | 52.88964 | 6.39761 | 47° | 78km/h | 11424m | -3.8m/s | -48.7°C | 4.1% | 215.7hPa | 2.5V | 00:00:00 | 00:00:00 | 00:00:00 | |
| DL1XH-west | 2026-08-31 02:09:02 | 52.88964 | 6.39761 | 47° | 80km/h | 11424m | -3.8m/s | -48.7°C | 1.2% | 215.8hPa | 2.5V | 07:46:10 | 02:43:36 | 00:00:00 | |
| DD1CC2-15 | 2026-08-31 02:09:01 | 52.88964 | 6.39761 | 48° | 80km/h | 11424m | -3.8m/s | -48.7°C | 2.0% | 215.8hPa | 2.5V | 07:46:00 | 00:00:00 | 00:00:00 | |
| DO9LL-15 | 2026-08-31 02:08:58 | 52.88909 | 6.39668 | 46° | 86km/h | 11438m | -3.6m/s | -48.7°C | 4.0% | 215.2hPa | 2.5V | 00:00:00 | 02:43:32 | 00:00:00 | |
| DF5WG-10 | 2026-08-31 02:08:57 | 52.88896 | 6.39646 | 45° | 78km/h | 11442m | -3.6m/s | -48.7°C | 3.9% | 215.1hPa | 2.5V | 00:00:00 | 02:43:31 | 00:00:00 | |
| DM0DOS-11 | 2026-08-31 02:08:56 | 52.88811 | 6.39525 | 36° | 78km/h | 11463m | -3.4m/s | -48.6°C | 4% | 214.4hPa | 2.6V | 07:45:57 | 02:43:25 | 00:00:00 | |
| BIOWL1-15 | 2026-08-31 02:08:55 | 52.88869 | 6.39604 | 42° | 73km/h | 11449m | -3.7m/s | -48.7°C | 1.1% | 214.9hPa | 2.6V | 07:46:10 | 02:43:29 | 00:00:00 | |
| DJ2DS-15 | 2026-08-31 02:08:52 | 52.88811 | 6.39525 | 36° | 78km/h | 11463m | -3.4m/s | -48.6°C | 1.9% | 214.4hPa | 2.5V | 00:00:00 | 00:00:00 | 00:00:00 | |
| DL1XH-15 | 2026-08-31 02:08:51 | 52.88723 | 6.39409 | 43° | 95km/h | 11480m | -3.5m/s | -48.4°C | 3.9% | 213.8hPa | 2.5V | 07:46:02 | 02:43:20 | 00:00:00 | |
| DL1XH-west | 2026-08-31 02:08:51 | 52.88811 | 6.39525 | 36° | 78km/h | 11463m | -3.4m/s | -48.6°C | 1.1% | 214.4hPa | 2.6V | 07:46:10 | 02:43:25 | 00:00:00 | |
| DB0UT-7 | 2026-08-31 02:08:50 | 52.88794 | 6.39505 | 37° | 88km/h | 11466m | -3.2m/s | -48.6°C | 4.0% | 214.3hPa | 2.5V | 07:45:00 | 02:43:24 | 00:00:00 | |
| DC6BW-12 | 2026-08-31 02:08:49 | 52.88794 | 6.39505 | 37° | 84km/h | 11466m | -3.2m/s | -48.6°C | 1.9% | 214.4hPa | 2.5V | 07:46:00 | 00:00:00 | 00:00:00 | |
| DF5WG-10 | 2026-08-31 02:08:47 | 52.88741 | 6.39436 | 42° | 93km/h | 11477m | -3.6m/s | -48.3°C | 3.9% | 214.0hPa | 2.5V | 00:00:00 | 02:43:21 | 00:00:00 | |
| DM0DOS-11 | 2026-08-31 02:08:46 | 52.88643 | 6.39261 | 51° | 95km/h | 11498m | -3.5m/s | -48.4°C | 3.8% | 213.3hPa | 2.5V | 07:46:07 | 02:43:15 | 00:00:00 | |
| BIOWL1-15 | 2026-08-31 02:08:44 | 52.88689 | 6.39352 | 47° | 97km/h | 11487m | -3.7m/s | -48.4°C | 1% | 213.7hPa | 2.6V | 07:46:10 | 02:43:18 | 00:00:00 | |
| GOEST3-10 | 2026-08-31 02:08:42 | 52.88657 | 6.39292 | 51° | 91km/h | 11494m | -3.5m/s | -48.4°C | 3.8% | 213.4hPa | 2.5V | 00:00:00 | 00:00:00 | 00:00:00 | |
| DL1XH-15 | 2026-08-31 02:08:41 | 52.88576 | 6.39116 | 50° | 78km/h | 11516m | -3.4m/s | -48.5°C | 3.9% | 212.7hPa | 2.5V | 07:46:12 | 02:43:10 | 00:00:00 | |
| DL1XH-west | 2026-08-31 02:08:40 | 52.88628 | 6.39230 | 53° | 93km/h | 11501m | -3.7m/s | -48.5°C | 1% | 213.2hPa | 2.6V | 07:46:10 | 02:43:14 | 00:00:00 | |
| HTAHTA | 2026-08-31 02:08:40 | 52.88614 | 6.39200 | 53° | 88km/h | 11505m | -3.8m/s | -48.5°C | 1.8% | 213.0hPa | 2.5V | 00:00:00 | 00:00:00 | 00:00:00 | |
| DO3DL | 2026-08-31 02:08:38 | 52.88614 | 6.39200 | 54° | 89km/h | 11505m | -3.8m/s | -48.5°C | 1.8% | 213.0hPa | 2.5V | 07:46:00 | 00:00:00 | 00:00:00 | |
| DF5WG-10 | 2026-08-31 02:08:37 | 52.88588 | 6.39143 | 53° | 80km/h | 11513m | -3.4m/s | -48.5°C | 3.9% | 212.8hPa | 2.5V | 00:00:00 | 02:43:11 | 00:00:00 | |
| DM0DOS-11 | 2026-08-31 02:08:36 | 52.88505 | 6.39008 | 37° | 80km/h | 11534m | -3.8m/s | -48.4°C | 3.8% | 212.2hPa | 2.5V | 07:46:17 | 02:43:05 | 00:00:00 | |
| BIOWL1-15 | 2026-08-31 02:08:34 | 52.88550 | 6.39070 | 43° | 75km/h | 11523m | -3.8m/s | -48.5°C | 1% | 212.5hPa | 2.6V | 07:47:01 | 02:43:08 | 00:00:00 | |
| GOEST3-10 | 2026-08-31 02:08:32 | 52.88521 | 6.39028 | 39° | 84km/h | 11531m | -3.7m/s | -48.3°C | 3.8% | 212.2hPa | 2.5V | 00:00:00 | 00:00:00 | 00:00:00 | |
| DL1XH-15 | 2026-08-31 02:08:31 | 52.88417 | 6.38898 | 39° | 91km/h | 11552m | -3.7m/s | -48.4°C | 3.9% | 211.6hPa | 2.5V | 07:46:22 | 02:43:00 | 00:00:00 | |
| DL1XH-west | 2026-08-31 02:08:29 | 52.88471 | 6.38966 | 37° | 88km/h | 11542m | -3.5m/s | -48.4°C | 1% | 211.9hPa | 2.6V | 07:47:01 | 02:43:03 | 00:00:00 | |
| DC6BW-12 | 2026-08-31 02:08:28 | 52.88471 | 6.38966 | 38° | 88km/h | 11542m | -3.5m/s | -48.4°C | 1.8% | 211.9hPa | 2.5V | 07:47:00 | 00:00:00 | 00:00:00 | |
| DO9LL-15 | 2026-08-31 02:08:27 | 52.88435 | 6.38921 | 38° | 86km/h | 11549m | -3.4m/s | -48.3°C | 3.9% | 211.6hPa | 2.5V | 00:00:00 | 02:43:01 | 00:00:00 | |
| DM0DOS-11 | 2026-08-31 02:08:26 | 52.88338 | 6.38769 | 50° | 82km/h | 11570m | -3.8m/s | -48.4°C | 3.8% | 211hPa | 2.5V | 07:46:27 | 02:42:55 | 00:00:00 | |
| BIOWL1-15 | 2026-08-31 02:08:23 | 52.88367 | 6.38822 | 46° | 88km/h | 11563m | -3.3m/s | -48.4°C | 1% | 211.2hPa | 2.6V | 07:47:01 | 02:42:57 | 00:00:00 | |
| GOEST3-10 | 2026-08-31 02:08:22 | 52.88351 | 6.38795 | 49° | 82km/h | 11566m | -3.2m/s | -48.3°C | 3.9% | 211.1hPa | 2.5V | 00:00:00 | 00:00:00 | 00:00:00 | |
| DL1XH-15 | 2026-08-31 02:08:21 | 52.88274 | 6.38642 | 50° | 75km/h | 11591m | -4m/s | -48.3°C | 3.8% | 210.4hPa | 2.5V | 07:46:32 | 02:42:50 | 00:00:00 | |
| DL1XH-west | 2026-08-31 02:08:19 | 52.88312 | 6.38717 | 52° | 78km/h | 11578m | -4.1m/s | -48.4°C | 1% | 210.8hPa | 2.6V | 07:47:01 | 02:42:53 | 00:00:00 | |
| DO3DL | 2026-08-31 02:08:18 | 52.88312 | 6.38717 | 53° | 78km/h | 11578m | -4.1m/s | -48.4°C | 1.8% | 210.8hPa | 2.5V | 07:47:00 | 00:00:00 | 00:00:00 | |
| DF5WG-10 | 2026-08-31 02:08:17 | 52.88287 | 6.38666 | 50° | 71km/h | 11587m | -3.7m/s | -48.3°C | 3.8% | 210.5hPa | 2.5V | 00:00:00 | 02:42:51 | 00:00:00 | |
| DM0DOS-11 | 2026-08-31 02:08:16 | 52.88213 | 6.38535 | 40° | 68km/h | 11610m | -3.2m/s | -48.3°C | 3.8% | 209.8hPa | 2.5V | 07:46:37 | 02:42:45 | 00:00:00 | |
| BIOWL1-15 | 2026-08-31 02:08:12 | 52.88226 | 6.38555 | 45° | 68km/h | 11606m | -3.8m/s | -48.3°C | 1% | 209.9hPa | 2.6V | 07:47:01 | 02:42:46 | 00:00:00 | |
| DL1XH-15 | 2026-08-31 02:08:11 | 52.88144 | 6.38444 | 36° | 73km/h | 11628m | -4m/s | -48.2°C | 3.8% | 209.2hPa | 2.5V | 07:46:42 | 02:42:40 | 00:00:00 | |
| DL1XH-west | 2026-08-31 02:08:08 | 52.88173 | 6.38479 | 38° | 73km/h | 11621m | -3.3m/s | -48.3°C | 0.9% | 209.5hPa | 2.6V | 07:47:01 | 02:42:42 | 00:00:00 | |
| DF5WG-10 | 2026-08-31 02:08:07 | 52.88158 | 6.38462 | 36° | 78km/h | 11625m | -3.7m/s | -48.2°C | 3.8% | 209.4hPa | 2.5V | 00:00:00 | 02:42:41 | 00:00:00 | |
| DM0DOS-11 | 2026-08-31 02:08:06 | 52.88062 | 6.38352 | 34° | 80km/h | 11646m | -3.6m/s | -48.2°C | 3.8% | 208.8hPa | 2.5V | 07:46:47 | 02:42:35 | 00:00:00 | |
| BIOWL1-15 | 2026-08-31 02:08:02 | 52.88079 | 6.38372 | 34° | 82km/h | 11642m | -3.2m/s | -48.2°C | 0.9% | 208.8hPa | 2.6V | 07:47:01 | 02:42:36 | 00:00:00 | |
| GOEST3-10 | 2026-08-31 02:08:02 | 52.88079 | 6.38372 | 35° | 84km/h | 11643m | -3.2m/s | -48.1°C | 3.8% | 208.7hPa | 2.6V | 00:00:00 | 00:00:00 | 00:00:00 | |
| DL1XH-15 | 2026-08-31 02:08:01 | 52.87975 | 6.38253 | 34° | 84km/h | 11663m | -3.5m/s | -48.1°C | 3.8% | 208.2hPa | 2.6V | 07:46:52 | 02:42:30 | 00:00:00 | |
| DL1XH-west | 2026-08-31 02:07:58 | 52.88010 | 6.38293 | 34° | 86km/h | 11656m | -3.5m/s | -48.1°C | 0.9% | 208.4hPa | 2.5V | 07:47:01 | 02:42:32 | 00:00:00 | |
| GOEST3-10 | 2026-08-31 02:07:57 | 52.87992 | 6.38273 | 36° | 84km/h | 11660m | -3.9m/s | -48.1°C | 3.8% | 208.2hPa | 2.6V | 00:00:00 | 02:42:31 | 00:00:00 | |
| DM0DOS-11 | 2026-08-31 02:07:56 | 52.87885 | 6.38155 | 31° | 84km/h | 11682m | -3.4m/s | -47.8°C | 3.7% | 207.6hPa | 2.6V | 07:46:57 | 02:42:25 | 00:00:00 | |
| BIOWL1-15 | 2026-08-31 02:07:52 | 52.87903 | 6.38174 | 33° | 84km/h | 11678m | -3.4m/s | -47.8°C | 0.9% | 207.7hPa | 2.6V | 07:47:01 | 02:42:26 | 00:00:00 | |
| DL1XH-west | 2026-08-31 02:07:48 | 52.87831 | 6.38098 | 31° | 82km/h | 11693m | -3.4m/s | -47.6°C | 0.9% | 207.2hPa | 2.5V | 07:47:01 | 02:42:22 | 00:00:00 | |
| DF5WG-10 | 2026-08-31 02:07:47 | 52.87813 | 6.38080 | 32° | 82km/h | 11696m | -3.6m/s | -47.5°C | 3.7% | 207.0hPa | 2.6V | 00:00:00 | 02:42:21 | 00:00:00 | |
| DM0DOS-11 | 2026-08-31 02:07:46 | 52.87705 | 6.37978 | 29° | 82km/h | 11716m | -4.3m/s | -47.6°C | 3.8% | 206.4hPa | 2.6V | 07:47:07 | 02:42:15 | 00:00:00 | |
| BIOWL1-15 | 2026-08-31 02:07:43 | 52.87705 | 6.37978 | 30° | 82km/h | 11717m | -4.3m/s | -47.6°C | 0.9% | 206.4hPa | 2.6V | 07:47:52 | 02:42:15 | 00:00:00 | |
| DO2JMG | 2026-08-31 02:07:42 | 52.87723 | 6.37995 | 30° | 82km/h | 11713m | -4.1m/s | -47.6°C | 0.9% | 206.5hPa | 2.5V | 07:48:43 | 02:42:16 | 00:00:00 | |
| DL1XH-west | 2026-08-31 02:07:37 | 52.87631 | 6.37911 | 29° | 88km/h | 11732m | -4.2m/s | -47.6°C | 0.9% | 205.9hPa | 2.5V | 07:47:52 | 02:42:11 | 00:00:00 | |
| DM0DOS-11 | 2026-08-31 02:07:36 | 52.87506 | 6.37793 | 29° | 99km/h | 11754m | -3.4m/s | -47.6°C | 3.7% | 205.2hPa | 2.6V | 07:47:17 | 02:42:05 | 00:00:00 | |
| DO2JMG | 2026-08-31 02:07:30 | 52.87484 | 6.37772 | 31° | 100km/h | 11758m | -3.7m/s | -47.6°C | 0.9% | 205.2hPa | 2.6V | 07:48:43 | 02:42:04 | 00:00:00 | |
| DL1XH-west | 2026-08-31 02:07:26 | 52.87396 | 6.37679 | 34° | 104km/h | 11772m | -3.6m/s | -47.6°C | 0.8% | 204.7hPa | 2.5V | 07:47:52 | 02:42:00 | 00:00:00 | |
| DC6BW-12 | 2026-08-31 02:07:25 | 52.87396 | 6.37679 | 35° | 104km/h | 11772m | -3.6m/s | -47.6°C | 1.7% | 204.7hPa | 2.5V | 07:47:00 | 00:00:00 | 00:00:00 | |
| DL3AQ-11 | 2026-08-31 02:07:23 | 52.87314 | 6.37576 | 40° | 99km/h | 11786m | -3.6m/s | -47.6°C | 1.6% | 204.2hPa | 2.5V | 00:00:00 | 00:00:00 | 00:00:00 | |
| GOEST3-10 | 2026-08-31 02:07:22 | 52.87314 | 6.37576 | 41° | 95km/h | 11786m | -3.5m/s | -47.6°C | 3.6% | 204.1hPa | 2.5V | 00:00:00 | 00:00:00 | 00:00:00 | |
| DL1XH-15 | 2026-08-31 02:07:21 | 52.87209 | 6.37418 | 41° | 86km/h | 11810m | -3.7m/s | -47.6°C | 3.5% | 203.5hPa | 2.5V | 07:47:32 | 02:41:50 | 00:00:00 | |
| DO2JMG | 2026-08-31 02:07:20 | 52.87276 | 6.37522 | 42° | 97km/h | 11794m | -3.7m/s | -47.7°C | 0.7% | 204hPa | 2.5V | 07:48:43 | 02:41:54 | 00:00:00 | |
| DL1XH-west | 2026-08-31 02:07:16 | 52.87209 | 6.37418 | 42° | 88km/h | 11810m | -3.7m/s | -47.7°C | 0.6% | 203.5hPa | 2.5V | 07:47:52 | 02:41:50 | 00:00:00 | |
| DO9LL-15 | 2026-08-31 02:07:14 | 52.87177 | 6.37371 | 39° | 104km/h | 11818m | -3.7m/s | -47.5°C | 3.5% | 203.2hPa | 2.5V | 00:00:00 | 02:41:48 | 00:00:00 | |
| DO3DL | 2026-08-31 02:07:13 | 52.87177 | 6.37371 | 39° | 86km/h | 11818m | -3.7m/s | -47.6°C | 1.5% | 203.3hPa | 2.5V | 07:47:00 | 00:00:00 | 00:00:00 | |
| GOEST3-10 | 2026-08-31 02:07:12 | 52.87141 | 6.37330 | 33° | 95km/h | 11825m | -3.7m/s | -47.4°C | 3.5% | 203.0hPa | 2.5V | 00:00:00 | 00:00:00 | 00:00:00 | |
| DL1XH-15 | 2026-08-31 02:07:11 | 52.87012 | 6.37206 | 32° | 106km/h | 11849m | -3.9m/s | -47.1°C | 3.3% | 202.3hPa | 2.5V | 07:47:42 | 02:41:40 | 00:00:00 | |
| BIOWL1-15 | 2026-08-31 02:07:10 | 52.87101 | 6.37291 | 29° | 97km/h | 11833m | -3.8m/s | -47.2°C | 0.4% | 202.9hPa | 2.6V | 07:47:52 | 02:41:44 | 00:00:00 | |
| DO2JMG | 2026-08-31 02:07:09 | 52.87079 | 6.37271 | 30° | 100km/h | 11837m | -4.1m/s | -47.1°C | 0.4% | 202.7hPa | 2.6V | 07:48:43 | 02:41:43 | 00:00:00 | |
| DL1XH-west | 2026-08-31 02:07:05 | 52.86989 | 6.37182 | 32° | 108km/h | 11852m | -3.7m/s | -47.2°C | 0.4% | 202.2hPa | 2.5V | 07:47:52 | 02:41:39 | 00:00:00 | |
| DC6BW-12 | 2026-08-31 02:07:04 | 52.86989 | 6.37182 | 33° | 108km/h | 11853m | -3.7m/s | -47.2°C | 1.4% | 202.2hPa | 2.6V | 07:47:00 | 00:00:00 | 00:00:00 | |
| DJ2DS-15 | 2026-08-31 02:07:03 | 52.86944 | 6.37131 | 35° | 108km/h | 11860m | -3.8m/s | -47.2°C | 1.4% | 202.0hPa | 2.6V | 00:00:00 | 00:00:00 | 00:00:00 | |
| GOEST3-10 | 2026-08-31 02:07:02 | 52.86922 | 6.37104 | 37° | 108km/h | 11864m | -3.9m/s | -47.2°C | 3.3% | 201.8hPa | 2.6V | 00:00:00 | 00:00:00 | 00:00:00 | |
| DL1XH-15 | 2026-08-31 02:07:01 | 52.86800 | 6.36929 | 44° | 102km/h | 11887m | -3.9m/s | -47.4°C | 3.3% | 201.1hPa | 2.6V | 07:47:52 | 02:41:30 | 00:00:00 | |
| DO2JMG | 2026-08-31 02:06:59 | 52.86858 | 6.37019 | 42° | 108km/h | 11875m | -3.7m/s | -47.3°C | 0.3% | 201.6hPa | 2.5V | 07:48:43 | 02:41:33 | 00:00:00 | |
| DL1XH-west | 2026-08-31 02:06:55 | 52.86782 | 6.36899 | 45° | 102km/h | 11891m | -4.1m/s | -47.4°C | 0.3% | 201.1hPa | 2.6V | 07:48:43 | 02:41:29 | 00:00:00 | |
| DO3DL | 2026-08-31 02:06:54 | 52.86782 | 6.36899 | 46° | 102km/h | 11891m | -4.1m/s | -47.4°C | 1.4% | 201.1hPa | 2.5V | 00:00:00 | 00:00:00 | 00:00:00 | |
| GOEST3-10 | 2026-08-31 02:06:52 | 52.86728 | 6.36811 | 44° | 97km/h | 11903m | -3.9m/s | -47.4°C | 3.3% | 200.6hPa | 2.5V | 07:47:00 | 00:00:00 | 00:00:00 | |
| DL1XH-15 | 2026-08-31 02:06:51 | 52.86610 | 6.36660 | 33° | 104km/h | 11927m | -4.2m/s | -47.5°C | 3.3% | 200hPa | 2.5V | 07:48:02 | 02:41:20 | 00:00:00 | |
| BIOWL1-15 | 2026-08-31 02:06:48 | 52.86653 | 6.36708 | 35° | 99km/h | 11919m | -4.2m/s | -47.5°C | 0.3% | 200.2hPa | 2.6V | 07:48:43 | 02:41:22 | 00:00:00 | |
| DF5WG-10 | 2026-08-31 02:06:47 | 52.86632 | 6.36684 | 34° | 110km/h | 11923m | -4.2m/s | -47.5°C | 3.3% | 200.0hPa | 2.6V | 00:00:00 | 02:41:21 | 00:00:00 | |
| DM0DOS-11 | 2026-08-31 02:06:46 | 52.86495 | 6.36536 | 33° | 113km/h | 11948m | -3.9m/s | -47.4°C | 3.2% | 199.3hPa | 2.6V | 07:48:07 | 02:41:15 | 00:00:00 | |
| DO2JMG | 2026-08-31 02:06:45 | 52.86588 | 6.36636 | 33° | 106km/h | 11931m | -4.3m/s | -47.5°C | 0.3% | 199.8hPa | 2.5V | 07:48:43 | 02:41:19 | 00:00:00 | |
| DL1XH-west | 2026-08-31 02:06:45 | 52.86565 | 6.36612 | 33° | 108km/h | 11936m | -4.2m/s | -47.5°C | 0.3% | 199.7hPa | 2.5V | 07:48:43 | 02:41:18 | 00:00:00 | |
| DO1YAY-16 | 2026-08-31 02:06:43 | 52.86519 | 6.36562 | 33° | 111km/h | 11944m | -4.0m/s | -47.4°C | 1.4% | 199.4hPa | 2.5V | 00:00:00 | 00:00:00 | 00:00:00 | |
| GOEST3-10 | 2026-08-31 02:06:42 | 52.86519 | 6.36562 | 34° | 113km/h | 11944m | -3.9m/s | -47.3°C | 3.3% | 199.4hPa | 2.5V | 00:00:00 | 00:00:00 | 00:00:00 | |
| DL1XH-15 | 2026-08-31 02:06:41 | 52.86377 | 6.36397 | 38° | 117km/h | 11968m | -4m/s | -47.4°C | 3.2% | 198.7hPa | 2.5V | 07:48:12 | 02:41:10 | 00:00:00 | |
| BIOWL1-15 | 2026-08-31 02:06:39 | 52.86400 | 6.36426 | 37° | 117km/h | 11964m | -4m/s | -47.4°C | 0.2% | 198.8hPa | 2.5V | 07:48:43 | 02:41:11 | 00:00:00 | |
| DF5WG-10 | 2026-08-31 02:06:37 | 52.86400 | 6.36426 | 37° | 106km/h | 11964m | -3.9m/s | -47.4°C | 3.2% | 198.8hPa | 2.5V | 00:00:00 | 02:41:11 | 00:00:00 | |
| DM0DOS-11 | 2026-08-31 02:06:36 | 52.86272 | 6.36250 | 40° | 99km/h | 11987m | -4.2m/s | -47.3°C | 3.2% | 198.1hPa | 2.5V | 07:48:17 | 02:41:05 | 00:00:00 | |
| DO2JMG | 2026-08-31 02:06:35 | 52.86354 | 6.36367 | 39° | 113km/h | 11972m | -4m/s | -47.4°C | 0.2% | 198.6hPa | 2.6V | 07:48:43 | 02:41:09 | 00:00:00 | |
| DL1XH-west | 2026-08-31 02:06:33 | 52.86311 | 6.36307 | 41° | 106km/h | 11979m | -3.6m/s | -47.4°C | 0.2% | 198.4hPa | 2.5V | 07:48:43 | 02:41:07 | 00:00:00 | |
| GOEST3-10 | 2026-08-31 02:06:32 | 52.86292 | 6.36278 | 42° | 99km/h | 11983m | -4.1m/s | -47.3°C | 3.2% | 198.2hPa | 2.5V | 00:00:00 | 00:00:00 | 00:00:00 | |
| DL1XH-15 | 2026-08-31 02:06:31 | 52.86176 | 6.36122 | 37° | 100km/h | 12008m | -4m/s | -47.4°C | 3.3% | 197.5hPa | 2.5V | 07:48:22 | 02:41:00 | 00:00:00 | |
| BIOWL1-15 | 2026-08-31 02:06:26 | 52.86176 | 6.36122 | 38° | 100km/h | 12008m | -4.1m/s | -47.4°C | 0.2% | 197.5hPa | 2.5V | 07:48:43 | 02:41:00 | 00:00:00 | |
| DO2JMG | 2026-08-31 02:06:24 | 52.86135 | 6.36069 | 39° | 106km/h | 12016m | -4.6m/s | -47.5°C | 0.2% | 197.3hPa | 2.6V | 07:48:43 | 02:40:58 | 00:00:00 | |
| DL1XH-west | 2026-08-31 02:06:22 | 52.86093 | 6.36013 | 40° | 110km/h | 12026m | -4.7m/s | -47.5°C | 0.3% | 197hPa | 2.5V | 07:48:43 | 02:40:56 | 00:00:00 | |
| GOEST3-10 | 2026-08-31 02:06:22 | 52.86093 | 6.36012 | 40° | 110km/h | 12026m | -4.6m/s | -47.5°C | 3.3% | 196.9hPa | 2.5V | 00:00:00 | 00:00:00 | 00:00:00 | |
| DL1XH-15 | 2026-08-31 02:06:20 | 52.85949 | 6.35792 | 44° | 111km/h | 12058m | -4.6m/s | -47.6°C | 3.3% | 196.1hPa | 2.5V | 07:48:33 | 02:40:49 | 00:00:00 | |
| BIOWL1-15 | 2026-08-31 02:06:16 | 52.85969 | 6.35825 | 45° | 113km/h | 12053m | -4.8m/s | -47.6°C | 0.3% | 196.2hPa | 2.5V | 07:48:43 | 02:40:50 | 00:00:00 | |
| DO2JMG | 2026-08-31 02:06:13 | 52.85909 | 6.35726 | 46° | 111km/h | 12066m | -3.8m/s | -47.4°C | 0.2% | 195.8hPa | 2.6V | 07:48:43 | 02:40:47 | 00:00:00 | |
| DO1YAY-16 | 2026-08-31 02:06:12 | 52.85870 | 6.35659 | 47° | 110km/h | 12074m | -4.4m/s | -47.4°C | 1.3% | 195.5hPa | 2.5V | 00:00:00 | 00:00:00 | 00:00:00 | |
| DL4BBY-15 | 2026-08-31 02:06:11 | 52.85870 | 6.35658 | 48° | 102km/h | 12075m | -4.4m/s | -47.7°C | 0% | 0hPa | 2.5V | 00:00:00 | 00:00:00 | 00:00:00 | |
| DL1XH-west | 2026-08-31 02:06:11 | 52.85870 | 6.35659 | 47° | 110km/h | 12074m | -4.4m/s | -47.4°C | 0.2% | 195.5hPa | 2.5V | 07:48:43 | 02:40:45 | 00:00:00 | |
| DL1XH-15 | 2026-08-31 02:06:10 | 52.85760 | 6.35459 | 46° | 104km/h | 12099m | -4.5m/s | -47.1°C | 3.2% | 194.8hPa | 2.5V | 07:48:43 | 02:40:39 | 00:00:00 | |
| BIOWL1-15 | 2026-08-31 02:06:09 | 52.85760 | 6.35459 | 47° | 104km/h | 12099m | -4.5m/s | -47.2°C | 0.2% | 194.9hPa | 2.5V | 07:48:43 | 02:40:39 | 00:00:00 | |
| DO2JMG | 2026-08-31 02:06:03 | 52.85723 | 6.35398 | 44° | 104km/h | 12108m | -4.6m/s | -47°C | 0.1% | 194.6hPa | 2.5V | 07:49:34 | 02:40:37 | 00:00:00 | |
| DL3AQ-11 | 2026-08-31 02:06:03 | 52.85705 | 6.35369 | 43° | 100km/h | 12113m | -4.7m/s | -46.9°C | 1.3% | 194.4hPa | 2.5V | 00:00:00 | 00:00:00 | 00:00:00 | |
| GOEST3-10 | 2026-08-31 02:06:02 | 52.85705 | 6.35369 | 44° | 102km/h | 12113m | -4.6m/s | -46.9°C | 3.2% | 194.4hPa | 2.5V | 00:00:00 | 00:00:00 | 00:00:00 | |
| DL1XH-15 | 2026-08-31 02:06:00 | 52.85574 | 6.35159 | 47° | 102km/h | 12144m | -4.5m/s | -46.9°C | 3.1% | 193.6hPa | 2.5V | 07:48:53 | 02:40:29 | 00:00:00 | |
| DL1XH-west | 2026-08-31 02:06:00 | 52.85667 | 6.35311 | 42° | 102km/h | 12122m | -4.2m/s | -46.9°C | 0.1% | 194.2hPa | 2.6V | 07:49:34 | 02:40:34 | 00:00:00 | |
| BIOWL1-15 | 2026-08-31 02:05:57 | 52.85574 | 6.35159 | 48° | 102km/h | 12144m | -4.6m/s | -46.9°C | 0.1% | 193.6hPa | 2.5V | 07:49:34 | 02:40:29 | 00:00:00 | |
| DM0DOS-11 | 2026-08-31 02:05:56 | 52.85508 | 6.35027 | 52° | 104km/h | 12164m | -5m/s | -46.9°C | 3.1% | 193hPa | 2.5V | 07:48:57 | 02:40:25 | 00:00:00 | |
| DO2JMG | 2026-08-31 02:05:52 | 52.85524 | 6.35061 | 50° | 106km/h | 12159m | -4.5m/s | -46.9°C | 0.1% | 193.2hPa | 2.6V | 07:49:34 | 02:40:26 | 00:00:00 | |
| DL3AQ-11 | 2026-08-31 02:05:52 | 52.85508 | 6.35027 | 52° | 104km/h | 12164m | -5.0m/s | -46.9°C | 1.2% | 193.0hPa | 2.6V | 00:00:00 | 00:00:00 | 00:00:00 | |
| DJ2DS-15 | 2026-08-31 02:05:51 | 52.85508 | 6.35027 | 52° | 104km/h | 12164m | -5.0m/s | -46.9°C | 1.2% | 193.0hPa | 2.6V | 00:00:00 | 00:00:00 | 00:00:00 | |
| DL1XH-15 | 2026-08-31 02:05:50 | 52.85417 | 6.34817 | 55° | 99km/h | 12190m | -3.5m/s | -46.9°C | 3.1% | 192.3hPa | 2.6V | 07:49:03 | 02:40:19 | 00:00:00 | |
| DL1XH-west | 2026-08-31 02:05:50 | 52.85492 | 6.34991 | 53° | 106km/h | 12169m | -4.2m/s | -46.8°C | 0.1% | 192.9hPa | 2.5V | 07:49:34 | 02:40:24 | 00:00:00 | |
| DB0UT-7 | 2026-08-31 02:05:50 | 52.85492 | 6.34991 | 53° | 95km/h | 12170m | -4.2m/s | -46.8°C | 3.1% | 192.8hPa | 2.5V | 00:00:00 | 02:40:24 | 00:00:00 | |
| DO2KSM | 2026-08-31 02:05:49 | 52.85492 | 6.34991 | 54° | 106km/h | 12170m | -4.2m/s | 0°C | 0% | 0hPa | 2.5V | 07:49:00 | 00:00:00 | 00:00:00 | |
| DF5WG-10 | 2026-08-31 02:05:47 | 52.85446 | 6.34886 | 55° | 93km/h | 12182m | -3.9m/s | -46.8°C | 3.1% | 192.5hPa | 2.5V | 07:49:00 | 02:40:21 | 00:00:00 | |
| DM0DOS-11 | 2026-08-31 02:05:46 | 52.85362 | 6.34689 | 52° | 89km/h | 12205m | -2.9m/s | -46.9°C | 3.2% | 191.8hPa | 2.5V | 07:49:07 | 02:40:15 | 00:00:00 | |
| BIOWL1-15 | 2026-08-31 02:05:45 | 52.85417 | 6.34817 | 55° | 99km/h | 12190m | -3.5m/s | -46.9°C | 0.1% | 192.3hPa | 2.6V | 07:49:34 | 02:40:19 | 00:00:00 | |
| DO2JMG | 2026-08-31 02:05:42 | 52.85376 | 6.34720 | 53° | 91km/h | 12201m | -3m/s | -46.8°C | 0.1% | 191.9hPa | 2.5V | 07:49:34 | 02:40:16 | 00:00:00 | |
| DL1XH-west | 2026-08-31 02:05:40 | 52.85348 | 6.34660 | 52° | 89km/h | 12208m | -2.7m/s | -46.9°C | 0.1% | 191.7hPa | 2.5V | 07:49:34 | 02:40:14 | 00:00:00 | |
| DF5WG-10 | 2026-08-31 02:05:37 | 52.85307 | 6.34575 | 52° | 93km/h | 12220m | -4.5m/s | -46.8°C | 3.2% | 191.3hPa | 2.5V | 00:00:00 | 02:40:11 | 00:00:00 | |
| DM0DOS-11 | 2026-08-31 02:05:36 | 52.85223 | 6.34395 | 54° | 99km/h | 12246m | -4.2m/s | -46.8°C | 3.2% | 190.6hPa | 2.5V | 07:49:17 | 02:40:05 | 00:00:00 | |
| BIOWL1-15 | 2026-08-31 02:05:36 | 52.85265 | 6.34490 | 51° | 91km/h | 12233m | -3.3m/s | -46.9°C | 0.2% | 191hPa | 2.5V | 07:49:34 | 02:40:08 | 00:00:00 | |
| DO2JMG | 2026-08-31 02:05:31 | 52.85223 | 6.34395 | 55° | 99km/h | 12246m | -4.2m/s | -46.8°C | 0.2% | 190.6hPa | 2.5V | 07:49:34 | 02:40:05 | 00:00:00 | |
| DL1XH-15 | 2026-08-31 02:05:30 | 52.85144 | 6.34182 | 61° | 99km/h | 12273m | -3.8m/s | -46.2°C | 3% | 189.8hPa | 2.5V | 07:49:23 | 02:39:59 | 00:00:00 | |
| DL1XH-west | 2026-08-31 02:05:30 | 52.85209 | 6.34362 | 57° | 97km/h | 12251m | -5m/s | -46.8°C | 0.1% | 190.5hPa | 2.6V | 07:49:34 | 02:40:04 | 00:00:00 | |
| BIOWL9-15 | 2026-08-31 02:05:29 | 52.85196 | 6.34327 | 58° | 100km/h | 12256m | -5.1m/s | -46.7°C | 1.3% | 190.3hPa | 2.5V | 00:00:00 | 00:00:00 | 00:00:00 | |
| DF5WG-10 | 2026-08-31 02:05:27 | 52.85169 | 6.34254 | 59° | 93km/h | 12266m | -3.4m/s | -46.3°C | 3.1% | 190.1hPa | 2.5V | 00:00:00 | 02:40:01 | 00:00:00 | |
| DM0DOS-11 | 2026-08-31 02:05:26 | 52.85102 | 6.34039 | 63° | 91km/h | 12290m | -3.6m/s | -46°C | 3% | 189.4hPa | 2.6V | 07:49:27 | 02:39:55 | 00:00:00 | |
| BIOWL1-15 | 2026-08-31 02:05:24 | 52.85133 | 6.34146 | 63° | 97km/h | 12277m | -4.1m/s | -46.1°C | 0% | 189.7hPa | 2.5V | 07:49:34 | 02:39:58 | 00:00:00 | |
| DO2JMG | 2026-08-31 02:05:21 | 52.85102 | 6.34039 | 64° | 91km/h | 12290m | -3.6m/s | -46.1°C | 0% | 189.4hPa | 2.6V | 07:49:34 | 02:39:55 | 00:00:00 | |
| DL1XH-15 | 2026-08-31 02:05:20 | 52.85040 | 6.33853 | 52° | 82km/h | 12312m | -3.8m/s | -46.1°C | 3% | 188.7hPa | 2.5V | 07:49:33 | 02:39:49 | 00:00:00 | |
| DL1XH-west | 2026-08-31 02:05:19 | 52.85082 | 6.33971 | 64° | 88km/h | 12297m | -3.9m/s | -46.1°C | 0% | 189.1hPa | 2.5V | 07:49:34 | 02:39:53 | 00:00:00 | |
| DF5WG-10 | 2026-08-31 02:05:17 | 52.85062 | 6.33910 | 61° | 89km/h | 12304m | -4.2m/s | -46.0°C | 3.0% | 188.8hPa | 2.5V | 00:00:00 | 02:39:51 | 00:00:00 | |
| DM0DOS-11 | 2026-08-31 02:05:16 | 52.84983 | 6.33739 | 50° | 95km/h | 12329m | -4.6m/s | -46.1°C | 3% | 188.2hPa | 2.5V | 07:49:37 | 02:39:45 | 00:00:00 | |
| BIOWL1-15 | 2026-08-31 02:05:13 | 52.85013 | 6.33798 | 51° | 88km/h | 12320m | -4.2m/s | -46.1°C | 0% | 188.5hPa | 2.6V | 07:50:25 | 02:39:47 | 00:00:00 | |
| DO2JMG | 2026-08-31 02:05:11 | 52.84983 | 6.33739 | 51° | 95km/h | 12329m | -4.6m/s | -46.2°C | 0% | 188.2hPa | 2.5V | 07:50:25 | 02:39:45 | 00:00:00 | |
| DL1XH-west | 2026-08-31 02:05:08 | 52.84939 | 6.33642 | 56° | 99km/h | 12342m | -4m/s | -46.2°C | 0% | 187.9hPa | 2.5V | 07:50:25 | 02:39:42 | 00:00:00 | |
| DF5WG-10 | 2026-08-31 02:05:07 | 52.84925 | 6.33607 | 59° | 89km/h | 12347m | -4.2m/s | -46.2°C | 3.0% | 187.7hPa | 2.5V | 00:00:00 | 02:39:41 | 00:00:00 | |
| DM0DOS-11 | 2026-08-31 02:05:06 | 52.84855 | 6.33410 | 56° | 86km/h | 12369m | -3.6m/s | -46.4°C | 3.1% | 187.1hPa | 2.5V | 07:49:47 | 02:39:35 | 00:00:00 | |
| BIOWL1-15 | 2026-08-31 02:05:03 | 52.84867 | 6.33441 | 58° | 88km/h | 12366m | -3.7m/s | -46.4°C | 0.1% | 187.2hPa | 2.5V | 07:50:25 | 02:39:36 | 00:00:00 | |
| DO2JMG | 2026-08-31 02:05:00 | 52.84844 | 6.33381 | 57° | 84km/h | 12373m | -4.4m/s | -46.4°C | 0.1% | 186.9hPa | 2.5V | 07:50:25 | 02:39:34 | 00:00:00 | |
| DL1XH-west | 2026-08-31 02:04:58 | 52.84820 | 6.33324 | 53° | 84km/h | 12383m | -3.9m/s | -46.5°C | 0% | 186.7hPa | 2.6V | 07:50:25 | 02:39:32 | 00:00:00 | |
| DF5WG-10 | 2026-08-31 02:04:57 | 52.84808 | 6.33297 | 54° | 88km/h | 12387m | -4.7m/s | -46.4°C | 3.1% | 186.5hPa | 2.6V | 00:00:00 | 02:39:31 | 00:00:00 | |
| DM0DOS-11 | 2026-08-31 02:04:56 | 52.84723 | 6.33129 | 47° | 93km/h | 12414m | -3.7m/s | -46.4°C | 3.1% | 185.8hPa | 2.5V | 07:49:57 | 02:39:25 | 00:00:00 | |
| DO2JMG | 2026-08-31 02:04:49 | 52.84691 | 6.33071 | 47° | 95km/h | 12422m | -3.8m/s | -46.3°C | 0.1% | 185.6hPa | 2.6V | 07:50:25 | 02:39:23 | 00:00:00 | |
| DL1XH-west | 2026-08-31 02:04:47 | 52.84659 | 6.33011 | 47° | 97km/h | 12431m | -3.7m/s | -46.4°C | 0.1% | 185.3hPa | 2.5V | 07:50:25 | 02:39:21 | 00:00:00 | |
| DF5WG-10 | 2026-08-31 02:04:47 | 52.84659 | 6.33011 | 47° | 102km/h | 12431m | -3.7m/s | -46.3°C | 3.1% | 185.2hPa | 2.6V | 00:00:00 | 02:39:21 | 00:00:00 | |
| DO2KSM | 2026-08-31 02:04:45 | 52.84642 | 6.32981 | 48° | 99km/h | 12435m | -4.2m/s | 0°C | 0% | 0hPa | 2.6V | 00:00:00 | 00:00:00 | 00:00:00 | |
| DM0DOS-11 | 2026-08-31 02:04:41 | 52.84554 | 6.32832 | 44° | 102km/h | 12454m | -4m/s | -46.4°C | 3.1% | 184.6hPa | 2.6V | 07:50:07 | 02:39:15 | 00:00:00 | |
| BIOWL1-15 | 2026-08-31 02:04:40 | 52.84497 | 6.32740 | 45° | 108km/h | 12467m | -4.1m/s | -46.2°C | 0% | 184.3hPa | 2.5V | 07:50:25 | 02:39:12 | 00:00:00 | |
| DO2JMG | 2026-08-31 02:04:39 | 52.84516 | 6.32771 | 44° | 106km/h | 12463m | -4.2m/s | -46.2°C | 0% | 184.3hPa | 2.5V | 07:50:25 | 02:39:13 | 00:00:00 | |
| DL1XH-west | 2026-08-31 02:04:37 | 52.84478 | 6.32708 | 46° | 108km/h | 12471m | -4.2m/s | -46.3°C | 0% | 184.1hPa | 2.5V | 07:50:25 | 02:39:11 | 00:00:00 | |
| DF5WG-10 | 2026-08-31 02:04:37 | 52.84478 | 6.32708 | 46° | 97km/h | 12472m | -4.1m/s | -46.2°C | 3.0% | 184.1hPa | 2.5V | 00:00:00 | 02:39:11 | 00:00:00 | |
| DD1CC2-15 | 2026-08-31 02:04:34 | 52.84441 | 6.32642 | 50° | 106km/h | 12480m | -4.1m/s | -46.3°C | 1.2% | 183.9hPa | 2.5V | 07:50:00 | 00:00:00 | 00:00:00 | |
| DL1XH-15 | 2026-08-31 02:04:33 | 52.84343 | 6.32421 | 53° | 82km/h | 12509m | -4.2m/s | -46.3°C | 3% | 183.1hPa | 2.5V | 07:50:20 | 02:39:02 | 00:00:00 | |
| BIOWL1-15 | 2026-08-31 02:04:30 | 52.84368 | 6.32479 | 55° | 88km/h | 12500m | -4.4m/s | -46.4°C | 0% | 183.3hPa | 2.5V | 07:50:25 | 02:39:04 | 00:00:00 | |
| DO2JMG | 2026-08-31 02:04:29 | 52.84355 | 6.32449 | 54° | 84km/h | 12505m | -4.2m/s | 0°C | 0% | 183.2hPa | 2.5V | 07:50:25 | 02:39:03 | 00:00:00 | |
| DL1XH-west | 2026-08-31 02:04:26 | 52.84317 | 6.32368 | 50° | 80km/h | 12517m | -4.2m/s | -46.3°C | 0% | 182.8hPa | 2.6V | 07:50:25 | 02:39:00 | 00:00:00 | |
| DO9LL-15 | 2026-08-31 02:04:26 | 52.84317 | 6.32368 | 50° | 91km/h | 12517m | -4.1m/s | -46.2°C | 3.0% | 182.8hPa | 2.6V | 00:00:00 | 02:39:00 | 00:00:00 | |
| DL1XH-15 | 2026-08-31 02:04:22 | 52.84165 | 6.32144 | 41° | 104km/h | 12553m | -4.1m/s | -46.2°C | 3% | 181.8hPa | 2.6V | 07:50:31 | 02:38:51 | 00:00:00 | |
| DO2JMG | 2026-08-31 02:04:19 | 52.84204 | 6.32199 | 39° | 99km/h | 12545m | -3.9m/s | 0°C | 0% | 182.1hPa | 2.5V | 18:12:15 | 02:38:53 | 00:00:00 | |
| DL1XH-west | 2026-08-31 02:04:15 | 52.84126 | 6.32083 | 45° | 108km/h | 12562m | -4.5m/s | -46.3°C | 0% | 181.6hPa | 2.5V | 07:51:16 | 02:38:49 | 00:00:00 | |
| DO2JMG | 2026-08-31 02:04:08 | 52.84015 | 6.31864 | 51° | 84km/h | 12594m | -4.2m/s | 0°C | 0% | 0hPa | 2.6V | 18:12:15 | 02:38:42 | 00:00:00 | |
| DL1XH-west | 2026-08-31 02:04:05 | 52.83974 | 6.31789 | 45° | 78km/h | 12606m | -4.1m/s | -46.4°C | 0% | 180.5hPa | 2.5V | 07:51:16 | 02:38:39 | 00:00:00 | |
| DO2JMG | 2026-08-31 02:03:58 | 52.83861 | 6.31630 | 40° | 97km/h | 12635m | -4.1m/s | 0°C | 0% | 0hPa | 2.6V | 18:12:15 | 02:38:32 | 00:00:00 | |
| DL1XH-west | 2026-08-31 02:03:55 | 52.83805 | 6.31543 | 46° | 104km/h | 12648m | -4.2m/s | -46.3°C | 0% | 179.4hPa | 2.5V | 07:51:16 | 02:38:29 | 00:00:00 | |
| BIOWL1-15 | 2026-08-31 02:03:48 | 52.83689 | 6.31314 | 53° | 97km/h | 12678m | -4m/s | -46.1°C | 0% | 178.5hPa | 2.5V | 07:51:16 | 02:38:22 | 00:00:00 | |
| DO2JMG | 2026-08-31 02:03:47 | 52.83675 | 6.31282 | 53° | 93km/h | 12682m | -3.9m/s | 0°C | 0% | 0hPa | 2.6V | 18:12:15 | 02:38:21 | 00:00:00 | |
| DF5WG-10 | 2026-08-31 02:03:47 | 52.83675 | 6.31282 | 54° | 88km/h | 12682m | -3.8m/s | -46.1°C | 3.0% | 178.4hPa | 2.6V | 00:00:00 | 02:38:21 | 00:00:00 | |
| DM0DOS-11 | 2026-08-31 02:03:45 | 52.83595 | 6.31109 | 51° | 84km/h | 12706m | -4.2m/s | -46.1°C | 3% | 177.8hPa | 2.6V | 07:51:07 | 02:38:15 | 00:00:00 | |
| DL1XH-west | 2026-08-31 02:03:45 | 52.83648 | 6.31221 | 53° | 88km/h | 12689m | -3.8m/s | -46.1°C | 0% | 178.2hPa | 2.5V | 07:51:16 | 02:38:19 | 00:00:00 | |
| BIOWL1-15 | 2026-08-31 02:03:37 | 52.83537 | 6.30995 | 48° | 95km/h | 12723m | -4.5m/s | -46.1°C | 0% | 177.3hPa | 2.5V | 07:51:16 | 02:38:11 | 00:00:00 | |
| DF5WG-10 | 2026-08-31 02:03:37 | 52.83537 | 6.30995 | 49° | 104km/h | 12723m | -4.4m/s | -46.1°C | 3.0% | 177.3hPa | 2.5V | 00:00:00 | 02:38:11 | 00:00:00 | |
| DL3AQ-11 | 2026-08-31 02:03:36 | 52.83504 | 6.30934 | 48° | 99km/h | 12731m | -5.3m/s | -46.2°C | 0% | 177.1hPa | 2.5V | 00:00:00 | 00:00:00 | 00:00:00 | |
| DM0DOS-11 | 2026-08-31 02:03:35 | 52.83434 | 6.30806 | 47° | 106km/h | 12750m | -4.2m/s | -46.2°C | 3.1% | 176.6hPa | 2.5V | 07:51:17 | 02:38:05 | 00:00:00 | |
| DL1XH-west | 2026-08-31 02:03:35 | 52.83504 | 6.30934 | 48° | 99km/h | 12731m | -5.3m/s | -46.2°C | 0.1% | 177.1hPa | 2.6V | 07:51:16 | 02:38:09 | 00:00:00 | |
| DL1XH-15 | 2026-08-31 02:03:32 | 52.83364 | 6.30667 | 53° | 108km/h | 12767m | -4.2m/s | -46.2°C | 3% | 176.1hPa | 2.5V | 07:51:21 | 02:38:01 | 00:00:00 | |
| BIOWL1-15 | 2026-08-31 02:03:27 | 52.83364 | 6.30667 | 53° | 108km/h | 12767m | -4.2m/s | -46.2°C | 0.1% | 176.1hPa | 2.5V | 07:52:07 | 02:38:01 | 00:00:00 | |
| DF5WG-10 | 2026-08-31 02:03:27 | 52.83364 | 6.30667 | 54° | 104km/h | 12767m | -4.2m/s | -46.2°C | 3.0% | 176.1hPa | 2.5V | 00:00:00 | 02:38:01 | 00:00:00 | |
| DO9LL-15 | 2026-08-31 02:03:26 | 52.83348 | 6.30630 | 56° | 97km/h | 12772m | -4.3m/s | -46.2°C | 3.0% | 176.0hPa | 2.5V | 00:00:00 | 02:38:00 | 00:00:00 | |
| DM0DOS-11 | 2026-08-31 02:03:25 | 52.83278 | 6.30442 | 61° | 104km/h | 12792m | -4.3m/s | -46.3°C | 3% | 175.5hPa | 2.5V | 07:51:27 | 02:37:55 | 00:00:00 | |
| DL1XH-west | 2026-08-31 02:03:24 | 52.83318 | 6.30555 | 57° | 106km/h | 12780m | -3.9m/s | -46.2°C | 0% | 175.8hPa | 2.6V | 07:52:07 | 02:37:58 | 00:00:00 | |
| DL1XH-15 | 2026-08-31 02:03:22 | 52.83230 | 6.30296 | 59° | 95km/h | 12809m | -4.3m/s | -46.1°C | 3.1% | 175.1hPa | 2.5V | 07:51:31 | 02:37:51 | 00:00:00 | |
| BIOWL1-15 | 2026-08-31 02:03:16 | 52.83218 | 6.30263 | 57° | 91km/h | 12813m | -3.8m/s | -46.1°C | 0.1% | 175hPa | 2.5V | 07:52:07 | 02:37:50 | 00:00:00 | |
| DL1XH-west | 2026-08-31 02:03:14 | 52.83192 | 6.30200 | 54° | 89km/h | 12821m | -4.3m/s | -46°C | 0% | 174.8hPa | 2.6V | 07:52:07 | 02:37:48 | 00:00:00 | |
| DD1CC3-15 | 2026-08-31 02:03:13 | 52.83192 | 6.30200 | 55° | 89km/h | 12821m | -4.3m/s | -46.0°C | 1.2% | 174.8hPa | 2.6V | 07:52:00 | 00:00:00 | 00:00:00 | |
| DL1XH-15 | 2026-08-31 02:03:12 | 52.83092 | 6.29983 | 55° | 95km/h | 12851m | -4.8m/s | -46°C | 3.1% | 173.9hPa | 2.6V | 07:51:41 | 02:37:41 | 00:00:00 | |
| BIOWL1-15 | 2026-08-31 02:03:08 | 52.83079 | 6.29950 | 56° | 99km/h | 12856m | -4.5m/s | -46.1°C | 0.1% | 173.9hPa | 2.5V | 07:52:07 | 02:37:40 | 00:00:00 | |
| DF5WG-10 | 2026-08-31 02:03:07 | 52.83092 | 6.29983 | 56° | 93km/h | 12851m | -4.7m/s | -46.0°C | 3.1% | 173.9hPa | 2.5V | 07:51:00 | 02:37:41 | 00:00:00 | |
| GOEST3-10 | 2026-08-31 02:03:06 | 52.83079 | 6.29950 | 57° | 97km/h | 12856m | -4.4m/s | -46.0°C | 3.1% | 173.8hPa | 2.5V | 00:00:00 | 02:37:40 | 00:00:00 | |
| DM0DOS-11 | 2026-08-31 02:03:05 | 52.83018 | 6.29774 | 62° | 95km/h | 12880m | -4.4m/s | -46.1°C | 3.1% | 173.3hPa | 2.5V | 07:51:47 | 02:37:35 | 00:00:00 | |
| DL1XH-west | 2026-08-31 02:03:04 | 52.83053 | 6.29879 | 60° | 99km/h | 12865m | -4.3m/s | -46.1°C | 0.1% | 173.6hPa | 2.5V | 07:52:07 | 02:37:38 | 00:00:00 | |
| DL1XH-15 | 2026-08-31 02:03:02 | 52.82976 | 6.29642 | 61° | 82km/h | 12900m | -3.5m/s | -46.1°C | 3.1% | 172.8hPa | 2.6V | 07:51:51 | 02:37:31 | 00:00:00 | |
| HTAHTA | 2026-08-31 02:02:58 | 52.82987 | 6.29673 | 61° | 84km/h | 12894m | -3.9m/s | -46.1°C | 1.2% | 172.9hPa | 2.6V | 00:00:00 | 00:00:00 | 00:00:00 | |
| DF5WG-10 | 2026-08-31 02:02:57 | 52.82976 | 6.29642 | 62° | 77km/h | 12900m | -3.4m/s | -46.1°C | 3.1% | 172.7hPa | 2.6V | 00:00:00 | 02:37:31 | 00:00:00 | |
| DO9LL-15 | 2026-08-31 02:02:56 | 52.82966 | 6.29612 | 61° | 78km/h | 12903m | -3.4m/s | -46.0°C | 3.1% | 172.6hPa | 2.6V | 00:00:00 | 02:37:30 | 00:00:00 | |
| DM0DOS-11 | 2026-08-31 02:02:55 | 52.82915 | 6.29475 | 55° | 73km/h | 12921m | -4.2m/s | -45.6°C | 2.9% | 172.2hPa | 2.6V | 07:51:57 | 02:37:25 | 00:00:00 | |
| BIOWL1-15 | 2026-08-31 02:02:55 | 52.82956 | 6.29582 | 60° | 78km/h | 12906m | -3.5m/s | -46°C | 0.1% | 172.5hPa | 2.5V | 07:52:07 | 02:37:29 | 00:00:00 | |
| DL1XH-west | 2026-08-31 02:02:54 | 52.82946 | 6.29554 | 59° | 77km/h | 12910m | -3.7m/s | -45.9°C | 0.1% | 172.4hPa | 2.5V | 07:52:07 | 02:37:28 | 00:00:00 | |
| BIOWL9-15 | 2026-08-31 02:02:54 | 52.82936 | 6.29527 | 57° | 75km/h | 12913m | -4.0m/s | -45.8°C | 1.2% | 172.3hPa | 2.6V | 00:00:00 | 00:00:00 | 00:00:00 | |
| DJ2DS-15 | 2026-08-31 02:02:51 | 52.82916 | 6.29475 | 55° | 71km/h | 12921m | -4.2m/s | -45.6°C | 1.1% | 172.2hPa | 2.6V | 00:00:00 | 00:00:00 | 00:00:00 | |
| SONCRA | 2026-08-31 02:02:49 | 52.82894 | 6.29426 | 51° | 73km/h | 12929m | -4.0m/s | -45.6°C | 1.1% | 171.9hPa | 2.6V | 00:00:00 | 00:00:00 | 00:00:00 | |
| DF5WG-10 | 2026-08-31 02:02:47 | 52.82869 | 6.29379 | 47° | 86km/h | 12937m | -3.7m/s | -45.6°C | 2.9% | 171.7hPa | 2.6V | 00:00:00 | 02:37:21 | 00:00:00 | |
| DD1CC2-15 | 2026-08-31 02:02:46 | 52.82869 | 6.29379 | 48° | 78km/h | 12937m | -3.8m/s | -45.6°C | 1.1% | 171.8hPa | 2.6V | 07:52:00 | 00:00:00 | 00:00:00 | |
| DM0DOS-11 | 2026-08-31 02:02:45 | 52.82781 | 6.29229 | 48° | 91km/h | 12960m | -4.3m/s | -45.8°C | 3% | 171.1hPa | 2.6V | 07:52:07 | 02:37:15 | 00:00:00 | |
| DL1XH-west | 2026-08-31 02:02:43 | 52.82812 | 6.29282 | 45° | 86km/h | 12952m | -3.9m/s | -45.7°C | 0% | 171.4hPa | 2.5V | 07:52:07 | 02:37:17 | 00:00:00 | |
| BIOWL1-15 | 2026-08-31 02:02:37 | 52.82668 | 6.28939 | 58° | 73km/h | 13007m | -4m/s | -45.9°C | 0.1% | 170hPa | 2.5V | 07:52:58 | 02:37:05 | 00:00:00 | |
| DF5WG-10 | 2026-08-31 02:02:37 | 52.82727 | 6.29109 | 60° | 77km/h | 12978m | -4.7m/s | -45.8°C | 3.0% | 170.7hPa | 2.5V | 00:00:00 | 02:37:11 | 00:00:00 | |
| GOEST3-10 | 2026-08-31 02:02:36 | 52.82716 | 6.29078 | 61° | 78km/h | 12984m | -4.3m/s | -45.8°C | 3.1% | 170.5hPa | 2.5V | 00:00:00 | 02:37:10 | 00:00:00 | |
| DM0DOS-11 | 2026-08-31 02:02:35 | 52.82668 | 6.28939 | 57° | 73km/h | 13007m | -4m/s | -45.9°C | 3% | 170hPa | 2.5V | 07:52:17 | 02:37:05 | 00:00:00 | |
| DL1XH-west | 2026-08-31 02:02:32 | 52.82677 | 6.28965 | 59° | 73km/h | 13004m | -3.9m/s | -45.9°C | 0.1% | 170.1hPa | 2.5V | 07:52:58 | 02:37:06 | 00:00:00 | |
| GOEST3-10 | 2026-08-31 02:02:31 | 52.82668 | 6.28939 | 58° | 69km/h | 13008m | -3.9m/s | -45.8°C | 3.0% | 170.0hPa | 2.5V | 00:00:00 | 00:00:00 | 00:00:00 | |
| DO3DL | 2026-08-31 02:02:30 | 52.82668 | 6.28939 | 59° | 73km/h | 13008m | -4.0m/s | -45.9°C | 1.2% | 170.0hPa | 2.5V | 07:52:00 | 00:00:00 | 00:00:00 | |
| DL1LOL-11 | 2026-08-31 02:02:29 | 52.82658 | 6.28914 | 57° | 71km/h | 13011m | -3.9m/s | -45.9°C | 1.2% | 169.9hPa | 2.5V | 00:00:00 | 00:00:00 | 00:00:00 | |
| DF5WG-10 | 2026-08-31 02:02:27 | 52.82626 | 6.28846 | 48° | 77km/h | 13022m | -3.4m/s | -45.9°C | 3.0% | 169.5hPa | 2.5V | 00:00:00 | 02:37:01 | 00:00:00 | |
| DD1CC2-15 | 2026-08-31 02:02:26 | 52.82614 | 6.28826 | 46° | 68km/h | 13025m | -3.4m/s | -46.0°C | 1.2% | 169.4hPa | 2.5V | 07:52:00 | 00:00:00 | 00:00:00 | |
| DM0DOS-11 | 2026-08-31 02:02:24 | 52.82547 | 6.28725 | 41° | 80km/h | 13044m | -4m/s | -46°C | 3% | 169hPa | 2.5V | 07:52:27 | 02:36:55 | 00:00:00 | |
| BIOWL1-15 | 2026-08-31 02:02:23 | 52.82576 | 6.28767 | 42° | 73km/h | 13035m | -4.8m/s | -46°C | 0% | 169.2hPa | 2.6V | 07:52:58 | 02:36:57 | 00:00:00 | |
| BIOWL9-15 | 2026-08-31 02:02:23 | 52.82562 | 6.28746 | 41° | 77km/h | 13040m | -4.7m/s | -46.0°C | 1.1% | 169.1hPa | 2.5V | 00:00:00 | 00:00:00 | 00:00:00 | |
| DL1XH-15 | 2026-08-31 02:02:22 | 52.82480 | 6.28630 | 42° | 93km/h | 13059m | -4m/s | -46.2°C | 3.1% | 168.6hPa | 2.5V | 07:52:31 | 02:36:51 | 00:00:00 | |
| DL1XH-west | 2026-08-31 02:02:21 | 52.82547 | 6.28725 | 41° | 80km/h | 13044m | -4m/s | -46.1°C | 0.1% | 169hPa | 2.5V | 07:52:58 | 02:36:55 | 00:00:00 | |
| DB0UT-7 | 2026-08-31 02:02:19 | 52.82514 | 6.28679 | 41° | 80km/h | 13052m | -3.4m/s | -46.1°C | 3.0% | 168.7hPa | 2.6V | 00:00:00 | 00:00:00 | 00:00:00 | |
| SONCRA | 2026-08-31 02:02:18 | 52.82497 | 6.28655 | 40° | 89km/h | 13055m | -3.7m/s | -46.2°C | 1.2% | 168.7hPa | 2.5V | 00:00:00 | 00:00:00 | 00:00:00 | |
| DF5WG-10 | 2026-08-31 02:02:17 | 52.82480 | 6.28630 | 43° | 89km/h | 13059m | -4.0m/s | -46.1°C | 3.1% | 168.5hPa | 2.5V | 00:00:00 | 02:36:51 | 00:00:00 | |
| DM0DOS-11 | 2026-08-31 02:02:16 | 52.82387 | 6.28459 | 55° | 89km/h | 13082m | -4.2m/s | -46.3°C | 3.1% | 168hPa | 2.5V | 07:52:37 | 02:36:45 | 00:00:00 | |
| BIOWL1-15 | 2026-08-31 02:02:12 | 52.82387 | 6.28459 | 55° | 89km/h | 13083m | -4.2m/s | -46.3°C | 0.2% | 168hPa | 2.5V | 07:52:58 | 02:36:45 | 00:00:00 | |
| DL1XH-15 | 2026-08-31 02:02:12 | 52.82343 | 6.28344 | 58° | 75km/h | 13100m | -4.4m/s | -46.4°C | 3.1% | 167.6hPa | 2.6V | 07:52:41 | 02:36:41 | 00:00:00 | |
| DL1XH-west | 2026-08-31 02:02:10 | 52.82375 | 6.28429 | 57° | 86km/h | 13087m | -4.3m/s | -46.3°C | 0.2% | 167.9hPa | 2.5V | 07:52:58 | 02:36:44 | 00:00:00 | |
| DF5WG-10 | 2026-08-31 02:02:07 | 52.82343 | 6.28344 | 59° | 68km/h | 13100m | -4.4m/s | -46.4°C | 3.1% | 167.5hPa | 2.5V | 00:00:00 | 02:36:41 | 00:00:00 | |
| GOEST3-10 | 2026-08-31 02:02:06 | 52.82333 | 6.28318 | 59° | 68km/h | 13105m | -4.4m/s | -46.4°C | 3.2% | 167.4hPa | 2.5V | 00:00:00 | 02:36:40 | 00:00:00 | |
| DC4HF-4 | 2026-08-31 02:02:04 | 52.82314 | 6.28271 | 53° | 66km/h | 13113m | -3.6m/s | -46.5°C | 1.2% | 167.2hPa | 2.6V | 00:00:00 | 00:00:00 | 00:00:00 | |
| DO1YAY-16 | 2026-08-31 02:02:03 | 52.82305 | 6.28248 | 53° | 64km/h | 13117m | -4.4m/s | -46.6°C | 1.2% | 167.2hPa | 2.6V | 00:00:00 | 00:00:00 | 00:00:00 | |
| DM0DOS-11 | 2026-08-31 02:02:02 | 52.82284 | 6.28207 | 46° | 64km/h | 13125m | -4m/s | -46.6°C | 3.1% | 166.9hPa | 2.6V | 07:52:47 | 02:36:35 | 00:00:00 | |
| DL1XH-15 | 2026-08-31 02:02:02 | 52.82234 | 6.28134 | 36° | 71km/h | 13141m | -3.8m/s | -46.7°C | 3.1% | 166.6hPa | 2.6V | 07:52:51 | 02:36:31 | 00:00:00 | |
| BIOWL1-15 | 2026-08-31 02:02:02 | 52.82295 | 6.28227 | 50° | 64km/h | 13121m | -4.2m/s | -46.6°C | 0.2% | 167hPa | 2.6V | 07:52:58 | 02:36:36 | 00:00:00 | |
| DL1XH-west | 2026-08-31 02:01:59 | 52.82261 | 6.28170 | 41° | 64km/h | 13133m | -4.1m/s | -46.7°C | 0.2% | 166.8hPa | 2.5V | 07:52:58 | 02:36:33 | 00:00:00 | |
| DF5WG-10 | 2026-08-31 02:01:57 | 52.82234 | 6.28134 | 37° | 84km/h | 13141m | -3.8m/s | -46.6°C | 3.1% | 166.5hPa | 2.6V | 00:00:00 | 02:36:31 | 00:00:00 | |
| DO9LL-15 | 2026-08-31 02:01:56 | 52.82219 | 6.28116 | 37° | 80km/h | 13145m | -3.6m/s | -46.7°C | 3.1% | 166.4hPa | 2.6V | 07:52:00 | 02:36:30 | 00:00:00 | |
| WEDDY | 2026-08-31 02:01:55 | 52.82219 | 6.28116 | 37° | 75km/h | 13145m | -3.6m/s | -46.7°C | 1.2% | 166.5hPa | 2.6V | 07:52:00 | 00:00:00 | 00:00:00 | |
| DM0DOS-11 | 2026-08-31 02:01:52 | 52.82136 | 6.28008 | 42° | 89km/h | 13164m | -4m/s | -46.7°C | 3.2% | 166hPa | 2.6V | 07:52:57 | 02:36:25 | 00:00:00 | |
| DL1XH-15 | 2026-08-31 02:01:52 | 52.82075 | 6.27900 | 51° | 84km/h | 13180m | -4.1m/s | -46.8°C | 3.2% | 165.6hPa | 2.5V | 07:53:01 | 02:36:21 | 00:00:00 | |
| DL3AQ-11 | 2026-08-31 02:01:52 | 52.82136 | 6.28008 | 42° | 89km/h | 13164m | -4.0m/s | -46.7°C | 1.2% | 166.0hPa | 2.6V | 00:00:00 | 00:00:00 | 00:00:00 | |
| GOEST3-10 | 2026-08-31 02:01:51 | 52.82136 | 6.28008 | 43° | 88km/h | 13165m | -3.9m/s | -46.6°C | 3.2% | 165.9hPa | 2.6V | 00:00:00 | 00:00:00 | 00:00:00 | |
| DB0UT-7 | 2026-08-31 02:01:49 | 52.82103 | 6.27955 | 48° | 82km/h | 13173m | -3.9m/s | -46.7°C | 3.2% | 165.7hPa | 2.5V | 00:00:00 | 02:36:23 | 00:00:00 | |
| DL1XH-west | 2026-08-31 02:01:49 | 52.82103 | 6.27955 | 47° | 89km/h | 13172m | -4m/s | -46.7°C | 0.2% | 165.8hPa | 2.5V | 07:53:49 | 02:36:23 | 00:00:00 | |
| DF5WG-10 | 2026-08-31 02:01:47 | 52.82075 | 6.27900 | 52° | 71km/h | 13180m | -4.0m/s | -46.8°C | 3.2% | 165.5hPa | 2.5V | 07:53:00 | 02:36:21 | 00:00:00 | |
| GOEST3-10 | 2026-08-31 02:01:46 | 52.82062 | 6.27873 | 54° | 73km/h | 13185m | -4.0m/s | -46.8°C | 3.1% | 165.4hPa | 2.5V | 00:00:00 | 02:36:20 | 00:00:00 | |
| DD1CC3-15 | 2026-08-31 02:01:45 | 52.82062 | 6.27873 | 55° | 80km/h | 13185m | -4.1m/s | -46.8°C | 1.2% | 165.5hPa | 2.5V | 07:53:00 | 00:00:00 | 00:00:00 | |
| BIOWL7-15 | 2026-08-31 02:01:44 | 52.82051 | 6.27846 | 55° | 77km/h | 13189m | -4.1m/s | -46.9°C | 1.2% | 165.4hPa | 2.5V | 00:00:00 | 00:00:00 | 00:00:00 | |
| DM0DOS-11 | 2026-08-31 02:01:42 | 52.82008 | 6.27754 | 48° | 66km/h | 13205m | -4.2m/s | -47°C | 3.2% | 165hPa | 2.5V | 07:53:07 | 02:36:15 | 00:00:00 | |
| DL1XH-15 | 2026-08-31 02:01:42 | 52.81960 | 6.27676 | 42° | 71km/h | 13223m | -4.1m/s | -47°C | 3.3% | 164.6hPa | 2.5V | 07:53:11 | 02:36:11 | 00:00:00 | |
| BIOWL1-15 | 2026-08-31 02:01:40 | 52.81997 | 6.27734 | 47° | 66km/h | 13210m | -4.3m/s | -47°C | 0.3% | 164.9hPa | 2.6V | 07:53:49 | 02:36:14 | 00:00:00 | |
| DL1XH-west | 2026-08-31 02:01:39 | 52.81986 | 6.27715 | 45° | 66km/h | 13214m | -4.3m/s | -47°C | 0.3% | 164.8hPa | 2.6V | 07:53:49 | 02:36:13 | 00:00:00 | |
| DF5WG-10 | 2026-08-31 02:01:37 | 52.81960 | 6.27676 | 43° | 84km/h | 13223m | -4.1m/s | -47.0°C | 3.3% | 164.5hPa | 2.5V | 00:00:00 | 02:36:11 | 00:00:00 | |
| DM0DOS-11 | 2026-08-31 02:01:36 | 52.81869 | 6.27541 | 42° | 88km/h | 13248m | -4.2m/s | -47.2°C | 3.2% | 163.9hPa | 2.5V | 07:53:17 | 02:36:05 | 00:00:00 | |
| GOEST3-10 | 2026-08-31 02:01:36 | 52.81947 | 6.27655 | 42° | 80km/h | 13227m | -3.7m/s | -47.0°C | 3.2% | 164.4hPa | 2.5V | 00:00:00 | 02:36:10 | 00:00:00 | |
| DC6BW-12 | 2026-08-31 02:01:35 | 52.81947 | 6.27655 | 43° | 75km/h | 13227m | -3.7m/s | -47.0°C | 1.3% | 164.4hPa | 2.5V | 07:53:00 | 00:00:00 | 00:00:00 | |
| WEDDY | 2026-08-31 02:01:34 | 52.81932 | 6.27634 | 43° | 78km/h | 13231m | -4.0m/s | -47.1°C | 1.3% | 164.4hPa | 2.5V | 07:53:00 | 00:00:00 | 00:00:00 | |
| DL1XH-15 | 2026-08-31 02:01:32 | 52.81804 | 6.27433 | 48° | 93km/h | 13265m | -4.1m/s | -47.3°C | 3.3% | 163.5hPa | 2.5V | 07:53:21 | 02:36:01 | 00:00:00 | |
| BIOWL1-15 | 2026-08-31 02:01:29 | 52.81804 | 6.27433 | 48° | 93km/h | 13265m | -4.1m/s | -47.3°C | 0.3% | 163.5hPa | 2.5V | 07:53:49 | 02:36:01 | 00:00:00 | |
| DL1XH-west | 2026-08-31 02:01:28 | 52.81820 | 6.27461 | 47° | 91km/h | 13260m | -4.1m/s | -47.3°C | 0.3% | 163.7hPa | 2.6V | 07:53:49 | 02:36:02 | 00:00:00 | |
| BIOWL1-15 | 2026-08-31 02:01:23 | 52.81698 | 6.27194 | 56° | 82km/h | 13297m | -3.8m/s | -47.4°C | 0.4% | 162.7hPa | 2.5V | 07:53:49 | 02:35:53 | 00:00:00 | |
| DM0DOS-11 | 2026-08-31 02:01:22 | 52.81721 | 6.27253 | 56° | 86km/h | 13289m | -3.9m/s | -47.4°C | 3.3% | 163hPa | 2.5V | 07:53:27 | 02:35:55 | 00:00:00 | |
| DL1XH-15 | 2026-08-31 02:01:22 | 52.81675 | 6.27139 | 53° | 80km/h | 13305m | -4.3m/s | -47.3°C | 3.3% | 162.6hPa | 2.6V | 07:53:31 | 02:35:51 | 00:00:00 | |
| DL1XH-west | 2026-08-31 02:01:18 | 52.81687 | 6.27166 | 55° | 80km/h | 13301m | -4.1m/s | -47.4°C | 0.3% | 162.6hPa | 2.6V | 07:53:49 | 02:35:52 | 00:00:00 | |
| DF5WG-10 | 2026-08-31 02:01:17 | 52.81674 | 6.27139 | 54° | 86km/h | 13306m | -4.2m/s | -47.3°C | 3.3% | 162.5hPa | 2.5V | 00:00:00 | 02:35:51 | 00:00:00 | |
| GOEST3-10 | 2026-08-31 02:01:16 | 52.81662 | 6.27112 | 50° | 84km/h | 13310m | -4.1m/s | -47.3°C | 3.3% | 162.4hPa | 2.5V | 00:00:00 | 02:35:50 | 00:00:00 | |
| DC6BW-12 | 2026-08-31 02:01:15 | 52.81662 | 6.27112 | 51° | 80km/h | 13310m | -4.1m/s | -47.3°C | 1.3% | 162.4hPa | 2.5V | 07:53:00 | 00:00:00 | 00:00:00 | |
| WEDDY | 2026-08-31 02:01:14 | 52.81648 | 6.27087 | 48° | 82km/h | 13314m | -4.4m/s | -47.3°C | 1.3% | 162.3hPa | 2.5V | 07:53:00 | 00:00:00 | 00:00:00 | |
| DM0DOS-11 | 2026-08-31 02:01:12 | 52.81586 | 6.26988 | 43° | 88km/h | 13331m | -4.2m/s | -47.5°C | 3.3% | 161.9hPa | 2.5V | 07:53:37 | 02:35:45 | 00:00:00 | |
| DL1XH-15 | 2026-08-31 02:01:12 | 52.81523 | 6.26883 | 48° | 88km/h | 13347m | -3.9m/s | -47.5°C | 3.5% | 161.5hPa | 2.6V | 07:53:41 | 02:35:41 | 00:00:00 | |
| BIOWL1-15 | 2026-08-31 02:01:11 | 52.81554 | 6.26937 | 44° | 89km/h | 13339m | -4.1m/s | -47.5°C | 0.4% | 161.7hPa | 2.5V | 07:53:49 | 02:35:43 | 00:00:00 | |
| DL1XH-west | 2026-08-31 02:01:07 | 52.81523 | 6.26883 | 48° | 88km/h | 13347m | -3.9m/s | -47.5°C | 0.5% | 161.5hPa | 2.6V | 07:53:49 | 02:35:41 | 00:00:00 | |
| DF5WG-10 | 2026-08-31 02:01:07 | 52.81523 | 6.26882 | 49° | 89km/h | 13347m | -3.8m/s | -47.4°C | 3.5% | 161.5hPa | 2.5V | 00:00:00 | 02:35:41 | 00:00:00 | |
| DO3DL | 2026-08-31 02:01:04 | 52.81494 | 6.26826 | 52° | 88km/h | 13355m | -3.5m/s | -47.3°C | 1.3% | 161.3hPa | 2.5V | 07:53:00 | 00:00:00 | 00:00:00 | |
| DJ2DS-15 | 2026-08-31 02:01:03 | 52.81468 | 6.26767 | 54° | 88km/h | 13363m | -3.9m/s | -47.3°C | 1.3% | 161.1hPa | 2.5V | 00:00:00 | 00:00:00 | 00:00:00 | |
| DL1XH-15 | 2026-08-31 02:01:02 | 52.81398 | 6.26577 | 59° | 84km/h | 13389m | -3.7m/s | -47.3°C | 3.4% | 160.5hPa | 2.5V | 07:53:51 | 02:35:31 | 00:00:00 | |
| BIOWL1-15 | 2026-08-31 02:00:58 | 52.81409 | 6.26608 | 61° | 88km/h | 13385m | -3.8m/s | -47.3°C | 0.4% | 160.6hPa | 2.5V | 07:54:40 | 02:35:32 | 00:00:00 | |
| DL1XH-west | 2026-08-31 02:00:56 | 52.81388 | 6.26547 | 62° | 80km/h | 13393m | -4.6m/s | -47.3°C | 0.4% | 160.4hPa | 2.6V | 07:54:40 | 02:35:30 | 00:00:00 | |
| DL3AQ-11 | 2026-08-31 02:00:55 | 52.81378 | 6.26517 | 61° | 78km/h | 13397m | -4.1m/s | -47.3°C | 1.3% | 160.3hPa | 2.5V | 00:00:00 | 00:00:00 | 00:00:00 | |
| HTAHTA | 2026-08-31 02:00:54 | 52.81369 | 6.26490 | 59° | 73km/h | 13402m | -3.5m/s | -47.2°C | 1.3% | 160.2hPa | 2.5V | 00:00:00 | 00:00:00 | 00:00:00 | |
| DL1XH-15 | 2026-08-31 02:00:52 | 52.81303 | 6.26330 | 48° | 66km/h | 13429m | -3.8m/s | -47.1°C | 3.3% | 159.5hPa | 2.5V | 07:54:01 | 02:35:21 | 00:00:00 | |
| BIOWL1-15 | 2026-08-31 02:00:48 | 52.81313 | 6.26351 | 52° | 64km/h | 13424m | -4.6m/s | -47.1°C | 0.3% | 159.6hPa | 2.5V | 07:54:40 | 02:35:22 | 00:00:00 | |
| DL1XH-west | 2026-08-31 02:00:45 | 52.81280 | 6.26286 | 51° | 73km/h | 13436m | -4.2m/s | -47.2°C | 0.3% | 159.2hPa | 2.6V | 07:54:40 | 02:35:19 | 00:00:00 | |
| DO3DL | 2026-08-31 02:00:44 | 52.81280 | 6.26286 | 52° | 73km/h | 13436m | -4.2m/s | -47.2°C | 1.3% | 159.2hPa | 2.5V | 07:54:00 | 00:00:00 | 00:00:00 | |
| DH3RM | 2026-08-31 02:00:43 | 52.81268 | 6.26261 | 52° | 78km/h | 13440m | -3.9m/s | -47.2°C | 1.3% | 159.2hPa | 2.5V | 00:00:00 | 00:00:00 | 00:00:00 | |
| DM0DOS-11 | 2026-08-31 02:00:42 | 52.81230 | 6.26174 | 57° | 89km/h | 13452m | -4.2m/s | -47.2°C | 3.3% | 158.9hPa | 2.5V | 07:54:07 | 02:35:15 | 00:00:00 | |
| DL1XH-15 | 2026-08-31 02:00:42 | 52.81185 | 6.26047 | 63° | 84km/h | 13468m | -4.6m/s | -47.2°C | 3.3% | 158.5hPa | 2.5V | 07:54:11 | 02:35:11 | 00:00:00 | |
| BIOWL1-15 | 2026-08-31 02:00:37 | 52.81167 | 6.25987 | 65° | 77km/h | 13477m | -4.7m/s | -47.3°C | 0.4% | 158.3hPa | 2.5V | 07:54:40 | 02:35:09 | 00:00:00 | |
| DF5WG-10 | 2026-08-31 02:00:37 | 52.81185 | 6.26047 | 64° | 71km/h | 13468m | -4.6m/s | -47.2°C | 3.3% | 158.4hPa | 2.5V | 00:00:00 | 02:35:11 | 00:00:00 | |
| DM0DOS-11 | 2026-08-31 02:00:36 | 52.81133 | 6.25883 | 57° | 68km/h | 13495m | -5.1m/s | -47.3°C | 3.3% | 157.8hPa | 2.5V | 07:54:17 | 02:35:05 | 00:00:00 | |
| DL1XH-west | 2026-08-31 02:00:34 | 52.81159 | 6.25959 | 64° | 75km/h | 13481m | -4.9m/s | -47.2°C | 0.4% | 158.2hPa | 2.6V | 07:54:40 | 02:35:08 | 00:00:00 | |
| DC6BW-12 | 2026-08-31 02:00:33 | 52.81159 | 6.25958 | 65° | 75km/h | 13482m | -4.9m/s | -47.2°C | 1.3% | 158.1hPa | 2.6V | 07:54:00 | 00:00:00 | 00:00:00 | |
| DL1XH-15 | 2026-08-31 02:00:32 | 52.81091 | 6.25799 | 46° | 68km/h | 13513m | -4.6m/s | -47.4°C | 3.3% | 157.4hPa | 2.6V | 07:54:21 | 02:35:01 | 00:00:00 | |
| BIOWL1-15 | 2026-08-31 02:00:28 | 52.81091 | 6.25799 | 47° | 68km/h | 13513m | -4.6m/s | -47.4°C | 0.4% | 157.5hPa | 2.6V | 07:54:40 | 02:35:01 | 00:00:00 | |
| DL1XH-west | 2026-08-31 02:00:23 | 52.81040 | 6.25715 | 43° | 77km/h | 13531m | -3.8m/s | -47.5°C | 0.4% | 157hPa | 2.6V | 07:54:40 | 02:34:57 | 00:00:00 | |
| HTAHTA | 2026-08-31 02:00:23 | 52.81012 | 6.25668 | 46° | 80km/h | 13540m | -3.9m/s | -47.6°C | 1.4% | 156.8hPa | 2.6V | 00:00:00 | 00:00:00 | 00:00:00 | |
| DL1XH-15 | 2026-08-31 02:00:22 | 52.80959 | 6.25558 | 55° | 80km/h | 13558m | -5m/s | -47.7°C | 3.4% | 156.4hPa | 2.6V | 07:54:31 | 02:34:51 | 00:00:00 | |
| BIOWL1-15 | 2026-08-31 02:00:21 | 52.80959 | 6.25558 | 56° | 80km/h | 13558m | -5m/s | -47.7°C | 0.4% | 156.4hPa | 2.6V | 07:54:40 | 02:34:51 | 00:00:00 | |
| GOEST3-10 | 2026-08-31 02:00:21 | 52.81012 | 6.25668 | 47° | 84km/h | 13540m | -3.9m/s | -47.6°C | 3.4% | 156.7hPa | 2.5V | 00:00:00 | 00:00:00 | 00:00:00 | |
| DB0UT-7 | 2026-08-31 02:00:19 | 52.80984 | 6.25615 | 53° | 77km/h | 13548m | -4.3m/s | -47.6°C | 3.4% | 156.6hPa | 2.6V | 00:00:00 | 00:00:00 | 00:00:00 | |
| DO3DL | 2026-08-31 02:00:18 | 52.80984 | 6.25615 | 53° | 86km/h | 13548m | -4.4m/s | -47.7°C | 1.3% | 156.6hPa | 2.6V | 07:54:00 | 00:00:00 | 00:00:00 | |
| DF5WG-10 | 2026-08-31 02:00:17 | 52.80959 | 6.25558 | 56° | 71km/h | 13558m | -4.9m/s | -47.7°C | 3.4% | 156.3hPa | 2.6V | 00:00:00 | 02:34:51 | 00:00:00 | |
| DM0DOS-11 | 2026-08-31 02:00:16 | 52.80895 | 6.25410 | 50° | 68km/h | 13586m | -5.2m/s | -47.6°C | 3.3% | 155.7hPa | 2.6V | 07:54:37 | 02:34:45 | 00:00:00 | |
| DL1XH-west | 2026-08-31 02:00:12 | 52.80906 | 6.25432 | 51° | 69km/h | 13581m | -5m/s | -47.6°C | 0.5% | 155.8hPa | 2.6V | 07:54:40 | 02:34:46 | 00:00:00 | |
| DO2JMG | 2026-08-31 02:00:10 | 52.80883 | 6.25390 | 45° | 66km/h | 13591m | -4.4m/s | -47.6°C | 0.5% | 155.6hPa | 2.5V | 07:56:22 | 02:34:44 | 00:00:00 | |
| BIOWL1-15 | 2026-08-31 02:00:06 | 52.80816 | 6.25291 | 38° | 77km/h | 13615m | -3.8m/s | -47.7°C | 0.5% | 155.1hPa | 2.6V | 07:55:31 | 02:34:39 | 00:00:00 | |
| GOEST3-10 | 2026-08-31 02:00:06 | 52.80831 | 6.25311 | 41° | 80km/h | 13611m | -4.8m/s | -47.7°C | 3.3% | 155.1hPa | 2.6V | 00:00:00 | 02:34:40 | 00:00:00 | |
| DM0DOS-11 | 2026-08-31 02:00:05 | 52.80753 | 6.25202 | 44° | 88km/h | 13632m | -4.6m/s | -47.9°C | 3.4% | 154.7hPa | 2.6V | 07:54:47 | 02:34:35 | 00:00:00 | |
| DL1XH-15 | 2026-08-31 02:00:02 | 52.80695 | 6.25095 | 52° | 84km/h | 13649m | -4.4m/s | -47.9°C | 3.4% | 154.2hPa | 2.5V | 07:54:51 | 02:34:31 | 00:00:00 | |
| DL1XH-west | 2026-08-31 02:00:02 | 52.80769 | 6.25227 | 41° | 84km/h | 13627m | -4.4m/s | -47.8°C | 0.4% | 154.8hPa | 2.5V | 07:55:31 | 02:34:36 | 00:00:00 | |
| DO2JMG | 2026-08-31 01:59:59 | 52.80722 | 6.25150 | 49° | 88km/h | 13640m | -4.5m/s | -47.9°C | 0.5% | 154.5hPa | 2.5V | 07:56:22 | 02:34:33 | 00:00:00 | |
| BIOWL1-15 | 2026-08-31 01:59:56 | 52.80682 | 6.25067 | 55° | 82km/h | 13653m | -4.7m/s | -48°C | 0.5% | 154.1hPa | 2.5V | 07:55:31 | 02:34:30 | 00:00:00 | |
| DO9LL-15 | 2026-08-31 01:59:56 | 52.80682 | 6.25067 | 56° | 84km/h | 13653m | -4.7m/s | -47.9°C | 3.4% | 154.1hPa | 2.5V | 00:00:00 | 02:34:30 | 00:00:00 | |
| DH3RM | 2026-08-31 01:59:53 | 52.80660 | 6.25014 | 56° | 77km/h | 13661m | -4.9m/s | -48.0°C | 1.3% | 153.9hPa | 2.5V | 00:00:00 | 00:00:00 | 00:00:00 | |
| DL1XH-15 | 2026-08-31 01:59:52 | 52.80570 | 6.24862 | 40° | 80km/h | 13693m | -5.3m/s | -48.3°C | 3.5% | 153.1hPa | 2.5V | 07:55:01 | 02:34:21 | 00:00:00 | |
| DL1XH-west | 2026-08-31 01:59:51 | 52.80626 | 6.24945 | 47° | 69km/h | 13675m | -4.2m/s | -48.1°C | 0.5% | 153.6hPa | 2.5V | 07:55:31 | 02:34:25 | 00:00:00 | |
| BIOWL1-15 | 2026-08-31 01:59:46 | 52.80554 | 6.24840 | 40° | 84km/h | 13698m | -5.1m/s | -48.3°C | 0.5% | 153hPa | 2.5V | 07:55:31 | 02:34:20 | 00:00:00 | |
| GOEST3-10 | 2026-08-31 01:59:46 | 52.80554 | 6.24840 | 40° | 89km/h | 13699m | -5.0m/s | -48.3°C | 3.5% | 153.0hPa | 2.5V | 00:00:00 | 02:34:20 | 00:00:00 | |
| DM0DOS-11 | 2026-08-31 01:59:45 | 52.80467 | 6.24721 | 40° | 93km/h | 13724m | -4.5m/s | -48.5°C | 3.5% | 152.5hPa | 2.5V | 07:55:07 | 02:34:15 | 00:00:00 | |
| DO2JMG | 2026-08-31 01:59:43 | 52.80502 | 6.24771 | 40° | 91km/h | 13714m | -5.1m/s | -48.4°C | 0.6% | 152.7hPa | 2.6V | 07:56:22 | 02:34:17 | 00:00:00 | |
| DL1XH-15 | 2026-08-31 01:59:42 | 52.80395 | 6.24609 | 48° | 99km/h | 13742m | -4.5m/s | -48.6°C | 3.5% | 152hPa | 2.6V | 07:55:11 | 02:34:11 | 00:00:00 | |
| DL1XH-west | 2026-08-31 01:59:40 | 52.80449 | 6.24695 | 41° | 95km/h | 13729m | -4.1m/s | -48.5°C | 0.6% | 152.4hPa | 2.5V | 07:55:31 | 02:34:14 | 00:00:00 | |
| DC4HF-4 | 2026-08-31 01:59:40 | 52.80430 | 6.24668 | 42° | 97km/h | 13733m | -4.2m/s | -48.6°C | 1.4% | 152.2hPa | 2.5V | 00:00:00 | 00:00:00 | 00:00:00 | |
| DO3DL | 2026-08-31 01:59:38 | 52.80430 | 6.24668 | 44° | 99km/h | 13733m | -4.2m/s | -48.6°C | 1.4% | 152.2hPa | 2.5V | 07:55:00 | 00:00:00 | 00:00:00 | |
| DF5WG-10 | 2026-08-31 01:59:37 | 52.80395 | 6.24609 | 49° | 86km/h | 13743m | -4.5m/s | -48.6°C | 3.5% | 152.0hPa | 2.5V | 00:00:00 | 02:34:11 | 00:00:00 | |
| DM0DOS-11 | 2026-08-31 01:59:36 | 52.80314 | 6.24425 | 58° | 78km/h | 13766m | -4.5m/s | -48.7°C | 3.6% | 151.4hPa | 2.5V | 07:55:17 | 02:34:05 | 00:00:00 | |
| BIOWL1-15 | 2026-08-31 01:59:35 | 52.80364 | 6.24546 | 53° | 95km/h | 13751m | -4.3m/s | -48.7°C | 0.6% | 151.8hPa | 2.5V | 07:55:31 | 02:34:09 | 00:00:00 | |
| BIOWL7-15 | 2026-08-31 01:59:34 | 52.80364 | 6.24546 | 54° | 95km/h | 13751m | -4.3m/s | -48.7°C | 1.4% | 151.8hPa | 2.6V | 00:00:00 | 00:00:00 | 00:00:00 | |
| DL1XH-15 | 2026-08-31 01:59:32 | 52.80273 | 6.24324 | 51° | 71km/h | 13784m | -4.1m/s | -48.8°C | 3.7% | 151.1hPa | 2.6V | 07:55:21 | 02:34:01 | 00:00:00 | |
| DO2JMG | 2026-08-31 01:59:30 | 52.80304 | 6.24398 | 57° | 78km/h | 13771m | -4.7m/s | -48.8°C | 0.6% | 151.3hPa | 2.5V | 07:56:22 | 02:34:04 | 00:00:00 | |
| BIOWL1-15 | 2026-08-31 01:59:28 | 52.80234 | 6.24253 | 45° | 84km/h | 13798m | -4.3m/s | -48.8°C | 0.6% | 150.8hPa | 2.5V | 07:55:31 | 02:33:58 | 00:00:00 | |
| DO1YAY-16 | 2026-08-31 01:59:28 | 52.80273 | 6.24324 | 51° | 71km/h | 13784m | -4.1m/s | -48.8°C | 1.4% | 151.1hPa | 2.6V | 00:00:00 | 00:00:00 | 00:00:00 | |
| DF5WG-10 | 2026-08-31 01:59:27 | 52.80273 | 6.24323 | 52° | 89km/h | 13784m | -4.1m/s | -48.7°C | 3.7% | 151.0hPa | 2.6V | 00:00:00 | 02:34:01 | 00:00:00 | |
| DO9LL-15 | 2026-08-31 01:59:26 | 52.80261 | 6.24301 | 50° | 91km/h | 13789m | -4.6m/s | -48.8°C | 3.6% | 150.9hPa | 2.6V | 00:00:00 | 02:34:00 | 00:00:00 | |
| DM0DOS-11 | 2026-08-31 01:59:25 | 52.80185 | 6.24173 | 45° | 97km/h | 13811m | -5.2m/s | -48.7°C | 3.6% | 150.4hPa | 2.6V | 07:55:27 | 02:33:55 | 00:00:00 | |
| DL3AQ-11 | 2026-08-31 01:59:23 | 52.80202 | 6.24201 | 44° | 93km/h | 13807m | -4.9m/s | -48.8°C | 1.4% | 150.6hPa | 2.5V | 00:00:00 | 00:00:00 | 00:00:00 | |
| DL1XH-15 | 2026-08-31 01:59:22 | 52.80118 | 6.24048 | 51° | 100km/h | 13832m | -4.9m/s | -48.6°C | 3.5% | 150hPa | 2.5V | 07:55:31 | 02:33:51 | 00:00:00 | |
| DO2JMG | 2026-08-31 01:59:20 | 52.80168 | 6.24143 | 47° | 99km/h | 13817m | -5.3m/s | -48.6°C | 0.6% | 150.4hPa | 2.5V | 07:56:22 | 02:33:54 | 00:00:00 | |
| DL1XH-west | 2026-08-31 01:59:19 | 52.80151 | 6.24112 | 48° | 100km/h | 13822m | -5.3m/s | -48.6°C | 0.5% | 150.2hPa | 2.5V | 07:55:31 | 02:33:53 | 00:00:00 | |
| BIOWL1-15 | 2026-08-31 01:59:14 | 52.80074 | 6.23948 | 57° | 99km/h | 13846m | -4.4m/s | -48.7°C | 0.5% | 149.7hPa | 2.5V | 07:56:22 | 02:33:48 | 00:00:00 | |
| DL1XH-15 | 2026-08-31 01:59:12 | 52.79999 | 6.23721 | 60° | 80km/h | 13878m | -4.8m/s | -48.9°C | 3.6% | 148.9hPa | 2.5V | 07:55:41 | 02:33:41 | 00:00:00 | |
| DM0DOS-11 | 2026-08-31 01:59:11 | 52.80038 | 6.23846 | 62° | 89km/h | 13859m | -4.9m/s | -48.8°C | 3.5% | 149.3hPa | 2.6V | 07:55:37 | 02:33:45 | 00:00:00 | |
| DL1XH-west | 2026-08-31 01:59:09 | 52.80018 | 6.23781 | 63° | 84km/h | 13868m | -4.5m/s | -48.8°C | 0.6% | 149.1hPa | 2.5V | 07:56:22 | 02:33:43 | 00:00:00 | |
| DO2JMG | 2026-08-31 01:59:08 | 52.80008 | 6.23751 | 63° | 82km/h | 13873m | -4.5m/s | -48.8°C | 0.6% | 149hPa | 2.5V | 07:56:22 | 02:33:42 | 00:00:00 | |
| BIOWL1-15 | 2026-08-31 01:59:03 | 52.79953 | 6.23612 | 50° | 84km/h | 13897m | -4.8m/s | -49°C | 0.6% | 148.5hPa | 2.5V | 07:56:22 | 02:33:37 | 00:00:00 | |
| DL1XH-15 | 2026-08-31 01:59:02 | 52.79858 | 6.23431 | 51° | 104km/h | 13927m | -4.9m/s | -49.1°C | 3.6% | 147.8hPa | 2.5V | 07:55:51 | 02:33:31 | 00:00:00 | |
| GOEST3-10 | 2026-08-31 01:59:01 | 52.79923 | 6.23556 | 48° | 99km/h | 13907m | -4.8m/s | -49.0°C | 3.6% | 148.3hPa | 2.5V | 00:00:00 | 00:00:00 | 00:00:00 | |
| DM0DOS-11 | 2026-08-31 01:59:00 | 52.79841 | 6.23397 | 52° | 106km/h | 13931m | -4.9m/s | -49.1°C | 3.6% | 147.7hPa | 2.5V | 07:55:52 | 02:33:30 | 00:00:00 | |
| DL1XH-west | 2026-08-31 01:58:59 | 52.79890 | 6.23496 | 49° | 99km/h | 13917m | -5m/s | -49.1°C | 0.6% | 148hPa | 2.6V | 07:56:22 | 02:33:33 | 00:00:00 | |
| DO2JMG | 2026-08-31 01:58:58 | 52.79874 | 6.23465 | 50° | 102km/h | 13922m | -4.9m/s | -49.1°C | 0.6% | 148hPa | 2.6V | 07:56:22 | 02:33:32 | 00:00:00 | |
| BIOWL1-15 | 2026-08-31 01:58:55 | 52.79795 | 6.23287 | 58° | 108km/h | 13946m | -4.7m/s | -49.2°C | 0.6% | 147.4hPa | 2.6V | 07:56:22 | 02:33:27 | 00:00:00 | |
| DL1XH-15 | 2026-08-31 01:58:52 | 52.79722 | 6.23060 | 65° | 93km/h | 13974m | -4.7m/s | -49.3°C | 3.6% | 146.7hPa | 2.6V | 07:56:01 | 02:33:21 | 00:00:00 | |
| DM0DOS-11 | 2026-08-31 01:58:51 | 52.79712 | 6.23025 | 65° | 89km/h | 13978m | -4.5m/s | -49.3°C | 3.6% | 146.6hPa | 2.5V | 07:56:02 | 02:33:20 | 00:00:00 | |
| DO2JMG | 2026-08-31 01:58:48 | 52.79732 | 6.23096 | 65° | 99km/h | 13969m | -4.7m/s | -49.3°C | 0.6% | 146.8hPa | 2.6V | 07:56:22 | 02:33:22 | 00:00:00 | |
| BIOWL9-15 | 2026-08-31 01:58:45 | 52.79703 | 6.22992 | 64° | 84km/h | 13983m | -4.5m/s | -49.4°C | 1.4% | 146.5hPa | 2.6V | 00:00:00 | 00:00:00 | 00:00:00 | |
| BIOWL1-15 | 2026-08-31 01:58:42 | 52.79674 | 6.22903 | 59° | 77km/h | 13997m | -4.6m/s | -49.4°C | 0.6% | 146.2hPa | 2.6V | 07:56:22 | 02:33:16 | 00:00:00 | |
| DM0DOS-11 | 2026-08-31 01:58:41 | 52.79604 | 6.22747 | 50° | 86km/h | 14026m | -4.8m/s | -49.6°C | 3.7% | 145.6hPa | 2.6V | 07:56:12 | 02:33:10 | 00:00:00 | |
| DL1XH-west | 2026-08-31 01:58:38 | 52.79630 | 6.22799 | 52° | 77km/h | 14017m | -5m/s | -49.5°C | 0.5% | 145.8hPa | 2.5V | 07:56:22 | 02:33:12 | 00:00:00 | |
| DO2JMG | 2026-08-31 01:58:37 | 52.79618 | 6.22774 | 50° | 80km/h | 14021m | -5m/s | -49.6°C | 0.6% | 145.7hPa | 2.6V | 07:56:22 | 02:33:11 | 00:00:00 | |
| GOEST3-10 | 2026-08-31 01:58:36 | 52.79604 | 6.22747 | 51° | 95km/h | 14027m | -4.8m/s | -49.5°C | 3.7% | 145.5hPa | 2.6V | 00:00:00 | 02:33:10 | 00:00:00 | |
| DL1XH-15 | 2026-08-31 01:58:32 | 52.79484 | 6.22432 | 65° | 102km/h | 14071m | -5m/s | -49.6°C | 3.6% | 144.6hPa | 2.5V | 07:56:21 | 02:33:01 | 00:00:00 | |
| BIOWL1-15 | 2026-08-31 01:58:31 | 52.79507 | 6.22509 | 62° | 104km/h | 14061m | -4.9m/s | -49.6°C | 0.6% | 144.8hPa | 2.5V | 07:56:22 | 02:33:03 | 00:00:00 | |
| DL1XH-west | 2026-08-31 01:58:27 | 52.79484 | 6.22432 | 66° | 102km/h | 14071m | -5m/s | -49.6°C | 0.6% | 144.6hPa | 2.5V | 07:56:22 | 02:33:01 | 00:00:00 | |
| DO2JMG | 2026-08-31 01:58:26 | 52.79474 | 6.22393 | 67° | 100km/h | 14076m | -4.8m/s | -49.6°C | 0.5% | 144.5hPa | 2.6V | 07:56:22 | 02:33:00 | 00:00:00 | |
| DO1YAY-16 | 2026-08-31 01:58:26 | 52.79465 | 6.22355 | 68° | 99km/h | 14081m | -4.7m/s | -49.7°C | 1.3% | 144.4hPa | 2.5V | 00:00:00 | 00:00:00 | 00:00:00 | |
| DO3DL | 2026-08-31 01:58:24 | 52.79465 | 6.22355 | 70° | 99km/h | 14081m | -4.7m/s | -49.7°C | 1.3% | 144.4hPa | 2.5V | 07:57:00 | 00:00:00 | 00:00:00 | |
| DL1XH-15 | 2026-08-31 01:58:22 | 52.79406 | 6.22092 | 64° | 75km/h | 14119m | -4.6m/s | -49.8°C | 3.7% | 143.6hPa | 2.5V | 07:56:31 | 02:32:51 | 00:00:00 | |
| DM0DOS-11 | 2026-08-31 01:58:21 | 52.79397 | 6.22064 | 62° | 77km/h | 14124m | -5m/s | -49.9°C | 3.7% | 143.5hPa | 2.5V | 07:56:32 | 02:32:50 | 00:00:00 | |
| BIOWL1-15 | 2026-08-31 01:58:21 | 52.79434 | 6.22213 | 71° | 84km/h | 14100m | -4.3m/s | -49.7°C | 0.5% | 144hPa | 2.5V | 07:57:13 | 02:32:55 | 00:00:00 | |
| DL1XH-west | 2026-08-31 01:58:17 | 52.79406 | 6.22092 | 65° | 75km/h | 14119m | -4.6m/s | -49.8°C | 0.6% | 143.6hPa | 2.5V | 07:57:13 | 02:32:51 | 00:00:00 | |
| DO2JMG | 2026-08-31 01:58:15 | 52.79388 | 6.22035 | 61° | 80km/h | 14128m | -5m/s | -49.9°C | 0.6% | 143.3hPa | 2.6V | 07:57:13 | 02:32:49 | 00:00:00 | |
| BIOWL9-15 | 2026-08-31 01:58:14 | 52.79377 | 6.22006 | 58° | 84km/h | 14134m | -4.9m/s | -49.9°C | 1.4% | 143.2hPa | 2.5V | 00:00:00 | 00:00:00 | 00:00:00 | |
| DL1XH-15 | 2026-08-31 01:58:12 | 52.79298 | 6.21756 | 68° | 100km/h | 14169m | -5.5m/s | -50°C | 3.8% | 142.5hPa | 2.5V | 07:56:41 | 02:32:41 | 00:00:00 | |
| BIOWL1-15 | 2026-08-31 01:58:10 | 52.79330 | 6.21870 | 63° | 100km/h | 14153m | -5.2m/s | -50°C | 0.6% | 142.8hPa | 2.5V | 07:57:13 | 02:32:44 | 00:00:00 | |
| DL1XH-west | 2026-08-31 01:58:07 | 52.79298 | 6.21756 | 69° | 100km/h | 14169m | -5.5m/s | -50°C | 0.6% | 142.5hPa | 2.5V | 07:57:13 | 02:32:41 | 00:00:00 | |
| DO2JMG | 2026-08-31 01:58:05 | 52.79282 | 6.21680 | 72° | 93km/h | 14181m | -5.3m/s | -50°C | 0.6% | 142.2hPa | 2.5V | 07:57:13 | 02:32:39 | 00:00:00 | |
| DJ2DS-15 | 2026-08-31 01:58:03 | 52.79268 | 6.21607 | 72° | 88km/h | 14192m | -5.1m/s | -49.9°C | 1.4% | 142.0hPa | 2.6V | 00:00:00 | 00:00:00 | 00:00:00 | |
| DL1XH-15 | 2026-08-31 01:58:02 | 52.79230 | 6.21422 | 68° | 68km/h | 14223m | -4.7m/s | -49.5°C | 3.6% | 141.3hPa | 2.6V | 07:56:51 | 02:32:31 | 00:00:00 | |
| DM0DOS-11 | 2026-08-31 01:58:01 | 52.79224 | 6.21397 | 65° | 66km/h | 14228m | -4.2m/s | -49.5°C | 3.6% | 141.2hPa | 2.5V | 07:56:52 | 02:32:30 | 00:00:00 | |
| BIOWL1-15 | 2026-08-31 01:57:59 | 52.79243 | 6.21479 | 70° | 77km/h | 14213m | -5.1m/s | -49.6°C | 0.5% | 141.6hPa | 2.5V | 07:57:13 | 02:32:33 | 00:00:00 | |
| DL1XH-west | 2026-08-31 01:57:56 | 52.79224 | 6.21397 | 66° | 66km/h | 14228m | -4.2m/s | -49.5°C | 0.4% | 141.2hPa | 2.5V | 07:57:13 | 02:32:30 | 00:00:00 | |
| DO2JMG | 2026-08-31 01:57:54 | 52.79210 | 6.21346 | 64° | 64km/h | 14237m | -5.6m/s | -49.5°C | 0.4% | 141hPa | 2.5V | 07:57:13 | 02:32:28 | 00:00:00 | |
| DL1XH-15 | 2026-08-31 01:57:52 | 52.79138 | 6.21175 | 53° | 84km/h | 14270m | -4.3m/s | -49.5°C | 3.6% | 140.3hPa | 2.6V | 07:57:01 | 02:32:21 | 00:00:00 | |
| DM0DOS-11 | 2026-08-31 01:57:51 | 52.79126 | 6.21146 | 54° | 84km/h | 14274m | -4.5m/s | -49.5°C | 3.6% | 140.2hPa | 2.6V | 07:57:02 | 02:32:20 | 00:00:00 | |
| AA1-15 | 2026-08-31 01:57:50 | 52.79173 | 6.21252 | 54° | 73km/h | 14256m | -4.9m/s | -49.5°C | 0.4% | 140.5hPa | 2.5V | 07:57:13 | 02:32:24 | 00:00:00 | |
| BIOWL1-15 | 2026-08-31 01:57:48 | 52.79138 | 6.21175 | 53° | 84km/h | 14270m | -4.3m/s | -49.5°C | 0.4% | 140.3hPa | 2.6V | 07:57:13 | 02:32:21 | 00:00:00 | |
| DL1XH-west | 2026-08-31 01:57:45 | 52.79113 | 6.21117 | 56° | 88km/h | 14279m | -4.6m/s | -49.5°C | 0.4% | 140.1hPa | 2.5V | 07:57:13 | 02:32:19 | 00:00:00 | |
| DO2JMG | 2026-08-31 01:57:44 | 52.79101 | 6.21086 | 58° | 88km/h | 14283m | -4.8m/s | -49.4°C | 0.4% | 140hPa | 2.5V | 07:57:13 | 02:32:18 | 00:00:00 | |
| BIOWL9-15 | 2026-08-31 01:57:43 | 52.79090 | 6.21055 | 60° | 86km/h | 14288m | -4.8m/s | -49.4°C | 1.3% | 139.9hPa | 2.6V | 00:00:00 | 00:00:00 | 00:00:00 | |
| DM0DOS-11 | 2026-08-31 01:57:41 | 52.79034 | 6.20855 | 65° | 60km/h | 14326m | -4.7m/s | -49.1°C | 3.5% | 139.2hPa | 2.6V | 07:57:12 | 02:32:10 | 00:00:00 | |
| BIOWL1-15 | 2026-08-31 01:57:40 | 52.79047 | 6.20906 | 69° | 68km/h | 14314m | -5.3m/s | -49.2°C | 0.4% | 139.4hPa | 2.5V | 07:57:13 | 02:32:12 | 00:00:00 | |
| DL1XH-west | 2026-08-31 01:57:35 | 52.79028 | 6.20832 | 66° | 60km/h | 14330m | -5.5m/s | -49.1°C | 0.4% | 139.1hPa | 2.6V | 07:57:13 | 02:32:09 | 00:00:00 | |
| DO2JMG | 2026-08-31 01:57:32 | 52.79007 | 6.20769 | 57° | 58km/h | 14344m | -5.4m/s | -49.1°C | 0.3% | 138.7hPa | 2.5V | 07:58:04 | 02:32:06 | 00:00:00 | |
| DM0DOS-11 | 2026-08-31 01:57:31 | 52.78949 | 6.20656 | 42° | 68km/h | 14373m | -4.2m/s | -49.3°C | 3.5% | 138.1hPa | 2.5V | 07:57:22 | 02:32:00 | 00:00:00 | |
| DL1XH-west | 2026-08-31 01:57:25 | 52.78936 | 6.20637 | 42° | 71km/h | 14377m | -4.6m/s | -49.3°C | 0.3% | 138hPa | 2.6V | 07:58:04 | 02:31:59 | 00:00:00 | |
| AA1-15 | 2026-08-31 01:57:24 | 52.78923 | 6.20616 | 43° | 73km/h | 14382m | -5.1m/s | -49.3°C | 0.3% | 137.9hPa | 2.6V | 07:58:04 | 02:31:58 | 00:00:00 | |
| DL3AQ-11 | 2026-08-31 01:57:23 | 52.78895 | 6.20575 | 40° | 77km/h | 14392m | -4.6m/s | -49.4°C | 1.3% | 137.7hPa | 2.5V | 00:00:00 | 00:00:00 | 00:00:00 | |
| DM0DOS-11 | 2026-08-31 01:57:22 | 52.78811 | 6.20441 | 50° | 75km/h | 14420m | -4.5m/s | -49.4°C | 3.7% | 137.1hPa | 2.5V | 07:57:32 | 02:31:50 | 00:00:00 | |
| DO2JMG | 2026-08-31 01:57:21 | 52.78881 | 6.20554 | 41° | 75km/h | 14397m | -5m/s | -49.4°C | 0.3% | 137.7hPa | 2.5V | 07:58:04 | 02:31:55 | 00:00:00 | |
| BIOWL1-15 | 2026-08-31 01:57:16 | 52.78811 | 6.20441 | 50° | 75km/h | 14420m | -4.5m/s | -49.5°C | 0.5% | 137.1hPa | 2.5V | 07:58:04 | 02:31:50 | 00:00:00 | |
| DL1XH-west | 2026-08-31 01:57:14 | 52.78788 | 6.20393 | 55° | 71km/h | 14429m | -4.7m/s | -49.4°C | 0.4% | 137hPa | 2.5V | 07:58:04 | 02:31:48 | 00:00:00 | |
| AA1-15 | 2026-08-31 01:57:13 | 52.78778 | 6.20368 | 57° | 69km/h | 14434m | -4.6m/s | -49.4°C | 0.4% | 136.9hPa | 2.6V | 07:58:04 | 02:31:47 | 00:00:00 | |
| DL1XH-15 | 2026-08-31 01:57:12 | 52.78729 | 6.20229 | 58° | 58km/h | 14466m | -4.7m/s | -48.9°C | 3.4% | 136.2hPa | 2.6V | 07:57:41 | 02:31:41 | 00:00:00 | |
| DO2JMG | 2026-08-31 01:57:11 | 52.78761 | 6.20320 | 62° | 68km/h | 14444m | -5.8m/s | -49.2°C | 0.4% | 136.7hPa | 2.5V | 07:58:04 | 02:31:45 | 00:00:00 | |
| BIOWL1-15 | 2026-08-31 01:57:07 | 52.78713 | 6.20191 | 50° | 51km/h | 14475m | -4.2m/s | -48.8°C | 0.3% | 136hPa | 2.5V | 07:58:04 | 02:31:39 | 00:00:00 | |
| DL1XH-west | 2026-08-31 01:57:03 | 52.78697 | 6.20161 | 45° | 46km/h | 14483m | -4.8m/s | -48.5°C | 0.2% | 135.8hPa | 2.5V | 07:58:04 | 02:31:37 | 00:00:00 | |
| AA1-15 | 2026-08-31 01:57:02 | 52.78688 | 6.20148 | 42° | 46km/h | 14487m | -5.6m/s | -48.5°C | 0.2% | 135.8hPa | 2.6V | 07:58:04 | 02:31:36 | 00:00:00 | |
| DM0DOS-11 | 2026-08-31 01:57:02 | 52.78623 | 6.20072 | 36° | 68km/h | 14517m | -4.5m/s | -48.5°C | 3.3% | 135.1hPa | 2.6V | 07:57:52 | 02:31:30 | 00:00:00 | |
| DO2JMG | 2026-08-31 01:57:01 | 52.78680 | 6.20136 | 38° | 46km/h | 14493m | -5.8m/s | -48.4°C | 0.2% | 135.7hPa | 2.6V | 07:58:04 | 02:31:35 | 00:00:00 | |
| BIOWL1-15 | 2026-08-31 01:56:54 | 52.78596 | 6.20037 | 42° | 73km/h | 14526m | -4.6m/s | -48.5°C | 0.3% | 135hPa | 2.5V | 07:58:04 | 02:31:28 | 00:00:00 | |
| DL1XH-west | 2026-08-31 01:56:52 | 52.78569 | 6.19994 | 47° | 77km/h | 14535m | -4.9m/s | -48.6°C | 0.2% | 134.8hPa | 2.5V | 07:58:04 | 02:31:26 | 00:00:00 | |
| DM0DOS-11 | 2026-08-31 01:56:51 | 52.78502 | 6.19845 | 61° | 68km/h | 14562m | -4.7m/s | -48.7°C | 3.3% | 134.2hPa | 2.5V | 07:58:02 | 02:31:20 | 00:00:00 | |
| DO2JMG | 2026-08-31 01:56:50 | 52.78544 | 6.19946 | 51° | 75km/h | 14544m | -4.7m/s | -48.6°C | 0.3% | 134.6hPa | 2.6V | 07:58:04 | 02:31:24 | 00:00:00 | |
| AA1-15 | 2026-08-31 01:56:49 | 52.78532 | 6.19921 | 53° | 75km/h | 14549m | -4.6m/s | -48.7°C | 0.3% | 134.5hPa | 2.5V | 07:58:04 | 02:31:23 | 00:00:00 | |
| MET0W-2 | 2026-08-31 01:56:46 | 52.78494 | 6.19821 | 61° | 62km/h | 14567m | -4.4m/s | -48.8°C | 1.2% | 134.1hPa | 2.5V | 00:00:00 | 00:00:00 | 00:00:00 | |
| HTAHTA | 2026-08-31 01:56:45 | 52.78494 | 6.19821 | 61° | 62km/h | 14567m | -4.4m/s | -48.8°C | 1.2% | 134.1hPa | 2.5V | 00:00:00 | 00:00:00 | 00:00:00 | |
| BIOWL1-15 | 2026-08-31 01:56:43 | 52.78474 | 6.19754 | 66° | 53km/h | 14580m | -4.9m/s | -48.8°C | 0.3% | 133.8hPa | 2.5V | 07:58:55 | 02:31:16 | 00:00:00 | |
| DL3AQ-11 | 2026-08-31 01:56:43 | 52.78474 | 6.19754 | 65° | 51km/h | 14580m | -4.9m/s | -48.8°C | 1.2% | 133.8hPa | 2.5V | 00:00:00 | 00:00:00 | 00:00:00 | |
| DL1XH-15 | 2026-08-31 01:56:42 | 52.78445 | 6.19673 | 48° | 42km/h | 14605m | -4.3m/s | -48.3°C | 3.3% | 133.3hPa | 2.5V | 07:58:11 | 02:31:11 | 00:00:00 | |
| DL1XH-west | 2026-08-31 01:56:41 | 52.78468 | 6.19735 | 61° | 49km/h | 14586m | -4.6m/s | -48.7°C | 0.3% | 133.7hPa | 2.5V | 07:58:55 | 02:31:15 | 00:00:00 | |
| DO2JMG | 2026-08-31 01:56:39 | 52.78457 | 6.19702 | 61° | 42km/h | 14595m | -5.5m/s | -48.5°C | 0.2% | 133.5hPa | 2.6V | 07:58:55 | 02:31:13 | 00:00:00 | |
| AA1-15 | 2026-08-31 01:56:38 | 52.78451 | 6.19687 | 57° | 42km/h | 14601m | -5.1m/s | -48.3°C | 0.2% | 133.4hPa | 2.5V | 07:58:55 | 02:31:12 | 00:00:00 | |
| BIOWL1-15 | 2026-08-31 01:56:33 | 52.78409 | 6.19617 | 41° | 58km/h | 14624m | -4.8m/s | -48.4°C | 0.2% | 133hPa | 2.6V | 07:58:55 | 02:31:07 | 00:00:00 | |
| DL1XH-15 | 2026-08-31 01:56:32 | 52.78340 | 6.19493 | 55° | 71km/h | 14654m | -5.4m/s | -48.6°C | 3.3% | 132.4hPa | 2.5V | 07:58:21 | 02:31:01 | 00:00:00 | |
| DL1XH-west | 2026-08-31 01:56:31 | 52.78386 | 6.19582 | 45° | 68km/h | 14634m | -5m/s | -48.5°C | 0.2% | 132.7hPa | 2.5V | 07:58:55 | 02:31:05 | 00:00:00 | |
| DO2JMG | 2026-08-31 01:56:28 | 52.78350 | 6.19517 | 51° | 71km/h | 14649m | -4.9m/s | -48.6°C | 0.3% | 132.5hPa | 2.6V | 07:58:55 | 02:31:02 | 00:00:00 | |
| AA1-15 | 2026-08-31 01:56:27 | 52.78340 | 6.19493 | 56° | 71km/h | 14654m | -5.4m/s | -48.6°C | 0.2% | 132.4hPa | 2.5V | 07:58:55 | 02:31:01 | 00:00:00 | |
| BIOWL1-15 | 2026-08-31 01:56:27 | 52.78306 | 6.19394 | 65° | 64km/h | 14674m | -4.7m/s | -48.7°C | 0.3% | 131.9hPa | 2.6V | 07:58:55 | 02:30:57 | 00:00:00 | |
| GOEST3-10 | 2026-08-31 01:56:26 | 52.78330 | 6.19468 | 57° | 66km/h | 14659m | -4.9m/s | -48.6°C | 3.3% | 132.2hPa | 2.6V | 00:00:00 | 02:31:00 | 00:00:00 | |
| DD1CC2-15 | 2026-08-31 01:56:24 | 52.78321 | 6.19443 | 63° | 68km/h | 14664m | -5.0m/s | -48.7°C | 1.2% | 132.2hPa | 2.6V | 07:58:00 | 00:00:00 | 00:00:00 | |
| BIOWL7-15 | 2026-08-31 01:56:23 | 52.78313 | 6.19418 | 65° | 66km/h | 14669m | -4.9m/s | -48.7°C | 1.2% | 132.1hPa | 2.6V | 07:58:00 | 00:00:00 | 00:00:00 | |
| DM0DOS-11 | 2026-08-31 01:56:21 | 52.78271 | 6.19253 | 61° | 44km/h | 14708m | -4.6m/s | -48.6°C | 3.3% | 131.3hPa | 2.6V | 07:58:32 | 02:30:50 | 00:00:00 | |
| DL1XH-west | 2026-08-31 01:56:20 | 52.78289 | 6.19327 | 71° | 53km/h | 14688m | -4.7m/s | -48.6°C | 0.2% | 131.7hPa | 2.5V | 07:58:55 | 02:30:54 | 00:00:00 | |
| DO2JMG | 2026-08-31 01:56:18 | 52.78280 | 6.19287 | 69° | 47km/h | 14698m | -4.6m/s | -48.7°C | 0.3% | 131.5hPa | 2.5V | 07:58:55 | 02:30:52 | 00:00:00 | |
| AA1-15 | 2026-08-31 01:56:16 | 52.78271 | 6.19253 | 62° | 44km/h | 14708m | -4.6m/s | -48.7°C | 0.2% | 131.3hPa | 2.6V | 07:58:55 | 02:30:50 | 00:00:00 | |
| DF5WG-10 | 2026-08-31 01:56:16 | 52.78271 | 6.19253 | 62° | 53km/h | 14708m | -4.6m/s | -48.6°C | 3.3% | 131.3hPa | 2.5V | 00:00:00 | 02:30:50 | 00:00:00 | |
| DO3DL | 2026-08-31 01:56:15 | 52.78271 | 6.19253 | 63° | 44km/h | 14708m | -4.6m/s | -48.7°C | 1.2% | 131.3hPa | 2.5V | 00:00:00 | 00:00:00 | 00:00:00 | |
| WEDDY | 2026-08-31 01:56:14 | 52.78265 | 6.19237 | 56° | 42km/h | 14713m | -4.9m/s | -48.7°C | 1.2% | 131.2hPa | 2.5V | 07:58:00 | 00:00:00 | 00:00:00 | |
| DL1XH-15 | 2026-08-31 01:56:12 | 52.78185 | 6.19114 | 43° | 68km/h | 14751m | -4.6m/s | -49.1°C | 3.4% | 130.5hPa | 2.5V | 07:58:41 | 02:30:41 | 00:00:00 | |
| BIOWL1-15 | 2026-08-31 01:56:12 | 52.78242 | 6.19196 | 42° | 49km/h | 14727m | -4.8m/s | -48.8°C | 0.3% | 130.9hPa | 2.6V | 07:58:55 | 02:30:46 | 00:00:00 | |
| DL1XH-west | 2026-08-31 01:56:10 | 52.78221 | 6.19166 | 40° | 58km/h | 14736m | -4.7m/s | -48.9°C | 0.3% | 130.8hPa | 2.5V | 07:58:55 | 02:30:44 | 00:00:00 | |
| DO2JMG | 2026-08-31 01:56:07 | 52.78185 | 6.19114 | 44° | 68km/h | 14751m | -4.6m/s | -49.1°C | 0.3% | 130.5hPa | 2.5V | 07:58:55 | 02:30:41 | 00:00:00 | |
| AA1-15 | 2026-08-31 01:56:05 | 52.78161 | 6.19073 | 49° | 71km/h | 14761m | -4.9m/s | -49.2°C | 0.4% | 130.2hPa | 2.6V | 07:58:55 | 02:30:39 | 00:00:00 | |
| BIOWL1-15 | 2026-08-31 01:56:03 | 52.78122 | 6.18976 | 64° | 68km/h | 14780m | -4.9m/s | -49.3°C | 0.3% | 129.9hPa | 2.6V | 07:58:55 | 02:30:35 | 00:00:00 | |
| DL1XH-15 | 2026-08-31 01:56:02 | 52.78100 | 6.18877 | 74° | 58km/h | 14800m | -5m/s | -49.5°C | 3.4% | 129.5hPa | 2.5V | 07:58:51 | 02:30:31 | 00:00:00 | |
| DL1XH-west | 2026-08-31 01:55:59 | 52.78109 | 6.18926 | 70° | 64km/h | 14790m | -4.9m/s | -49.4°C | 0.4% | 129.7hPa | 2.5V | 07:58:55 | 02:30:33 | 00:00:00 | |
| DO2JMG | 2026-08-31 01:55:56 | 52.78096 | 6.18854 | 76° | 57km/h | 14806m | -4.9m/s | -49.5°C | 0.3% | 129.4hPa | 2.5V | 07:58:55 | 02:30:30 | 00:00:00 | |
| AA1-15 | 2026-08-31 01:55:54 | 52.78089 | 6.18810 | 76° | 51km/h | 14815m | -4.8m/s | -49.6°C | 0.4% | 129.2hPa | 2.6V | 07:58:55 | 02:30:28 | 00:00:00 | |
| DL1XH-15 | 2026-08-31 01:55:52 | 52.78052 | 6.18695 | 47° | 51km/h | 14849m | -4.8m/s | -49.8°C | 3.6% | 128.5hPa | 2.5V | 07:59:01 | 02:30:21 | 00:00:00 | |
| BIOWL1-15 | 2026-08-31 01:55:50 | 52.78073 | 6.18740 | 59° | 42km/h | 14835m | -4.7m/s | -49.7°C | 0.4% | 128.8hPa | 2.5V | 07:59:46 | 02:30:24 | 00:00:00 | |
| DL1XH-west | 2026-08-31 01:55:49 | 52.78067 | 6.18725 | 53° | 44km/h | 14839m | -4.9m/s | -49.7°C | 0.4% | 128.7hPa | 2.6V | 07:59:46 | 02:30:23 | 00:00:00 | |
| DO2JMG | 2026-08-31 01:55:46 | 52.78043 | 6.18679 | 48° | 55km/h | 14854m | -4.6m/s | -49.8°C | 0.5% | 128.4hPa | 2.5V | 07:59:46 | 02:30:20 | 00:00:00 | |
| AA1-15 | 2026-08-31 01:55:43 | 52.78015 | 6.18622 | 56° | 64km/h | 14869m | -4.8m/s | -49.9°C | 0.5% | 128.1hPa | 2.6V | 07:59:46 | 02:30:17 | 00:00:00 | |
| BIOWL1-15 | 2026-08-31 01:55:42 | 52.77990 | 6.18550 | 66° | 68km/h | 14884m | -5.1m/s | -49.9°C | 0.5% | 127.8hPa | 2.5V | 07:59:46 | 02:30:14 | 00:00:00 | |
| DM0DOS-11 | 2026-08-31 01:55:41 | 52.77967 | 6.18442 | 74° | 68km/h | 14904m | -4.6m/s | -49.9°C | 3.6% | 127.4hPa | 2.5V | 07:59:12 | 02:30:10 | 00:00:00 | |
| DL1XH-west | 2026-08-31 01:55:38 | 52.77977 | 6.18497 | 71° | 69km/h | 14894m | -5.2m/s | -49.9°C | 0.5% | 127.7hPa | 2.6V | 07:59:46 | 02:30:12 | 00:00:00 | |
| DO2JMG | 2026-08-31 01:55:35 | 52.77963 | 6.18415 | 76° | 68km/h | 14908m | -5m/s | -49.9°C | 0.4% | 127.4hPa | 2.5V | 07:59:46 | 02:30:09 | 00:00:00 | |
| DL1XH-15 | 2026-08-31 01:55:32 | 52.77921 | 6.18236 | 52° | 53km/h | 14946m | -4.9m/s | -50°C | 3.5% | 126.7hPa | 2.6V | 07:59:21 | 02:30:01 | 00:00:00 | |
| AA1-15 | 2026-08-31 01:55:32 | 52.77951 | 6.18338 | 75° | 60km/h | 14923m | -5m/s | -49.9°C | 0.5% | 127.1hPa | 2.6V | 07:59:46 | 02:30:06 | 00:00:00 | |
| BIOWL1-15 | 2026-08-31 01:55:32 | 52.77942 | 6.18292 | 66° | 55km/h | 14932m | -4.2m/s | -49.9°C | 0.4% | 126.9hPa | 2.5V | 07:59:46 | 02:30:04 | 00:00:00 | |
| DL1XH-west | 2026-08-31 01:55:27 | 52.77921 | 6.18236 | 52° | 53km/h | 14946m | -4.9m/s | -50°C | 0.4% | 126.7hPa | 2.6V | 07:59:46 | 02:30:01 | 00:00:00 | |
| DO2JMG | 2026-08-31 01:55:25 | 52.77904 | 6.18202 | 48° | 51km/h | 14956m | -5.1m/s | -50.1°C | 0.5% | 126.4hPa | 2.5V | 07:59:46 | 02:29:59 | 00:00:00 | |
| DO3DL | 2026-08-31 01:55:24 | 52.77904 | 6.18201 | 49° | 51km/h | 14956m | -5.1m/s | -50.1°C | 1.3% | 126.4hPa | 2.5V | 00:00:00 | 00:00:00 | 00:00:00 | |
| DD1CC2-15 | 2026-08-31 01:55:23 | 52.77895 | 6.18185 | 46° | 57km/h | 14961m | -5.0m/s | -50.1°C | 1.3% | 126.3hPa | 2.5V | 07:59:00 | 00:00:00 | 00:00:00 | |
| DL1XH-15 | 2026-08-31 01:55:22 | 52.77817 | 6.18055 | 53° | 71km/h | 14996m | -5.1m/s | -50.4°C | 3.6% | 125.6hPa | 2.5V | 07:59:31 | 02:29:51 | 00:00:00 | |
| AA1-15 | 2026-08-31 01:55:21 | 52.77863 | 6.18136 | 43° | 62km/h | 14976m | -4.9m/s | -50.2°C | 0.5% | 126hPa | 2.6V | 07:59:46 | 02:29:55 | 00:00:00 | |
| BIOWL1-15 | 2026-08-31 01:55:19 | 52.77840 | 6.18099 | 47° | 66km/h | 14986m | -5.2m/s | -50.3°C | 0.5% | 125.8hPa | 2.5V | 07:59:46 | 02:29:53 | 00:00:00 | |
| DL1XH-west | 2026-08-31 01:55:17 | 52.77817 | 6.18055 | 53° | 71km/h | 14996m | -5.1m/s | -50.4°C | 0.5% | 125.6hPa | 2.5V | 07:59:46 | 02:29:51 | 00:00:00 | |
| DO2JMG | 2026-08-31 01:55:14 | 52.77788 | 6.17977 | 64° | 73km/h | 15011m | -5m/s | -50.4°C | 0.6% | 125.4hPa | 2.5V | 07:59:46 | 02:29:48 | 00:00:00 | |
| WEDDY | 2026-08-31 01:55:13 | 52.77788 | 6.17977 | 65° | 73km/h | 15011m | -5.0m/s | -50.4°C | 1.3% | 125.4hPa | 2.5V | 07:59:00 | 00:00:00 | 00:00:00 | |
| MET0W-2 | 2026-08-31 01:55:12 | 52.77774 | 6.17922 | 68° | 68km/h | 15021m | -5.2m/s | -50.4°C | 1.3% | 125.2hPa | 2.5V | 00:00:00 | 00:00:00 | 00:00:00 | |
| DL1XH-15 | 2026-08-31 01:55:12 | 52.77746 | 6.17809 | 60° | 49km/h | 15046m | -4.8m/s | -50.5°C | 3.6% | 124.7hPa | 2.5V | 07:59:41 | 02:29:41 | 00:00:00 | |
| DM0DOS-11 | 2026-08-31 01:55:11 | 52.77740 | 6.17791 | 57° | 51km/h | 15051m | -5.7m/s | -50.5°C | 3.6% | 124.6hPa | 2.5V | 07:59:42 | 02:29:40 | 00:00:00 | |
| AA1-15 | 2026-08-31 01:55:10 | 52.77763 | 6.17872 | 70° | 58km/h | 15031m | -5.1m/s | -50.4°C | 0.5% | 125hPa | 2.6V | 07:59:46 | 02:29:44 | 00:00:00 | |
| BIOWL1-15 | 2026-08-31 01:55:08 | 52.77752 | 6.17829 | 66° | 55km/h | 15041m | -5.5m/s | -50.5°C | 0.5% | 124.8hPa | 2.5V | 07:59:46 | 02:29:42 | 00:00:00 | |
| DL1XH-west | 2026-08-31 01:55:07 | 52.77746 | 6.17809 | 61° | 49km/h | 15046m | -4.8m/s | -50.5°C | 0.5% | 124.7hPa | 2.5V | 07:59:46 | 02:29:41 | 00:00:00 | |
| DO2JMG | 2026-08-31 01:55:04 | 52.77724 | 6.17757 | 47° | 53km/h | 15062m | -4.5m/s | -50.6°C | 0.5% | 124.4hPa | 2.6V | 07:59:46 | 02:29:38 | 00:00:00 | |
| Es werden nur die letzten 3500 von 8116 Frames angezeigt. GPX/KML und Diagramme bleiben verfügbar. | |||||||||||||||